<?xml version="1.0" encoding="UTF-8" standalone="no" ?>
<gpx xmlns="http://www.topografix.com/GPX/1/1" xmlns:xsi="http://www.w3.org/2001/XMLSchema-instance" xsi:schemaLocation="http://www.topografix.com/GPX/1/1 http://www.topografix.com/GPX/1/1/gpx.xsd" version="1.1" creator="VisuGPX - https://www.visugpx.com">
  <metadata>
    <name>E-NE-Ste Luce Carquefou St Mars Désert Mauves Nantes</name>
    <desc><![CDATA[E-NE-Ste Luce Carquefou St Mars Désert Mauves Nantes]]></desc>
  </metadata>
  <trk>
    <name><![CDATA[2021-02-27 11:18 +01:00]]></name>
    <trkseg>
      <trkpt lat="47.16782" lon="-1.62656">
        <ele>81</ele>
        <time>2021-02-27T10:18:40.000Z</time>
      </trkpt>
      <trkpt lat="47.16775" lon="-1.62648">
        <ele>74</ele>
        <time>2021-02-27T10:20:01.000Z</time>
      </trkpt>
      <trkpt lat="47.16786" lon="-1.62649">
        <ele>75</ele>
        <time>2021-02-27T10:21:08.000Z</time>
      </trkpt>
      <trkpt lat="47.16795" lon="-1.62636">
        <ele>72</ele>
        <time>2021-02-27T10:21:11.000Z</time>
      </trkpt>
      <trkpt lat="47.16803" lon="-1.62624">
        <ele>72</ele>
        <time>2021-02-27T10:21:13.000Z</time>
      </trkpt>
      <trkpt lat="47.1681" lon="-1.62613">
        <ele>73</ele>
        <time>2021-02-27T10:21:15.000Z</time>
      </trkpt>
      <trkpt lat="47.16818" lon="-1.62601">
        <ele>73</ele>
        <time>2021-02-27T10:21:17.000Z</time>
      </trkpt>
      <trkpt lat="47.16826" lon="-1.62589">
        <ele>73</ele>
        <time>2021-02-27T10:21:19.000Z</time>
      </trkpt>
      <trkpt lat="47.1683" lon="-1.62574">
        <ele>73</ele>
        <time>2021-02-27T10:21:21.000Z</time>
      </trkpt>
      <trkpt lat="47.16822" lon="-1.6256">
        <ele>72</ele>
        <time>2021-02-27T10:21:23.000Z</time>
      </trkpt>
      <trkpt lat="47.16811" lon="-1.62551">
        <ele>71</ele>
        <time>2021-02-27T10:21:25.000Z</time>
      </trkpt>
      <trkpt lat="47.16799" lon="-1.62544">
        <ele>71</ele>
        <time>2021-02-27T10:21:27.000Z</time>
      </trkpt>
      <trkpt lat="47.16788" lon="-1.62536">
        <ele>72</ele>
        <time>2021-02-27T10:21:29.000Z</time>
      </trkpt>
      <trkpt lat="47.16776" lon="-1.62528">
        <ele>71</ele>
        <time>2021-02-27T10:21:31.000Z</time>
      </trkpt>
      <trkpt lat="47.16765" lon="-1.62521">
        <ele>71</ele>
        <time>2021-02-27T10:21:33.000Z</time>
      </trkpt>
      <trkpt lat="47.16753" lon="-1.62514">
        <ele>71</ele>
        <time>2021-02-27T10:21:35.000Z</time>
      </trkpt>
      <trkpt lat="47.16742" lon="-1.62508">
        <ele>70</ele>
        <time>2021-02-27T10:21:37.000Z</time>
      </trkpt>
      <trkpt lat="47.1673" lon="-1.62502">
        <ele>70</ele>
        <time>2021-02-27T10:21:39.000Z</time>
      </trkpt>
      <trkpt lat="47.16719" lon="-1.62497">
        <ele>70</ele>
        <time>2021-02-27T10:21:41.000Z</time>
      </trkpt>
      <trkpt lat="47.16711" lon="-1.62486">
        <ele>70</ele>
        <time>2021-02-27T10:21:43.000Z</time>
      </trkpt>
      <trkpt lat="47.1671" lon="-1.62467">
        <ele>70</ele>
        <time>2021-02-27T10:21:45.000Z</time>
      </trkpt>
      <trkpt lat="47.16713" lon="-1.62448">
        <ele>70</ele>
        <time>2021-02-27T10:21:47.000Z</time>
      </trkpt>
      <trkpt lat="47.16715" lon="-1.62429">
        <ele>70</ele>
        <time>2021-02-27T10:21:49.000Z</time>
      </trkpt>
      <trkpt lat="47.16722" lon="-1.6241">
        <ele>70</ele>
        <time>2021-02-27T10:21:51.000Z</time>
      </trkpt>
      <trkpt lat="47.16728" lon="-1.6239">
        <ele>70</ele>
        <time>2021-02-27T10:21:53.000Z</time>
      </trkpt>
      <trkpt lat="47.16735" lon="-1.62372">
        <ele>70</ele>
        <time>2021-02-27T10:21:55.000Z</time>
      </trkpt>
      <trkpt lat="47.16744" lon="-1.62357">
        <ele>70</ele>
        <time>2021-02-27T10:21:57.000Z</time>
      </trkpt>
      <trkpt lat="47.16756" lon="-1.62346">
        <ele>71</ele>
        <time>2021-02-27T10:21:59.000Z</time>
      </trkpt>
      <trkpt lat="47.16768" lon="-1.62339">
        <ele>71</ele>
        <time>2021-02-27T10:22:01.000Z</time>
      </trkpt>
      <trkpt lat="47.1678" lon="-1.62333">
        <ele>72</ele>
        <time>2021-02-27T10:22:03.000Z</time>
      </trkpt>
      <trkpt lat="47.16792" lon="-1.62327">
        <ele>73</ele>
        <time>2021-02-27T10:22:05.000Z</time>
      </trkpt>
      <trkpt lat="47.16804" lon="-1.62319">
        <ele>73</ele>
        <time>2021-02-27T10:22:07.000Z</time>
      </trkpt>
      <trkpt lat="47.16815" lon="-1.62311">
        <ele>72</ele>
        <time>2021-02-27T10:22:09.000Z</time>
      </trkpt>
      <trkpt lat="47.16826" lon="-1.62302">
        <ele>72</ele>
        <time>2021-02-27T10:22:11.000Z</time>
      </trkpt>
      <trkpt lat="47.16837" lon="-1.62291">
        <ele>72</ele>
        <time>2021-02-27T10:22:13.000Z</time>
      </trkpt>
      <trkpt lat="47.16847" lon="-1.62278">
        <ele>72</ele>
        <time>2021-02-27T10:22:15.000Z</time>
      </trkpt>
      <trkpt lat="47.16857" lon="-1.62266">
        <ele>71</ele>
        <time>2021-02-27T10:22:17.000Z</time>
      </trkpt>
      <trkpt lat="47.16867" lon="-1.62253">
        <ele>71</ele>
        <time>2021-02-27T10:22:19.000Z</time>
      </trkpt>
      <trkpt lat="47.16877" lon="-1.62241">
        <ele>71</ele>
        <time>2021-02-27T10:22:21.000Z</time>
      </trkpt>
      <trkpt lat="47.16887" lon="-1.62229">
        <ele>71</ele>
        <time>2021-02-27T10:22:23.000Z</time>
      </trkpt>
      <trkpt lat="47.16896" lon="-1.62216">
        <ele>71</ele>
        <time>2021-02-27T10:22:25.000Z</time>
      </trkpt>
      <trkpt lat="47.16905" lon="-1.62203">
        <ele>71</ele>
        <time>2021-02-27T10:22:27.000Z</time>
      </trkpt>
      <trkpt lat="47.16913" lon="-1.6219">
        <ele>71</ele>
        <time>2021-02-27T10:22:29.000Z</time>
      </trkpt>
      <trkpt lat="47.16921" lon="-1.62176">
        <ele>71</ele>
        <time>2021-02-27T10:22:31.000Z</time>
      </trkpt>
      <trkpt lat="47.16929" lon="-1.62161">
        <ele>71</ele>
        <time>2021-02-27T10:22:33.000Z</time>
      </trkpt>
      <trkpt lat="47.16937" lon="-1.62146">
        <ele>71</ele>
        <time>2021-02-27T10:22:35.000Z</time>
      </trkpt>
      <trkpt lat="47.16945" lon="-1.62132">
        <ele>71</ele>
        <time>2021-02-27T10:22:37.000Z</time>
      </trkpt>
      <trkpt lat="47.16952" lon="-1.62116">
        <ele>71</ele>
        <time>2021-02-27T10:22:39.000Z</time>
      </trkpt>
      <trkpt lat="47.1696" lon="-1.62101">
        <ele>71</ele>
        <time>2021-02-27T10:22:41.000Z</time>
      </trkpt>
      <trkpt lat="47.16968" lon="-1.62085">
        <ele>72</ele>
        <time>2021-02-27T10:22:43.000Z</time>
      </trkpt>
      <trkpt lat="47.16976" lon="-1.6207">
        <ele>72</ele>
        <time>2021-02-27T10:22:45.000Z</time>
      </trkpt>
      <trkpt lat="47.16983" lon="-1.62056">
        <ele>72</ele>
        <time>2021-02-27T10:22:47.000Z</time>
      </trkpt>
      <trkpt lat="47.16992" lon="-1.62042">
        <ele>72</ele>
        <time>2021-02-27T10:22:49.000Z</time>
      </trkpt>
      <trkpt lat="47.17001" lon="-1.62028">
        <ele>72</ele>
        <time>2021-02-27T10:22:51.000Z</time>
      </trkpt>
      <trkpt lat="47.1701" lon="-1.62014">
        <ele>72</ele>
        <time>2021-02-27T10:22:53.000Z</time>
      </trkpt>
      <trkpt lat="47.17019" lon="-1.62001">
        <ele>73</ele>
        <time>2021-02-27T10:22:55.000Z</time>
      </trkpt>
      <trkpt lat="47.17028" lon="-1.61988">
        <ele>73</ele>
        <time>2021-02-27T10:22:57.000Z</time>
      </trkpt>
      <trkpt lat="47.17037" lon="-1.61975">
        <ele>73</ele>
        <time>2021-02-27T10:22:59.000Z</time>
      </trkpt>
      <trkpt lat="47.17046" lon="-1.61963">
        <ele>73</ele>
        <time>2021-02-27T10:23:01.000Z</time>
      </trkpt>
      <trkpt lat="47.17055" lon="-1.6195">
        <ele>72</ele>
        <time>2021-02-27T10:23:03.000Z</time>
      </trkpt>
      <trkpt lat="47.17063" lon="-1.61938">
        <ele>72</ele>
        <time>2021-02-27T10:23:05.000Z</time>
      </trkpt>
      <trkpt lat="47.17072" lon="-1.61927">
        <ele>71</ele>
        <time>2021-02-27T10:23:07.000Z</time>
      </trkpt>
      <trkpt lat="47.17082" lon="-1.61917">
        <ele>71</ele>
        <time>2021-02-27T10:23:09.000Z</time>
      </trkpt>
      <trkpt lat="47.17092" lon="-1.61907">
        <ele>71</ele>
        <time>2021-02-27T10:23:11.000Z</time>
      </trkpt>
      <trkpt lat="47.17103" lon="-1.61897">
        <ele>70</ele>
        <time>2021-02-27T10:23:13.000Z</time>
      </trkpt>
      <trkpt lat="47.17113" lon="-1.61888">
        <ele>70</ele>
        <time>2021-02-27T10:23:15.000Z</time>
      </trkpt>
      <trkpt lat="47.17123" lon="-1.61878">
        <ele>71</ele>
        <time>2021-02-27T10:23:17.000Z</time>
      </trkpt>
      <trkpt lat="47.17133" lon="-1.61868">
        <ele>70</ele>
        <time>2021-02-27T10:23:19.000Z</time>
      </trkpt>
      <trkpt lat="47.17143" lon="-1.61859">
        <ele>70</ele>
        <time>2021-02-27T10:23:21.000Z</time>
      </trkpt>
      <trkpt lat="47.17152" lon="-1.61849">
        <ele>70</ele>
        <time>2021-02-27T10:23:23.000Z</time>
      </trkpt>
      <trkpt lat="47.17162" lon="-1.6184">
        <ele>70</ele>
        <time>2021-02-27T10:23:25.000Z</time>
      </trkpt>
      <trkpt lat="47.17172" lon="-1.61831">
        <ele>70</ele>
        <time>2021-02-27T10:23:27.000Z</time>
      </trkpt>
      <trkpt lat="47.17181" lon="-1.61822">
        <ele>70</ele>
        <time>2021-02-27T10:23:29.000Z</time>
      </trkpt>
      <trkpt lat="47.1719" lon="-1.61813">
        <ele>69</ele>
        <time>2021-02-27T10:23:31.000Z</time>
      </trkpt>
      <trkpt lat="47.172" lon="-1.61803">
        <ele>69</ele>
        <time>2021-02-27T10:23:33.000Z</time>
      </trkpt>
      <trkpt lat="47.1721" lon="-1.61792">
        <ele>69</ele>
        <time>2021-02-27T10:23:35.000Z</time>
      </trkpt>
      <trkpt lat="47.17218" lon="-1.6178">
        <ele>69</ele>
        <time>2021-02-27T10:23:37.000Z</time>
      </trkpt>
      <trkpt lat="47.17222" lon="-1.61764">
        <ele>69</ele>
        <time>2021-02-27T10:23:39.000Z</time>
      </trkpt>
      <trkpt lat="47.17229" lon="-1.61751">
        <ele>69</ele>
        <time>2021-02-27T10:23:41.000Z</time>
      </trkpt>
      <trkpt lat="47.17238" lon="-1.61739">
        <ele>68</ele>
        <time>2021-02-27T10:23:43.000Z</time>
      </trkpt>
      <trkpt lat="47.17247" lon="-1.61727">
        <ele>68</ele>
        <time>2021-02-27T10:23:45.000Z</time>
      </trkpt>
      <trkpt lat="47.17254" lon="-1.61712">
        <ele>68</ele>
        <time>2021-02-27T10:23:47.000Z</time>
      </trkpt>
      <trkpt lat="47.1726" lon="-1.61697">
        <ele>68</ele>
        <time>2021-02-27T10:23:49.000Z</time>
      </trkpt>
      <trkpt lat="47.17267" lon="-1.61683">
        <ele>69</ele>
        <time>2021-02-27T10:23:51.000Z</time>
      </trkpt>
      <trkpt lat="47.17274" lon="-1.61669">
        <ele>69</ele>
        <time>2021-02-27T10:23:53.000Z</time>
      </trkpt>
      <trkpt lat="47.17281" lon="-1.61654">
        <ele>69</ele>
        <time>2021-02-27T10:23:55.000Z</time>
      </trkpt>
      <trkpt lat="47.17289" lon="-1.61641">
        <ele>70</ele>
        <time>2021-02-27T10:23:57.000Z</time>
      </trkpt>
      <trkpt lat="47.17298" lon="-1.61628">
        <ele>69</ele>
        <time>2021-02-27T10:23:59.000Z</time>
      </trkpt>
      <trkpt lat="47.17306" lon="-1.61615">
        <ele>69</ele>
        <time>2021-02-27T10:24:01.000Z</time>
      </trkpt>
      <trkpt lat="47.17314" lon="-1.61603">
        <ele>69</ele>
        <time>2021-02-27T10:24:03.000Z</time>
      </trkpt>
      <trkpt lat="47.17322" lon="-1.61589">
        <ele>69</ele>
        <time>2021-02-27T10:24:05.000Z</time>
      </trkpt>
      <trkpt lat="47.1733" lon="-1.61577">
        <ele>69</ele>
        <time>2021-02-27T10:24:07.000Z</time>
      </trkpt>
      <trkpt lat="47.17339" lon="-1.61565">
        <ele>69</ele>
        <time>2021-02-27T10:24:09.000Z</time>
      </trkpt>
      <trkpt lat="47.17348" lon="-1.61554">
        <ele>68</ele>
        <time>2021-02-27T10:24:11.000Z</time>
      </trkpt>
      <trkpt lat="47.17359" lon="-1.61545">
        <ele>69</ele>
        <time>2021-02-27T10:24:13.000Z</time>
      </trkpt>
      <trkpt lat="47.17369" lon="-1.61536">
        <ele>69</ele>
        <time>2021-02-27T10:24:15.000Z</time>
      </trkpt>
      <trkpt lat="47.1738" lon="-1.61526">
        <ele>69</ele>
        <time>2021-02-27T10:24:17.000Z</time>
      </trkpt>
      <trkpt lat="47.1739" lon="-1.61517">
        <ele>69</ele>
        <time>2021-02-27T10:24:19.000Z</time>
      </trkpt>
      <trkpt lat="47.17401" lon="-1.61508">
        <ele>69</ele>
        <time>2021-02-27T10:24:21.000Z</time>
      </trkpt>
      <trkpt lat="47.17412" lon="-1.615">
        <ele>68</ele>
        <time>2021-02-27T10:24:23.000Z</time>
      </trkpt>
      <trkpt lat="47.17424" lon="-1.61492">
        <ele>68</ele>
        <time>2021-02-27T10:24:25.000Z</time>
      </trkpt>
      <trkpt lat="47.17436" lon="-1.61485">
        <ele>68</ele>
        <time>2021-02-27T10:24:27.000Z</time>
      </trkpt>
      <trkpt lat="47.17448" lon="-1.61477">
        <ele>68</ele>
        <time>2021-02-27T10:24:29.000Z</time>
      </trkpt>
      <trkpt lat="47.17461" lon="-1.61471">
        <ele>68</ele>
        <time>2021-02-27T10:24:31.000Z</time>
      </trkpt>
      <trkpt lat="47.17473" lon="-1.61465">
        <ele>68</ele>
        <time>2021-02-27T10:24:33.000Z</time>
      </trkpt>
      <trkpt lat="47.17486" lon="-1.61459">
        <ele>67</ele>
        <time>2021-02-27T10:24:35.000Z</time>
      </trkpt>
      <trkpt lat="47.17498" lon="-1.61455">
        <ele>67</ele>
        <time>2021-02-27T10:24:37.000Z</time>
      </trkpt>
      <trkpt lat="47.17508" lon="-1.61447">
        <ele>66</ele>
        <time>2021-02-27T10:24:39.000Z</time>
      </trkpt>
      <trkpt lat="47.17512" lon="-1.61428">
        <ele>65</ele>
        <time>2021-02-27T10:24:41.000Z</time>
      </trkpt>
      <trkpt lat="47.17516" lon="-1.61408">
        <ele>63</ele>
        <time>2021-02-27T10:24:43.000Z</time>
      </trkpt>
      <trkpt lat="47.17521" lon="-1.61387">
        <ele>63</ele>
        <time>2021-02-27T10:24:45.000Z</time>
      </trkpt>
      <trkpt lat="47.17525" lon="-1.61368">
        <ele>63</ele>
        <time>2021-02-27T10:24:47.000Z</time>
      </trkpt>
      <trkpt lat="47.17527" lon="-1.61353">
        <ele>63</ele>
        <time>2021-02-27T10:24:49.000Z</time>
      </trkpt>
      <trkpt lat="47.17522" lon="-1.61337">
        <ele>63</ele>
        <time>2021-02-27T10:24:51.000Z</time>
      </trkpt>
      <trkpt lat="47.17518" lon="-1.61319">
        <ele>63</ele>
        <time>2021-02-27T10:24:53.000Z</time>
      </trkpt>
      <trkpt lat="47.17518" lon="-1.613">
        <ele>63</ele>
        <time>2021-02-27T10:24:55.000Z</time>
      </trkpt>
      <trkpt lat="47.17512" lon="-1.61284">
        <ele>62</ele>
        <time>2021-02-27T10:24:57.000Z</time>
      </trkpt>
      <trkpt lat="47.17504" lon="-1.61268">
        <ele>63</ele>
        <time>2021-02-27T10:24:59.000Z</time>
      </trkpt>
      <trkpt lat="47.17497" lon="-1.61252">
        <ele>63</ele>
        <time>2021-02-27T10:25:01.000Z</time>
      </trkpt>
      <trkpt lat="47.1749" lon="-1.61236">
        <ele>62</ele>
        <time>2021-02-27T10:25:03.000Z</time>
      </trkpt>
      <trkpt lat="47.17483" lon="-1.61219">
        <ele>62</ele>
        <time>2021-02-27T10:25:05.000Z</time>
      </trkpt>
      <trkpt lat="47.17477" lon="-1.61202">
        <ele>62</ele>
        <time>2021-02-27T10:25:07.000Z</time>
      </trkpt>
      <trkpt lat="47.17471" lon="-1.61186">
        <ele>62</ele>
        <time>2021-02-27T10:25:09.000Z</time>
      </trkpt>
      <trkpt lat="47.17464" lon="-1.6117">
        <ele>61</ele>
        <time>2021-02-27T10:25:11.000Z</time>
      </trkpt>
      <trkpt lat="47.17458" lon="-1.61154">
        <ele>61</ele>
        <time>2021-02-27T10:25:13.000Z</time>
      </trkpt>
      <trkpt lat="47.17451" lon="-1.61138">
        <ele>60</ele>
        <time>2021-02-27T10:25:15.000Z</time>
      </trkpt>
      <trkpt lat="47.17444" lon="-1.61121">
        <ele>60</ele>
        <time>2021-02-27T10:25:17.000Z</time>
      </trkpt>
      <trkpt lat="47.17437" lon="-1.61104">
        <ele>60</ele>
        <time>2021-02-27T10:25:19.000Z</time>
      </trkpt>
      <trkpt lat="47.17428" lon="-1.61085">
        <ele>60</ele>
        <time>2021-02-27T10:25:21.000Z</time>
      </trkpt>
      <trkpt lat="47.1742" lon="-1.61065">
        <ele>60</ele>
        <time>2021-02-27T10:25:23.000Z</time>
      </trkpt>
      <trkpt lat="47.17413" lon="-1.61046">
        <ele>60</ele>
        <time>2021-02-27T10:25:25.000Z</time>
      </trkpt>
      <trkpt lat="47.17403" lon="-1.6103">
        <ele>58</ele>
        <time>2021-02-27T10:25:27.000Z</time>
      </trkpt>
      <trkpt lat="47.1739" lon="-1.61019">
        <ele>58</ele>
        <time>2021-02-27T10:25:29.000Z</time>
      </trkpt>
      <trkpt lat="47.17388" lon="-1.60998">
        <ele>57</ele>
        <time>2021-02-27T10:25:31.000Z</time>
      </trkpt>
      <trkpt lat="47.174" lon="-1.60984">
        <ele>55</ele>
        <time>2021-02-27T10:25:33.000Z</time>
      </trkpt>
      <trkpt lat="47.17415" lon="-1.60989">
        <ele>56</ele>
        <time>2021-02-27T10:25:35.000Z</time>
      </trkpt>
      <trkpt lat="47.17424" lon="-1.61006">
        <ele>57</ele>
        <time>2021-02-27T10:25:37.000Z</time>
      </trkpt>
      <trkpt lat="47.17431" lon="-1.61025">
        <ele>57</ele>
        <time>2021-02-27T10:25:39.000Z</time>
      </trkpt>
      <trkpt lat="47.17438" lon="-1.61046">
        <ele>57</ele>
        <time>2021-02-27T10:25:41.000Z</time>
      </trkpt>
      <trkpt lat="47.17445" lon="-1.61064">
        <ele>56</ele>
        <time>2021-02-27T10:25:43.000Z</time>
      </trkpt>
      <trkpt lat="47.17455" lon="-1.61081">
        <ele>56</ele>
        <time>2021-02-27T10:25:45.000Z</time>
      </trkpt>
      <trkpt lat="47.17467" lon="-1.61092">
        <ele>56</ele>
        <time>2021-02-27T10:25:47.000Z</time>
      </trkpt>
      <trkpt lat="47.1748" lon="-1.61102">
        <ele>55</ele>
        <time>2021-02-27T10:25:49.000Z</time>
      </trkpt>
      <trkpt lat="47.17496" lon="-1.61104">
        <ele>55</ele>
        <time>2021-02-27T10:25:51.000Z</time>
      </trkpt>
      <trkpt lat="47.1751" lon="-1.611">
        <ele>55</ele>
        <time>2021-02-27T10:25:53.000Z</time>
      </trkpt>
      <trkpt lat="47.17524" lon="-1.6109">
        <ele>55</ele>
        <time>2021-02-27T10:25:55.000Z</time>
      </trkpt>
      <trkpt lat="47.17536" lon="-1.6108">
        <ele>55</ele>
        <time>2021-02-27T10:25:57.000Z</time>
      </trkpt>
      <trkpt lat="47.17548" lon="-1.61069">
        <ele>55</ele>
        <time>2021-02-27T10:25:59.000Z</time>
      </trkpt>
      <trkpt lat="47.1756" lon="-1.61058">
        <ele>54</ele>
        <time>2021-02-27T10:26:01.000Z</time>
      </trkpt>
      <trkpt lat="47.17571" lon="-1.61047">
        <ele>54</ele>
        <time>2021-02-27T10:26:03.000Z</time>
      </trkpt>
      <trkpt lat="47.17582" lon="-1.61037">
        <ele>54</ele>
        <time>2021-02-27T10:26:05.000Z</time>
      </trkpt>
      <trkpt lat="47.17594" lon="-1.61027">
        <ele>54</ele>
        <time>2021-02-27T10:26:07.000Z</time>
      </trkpt>
      <trkpt lat="47.17606" lon="-1.61017">
        <ele>55</ele>
        <time>2021-02-27T10:26:09.000Z</time>
      </trkpt>
      <trkpt lat="47.17617" lon="-1.61007">
        <ele>55</ele>
        <time>2021-02-27T10:26:11.000Z</time>
      </trkpt>
      <trkpt lat="47.17629" lon="-1.60997">
        <ele>55</ele>
        <time>2021-02-27T10:26:13.000Z</time>
      </trkpt>
      <trkpt lat="47.1764" lon="-1.60987">
        <ele>55</ele>
        <time>2021-02-27T10:26:15.000Z</time>
      </trkpt>
      <trkpt lat="47.17651" lon="-1.60978">
        <ele>54</ele>
        <time>2021-02-27T10:26:17.000Z</time>
      </trkpt>
      <trkpt lat="47.17663" lon="-1.60971">
        <ele>54</ele>
        <time>2021-02-27T10:26:19.000Z</time>
      </trkpt>
      <trkpt lat="47.17676" lon="-1.60969">
        <ele>54</ele>
        <time>2021-02-27T10:26:21.000Z</time>
      </trkpt>
      <trkpt lat="47.17688" lon="-1.60971">
        <ele>55</ele>
        <time>2021-02-27T10:26:23.000Z</time>
      </trkpt>
      <trkpt lat="47.17699" lon="-1.6097">
        <ele>56</ele>
        <time>2021-02-27T10:26:25.000Z</time>
      </trkpt>
      <trkpt lat="47.17708" lon="-1.60966">
        <ele>56</ele>
        <time>2021-02-27T10:26:27.000Z</time>
      </trkpt>
      <trkpt lat="47.17718" lon="-1.60959">
        <ele>56</ele>
        <time>2021-02-27T10:26:29.000Z</time>
      </trkpt>
      <trkpt lat="47.1773" lon="-1.60951">
        <ele>56</ele>
        <time>2021-02-27T10:26:31.000Z</time>
      </trkpt>
      <trkpt lat="47.1774" lon="-1.60942">
        <ele>56</ele>
        <time>2021-02-27T10:26:33.000Z</time>
      </trkpt>
      <trkpt lat="47.17752" lon="-1.60934">
        <ele>55</ele>
        <time>2021-02-27T10:26:35.000Z</time>
      </trkpt>
      <trkpt lat="47.17763" lon="-1.60925">
        <ele>56</ele>
        <time>2021-02-27T10:26:37.000Z</time>
      </trkpt>
      <trkpt lat="47.17774" lon="-1.60917">
        <ele>55</ele>
        <time>2021-02-27T10:26:39.000Z</time>
      </trkpt>
      <trkpt lat="47.17785" lon="-1.60908">
        <ele>55</ele>
        <time>2021-02-27T10:26:41.000Z</time>
      </trkpt>
      <trkpt lat="47.17796" lon="-1.609">
        <ele>56</ele>
        <time>2021-02-27T10:26:43.000Z</time>
      </trkpt>
      <trkpt lat="47.17807" lon="-1.60891">
        <ele>55</ele>
        <time>2021-02-27T10:26:45.000Z</time>
      </trkpt>
      <trkpt lat="47.17816" lon="-1.60881">
        <ele>55</ele>
        <time>2021-02-27T10:26:47.000Z</time>
      </trkpt>
      <trkpt lat="47.17825" lon="-1.60868">
        <ele>55</ele>
        <time>2021-02-27T10:26:49.000Z</time>
      </trkpt>
      <trkpt lat="47.17833" lon="-1.60853">
        <ele>55</ele>
        <time>2021-02-27T10:26:51.000Z</time>
      </trkpt>
      <trkpt lat="47.1784" lon="-1.60838">
        <ele>55</ele>
        <time>2021-02-27T10:26:53.000Z</time>
      </trkpt>
      <trkpt lat="47.17845" lon="-1.6082">
        <ele>55</ele>
        <time>2021-02-27T10:26:55.000Z</time>
      </trkpt>
      <trkpt lat="47.1785" lon="-1.60802">
        <ele>55</ele>
        <time>2021-02-27T10:26:57.000Z</time>
      </trkpt>
      <trkpt lat="47.17854" lon="-1.60784">
        <ele>54</ele>
        <time>2021-02-27T10:26:59.000Z</time>
      </trkpt>
      <trkpt lat="47.17858" lon="-1.60766">
        <ele>54</ele>
        <time>2021-02-27T10:27:01.000Z</time>
      </trkpt>
      <trkpt lat="47.17861" lon="-1.60747">
        <ele>53</ele>
        <time>2021-02-27T10:27:03.000Z</time>
      </trkpt>
      <trkpt lat="47.17866" lon="-1.60729">
        <ele>53</ele>
        <time>2021-02-27T10:27:05.000Z</time>
      </trkpt>
      <trkpt lat="47.17871" lon="-1.60711">
        <ele>53</ele>
        <time>2021-02-27T10:27:07.000Z</time>
      </trkpt>
      <trkpt lat="47.17875" lon="-1.60694">
        <ele>53</ele>
        <time>2021-02-27T10:27:09.000Z</time>
      </trkpt>
      <trkpt lat="47.1788" lon="-1.60677">
        <ele>53</ele>
        <time>2021-02-27T10:27:11.000Z</time>
      </trkpt>
      <trkpt lat="47.17885" lon="-1.60659">
        <ele>53</ele>
        <time>2021-02-27T10:27:13.000Z</time>
      </trkpt>
      <trkpt lat="47.17891" lon="-1.60643">
        <ele>54</ele>
        <time>2021-02-27T10:27:15.000Z</time>
      </trkpt>
      <trkpt lat="47.17896" lon="-1.60628">
        <ele>54</ele>
        <time>2021-02-27T10:27:17.000Z</time>
      </trkpt>
      <trkpt lat="47.179" lon="-1.60613">
        <ele>54</ele>
        <time>2021-02-27T10:27:19.000Z</time>
      </trkpt>
      <trkpt lat="47.17903" lon="-1.606">
        <ele>55</ele>
        <time>2021-02-27T10:27:21.000Z</time>
      </trkpt>
      <trkpt lat="47.17905" lon="-1.60586">
        <ele>55</ele>
        <time>2021-02-27T10:27:24.000Z</time>
      </trkpt>
      <trkpt lat="47.17914" lon="-1.60581">
        <ele>56</ele>
        <time>2021-02-27T10:27:29.000Z</time>
      </trkpt>
      <trkpt lat="47.17927" lon="-1.60581">
        <ele>57</ele>
        <time>2021-02-27T10:27:32.000Z</time>
      </trkpt>
      <trkpt lat="47.1794" lon="-1.60577">
        <ele>57</ele>
        <time>2021-02-27T10:27:34.000Z</time>
      </trkpt>
      <trkpt lat="47.17953" lon="-1.60572">
        <ele>57</ele>
        <time>2021-02-27T10:27:36.000Z</time>
      </trkpt>
      <trkpt lat="47.17965" lon="-1.60567">
        <ele>57</ele>
        <time>2021-02-27T10:27:38.000Z</time>
      </trkpt>
      <trkpt lat="47.17978" lon="-1.6056">
        <ele>57</ele>
        <time>2021-02-27T10:27:40.000Z</time>
      </trkpt>
      <trkpt lat="47.1799" lon="-1.60557">
        <ele>57</ele>
        <time>2021-02-27T10:27:42.000Z</time>
      </trkpt>
      <trkpt lat="47.18003" lon="-1.60553">
        <ele>57</ele>
        <time>2021-02-27T10:27:44.000Z</time>
      </trkpt>
      <trkpt lat="47.18016" lon="-1.60551">
        <ele>56</ele>
        <time>2021-02-27T10:27:46.000Z</time>
      </trkpt>
      <trkpt lat="47.18029" lon="-1.60551">
        <ele>57</ele>
        <time>2021-02-27T10:27:48.000Z</time>
      </trkpt>
      <trkpt lat="47.18041" lon="-1.60556">
        <ele>56</ele>
        <time>2021-02-27T10:27:50.000Z</time>
      </trkpt>
      <trkpt lat="47.18053" lon="-1.60562">
        <ele>56</ele>
        <time>2021-02-27T10:27:52.000Z</time>
      </trkpt>
      <trkpt lat="47.18066" lon="-1.6057">
        <ele>56</ele>
        <time>2021-02-27T10:27:54.000Z</time>
      </trkpt>
      <trkpt lat="47.18077" lon="-1.60577">
        <ele>56</ele>
        <time>2021-02-27T10:27:56.000Z</time>
      </trkpt>
      <trkpt lat="47.18089" lon="-1.60583">
        <ele>56</ele>
        <time>2021-02-27T10:27:58.000Z</time>
      </trkpt>
      <trkpt lat="47.18102" lon="-1.60589">
        <ele>56</ele>
        <time>2021-02-27T10:28:00.000Z</time>
      </trkpt>
      <trkpt lat="47.18114" lon="-1.60594">
        <ele>55</ele>
        <time>2021-02-27T10:28:02.000Z</time>
      </trkpt>
      <trkpt lat="47.18126" lon="-1.60598">
        <ele>56</ele>
        <time>2021-02-27T10:28:04.000Z</time>
      </trkpt>
      <trkpt lat="47.18138" lon="-1.60601">
        <ele>56</ele>
        <time>2021-02-27T10:28:06.000Z</time>
      </trkpt>
      <trkpt lat="47.1815" lon="-1.60603">
        <ele>56</ele>
        <time>2021-02-27T10:28:08.000Z</time>
      </trkpt>
      <trkpt lat="47.18162" lon="-1.60603">
        <ele>55</ele>
        <time>2021-02-27T10:28:10.000Z</time>
      </trkpt>
      <trkpt lat="47.18173" lon="-1.60601">
        <ele>55</ele>
        <time>2021-02-27T10:28:12.000Z</time>
      </trkpt>
      <trkpt lat="47.18185" lon="-1.60597">
        <ele>56</ele>
        <time>2021-02-27T10:28:14.000Z</time>
      </trkpt>
      <trkpt lat="47.1819" lon="-1.60585">
        <ele>56</ele>
        <time>2021-02-27T10:28:16.000Z</time>
      </trkpt>
      <trkpt lat="47.18195" lon="-1.60572">
        <ele>54</ele>
        <time>2021-02-27T10:28:18.000Z</time>
      </trkpt>
      <trkpt lat="47.18207" lon="-1.60567">
        <ele>55</ele>
        <time>2021-02-27T10:28:20.000Z</time>
      </trkpt>
      <trkpt lat="47.18219" lon="-1.60562">
        <ele>55</ele>
        <time>2021-02-27T10:28:22.000Z</time>
      </trkpt>
      <trkpt lat="47.18231" lon="-1.60555">
        <ele>55</ele>
        <time>2021-02-27T10:28:24.000Z</time>
      </trkpt>
      <trkpt lat="47.18243" lon="-1.60547">
        <ele>55</ele>
        <time>2021-02-27T10:28:26.000Z</time>
      </trkpt>
      <trkpt lat="47.18254" lon="-1.60538">
        <ele>55</ele>
        <time>2021-02-27T10:28:28.000Z</time>
      </trkpt>
      <trkpt lat="47.18266" lon="-1.60528">
        <ele>55</ele>
        <time>2021-02-27T10:28:30.000Z</time>
      </trkpt>
      <trkpt lat="47.18276" lon="-1.60519">
        <ele>55</ele>
        <time>2021-02-27T10:28:32.000Z</time>
      </trkpt>
      <trkpt lat="47.18286" lon="-1.60508">
        <ele>54</ele>
        <time>2021-02-27T10:28:34.000Z</time>
      </trkpt>
      <trkpt lat="47.18296" lon="-1.60498">
        <ele>54</ele>
        <time>2021-02-27T10:28:36.000Z</time>
      </trkpt>
      <trkpt lat="47.18305" lon="-1.60487">
        <ele>54</ele>
        <time>2021-02-27T10:28:38.000Z</time>
      </trkpt>
      <trkpt lat="47.18315" lon="-1.60476">
        <ele>54</ele>
        <time>2021-02-27T10:28:40.000Z</time>
      </trkpt>
      <trkpt lat="47.18325" lon="-1.60466">
        <ele>53</ele>
        <time>2021-02-27T10:28:42.000Z</time>
      </trkpt>
      <trkpt lat="47.18335" lon="-1.60454">
        <ele>53</ele>
        <time>2021-02-27T10:28:44.000Z</time>
      </trkpt>
      <trkpt lat="47.18345" lon="-1.60443">
        <ele>54</ele>
        <time>2021-02-27T10:28:46.000Z</time>
      </trkpt>
      <trkpt lat="47.18353" lon="-1.60431">
        <ele>54</ele>
        <time>2021-02-27T10:28:48.000Z</time>
      </trkpt>
      <trkpt lat="47.18363" lon="-1.60419">
        <ele>54</ele>
        <time>2021-02-27T10:28:50.000Z</time>
      </trkpt>
      <trkpt lat="47.18372" lon="-1.60407">
        <ele>54</ele>
        <time>2021-02-27T10:28:52.000Z</time>
      </trkpt>
      <trkpt lat="47.18381" lon="-1.60394">
        <ele>54</ele>
        <time>2021-02-27T10:28:54.000Z</time>
      </trkpt>
      <trkpt lat="47.1839" lon="-1.60383">
        <ele>54</ele>
        <time>2021-02-27T10:28:56.000Z</time>
      </trkpt>
      <trkpt lat="47.18399" lon="-1.60371">
        <ele>54</ele>
        <time>2021-02-27T10:28:58.000Z</time>
      </trkpt>
      <trkpt lat="47.18408" lon="-1.60359">
        <ele>54</ele>
        <time>2021-02-27T10:29:00.000Z</time>
      </trkpt>
      <trkpt lat="47.18417" lon="-1.60347">
        <ele>54</ele>
        <time>2021-02-27T10:29:02.000Z</time>
      </trkpt>
      <trkpt lat="47.18425" lon="-1.60335">
        <ele>55</ele>
        <time>2021-02-27T10:29:04.000Z</time>
      </trkpt>
      <trkpt lat="47.18433" lon="-1.60322">
        <ele>55</ele>
        <time>2021-02-27T10:29:06.000Z</time>
      </trkpt>
      <trkpt lat="47.18441" lon="-1.6031">
        <ele>55</ele>
        <time>2021-02-27T10:29:08.000Z</time>
      </trkpt>
      <trkpt lat="47.18449" lon="-1.60297">
        <ele>55</ele>
        <time>2021-02-27T10:29:10.000Z</time>
      </trkpt>
      <trkpt lat="47.18456" lon="-1.60283">
        <ele>55</ele>
        <time>2021-02-27T10:29:12.000Z</time>
      </trkpt>
      <trkpt lat="47.18464" lon="-1.6027">
        <ele>55</ele>
        <time>2021-02-27T10:29:14.000Z</time>
      </trkpt>
      <trkpt lat="47.18472" lon="-1.60256">
        <ele>55</ele>
        <time>2021-02-27T10:29:16.000Z</time>
      </trkpt>
      <trkpt lat="47.1848" lon="-1.60242">
        <ele>55</ele>
        <time>2021-02-27T10:29:18.000Z</time>
      </trkpt>
      <trkpt lat="47.18487" lon="-1.60228">
        <ele>55</ele>
        <time>2021-02-27T10:29:20.000Z</time>
      </trkpt>
      <trkpt lat="47.18495" lon="-1.60213">
        <ele>55</ele>
        <time>2021-02-27T10:29:22.000Z</time>
      </trkpt>
      <trkpt lat="47.18502" lon="-1.60199">
        <ele>55</ele>
        <time>2021-02-27T10:29:24.000Z</time>
      </trkpt>
      <trkpt lat="47.18509" lon="-1.60185">
        <ele>54</ele>
        <time>2021-02-27T10:29:26.000Z</time>
      </trkpt>
      <trkpt lat="47.18516" lon="-1.6017">
        <ele>54</ele>
        <time>2021-02-27T10:29:28.000Z</time>
      </trkpt>
      <trkpt lat="47.18523" lon="-1.60155">
        <ele>54</ele>
        <time>2021-02-27T10:29:30.000Z</time>
      </trkpt>
      <trkpt lat="47.1853" lon="-1.60139">
        <ele>54</ele>
        <time>2021-02-27T10:29:32.000Z</time>
      </trkpt>
      <trkpt lat="47.18538" lon="-1.60124">
        <ele>54</ele>
        <time>2021-02-27T10:29:34.000Z</time>
      </trkpt>
      <trkpt lat="47.18544" lon="-1.60108">
        <ele>54</ele>
        <time>2021-02-27T10:29:36.000Z</time>
      </trkpt>
      <trkpt lat="47.18551" lon="-1.60093">
        <ele>54</ele>
        <time>2021-02-27T10:29:38.000Z</time>
      </trkpt>
      <trkpt lat="47.18557" lon="-1.60077">
        <ele>54</ele>
        <time>2021-02-27T10:29:40.000Z</time>
      </trkpt>
      <trkpt lat="47.18563" lon="-1.60061">
        <ele>54</ele>
        <time>2021-02-27T10:29:42.000Z</time>
      </trkpt>
      <trkpt lat="47.18569" lon="-1.60046">
        <ele>54</ele>
        <time>2021-02-27T10:29:44.000Z</time>
      </trkpt>
      <trkpt lat="47.18575" lon="-1.6003">
        <ele>54</ele>
        <time>2021-02-27T10:29:46.000Z</time>
      </trkpt>
      <trkpt lat="47.1858" lon="-1.60014">
        <ele>54</ele>
        <time>2021-02-27T10:29:48.000Z</time>
      </trkpt>
      <trkpt lat="47.18586" lon="-1.59998">
        <ele>54</ele>
        <time>2021-02-27T10:29:50.000Z</time>
      </trkpt>
      <trkpt lat="47.1859" lon="-1.59982">
        <ele>54</ele>
        <time>2021-02-27T10:29:52.000Z</time>
      </trkpt>
      <trkpt lat="47.18595" lon="-1.59965">
        <ele>54</ele>
        <time>2021-02-27T10:29:54.000Z</time>
      </trkpt>
      <trkpt lat="47.186" lon="-1.59949">
        <ele>54</ele>
        <time>2021-02-27T10:29:56.000Z</time>
      </trkpt>
      <trkpt lat="47.18604" lon="-1.59933">
        <ele>54</ele>
        <time>2021-02-27T10:29:58.000Z</time>
      </trkpt>
      <trkpt lat="47.18609" lon="-1.59918">
        <ele>54</ele>
        <time>2021-02-27T10:30:00.000Z</time>
      </trkpt>
      <trkpt lat="47.18613" lon="-1.59902">
        <ele>54</ele>
        <time>2021-02-27T10:30:02.000Z</time>
      </trkpt>
      <trkpt lat="47.18618" lon="-1.59886">
        <ele>54</ele>
        <time>2021-02-27T10:30:04.000Z</time>
      </trkpt>
      <trkpt lat="47.18621" lon="-1.59869">
        <ele>54</ele>
        <time>2021-02-27T10:30:06.000Z</time>
      </trkpt>
      <trkpt lat="47.1862" lon="-1.59854">
        <ele>53</ele>
        <time>2021-02-27T10:30:08.000Z</time>
      </trkpt>
      <trkpt lat="47.18614" lon="-1.5984">
        <ele>53</ele>
        <time>2021-02-27T10:30:10.000Z</time>
      </trkpt>
      <trkpt lat="47.18618" lon="-1.59826">
        <ele>54</ele>
        <time>2021-02-27T10:30:12.000Z</time>
      </trkpt>
      <trkpt lat="47.18624" lon="-1.59817">
        <ele>54</ele>
        <time>2021-02-27T10:30:14.000Z</time>
      </trkpt>
      <trkpt lat="47.18628" lon="-1.59803">
        <ele>53</ele>
        <time>2021-02-27T10:30:16.000Z</time>
      </trkpt>
      <trkpt lat="47.1863" lon="-1.59786">
        <ele>54</ele>
        <time>2021-02-27T10:30:18.000Z</time>
      </trkpt>
      <trkpt lat="47.18636" lon="-1.5977">
        <ele>54</ele>
        <time>2021-02-27T10:30:20.000Z</time>
      </trkpt>
      <trkpt lat="47.18645" lon="-1.59757">
        <ele>54</ele>
        <time>2021-02-27T10:30:22.000Z</time>
      </trkpt>
      <trkpt lat="47.18652" lon="-1.59742">
        <ele>55</ele>
        <time>2021-02-27T10:30:24.000Z</time>
      </trkpt>
      <trkpt lat="47.18654" lon="-1.59725">
        <ele>55</ele>
        <time>2021-02-27T10:30:26.000Z</time>
      </trkpt>
      <trkpt lat="47.18657" lon="-1.59707">
        <ele>55</ele>
        <time>2021-02-27T10:30:28.000Z</time>
      </trkpt>
      <trkpt lat="47.18661" lon="-1.59689">
        <ele>55</ele>
        <time>2021-02-27T10:30:30.000Z</time>
      </trkpt>
      <trkpt lat="47.18665" lon="-1.59672">
        <ele>55</ele>
        <time>2021-02-27T10:30:32.000Z</time>
      </trkpt>
      <trkpt lat="47.1867" lon="-1.59656">
        <ele>55</ele>
        <time>2021-02-27T10:30:34.000Z</time>
      </trkpt>
      <trkpt lat="47.18674" lon="-1.59638">
        <ele>55</ele>
        <time>2021-02-27T10:30:36.000Z</time>
      </trkpt>
      <trkpt lat="47.18676" lon="-1.59621">
        <ele>55</ele>
        <time>2021-02-27T10:30:38.000Z</time>
      </trkpt>
      <trkpt lat="47.18678" lon="-1.59603">
        <ele>55</ele>
        <time>2021-02-27T10:30:40.000Z</time>
      </trkpt>
      <trkpt lat="47.1868" lon="-1.59586">
        <ele>55</ele>
        <time>2021-02-27T10:30:42.000Z</time>
      </trkpt>
      <trkpt lat="47.18682" lon="-1.59569">
        <ele>55</ele>
        <time>2021-02-27T10:30:44.000Z</time>
      </trkpt>
      <trkpt lat="47.18684" lon="-1.59552">
        <ele>56</ele>
        <time>2021-02-27T10:30:46.000Z</time>
      </trkpt>
      <trkpt lat="47.18686" lon="-1.59535">
        <ele>56</ele>
        <time>2021-02-27T10:30:48.000Z</time>
      </trkpt>
      <trkpt lat="47.18688" lon="-1.59517">
        <ele>56</ele>
        <time>2021-02-27T10:30:50.000Z</time>
      </trkpt>
      <trkpt lat="47.18689" lon="-1.59501">
        <ele>56</ele>
        <time>2021-02-27T10:30:52.000Z</time>
      </trkpt>
      <trkpt lat="47.18691" lon="-1.59484">
        <ele>56</ele>
        <time>2021-02-27T10:30:54.000Z</time>
      </trkpt>
      <trkpt lat="47.18694" lon="-1.59467">
        <ele>56</ele>
        <time>2021-02-27T10:30:56.000Z</time>
      </trkpt>
      <trkpt lat="47.18695" lon="-1.5945">
        <ele>56</ele>
        <time>2021-02-27T10:30:58.000Z</time>
      </trkpt>
      <trkpt lat="47.18697" lon="-1.59432">
        <ele>56</ele>
        <time>2021-02-27T10:31:00.000Z</time>
      </trkpt>
      <trkpt lat="47.18699" lon="-1.59416">
        <ele>56</ele>
        <time>2021-02-27T10:31:02.000Z</time>
      </trkpt>
      <trkpt lat="47.18701" lon="-1.59399">
        <ele>56</ele>
        <time>2021-02-27T10:31:04.000Z</time>
      </trkpt>
      <trkpt lat="47.18702" lon="-1.59382">
        <ele>55</ele>
        <time>2021-02-27T10:31:06.000Z</time>
      </trkpt>
      <trkpt lat="47.18704" lon="-1.59364">
        <ele>55</ele>
        <time>2021-02-27T10:31:08.000Z</time>
      </trkpt>
      <trkpt lat="47.18706" lon="-1.59348">
        <ele>55</ele>
        <time>2021-02-27T10:31:10.000Z</time>
      </trkpt>
      <trkpt lat="47.18708" lon="-1.59332">
        <ele>55</ele>
        <time>2021-02-27T10:31:12.000Z</time>
      </trkpt>
      <trkpt lat="47.1871" lon="-1.59316">
        <ele>55</ele>
        <time>2021-02-27T10:31:14.000Z</time>
      </trkpt>
      <trkpt lat="47.18711" lon="-1.59299">
        <ele>55</ele>
        <time>2021-02-27T10:31:16.000Z</time>
      </trkpt>
      <trkpt lat="47.18713" lon="-1.59283">
        <ele>55</ele>
        <time>2021-02-27T10:31:18.000Z</time>
      </trkpt>
      <trkpt lat="47.18715" lon="-1.59266">
        <ele>55</ele>
        <time>2021-02-27T10:31:20.000Z</time>
      </trkpt>
      <trkpt lat="47.18717" lon="-1.59249">
        <ele>55</ele>
        <time>2021-02-27T10:31:22.000Z</time>
      </trkpt>
      <trkpt lat="47.18719" lon="-1.59232">
        <ele>55</ele>
        <time>2021-02-27T10:31:24.000Z</time>
      </trkpt>
      <trkpt lat="47.18721" lon="-1.59216">
        <ele>55</ele>
        <time>2021-02-27T10:31:26.000Z</time>
      </trkpt>
      <trkpt lat="47.18723" lon="-1.59199">
        <ele>55</ele>
        <time>2021-02-27T10:31:28.000Z</time>
      </trkpt>
      <trkpt lat="47.18724" lon="-1.59182">
        <ele>55</ele>
        <time>2021-02-27T10:31:30.000Z</time>
      </trkpt>
      <trkpt lat="47.18726" lon="-1.59166">
        <ele>55</ele>
        <time>2021-02-27T10:31:32.000Z</time>
      </trkpt>
      <trkpt lat="47.18728" lon="-1.5915">
        <ele>55</ele>
        <time>2021-02-27T10:31:34.000Z</time>
      </trkpt>
      <trkpt lat="47.18729" lon="-1.59134">
        <ele>55</ele>
        <time>2021-02-27T10:31:36.000Z</time>
      </trkpt>
      <trkpt lat="47.18731" lon="-1.59117">
        <ele>55</ele>
        <time>2021-02-27T10:31:38.000Z</time>
      </trkpt>
      <trkpt lat="47.18733" lon="-1.59101">
        <ele>55</ele>
        <time>2021-02-27T10:31:40.000Z</time>
      </trkpt>
      <trkpt lat="47.18735" lon="-1.59084">
        <ele>55</ele>
        <time>2021-02-27T10:31:42.000Z</time>
      </trkpt>
      <trkpt lat="47.18736" lon="-1.59067">
        <ele>55</ele>
        <time>2021-02-27T10:31:44.000Z</time>
      </trkpt>
      <trkpt lat="47.18738" lon="-1.59051">
        <ele>54</ele>
        <time>2021-02-27T10:31:46.000Z</time>
      </trkpt>
      <trkpt lat="47.1874" lon="-1.59034">
        <ele>54</ele>
        <time>2021-02-27T10:31:48.000Z</time>
      </trkpt>
      <trkpt lat="47.18742" lon="-1.59017">
        <ele>55</ele>
        <time>2021-02-27T10:31:50.000Z</time>
      </trkpt>
      <trkpt lat="47.18744" lon="-1.59001">
        <ele>55</ele>
        <time>2021-02-27T10:31:52.000Z</time>
      </trkpt>
      <trkpt lat="47.18745" lon="-1.58985">
        <ele>55</ele>
        <time>2021-02-27T10:31:54.000Z</time>
      </trkpt>
      <trkpt lat="47.18747" lon="-1.58968">
        <ele>56</ele>
        <time>2021-02-27T10:31:56.000Z</time>
      </trkpt>
      <trkpt lat="47.18748" lon="-1.58951">
        <ele>56</ele>
        <time>2021-02-27T10:31:58.000Z</time>
      </trkpt>
      <trkpt lat="47.1875" lon="-1.58934">
        <ele>56</ele>
        <time>2021-02-27T10:32:00.000Z</time>
      </trkpt>
      <trkpt lat="47.18752" lon="-1.58917">
        <ele>56</ele>
        <time>2021-02-27T10:32:02.000Z</time>
      </trkpt>
      <trkpt lat="47.18755" lon="-1.589">
        <ele>56</ele>
        <time>2021-02-27T10:32:04.000Z</time>
      </trkpt>
      <trkpt lat="47.18757" lon="-1.58884">
        <ele>56</ele>
        <time>2021-02-27T10:32:06.000Z</time>
      </trkpt>
      <trkpt lat="47.18759" lon="-1.58866">
        <ele>56</ele>
        <time>2021-02-27T10:32:08.000Z</time>
      </trkpt>
      <trkpt lat="47.18761" lon="-1.5885">
        <ele>56</ele>
        <time>2021-02-27T10:32:10.000Z</time>
      </trkpt>
      <trkpt lat="47.18764" lon="-1.58826">
        <ele>56</ele>
        <time>2021-02-27T10:32:13.000Z</time>
      </trkpt>
      <trkpt lat="47.18764" lon="-1.58809">
        <ele>56</ele>
        <time>2021-02-27T10:32:15.000Z</time>
      </trkpt>
      <trkpt lat="47.18764" lon="-1.58794">
        <ele>56</ele>
        <time>2021-02-27T10:32:17.000Z</time>
      </trkpt>
      <trkpt lat="47.18761" lon="-1.58779">
        <ele>56</ele>
        <time>2021-02-27T10:32:19.000Z</time>
      </trkpt>
      <trkpt lat="47.18756" lon="-1.58763">
        <ele>56</ele>
        <time>2021-02-27T10:32:21.000Z</time>
      </trkpt>
      <trkpt lat="47.18756" lon="-1.58745">
        <ele>56</ele>
        <time>2021-02-27T10:32:23.000Z</time>
      </trkpt>
      <trkpt lat="47.18762" lon="-1.58725">
        <ele>56</ele>
        <time>2021-02-27T10:32:25.000Z</time>
      </trkpt>
      <trkpt lat="47.18771" lon="-1.58711">
        <ele>56</ele>
        <time>2021-02-27T10:32:27.000Z</time>
      </trkpt>
      <trkpt lat="47.18779" lon="-1.58698">
        <ele>56</ele>
        <time>2021-02-27T10:32:29.000Z</time>
      </trkpt>
      <trkpt lat="47.18785" lon="-1.58683">
        <ele>56</ele>
        <time>2021-02-27T10:32:31.000Z</time>
      </trkpt>
      <trkpt lat="47.18788" lon="-1.58666">
        <ele>57</ele>
        <time>2021-02-27T10:32:33.000Z</time>
      </trkpt>
      <trkpt lat="47.18792" lon="-1.5865">
        <ele>57</ele>
        <time>2021-02-27T10:32:35.000Z</time>
      </trkpt>
      <trkpt lat="47.18796" lon="-1.58635">
        <ele>57</ele>
        <time>2021-02-27T10:32:37.000Z</time>
      </trkpt>
      <trkpt lat="47.18801" lon="-1.58619">
        <ele>57</ele>
        <time>2021-02-27T10:32:39.000Z</time>
      </trkpt>
      <trkpt lat="47.18805" lon="-1.58603">
        <ele>56</ele>
        <time>2021-02-27T10:32:41.000Z</time>
      </trkpt>
      <trkpt lat="47.18809" lon="-1.58589">
        <ele>56</ele>
        <time>2021-02-27T10:32:43.000Z</time>
      </trkpt>
      <trkpt lat="47.18813" lon="-1.58573">
        <ele>56</ele>
        <time>2021-02-27T10:32:45.000Z</time>
      </trkpt>
      <trkpt lat="47.18818" lon="-1.58557">
        <ele>55</ele>
        <time>2021-02-27T10:32:47.000Z</time>
      </trkpt>
      <trkpt lat="47.18822" lon="-1.58542">
        <ele>55</ele>
        <time>2021-02-27T10:32:49.000Z</time>
      </trkpt>
      <trkpt lat="47.18826" lon="-1.58526">
        <ele>55</ele>
        <time>2021-02-27T10:32:51.000Z</time>
      </trkpt>
      <trkpt lat="47.18831" lon="-1.58511">
        <ele>55</ele>
        <time>2021-02-27T10:32:53.000Z</time>
      </trkpt>
      <trkpt lat="47.18835" lon="-1.58496">
        <ele>56</ele>
        <time>2021-02-27T10:32:55.000Z</time>
      </trkpt>
      <trkpt lat="47.18839" lon="-1.58482">
        <ele>55</ele>
        <time>2021-02-27T10:32:57.000Z</time>
      </trkpt>
      <trkpt lat="47.18843" lon="-1.58467">
        <ele>55</ele>
        <time>2021-02-27T10:32:59.000Z</time>
      </trkpt>
      <trkpt lat="47.18848" lon="-1.58452">
        <ele>55</ele>
        <time>2021-02-27T10:33:01.000Z</time>
      </trkpt>
      <trkpt lat="47.18853" lon="-1.58436">
        <ele>56</ele>
        <time>2021-02-27T10:33:03.000Z</time>
      </trkpt>
      <trkpt lat="47.18858" lon="-1.58421">
        <ele>55</ele>
        <time>2021-02-27T10:33:05.000Z</time>
      </trkpt>
      <trkpt lat="47.18863" lon="-1.58405">
        <ele>56</ele>
        <time>2021-02-27T10:33:07.000Z</time>
      </trkpt>
      <trkpt lat="47.18868" lon="-1.5839">
        <ele>56</ele>
        <time>2021-02-27T10:33:09.000Z</time>
      </trkpt>
      <trkpt lat="47.18873" lon="-1.58375">
        <ele>55</ele>
        <time>2021-02-27T10:33:11.000Z</time>
      </trkpt>
      <trkpt lat="47.18878" lon="-1.5836">
        <ele>56</ele>
        <time>2021-02-27T10:33:13.000Z</time>
      </trkpt>
      <trkpt lat="47.18882" lon="-1.58345">
        <ele>56</ele>
        <time>2021-02-27T10:33:15.000Z</time>
      </trkpt>
      <trkpt lat="47.18888" lon="-1.58331">
        <ele>56</ele>
        <time>2021-02-27T10:33:17.000Z</time>
      </trkpt>
      <trkpt lat="47.18895" lon="-1.5831">
        <ele>56</ele>
        <time>2021-02-27T10:33:20.000Z</time>
      </trkpt>
      <trkpt lat="47.189" lon="-1.58295">
        <ele>56</ele>
        <time>2021-02-27T10:33:22.000Z</time>
      </trkpt>
      <trkpt lat="47.18905" lon="-1.5828">
        <ele>56</ele>
        <time>2021-02-27T10:33:24.000Z</time>
      </trkpt>
      <trkpt lat="47.18911" lon="-1.58265">
        <ele>56</ele>
        <time>2021-02-27T10:33:26.000Z</time>
      </trkpt>
      <trkpt lat="47.18916" lon="-1.58251">
        <ele>56</ele>
        <time>2021-02-27T10:33:28.000Z</time>
      </trkpt>
      <trkpt lat="47.18921" lon="-1.58235">
        <ele>56</ele>
        <time>2021-02-27T10:33:30.000Z</time>
      </trkpt>
      <trkpt lat="47.18926" lon="-1.5822">
        <ele>56</ele>
        <time>2021-02-27T10:33:32.000Z</time>
      </trkpt>
      <trkpt lat="47.18931" lon="-1.58205">
        <ele>56</ele>
        <time>2021-02-27T10:33:34.000Z</time>
      </trkpt>
      <trkpt lat="47.18936" lon="-1.5819">
        <ele>56</ele>
        <time>2021-02-27T10:33:36.000Z</time>
      </trkpt>
      <trkpt lat="47.18941" lon="-1.58175">
        <ele>57</ele>
        <time>2021-02-27T10:33:38.000Z</time>
      </trkpt>
      <trkpt lat="47.18949" lon="-1.58152">
        <ele>57</ele>
        <time>2021-02-27T10:33:41.000Z</time>
      </trkpt>
      <trkpt lat="47.18955" lon="-1.58137">
        <ele>56</ele>
        <time>2021-02-27T10:33:43.000Z</time>
      </trkpt>
      <trkpt lat="47.18963" lon="-1.58112">
        <ele>57</ele>
        <time>2021-02-27T10:33:46.000Z</time>
      </trkpt>
      <trkpt lat="47.18969" lon="-1.58096">
        <ele>57</ele>
        <time>2021-02-27T10:33:48.000Z</time>
      </trkpt>
      <trkpt lat="47.18975" lon="-1.58081">
        <ele>57</ele>
        <time>2021-02-27T10:33:50.000Z</time>
      </trkpt>
      <trkpt lat="47.18984" lon="-1.58056">
        <ele>56</ele>
        <time>2021-02-27T10:33:53.000Z</time>
      </trkpt>
      <trkpt lat="47.18989" lon="-1.5804">
        <ele>56</ele>
        <time>2021-02-27T10:33:55.000Z</time>
      </trkpt>
      <trkpt lat="47.18995" lon="-1.58024">
        <ele>56</ele>
        <time>2021-02-27T10:33:57.000Z</time>
      </trkpt>
      <trkpt lat="47.19001" lon="-1.58007">
        <ele>56</ele>
        <time>2021-02-27T10:33:59.000Z</time>
      </trkpt>
      <trkpt lat="47.1901" lon="-1.57982">
        <ele>56</ele>
        <time>2021-02-27T10:34:02.000Z</time>
      </trkpt>
      <trkpt lat="47.19015" lon="-1.57967">
        <ele>56</ele>
        <time>2021-02-27T10:34:04.000Z</time>
      </trkpt>
      <trkpt lat="47.19021" lon="-1.57952">
        <ele>56</ele>
        <time>2021-02-27T10:34:06.000Z</time>
      </trkpt>
      <trkpt lat="47.19026" lon="-1.57937">
        <ele>56</ele>
        <time>2021-02-27T10:34:08.000Z</time>
      </trkpt>
      <trkpt lat="47.19031" lon="-1.57922">
        <ele>56</ele>
        <time>2021-02-27T10:34:10.000Z</time>
      </trkpt>
      <trkpt lat="47.19036" lon="-1.57907">
        <ele>56</ele>
        <time>2021-02-27T10:34:12.000Z</time>
      </trkpt>
      <trkpt lat="47.19044" lon="-1.57885">
        <ele>56</ele>
        <time>2021-02-27T10:34:15.000Z</time>
      </trkpt>
      <trkpt lat="47.19052" lon="-1.57862">
        <ele>56</ele>
        <time>2021-02-27T10:34:18.000Z</time>
      </trkpt>
      <trkpt lat="47.19057" lon="-1.57847">
        <ele>56</ele>
        <time>2021-02-27T10:34:20.000Z</time>
      </trkpt>
      <trkpt lat="47.19063" lon="-1.57832">
        <ele>55</ele>
        <time>2021-02-27T10:34:22.000Z</time>
      </trkpt>
      <trkpt lat="47.19069" lon="-1.57816">
        <ele>55</ele>
        <time>2021-02-27T10:34:24.000Z</time>
      </trkpt>
      <trkpt lat="47.19075" lon="-1.57801">
        <ele>55</ele>
        <time>2021-02-27T10:34:26.000Z</time>
      </trkpt>
      <trkpt lat="47.19081" lon="-1.57785">
        <ele>55</ele>
        <time>2021-02-27T10:34:28.000Z</time>
      </trkpt>
      <trkpt lat="47.19087" lon="-1.57769">
        <ele>55</ele>
        <time>2021-02-27T10:34:30.000Z</time>
      </trkpt>
      <trkpt lat="47.19092" lon="-1.57753">
        <ele>55</ele>
        <time>2021-02-27T10:34:32.000Z</time>
      </trkpt>
      <trkpt lat="47.19097" lon="-1.57737">
        <ele>55</ele>
        <time>2021-02-27T10:34:34.000Z</time>
      </trkpt>
      <trkpt lat="47.19103" lon="-1.57722">
        <ele>55</ele>
        <time>2021-02-27T10:34:36.000Z</time>
      </trkpt>
      <trkpt lat="47.19111" lon="-1.57698">
        <ele>55</ele>
        <time>2021-02-27T10:34:39.000Z</time>
      </trkpt>
      <trkpt lat="47.19119" lon="-1.57674">
        <ele>55</ele>
        <time>2021-02-27T10:34:42.000Z</time>
      </trkpt>
      <trkpt lat="47.19125" lon="-1.57659">
        <ele>55</ele>
        <time>2021-02-27T10:34:44.000Z</time>
      </trkpt>
      <trkpt lat="47.19131" lon="-1.57643">
        <ele>55</ele>
        <time>2021-02-27T10:34:46.000Z</time>
      </trkpt>
      <trkpt lat="47.19137" lon="-1.57626">
        <ele>55</ele>
        <time>2021-02-27T10:34:48.000Z</time>
      </trkpt>
      <trkpt lat="47.19142" lon="-1.5761">
        <ele>55</ele>
        <time>2021-02-27T10:34:50.000Z</time>
      </trkpt>
      <trkpt lat="47.19147" lon="-1.57595">
        <ele>55</ele>
        <time>2021-02-27T10:34:52.000Z</time>
      </trkpt>
      <trkpt lat="47.19152" lon="-1.57581">
        <ele>55</ele>
        <time>2021-02-27T10:34:54.000Z</time>
      </trkpt>
      <trkpt lat="47.19158" lon="-1.57566">
        <ele>55</ele>
        <time>2021-02-27T10:34:56.000Z</time>
      </trkpt>
      <trkpt lat="47.19163" lon="-1.57552">
        <ele>56</ele>
        <time>2021-02-27T10:34:58.000Z</time>
      </trkpt>
      <trkpt lat="47.19168" lon="-1.57537">
        <ele>55</ele>
        <time>2021-02-27T10:35:00.000Z</time>
      </trkpt>
      <trkpt lat="47.19176" lon="-1.57514">
        <ele>55</ele>
        <time>2021-02-27T10:35:03.000Z</time>
      </trkpt>
      <trkpt lat="47.19181" lon="-1.57499">
        <ele>55</ele>
        <time>2021-02-27T10:35:05.000Z</time>
      </trkpt>
      <trkpt lat="47.19186" lon="-1.57484">
        <ele>56</ele>
        <time>2021-02-27T10:35:07.000Z</time>
      </trkpt>
      <trkpt lat="47.1919" lon="-1.57468">
        <ele>56</ele>
        <time>2021-02-27T10:35:09.000Z</time>
      </trkpt>
      <trkpt lat="47.19195" lon="-1.57452">
        <ele>56</ele>
        <time>2021-02-27T10:35:11.000Z</time>
      </trkpt>
      <trkpt lat="47.192" lon="-1.57435">
        <ele>56</ele>
        <time>2021-02-27T10:35:13.000Z</time>
      </trkpt>
      <trkpt lat="47.19205" lon="-1.57419">
        <ele>56</ele>
        <time>2021-02-27T10:35:15.000Z</time>
      </trkpt>
      <trkpt lat="47.19209" lon="-1.57401">
        <ele>56</ele>
        <time>2021-02-27T10:35:17.000Z</time>
      </trkpt>
      <trkpt lat="47.19214" lon="-1.57384">
        <ele>56</ele>
        <time>2021-02-27T10:35:19.000Z</time>
      </trkpt>
      <trkpt lat="47.1922" lon="-1.57359">
        <ele>56</ele>
        <time>2021-02-27T10:35:22.000Z</time>
      </trkpt>
      <trkpt lat="47.19224" lon="-1.57341">
        <ele>56</ele>
        <time>2021-02-27T10:35:24.000Z</time>
      </trkpt>
      <trkpt lat="47.19228" lon="-1.57323">
        <ele>56</ele>
        <time>2021-02-27T10:35:26.000Z</time>
      </trkpt>
      <trkpt lat="47.19231" lon="-1.57305">
        <ele>56</ele>
        <time>2021-02-27T10:35:28.000Z</time>
      </trkpt>
      <trkpt lat="47.19234" lon="-1.57288">
        <ele>57</ele>
        <time>2021-02-27T10:35:30.000Z</time>
      </trkpt>
      <trkpt lat="47.19237" lon="-1.5727">
        <ele>57</ele>
        <time>2021-02-27T10:35:32.000Z</time>
      </trkpt>
      <trkpt lat="47.19239" lon="-1.57254">
        <ele>57</ele>
        <time>2021-02-27T10:35:34.000Z</time>
      </trkpt>
      <trkpt lat="47.19241" lon="-1.57237">
        <ele>57</ele>
        <time>2021-02-27T10:35:36.000Z</time>
      </trkpt>
      <trkpt lat="47.19243" lon="-1.5722">
        <ele>57</ele>
        <time>2021-02-27T10:35:38.000Z</time>
      </trkpt>
      <trkpt lat="47.19246" lon="-1.57203">
        <ele>57</ele>
        <time>2021-02-27T10:35:40.000Z</time>
      </trkpt>
      <trkpt lat="47.19248" lon="-1.57185">
        <ele>57</ele>
        <time>2021-02-27T10:35:42.000Z</time>
      </trkpt>
      <trkpt lat="47.19251" lon="-1.57167">
        <ele>57</ele>
        <time>2021-02-27T10:35:44.000Z</time>
      </trkpt>
      <trkpt lat="47.19255" lon="-1.57149">
        <ele>57</ele>
        <time>2021-02-27T10:35:46.000Z</time>
      </trkpt>
      <trkpt lat="47.19256" lon="-1.57131">
        <ele>56</ele>
        <time>2021-02-27T10:35:48.000Z</time>
      </trkpt>
      <trkpt lat="47.19258" lon="-1.57114">
        <ele>56</ele>
        <time>2021-02-27T10:35:50.000Z</time>
      </trkpt>
      <trkpt lat="47.1926" lon="-1.57098">
        <ele>55</ele>
        <time>2021-02-27T10:35:52.000Z</time>
      </trkpt>
      <trkpt lat="47.19262" lon="-1.5708">
        <ele>55</ele>
        <time>2021-02-27T10:35:55.000Z</time>
      </trkpt>
      <trkpt lat="47.19257" lon="-1.57068">
        <ele>54</ele>
        <time>2021-02-27T10:35:57.000Z</time>
      </trkpt>
      <trkpt lat="47.19252" lon="-1.57053">
        <ele>54</ele>
        <time>2021-02-27T10:35:59.000Z</time>
      </trkpt>
      <trkpt lat="47.19256" lon="-1.57035">
        <ele>53</ele>
        <time>2021-02-27T10:36:01.000Z</time>
      </trkpt>
      <trkpt lat="47.19265" lon="-1.57022">
        <ele>53</ele>
        <time>2021-02-27T10:36:03.000Z</time>
      </trkpt>
      <trkpt lat="47.1927" lon="-1.57006">
        <ele>54</ele>
        <time>2021-02-27T10:36:05.000Z</time>
      </trkpt>
      <trkpt lat="47.19272" lon="-1.5699">
        <ele>54</ele>
        <time>2021-02-27T10:36:07.000Z</time>
      </trkpt>
      <trkpt lat="47.19275" lon="-1.56972">
        <ele>54</ele>
        <time>2021-02-27T10:36:09.000Z</time>
      </trkpt>
      <trkpt lat="47.19276" lon="-1.56956">
        <ele>54</ele>
        <time>2021-02-27T10:36:11.000Z</time>
      </trkpt>
      <trkpt lat="47.19277" lon="-1.5694">
        <ele>54</ele>
        <time>2021-02-27T10:36:13.000Z</time>
      </trkpt>
      <trkpt lat="47.19278" lon="-1.56924">
        <ele>54</ele>
        <time>2021-02-27T10:36:15.000Z</time>
      </trkpt>
      <trkpt lat="47.19279" lon="-1.56909">
        <ele>54</ele>
        <time>2021-02-27T10:36:17.000Z</time>
      </trkpt>
      <trkpt lat="47.1928" lon="-1.56893">
        <ele>54</ele>
        <time>2021-02-27T10:36:19.000Z</time>
      </trkpt>
      <trkpt lat="47.19282" lon="-1.56878">
        <ele>54</ele>
        <time>2021-02-27T10:36:21.000Z</time>
      </trkpt>
      <trkpt lat="47.19283" lon="-1.56862">
        <ele>54</ele>
        <time>2021-02-27T10:36:23.000Z</time>
      </trkpt>
      <trkpt lat="47.19285" lon="-1.56846">
        <ele>55</ele>
        <time>2021-02-27T10:36:25.000Z</time>
      </trkpt>
      <trkpt lat="47.19287" lon="-1.5683">
        <ele>55</ele>
        <time>2021-02-27T10:36:27.000Z</time>
      </trkpt>
      <trkpt lat="47.19287" lon="-1.56814">
        <ele>55</ele>
        <time>2021-02-27T10:36:29.000Z</time>
      </trkpt>
      <trkpt lat="47.19288" lon="-1.56799">
        <ele>55</ele>
        <time>2021-02-27T10:36:31.000Z</time>
      </trkpt>
      <trkpt lat="47.19289" lon="-1.56785">
        <ele>55</ele>
        <time>2021-02-27T10:36:33.000Z</time>
      </trkpt>
      <trkpt lat="47.19289" lon="-1.56771">
        <ele>55</ele>
        <time>2021-02-27T10:36:35.000Z</time>
      </trkpt>
      <trkpt lat="47.19289" lon="-1.56751">
        <ele>55</ele>
        <time>2021-02-27T10:36:38.000Z</time>
      </trkpt>
      <trkpt lat="47.19289" lon="-1.56737">
        <ele>55</ele>
        <time>2021-02-27T10:36:40.000Z</time>
      </trkpt>
      <trkpt lat="47.19289" lon="-1.56723">
        <ele>55</ele>
        <time>2021-02-27T10:36:42.000Z</time>
      </trkpt>
      <trkpt lat="47.19288" lon="-1.56708">
        <ele>54</ele>
        <time>2021-02-27T10:36:44.000Z</time>
      </trkpt>
      <trkpt lat="47.19288" lon="-1.56693">
        <ele>54</ele>
        <time>2021-02-27T10:36:46.000Z</time>
      </trkpt>
      <trkpt lat="47.19287" lon="-1.56677">
        <ele>54</ele>
        <time>2021-02-27T10:36:48.000Z</time>
      </trkpt>
      <trkpt lat="47.19286" lon="-1.56662">
        <ele>54</ele>
        <time>2021-02-27T10:36:50.000Z</time>
      </trkpt>
      <trkpt lat="47.19284" lon="-1.56647">
        <ele>54</ele>
        <time>2021-02-27T10:36:52.000Z</time>
      </trkpt>
      <trkpt lat="47.19283" lon="-1.56631">
        <ele>54</ele>
        <time>2021-02-27T10:36:54.000Z</time>
      </trkpt>
      <trkpt lat="47.19281" lon="-1.56615">
        <ele>54</ele>
        <time>2021-02-27T10:36:56.000Z</time>
      </trkpt>
      <trkpt lat="47.19279" lon="-1.566">
        <ele>54</ele>
        <time>2021-02-27T10:36:58.000Z</time>
      </trkpt>
      <trkpt lat="47.19278" lon="-1.56585">
        <ele>54</ele>
        <time>2021-02-27T10:37:00.000Z</time>
      </trkpt>
      <trkpt lat="47.19277" lon="-1.5657">
        <ele>54</ele>
        <time>2021-02-27T10:37:02.000Z</time>
      </trkpt>
      <trkpt lat="47.19276" lon="-1.56554">
        <ele>54</ele>
        <time>2021-02-27T10:37:04.000Z</time>
      </trkpt>
      <trkpt lat="47.19275" lon="-1.5654">
        <ele>53</ele>
        <time>2021-02-27T10:37:06.000Z</time>
      </trkpt>
      <trkpt lat="47.19273" lon="-1.56524">
        <ele>54</ele>
        <time>2021-02-27T10:37:08.000Z</time>
      </trkpt>
      <trkpt lat="47.19272" lon="-1.56509">
        <ele>53</ele>
        <time>2021-02-27T10:37:10.000Z</time>
      </trkpt>
      <trkpt lat="47.1927" lon="-1.56494">
        <ele>53</ele>
        <time>2021-02-27T10:37:12.000Z</time>
      </trkpt>
      <trkpt lat="47.19269" lon="-1.5648">
        <ele>53</ele>
        <time>2021-02-27T10:37:14.000Z</time>
      </trkpt>
      <trkpt lat="47.19267" lon="-1.56465">
        <ele>53</ele>
        <time>2021-02-27T10:37:16.000Z</time>
      </trkpt>
      <trkpt lat="47.19265" lon="-1.5645">
        <ele>53</ele>
        <time>2021-02-27T10:37:18.000Z</time>
      </trkpt>
      <trkpt lat="47.19264" lon="-1.56435">
        <ele>54</ele>
        <time>2021-02-27T10:37:20.000Z</time>
      </trkpt>
      <trkpt lat="47.19264" lon="-1.56419">
        <ele>54</ele>
        <time>2021-02-27T10:37:22.000Z</time>
      </trkpt>
      <trkpt lat="47.19263" lon="-1.56402">
        <ele>54</ele>
        <time>2021-02-27T10:37:24.000Z</time>
      </trkpt>
      <trkpt lat="47.19262" lon="-1.56386">
        <ele>54</ele>
        <time>2021-02-27T10:37:26.000Z</time>
      </trkpt>
      <trkpt lat="47.1926" lon="-1.5637">
        <ele>54</ele>
        <time>2021-02-27T10:37:28.000Z</time>
      </trkpt>
      <trkpt lat="47.19256" lon="-1.56356">
        <ele>54</ele>
        <time>2021-02-27T10:37:30.000Z</time>
      </trkpt>
      <trkpt lat="47.19253" lon="-1.56341">
        <ele>54</ele>
        <time>2021-02-27T10:37:32.000Z</time>
      </trkpt>
      <trkpt lat="47.19247" lon="-1.56329">
        <ele>54</ele>
        <time>2021-02-27T10:37:34.000Z</time>
      </trkpt>
      <trkpt lat="47.19238" lon="-1.56318">
        <ele>55</ele>
        <time>2021-02-27T10:37:36.000Z</time>
      </trkpt>
      <trkpt lat="47.19233" lon="-1.56303">
        <ele>55</ele>
        <time>2021-02-27T10:37:38.000Z</time>
      </trkpt>
      <trkpt lat="47.19231" lon="-1.56287">
        <ele>55</ele>
        <time>2021-02-27T10:37:40.000Z</time>
      </trkpt>
      <trkpt lat="47.19234" lon="-1.56271">
        <ele>55</ele>
        <time>2021-02-27T10:37:42.000Z</time>
      </trkpt>
      <trkpt lat="47.19241" lon="-1.56256">
        <ele>55</ele>
        <time>2021-02-27T10:37:44.000Z</time>
      </trkpt>
      <trkpt lat="47.19245" lon="-1.56241">
        <ele>54</ele>
        <time>2021-02-27T10:37:46.000Z</time>
      </trkpt>
      <trkpt lat="47.19243" lon="-1.56223">
        <ele>54</ele>
        <time>2021-02-27T10:37:48.000Z</time>
      </trkpt>
      <trkpt lat="47.19242" lon="-1.56206">
        <ele>54</ele>
        <time>2021-02-27T10:37:50.000Z</time>
      </trkpt>
      <trkpt lat="47.19243" lon="-1.56189">
        <ele>54</ele>
        <time>2021-02-27T10:37:52.000Z</time>
      </trkpt>
      <trkpt lat="47.19243" lon="-1.56172">
        <ele>54</ele>
        <time>2021-02-27T10:37:54.000Z</time>
      </trkpt>
      <trkpt lat="47.19243" lon="-1.56155">
        <ele>54</ele>
        <time>2021-02-27T10:37:56.000Z</time>
      </trkpt>
      <trkpt lat="47.19243" lon="-1.56137">
        <ele>54</ele>
        <time>2021-02-27T10:37:58.000Z</time>
      </trkpt>
      <trkpt lat="47.19242" lon="-1.5612">
        <ele>54</ele>
        <time>2021-02-27T10:38:00.000Z</time>
      </trkpt>
      <trkpt lat="47.19241" lon="-1.56103">
        <ele>54</ele>
        <time>2021-02-27T10:38:02.000Z</time>
      </trkpt>
      <trkpt lat="47.19241" lon="-1.56086">
        <ele>54</ele>
        <time>2021-02-27T10:38:04.000Z</time>
      </trkpt>
      <trkpt lat="47.1924" lon="-1.56069">
        <ele>54</ele>
        <time>2021-02-27T10:38:06.000Z</time>
      </trkpt>
      <trkpt lat="47.19239" lon="-1.56053">
        <ele>54</ele>
        <time>2021-02-27T10:38:08.000Z</time>
      </trkpt>
      <trkpt lat="47.19237" lon="-1.56037">
        <ele>54</ele>
        <time>2021-02-27T10:38:10.000Z</time>
      </trkpt>
      <trkpt lat="47.19236" lon="-1.56021">
        <ele>54</ele>
        <time>2021-02-27T10:38:12.000Z</time>
      </trkpt>
      <trkpt lat="47.19234" lon="-1.56004">
        <ele>54</ele>
        <time>2021-02-27T10:38:14.000Z</time>
      </trkpt>
      <trkpt lat="47.19233" lon="-1.55987">
        <ele>54</ele>
        <time>2021-02-27T10:38:16.000Z</time>
      </trkpt>
      <trkpt lat="47.1923" lon="-1.55969">
        <ele>54</ele>
        <time>2021-02-27T10:38:18.000Z</time>
      </trkpt>
      <trkpt lat="47.19228" lon="-1.55952">
        <ele>54</ele>
        <time>2021-02-27T10:38:20.000Z</time>
      </trkpt>
      <trkpt lat="47.19226" lon="-1.55936">
        <ele>54</ele>
        <time>2021-02-27T10:38:22.000Z</time>
      </trkpt>
      <trkpt lat="47.19224" lon="-1.5592">
        <ele>54</ele>
        <time>2021-02-27T10:38:24.000Z</time>
      </trkpt>
      <trkpt lat="47.19223" lon="-1.55903">
        <ele>54</ele>
        <time>2021-02-27T10:38:26.000Z</time>
      </trkpt>
      <trkpt lat="47.19222" lon="-1.55887">
        <ele>54</ele>
        <time>2021-02-27T10:38:28.000Z</time>
      </trkpt>
      <trkpt lat="47.19221" lon="-1.5587">
        <ele>54</ele>
        <time>2021-02-27T10:38:30.000Z</time>
      </trkpt>
      <trkpt lat="47.1922" lon="-1.55852">
        <ele>54</ele>
        <time>2021-02-27T10:38:32.000Z</time>
      </trkpt>
      <trkpt lat="47.19219" lon="-1.55837">
        <ele>54</ele>
        <time>2021-02-27T10:38:34.000Z</time>
      </trkpt>
      <trkpt lat="47.19218" lon="-1.5582">
        <ele>54</ele>
        <time>2021-02-27T10:38:36.000Z</time>
      </trkpt>
      <trkpt lat="47.19218" lon="-1.55804">
        <ele>54</ele>
        <time>2021-02-27T10:38:38.000Z</time>
      </trkpt>
      <trkpt lat="47.19217" lon="-1.55787">
        <ele>54</ele>
        <time>2021-02-27T10:38:40.000Z</time>
      </trkpt>
      <trkpt lat="47.19216" lon="-1.5577">
        <ele>55</ele>
        <time>2021-02-27T10:38:42.000Z</time>
      </trkpt>
      <trkpt lat="47.19216" lon="-1.55753">
        <ele>55</ele>
        <time>2021-02-27T10:38:44.000Z</time>
      </trkpt>
      <trkpt lat="47.19216" lon="-1.55735">
        <ele>55</ele>
        <time>2021-02-27T10:38:46.000Z</time>
      </trkpt>
      <trkpt lat="47.19217" lon="-1.55718">
        <ele>55</ele>
        <time>2021-02-27T10:38:48.000Z</time>
      </trkpt>
      <trkpt lat="47.19217" lon="-1.55701">
        <ele>55</ele>
        <time>2021-02-27T10:38:50.000Z</time>
      </trkpt>
      <trkpt lat="47.19218" lon="-1.55684">
        <ele>55</ele>
        <time>2021-02-27T10:38:52.000Z</time>
      </trkpt>
      <trkpt lat="47.19218" lon="-1.55668">
        <ele>55</ele>
        <time>2021-02-27T10:38:54.000Z</time>
      </trkpt>
      <trkpt lat="47.19219" lon="-1.55652">
        <ele>55</ele>
        <time>2021-02-27T10:38:56.000Z</time>
      </trkpt>
      <trkpt lat="47.1922" lon="-1.55635">
        <ele>56</ele>
        <time>2021-02-27T10:38:58.000Z</time>
      </trkpt>
      <trkpt lat="47.19221" lon="-1.55618">
        <ele>55</ele>
        <time>2021-02-27T10:39:00.000Z</time>
      </trkpt>
      <trkpt lat="47.19222" lon="-1.55602">
        <ele>55</ele>
        <time>2021-02-27T10:39:02.000Z</time>
      </trkpt>
      <trkpt lat="47.19224" lon="-1.55586">
        <ele>56</ele>
        <time>2021-02-27T10:39:04.000Z</time>
      </trkpt>
      <trkpt lat="47.19225" lon="-1.55569">
        <ele>56</ele>
        <time>2021-02-27T10:39:06.000Z</time>
      </trkpt>
      <trkpt lat="47.19226" lon="-1.55552">
        <ele>56</ele>
        <time>2021-02-27T10:39:08.000Z</time>
      </trkpt>
      <trkpt lat="47.19228" lon="-1.55537">
        <ele>56</ele>
        <time>2021-02-27T10:39:10.000Z</time>
      </trkpt>
      <trkpt lat="47.19229" lon="-1.55521">
        <ele>56</ele>
        <time>2021-02-27T10:39:12.000Z</time>
      </trkpt>
      <trkpt lat="47.1923" lon="-1.55506">
        <ele>56</ele>
        <time>2021-02-27T10:39:14.000Z</time>
      </trkpt>
      <trkpt lat="47.1923" lon="-1.5549">
        <ele>56</ele>
        <time>2021-02-27T10:39:16.000Z</time>
      </trkpt>
      <trkpt lat="47.19229" lon="-1.55475">
        <ele>56</ele>
        <time>2021-02-27T10:39:18.000Z</time>
      </trkpt>
      <trkpt lat="47.19223" lon="-1.55463">
        <ele>55</ele>
        <time>2021-02-27T10:39:20.000Z</time>
      </trkpt>
      <trkpt lat="47.19214" lon="-1.5545">
        <ele>55</ele>
        <time>2021-02-27T10:39:22.000Z</time>
      </trkpt>
      <trkpt lat="47.19212" lon="-1.55433">
        <ele>55</ele>
        <time>2021-02-27T10:39:24.000Z</time>
      </trkpt>
      <trkpt lat="47.19216" lon="-1.55417">
        <ele>55</ele>
        <time>2021-02-27T10:39:26.000Z</time>
      </trkpt>
      <trkpt lat="47.19224" lon="-1.55406">
        <ele>55</ele>
        <time>2021-02-27T10:39:28.000Z</time>
      </trkpt>
      <trkpt lat="47.19233" lon="-1.55398">
        <ele>56</ele>
        <time>2021-02-27T10:39:30.000Z</time>
      </trkpt>
      <trkpt lat="47.19238" lon="-1.55386">
        <ele>56</ele>
        <time>2021-02-27T10:39:32.000Z</time>
      </trkpt>
      <trkpt lat="47.19243" lon="-1.55372">
        <ele>57</ele>
        <time>2021-02-27T10:39:34.000Z</time>
      </trkpt>
      <trkpt lat="47.19248" lon="-1.55358">
        <ele>56</ele>
        <time>2021-02-27T10:39:36.000Z</time>
      </trkpt>
      <trkpt lat="47.19253" lon="-1.55345">
        <ele>56</ele>
        <time>2021-02-27T10:39:38.000Z</time>
      </trkpt>
      <trkpt lat="47.19256" lon="-1.5533">
        <ele>57</ele>
        <time>2021-02-27T10:39:40.000Z</time>
      </trkpt>
      <trkpt lat="47.19259" lon="-1.55315">
        <ele>56</ele>
        <time>2021-02-27T10:39:42.000Z</time>
      </trkpt>
      <trkpt lat="47.19262" lon="-1.553">
        <ele>56</ele>
        <time>2021-02-27T10:39:44.000Z</time>
      </trkpt>
      <trkpt lat="47.19265" lon="-1.55285">
        <ele>56</ele>
        <time>2021-02-27T10:39:46.000Z</time>
      </trkpt>
      <trkpt lat="47.19269" lon="-1.55271">
        <ele>56</ele>
        <time>2021-02-27T10:39:48.000Z</time>
      </trkpt>
      <trkpt lat="47.19272" lon="-1.55256">
        <ele>55</ele>
        <time>2021-02-27T10:39:50.000Z</time>
      </trkpt>
      <trkpt lat="47.19275" lon="-1.55242">
        <ele>55</ele>
        <time>2021-02-27T10:39:52.000Z</time>
      </trkpt>
      <trkpt lat="47.19278" lon="-1.55227">
        <ele>56</ele>
        <time>2021-02-27T10:39:54.000Z</time>
      </trkpt>
      <trkpt lat="47.19281" lon="-1.55212">
        <ele>56</ele>
        <time>2021-02-27T10:39:56.000Z</time>
      </trkpt>
      <trkpt lat="47.19285" lon="-1.55197">
        <ele>56</ele>
        <time>2021-02-27T10:39:58.000Z</time>
      </trkpt>
      <trkpt lat="47.19289" lon="-1.55184">
        <ele>56</ele>
        <time>2021-02-27T10:40:00.000Z</time>
      </trkpt>
      <trkpt lat="47.19293" lon="-1.5517">
        <ele>56</ele>
        <time>2021-02-27T10:40:02.000Z</time>
      </trkpt>
      <trkpt lat="47.19297" lon="-1.55157">
        <ele>56</ele>
        <time>2021-02-27T10:40:04.000Z</time>
      </trkpt>
      <trkpt lat="47.193" lon="-1.55143">
        <ele>56</ele>
        <time>2021-02-27T10:40:06.000Z</time>
      </trkpt>
      <trkpt lat="47.19304" lon="-1.55129">
        <ele>56</ele>
        <time>2021-02-27T10:40:08.000Z</time>
      </trkpt>
      <trkpt lat="47.19307" lon="-1.55115">
        <ele>57</ele>
        <time>2021-02-27T10:40:10.000Z</time>
      </trkpt>
      <trkpt lat="47.1931" lon="-1.55101">
        <ele>57</ele>
        <time>2021-02-27T10:40:12.000Z</time>
      </trkpt>
      <trkpt lat="47.19314" lon="-1.55087">
        <ele>58</ele>
        <time>2021-02-27T10:40:14.000Z</time>
      </trkpt>
      <trkpt lat="47.19318" lon="-1.55073">
        <ele>59</ele>
        <time>2021-02-27T10:40:16.000Z</time>
      </trkpt>
      <trkpt lat="47.19322" lon="-1.55059">
        <ele>59</ele>
        <time>2021-02-27T10:40:18.000Z</time>
      </trkpt>
      <trkpt lat="47.19325" lon="-1.55046">
        <ele>59</ele>
        <time>2021-02-27T10:40:20.000Z</time>
      </trkpt>
      <trkpt lat="47.19329" lon="-1.55033">
        <ele>59</ele>
        <time>2021-02-27T10:40:22.000Z</time>
      </trkpt>
      <trkpt lat="47.19332" lon="-1.55019">
        <ele>59</ele>
        <time>2021-02-27T10:40:24.000Z</time>
      </trkpt>
      <trkpt lat="47.19336" lon="-1.55004">
        <ele>60</ele>
        <time>2021-02-27T10:40:26.000Z</time>
      </trkpt>
      <trkpt lat="47.1934" lon="-1.5499">
        <ele>60</ele>
        <time>2021-02-27T10:40:28.000Z</time>
      </trkpt>
      <trkpt lat="47.19343" lon="-1.54976">
        <ele>60</ele>
        <time>2021-02-27T10:40:30.000Z</time>
      </trkpt>
      <trkpt lat="47.19347" lon="-1.54962">
        <ele>60</ele>
        <time>2021-02-27T10:40:32.000Z</time>
      </trkpt>
      <trkpt lat="47.1935" lon="-1.54949">
        <ele>61</ele>
        <time>2021-02-27T10:40:34.000Z</time>
      </trkpt>
      <trkpt lat="47.19354" lon="-1.54935">
        <ele>61</ele>
        <time>2021-02-27T10:40:36.000Z</time>
      </trkpt>
      <trkpt lat="47.19358" lon="-1.54921">
        <ele>62</ele>
        <time>2021-02-27T10:40:38.000Z</time>
      </trkpt>
      <trkpt lat="47.1936" lon="-1.54908">
        <ele>62</ele>
        <time>2021-02-27T10:40:40.000Z</time>
      </trkpt>
      <trkpt lat="47.19363" lon="-1.54894">
        <ele>62</ele>
        <time>2021-02-27T10:40:42.000Z</time>
      </trkpt>
      <trkpt lat="47.19366" lon="-1.5488">
        <ele>62</ele>
        <time>2021-02-27T10:40:44.000Z</time>
      </trkpt>
      <trkpt lat="47.1937" lon="-1.54866">
        <ele>62</ele>
        <time>2021-02-27T10:40:46.000Z</time>
      </trkpt>
      <trkpt lat="47.19374" lon="-1.54851">
        <ele>62</ele>
        <time>2021-02-27T10:40:48.000Z</time>
      </trkpt>
      <trkpt lat="47.19376" lon="-1.54836">
        <ele>61</ele>
        <time>2021-02-27T10:40:50.000Z</time>
      </trkpt>
      <trkpt lat="47.1938" lon="-1.54819">
        <ele>61</ele>
        <time>2021-02-27T10:40:52.000Z</time>
      </trkpt>
      <trkpt lat="47.19386" lon="-1.54801">
        <ele>61</ele>
        <time>2021-02-27T10:40:54.000Z</time>
      </trkpt>
      <trkpt lat="47.1939" lon="-1.54782">
        <ele>59</ele>
        <time>2021-02-27T10:40:56.000Z</time>
      </trkpt>
      <trkpt lat="47.19395" lon="-1.54763">
        <ele>59</ele>
        <time>2021-02-27T10:40:58.000Z</time>
      </trkpt>
      <trkpt lat="47.19399" lon="-1.54745">
        <ele>58</ele>
        <time>2021-02-27T10:41:00.000Z</time>
      </trkpt>
      <trkpt lat="47.19404" lon="-1.54727">
        <ele>57</ele>
        <time>2021-02-27T10:41:02.000Z</time>
      </trkpt>
      <trkpt lat="47.19407" lon="-1.54709">
        <ele>56</ele>
        <time>2021-02-27T10:41:04.000Z</time>
      </trkpt>
      <trkpt lat="47.19409" lon="-1.54692">
        <ele>56</ele>
        <time>2021-02-27T10:41:06.000Z</time>
      </trkpt>
      <trkpt lat="47.19416" lon="-1.54677">
        <ele>57</ele>
        <time>2021-02-27T10:41:08.000Z</time>
      </trkpt>
      <trkpt lat="47.19421" lon="-1.54662">
        <ele>57</ele>
        <time>2021-02-27T10:41:10.000Z</time>
      </trkpt>
      <trkpt lat="47.19426" lon="-1.54648">
        <ele>56</ele>
        <time>2021-02-27T10:41:12.000Z</time>
      </trkpt>
      <trkpt lat="47.19431" lon="-1.54632">
        <ele>56</ele>
        <time>2021-02-27T10:41:15.000Z</time>
      </trkpt>
      <trkpt lat="47.1943" lon="-1.54616">
        <ele>56</ele>
        <time>2021-02-27T10:41:22.000Z</time>
      </trkpt>
      <trkpt lat="47.19423" lon="-1.54604">
        <ele>56</ele>
        <time>2021-02-27T10:41:25.000Z</time>
      </trkpt>
      <trkpt lat="47.19422" lon="-1.54587">
        <ele>55</ele>
        <time>2021-02-27T10:41:27.000Z</time>
      </trkpt>
      <trkpt lat="47.19428" lon="-1.54569">
        <ele>54</ele>
        <time>2021-02-27T10:41:29.000Z</time>
      </trkpt>
      <trkpt lat="47.19438" lon="-1.54557">
        <ele>55</ele>
        <time>2021-02-27T10:41:31.000Z</time>
      </trkpt>
      <trkpt lat="47.19448" lon="-1.54547">
        <ele>55</ele>
        <time>2021-02-27T10:41:33.000Z</time>
      </trkpt>
      <trkpt lat="47.19453" lon="-1.54532">
        <ele>55</ele>
        <time>2021-02-27T10:41:35.000Z</time>
      </trkpt>
      <trkpt lat="47.19458" lon="-1.54517">
        <ele>55</ele>
        <time>2021-02-27T10:41:37.000Z</time>
      </trkpt>
      <trkpt lat="47.19463" lon="-1.54504">
        <ele>55</ele>
        <time>2021-02-27T10:41:39.000Z</time>
      </trkpt>
      <trkpt lat="47.19469" lon="-1.5449">
        <ele>55</ele>
        <time>2021-02-27T10:41:42.000Z</time>
      </trkpt>
      <trkpt lat="47.19473" lon="-1.54477">
        <ele>56</ele>
        <time>2021-02-27T10:41:45.000Z</time>
      </trkpt>
      <trkpt lat="47.19478" lon="-1.54465">
        <ele>56</ele>
        <time>2021-02-27T10:41:49.000Z</time>
      </trkpt>
      <trkpt lat="47.19486" lon="-1.54458">
        <ele>56</ele>
        <time>2021-02-27T10:41:51.000Z</time>
      </trkpt>
      <trkpt lat="47.19496" lon="-1.54449">
        <ele>56</ele>
        <time>2021-02-27T10:41:53.000Z</time>
      </trkpt>
      <trkpt lat="47.19506" lon="-1.54441">
        <ele>57</ele>
        <time>2021-02-27T10:41:55.000Z</time>
      </trkpt>
      <trkpt lat="47.19516" lon="-1.54434">
        <ele>57</ele>
        <time>2021-02-27T10:41:57.000Z</time>
      </trkpt>
      <trkpt lat="47.19526" lon="-1.54426">
        <ele>56</ele>
        <time>2021-02-27T10:41:59.000Z</time>
      </trkpt>
      <trkpt lat="47.19535" lon="-1.54419">
        <ele>56</ele>
        <time>2021-02-27T10:42:01.000Z</time>
      </trkpt>
      <trkpt lat="47.19545" lon="-1.54411">
        <ele>56</ele>
        <time>2021-02-27T10:42:03.000Z</time>
      </trkpt>
      <trkpt lat="47.19555" lon="-1.54404">
        <ele>56</ele>
        <time>2021-02-27T10:42:05.000Z</time>
      </trkpt>
      <trkpt lat="47.19566" lon="-1.54396">
        <ele>56</ele>
        <time>2021-02-27T10:42:07.000Z</time>
      </trkpt>
      <trkpt lat="47.19576" lon="-1.54388">
        <ele>56</ele>
        <time>2021-02-27T10:42:09.000Z</time>
      </trkpt>
      <trkpt lat="47.19586" lon="-1.54381">
        <ele>56</ele>
        <time>2021-02-27T10:42:11.000Z</time>
      </trkpt>
      <trkpt lat="47.19596" lon="-1.54372">
        <ele>56</ele>
        <time>2021-02-27T10:42:13.000Z</time>
      </trkpt>
      <trkpt lat="47.19605" lon="-1.54363">
        <ele>56</ele>
        <time>2021-02-27T10:42:15.000Z</time>
      </trkpt>
      <trkpt lat="47.19614" lon="-1.54352">
        <ele>56</ele>
        <time>2021-02-27T10:42:17.000Z</time>
      </trkpt>
      <trkpt lat="47.19622" lon="-1.54342">
        <ele>56</ele>
        <time>2021-02-27T10:42:19.000Z</time>
      </trkpt>
      <trkpt lat="47.19629" lon="-1.54331">
        <ele>55</ele>
        <time>2021-02-27T10:42:21.000Z</time>
      </trkpt>
      <trkpt lat="47.19637" lon="-1.5432">
        <ele>55</ele>
        <time>2021-02-27T10:42:23.000Z</time>
      </trkpt>
      <trkpt lat="47.19646" lon="-1.5431">
        <ele>56</ele>
        <time>2021-02-27T10:42:25.000Z</time>
      </trkpt>
      <trkpt lat="47.19654" lon="-1.54301">
        <ele>56</ele>
        <time>2021-02-27T10:42:27.000Z</time>
      </trkpt>
      <trkpt lat="47.19662" lon="-1.54294">
        <ele>56</ele>
        <time>2021-02-27T10:42:29.000Z</time>
      </trkpt>
      <trkpt lat="47.19672" lon="-1.54286">
        <ele>56</ele>
        <time>2021-02-27T10:42:31.000Z</time>
      </trkpt>
      <trkpt lat="47.19681" lon="-1.54278">
        <ele>55</ele>
        <time>2021-02-27T10:42:33.000Z</time>
      </trkpt>
      <trkpt lat="47.19691" lon="-1.5427">
        <ele>55</ele>
        <time>2021-02-27T10:42:35.000Z</time>
      </trkpt>
      <trkpt lat="47.19701" lon="-1.54264">
        <ele>56</ele>
        <time>2021-02-27T10:42:37.000Z</time>
      </trkpt>
      <trkpt lat="47.19711" lon="-1.54257">
        <ele>56</ele>
        <time>2021-02-27T10:42:39.000Z</time>
      </trkpt>
      <trkpt lat="47.19722" lon="-1.54249">
        <ele>56</ele>
        <time>2021-02-27T10:42:41.000Z</time>
      </trkpt>
      <trkpt lat="47.19732" lon="-1.54242">
        <ele>57</ele>
        <time>2021-02-27T10:42:43.000Z</time>
      </trkpt>
      <trkpt lat="47.1974" lon="-1.54234">
        <ele>57</ele>
        <time>2021-02-27T10:42:45.000Z</time>
      </trkpt>
      <trkpt lat="47.1975" lon="-1.54224">
        <ele>57</ele>
        <time>2021-02-27T10:42:48.000Z</time>
      </trkpt>
      <trkpt lat="47.19761" lon="-1.54214">
        <ele>57</ele>
        <time>2021-02-27T10:42:51.000Z</time>
      </trkpt>
      <trkpt lat="47.19772" lon="-1.54208">
        <ele>57</ele>
        <time>2021-02-27T10:42:54.000Z</time>
      </trkpt>
      <trkpt lat="47.19782" lon="-1.54203">
        <ele>58</ele>
        <time>2021-02-27T10:42:56.000Z</time>
      </trkpt>
      <trkpt lat="47.19785" lon="-1.54188">
        <ele>58</ele>
        <time>2021-02-27T10:42:58.000Z</time>
      </trkpt>
      <trkpt lat="47.19789" lon="-1.54172">
        <ele>57</ele>
        <time>2021-02-27T10:43:00.000Z</time>
      </trkpt>
      <trkpt lat="47.19793" lon="-1.54156">
        <ele>58</ele>
        <time>2021-02-27T10:43:02.000Z</time>
      </trkpt>
      <trkpt lat="47.19795" lon="-1.54139">
        <ele>58</ele>
        <time>2021-02-27T10:43:04.000Z</time>
      </trkpt>
      <trkpt lat="47.19799" lon="-1.54123">
        <ele>57</ele>
        <time>2021-02-27T10:43:06.000Z</time>
      </trkpt>
      <trkpt lat="47.19808" lon="-1.54111">
        <ele>57</ele>
        <time>2021-02-27T10:43:08.000Z</time>
      </trkpt>
      <trkpt lat="47.19821" lon="-1.54103">
        <ele>56</ele>
        <time>2021-02-27T10:43:10.000Z</time>
      </trkpt>
      <trkpt lat="47.1983" lon="-1.54089">
        <ele>56</ele>
        <time>2021-02-27T10:43:12.000Z</time>
      </trkpt>
      <trkpt lat="47.19833" lon="-1.54072">
        <ele>54</ele>
        <time>2021-02-27T10:43:14.000Z</time>
      </trkpt>
      <trkpt lat="47.19842" lon="-1.54058">
        <ele>52</ele>
        <time>2021-02-27T10:43:16.000Z</time>
      </trkpt>
      <trkpt lat="47.1985" lon="-1.54042">
        <ele>52</ele>
        <time>2021-02-27T10:43:18.000Z</time>
      </trkpt>
      <trkpt lat="47.19855" lon="-1.54025">
        <ele>53</ele>
        <time>2021-02-27T10:43:20.000Z</time>
      </trkpt>
      <trkpt lat="47.1986" lon="-1.54009">
        <ele>53</ele>
        <time>2021-02-27T10:43:22.000Z</time>
      </trkpt>
      <trkpt lat="47.19865" lon="-1.53992">
        <ele>53</ele>
        <time>2021-02-27T10:43:24.000Z</time>
      </trkpt>
      <trkpt lat="47.19869" lon="-1.53976">
        <ele>53</ele>
        <time>2021-02-27T10:43:26.000Z</time>
      </trkpt>
      <trkpt lat="47.19874" lon="-1.5396">
        <ele>53</ele>
        <time>2021-02-27T10:43:28.000Z</time>
      </trkpt>
      <trkpt lat="47.1988" lon="-1.53944">
        <ele>54</ele>
        <time>2021-02-27T10:43:30.000Z</time>
      </trkpt>
      <trkpt lat="47.19884" lon="-1.53927">
        <ele>54</ele>
        <time>2021-02-27T10:43:32.000Z</time>
      </trkpt>
      <trkpt lat="47.19888" lon="-1.5391">
        <ele>54</ele>
        <time>2021-02-27T10:43:34.000Z</time>
      </trkpt>
      <trkpt lat="47.19891" lon="-1.53892">
        <ele>54</ele>
        <time>2021-02-27T10:43:36.000Z</time>
      </trkpt>
      <trkpt lat="47.19895" lon="-1.53876">
        <ele>54</ele>
        <time>2021-02-27T10:43:38.000Z</time>
      </trkpt>
      <trkpt lat="47.19899" lon="-1.5386">
        <ele>54</ele>
        <time>2021-02-27T10:43:40.000Z</time>
      </trkpt>
      <trkpt lat="47.19903" lon="-1.53844">
        <ele>55</ele>
        <time>2021-02-27T10:43:42.000Z</time>
      </trkpt>
      <trkpt lat="47.19906" lon="-1.53829">
        <ele>55</ele>
        <time>2021-02-27T10:43:44.000Z</time>
      </trkpt>
      <trkpt lat="47.1991" lon="-1.53813">
        <ele>56</ele>
        <time>2021-02-27T10:43:46.000Z</time>
      </trkpt>
      <trkpt lat="47.19913" lon="-1.53798">
        <ele>57</ele>
        <time>2021-02-27T10:43:48.000Z</time>
      </trkpt>
      <trkpt lat="47.19916" lon="-1.5378">
        <ele>57</ele>
        <time>2021-02-27T10:43:50.000Z</time>
      </trkpt>
      <trkpt lat="47.19921" lon="-1.53763">
        <ele>57</ele>
        <time>2021-02-27T10:43:52.000Z</time>
      </trkpt>
      <trkpt lat="47.19924" lon="-1.53744">
        <ele>57</ele>
        <time>2021-02-27T10:43:54.000Z</time>
      </trkpt>
      <trkpt lat="47.19928" lon="-1.53727">
        <ele>55</ele>
        <time>2021-02-27T10:43:56.000Z</time>
      </trkpt>
      <trkpt lat="47.19932" lon="-1.53711">
        <ele>54</ele>
        <time>2021-02-27T10:43:58.000Z</time>
      </trkpt>
      <trkpt lat="47.19936" lon="-1.53694">
        <ele>54</ele>
        <time>2021-02-27T10:44:00.000Z</time>
      </trkpt>
      <trkpt lat="47.19939" lon="-1.53678">
        <ele>54</ele>
        <time>2021-02-27T10:44:02.000Z</time>
      </trkpt>
      <trkpt lat="47.19943" lon="-1.53661">
        <ele>53</ele>
        <time>2021-02-27T10:44:04.000Z</time>
      </trkpt>
      <trkpt lat="47.19947" lon="-1.53645">
        <ele>54</ele>
        <time>2021-02-27T10:44:06.000Z</time>
      </trkpt>
      <trkpt lat="47.19951" lon="-1.53628">
        <ele>54</ele>
        <time>2021-02-27T10:44:08.000Z</time>
      </trkpt>
      <trkpt lat="47.19955" lon="-1.53612">
        <ele>53</ele>
        <time>2021-02-27T10:44:10.000Z</time>
      </trkpt>
      <trkpt lat="47.1996" lon="-1.53596">
        <ele>53</ele>
        <time>2021-02-27T10:44:12.000Z</time>
      </trkpt>
      <trkpt lat="47.19964" lon="-1.5358">
        <ele>53</ele>
        <time>2021-02-27T10:44:14.000Z</time>
      </trkpt>
      <trkpt lat="47.19968" lon="-1.53564">
        <ele>53</ele>
        <time>2021-02-27T10:44:16.000Z</time>
      </trkpt>
      <trkpt lat="47.19974" lon="-1.53548">
        <ele>52</ele>
        <time>2021-02-27T10:44:18.000Z</time>
      </trkpt>
      <trkpt lat="47.19978" lon="-1.53532">
        <ele>53</ele>
        <time>2021-02-27T10:44:20.000Z</time>
      </trkpt>
      <trkpt lat="47.19983" lon="-1.53516">
        <ele>53</ele>
        <time>2021-02-27T10:44:22.000Z</time>
      </trkpt>
      <trkpt lat="47.19985" lon="-1.53501">
        <ele>54</ele>
        <time>2021-02-27T10:44:24.000Z</time>
      </trkpt>
      <trkpt lat="47.19984" lon="-1.53487">
        <ele>54</ele>
        <time>2021-02-27T10:44:26.000Z</time>
      </trkpt>
      <trkpt lat="47.19987" lon="-1.53473">
        <ele>54</ele>
        <time>2021-02-27T10:44:28.000Z</time>
      </trkpt>
      <trkpt lat="47.2" lon="-1.53468">
        <ele>53</ele>
        <time>2021-02-27T10:44:30.000Z</time>
      </trkpt>
      <trkpt lat="47.20012" lon="-1.53469">
        <ele>54</ele>
        <time>2021-02-27T10:44:32.000Z</time>
      </trkpt>
      <trkpt lat="47.20021" lon="-1.5346">
        <ele>54</ele>
        <time>2021-02-27T10:44:34.000Z</time>
      </trkpt>
      <trkpt lat="47.20027" lon="-1.53447">
        <ele>54</ele>
        <time>2021-02-27T10:44:36.000Z</time>
      </trkpt>
      <trkpt lat="47.20033" lon="-1.53432">
        <ele>53</ele>
        <time>2021-02-27T10:44:38.000Z</time>
      </trkpt>
      <trkpt lat="47.20038" lon="-1.53417">
        <ele>53</ele>
        <time>2021-02-27T10:44:40.000Z</time>
      </trkpt>
      <trkpt lat="47.20044" lon="-1.53402">
        <ele>53</ele>
        <time>2021-02-27T10:44:42.000Z</time>
      </trkpt>
      <trkpt lat="47.20051" lon="-1.53387">
        <ele>53</ele>
        <time>2021-02-27T10:44:44.000Z</time>
      </trkpt>
      <trkpt lat="47.2006" lon="-1.5337">
        <ele>53</ele>
        <time>2021-02-27T10:44:46.000Z</time>
      </trkpt>
      <trkpt lat="47.20069" lon="-1.53357">
        <ele>52</ele>
        <time>2021-02-27T10:44:48.000Z</time>
      </trkpt>
      <trkpt lat="47.20078" lon="-1.53346">
        <ele>51</ele>
        <time>2021-02-27T10:44:50.000Z</time>
      </trkpt>
      <trkpt lat="47.20085" lon="-1.5333">
        <ele>51</ele>
        <time>2021-02-27T10:44:52.000Z</time>
      </trkpt>
      <trkpt lat="47.20092" lon="-1.53314">
        <ele>52</ele>
        <time>2021-02-27T10:44:54.000Z</time>
      </trkpt>
      <trkpt lat="47.20098" lon="-1.53297">
        <ele>52</ele>
        <time>2021-02-27T10:44:56.000Z</time>
      </trkpt>
      <trkpt lat="47.20104" lon="-1.5328">
        <ele>52</ele>
        <time>2021-02-27T10:44:58.000Z</time>
      </trkpt>
      <trkpt lat="47.20108" lon="-1.53263">
        <ele>53</ele>
        <time>2021-02-27T10:45:00.000Z</time>
      </trkpt>
      <trkpt lat="47.20113" lon="-1.53245">
        <ele>53</ele>
        <time>2021-02-27T10:45:02.000Z</time>
      </trkpt>
      <trkpt lat="47.20117" lon="-1.53229">
        <ele>53</ele>
        <time>2021-02-27T10:45:04.000Z</time>
      </trkpt>
      <trkpt lat="47.20121" lon="-1.53212">
        <ele>53</ele>
        <time>2021-02-27T10:45:06.000Z</time>
      </trkpt>
      <trkpt lat="47.20125" lon="-1.53195">
        <ele>54</ele>
        <time>2021-02-27T10:45:08.000Z</time>
      </trkpt>
      <trkpt lat="47.20129" lon="-1.53179">
        <ele>54</ele>
        <time>2021-02-27T10:45:10.000Z</time>
      </trkpt>
      <trkpt lat="47.20134" lon="-1.53163">
        <ele>54</ele>
        <time>2021-02-27T10:45:12.000Z</time>
      </trkpt>
      <trkpt lat="47.20139" lon="-1.53147">
        <ele>55</ele>
        <time>2021-02-27T10:45:14.000Z</time>
      </trkpt>
      <trkpt lat="47.20145" lon="-1.53133">
        <ele>54</ele>
        <time>2021-02-27T10:45:16.000Z</time>
      </trkpt>
      <trkpt lat="47.20152" lon="-1.53118">
        <ele>55</ele>
        <time>2021-02-27T10:45:18.000Z</time>
      </trkpt>
      <trkpt lat="47.20158" lon="-1.53104">
        <ele>54</ele>
        <time>2021-02-27T10:45:20.000Z</time>
      </trkpt>
      <trkpt lat="47.20165" lon="-1.5309">
        <ele>54</ele>
        <time>2021-02-27T10:45:22.000Z</time>
      </trkpt>
      <trkpt lat="47.20172" lon="-1.53077">
        <ele>54</ele>
        <time>2021-02-27T10:45:24.000Z</time>
      </trkpt>
      <trkpt lat="47.2018" lon="-1.53064">
        <ele>54</ele>
        <time>2021-02-27T10:45:26.000Z</time>
      </trkpt>
      <trkpt lat="47.20188" lon="-1.53051">
        <ele>54</ele>
        <time>2021-02-27T10:45:28.000Z</time>
      </trkpt>
      <trkpt lat="47.20197" lon="-1.53041">
        <ele>54</ele>
        <time>2021-02-27T10:45:30.000Z</time>
      </trkpt>
      <trkpt lat="47.20206" lon="-1.53031">
        <ele>55</ele>
        <time>2021-02-27T10:45:32.000Z</time>
      </trkpt>
      <trkpt lat="47.20215" lon="-1.53021">
        <ele>55</ele>
        <time>2021-02-27T10:45:34.000Z</time>
      </trkpt>
      <trkpt lat="47.20224" lon="-1.5301">
        <ele>55</ele>
        <time>2021-02-27T10:45:36.000Z</time>
      </trkpt>
      <trkpt lat="47.20232" lon="-1.52999">
        <ele>56</ele>
        <time>2021-02-27T10:45:38.000Z</time>
      </trkpt>
      <trkpt lat="47.20239" lon="-1.52986">
        <ele>55</ele>
        <time>2021-02-27T10:45:40.000Z</time>
      </trkpt>
      <trkpt lat="47.20245" lon="-1.52972">
        <ele>55</ele>
        <time>2021-02-27T10:45:42.000Z</time>
      </trkpt>
      <trkpt lat="47.20252" lon="-1.52959">
        <ele>55</ele>
        <time>2021-02-27T10:45:44.000Z</time>
      </trkpt>
      <trkpt lat="47.20259" lon="-1.52947">
        <ele>55</ele>
        <time>2021-02-27T10:45:46.000Z</time>
      </trkpt>
      <trkpt lat="47.20267" lon="-1.52934">
        <ele>54</ele>
        <time>2021-02-27T10:45:48.000Z</time>
      </trkpt>
      <trkpt lat="47.20274" lon="-1.5292">
        <ele>54</ele>
        <time>2021-02-27T10:45:50.000Z</time>
      </trkpt>
      <trkpt lat="47.20281" lon="-1.52905">
        <ele>54</ele>
        <time>2021-02-27T10:45:52.000Z</time>
      </trkpt>
      <trkpt lat="47.20287" lon="-1.5289">
        <ele>54</ele>
        <time>2021-02-27T10:45:54.000Z</time>
      </trkpt>
      <trkpt lat="47.20293" lon="-1.52874">
        <ele>54</ele>
        <time>2021-02-27T10:45:56.000Z</time>
      </trkpt>
      <trkpt lat="47.20299" lon="-1.52859">
        <ele>54</ele>
        <time>2021-02-27T10:45:58.000Z</time>
      </trkpt>
      <trkpt lat="47.20305" lon="-1.52844">
        <ele>54</ele>
        <time>2021-02-27T10:46:00.000Z</time>
      </trkpt>
      <trkpt lat="47.20312" lon="-1.52831">
        <ele>54</ele>
        <time>2021-02-27T10:46:02.000Z</time>
      </trkpt>
      <trkpt lat="47.20319" lon="-1.52817">
        <ele>55</ele>
        <time>2021-02-27T10:46:04.000Z</time>
      </trkpt>
      <trkpt lat="47.20325" lon="-1.52802">
        <ele>55</ele>
        <time>2021-02-27T10:46:06.000Z</time>
      </trkpt>
      <trkpt lat="47.20332" lon="-1.52788">
        <ele>55</ele>
        <time>2021-02-27T10:46:08.000Z</time>
      </trkpt>
      <trkpt lat="47.20339" lon="-1.52775">
        <ele>55</ele>
        <time>2021-02-27T10:46:10.000Z</time>
      </trkpt>
      <trkpt lat="47.20346" lon="-1.52761">
        <ele>55</ele>
        <time>2021-02-27T10:46:12.000Z</time>
      </trkpt>
      <trkpt lat="47.20353" lon="-1.52746">
        <ele>54</ele>
        <time>2021-02-27T10:46:14.000Z</time>
      </trkpt>
      <trkpt lat="47.2036" lon="-1.52732">
        <ele>54</ele>
        <time>2021-02-27T10:46:16.000Z</time>
      </trkpt>
      <trkpt lat="47.20367" lon="-1.52719">
        <ele>54</ele>
        <time>2021-02-27T10:46:18.000Z</time>
      </trkpt>
      <trkpt lat="47.20374" lon="-1.52706">
        <ele>54</ele>
        <time>2021-02-27T10:46:20.000Z</time>
      </trkpt>
      <trkpt lat="47.20381" lon="-1.52693">
        <ele>54</ele>
        <time>2021-02-27T10:46:22.000Z</time>
      </trkpt>
      <trkpt lat="47.20388" lon="-1.52679">
        <ele>54</ele>
        <time>2021-02-27T10:46:24.000Z</time>
      </trkpt>
      <trkpt lat="47.20394" lon="-1.52664">
        <ele>55</ele>
        <time>2021-02-27T10:46:26.000Z</time>
      </trkpt>
      <trkpt lat="47.204" lon="-1.5265">
        <ele>55</ele>
        <time>2021-02-27T10:46:28.000Z</time>
      </trkpt>
      <trkpt lat="47.20406" lon="-1.52636">
        <ele>55</ele>
        <time>2021-02-27T10:46:30.000Z</time>
      </trkpt>
      <trkpt lat="47.20412" lon="-1.52621">
        <ele>55</ele>
        <time>2021-02-27T10:46:32.000Z</time>
      </trkpt>
      <trkpt lat="47.20417" lon="-1.52606">
        <ele>54</ele>
        <time>2021-02-27T10:46:34.000Z</time>
      </trkpt>
      <trkpt lat="47.20421" lon="-1.5259">
        <ele>54</ele>
        <time>2021-02-27T10:46:36.000Z</time>
      </trkpt>
      <trkpt lat="47.20425" lon="-1.52574">
        <ele>54</ele>
        <time>2021-02-27T10:46:38.000Z</time>
      </trkpt>
      <trkpt lat="47.2043" lon="-1.52559">
        <ele>54</ele>
        <time>2021-02-27T10:46:40.000Z</time>
      </trkpt>
      <trkpt lat="47.20435" lon="-1.52544">
        <ele>54</ele>
        <time>2021-02-27T10:46:42.000Z</time>
      </trkpt>
      <trkpt lat="47.2044" lon="-1.52529">
        <ele>54</ele>
        <time>2021-02-27T10:46:44.000Z</time>
      </trkpt>
      <trkpt lat="47.20446" lon="-1.52515">
        <ele>53</ele>
        <time>2021-02-27T10:46:46.000Z</time>
      </trkpt>
      <trkpt lat="47.20452" lon="-1.525">
        <ele>53</ele>
        <time>2021-02-27T10:46:48.000Z</time>
      </trkpt>
      <trkpt lat="47.20457" lon="-1.52485">
        <ele>54</ele>
        <time>2021-02-27T10:46:50.000Z</time>
      </trkpt>
      <trkpt lat="47.20461" lon="-1.52471">
        <ele>53</ele>
        <time>2021-02-27T10:46:52.000Z</time>
      </trkpt>
      <trkpt lat="47.20466" lon="-1.52457">
        <ele>53</ele>
        <time>2021-02-27T10:46:54.000Z</time>
      </trkpt>
      <trkpt lat="47.20474" lon="-1.52444">
        <ele>53</ele>
        <time>2021-02-27T10:46:56.000Z</time>
      </trkpt>
      <trkpt lat="47.20479" lon="-1.52429">
        <ele>52</ele>
        <time>2021-02-27T10:46:58.000Z</time>
      </trkpt>
      <trkpt lat="47.20485" lon="-1.52412">
        <ele>51</ele>
        <time>2021-02-27T10:47:00.000Z</time>
      </trkpt>
      <trkpt lat="47.20492" lon="-1.52395">
        <ele>51</ele>
        <time>2021-02-27T10:47:02.000Z</time>
      </trkpt>
      <trkpt lat="47.20498" lon="-1.52378">
        <ele>52</ele>
        <time>2021-02-27T10:47:04.000Z</time>
      </trkpt>
      <trkpt lat="47.20501" lon="-1.52363">
        <ele>52</ele>
        <time>2021-02-27T10:47:06.000Z</time>
      </trkpt>
      <trkpt lat="47.20505" lon="-1.52346">
        <ele>52</ele>
        <time>2021-02-27T10:47:08.000Z</time>
      </trkpt>
      <trkpt lat="47.20512" lon="-1.52329">
        <ele>53</ele>
        <time>2021-02-27T10:47:10.000Z</time>
      </trkpt>
      <trkpt lat="47.20516" lon="-1.52315">
        <ele>53</ele>
        <time>2021-02-27T10:47:12.000Z</time>
      </trkpt>
      <trkpt lat="47.2052" lon="-1.52301">
        <ele>53</ele>
        <time>2021-02-27T10:47:14.000Z</time>
      </trkpt>
      <trkpt lat="47.2052" lon="-1.52286">
        <ele>53</ele>
        <time>2021-02-27T10:47:16.000Z</time>
      </trkpt>
      <trkpt lat="47.20526" lon="-1.5227">
        <ele>53</ele>
        <time>2021-02-27T10:47:18.000Z</time>
      </trkpt>
      <trkpt lat="47.20534" lon="-1.52255">
        <ele>53</ele>
        <time>2021-02-27T10:47:20.000Z</time>
      </trkpt>
      <trkpt lat="47.20541" lon="-1.52241">
        <ele>53</ele>
        <time>2021-02-27T10:47:22.000Z</time>
      </trkpt>
      <trkpt lat="47.20548" lon="-1.52227">
        <ele>53</ele>
        <time>2021-02-27T10:47:24.000Z</time>
      </trkpt>
      <trkpt lat="47.20555" lon="-1.52214">
        <ele>53</ele>
        <time>2021-02-27T10:47:26.000Z</time>
      </trkpt>
      <trkpt lat="47.20562" lon="-1.522">
        <ele>53</ele>
        <time>2021-02-27T10:47:28.000Z</time>
      </trkpt>
      <trkpt lat="47.20569" lon="-1.52186">
        <ele>53</ele>
        <time>2021-02-27T10:47:30.000Z</time>
      </trkpt>
      <trkpt lat="47.20576" lon="-1.52172">
        <ele>53</ele>
        <time>2021-02-27T10:47:32.000Z</time>
      </trkpt>
      <trkpt lat="47.20584" lon="-1.5216">
        <ele>53</ele>
        <time>2021-02-27T10:47:34.000Z</time>
      </trkpt>
      <trkpt lat="47.20591" lon="-1.52146">
        <ele>53</ele>
        <time>2021-02-27T10:47:36.000Z</time>
      </trkpt>
      <trkpt lat="47.20598" lon="-1.52132">
        <ele>54</ele>
        <time>2021-02-27T10:47:38.000Z</time>
      </trkpt>
      <trkpt lat="47.20606" lon="-1.52118">
        <ele>53</ele>
        <time>2021-02-27T10:47:40.000Z</time>
      </trkpt>
      <trkpt lat="47.20613" lon="-1.52105">
        <ele>53</ele>
        <time>2021-02-27T10:47:42.000Z</time>
      </trkpt>
      <trkpt lat="47.20621" lon="-1.52091">
        <ele>53</ele>
        <time>2021-02-27T10:47:44.000Z</time>
      </trkpt>
      <trkpt lat="47.20629" lon="-1.52079">
        <ele>53</ele>
        <time>2021-02-27T10:47:46.000Z</time>
      </trkpt>
      <trkpt lat="47.20636" lon="-1.52066">
        <ele>53</ele>
        <time>2021-02-27T10:47:48.000Z</time>
      </trkpt>
      <trkpt lat="47.20644" lon="-1.52054">
        <ele>53</ele>
        <time>2021-02-27T10:47:50.000Z</time>
      </trkpt>
      <trkpt lat="47.20652" lon="-1.52042">
        <ele>53</ele>
        <time>2021-02-27T10:47:52.000Z</time>
      </trkpt>
      <trkpt lat="47.2066" lon="-1.52029">
        <ele>53</ele>
        <time>2021-02-27T10:47:54.000Z</time>
      </trkpt>
      <trkpt lat="47.20667" lon="-1.52015">
        <ele>53</ele>
        <time>2021-02-27T10:47:56.000Z</time>
      </trkpt>
      <trkpt lat="47.20674" lon="-1.52003">
        <ele>53</ele>
        <time>2021-02-27T10:47:58.000Z</time>
      </trkpt>
      <trkpt lat="47.20681" lon="-1.5199">
        <ele>53</ele>
        <time>2021-02-27T10:48:00.000Z</time>
      </trkpt>
      <trkpt lat="47.20688" lon="-1.51978">
        <ele>53</ele>
        <time>2021-02-27T10:48:02.000Z</time>
      </trkpt>
      <trkpt lat="47.20695" lon="-1.51967">
        <ele>53</ele>
        <time>2021-02-27T10:48:04.000Z</time>
      </trkpt>
      <trkpt lat="47.20701" lon="-1.51957">
        <ele>53</ele>
        <time>2021-02-27T10:48:06.000Z</time>
      </trkpt>
      <trkpt lat="47.2071" lon="-1.51942">
        <ele>53</ele>
        <time>2021-02-27T10:48:09.000Z</time>
      </trkpt>
      <trkpt lat="47.20717" lon="-1.5193">
        <ele>53</ele>
        <time>2021-02-27T10:48:11.000Z</time>
      </trkpt>
      <trkpt lat="47.20724" lon="-1.51912">
        <ele>54</ele>
        <time>2021-02-27T10:48:13.000Z</time>
      </trkpt>
      <trkpt lat="47.2073" lon="-1.51894">
        <ele>54</ele>
        <time>2021-02-27T10:48:15.000Z</time>
      </trkpt>
      <trkpt lat="47.20737" lon="-1.51877">
        <ele>54</ele>
        <time>2021-02-27T10:48:17.000Z</time>
      </trkpt>
      <trkpt lat="47.20744" lon="-1.51861">
        <ele>54</ele>
        <time>2021-02-27T10:48:19.000Z</time>
      </trkpt>
      <trkpt lat="47.20751" lon="-1.51845">
        <ele>54</ele>
        <time>2021-02-27T10:48:21.000Z</time>
      </trkpt>
      <trkpt lat="47.20758" lon="-1.51829">
        <ele>54</ele>
        <time>2021-02-27T10:48:23.000Z</time>
      </trkpt>
      <trkpt lat="47.20762" lon="-1.5181">
        <ele>54</ele>
        <time>2021-02-27T10:48:25.000Z</time>
      </trkpt>
      <trkpt lat="47.20766" lon="-1.51792">
        <ele>53</ele>
        <time>2021-02-27T10:48:27.000Z</time>
      </trkpt>
      <trkpt lat="47.2077" lon="-1.51773">
        <ele>53</ele>
        <time>2021-02-27T10:48:29.000Z</time>
      </trkpt>
      <trkpt lat="47.20773" lon="-1.51755">
        <ele>53</ele>
        <time>2021-02-27T10:48:31.000Z</time>
      </trkpt>
      <trkpt lat="47.20778" lon="-1.51737">
        <ele>53</ele>
        <time>2021-02-27T10:48:33.000Z</time>
      </trkpt>
      <trkpt lat="47.20783" lon="-1.51721">
        <ele>54</ele>
        <time>2021-02-27T10:48:35.000Z</time>
      </trkpt>
      <trkpt lat="47.20787" lon="-1.51703">
        <ele>54</ele>
        <time>2021-02-27T10:48:37.000Z</time>
      </trkpt>
      <trkpt lat="47.20789" lon="-1.51686">
        <ele>54</ele>
        <time>2021-02-27T10:48:39.000Z</time>
      </trkpt>
      <trkpt lat="47.20792" lon="-1.51668">
        <ele>54</ele>
        <time>2021-02-27T10:48:41.000Z</time>
      </trkpt>
      <trkpt lat="47.20794" lon="-1.51652">
        <ele>54</ele>
        <time>2021-02-27T10:48:43.000Z</time>
      </trkpt>
      <trkpt lat="47.20798" lon="-1.51634">
        <ele>53</ele>
        <time>2021-02-27T10:48:45.000Z</time>
      </trkpt>
      <trkpt lat="47.20802" lon="-1.51617">
        <ele>53</ele>
        <time>2021-02-27T10:48:47.000Z</time>
      </trkpt>
      <trkpt lat="47.20804" lon="-1.516">
        <ele>53</ele>
        <time>2021-02-27T10:48:49.000Z</time>
      </trkpt>
      <trkpt lat="47.20806" lon="-1.51581">
        <ele>53</ele>
        <time>2021-02-27T10:48:51.000Z</time>
      </trkpt>
      <trkpt lat="47.20807" lon="-1.51563">
        <ele>53</ele>
        <time>2021-02-27T10:48:53.000Z</time>
      </trkpt>
      <trkpt lat="47.20809" lon="-1.51545">
        <ele>53</ele>
        <time>2021-02-27T10:48:55.000Z</time>
      </trkpt>
      <trkpt lat="47.20812" lon="-1.51527">
        <ele>53</ele>
        <time>2021-02-27T10:48:57.000Z</time>
      </trkpt>
      <trkpt lat="47.20815" lon="-1.51509">
        <ele>53</ele>
        <time>2021-02-27T10:48:59.000Z</time>
      </trkpt>
      <trkpt lat="47.20818" lon="-1.5149">
        <ele>53</ele>
        <time>2021-02-27T10:49:01.000Z</time>
      </trkpt>
      <trkpt lat="47.20822" lon="-1.51472">
        <ele>53</ele>
        <time>2021-02-27T10:49:03.000Z</time>
      </trkpt>
      <trkpt lat="47.20825" lon="-1.51455">
        <ele>53</ele>
        <time>2021-02-27T10:49:05.000Z</time>
      </trkpt>
      <trkpt lat="47.20827" lon="-1.51437">
        <ele>53</ele>
        <time>2021-02-27T10:49:07.000Z</time>
      </trkpt>
      <trkpt lat="47.2083" lon="-1.51419">
        <ele>53</ele>
        <time>2021-02-27T10:49:09.000Z</time>
      </trkpt>
      <trkpt lat="47.20833" lon="-1.51401">
        <ele>53</ele>
        <time>2021-02-27T10:49:11.000Z</time>
      </trkpt>
      <trkpt lat="47.20838" lon="-1.51384">
        <ele>53</ele>
        <time>2021-02-27T10:49:13.000Z</time>
      </trkpt>
      <trkpt lat="47.20843" lon="-1.51367">
        <ele>53</ele>
        <time>2021-02-27T10:49:15.000Z</time>
      </trkpt>
      <trkpt lat="47.20847" lon="-1.5135">
        <ele>52</ele>
        <time>2021-02-27T10:49:17.000Z</time>
      </trkpt>
      <trkpt lat="47.20853" lon="-1.51332">
        <ele>52</ele>
        <time>2021-02-27T10:49:19.000Z</time>
      </trkpt>
      <trkpt lat="47.20859" lon="-1.51315">
        <ele>52</ele>
        <time>2021-02-27T10:49:21.000Z</time>
      </trkpt>
      <trkpt lat="47.20867" lon="-1.51299">
        <ele>51</ele>
        <time>2021-02-27T10:49:23.000Z</time>
      </trkpt>
      <trkpt lat="47.20875" lon="-1.51283">
        <ele>52</ele>
        <time>2021-02-27T10:49:25.000Z</time>
      </trkpt>
      <trkpt lat="47.20882" lon="-1.51268">
        <ele>52</ele>
        <time>2021-02-27T10:49:27.000Z</time>
      </trkpt>
      <trkpt lat="47.20888" lon="-1.51252">
        <ele>52</ele>
        <time>2021-02-27T10:49:29.000Z</time>
      </trkpt>
      <trkpt lat="47.20894" lon="-1.51235">
        <ele>52</ele>
        <time>2021-02-27T10:49:31.000Z</time>
      </trkpt>
      <trkpt lat="47.209" lon="-1.51218">
        <ele>52</ele>
        <time>2021-02-27T10:49:33.000Z</time>
      </trkpt>
      <trkpt lat="47.20906" lon="-1.51201">
        <ele>52</ele>
        <time>2021-02-27T10:49:35.000Z</time>
      </trkpt>
      <trkpt lat="47.20911" lon="-1.51185">
        <ele>52</ele>
        <time>2021-02-27T10:49:37.000Z</time>
      </trkpt>
      <trkpt lat="47.20917" lon="-1.51169">
        <ele>53</ele>
        <time>2021-02-27T10:49:39.000Z</time>
      </trkpt>
      <trkpt lat="47.20923" lon="-1.51152">
        <ele>52</ele>
        <time>2021-02-27T10:49:41.000Z</time>
      </trkpt>
      <trkpt lat="47.20929" lon="-1.51136">
        <ele>52</ele>
        <time>2021-02-27T10:49:43.000Z</time>
      </trkpt>
      <trkpt lat="47.20934" lon="-1.51119">
        <ele>52</ele>
        <time>2021-02-27T10:49:45.000Z</time>
      </trkpt>
      <trkpt lat="47.20939" lon="-1.51102">
        <ele>53</ele>
        <time>2021-02-27T10:49:47.000Z</time>
      </trkpt>
      <trkpt lat="47.20943" lon="-1.51085">
        <ele>53</ele>
        <time>2021-02-27T10:49:49.000Z</time>
      </trkpt>
      <trkpt lat="47.20947" lon="-1.51068">
        <ele>53</ele>
        <time>2021-02-27T10:49:51.000Z</time>
      </trkpt>
      <trkpt lat="47.20948" lon="-1.5105">
        <ele>54</ele>
        <time>2021-02-27T10:49:53.000Z</time>
      </trkpt>
      <trkpt lat="47.20951" lon="-1.51033">
        <ele>54</ele>
        <time>2021-02-27T10:49:55.000Z</time>
      </trkpt>
      <trkpt lat="47.20955" lon="-1.51016">
        <ele>54</ele>
        <time>2021-02-27T10:49:57.000Z</time>
      </trkpt>
      <trkpt lat="47.20962" lon="-1.51001">
        <ele>54</ele>
        <time>2021-02-27T10:49:59.000Z</time>
      </trkpt>
      <trkpt lat="47.20965" lon="-1.50984">
        <ele>53</ele>
        <time>2021-02-27T10:50:01.000Z</time>
      </trkpt>
      <trkpt lat="47.20966" lon="-1.50965">
        <ele>53</ele>
        <time>2021-02-27T10:50:03.000Z</time>
      </trkpt>
      <trkpt lat="47.20968" lon="-1.50946">
        <ele>52</ele>
        <time>2021-02-27T10:50:05.000Z</time>
      </trkpt>
      <trkpt lat="47.20971" lon="-1.50927">
        <ele>52</ele>
        <time>2021-02-27T10:50:07.000Z</time>
      </trkpt>
      <trkpt lat="47.20974" lon="-1.50908">
        <ele>52</ele>
        <time>2021-02-27T10:50:09.000Z</time>
      </trkpt>
      <trkpt lat="47.20975" lon="-1.50888">
        <ele>52</ele>
        <time>2021-02-27T10:50:11.000Z</time>
      </trkpt>
      <trkpt lat="47.20978" lon="-1.50869">
        <ele>51</ele>
        <time>2021-02-27T10:50:13.000Z</time>
      </trkpt>
      <trkpt lat="47.2098" lon="-1.5085">
        <ele>51</ele>
        <time>2021-02-27T10:50:15.000Z</time>
      </trkpt>
      <trkpt lat="47.20982" lon="-1.5083">
        <ele>52</ele>
        <time>2021-02-27T10:50:17.000Z</time>
      </trkpt>
      <trkpt lat="47.20984" lon="-1.5081">
        <ele>52</ele>
        <time>2021-02-27T10:50:19.000Z</time>
      </trkpt>
      <trkpt lat="47.20986" lon="-1.50791">
        <ele>52</ele>
        <time>2021-02-27T10:50:21.000Z</time>
      </trkpt>
      <trkpt lat="47.20989" lon="-1.50772">
        <ele>52</ele>
        <time>2021-02-27T10:50:23.000Z</time>
      </trkpt>
      <trkpt lat="47.2099" lon="-1.50753">
        <ele>52</ele>
        <time>2021-02-27T10:50:25.000Z</time>
      </trkpt>
      <trkpt lat="47.20992" lon="-1.50735">
        <ele>52</ele>
        <time>2021-02-27T10:50:27.000Z</time>
      </trkpt>
      <trkpt lat="47.20994" lon="-1.50717">
        <ele>52</ele>
        <time>2021-02-27T10:50:29.000Z</time>
      </trkpt>
      <trkpt lat="47.20996" lon="-1.50699">
        <ele>52</ele>
        <time>2021-02-27T10:50:31.000Z</time>
      </trkpt>
      <trkpt lat="47.20997" lon="-1.50681">
        <ele>52</ele>
        <time>2021-02-27T10:50:33.000Z</time>
      </trkpt>
      <trkpt lat="47.20999" lon="-1.50664">
        <ele>52</ele>
        <time>2021-02-27T10:50:35.000Z</time>
      </trkpt>
      <trkpt lat="47.21" lon="-1.50646">
        <ele>53</ele>
        <time>2021-02-27T10:50:37.000Z</time>
      </trkpt>
      <trkpt lat="47.21001" lon="-1.50627">
        <ele>53</ele>
        <time>2021-02-27T10:50:39.000Z</time>
      </trkpt>
      <trkpt lat="47.21001" lon="-1.5061">
        <ele>53</ele>
        <time>2021-02-27T10:50:41.000Z</time>
      </trkpt>
      <trkpt lat="47.21002" lon="-1.50592">
        <ele>53</ele>
        <time>2021-02-27T10:50:43.000Z</time>
      </trkpt>
      <trkpt lat="47.21002" lon="-1.50574">
        <ele>52</ele>
        <time>2021-02-27T10:50:45.000Z</time>
      </trkpt>
      <trkpt lat="47.21002" lon="-1.50556">
        <ele>52</ele>
        <time>2021-02-27T10:50:47.000Z</time>
      </trkpt>
      <trkpt lat="47.21002" lon="-1.50538">
        <ele>52</ele>
        <time>2021-02-27T10:50:49.000Z</time>
      </trkpt>
      <trkpt lat="47.21001" lon="-1.50521">
        <ele>53</ele>
        <time>2021-02-27T10:50:51.000Z</time>
      </trkpt>
      <trkpt lat="47.21001" lon="-1.50503">
        <ele>53</ele>
        <time>2021-02-27T10:50:53.000Z</time>
      </trkpt>
      <trkpt lat="47.21001" lon="-1.50485">
        <ele>53</ele>
        <time>2021-02-27T10:50:55.000Z</time>
      </trkpt>
      <trkpt lat="47.21001" lon="-1.50466">
        <ele>54</ele>
        <time>2021-02-27T10:50:57.000Z</time>
      </trkpt>
      <trkpt lat="47.21" lon="-1.50448">
        <ele>54</ele>
        <time>2021-02-27T10:50:59.000Z</time>
      </trkpt>
      <trkpt lat="47.21" lon="-1.5043">
        <ele>54</ele>
        <time>2021-02-27T10:51:01.000Z</time>
      </trkpt>
      <trkpt lat="47.20999" lon="-1.50411">
        <ele>53</ele>
        <time>2021-02-27T10:51:03.000Z</time>
      </trkpt>
      <trkpt lat="47.20999" lon="-1.50392">
        <ele>53</ele>
        <time>2021-02-27T10:51:05.000Z</time>
      </trkpt>
      <trkpt lat="47.20998" lon="-1.50373">
        <ele>53</ele>
        <time>2021-02-27T10:51:07.000Z</time>
      </trkpt>
      <trkpt lat="47.20998" lon="-1.50354">
        <ele>53</ele>
        <time>2021-02-27T10:51:09.000Z</time>
      </trkpt>
      <trkpt lat="47.20998" lon="-1.50335">
        <ele>53</ele>
        <time>2021-02-27T10:51:11.000Z</time>
      </trkpt>
      <trkpt lat="47.20999" lon="-1.50316">
        <ele>53</ele>
        <time>2021-02-27T10:51:13.000Z</time>
      </trkpt>
      <trkpt lat="47.21" lon="-1.50298">
        <ele>53</ele>
        <time>2021-02-27T10:51:15.000Z</time>
      </trkpt>
      <trkpt lat="47.21002" lon="-1.50279">
        <ele>53</ele>
        <time>2021-02-27T10:51:17.000Z</time>
      </trkpt>
      <trkpt lat="47.21004" lon="-1.50261">
        <ele>53</ele>
        <time>2021-02-27T10:51:19.000Z</time>
      </trkpt>
      <trkpt lat="47.21011" lon="-1.50247">
        <ele>53</ele>
        <time>2021-02-27T10:51:21.000Z</time>
      </trkpt>
      <trkpt lat="47.21017" lon="-1.50232">
        <ele>53</ele>
        <time>2021-02-27T10:51:23.000Z</time>
      </trkpt>
      <trkpt lat="47.21014" lon="-1.50216">
        <ele>53</ele>
        <time>2021-02-27T10:51:25.000Z</time>
      </trkpt>
      <trkpt lat="47.21011" lon="-1.50199">
        <ele>53</ele>
        <time>2021-02-27T10:51:27.000Z</time>
      </trkpt>
      <trkpt lat="47.21016" lon="-1.5018">
        <ele>52</ele>
        <time>2021-02-27T10:51:29.000Z</time>
      </trkpt>
      <trkpt lat="47.2102" lon="-1.50161">
        <ele>52</ele>
        <time>2021-02-27T10:51:31.000Z</time>
      </trkpt>
      <trkpt lat="47.21024" lon="-1.50143">
        <ele>53</ele>
        <time>2021-02-27T10:51:33.000Z</time>
      </trkpt>
      <trkpt lat="47.21028" lon="-1.50125">
        <ele>53</ele>
        <time>2021-02-27T10:51:35.000Z</time>
      </trkpt>
      <trkpt lat="47.21032" lon="-1.50108">
        <ele>53</ele>
        <time>2021-02-27T10:51:37.000Z</time>
      </trkpt>
      <trkpt lat="47.21037" lon="-1.50091">
        <ele>53</ele>
        <time>2021-02-27T10:51:39.000Z</time>
      </trkpt>
      <trkpt lat="47.21041" lon="-1.50074">
        <ele>53</ele>
        <time>2021-02-27T10:51:41.000Z</time>
      </trkpt>
      <trkpt lat="47.21045" lon="-1.50057">
        <ele>53</ele>
        <time>2021-02-27T10:51:43.000Z</time>
      </trkpt>
      <trkpt lat="47.2105" lon="-1.50039">
        <ele>53</ele>
        <time>2021-02-27T10:51:45.000Z</time>
      </trkpt>
      <trkpt lat="47.21054" lon="-1.50022">
        <ele>53</ele>
        <time>2021-02-27T10:51:47.000Z</time>
      </trkpt>
      <trkpt lat="47.21059" lon="-1.50005">
        <ele>53</ele>
        <time>2021-02-27T10:51:49.000Z</time>
      </trkpt>
      <trkpt lat="47.21063" lon="-1.49988">
        <ele>53</ele>
        <time>2021-02-27T10:51:51.000Z</time>
      </trkpt>
      <trkpt lat="47.21068" lon="-1.4997">
        <ele>53</ele>
        <time>2021-02-27T10:51:53.000Z</time>
      </trkpt>
      <trkpt lat="47.21072" lon="-1.49953">
        <ele>53</ele>
        <time>2021-02-27T10:51:55.000Z</time>
      </trkpt>
      <trkpt lat="47.21076" lon="-1.49936">
        <ele>53</ele>
        <time>2021-02-27T10:51:57.000Z</time>
      </trkpt>
      <trkpt lat="47.21081" lon="-1.49918">
        <ele>53</ele>
        <time>2021-02-27T10:51:59.000Z</time>
      </trkpt>
      <trkpt lat="47.21086" lon="-1.49901">
        <ele>53</ele>
        <time>2021-02-27T10:52:01.000Z</time>
      </trkpt>
      <trkpt lat="47.21092" lon="-1.49885">
        <ele>53</ele>
        <time>2021-02-27T10:52:03.000Z</time>
      </trkpt>
      <trkpt lat="47.21096" lon="-1.49868">
        <ele>53</ele>
        <time>2021-02-27T10:52:05.000Z</time>
      </trkpt>
      <trkpt lat="47.21098" lon="-1.4985">
        <ele>54</ele>
        <time>2021-02-27T10:52:07.000Z</time>
      </trkpt>
      <trkpt lat="47.21101" lon="-1.49833">
        <ele>53</ele>
        <time>2021-02-27T10:52:09.000Z</time>
      </trkpt>
      <trkpt lat="47.21104" lon="-1.49815">
        <ele>53</ele>
        <time>2021-02-27T10:52:11.000Z</time>
      </trkpt>
      <trkpt lat="47.21107" lon="-1.49797">
        <ele>53</ele>
        <time>2021-02-27T10:52:13.000Z</time>
      </trkpt>
      <trkpt lat="47.21109" lon="-1.49779">
        <ele>53</ele>
        <time>2021-02-27T10:52:15.000Z</time>
      </trkpt>
      <trkpt lat="47.21111" lon="-1.49762">
        <ele>54</ele>
        <time>2021-02-27T10:52:17.000Z</time>
      </trkpt>
      <trkpt lat="47.21113" lon="-1.49745">
        <ele>53</ele>
        <time>2021-02-27T10:52:19.000Z</time>
      </trkpt>
      <trkpt lat="47.21113" lon="-1.49728">
        <ele>53</ele>
        <time>2021-02-27T10:52:21.000Z</time>
      </trkpt>
      <trkpt lat="47.21115" lon="-1.49711">
        <ele>53</ele>
        <time>2021-02-27T10:52:23.000Z</time>
      </trkpt>
      <trkpt lat="47.21116" lon="-1.49694">
        <ele>53</ele>
        <time>2021-02-27T10:52:25.000Z</time>
      </trkpt>
      <trkpt lat="47.21118" lon="-1.49675">
        <ele>53</ele>
        <time>2021-02-27T10:52:27.000Z</time>
      </trkpt>
      <trkpt lat="47.21119" lon="-1.49658">
        <ele>53</ele>
        <time>2021-02-27T10:52:29.000Z</time>
      </trkpt>
      <trkpt lat="47.2112" lon="-1.4964">
        <ele>53</ele>
        <time>2021-02-27T10:52:31.000Z</time>
      </trkpt>
      <trkpt lat="47.21122" lon="-1.49623">
        <ele>53</ele>
        <time>2021-02-27T10:52:33.000Z</time>
      </trkpt>
      <trkpt lat="47.21125" lon="-1.49606">
        <ele>53</ele>
        <time>2021-02-27T10:52:35.000Z</time>
      </trkpt>
      <trkpt lat="47.21133" lon="-1.49593">
        <ele>53</ele>
        <time>2021-02-27T10:52:37.000Z</time>
      </trkpt>
      <trkpt lat="47.21137" lon="-1.49576">
        <ele>53</ele>
        <time>2021-02-27T10:52:39.000Z</time>
      </trkpt>
      <trkpt lat="47.21134" lon="-1.4956">
        <ele>53</ele>
        <time>2021-02-27T10:52:41.000Z</time>
      </trkpt>
      <trkpt lat="47.21128" lon="-1.49544">
        <ele>53</ele>
        <time>2021-02-27T10:52:43.000Z</time>
      </trkpt>
      <trkpt lat="47.21125" lon="-1.49527">
        <ele>53</ele>
        <time>2021-02-27T10:52:45.000Z</time>
      </trkpt>
      <trkpt lat="47.21125" lon="-1.49509">
        <ele>53</ele>
        <time>2021-02-27T10:52:47.000Z</time>
      </trkpt>
      <trkpt lat="47.21124" lon="-1.49492">
        <ele>53</ele>
        <time>2021-02-27T10:52:49.000Z</time>
      </trkpt>
      <trkpt lat="47.21124" lon="-1.49473">
        <ele>53</ele>
        <time>2021-02-27T10:52:51.000Z</time>
      </trkpt>
      <trkpt lat="47.21125" lon="-1.49454">
        <ele>53</ele>
        <time>2021-02-27T10:52:53.000Z</time>
      </trkpt>
      <trkpt lat="47.21126" lon="-1.49436">
        <ele>53</ele>
        <time>2021-02-27T10:52:55.000Z</time>
      </trkpt>
      <trkpt lat="47.21127" lon="-1.49419">
        <ele>53</ele>
        <time>2021-02-27T10:52:57.000Z</time>
      </trkpt>
      <trkpt lat="47.21128" lon="-1.494">
        <ele>53</ele>
        <time>2021-02-27T10:52:59.000Z</time>
      </trkpt>
      <trkpt lat="47.21129" lon="-1.49382">
        <ele>53</ele>
        <time>2021-02-27T10:53:01.000Z</time>
      </trkpt>
      <trkpt lat="47.2113" lon="-1.49364">
        <ele>52</ele>
        <time>2021-02-27T10:53:03.000Z</time>
      </trkpt>
      <trkpt lat="47.21131" lon="-1.49346">
        <ele>52</ele>
        <time>2021-02-27T10:53:05.000Z</time>
      </trkpt>
      <trkpt lat="47.21131" lon="-1.49327">
        <ele>52</ele>
        <time>2021-02-27T10:53:07.000Z</time>
      </trkpt>
      <trkpt lat="47.21132" lon="-1.49309">
        <ele>52</ele>
        <time>2021-02-27T10:53:09.000Z</time>
      </trkpt>
      <trkpt lat="47.21133" lon="-1.49292">
        <ele>53</ele>
        <time>2021-02-27T10:53:11.000Z</time>
      </trkpt>
      <trkpt lat="47.21134" lon="-1.49274">
        <ele>53</ele>
        <time>2021-02-27T10:53:13.000Z</time>
      </trkpt>
      <trkpt lat="47.21135" lon="-1.49257">
        <ele>53</ele>
        <time>2021-02-27T10:53:15.000Z</time>
      </trkpt>
      <trkpt lat="47.21136" lon="-1.49239">
        <ele>53</ele>
        <time>2021-02-27T10:53:17.000Z</time>
      </trkpt>
      <trkpt lat="47.21137" lon="-1.49221">
        <ele>53</ele>
        <time>2021-02-27T10:53:19.000Z</time>
      </trkpt>
      <trkpt lat="47.21139" lon="-1.49203">
        <ele>53</ele>
        <time>2021-02-27T10:53:21.000Z</time>
      </trkpt>
      <trkpt lat="47.21141" lon="-1.49185">
        <ele>53</ele>
        <time>2021-02-27T10:53:23.000Z</time>
      </trkpt>
      <trkpt lat="47.21143" lon="-1.49167">
        <ele>53</ele>
        <time>2021-02-27T10:53:25.000Z</time>
      </trkpt>
      <trkpt lat="47.21146" lon="-1.4915">
        <ele>53</ele>
        <time>2021-02-27T10:53:27.000Z</time>
      </trkpt>
      <trkpt lat="47.21149" lon="-1.49132">
        <ele>53</ele>
        <time>2021-02-27T10:53:29.000Z</time>
      </trkpt>
      <trkpt lat="47.21151" lon="-1.49114">
        <ele>53</ele>
        <time>2021-02-27T10:53:31.000Z</time>
      </trkpt>
      <trkpt lat="47.21157" lon="-1.49099">
        <ele>53</ele>
        <time>2021-02-27T10:53:33.000Z</time>
      </trkpt>
      <trkpt lat="47.21163" lon="-1.49082">
        <ele>52</ele>
        <time>2021-02-27T10:53:35.000Z</time>
      </trkpt>
      <trkpt lat="47.21159" lon="-1.49064">
        <ele>52</ele>
        <time>2021-02-27T10:53:37.000Z</time>
      </trkpt>
      <trkpt lat="47.21152" lon="-1.49049">
        <ele>53</ele>
        <time>2021-02-27T10:53:39.000Z</time>
      </trkpt>
      <trkpt lat="47.21152" lon="-1.49032">
        <ele>53</ele>
        <time>2021-02-27T10:53:41.000Z</time>
      </trkpt>
      <trkpt lat="47.21155" lon="-1.49014">
        <ele>53</ele>
        <time>2021-02-27T10:53:43.000Z</time>
      </trkpt>
      <trkpt lat="47.21159" lon="-1.48996">
        <ele>53</ele>
        <time>2021-02-27T10:53:45.000Z</time>
      </trkpt>
      <trkpt lat="47.21162" lon="-1.48977">
        <ele>53</ele>
        <time>2021-02-27T10:53:47.000Z</time>
      </trkpt>
      <trkpt lat="47.21166" lon="-1.4896">
        <ele>53</ele>
        <time>2021-02-27T10:53:49.000Z</time>
      </trkpt>
      <trkpt lat="47.21169" lon="-1.48942">
        <ele>53</ele>
        <time>2021-02-27T10:53:51.000Z</time>
      </trkpt>
      <trkpt lat="47.21172" lon="-1.48924">
        <ele>52</ele>
        <time>2021-02-27T10:53:53.000Z</time>
      </trkpt>
      <trkpt lat="47.21177" lon="-1.48907">
        <ele>52</ele>
        <time>2021-02-27T10:53:55.000Z</time>
      </trkpt>
      <trkpt lat="47.21181" lon="-1.48889">
        <ele>52</ele>
        <time>2021-02-27T10:53:57.000Z</time>
      </trkpt>
      <trkpt lat="47.21184" lon="-1.48872">
        <ele>52</ele>
        <time>2021-02-27T10:53:59.000Z</time>
      </trkpt>
      <trkpt lat="47.21187" lon="-1.48854">
        <ele>52</ele>
        <time>2021-02-27T10:54:01.000Z</time>
      </trkpt>
      <trkpt lat="47.21189" lon="-1.48835">
        <ele>52</ele>
        <time>2021-02-27T10:54:03.000Z</time>
      </trkpt>
      <trkpt lat="47.21193" lon="-1.48817">
        <ele>51</ele>
        <time>2021-02-27T10:54:05.000Z</time>
      </trkpt>
      <trkpt lat="47.21197" lon="-1.488">
        <ele>51</ele>
        <time>2021-02-27T10:54:07.000Z</time>
      </trkpt>
      <trkpt lat="47.212" lon="-1.48782">
        <ele>51</ele>
        <time>2021-02-27T10:54:09.000Z</time>
      </trkpt>
      <trkpt lat="47.21204" lon="-1.48766">
        <ele>50</ele>
        <time>2021-02-27T10:54:11.000Z</time>
      </trkpt>
      <trkpt lat="47.21208" lon="-1.48748">
        <ele>49</ele>
        <time>2021-02-27T10:54:13.000Z</time>
      </trkpt>
      <trkpt lat="47.21213" lon="-1.48731">
        <ele>49</ele>
        <time>2021-02-27T10:54:15.000Z</time>
      </trkpt>
      <trkpt lat="47.21218" lon="-1.48714">
        <ele>49</ele>
        <time>2021-02-27T10:54:17.000Z</time>
      </trkpt>
      <trkpt lat="47.21222" lon="-1.48696">
        <ele>49</ele>
        <time>2021-02-27T10:54:19.000Z</time>
      </trkpt>
      <trkpt lat="47.21227" lon="-1.48679">
        <ele>48</ele>
        <time>2021-02-27T10:54:21.000Z</time>
      </trkpt>
      <trkpt lat="47.21232" lon="-1.48662">
        <ele>48</ele>
        <time>2021-02-27T10:54:23.000Z</time>
      </trkpt>
      <trkpt lat="47.21236" lon="-1.48645">
        <ele>49</ele>
        <time>2021-02-27T10:54:25.000Z</time>
      </trkpt>
      <trkpt lat="47.21241" lon="-1.48627">
        <ele>50</ele>
        <time>2021-02-27T10:54:27.000Z</time>
      </trkpt>
      <trkpt lat="47.21245" lon="-1.4861">
        <ele>50</ele>
        <time>2021-02-27T10:54:29.000Z</time>
      </trkpt>
      <trkpt lat="47.21249" lon="-1.48592">
        <ele>50</ele>
        <time>2021-02-27T10:54:31.000Z</time>
      </trkpt>
      <trkpt lat="47.21254" lon="-1.48576">
        <ele>50</ele>
        <time>2021-02-27T10:54:33.000Z</time>
      </trkpt>
      <trkpt lat="47.21258" lon="-1.48558">
        <ele>50</ele>
        <time>2021-02-27T10:54:35.000Z</time>
      </trkpt>
      <trkpt lat="47.21264" lon="-1.48541">
        <ele>50</ele>
        <time>2021-02-27T10:54:37.000Z</time>
      </trkpt>
      <trkpt lat="47.2127" lon="-1.48525">
        <ele>50</ele>
        <time>2021-02-27T10:54:39.000Z</time>
      </trkpt>
      <trkpt lat="47.2128" lon="-1.48516">
        <ele>50</ele>
        <time>2021-02-27T10:54:41.000Z</time>
      </trkpt>
      <trkpt lat="47.21291" lon="-1.4851">
        <ele>51</ele>
        <time>2021-02-27T10:54:43.000Z</time>
      </trkpt>
      <trkpt lat="47.21296" lon="-1.48492">
        <ele>52</ele>
        <time>2021-02-27T10:54:45.000Z</time>
      </trkpt>
      <trkpt lat="47.21298" lon="-1.48474">
        <ele>52</ele>
        <time>2021-02-27T10:54:47.000Z</time>
      </trkpt>
      <trkpt lat="47.21301" lon="-1.48456">
        <ele>53</ele>
        <time>2021-02-27T10:54:49.000Z</time>
      </trkpt>
      <trkpt lat="47.21306" lon="-1.48438">
        <ele>53</ele>
        <time>2021-02-27T10:54:51.000Z</time>
      </trkpt>
      <trkpt lat="47.21311" lon="-1.48421">
        <ele>54</ele>
        <time>2021-02-27T10:54:53.000Z</time>
      </trkpt>
      <trkpt lat="47.21316" lon="-1.48404">
        <ele>53</ele>
        <time>2021-02-27T10:54:55.000Z</time>
      </trkpt>
      <trkpt lat="47.21321" lon="-1.48388">
        <ele>53</ele>
        <time>2021-02-27T10:54:57.000Z</time>
      </trkpt>
      <trkpt lat="47.21327" lon="-1.48371">
        <ele>53</ele>
        <time>2021-02-27T10:54:59.000Z</time>
      </trkpt>
      <trkpt lat="47.21332" lon="-1.48354">
        <ele>53</ele>
        <time>2021-02-27T10:55:01.000Z</time>
      </trkpt>
      <trkpt lat="47.21337" lon="-1.48337">
        <ele>53</ele>
        <time>2021-02-27T10:55:03.000Z</time>
      </trkpt>
      <trkpt lat="47.21343" lon="-1.48321">
        <ele>53</ele>
        <time>2021-02-27T10:55:05.000Z</time>
      </trkpt>
      <trkpt lat="47.21348" lon="-1.48306">
        <ele>52</ele>
        <time>2021-02-27T10:55:07.000Z</time>
      </trkpt>
      <trkpt lat="47.21353" lon="-1.4829">
        <ele>52</ele>
        <time>2021-02-27T10:55:09.000Z</time>
      </trkpt>
      <trkpt lat="47.21359" lon="-1.48274">
        <ele>52</ele>
        <time>2021-02-27T10:55:11.000Z</time>
      </trkpt>
      <trkpt lat="47.21364" lon="-1.48258">
        <ele>52</ele>
        <time>2021-02-27T10:55:13.000Z</time>
      </trkpt>
      <trkpt lat="47.21369" lon="-1.48241">
        <ele>52</ele>
        <time>2021-02-27T10:55:15.000Z</time>
      </trkpt>
      <trkpt lat="47.21375" lon="-1.48225">
        <ele>52</ele>
        <time>2021-02-27T10:55:17.000Z</time>
      </trkpt>
      <trkpt lat="47.21381" lon="-1.4821">
        <ele>52</ele>
        <time>2021-02-27T10:55:19.000Z</time>
      </trkpt>
      <trkpt lat="47.21388" lon="-1.48195">
        <ele>52</ele>
        <time>2021-02-27T10:55:21.000Z</time>
      </trkpt>
      <trkpt lat="47.21395" lon="-1.4818">
        <ele>53</ele>
        <time>2021-02-27T10:55:23.000Z</time>
      </trkpt>
      <trkpt lat="47.21401" lon="-1.48166">
        <ele>52</ele>
        <time>2021-02-27T10:55:25.000Z</time>
      </trkpt>
      <trkpt lat="47.21408" lon="-1.48152">
        <ele>52</ele>
        <time>2021-02-27T10:55:27.000Z</time>
      </trkpt>
      <trkpt lat="47.21416" lon="-1.48138">
        <ele>52</ele>
        <time>2021-02-27T10:55:29.000Z</time>
      </trkpt>
      <trkpt lat="47.21423" lon="-1.48125">
        <ele>52</ele>
        <time>2021-02-27T10:55:31.000Z</time>
      </trkpt>
      <trkpt lat="47.21431" lon="-1.48111">
        <ele>52</ele>
        <time>2021-02-27T10:55:33.000Z</time>
      </trkpt>
      <trkpt lat="47.21439" lon="-1.48097">
        <ele>52</ele>
        <time>2021-02-27T10:55:35.000Z</time>
      </trkpt>
      <trkpt lat="47.21447" lon="-1.48084">
        <ele>52</ele>
        <time>2021-02-27T10:55:37.000Z</time>
      </trkpt>
      <trkpt lat="47.21456" lon="-1.48071">
        <ele>52</ele>
        <time>2021-02-27T10:55:39.000Z</time>
      </trkpt>
      <trkpt lat="47.21464" lon="-1.48058">
        <ele>52</ele>
        <time>2021-02-27T10:55:41.000Z</time>
      </trkpt>
      <trkpt lat="47.21473" lon="-1.48045">
        <ele>52</ele>
        <time>2021-02-27T10:55:43.000Z</time>
      </trkpt>
      <trkpt lat="47.21483" lon="-1.48034">
        <ele>52</ele>
        <time>2021-02-27T10:55:45.000Z</time>
      </trkpt>
      <trkpt lat="47.21492" lon="-1.48024">
        <ele>53</ele>
        <time>2021-02-27T10:55:47.000Z</time>
      </trkpt>
      <trkpt lat="47.21502" lon="-1.48013">
        <ele>53</ele>
        <time>2021-02-27T10:55:49.000Z</time>
      </trkpt>
      <trkpt lat="47.21511" lon="-1.48002">
        <ele>54</ele>
        <time>2021-02-27T10:55:51.000Z</time>
      </trkpt>
      <trkpt lat="47.2152" lon="-1.47991">
        <ele>54</ele>
        <time>2021-02-27T10:55:53.000Z</time>
      </trkpt>
      <trkpt lat="47.2153" lon="-1.47979">
        <ele>54</ele>
        <time>2021-02-27T10:55:55.000Z</time>
      </trkpt>
      <trkpt lat="47.2154" lon="-1.47968">
        <ele>54</ele>
        <time>2021-02-27T10:55:57.000Z</time>
      </trkpt>
      <trkpt lat="47.21551" lon="-1.47957">
        <ele>54</ele>
        <time>2021-02-27T10:55:59.000Z</time>
      </trkpt>
      <trkpt lat="47.21563" lon="-1.47946">
        <ele>54</ele>
        <time>2021-02-27T10:56:01.000Z</time>
      </trkpt>
      <trkpt lat="47.21575" lon="-1.47935">
        <ele>54</ele>
        <time>2021-02-27T10:56:03.000Z</time>
      </trkpt>
      <trkpt lat="47.21587" lon="-1.47925">
        <ele>54</ele>
        <time>2021-02-27T10:56:05.000Z</time>
      </trkpt>
      <trkpt lat="47.21597" lon="-1.47915">
        <ele>54</ele>
        <time>2021-02-27T10:56:07.000Z</time>
      </trkpt>
      <trkpt lat="47.21608" lon="-1.47905">
        <ele>54</ele>
        <time>2021-02-27T10:56:09.000Z</time>
      </trkpt>
      <trkpt lat="47.21619" lon="-1.47896">
        <ele>55</ele>
        <time>2021-02-27T10:56:11.000Z</time>
      </trkpt>
      <trkpt lat="47.21629" lon="-1.47887">
        <ele>54</ele>
        <time>2021-02-27T10:56:13.000Z</time>
      </trkpt>
      <trkpt lat="47.21639" lon="-1.47877">
        <ele>54</ele>
        <time>2021-02-27T10:56:15.000Z</time>
      </trkpt>
      <trkpt lat="47.21649" lon="-1.47867">
        <ele>54</ele>
        <time>2021-02-27T10:56:17.000Z</time>
      </trkpt>
      <trkpt lat="47.2166" lon="-1.47857">
        <ele>54</ele>
        <time>2021-02-27T10:56:19.000Z</time>
      </trkpt>
      <trkpt lat="47.2167" lon="-1.47848">
        <ele>54</ele>
        <time>2021-02-27T10:56:21.000Z</time>
      </trkpt>
      <trkpt lat="47.2168" lon="-1.47838">
        <ele>54</ele>
        <time>2021-02-27T10:56:23.000Z</time>
      </trkpt>
      <trkpt lat="47.2169" lon="-1.47829">
        <ele>54</ele>
        <time>2021-02-27T10:56:25.000Z</time>
      </trkpt>
      <trkpt lat="47.217" lon="-1.4782">
        <ele>54</ele>
        <time>2021-02-27T10:56:27.000Z</time>
      </trkpt>
      <trkpt lat="47.21709" lon="-1.47811">
        <ele>54</ele>
        <time>2021-02-27T10:56:29.000Z</time>
      </trkpt>
      <trkpt lat="47.21719" lon="-1.47802">
        <ele>54</ele>
        <time>2021-02-27T10:56:31.000Z</time>
      </trkpt>
      <trkpt lat="47.21728" lon="-1.47793">
        <ele>54</ele>
        <time>2021-02-27T10:56:33.000Z</time>
      </trkpt>
      <trkpt lat="47.21737" lon="-1.47785">
        <ele>54</ele>
        <time>2021-02-27T10:56:35.000Z</time>
      </trkpt>
      <trkpt lat="47.21746" lon="-1.47777">
        <ele>54</ele>
        <time>2021-02-27T10:56:37.000Z</time>
      </trkpt>
      <trkpt lat="47.21756" lon="-1.47768">
        <ele>54</ele>
        <time>2021-02-27T10:56:39.000Z</time>
      </trkpt>
      <trkpt lat="47.21766" lon="-1.47759">
        <ele>54</ele>
        <time>2021-02-27T10:56:41.000Z</time>
      </trkpt>
      <trkpt lat="47.21776" lon="-1.4775">
        <ele>54</ele>
        <time>2021-02-27T10:56:43.000Z</time>
      </trkpt>
      <trkpt lat="47.21787" lon="-1.47742">
        <ele>54</ele>
        <time>2021-02-27T10:56:45.000Z</time>
      </trkpt>
      <trkpt lat="47.21797" lon="-1.47735">
        <ele>54</ele>
        <time>2021-02-27T10:56:47.000Z</time>
      </trkpt>
      <trkpt lat="47.21808" lon="-1.47727">
        <ele>54</ele>
        <time>2021-02-27T10:56:49.000Z</time>
      </trkpt>
      <trkpt lat="47.21819" lon="-1.47718">
        <ele>54</ele>
        <time>2021-02-27T10:56:51.000Z</time>
      </trkpt>
      <trkpt lat="47.21829" lon="-1.47708">
        <ele>54</ele>
        <time>2021-02-27T10:56:53.000Z</time>
      </trkpt>
      <trkpt lat="47.2184" lon="-1.47699">
        <ele>54</ele>
        <time>2021-02-27T10:56:55.000Z</time>
      </trkpt>
      <trkpt lat="47.2185" lon="-1.4769">
        <ele>54</ele>
        <time>2021-02-27T10:56:57.000Z</time>
      </trkpt>
      <trkpt lat="47.2186" lon="-1.4768">
        <ele>54</ele>
        <time>2021-02-27T10:56:59.000Z</time>
      </trkpt>
      <trkpt lat="47.21871" lon="-1.47671">
        <ele>54</ele>
        <time>2021-02-27T10:57:01.000Z</time>
      </trkpt>
      <trkpt lat="47.21882" lon="-1.47661">
        <ele>54</ele>
        <time>2021-02-27T10:57:03.000Z</time>
      </trkpt>
      <trkpt lat="47.21892" lon="-1.47651">
        <ele>53</ele>
        <time>2021-02-27T10:57:05.000Z</time>
      </trkpt>
      <trkpt lat="47.21902" lon="-1.47641">
        <ele>53</ele>
        <time>2021-02-27T10:57:07.000Z</time>
      </trkpt>
      <trkpt lat="47.21913" lon="-1.47632">
        <ele>53</ele>
        <time>2021-02-27T10:57:09.000Z</time>
      </trkpt>
      <trkpt lat="47.21923" lon="-1.47623">
        <ele>53</ele>
        <time>2021-02-27T10:57:11.000Z</time>
      </trkpt>
      <trkpt lat="47.21933" lon="-1.47615">
        <ele>53</ele>
        <time>2021-02-27T10:57:13.000Z</time>
      </trkpt>
      <trkpt lat="47.21944" lon="-1.47606">
        <ele>53</ele>
        <time>2021-02-27T10:57:15.000Z</time>
      </trkpt>
      <trkpt lat="47.21954" lon="-1.47596">
        <ele>53</ele>
        <time>2021-02-27T10:57:17.000Z</time>
      </trkpt>
      <trkpt lat="47.21965" lon="-1.47587">
        <ele>53</ele>
        <time>2021-02-27T10:57:19.000Z</time>
      </trkpt>
      <trkpt lat="47.21975" lon="-1.47577">
        <ele>53</ele>
        <time>2021-02-27T10:57:21.000Z</time>
      </trkpt>
      <trkpt lat="47.21985" lon="-1.47568">
        <ele>53</ele>
        <time>2021-02-27T10:57:23.000Z</time>
      </trkpt>
      <trkpt lat="47.21996" lon="-1.47558">
        <ele>53</ele>
        <time>2021-02-27T10:57:25.000Z</time>
      </trkpt>
      <trkpt lat="47.22006" lon="-1.47548">
        <ele>53</ele>
        <time>2021-02-27T10:57:27.000Z</time>
      </trkpt>
      <trkpt lat="47.22016" lon="-1.47539">
        <ele>53</ele>
        <time>2021-02-27T10:57:29.000Z</time>
      </trkpt>
      <trkpt lat="47.22026" lon="-1.47529">
        <ele>53</ele>
        <time>2021-02-27T10:57:31.000Z</time>
      </trkpt>
      <trkpt lat="47.22036" lon="-1.47519">
        <ele>53</ele>
        <time>2021-02-27T10:57:33.000Z</time>
      </trkpt>
      <trkpt lat="47.22046" lon="-1.4751">
        <ele>53</ele>
        <time>2021-02-27T10:57:35.000Z</time>
      </trkpt>
      <trkpt lat="47.22057" lon="-1.47501">
        <ele>54</ele>
        <time>2021-02-27T10:57:37.000Z</time>
      </trkpt>
      <trkpt lat="47.22067" lon="-1.47492">
        <ele>54</ele>
        <time>2021-02-27T10:57:39.000Z</time>
      </trkpt>
      <trkpt lat="47.22077" lon="-1.47482">
        <ele>54</ele>
        <time>2021-02-27T10:57:41.000Z</time>
      </trkpt>
      <trkpt lat="47.22087" lon="-1.47474">
        <ele>54</ele>
        <time>2021-02-27T10:57:43.000Z</time>
      </trkpt>
      <trkpt lat="47.22097" lon="-1.47464">
        <ele>54</ele>
        <time>2021-02-27T10:57:45.000Z</time>
      </trkpt>
      <trkpt lat="47.22107" lon="-1.47456">
        <ele>54</ele>
        <time>2021-02-27T10:57:47.000Z</time>
      </trkpt>
      <trkpt lat="47.22118" lon="-1.47447">
        <ele>54</ele>
        <time>2021-02-27T10:57:49.000Z</time>
      </trkpt>
      <trkpt lat="47.22128" lon="-1.47439">
        <ele>54</ele>
        <time>2021-02-27T10:57:51.000Z</time>
      </trkpt>
      <trkpt lat="47.22137" lon="-1.47431">
        <ele>54</ele>
        <time>2021-02-27T10:57:53.000Z</time>
      </trkpt>
      <trkpt lat="47.22147" lon="-1.47423">
        <ele>54</ele>
        <time>2021-02-27T10:57:55.000Z</time>
      </trkpt>
      <trkpt lat="47.22157" lon="-1.47415">
        <ele>54</ele>
        <time>2021-02-27T10:57:57.000Z</time>
      </trkpt>
      <trkpt lat="47.22167" lon="-1.47407">
        <ele>54</ele>
        <time>2021-02-27T10:57:59.000Z</time>
      </trkpt>
      <trkpt lat="47.22177" lon="-1.47399">
        <ele>53</ele>
        <time>2021-02-27T10:58:01.000Z</time>
      </trkpt>
      <trkpt lat="47.22187" lon="-1.4739">
        <ele>53</ele>
        <time>2021-02-27T10:58:03.000Z</time>
      </trkpt>
      <trkpt lat="47.22197" lon="-1.47382">
        <ele>52</ele>
        <time>2021-02-27T10:58:05.000Z</time>
      </trkpt>
      <trkpt lat="47.22207" lon="-1.47374">
        <ele>52</ele>
        <time>2021-02-27T10:58:07.000Z</time>
      </trkpt>
      <trkpt lat="47.22217" lon="-1.47366">
        <ele>52</ele>
        <time>2021-02-27T10:58:09.000Z</time>
      </trkpt>
      <trkpt lat="47.22227" lon="-1.47358">
        <ele>53</ele>
        <time>2021-02-27T10:58:11.000Z</time>
      </trkpt>
      <trkpt lat="47.22238" lon="-1.47351">
        <ele>53</ele>
        <time>2021-02-27T10:58:13.000Z</time>
      </trkpt>
      <trkpt lat="47.22249" lon="-1.47345">
        <ele>53</ele>
        <time>2021-02-27T10:58:15.000Z</time>
      </trkpt>
      <trkpt lat="47.22259" lon="-1.47339">
        <ele>53</ele>
        <time>2021-02-27T10:58:17.000Z</time>
      </trkpt>
      <trkpt lat="47.2227" lon="-1.47331">
        <ele>53</ele>
        <time>2021-02-27T10:58:19.000Z</time>
      </trkpt>
      <trkpt lat="47.22279" lon="-1.47322">
        <ele>53</ele>
        <time>2021-02-27T10:58:21.000Z</time>
      </trkpt>
      <trkpt lat="47.2229" lon="-1.47313">
        <ele>53</ele>
        <time>2021-02-27T10:58:23.000Z</time>
      </trkpt>
      <trkpt lat="47.223" lon="-1.47305">
        <ele>54</ele>
        <time>2021-02-27T10:58:25.000Z</time>
      </trkpt>
      <trkpt lat="47.2231" lon="-1.47297">
        <ele>53</ele>
        <time>2021-02-27T10:58:27.000Z</time>
      </trkpt>
      <trkpt lat="47.22319" lon="-1.47289">
        <ele>53</ele>
        <time>2021-02-27T10:58:29.000Z</time>
      </trkpt>
      <trkpt lat="47.22328" lon="-1.47281">
        <ele>53</ele>
        <time>2021-02-27T10:58:31.000Z</time>
      </trkpt>
      <trkpt lat="47.22338" lon="-1.47273">
        <ele>53</ele>
        <time>2021-02-27T10:58:33.000Z</time>
      </trkpt>
      <trkpt lat="47.22348" lon="-1.47265">
        <ele>53</ele>
        <time>2021-02-27T10:58:35.000Z</time>
      </trkpt>
      <trkpt lat="47.22357" lon="-1.47257">
        <ele>54</ele>
        <time>2021-02-27T10:58:37.000Z</time>
      </trkpt>
      <trkpt lat="47.22367" lon="-1.47249">
        <ele>54</ele>
        <time>2021-02-27T10:58:39.000Z</time>
      </trkpt>
      <trkpt lat="47.22376" lon="-1.4724">
        <ele>54</ele>
        <time>2021-02-27T10:58:41.000Z</time>
      </trkpt>
      <trkpt lat="47.22385" lon="-1.47231">
        <ele>54</ele>
        <time>2021-02-27T10:58:43.000Z</time>
      </trkpt>
      <trkpt lat="47.22394" lon="-1.47221">
        <ele>54</ele>
        <time>2021-02-27T10:58:45.000Z</time>
      </trkpt>
      <trkpt lat="47.22403" lon="-1.47211">
        <ele>55</ele>
        <time>2021-02-27T10:58:47.000Z</time>
      </trkpt>
      <trkpt lat="47.22412" lon="-1.47202">
        <ele>54</ele>
        <time>2021-02-27T10:58:49.000Z</time>
      </trkpt>
      <trkpt lat="47.2242" lon="-1.47192">
        <ele>54</ele>
        <time>2021-02-27T10:58:51.000Z</time>
      </trkpt>
      <trkpt lat="47.2243" lon="-1.47183">
        <ele>54</ele>
        <time>2021-02-27T10:58:53.000Z</time>
      </trkpt>
      <trkpt lat="47.22439" lon="-1.47174">
        <ele>55</ele>
        <time>2021-02-27T10:58:55.000Z</time>
      </trkpt>
      <trkpt lat="47.22448" lon="-1.47166">
        <ele>55</ele>
        <time>2021-02-27T10:58:57.000Z</time>
      </trkpt>
      <trkpt lat="47.22458" lon="-1.47158">
        <ele>55</ele>
        <time>2021-02-27T10:58:59.000Z</time>
      </trkpt>
      <trkpt lat="47.22468" lon="-1.4715">
        <ele>55</ele>
        <time>2021-02-27T10:59:01.000Z</time>
      </trkpt>
      <trkpt lat="47.22477" lon="-1.47143">
        <ele>55</ele>
        <time>2021-02-27T10:59:03.000Z</time>
      </trkpt>
      <trkpt lat="47.22488" lon="-1.47137">
        <ele>55</ele>
        <time>2021-02-27T10:59:05.000Z</time>
      </trkpt>
      <trkpt lat="47.22498" lon="-1.47133">
        <ele>54</ele>
        <time>2021-02-27T10:59:07.000Z</time>
      </trkpt>
      <trkpt lat="47.22509" lon="-1.47129">
        <ele>54</ele>
        <time>2021-02-27T10:59:09.000Z</time>
      </trkpt>
      <trkpt lat="47.2252" lon="-1.47127">
        <ele>54</ele>
        <time>2021-02-27T10:59:11.000Z</time>
      </trkpt>
      <trkpt lat="47.22531" lon="-1.47124">
        <ele>54</ele>
        <time>2021-02-27T10:59:13.000Z</time>
      </trkpt>
      <trkpt lat="47.22543" lon="-1.47121">
        <ele>54</ele>
        <time>2021-02-27T10:59:15.000Z</time>
      </trkpt>
      <trkpt lat="47.22554" lon="-1.47119">
        <ele>54</ele>
        <time>2021-02-27T10:59:17.000Z</time>
      </trkpt>
      <trkpt lat="47.22565" lon="-1.47116">
        <ele>54</ele>
        <time>2021-02-27T10:59:19.000Z</time>
      </trkpt>
      <trkpt lat="47.22577" lon="-1.4711">
        <ele>54</ele>
        <time>2021-02-27T10:59:21.000Z</time>
      </trkpt>
      <trkpt lat="47.22587" lon="-1.47103">
        <ele>53</ele>
        <time>2021-02-27T10:59:23.000Z</time>
      </trkpt>
      <trkpt lat="47.22597" lon="-1.47092">
        <ele>53</ele>
        <time>2021-02-27T10:59:25.000Z</time>
      </trkpt>
      <trkpt lat="47.22605" lon="-1.4708">
        <ele>53</ele>
        <time>2021-02-27T10:59:27.000Z</time>
      </trkpt>
      <trkpt lat="47.22612" lon="-1.47066">
        <ele>53</ele>
        <time>2021-02-27T10:59:29.000Z</time>
      </trkpt>
      <trkpt lat="47.22619" lon="-1.47052">
        <ele>53</ele>
        <time>2021-02-27T10:59:31.000Z</time>
      </trkpt>
      <trkpt lat="47.22626" lon="-1.47039">
        <ele>53</ele>
        <time>2021-02-27T10:59:33.000Z</time>
      </trkpt>
      <trkpt lat="47.22634" lon="-1.47027">
        <ele>53</ele>
        <time>2021-02-27T10:59:35.000Z</time>
      </trkpt>
      <trkpt lat="47.22642" lon="-1.47016">
        <ele>53</ele>
        <time>2021-02-27T10:59:37.000Z</time>
      </trkpt>
      <trkpt lat="47.2265" lon="-1.47006">
        <ele>53</ele>
        <time>2021-02-27T10:59:39.000Z</time>
      </trkpt>
      <trkpt lat="47.22659" lon="-1.46997">
        <ele>53</ele>
        <time>2021-02-27T10:59:41.000Z</time>
      </trkpt>
      <trkpt lat="47.22669" lon="-1.46988">
        <ele>53</ele>
        <time>2021-02-27T10:59:43.000Z</time>
      </trkpt>
      <trkpt lat="47.22679" lon="-1.46981">
        <ele>53</ele>
        <time>2021-02-27T10:59:45.000Z</time>
      </trkpt>
      <trkpt lat="47.22689" lon="-1.46974">
        <ele>52</ele>
        <time>2021-02-27T10:59:47.000Z</time>
      </trkpt>
      <trkpt lat="47.22699" lon="-1.46968">
        <ele>52</ele>
        <time>2021-02-27T10:59:49.000Z</time>
      </trkpt>
      <trkpt lat="47.2271" lon="-1.46962">
        <ele>53</ele>
        <time>2021-02-27T10:59:51.000Z</time>
      </trkpt>
      <trkpt lat="47.22722" lon="-1.46958">
        <ele>53</ele>
        <time>2021-02-27T10:59:53.000Z</time>
      </trkpt>
      <trkpt lat="47.22733" lon="-1.46955">
        <ele>53</ele>
        <time>2021-02-27T10:59:55.000Z</time>
      </trkpt>
      <trkpt lat="47.22745" lon="-1.46953">
        <ele>53</ele>
        <time>2021-02-27T10:59:57.000Z</time>
      </trkpt>
      <trkpt lat="47.22757" lon="-1.46952">
        <ele>53</ele>
        <time>2021-02-27T10:59:59.000Z</time>
      </trkpt>
      <trkpt lat="47.22769" lon="-1.46952">
        <ele>53</ele>
        <time>2021-02-27T11:00:01.000Z</time>
      </trkpt>
      <trkpt lat="47.22781" lon="-1.46954">
        <ele>53</ele>
        <time>2021-02-27T11:00:03.000Z</time>
      </trkpt>
      <trkpt lat="47.22794" lon="-1.46955">
        <ele>53</ele>
        <time>2021-02-27T11:00:05.000Z</time>
      </trkpt>
      <trkpt lat="47.22806" lon="-1.46959">
        <ele>53</ele>
        <time>2021-02-27T11:00:07.000Z</time>
      </trkpt>
      <trkpt lat="47.22817" lon="-1.46964">
        <ele>54</ele>
        <time>2021-02-27T11:00:09.000Z</time>
      </trkpt>
      <trkpt lat="47.22829" lon="-1.4697">
        <ele>54</ele>
        <time>2021-02-27T11:00:11.000Z</time>
      </trkpt>
      <trkpt lat="47.2284" lon="-1.46976">
        <ele>54</ele>
        <time>2021-02-27T11:00:13.000Z</time>
      </trkpt>
      <trkpt lat="47.22852" lon="-1.46981">
        <ele>54</ele>
        <time>2021-02-27T11:00:15.000Z</time>
      </trkpt>
      <trkpt lat="47.22863" lon="-1.46987">
        <ele>54</ele>
        <time>2021-02-27T11:00:17.000Z</time>
      </trkpt>
      <trkpt lat="47.22874" lon="-1.46993">
        <ele>54</ele>
        <time>2021-02-27T11:00:19.000Z</time>
      </trkpt>
      <trkpt lat="47.22886" lon="-1.46998">
        <ele>53</ele>
        <time>2021-02-27T11:00:21.000Z</time>
      </trkpt>
      <trkpt lat="47.22898" lon="-1.46996">
        <ele>53</ele>
        <time>2021-02-27T11:00:23.000Z</time>
      </trkpt>
      <trkpt lat="47.22908" lon="-1.46986">
        <ele>53</ele>
        <time>2021-02-27T11:00:25.000Z</time>
      </trkpt>
      <trkpt lat="47.22913" lon="-1.4697">
        <ele>52</ele>
        <time>2021-02-27T11:00:27.000Z</time>
      </trkpt>
      <trkpt lat="47.22916" lon="-1.46953">
        <ele>52</ele>
        <time>2021-02-27T11:00:29.000Z</time>
      </trkpt>
      <trkpt lat="47.2292" lon="-1.46938">
        <ele>53</ele>
        <time>2021-02-27T11:00:31.000Z</time>
      </trkpt>
      <trkpt lat="47.22924" lon="-1.46924">
        <ele>52</ele>
        <time>2021-02-27T11:00:33.000Z</time>
      </trkpt>
      <trkpt lat="47.22927" lon="-1.46908">
        <ele>52</ele>
        <time>2021-02-27T11:00:35.000Z</time>
      </trkpt>
      <trkpt lat="47.22931" lon="-1.46891">
        <ele>51</ele>
        <time>2021-02-27T11:00:37.000Z</time>
      </trkpt>
      <trkpt lat="47.22935" lon="-1.46876">
        <ele>51</ele>
        <time>2021-02-27T11:00:39.000Z</time>
      </trkpt>
      <trkpt lat="47.2294" lon="-1.46861">
        <ele>51</ele>
        <time>2021-02-27T11:00:41.000Z</time>
      </trkpt>
      <trkpt lat="47.22944" lon="-1.46847">
        <ele>52</ele>
        <time>2021-02-27T11:00:43.000Z</time>
      </trkpt>
      <trkpt lat="47.2295" lon="-1.46836">
        <ele>52</ele>
        <time>2021-02-27T11:00:45.000Z</time>
      </trkpt>
      <trkpt lat="47.22958" lon="-1.4683">
        <ele>51</ele>
        <time>2021-02-27T11:00:47.000Z</time>
      </trkpt>
      <trkpt lat="47.22967" lon="-1.4682">
        <ele>51</ele>
        <time>2021-02-27T11:00:49.000Z</time>
      </trkpt>
      <trkpt lat="47.22973" lon="-1.46807">
        <ele>52</ele>
        <time>2021-02-27T11:00:51.000Z</time>
      </trkpt>
      <trkpt lat="47.22977" lon="-1.46792">
        <ele>52</ele>
        <time>2021-02-27T11:00:53.000Z</time>
      </trkpt>
      <trkpt lat="47.22982" lon="-1.46779">
        <ele>53</ele>
        <time>2021-02-27T11:00:55.000Z</time>
      </trkpt>
      <trkpt lat="47.2299" lon="-1.46769">
        <ele>53</ele>
        <time>2021-02-27T11:00:57.000Z</time>
      </trkpt>
      <trkpt lat="47.22999" lon="-1.4676">
        <ele>54</ele>
        <time>2021-02-27T11:00:59.000Z</time>
      </trkpt>
      <trkpt lat="47.23008" lon="-1.46754">
        <ele>54</ele>
        <time>2021-02-27T11:01:01.000Z</time>
      </trkpt>
      <trkpt lat="47.23017" lon="-1.46748">
        <ele>54</ele>
        <time>2021-02-27T11:01:03.000Z</time>
      </trkpt>
      <trkpt lat="47.23026" lon="-1.46742">
        <ele>53</ele>
        <time>2021-02-27T11:01:05.000Z</time>
      </trkpt>
      <trkpt lat="47.23035" lon="-1.46736">
        <ele>53</ele>
        <time>2021-02-27T11:01:08.000Z</time>
      </trkpt>
      <trkpt lat="47.23043" lon="-1.46727">
        <ele>52</ele>
        <time>2021-02-27T11:01:14.000Z</time>
      </trkpt>
      <trkpt lat="47.23038" lon="-1.46741">
        <ele>52</ele>
        <time>2021-02-27T11:01:40.000Z</time>
      </trkpt>
      <trkpt lat="47.23029" lon="-1.46743">
        <ele>53</ele>
        <time>2021-02-27T11:01:43.000Z</time>
      </trkpt>
      <trkpt lat="47.23018" lon="-1.46748">
        <ele>53</ele>
        <time>2021-02-27T11:01:46.000Z</time>
      </trkpt>
      <trkpt lat="47.2301" lon="-1.46754">
        <ele>53</ele>
        <time>2021-02-27T11:01:48.000Z</time>
      </trkpt>
      <trkpt lat="47.23002" lon="-1.46762">
        <ele>54</ele>
        <time>2021-02-27T11:01:50.000Z</time>
      </trkpt>
      <trkpt lat="47.22993" lon="-1.46769">
        <ele>54</ele>
        <time>2021-02-27T11:01:52.000Z</time>
      </trkpt>
      <trkpt lat="47.22986" lon="-1.46778">
        <ele>54</ele>
        <time>2021-02-27T11:01:54.000Z</time>
      </trkpt>
      <trkpt lat="47.22979" lon="-1.46789">
        <ele>53</ele>
        <time>2021-02-27T11:01:56.000Z</time>
      </trkpt>
      <trkpt lat="47.22974" lon="-1.46803">
        <ele>53</ele>
        <time>2021-02-27T11:01:58.000Z</time>
      </trkpt>
      <trkpt lat="47.22968" lon="-1.46817">
        <ele>52</ele>
        <time>2021-02-27T11:02:00.000Z</time>
      </trkpt>
      <trkpt lat="47.2296" lon="-1.4683">
        <ele>53</ele>
        <time>2021-02-27T11:02:02.000Z</time>
      </trkpt>
      <trkpt lat="47.22951" lon="-1.46837">
        <ele>53</ele>
        <time>2021-02-27T11:02:04.000Z</time>
      </trkpt>
      <trkpt lat="47.22946" lon="-1.4685">
        <ele>53</ele>
        <time>2021-02-27T11:02:06.000Z</time>
      </trkpt>
      <trkpt lat="47.22941" lon="-1.46867">
        <ele>53</ele>
        <time>2021-02-27T11:02:08.000Z</time>
      </trkpt>
      <trkpt lat="47.22937" lon="-1.46885">
        <ele>52</ele>
        <time>2021-02-27T11:02:10.000Z</time>
      </trkpt>
      <trkpt lat="47.22932" lon="-1.46902">
        <ele>52</ele>
        <time>2021-02-27T11:02:12.000Z</time>
      </trkpt>
      <trkpt lat="47.22929" lon="-1.46919">
        <ele>52</ele>
        <time>2021-02-27T11:02:14.000Z</time>
      </trkpt>
      <trkpt lat="47.22924" lon="-1.46935">
        <ele>52</ele>
        <time>2021-02-27T11:02:16.000Z</time>
      </trkpt>
      <trkpt lat="47.2292" lon="-1.46952">
        <ele>53</ele>
        <time>2021-02-27T11:02:18.000Z</time>
      </trkpt>
      <trkpt lat="47.22917" lon="-1.46969">
        <ele>52</ele>
        <time>2021-02-27T11:02:20.000Z</time>
      </trkpt>
      <trkpt lat="47.22912" lon="-1.46986">
        <ele>52</ele>
        <time>2021-02-27T11:02:22.000Z</time>
      </trkpt>
      <trkpt lat="47.22904" lon="-1.47">
        <ele>52</ele>
        <time>2021-02-27T11:02:24.000Z</time>
      </trkpt>
      <trkpt lat="47.22892" lon="-1.47006">
        <ele>53</ele>
        <time>2021-02-27T11:02:26.000Z</time>
      </trkpt>
      <trkpt lat="47.22879" lon="-1.47002">
        <ele>53</ele>
        <time>2021-02-27T11:02:28.000Z</time>
      </trkpt>
      <trkpt lat="47.22867" lon="-1.46995">
        <ele>52</ele>
        <time>2021-02-27T11:02:30.000Z</time>
      </trkpt>
      <trkpt lat="47.22856" lon="-1.46989">
        <ele>52</ele>
        <time>2021-02-27T11:02:32.000Z</time>
      </trkpt>
      <trkpt lat="47.22845" lon="-1.46983">
        <ele>52</ele>
        <time>2021-02-27T11:02:34.000Z</time>
      </trkpt>
      <trkpt lat="47.22833" lon="-1.46978">
        <ele>52</ele>
        <time>2021-02-27T11:02:36.000Z</time>
      </trkpt>
      <trkpt lat="47.22822" lon="-1.46972">
        <ele>52</ele>
        <time>2021-02-27T11:02:38.000Z</time>
      </trkpt>
      <trkpt lat="47.22811" lon="-1.46967">
        <ele>52</ele>
        <time>2021-02-27T11:02:40.000Z</time>
      </trkpt>
      <trkpt lat="47.22799" lon="-1.46962">
        <ele>52</ele>
        <time>2021-02-27T11:02:42.000Z</time>
      </trkpt>
      <trkpt lat="47.22788" lon="-1.46959">
        <ele>52</ele>
        <time>2021-02-27T11:02:44.000Z</time>
      </trkpt>
      <trkpt lat="47.22776" lon="-1.46956">
        <ele>52</ele>
        <time>2021-02-27T11:02:46.000Z</time>
      </trkpt>
      <trkpt lat="47.22766" lon="-1.46954">
        <ele>52</ele>
        <time>2021-02-27T11:02:48.000Z</time>
      </trkpt>
      <trkpt lat="47.22761" lon="-1.46943">
        <ele>51</ele>
        <time>2021-02-27T11:02:50.000Z</time>
      </trkpt>
      <trkpt lat="47.22767" lon="-1.46932">
        <ele>52</ele>
        <time>2021-02-27T11:02:52.000Z</time>
      </trkpt>
      <trkpt lat="47.22777" lon="-1.46927">
        <ele>52</ele>
        <time>2021-02-27T11:02:54.000Z</time>
      </trkpt>
      <trkpt lat="47.22788" lon="-1.4693">
        <ele>53</ele>
        <time>2021-02-27T11:02:56.000Z</time>
      </trkpt>
      <trkpt lat="47.22799" lon="-1.46934">
        <ele>54</ele>
        <time>2021-02-27T11:02:58.000Z</time>
      </trkpt>
      <trkpt lat="47.22809" lon="-1.46939">
        <ele>55</ele>
        <time>2021-02-27T11:03:00.000Z</time>
      </trkpt>
      <trkpt lat="47.2282" lon="-1.46944">
        <ele>55</ele>
        <time>2021-02-27T11:03:02.000Z</time>
      </trkpt>
      <trkpt lat="47.22831" lon="-1.46947">
        <ele>55</ele>
        <time>2021-02-27T11:03:04.000Z</time>
      </trkpt>
      <trkpt lat="47.22842" lon="-1.46951">
        <ele>56</ele>
        <time>2021-02-27T11:03:06.000Z</time>
      </trkpt>
      <trkpt lat="47.22852" lon="-1.46956">
        <ele>56</ele>
        <time>2021-02-27T11:03:08.000Z</time>
      </trkpt>
      <trkpt lat="47.22862" lon="-1.46961">
        <ele>56</ele>
        <time>2021-02-27T11:03:10.000Z</time>
      </trkpt>
      <trkpt lat="47.22873" lon="-1.46967">
        <ele>56</ele>
        <time>2021-02-27T11:03:12.000Z</time>
      </trkpt>
      <trkpt lat="47.22883" lon="-1.46971">
        <ele>56</ele>
        <time>2021-02-27T11:03:14.000Z</time>
      </trkpt>
      <trkpt lat="47.22893" lon="-1.46974">
        <ele>57</ele>
        <time>2021-02-27T11:03:16.000Z</time>
      </trkpt>
      <trkpt lat="47.22904" lon="-1.46976">
        <ele>57</ele>
        <time>2021-02-27T11:03:18.000Z</time>
      </trkpt>
      <trkpt lat="47.22914" lon="-1.46978">
        <ele>58</ele>
        <time>2021-02-27T11:03:20.000Z</time>
      </trkpt>
      <trkpt lat="47.22925" lon="-1.4698">
        <ele>58</ele>
        <time>2021-02-27T11:03:22.000Z</time>
      </trkpt>
      <trkpt lat="47.22936" lon="-1.4698">
        <ele>58</ele>
        <time>2021-02-27T11:03:24.000Z</time>
      </trkpt>
      <trkpt lat="47.22947" lon="-1.46981">
        <ele>58</ele>
        <time>2021-02-27T11:03:26.000Z</time>
      </trkpt>
      <trkpt lat="47.22958" lon="-1.46982">
        <ele>58</ele>
        <time>2021-02-27T11:03:28.000Z</time>
      </trkpt>
      <trkpt lat="47.22968" lon="-1.46984">
        <ele>58</ele>
        <time>2021-02-27T11:03:30.000Z</time>
      </trkpt>
      <trkpt lat="47.22978" lon="-1.46987">
        <ele>58</ele>
        <time>2021-02-27T11:03:32.000Z</time>
      </trkpt>
      <trkpt lat="47.22989" lon="-1.46991">
        <ele>58</ele>
        <time>2021-02-27T11:03:34.000Z</time>
      </trkpt>
      <trkpt lat="47.23" lon="-1.46996">
        <ele>58</ele>
        <time>2021-02-27T11:03:36.000Z</time>
      </trkpt>
      <trkpt lat="47.2301" lon="-1.47002">
        <ele>58</ele>
        <time>2021-02-27T11:03:38.000Z</time>
      </trkpt>
      <trkpt lat="47.23021" lon="-1.4701">
        <ele>58</ele>
        <time>2021-02-27T11:03:40.000Z</time>
      </trkpt>
      <trkpt lat="47.23031" lon="-1.47017">
        <ele>58</ele>
        <time>2021-02-27T11:03:42.000Z</time>
      </trkpt>
      <trkpt lat="47.2304" lon="-1.47027">
        <ele>58</ele>
        <time>2021-02-27T11:03:44.000Z</time>
      </trkpt>
      <trkpt lat="47.23048" lon="-1.47036">
        <ele>58</ele>
        <time>2021-02-27T11:03:46.000Z</time>
      </trkpt>
      <trkpt lat="47.23056" lon="-1.47049">
        <ele>58</ele>
        <time>2021-02-27T11:03:48.000Z</time>
      </trkpt>
      <trkpt lat="47.23064" lon="-1.47062">
        <ele>58</ele>
        <time>2021-02-27T11:03:50.000Z</time>
      </trkpt>
      <trkpt lat="47.23072" lon="-1.47075">
        <ele>58</ele>
        <time>2021-02-27T11:03:52.000Z</time>
      </trkpt>
      <trkpt lat="47.2308" lon="-1.47089">
        <ele>57</ele>
        <time>2021-02-27T11:03:54.000Z</time>
      </trkpt>
      <trkpt lat="47.23088" lon="-1.47104">
        <ele>56</ele>
        <time>2021-02-27T11:03:56.000Z</time>
      </trkpt>
      <trkpt lat="47.23095" lon="-1.47119">
        <ele>55</ele>
        <time>2021-02-27T11:03:58.000Z</time>
      </trkpt>
      <trkpt lat="47.23105" lon="-1.47128">
        <ele>55</ele>
        <time>2021-02-27T11:04:00.000Z</time>
      </trkpt>
      <trkpt lat="47.23116" lon="-1.47125">
        <ele>55</ele>
        <time>2021-02-27T11:04:02.000Z</time>
      </trkpt>
      <trkpt lat="47.23125" lon="-1.47114">
        <ele>55</ele>
        <time>2021-02-27T11:04:04.000Z</time>
      </trkpt>
      <trkpt lat="47.23135" lon="-1.47102">
        <ele>54</ele>
        <time>2021-02-27T11:04:06.000Z</time>
      </trkpt>
      <trkpt lat="47.2314" lon="-1.47088">
        <ele>54</ele>
        <time>2021-02-27T11:04:08.000Z</time>
      </trkpt>
      <trkpt lat="47.2313" lon="-1.47076">
        <ele>54</ele>
        <time>2021-02-27T11:04:10.000Z</time>
      </trkpt>
      <trkpt lat="47.23123" lon="-1.47063">
        <ele>54</ele>
        <time>2021-02-27T11:04:12.000Z</time>
      </trkpt>
      <trkpt lat="47.23117" lon="-1.47051">
        <ele>53</ele>
        <time>2021-02-27T11:04:14.000Z</time>
      </trkpt>
      <trkpt lat="47.23111" lon="-1.47039">
        <ele>53</ele>
        <time>2021-02-27T11:04:16.000Z</time>
      </trkpt>
      <trkpt lat="47.23105" lon="-1.47028">
        <ele>53</ele>
        <time>2021-02-27T11:04:18.000Z</time>
      </trkpt>
      <trkpt lat="47.23099" lon="-1.47017">
        <ele>54</ele>
        <time>2021-02-27T11:04:20.000Z</time>
      </trkpt>
      <trkpt lat="47.23094" lon="-1.47006">
        <ele>54</ele>
        <time>2021-02-27T11:04:22.000Z</time>
      </trkpt>
      <trkpt lat="47.23087" lon="-1.46991">
        <ele>55</ele>
        <time>2021-02-27T11:04:25.000Z</time>
      </trkpt>
      <trkpt lat="47.23077" lon="-1.46987">
        <ele>55</ele>
        <time>2021-02-27T11:04:28.000Z</time>
      </trkpt>
      <trkpt lat="47.23076" lon="-1.47001">
        <ele>56</ele>
        <time>2021-02-27T11:04:31.000Z</time>
      </trkpt>
      <trkpt lat="47.23082" lon="-1.47013">
        <ele>56</ele>
        <time>2021-02-27T11:04:33.000Z</time>
      </trkpt>
      <trkpt lat="47.2309" lon="-1.47025">
        <ele>56</ele>
        <time>2021-02-27T11:04:35.000Z</time>
      </trkpt>
      <trkpt lat="47.23098" lon="-1.47039">
        <ele>57</ele>
        <time>2021-02-27T11:04:37.000Z</time>
      </trkpt>
      <trkpt lat="47.23106" lon="-1.47052">
        <ele>58</ele>
        <time>2021-02-27T11:04:39.000Z</time>
      </trkpt>
      <trkpt lat="47.23114" lon="-1.47067">
        <ele>59</ele>
        <time>2021-02-27T11:04:41.000Z</time>
      </trkpt>
      <trkpt lat="47.2312" lon="-1.47081">
        <ele>59</ele>
        <time>2021-02-27T11:04:43.000Z</time>
      </trkpt>
      <trkpt lat="47.23127" lon="-1.47096">
        <ele>59</ele>
        <time>2021-02-27T11:04:45.000Z</time>
      </trkpt>
      <trkpt lat="47.23135" lon="-1.4711">
        <ele>60</ele>
        <time>2021-02-27T11:04:47.000Z</time>
      </trkpt>
      <trkpt lat="47.23143" lon="-1.47124">
        <ele>60</ele>
        <time>2021-02-27T11:04:49.000Z</time>
      </trkpt>
      <trkpt lat="47.23151" lon="-1.47139">
        <ele>61</ele>
        <time>2021-02-27T11:04:51.000Z</time>
      </trkpt>
      <trkpt lat="47.23159" lon="-1.47153">
        <ele>61</ele>
        <time>2021-02-27T11:04:53.000Z</time>
      </trkpt>
      <trkpt lat="47.23168" lon="-1.47167">
        <ele>61</ele>
        <time>2021-02-27T11:04:55.000Z</time>
      </trkpt>
      <trkpt lat="47.23176" lon="-1.47181">
        <ele>61</ele>
        <time>2021-02-27T11:04:57.000Z</time>
      </trkpt>
      <trkpt lat="47.23184" lon="-1.47195">
        <ele>62</ele>
        <time>2021-02-27T11:04:59.000Z</time>
      </trkpt>
      <trkpt lat="47.23192" lon="-1.4721">
        <ele>62</ele>
        <time>2021-02-27T11:05:01.000Z</time>
      </trkpt>
      <trkpt lat="47.232" lon="-1.47224">
        <ele>62</ele>
        <time>2021-02-27T11:05:03.000Z</time>
      </trkpt>
      <trkpt lat="47.23209" lon="-1.47239">
        <ele>62</ele>
        <time>2021-02-27T11:05:05.000Z</time>
      </trkpt>
      <trkpt lat="47.23217" lon="-1.47253">
        <ele>62</ele>
        <time>2021-02-27T11:05:07.000Z</time>
      </trkpt>
      <trkpt lat="47.23226" lon="-1.47267">
        <ele>62</ele>
        <time>2021-02-27T11:05:09.000Z</time>
      </trkpt>
      <trkpt lat="47.23234" lon="-1.47281">
        <ele>63</ele>
        <time>2021-02-27T11:05:11.000Z</time>
      </trkpt>
      <trkpt lat="47.23242" lon="-1.47296">
        <ele>63</ele>
        <time>2021-02-27T11:05:13.000Z</time>
      </trkpt>
      <trkpt lat="47.2325" lon="-1.4731">
        <ele>63</ele>
        <time>2021-02-27T11:05:15.000Z</time>
      </trkpt>
      <trkpt lat="47.23259" lon="-1.47325">
        <ele>63</ele>
        <time>2021-02-27T11:05:17.000Z</time>
      </trkpt>
      <trkpt lat="47.23267" lon="-1.47338">
        <ele>63</ele>
        <time>2021-02-27T11:05:19.000Z</time>
      </trkpt>
      <trkpt lat="47.23276" lon="-1.47352">
        <ele>63</ele>
        <time>2021-02-27T11:05:21.000Z</time>
      </trkpt>
      <trkpt lat="47.23285" lon="-1.47366">
        <ele>64</ele>
        <time>2021-02-27T11:05:23.000Z</time>
      </trkpt>
      <trkpt lat="47.23293" lon="-1.47381">
        <ele>63</ele>
        <time>2021-02-27T11:05:25.000Z</time>
      </trkpt>
      <trkpt lat="47.23301" lon="-1.47396">
        <ele>63</ele>
        <time>2021-02-27T11:05:27.000Z</time>
      </trkpt>
      <trkpt lat="47.2331" lon="-1.47411">
        <ele>63</ele>
        <time>2021-02-27T11:05:29.000Z</time>
      </trkpt>
      <trkpt lat="47.23319" lon="-1.47426">
        <ele>62</ele>
        <time>2021-02-27T11:05:31.000Z</time>
      </trkpt>
      <trkpt lat="47.23328" lon="-1.4744">
        <ele>62</ele>
        <time>2021-02-27T11:05:33.000Z</time>
      </trkpt>
      <trkpt lat="47.23337" lon="-1.47455">
        <ele>62</ele>
        <time>2021-02-27T11:05:35.000Z</time>
      </trkpt>
      <trkpt lat="47.23345" lon="-1.4747">
        <ele>62</ele>
        <time>2021-02-27T11:05:37.000Z</time>
      </trkpt>
      <trkpt lat="47.23354" lon="-1.47485">
        <ele>61</ele>
        <time>2021-02-27T11:05:39.000Z</time>
      </trkpt>
      <trkpt lat="47.23364" lon="-1.475">
        <ele>61</ele>
        <time>2021-02-27T11:05:41.000Z</time>
      </trkpt>
      <trkpt lat="47.23375" lon="-1.47514">
        <ele>60</ele>
        <time>2021-02-27T11:05:43.000Z</time>
      </trkpt>
      <trkpt lat="47.23386" lon="-1.47528">
        <ele>59</ele>
        <time>2021-02-27T11:05:45.000Z</time>
      </trkpt>
      <trkpt lat="47.23396" lon="-1.47544">
        <ele>59</ele>
        <time>2021-02-27T11:05:47.000Z</time>
      </trkpt>
      <trkpt lat="47.23406" lon="-1.47559">
        <ele>59</ele>
        <time>2021-02-27T11:05:49.000Z</time>
      </trkpt>
      <trkpt lat="47.23417" lon="-1.47575">
        <ele>58</ele>
        <time>2021-02-27T11:05:51.000Z</time>
      </trkpt>
      <trkpt lat="47.23427" lon="-1.4759">
        <ele>58</ele>
        <time>2021-02-27T11:05:53.000Z</time>
      </trkpt>
      <trkpt lat="47.23437" lon="-1.47604">
        <ele>58</ele>
        <time>2021-02-27T11:05:55.000Z</time>
      </trkpt>
      <trkpt lat="47.23447" lon="-1.47619">
        <ele>58</ele>
        <time>2021-02-27T11:05:57.000Z</time>
      </trkpt>
      <trkpt lat="47.23457" lon="-1.47634">
        <ele>58</ele>
        <time>2021-02-27T11:05:59.000Z</time>
      </trkpt>
      <trkpt lat="47.23468" lon="-1.47646">
        <ele>58</ele>
        <time>2021-02-27T11:06:01.000Z</time>
      </trkpt>
      <trkpt lat="47.23479" lon="-1.47656">
        <ele>57</ele>
        <time>2021-02-27T11:06:03.000Z</time>
      </trkpt>
      <trkpt lat="47.23492" lon="-1.47666">
        <ele>57</ele>
        <time>2021-02-27T11:06:05.000Z</time>
      </trkpt>
      <trkpt lat="47.23504" lon="-1.47676">
        <ele>57</ele>
        <time>2021-02-27T11:06:07.000Z</time>
      </trkpt>
      <trkpt lat="47.23517" lon="-1.47684">
        <ele>56</ele>
        <time>2021-02-27T11:06:09.000Z</time>
      </trkpt>
      <trkpt lat="47.23528" lon="-1.4769">
        <ele>56</ele>
        <time>2021-02-27T11:06:11.000Z</time>
      </trkpt>
      <trkpt lat="47.2354" lon="-1.47697">
        <ele>56</ele>
        <time>2021-02-27T11:06:13.000Z</time>
      </trkpt>
      <trkpt lat="47.23551" lon="-1.47698">
        <ele>56</ele>
        <time>2021-02-27T11:06:15.000Z</time>
      </trkpt>
      <trkpt lat="47.23561" lon="-1.47691">
        <ele>55</ele>
        <time>2021-02-27T11:06:17.000Z</time>
      </trkpt>
      <trkpt lat="47.23573" lon="-1.47685">
        <ele>55</ele>
        <time>2021-02-27T11:06:20.000Z</time>
      </trkpt>
      <trkpt lat="47.23585" lon="-1.47689">
        <ele>55</ele>
        <time>2021-02-27T11:06:22.000Z</time>
      </trkpt>
      <trkpt lat="47.23598" lon="-1.47698">
        <ele>54</ele>
        <time>2021-02-27T11:06:24.000Z</time>
      </trkpt>
      <trkpt lat="47.2361" lon="-1.47706">
        <ele>54</ele>
        <time>2021-02-27T11:06:26.000Z</time>
      </trkpt>
      <trkpt lat="47.23623" lon="-1.47714">
        <ele>54</ele>
        <time>2021-02-27T11:06:28.000Z</time>
      </trkpt>
      <trkpt lat="47.23637" lon="-1.47722">
        <ele>54</ele>
        <time>2021-02-27T11:06:30.000Z</time>
      </trkpt>
      <trkpt lat="47.2365" lon="-1.47731">
        <ele>54</ele>
        <time>2021-02-27T11:06:32.000Z</time>
      </trkpt>
      <trkpt lat="47.23663" lon="-1.47739">
        <ele>53</ele>
        <time>2021-02-27T11:06:34.000Z</time>
      </trkpt>
      <trkpt lat="47.23676" lon="-1.47745">
        <ele>53</ele>
        <time>2021-02-27T11:06:36.000Z</time>
      </trkpt>
      <trkpt lat="47.23689" lon="-1.47746">
        <ele>53</ele>
        <time>2021-02-27T11:06:38.000Z</time>
      </trkpt>
      <trkpt lat="47.23702" lon="-1.47743">
        <ele>53</ele>
        <time>2021-02-27T11:06:40.000Z</time>
      </trkpt>
      <trkpt lat="47.23714" lon="-1.47736">
        <ele>54</ele>
        <time>2021-02-27T11:06:42.000Z</time>
      </trkpt>
      <trkpt lat="47.23726" lon="-1.47727">
        <ele>54</ele>
        <time>2021-02-27T11:06:44.000Z</time>
      </trkpt>
      <trkpt lat="47.23737" lon="-1.47716">
        <ele>54</ele>
        <time>2021-02-27T11:06:46.000Z</time>
      </trkpt>
      <trkpt lat="47.23748" lon="-1.47704">
        <ele>54</ele>
        <time>2021-02-27T11:06:48.000Z</time>
      </trkpt>
      <trkpt lat="47.23758" lon="-1.47692">
        <ele>54</ele>
        <time>2021-02-27T11:06:50.000Z</time>
      </trkpt>
      <trkpt lat="47.23769" lon="-1.47682">
        <ele>54</ele>
        <time>2021-02-27T11:06:52.000Z</time>
      </trkpt>
      <trkpt lat="47.23781" lon="-1.47675">
        <ele>55</ele>
        <time>2021-02-27T11:06:54.000Z</time>
      </trkpt>
      <trkpt lat="47.23793" lon="-1.47668">
        <ele>55</ele>
        <time>2021-02-27T11:06:56.000Z</time>
      </trkpt>
      <trkpt lat="47.23803" lon="-1.47658">
        <ele>56</ele>
        <time>2021-02-27T11:06:58.000Z</time>
      </trkpt>
      <trkpt lat="47.23814" lon="-1.47651">
        <ele>56</ele>
        <time>2021-02-27T11:07:00.000Z</time>
      </trkpt>
      <trkpt lat="47.23827" lon="-1.47649">
        <ele>55</ele>
        <time>2021-02-27T11:07:02.000Z</time>
      </trkpt>
      <trkpt lat="47.23839" lon="-1.47644">
        <ele>55</ele>
        <time>2021-02-27T11:07:04.000Z</time>
      </trkpt>
      <trkpt lat="47.23852" lon="-1.47639">
        <ele>55</ele>
        <time>2021-02-27T11:07:06.000Z</time>
      </trkpt>
      <trkpt lat="47.23864" lon="-1.47633">
        <ele>55</ele>
        <time>2021-02-27T11:07:08.000Z</time>
      </trkpt>
      <trkpt lat="47.23876" lon="-1.47628">
        <ele>55</ele>
        <time>2021-02-27T11:07:10.000Z</time>
      </trkpt>
      <trkpt lat="47.23888" lon="-1.47626">
        <ele>55</ele>
        <time>2021-02-27T11:07:12.000Z</time>
      </trkpt>
      <trkpt lat="47.23901" lon="-1.47625">
        <ele>55</ele>
        <time>2021-02-27T11:07:14.000Z</time>
      </trkpt>
      <trkpt lat="47.23913" lon="-1.47628">
        <ele>55</ele>
        <time>2021-02-27T11:07:16.000Z</time>
      </trkpt>
      <trkpt lat="47.23924" lon="-1.47632">
        <ele>55</ele>
        <time>2021-02-27T11:07:18.000Z</time>
      </trkpt>
      <trkpt lat="47.23936" lon="-1.47639">
        <ele>54</ele>
        <time>2021-02-27T11:07:20.000Z</time>
      </trkpt>
      <trkpt lat="47.23948" lon="-1.47649">
        <ele>54</ele>
        <time>2021-02-27T11:07:22.000Z</time>
      </trkpt>
      <trkpt lat="47.23958" lon="-1.47662">
        <ele>54</ele>
        <time>2021-02-27T11:07:24.000Z</time>
      </trkpt>
      <trkpt lat="47.23967" lon="-1.47677">
        <ele>54</ele>
        <time>2021-02-27T11:07:26.000Z</time>
      </trkpt>
      <trkpt lat="47.23975" lon="-1.47695">
        <ele>54</ele>
        <time>2021-02-27T11:07:28.000Z</time>
      </trkpt>
      <trkpt lat="47.23984" lon="-1.47713">
        <ele>54</ele>
        <time>2021-02-27T11:07:30.000Z</time>
      </trkpt>
      <trkpt lat="47.23991" lon="-1.4773">
        <ele>54</ele>
        <time>2021-02-27T11:07:32.000Z</time>
      </trkpt>
      <trkpt lat="47.24001" lon="-1.47754">
        <ele>55</ele>
        <time>2021-02-27T11:07:35.000Z</time>
      </trkpt>
      <trkpt lat="47.2401" lon="-1.47776">
        <ele>55</ele>
        <time>2021-02-27T11:07:38.000Z</time>
      </trkpt>
      <trkpt lat="47.24015" lon="-1.47792">
        <ele>55</ele>
        <time>2021-02-27T11:07:40.000Z</time>
      </trkpt>
      <trkpt lat="47.24023" lon="-1.47807">
        <ele>55</ele>
        <time>2021-02-27T11:07:42.000Z</time>
      </trkpt>
      <trkpt lat="47.24031" lon="-1.47824">
        <ele>55</ele>
        <time>2021-02-27T11:07:44.000Z</time>
      </trkpt>
      <trkpt lat="47.2404" lon="-1.4785">
        <ele>55</ele>
        <time>2021-02-27T11:07:47.000Z</time>
      </trkpt>
      <trkpt lat="47.24046" lon="-1.47867">
        <ele>55</ele>
        <time>2021-02-27T11:07:49.000Z</time>
      </trkpt>
      <trkpt lat="47.24052" lon="-1.47885">
        <ele>54</ele>
        <time>2021-02-27T11:07:51.000Z</time>
      </trkpt>
      <trkpt lat="47.24057" lon="-1.47903">
        <ele>54</ele>
        <time>2021-02-27T11:07:53.000Z</time>
      </trkpt>
      <trkpt lat="47.24063" lon="-1.47922">
        <ele>54</ele>
        <time>2021-02-27T11:07:55.000Z</time>
      </trkpt>
      <trkpt lat="47.24072" lon="-1.4795">
        <ele>54</ele>
        <time>2021-02-27T11:07:58.000Z</time>
      </trkpt>
      <trkpt lat="47.24078" lon="-1.4797">
        <ele>54</ele>
        <time>2021-02-27T11:08:00.000Z</time>
      </trkpt>
      <trkpt lat="47.24089" lon="-1.47999">
        <ele>53</ele>
        <time>2021-02-27T11:08:03.000Z</time>
      </trkpt>
      <trkpt lat="47.24098" lon="-1.4802">
        <ele>52</ele>
        <time>2021-02-27T11:08:05.000Z</time>
      </trkpt>
      <trkpt lat="47.24108" lon="-1.4804">
        <ele>52</ele>
        <time>2021-02-27T11:08:07.000Z</time>
      </trkpt>
      <trkpt lat="47.24118" lon="-1.48059">
        <ele>52</ele>
        <time>2021-02-27T11:08:09.000Z</time>
      </trkpt>
      <trkpt lat="47.24129" lon="-1.48077">
        <ele>52</ele>
        <time>2021-02-27T11:08:11.000Z</time>
      </trkpt>
      <trkpt lat="47.24147" lon="-1.48099">
        <ele>52</ele>
        <time>2021-02-27T11:08:14.000Z</time>
      </trkpt>
      <trkpt lat="47.2416" lon="-1.48111">
        <ele>53</ele>
        <time>2021-02-27T11:08:16.000Z</time>
      </trkpt>
      <trkpt lat="47.24171" lon="-1.48121">
        <ele>53</ele>
        <time>2021-02-27T11:08:18.000Z</time>
      </trkpt>
      <trkpt lat="47.24189" lon="-1.48135">
        <ele>53</ele>
        <time>2021-02-27T11:08:21.000Z</time>
      </trkpt>
      <trkpt lat="47.24201" lon="-1.48145">
        <ele>53</ele>
        <time>2021-02-27T11:08:23.000Z</time>
      </trkpt>
      <trkpt lat="47.24213" lon="-1.48154">
        <ele>53</ele>
        <time>2021-02-27T11:08:25.000Z</time>
      </trkpt>
      <trkpt lat="47.24232" lon="-1.48166">
        <ele>52</ele>
        <time>2021-02-27T11:08:28.000Z</time>
      </trkpt>
      <trkpt lat="47.24245" lon="-1.48173">
        <ele>50</ele>
        <time>2021-02-27T11:08:30.000Z</time>
      </trkpt>
      <trkpt lat="47.24258" lon="-1.4818">
        <ele>51</ele>
        <time>2021-02-27T11:08:32.000Z</time>
      </trkpt>
      <trkpt lat="47.2427" lon="-1.48188">
        <ele>52</ele>
        <time>2021-02-27T11:08:34.000Z</time>
      </trkpt>
      <trkpt lat="47.24283" lon="-1.48197">
        <ele>52</ele>
        <time>2021-02-27T11:08:36.000Z</time>
      </trkpt>
      <trkpt lat="47.24295" lon="-1.48206">
        <ele>53</ele>
        <time>2021-02-27T11:08:38.000Z</time>
      </trkpt>
      <trkpt lat="47.24307" lon="-1.48217">
        <ele>53</ele>
        <time>2021-02-27T11:08:40.000Z</time>
      </trkpt>
      <trkpt lat="47.24318" lon="-1.48227">
        <ele>53</ele>
        <time>2021-02-27T11:08:42.000Z</time>
      </trkpt>
      <trkpt lat="47.24329" lon="-1.48236">
        <ele>53</ele>
        <time>2021-02-27T11:08:44.000Z</time>
      </trkpt>
      <trkpt lat="47.24341" lon="-1.48242">
        <ele>53</ele>
        <time>2021-02-27T11:08:46.000Z</time>
      </trkpt>
      <trkpt lat="47.24351" lon="-1.48249">
        <ele>54</ele>
        <time>2021-02-27T11:08:48.000Z</time>
      </trkpt>
      <trkpt lat="47.24359" lon="-1.48263">
        <ele>54</ele>
        <time>2021-02-27T11:08:50.000Z</time>
      </trkpt>
      <trkpt lat="47.24366" lon="-1.48279">
        <ele>54</ele>
        <time>2021-02-27T11:08:52.000Z</time>
      </trkpt>
      <trkpt lat="47.24376" lon="-1.48293">
        <ele>54</ele>
        <time>2021-02-27T11:08:54.000Z</time>
      </trkpt>
      <trkpt lat="47.24386" lon="-1.48306">
        <ele>54</ele>
        <time>2021-02-27T11:08:56.000Z</time>
      </trkpt>
      <trkpt lat="47.24397" lon="-1.48319">
        <ele>54</ele>
        <time>2021-02-27T11:08:58.000Z</time>
      </trkpt>
      <trkpt lat="47.24407" lon="-1.48332">
        <ele>54</ele>
        <time>2021-02-27T11:09:00.000Z</time>
      </trkpt>
      <trkpt lat="47.24417" lon="-1.48343">
        <ele>54</ele>
        <time>2021-02-27T11:09:02.000Z</time>
      </trkpt>
      <trkpt lat="47.24428" lon="-1.48352">
        <ele>53</ele>
        <time>2021-02-27T11:09:04.000Z</time>
      </trkpt>
      <trkpt lat="47.2444" lon="-1.48358">
        <ele>53</ele>
        <time>2021-02-27T11:09:06.000Z</time>
      </trkpt>
      <trkpt lat="47.24453" lon="-1.48364">
        <ele>54</ele>
        <time>2021-02-27T11:09:08.000Z</time>
      </trkpt>
      <trkpt lat="47.24464" lon="-1.4837">
        <ele>53</ele>
        <time>2021-02-27T11:09:10.000Z</time>
      </trkpt>
      <trkpt lat="47.24475" lon="-1.4838">
        <ele>54</ele>
        <time>2021-02-27T11:09:12.000Z</time>
      </trkpt>
      <trkpt lat="47.24487" lon="-1.48388">
        <ele>54</ele>
        <time>2021-02-27T11:09:14.000Z</time>
      </trkpt>
      <trkpt lat="47.24499" lon="-1.48394">
        <ele>54</ele>
        <time>2021-02-27T11:09:16.000Z</time>
      </trkpt>
      <trkpt lat="47.24511" lon="-1.48401">
        <ele>55</ele>
        <time>2021-02-27T11:09:18.000Z</time>
      </trkpt>
      <trkpt lat="47.24522" lon="-1.48411">
        <ele>55</ele>
        <time>2021-02-27T11:09:20.000Z</time>
      </trkpt>
      <trkpt lat="47.24534" lon="-1.48422">
        <ele>55</ele>
        <time>2021-02-27T11:09:22.000Z</time>
      </trkpt>
      <trkpt lat="47.24545" lon="-1.48434">
        <ele>55</ele>
        <time>2021-02-27T11:09:24.000Z</time>
      </trkpt>
      <trkpt lat="47.24561" lon="-1.48452">
        <ele>55</ele>
        <time>2021-02-27T11:09:27.000Z</time>
      </trkpt>
      <trkpt lat="47.24571" lon="-1.48464">
        <ele>55</ele>
        <time>2021-02-27T11:09:29.000Z</time>
      </trkpt>
      <trkpt lat="47.24581" lon="-1.48476">
        <ele>55</ele>
        <time>2021-02-27T11:09:31.000Z</time>
      </trkpt>
      <trkpt lat="47.24592" lon="-1.48488">
        <ele>55</ele>
        <time>2021-02-27T11:09:33.000Z</time>
      </trkpt>
      <trkpt lat="47.24601" lon="-1.48499">
        <ele>55</ele>
        <time>2021-02-27T11:09:35.000Z</time>
      </trkpt>
      <trkpt lat="47.24611" lon="-1.48511">
        <ele>55</ele>
        <time>2021-02-27T11:09:37.000Z</time>
      </trkpt>
      <trkpt lat="47.2462" lon="-1.48522">
        <ele>55</ele>
        <time>2021-02-27T11:09:39.000Z</time>
      </trkpt>
      <trkpt lat="47.2463" lon="-1.48534">
        <ele>54</ele>
        <time>2021-02-27T11:09:41.000Z</time>
      </trkpt>
      <trkpt lat="47.24639" lon="-1.48546">
        <ele>54</ele>
        <time>2021-02-27T11:09:43.000Z</time>
      </trkpt>
      <trkpt lat="47.24648" lon="-1.48556">
        <ele>55</ele>
        <time>2021-02-27T11:09:45.000Z</time>
      </trkpt>
      <trkpt lat="47.24658" lon="-1.48565">
        <ele>55</ele>
        <time>2021-02-27T11:09:47.000Z</time>
      </trkpt>
      <trkpt lat="47.24672" lon="-1.48578">
        <ele>56</ele>
        <time>2021-02-27T11:09:50.000Z</time>
      </trkpt>
      <trkpt lat="47.24682" lon="-1.48587">
        <ele>56</ele>
        <time>2021-02-27T11:09:52.000Z</time>
      </trkpt>
      <trkpt lat="47.24691" lon="-1.48596">
        <ele>57</ele>
        <time>2021-02-27T11:09:54.000Z</time>
      </trkpt>
      <trkpt lat="47.24701" lon="-1.48605">
        <ele>57</ele>
        <time>2021-02-27T11:09:56.000Z</time>
      </trkpt>
      <trkpt lat="47.2471" lon="-1.48613">
        <ele>57</ele>
        <time>2021-02-27T11:09:58.000Z</time>
      </trkpt>
      <trkpt lat="47.24719" lon="-1.48621">
        <ele>57</ele>
        <time>2021-02-27T11:10:00.000Z</time>
      </trkpt>
      <trkpt lat="47.24729" lon="-1.48628">
        <ele>57</ele>
        <time>2021-02-27T11:10:02.000Z</time>
      </trkpt>
      <trkpt lat="47.2474" lon="-1.48627">
        <ele>57</ele>
        <time>2021-02-27T11:10:04.000Z</time>
      </trkpt>
      <trkpt lat="47.24755" lon="-1.48626">
        <ele>58</ele>
        <time>2021-02-27T11:10:07.000Z</time>
      </trkpt>
      <trkpt lat="47.24765" lon="-1.48633">
        <ele>58</ele>
        <time>2021-02-27T11:10:09.000Z</time>
      </trkpt>
      <trkpt lat="47.24772" lon="-1.48643">
        <ele>58</ele>
        <time>2021-02-27T11:10:11.000Z</time>
      </trkpt>
      <trkpt lat="47.24783" lon="-1.48646">
        <ele>59</ele>
        <time>2021-02-27T11:10:13.000Z</time>
      </trkpt>
      <trkpt lat="47.24793" lon="-1.48645">
        <ele>59</ele>
        <time>2021-02-27T11:10:15.000Z</time>
      </trkpt>
      <trkpt lat="47.24804" lon="-1.48646">
        <ele>59</ele>
        <time>2021-02-27T11:10:17.000Z</time>
      </trkpt>
      <trkpt lat="47.24816" lon="-1.48647">
        <ele>59</ele>
        <time>2021-02-27T11:10:19.000Z</time>
      </trkpt>
      <trkpt lat="47.24827" lon="-1.48648">
        <ele>59</ele>
        <time>2021-02-27T11:10:21.000Z</time>
      </trkpt>
      <trkpt lat="47.24837" lon="-1.48649">
        <ele>60</ele>
        <time>2021-02-27T11:10:23.000Z</time>
      </trkpt>
      <trkpt lat="47.24847" lon="-1.48651">
        <ele>60</ele>
        <time>2021-02-27T11:10:25.000Z</time>
      </trkpt>
      <trkpt lat="47.24856" lon="-1.48654">
        <ele>60</ele>
        <time>2021-02-27T11:10:27.000Z</time>
      </trkpt>
      <trkpt lat="47.24867" lon="-1.48657">
        <ele>60</ele>
        <time>2021-02-27T11:10:29.000Z</time>
      </trkpt>
      <trkpt lat="47.24877" lon="-1.48659">
        <ele>61</ele>
        <time>2021-02-27T11:10:31.000Z</time>
      </trkpt>
      <trkpt lat="47.24888" lon="-1.48661">
        <ele>61</ele>
        <time>2021-02-27T11:10:33.000Z</time>
      </trkpt>
      <trkpt lat="47.24899" lon="-1.48664">
        <ele>61</ele>
        <time>2021-02-27T11:10:35.000Z</time>
      </trkpt>
      <trkpt lat="47.24909" lon="-1.48668">
        <ele>62</ele>
        <time>2021-02-27T11:10:37.000Z</time>
      </trkpt>
      <trkpt lat="47.24919" lon="-1.48672">
        <ele>62</ele>
        <time>2021-02-27T11:10:39.000Z</time>
      </trkpt>
      <trkpt lat="47.24929" lon="-1.48676">
        <ele>62</ele>
        <time>2021-02-27T11:10:41.000Z</time>
      </trkpt>
      <trkpt lat="47.24937" lon="-1.48681">
        <ele>62</ele>
        <time>2021-02-27T11:10:43.000Z</time>
      </trkpt>
      <trkpt lat="47.24951" lon="-1.48681">
        <ele>63</ele>
        <time>2021-02-27T11:10:46.000Z</time>
      </trkpt>
      <trkpt lat="47.24963" lon="-1.48692">
        <ele>63</ele>
        <time>2021-02-27T11:10:49.000Z</time>
      </trkpt>
      <trkpt lat="47.24971" lon="-1.48701">
        <ele>63</ele>
        <time>2021-02-27T11:10:51.000Z</time>
      </trkpt>
      <trkpt lat="47.24983" lon="-1.48705">
        <ele>64</ele>
        <time>2021-02-27T11:10:53.000Z</time>
      </trkpt>
      <trkpt lat="47.24994" lon="-1.48709">
        <ele>65</ele>
        <time>2021-02-27T11:10:55.000Z</time>
      </trkpt>
      <trkpt lat="47.25004" lon="-1.48715">
        <ele>66</ele>
        <time>2021-02-27T11:10:57.000Z</time>
      </trkpt>
      <trkpt lat="47.25014" lon="-1.48721">
        <ele>66</ele>
        <time>2021-02-27T11:10:59.000Z</time>
      </trkpt>
      <trkpt lat="47.25025" lon="-1.48727">
        <ele>66</ele>
        <time>2021-02-27T11:11:01.000Z</time>
      </trkpt>
      <trkpt lat="47.25036" lon="-1.4873">
        <ele>66</ele>
        <time>2021-02-27T11:11:03.000Z</time>
      </trkpt>
      <trkpt lat="47.25048" lon="-1.48732">
        <ele>66</ele>
        <time>2021-02-27T11:11:05.000Z</time>
      </trkpt>
      <trkpt lat="47.2506" lon="-1.48737">
        <ele>66</ele>
        <time>2021-02-27T11:11:07.000Z</time>
      </trkpt>
      <trkpt lat="47.25071" lon="-1.4874">
        <ele>66</ele>
        <time>2021-02-27T11:11:09.000Z</time>
      </trkpt>
      <trkpt lat="47.25083" lon="-1.48741">
        <ele>65</ele>
        <time>2021-02-27T11:11:11.000Z</time>
      </trkpt>
      <trkpt lat="47.25094" lon="-1.48745">
        <ele>65</ele>
        <time>2021-02-27T11:11:13.000Z</time>
      </trkpt>
      <trkpt lat="47.25105" lon="-1.48748">
        <ele>65</ele>
        <time>2021-02-27T11:11:15.000Z</time>
      </trkpt>
      <trkpt lat="47.25117" lon="-1.4875">
        <ele>65</ele>
        <time>2021-02-27T11:11:17.000Z</time>
      </trkpt>
      <trkpt lat="47.25128" lon="-1.48749">
        <ele>66</ele>
        <time>2021-02-27T11:11:19.000Z</time>
      </trkpt>
      <trkpt lat="47.25139" lon="-1.48748">
        <ele>66</ele>
        <time>2021-02-27T11:11:21.000Z</time>
      </trkpt>
      <trkpt lat="47.2515" lon="-1.48745">
        <ele>66</ele>
        <time>2021-02-27T11:11:23.000Z</time>
      </trkpt>
      <trkpt lat="47.25161" lon="-1.48743">
        <ele>66</ele>
        <time>2021-02-27T11:11:25.000Z</time>
      </trkpt>
      <trkpt lat="47.25172" lon="-1.48741">
        <ele>66</ele>
        <time>2021-02-27T11:11:27.000Z</time>
      </trkpt>
      <trkpt lat="47.25183" lon="-1.4874">
        <ele>66</ele>
        <time>2021-02-27T11:11:29.000Z</time>
      </trkpt>
      <trkpt lat="47.25194" lon="-1.48738">
        <ele>66</ele>
        <time>2021-02-27T11:11:31.000Z</time>
      </trkpt>
      <trkpt lat="47.25205" lon="-1.48737">
        <ele>66</ele>
        <time>2021-02-27T11:11:33.000Z</time>
      </trkpt>
      <trkpt lat="47.25216" lon="-1.48735">
        <ele>66</ele>
        <time>2021-02-27T11:11:35.000Z</time>
      </trkpt>
      <trkpt lat="47.25227" lon="-1.48735">
        <ele>66</ele>
        <time>2021-02-27T11:11:37.000Z</time>
      </trkpt>
      <trkpt lat="47.25237" lon="-1.48734">
        <ele>67</ele>
        <time>2021-02-27T11:11:39.000Z</time>
      </trkpt>
      <trkpt lat="47.25247" lon="-1.48733">
        <ele>67</ele>
        <time>2021-02-27T11:11:41.000Z</time>
      </trkpt>
      <trkpt lat="47.25259" lon="-1.48733">
        <ele>67</ele>
        <time>2021-02-27T11:11:43.000Z</time>
      </trkpt>
      <trkpt lat="47.2527" lon="-1.48734">
        <ele>66</ele>
        <time>2021-02-27T11:11:45.000Z</time>
      </trkpt>
      <trkpt lat="47.2528" lon="-1.48731">
        <ele>66</ele>
        <time>2021-02-27T11:11:47.000Z</time>
      </trkpt>
      <trkpt lat="47.2529" lon="-1.48735">
        <ele>67</ele>
        <time>2021-02-27T11:11:49.000Z</time>
      </trkpt>
      <trkpt lat="47.25298" lon="-1.48744">
        <ele>67</ele>
        <time>2021-02-27T11:11:51.000Z</time>
      </trkpt>
      <trkpt lat="47.25309" lon="-1.4875">
        <ele>67</ele>
        <time>2021-02-27T11:11:53.000Z</time>
      </trkpt>
      <trkpt lat="47.2532" lon="-1.48754">
        <ele>68</ele>
        <time>2021-02-27T11:11:55.000Z</time>
      </trkpt>
      <trkpt lat="47.25331" lon="-1.48757">
        <ele>68</ele>
        <time>2021-02-27T11:11:57.000Z</time>
      </trkpt>
      <trkpt lat="47.25343" lon="-1.4876">
        <ele>67</ele>
        <time>2021-02-27T11:11:59.000Z</time>
      </trkpt>
      <trkpt lat="47.25355" lon="-1.48764">
        <ele>68</ele>
        <time>2021-02-27T11:12:01.000Z</time>
      </trkpt>
      <trkpt lat="47.25366" lon="-1.48766">
        <ele>68</ele>
        <time>2021-02-27T11:12:03.000Z</time>
      </trkpt>
      <trkpt lat="47.25377" lon="-1.48769">
        <ele>68</ele>
        <time>2021-02-27T11:12:05.000Z</time>
      </trkpt>
      <trkpt lat="47.25388" lon="-1.48771">
        <ele>68</ele>
        <time>2021-02-27T11:12:07.000Z</time>
      </trkpt>
      <trkpt lat="47.25399" lon="-1.48772">
        <ele>68</ele>
        <time>2021-02-27T11:12:09.000Z</time>
      </trkpt>
      <trkpt lat="47.25409" lon="-1.48774">
        <ele>68</ele>
        <time>2021-02-27T11:12:11.000Z</time>
      </trkpt>
      <trkpt lat="47.25421" lon="-1.48774">
        <ele>69</ele>
        <time>2021-02-27T11:12:13.000Z</time>
      </trkpt>
      <trkpt lat="47.25432" lon="-1.48775">
        <ele>69</ele>
        <time>2021-02-27T11:12:15.000Z</time>
      </trkpt>
      <trkpt lat="47.25442" lon="-1.48775">
        <ele>69</ele>
        <time>2021-02-27T11:12:17.000Z</time>
      </trkpt>
      <trkpt lat="47.25453" lon="-1.48775">
        <ele>69</ele>
        <time>2021-02-27T11:12:19.000Z</time>
      </trkpt>
      <trkpt lat="47.25464" lon="-1.48774">
        <ele>69</ele>
        <time>2021-02-27T11:12:21.000Z</time>
      </trkpt>
      <trkpt lat="47.25475" lon="-1.48773">
        <ele>70</ele>
        <time>2021-02-27T11:12:23.000Z</time>
      </trkpt>
      <trkpt lat="47.25486" lon="-1.48771">
        <ele>70</ele>
        <time>2021-02-27T11:12:25.000Z</time>
      </trkpt>
      <trkpt lat="47.25496" lon="-1.48769">
        <ele>70</ele>
        <time>2021-02-27T11:12:27.000Z</time>
      </trkpt>
      <trkpt lat="47.25507" lon="-1.48766">
        <ele>71</ele>
        <time>2021-02-27T11:12:29.000Z</time>
      </trkpt>
      <trkpt lat="47.25517" lon="-1.48764">
        <ele>71</ele>
        <time>2021-02-27T11:12:31.000Z</time>
      </trkpt>
      <trkpt lat="47.25527" lon="-1.48761">
        <ele>71</ele>
        <time>2021-02-27T11:12:33.000Z</time>
      </trkpt>
      <trkpt lat="47.25537" lon="-1.48758">
        <ele>71</ele>
        <time>2021-02-27T11:12:35.000Z</time>
      </trkpt>
      <trkpt lat="47.25547" lon="-1.48755">
        <ele>71</ele>
        <time>2021-02-27T11:12:37.000Z</time>
      </trkpt>
      <trkpt lat="47.25557" lon="-1.48752">
        <ele>71</ele>
        <time>2021-02-27T11:12:39.000Z</time>
      </trkpt>
      <trkpt lat="47.25567" lon="-1.4875">
        <ele>72</ele>
        <time>2021-02-27T11:12:41.000Z</time>
      </trkpt>
      <trkpt lat="47.25576" lon="-1.48747">
        <ele>73</ele>
        <time>2021-02-27T11:12:43.000Z</time>
      </trkpt>
      <trkpt lat="47.25586" lon="-1.48745">
        <ele>73</ele>
        <time>2021-02-27T11:12:45.000Z</time>
      </trkpt>
      <trkpt lat="47.25596" lon="-1.48744">
        <ele>73</ele>
        <time>2021-02-27T11:12:47.000Z</time>
      </trkpt>
      <trkpt lat="47.25606" lon="-1.48743">
        <ele>73</ele>
        <time>2021-02-27T11:12:49.000Z</time>
      </trkpt>
      <trkpt lat="47.25617" lon="-1.48744">
        <ele>73</ele>
        <time>2021-02-27T11:12:51.000Z</time>
      </trkpt>
      <trkpt lat="47.25628" lon="-1.48745">
        <ele>73</ele>
        <time>2021-02-27T11:12:53.000Z</time>
      </trkpt>
      <trkpt lat="47.25638" lon="-1.48746">
        <ele>73</ele>
        <time>2021-02-27T11:12:55.000Z</time>
      </trkpt>
      <trkpt lat="47.25647" lon="-1.48749">
        <ele>73</ele>
        <time>2021-02-27T11:12:57.000Z</time>
      </trkpt>
      <trkpt lat="47.25657" lon="-1.48752">
        <ele>74</ele>
        <time>2021-02-27T11:12:59.000Z</time>
      </trkpt>
      <trkpt lat="47.25666" lon="-1.48753">
        <ele>75</ele>
        <time>2021-02-27T11:13:01.000Z</time>
      </trkpt>
      <trkpt lat="47.25676" lon="-1.4875">
        <ele>75</ele>
        <time>2021-02-27T11:13:03.000Z</time>
      </trkpt>
      <trkpt lat="47.25685" lon="-1.48755">
        <ele>75</ele>
        <time>2021-02-27T11:13:05.000Z</time>
      </trkpt>
      <trkpt lat="47.25696" lon="-1.48756">
        <ele>74</ele>
        <time>2021-02-27T11:13:07.000Z</time>
      </trkpt>
      <trkpt lat="47.25706" lon="-1.48757">
        <ele>74</ele>
        <time>2021-02-27T11:13:09.000Z</time>
      </trkpt>
      <trkpt lat="47.25716" lon="-1.48757">
        <ele>74</ele>
        <time>2021-02-27T11:13:11.000Z</time>
      </trkpt>
      <trkpt lat="47.25727" lon="-1.48756">
        <ele>74</ele>
        <time>2021-02-27T11:13:13.000Z</time>
      </trkpt>
      <trkpt lat="47.25737" lon="-1.48754">
        <ele>74</ele>
        <time>2021-02-27T11:13:15.000Z</time>
      </trkpt>
      <trkpt lat="47.25747" lon="-1.48752">
        <ele>73</ele>
        <time>2021-02-27T11:13:17.000Z</time>
      </trkpt>
      <trkpt lat="47.25757" lon="-1.48749">
        <ele>74</ele>
        <time>2021-02-27T11:13:19.000Z</time>
      </trkpt>
      <trkpt lat="47.25768" lon="-1.48746">
        <ele>73</ele>
        <time>2021-02-27T11:13:21.000Z</time>
      </trkpt>
      <trkpt lat="47.25778" lon="-1.48744">
        <ele>74</ele>
        <time>2021-02-27T11:13:23.000Z</time>
      </trkpt>
      <trkpt lat="47.25788" lon="-1.48741">
        <ele>74</ele>
        <time>2021-02-27T11:13:25.000Z</time>
      </trkpt>
      <trkpt lat="47.25799" lon="-1.4874">
        <ele>74</ele>
        <time>2021-02-27T11:13:27.000Z</time>
      </trkpt>
      <trkpt lat="47.2581" lon="-1.4874">
        <ele>74</ele>
        <time>2021-02-27T11:13:29.000Z</time>
      </trkpt>
      <trkpt lat="47.25821" lon="-1.4874">
        <ele>74</ele>
        <time>2021-02-27T11:13:31.000Z</time>
      </trkpt>
      <trkpt lat="47.25832" lon="-1.48742">
        <ele>73</ele>
        <time>2021-02-27T11:13:33.000Z</time>
      </trkpt>
      <trkpt lat="47.25843" lon="-1.48742">
        <ele>73</ele>
        <time>2021-02-27T11:13:35.000Z</time>
      </trkpt>
      <trkpt lat="47.25854" lon="-1.48743">
        <ele>73</ele>
        <time>2021-02-27T11:13:37.000Z</time>
      </trkpt>
      <trkpt lat="47.25865" lon="-1.48744">
        <ele>73</ele>
        <time>2021-02-27T11:13:39.000Z</time>
      </trkpt>
      <trkpt lat="47.25877" lon="-1.48744">
        <ele>73</ele>
        <time>2021-02-27T11:13:41.000Z</time>
      </trkpt>
      <trkpt lat="47.25888" lon="-1.48745">
        <ele>73</ele>
        <time>2021-02-27T11:13:43.000Z</time>
      </trkpt>
      <trkpt lat="47.25899" lon="-1.48745">
        <ele>73</ele>
        <time>2021-02-27T11:13:45.000Z</time>
      </trkpt>
      <trkpt lat="47.25911" lon="-1.48746">
        <ele>73</ele>
        <time>2021-02-27T11:13:47.000Z</time>
      </trkpt>
      <trkpt lat="47.25923" lon="-1.48747">
        <ele>73</ele>
        <time>2021-02-27T11:13:49.000Z</time>
      </trkpt>
      <trkpt lat="47.25935" lon="-1.48748">
        <ele>73</ele>
        <time>2021-02-27T11:13:51.000Z</time>
      </trkpt>
      <trkpt lat="47.25946" lon="-1.48749">
        <ele>72</ele>
        <time>2021-02-27T11:13:53.000Z</time>
      </trkpt>
      <trkpt lat="47.25958" lon="-1.48749">
        <ele>72</ele>
        <time>2021-02-27T11:13:55.000Z</time>
      </trkpt>
      <trkpt lat="47.2597" lon="-1.4875">
        <ele>72</ele>
        <time>2021-02-27T11:13:57.000Z</time>
      </trkpt>
      <trkpt lat="47.25981" lon="-1.48749">
        <ele>72</ele>
        <time>2021-02-27T11:13:59.000Z</time>
      </trkpt>
      <trkpt lat="47.25992" lon="-1.48749">
        <ele>73</ele>
        <time>2021-02-27T11:14:01.000Z</time>
      </trkpt>
      <trkpt lat="47.26003" lon="-1.48749">
        <ele>73</ele>
        <time>2021-02-27T11:14:03.000Z</time>
      </trkpt>
      <trkpt lat="47.26015" lon="-1.48748">
        <ele>73</ele>
        <time>2021-02-27T11:14:05.000Z</time>
      </trkpt>
      <trkpt lat="47.26026" lon="-1.48747">
        <ele>73</ele>
        <time>2021-02-27T11:14:07.000Z</time>
      </trkpt>
      <trkpt lat="47.26038" lon="-1.48746">
        <ele>72</ele>
        <time>2021-02-27T11:14:09.000Z</time>
      </trkpt>
      <trkpt lat="47.2605" lon="-1.48744">
        <ele>73</ele>
        <time>2021-02-27T11:14:11.000Z</time>
      </trkpt>
      <trkpt lat="47.26062" lon="-1.48741">
        <ele>72</ele>
        <time>2021-02-27T11:14:13.000Z</time>
      </trkpt>
      <trkpt lat="47.26073" lon="-1.48738">
        <ele>72</ele>
        <time>2021-02-27T11:14:15.000Z</time>
      </trkpt>
      <trkpt lat="47.26085" lon="-1.48735">
        <ele>72</ele>
        <time>2021-02-27T11:14:17.000Z</time>
      </trkpt>
      <trkpt lat="47.26097" lon="-1.48733">
        <ele>72</ele>
        <time>2021-02-27T11:14:19.000Z</time>
      </trkpt>
      <trkpt lat="47.26108" lon="-1.4873">
        <ele>72</ele>
        <time>2021-02-27T11:14:21.000Z</time>
      </trkpt>
      <trkpt lat="47.26119" lon="-1.48727">
        <ele>72</ele>
        <time>2021-02-27T11:14:23.000Z</time>
      </trkpt>
      <trkpt lat="47.2613" lon="-1.48723">
        <ele>72</ele>
        <time>2021-02-27T11:14:25.000Z</time>
      </trkpt>
      <trkpt lat="47.26139" lon="-1.48717">
        <ele>73</ele>
        <time>2021-02-27T11:14:27.000Z</time>
      </trkpt>
      <trkpt lat="47.2615" lon="-1.48714">
        <ele>73</ele>
        <time>2021-02-27T11:14:29.000Z</time>
      </trkpt>
      <trkpt lat="47.2616" lon="-1.48711">
        <ele>74</ele>
        <time>2021-02-27T11:14:31.000Z</time>
      </trkpt>
      <trkpt lat="47.2617" lon="-1.48706">
        <ele>74</ele>
        <time>2021-02-27T11:14:33.000Z</time>
      </trkpt>
      <trkpt lat="47.2618" lon="-1.48702">
        <ele>74</ele>
        <time>2021-02-27T11:14:35.000Z</time>
      </trkpt>
      <trkpt lat="47.26189" lon="-1.48697">
        <ele>74</ele>
        <time>2021-02-27T11:14:37.000Z</time>
      </trkpt>
      <trkpt lat="47.26198" lon="-1.48693">
        <ele>74</ele>
        <time>2021-02-27T11:14:39.000Z</time>
      </trkpt>
      <trkpt lat="47.26208" lon="-1.48688">
        <ele>74</ele>
        <time>2021-02-27T11:14:41.000Z</time>
      </trkpt>
      <trkpt lat="47.26218" lon="-1.48684">
        <ele>75</ele>
        <time>2021-02-27T11:14:43.000Z</time>
      </trkpt>
      <trkpt lat="47.26227" lon="-1.48678">
        <ele>75</ele>
        <time>2021-02-27T11:14:45.000Z</time>
      </trkpt>
      <trkpt lat="47.26237" lon="-1.48673">
        <ele>75</ele>
        <time>2021-02-27T11:14:47.000Z</time>
      </trkpt>
      <trkpt lat="47.26247" lon="-1.48671">
        <ele>75</ele>
        <time>2021-02-27T11:14:49.000Z</time>
      </trkpt>
      <trkpt lat="47.26256" lon="-1.48669">
        <ele>75</ele>
        <time>2021-02-27T11:14:51.000Z</time>
      </trkpt>
      <trkpt lat="47.26265" lon="-1.48666">
        <ele>75</ele>
        <time>2021-02-27T11:14:53.000Z</time>
      </trkpt>
      <trkpt lat="47.26275" lon="-1.48664">
        <ele>75</ele>
        <time>2021-02-27T11:14:55.000Z</time>
      </trkpt>
      <trkpt lat="47.26285" lon="-1.48664">
        <ele>76</ele>
        <time>2021-02-27T11:14:57.000Z</time>
      </trkpt>
      <trkpt lat="47.26295" lon="-1.48663">
        <ele>76</ele>
        <time>2021-02-27T11:14:59.000Z</time>
      </trkpt>
      <trkpt lat="47.26305" lon="-1.48662">
        <ele>76</ele>
        <time>2021-02-27T11:15:01.000Z</time>
      </trkpt>
      <trkpt lat="47.26315" lon="-1.48662">
        <ele>76</ele>
        <time>2021-02-27T11:15:03.000Z</time>
      </trkpt>
      <trkpt lat="47.26325" lon="-1.48662">
        <ele>77</ele>
        <time>2021-02-27T11:15:05.000Z</time>
      </trkpt>
      <trkpt lat="47.26335" lon="-1.48662">
        <ele>76</ele>
        <time>2021-02-27T11:15:07.000Z</time>
      </trkpt>
      <trkpt lat="47.26345" lon="-1.48663">
        <ele>77</ele>
        <time>2021-02-27T11:15:09.000Z</time>
      </trkpt>
      <trkpt lat="47.26356" lon="-1.48665">
        <ele>77</ele>
        <time>2021-02-27T11:15:11.000Z</time>
      </trkpt>
      <trkpt lat="47.26366" lon="-1.48666">
        <ele>77</ele>
        <time>2021-02-27T11:15:13.000Z</time>
      </trkpt>
      <trkpt lat="47.26375" lon="-1.48668">
        <ele>77</ele>
        <time>2021-02-27T11:15:15.000Z</time>
      </trkpt>
      <trkpt lat="47.26385" lon="-1.48668">
        <ele>77</ele>
        <time>2021-02-27T11:15:17.000Z</time>
      </trkpt>
      <trkpt lat="47.26395" lon="-1.48668">
        <ele>77</ele>
        <time>2021-02-27T11:15:19.000Z</time>
      </trkpt>
      <trkpt lat="47.26405" lon="-1.48668">
        <ele>77</ele>
        <time>2021-02-27T11:15:21.000Z</time>
      </trkpt>
      <trkpt lat="47.26415" lon="-1.48669">
        <ele>77</ele>
        <time>2021-02-27T11:15:23.000Z</time>
      </trkpt>
      <trkpt lat="47.26424" lon="-1.48671">
        <ele>78</ele>
        <time>2021-02-27T11:15:25.000Z</time>
      </trkpt>
      <trkpt lat="47.26434" lon="-1.48673">
        <ele>78</ele>
        <time>2021-02-27T11:15:27.000Z</time>
      </trkpt>
      <trkpt lat="47.26444" lon="-1.48675">
        <ele>78</ele>
        <time>2021-02-27T11:15:29.000Z</time>
      </trkpt>
      <trkpt lat="47.26454" lon="-1.48677">
        <ele>78</ele>
        <time>2021-02-27T11:15:31.000Z</time>
      </trkpt>
      <trkpt lat="47.26464" lon="-1.48679">
        <ele>78</ele>
        <time>2021-02-27T11:15:33.000Z</time>
      </trkpt>
      <trkpt lat="47.26474" lon="-1.48682">
        <ele>78</ele>
        <time>2021-02-27T11:15:35.000Z</time>
      </trkpt>
      <trkpt lat="47.26484" lon="-1.48686">
        <ele>78</ele>
        <time>2021-02-27T11:15:37.000Z</time>
      </trkpt>
      <trkpt lat="47.26494" lon="-1.48688">
        <ele>78</ele>
        <time>2021-02-27T11:15:39.000Z</time>
      </trkpt>
      <trkpt lat="47.26503" lon="-1.4869">
        <ele>78</ele>
        <time>2021-02-27T11:15:41.000Z</time>
      </trkpt>
      <trkpt lat="47.26512" lon="-1.48693">
        <ele>79</ele>
        <time>2021-02-27T11:15:43.000Z</time>
      </trkpt>
      <trkpt lat="47.26521" lon="-1.48696">
        <ele>79</ele>
        <time>2021-02-27T11:15:45.000Z</time>
      </trkpt>
      <trkpt lat="47.26531" lon="-1.48699">
        <ele>79</ele>
        <time>2021-02-27T11:15:47.000Z</time>
      </trkpt>
      <trkpt lat="47.2654" lon="-1.48703">
        <ele>79</ele>
        <time>2021-02-27T11:15:49.000Z</time>
      </trkpt>
      <trkpt lat="47.2655" lon="-1.48706">
        <ele>80</ele>
        <time>2021-02-27T11:15:51.000Z</time>
      </trkpt>
      <trkpt lat="47.26558" lon="-1.4871">
        <ele>80</ele>
        <time>2021-02-27T11:15:53.000Z</time>
      </trkpt>
      <trkpt lat="47.2657" lon="-1.48714">
        <ele>79</ele>
        <time>2021-02-27T11:15:56.000Z</time>
      </trkpt>
      <trkpt lat="47.26579" lon="-1.48713">
        <ele>80</ele>
        <time>2021-02-27T11:15:59.000Z</time>
      </trkpt>
      <trkpt lat="47.26589" lon="-1.48712">
        <ele>81</ele>
        <time>2021-02-27T11:16:03.000Z</time>
      </trkpt>
      <trkpt lat="47.26599" lon="-1.48712">
        <ele>81</ele>
        <time>2021-02-27T11:16:06.000Z</time>
      </trkpt>
      <trkpt lat="47.26609" lon="-1.48715">
        <ele>83</ele>
        <time>2021-02-27T11:16:42.000Z</time>
      </trkpt>
      <trkpt lat="47.2662" lon="-1.48726">
        <ele>83</ele>
        <time>2021-02-27T11:16:45.000Z</time>
      </trkpt>
      <trkpt lat="47.26629" lon="-1.48738">
        <ele>83</ele>
        <time>2021-02-27T11:16:47.000Z</time>
      </trkpt>
      <trkpt lat="47.26635" lon="-1.48757">
        <ele>83</ele>
        <time>2021-02-27T11:16:49.000Z</time>
      </trkpt>
      <trkpt lat="47.26642" lon="-1.48775">
        <ele>83</ele>
        <time>2021-02-27T11:16:51.000Z</time>
      </trkpt>
      <trkpt lat="47.26652" lon="-1.48786">
        <ele>84</ele>
        <time>2021-02-27T11:16:53.000Z</time>
      </trkpt>
      <trkpt lat="47.26665" lon="-1.48795">
        <ele>86</ele>
        <time>2021-02-27T11:16:55.000Z</time>
      </trkpt>
      <trkpt lat="47.26676" lon="-1.48805">
        <ele>87</ele>
        <time>2021-02-27T11:16:57.000Z</time>
      </trkpt>
      <trkpt lat="47.26688" lon="-1.48814">
        <ele>88</ele>
        <time>2021-02-27T11:16:59.000Z</time>
      </trkpt>
      <trkpt lat="47.26698" lon="-1.48826">
        <ele>89</ele>
        <time>2021-02-27T11:17:01.000Z</time>
      </trkpt>
      <trkpt lat="47.26708" lon="-1.48838">
        <ele>90</ele>
        <time>2021-02-27T11:17:03.000Z</time>
      </trkpt>
      <trkpt lat="47.26719" lon="-1.48849">
        <ele>92</ele>
        <time>2021-02-27T11:17:05.000Z</time>
      </trkpt>
      <trkpt lat="47.26731" lon="-1.48859">
        <ele>91</ele>
        <time>2021-02-27T11:17:07.000Z</time>
      </trkpt>
      <trkpt lat="47.26743" lon="-1.48861">
        <ele>89</ele>
        <time>2021-02-27T11:17:09.000Z</time>
      </trkpt>
      <trkpt lat="47.26753" lon="-1.48851">
        <ele>87</ele>
        <time>2021-02-27T11:17:11.000Z</time>
      </trkpt>
      <trkpt lat="47.26762" lon="-1.4884">
        <ele>86</ele>
        <time>2021-02-27T11:17:13.000Z</time>
      </trkpt>
      <trkpt lat="47.2677" lon="-1.48828">
        <ele>85</ele>
        <time>2021-02-27T11:17:15.000Z</time>
      </trkpt>
      <trkpt lat="47.26779" lon="-1.48816">
        <ele>84</ele>
        <time>2021-02-27T11:17:17.000Z</time>
      </trkpt>
      <trkpt lat="47.26788" lon="-1.48804">
        <ele>84</ele>
        <time>2021-02-27T11:17:19.000Z</time>
      </trkpt>
      <trkpt lat="47.26797" lon="-1.48792">
        <ele>83</ele>
        <time>2021-02-27T11:17:21.000Z</time>
      </trkpt>
      <trkpt lat="47.26805" lon="-1.48781">
        <ele>83</ele>
        <time>2021-02-27T11:17:23.000Z</time>
      </trkpt>
      <trkpt lat="47.26814" lon="-1.48769">
        <ele>83</ele>
        <time>2021-02-27T11:17:25.000Z</time>
      </trkpt>
      <trkpt lat="47.26822" lon="-1.48757">
        <ele>83</ele>
        <time>2021-02-27T11:17:27.000Z</time>
      </trkpt>
      <trkpt lat="47.26831" lon="-1.48746">
        <ele>83</ele>
        <time>2021-02-27T11:17:29.000Z</time>
      </trkpt>
      <trkpt lat="47.2684" lon="-1.48735">
        <ele>83</ele>
        <time>2021-02-27T11:17:31.000Z</time>
      </trkpt>
      <trkpt lat="47.26848" lon="-1.48723">
        <ele>83</ele>
        <time>2021-02-27T11:17:33.000Z</time>
      </trkpt>
      <trkpt lat="47.26857" lon="-1.48711">
        <ele>83</ele>
        <time>2021-02-27T11:17:35.000Z</time>
      </trkpt>
      <trkpt lat="47.26866" lon="-1.48699">
        <ele>83</ele>
        <time>2021-02-27T11:17:37.000Z</time>
      </trkpt>
      <trkpt lat="47.26875" lon="-1.48688">
        <ele>83</ele>
        <time>2021-02-27T11:17:39.000Z</time>
      </trkpt>
      <trkpt lat="47.26885" lon="-1.48679">
        <ele>83</ele>
        <time>2021-02-27T11:17:41.000Z</time>
      </trkpt>
      <trkpt lat="47.26895" lon="-1.48669">
        <ele>83</ele>
        <time>2021-02-27T11:17:43.000Z</time>
      </trkpt>
      <trkpt lat="47.26905" lon="-1.48661">
        <ele>83</ele>
        <time>2021-02-27T11:17:45.000Z</time>
      </trkpt>
      <trkpt lat="47.26915" lon="-1.48652">
        <ele>83</ele>
        <time>2021-02-27T11:17:47.000Z</time>
      </trkpt>
      <trkpt lat="47.26926" lon="-1.48643">
        <ele>83</ele>
        <time>2021-02-27T11:17:49.000Z</time>
      </trkpt>
      <trkpt lat="47.26935" lon="-1.48635">
        <ele>83</ele>
        <time>2021-02-27T11:17:51.000Z</time>
      </trkpt>
      <trkpt lat="47.26945" lon="-1.48628">
        <ele>82</ele>
        <time>2021-02-27T11:17:53.000Z</time>
      </trkpt>
      <trkpt lat="47.26956" lon="-1.4862">
        <ele>82</ele>
        <time>2021-02-27T11:17:55.000Z</time>
      </trkpt>
      <trkpt lat="47.26965" lon="-1.48613">
        <ele>82</ele>
        <time>2021-02-27T11:17:57.000Z</time>
      </trkpt>
      <trkpt lat="47.26975" lon="-1.48605">
        <ele>82</ele>
        <time>2021-02-27T11:17:59.000Z</time>
      </trkpt>
      <trkpt lat="47.26985" lon="-1.48597">
        <ele>82</ele>
        <time>2021-02-27T11:18:01.000Z</time>
      </trkpt>
      <trkpt lat="47.26995" lon="-1.48589">
        <ele>82</ele>
        <time>2021-02-27T11:18:03.000Z</time>
      </trkpt>
      <trkpt lat="47.27007" lon="-1.48582">
        <ele>81</ele>
        <time>2021-02-27T11:18:05.000Z</time>
      </trkpt>
      <trkpt lat="47.27017" lon="-1.48574">
        <ele>81</ele>
        <time>2021-02-27T11:18:07.000Z</time>
      </trkpt>
      <trkpt lat="47.27028" lon="-1.48567">
        <ele>81</ele>
        <time>2021-02-27T11:18:09.000Z</time>
      </trkpt>
      <trkpt lat="47.27039" lon="-1.4856">
        <ele>81</ele>
        <time>2021-02-27T11:18:11.000Z</time>
      </trkpt>
      <trkpt lat="47.2705" lon="-1.48553">
        <ele>82</ele>
        <time>2021-02-27T11:18:13.000Z</time>
      </trkpt>
      <trkpt lat="47.2706" lon="-1.48545">
        <ele>81</ele>
        <time>2021-02-27T11:18:15.000Z</time>
      </trkpt>
      <trkpt lat="47.2707" lon="-1.48537">
        <ele>82</ele>
        <time>2021-02-27T11:18:17.000Z</time>
      </trkpt>
      <trkpt lat="47.27082" lon="-1.48533">
        <ele>81</ele>
        <time>2021-02-27T11:18:19.000Z</time>
      </trkpt>
      <trkpt lat="47.27093" lon="-1.48524">
        <ele>80</ele>
        <time>2021-02-27T11:18:21.000Z</time>
      </trkpt>
      <trkpt lat="47.27102" lon="-1.48514">
        <ele>81</ele>
        <time>2021-02-27T11:18:23.000Z</time>
      </trkpt>
      <trkpt lat="47.27111" lon="-1.48504">
        <ele>81</ele>
        <time>2021-02-27T11:18:25.000Z</time>
      </trkpt>
      <trkpt lat="47.27121" lon="-1.48496">
        <ele>81</ele>
        <time>2021-02-27T11:18:27.000Z</time>
      </trkpt>
      <trkpt lat="47.27131" lon="-1.48488">
        <ele>81</ele>
        <time>2021-02-27T11:18:29.000Z</time>
      </trkpt>
      <trkpt lat="47.27141" lon="-1.4848">
        <ele>82</ele>
        <time>2021-02-27T11:18:31.000Z</time>
      </trkpt>
      <trkpt lat="47.27151" lon="-1.48472">
        <ele>82</ele>
        <time>2021-02-27T11:18:33.000Z</time>
      </trkpt>
      <trkpt lat="47.27162" lon="-1.48464">
        <ele>82</ele>
        <time>2021-02-27T11:18:35.000Z</time>
      </trkpt>
      <trkpt lat="47.27172" lon="-1.48455">
        <ele>83</ele>
        <time>2021-02-27T11:18:37.000Z</time>
      </trkpt>
      <trkpt lat="47.27182" lon="-1.48447">
        <ele>83</ele>
        <time>2021-02-27T11:18:39.000Z</time>
      </trkpt>
      <trkpt lat="47.27192" lon="-1.48439">
        <ele>83</ele>
        <time>2021-02-27T11:18:41.000Z</time>
      </trkpt>
      <trkpt lat="47.27201" lon="-1.48431">
        <ele>83</ele>
        <time>2021-02-27T11:18:43.000Z</time>
      </trkpt>
      <trkpt lat="47.27211" lon="-1.48422">
        <ele>83</ele>
        <time>2021-02-27T11:18:45.000Z</time>
      </trkpt>
      <trkpt lat="47.2722" lon="-1.48414">
        <ele>83</ele>
        <time>2021-02-27T11:18:47.000Z</time>
      </trkpt>
      <trkpt lat="47.2723" lon="-1.48406">
        <ele>83</ele>
        <time>2021-02-27T11:18:49.000Z</time>
      </trkpt>
      <trkpt lat="47.2724" lon="-1.48399">
        <ele>84</ele>
        <time>2021-02-27T11:18:51.000Z</time>
      </trkpt>
      <trkpt lat="47.2725" lon="-1.48392">
        <ele>84</ele>
        <time>2021-02-27T11:18:53.000Z</time>
      </trkpt>
      <trkpt lat="47.2726" lon="-1.48385">
        <ele>83</ele>
        <time>2021-02-27T11:18:55.000Z</time>
      </trkpt>
      <trkpt lat="47.27269" lon="-1.48377">
        <ele>84</ele>
        <time>2021-02-27T11:18:57.000Z</time>
      </trkpt>
      <trkpt lat="47.27277" lon="-1.48368">
        <ele>84</ele>
        <time>2021-02-27T11:18:59.000Z</time>
      </trkpt>
      <trkpt lat="47.27281" lon="-1.48356">
        <ele>83</ele>
        <time>2021-02-27T11:19:01.000Z</time>
      </trkpt>
      <trkpt lat="47.27295" lon="-1.48355">
        <ele>82</ele>
        <time>2021-02-27T11:19:04.000Z</time>
      </trkpt>
      <trkpt lat="47.27305" lon="-1.48349">
        <ele>82</ele>
        <time>2021-02-27T11:19:06.000Z</time>
      </trkpt>
      <trkpt lat="47.27315" lon="-1.48343">
        <ele>83</ele>
        <time>2021-02-27T11:19:08.000Z</time>
      </trkpt>
      <trkpt lat="47.27326" lon="-1.48337">
        <ele>83</ele>
        <time>2021-02-27T11:19:10.000Z</time>
      </trkpt>
      <trkpt lat="47.27336" lon="-1.48332">
        <ele>84</ele>
        <time>2021-02-27T11:19:12.000Z</time>
      </trkpt>
      <trkpt lat="47.27348" lon="-1.48328">
        <ele>84</ele>
        <time>2021-02-27T11:19:14.000Z</time>
      </trkpt>
      <trkpt lat="47.27358" lon="-1.48326">
        <ele>85</ele>
        <time>2021-02-27T11:19:16.000Z</time>
      </trkpt>
      <trkpt lat="47.27369" lon="-1.48325">
        <ele>84</ele>
        <time>2021-02-27T11:19:18.000Z</time>
      </trkpt>
      <trkpt lat="47.27381" lon="-1.48324">
        <ele>85</ele>
        <time>2021-02-27T11:19:20.000Z</time>
      </trkpt>
      <trkpt lat="47.27393" lon="-1.48323">
        <ele>85</ele>
        <time>2021-02-27T11:19:22.000Z</time>
      </trkpt>
      <trkpt lat="47.27404" lon="-1.48325">
        <ele>85</ele>
        <time>2021-02-27T11:19:24.000Z</time>
      </trkpt>
      <trkpt lat="47.27416" lon="-1.48326">
        <ele>84</ele>
        <time>2021-02-27T11:19:26.000Z</time>
      </trkpt>
      <trkpt lat="47.27427" lon="-1.48327">
        <ele>84</ele>
        <time>2021-02-27T11:19:28.000Z</time>
      </trkpt>
      <trkpt lat="47.27439" lon="-1.48328">
        <ele>84</ele>
        <time>2021-02-27T11:19:30.000Z</time>
      </trkpt>
      <trkpt lat="47.2745" lon="-1.4833">
        <ele>83</ele>
        <time>2021-02-27T11:19:32.000Z</time>
      </trkpt>
      <trkpt lat="47.27462" lon="-1.48333">
        <ele>83</ele>
        <time>2021-02-27T11:19:34.000Z</time>
      </trkpt>
      <trkpt lat="47.27472" lon="-1.48334">
        <ele>83</ele>
        <time>2021-02-27T11:19:36.000Z</time>
      </trkpt>
      <trkpt lat="47.27483" lon="-1.48336">
        <ele>83</ele>
        <time>2021-02-27T11:19:38.000Z</time>
      </trkpt>
      <trkpt lat="47.27495" lon="-1.48337">
        <ele>84</ele>
        <time>2021-02-27T11:19:40.000Z</time>
      </trkpt>
      <trkpt lat="47.27506" lon="-1.48339">
        <ele>84</ele>
        <time>2021-02-27T11:19:42.000Z</time>
      </trkpt>
      <trkpt lat="47.27516" lon="-1.48341">
        <ele>84</ele>
        <time>2021-02-27T11:19:44.000Z</time>
      </trkpt>
      <trkpt lat="47.27528" lon="-1.48343">
        <ele>85</ele>
        <time>2021-02-27T11:19:46.000Z</time>
      </trkpt>
      <trkpt lat="47.27539" lon="-1.48345">
        <ele>85</ele>
        <time>2021-02-27T11:19:48.000Z</time>
      </trkpt>
      <trkpt lat="47.2755" lon="-1.48347">
        <ele>85</ele>
        <time>2021-02-27T11:19:50.000Z</time>
      </trkpt>
      <trkpt lat="47.27562" lon="-1.48347">
        <ele>85</ele>
        <time>2021-02-27T11:19:52.000Z</time>
      </trkpt>
      <trkpt lat="47.27572" lon="-1.48344">
        <ele>85</ele>
        <time>2021-02-27T11:19:54.000Z</time>
      </trkpt>
      <trkpt lat="47.27582" lon="-1.48345">
        <ele>85</ele>
        <time>2021-02-27T11:19:56.000Z</time>
      </trkpt>
      <trkpt lat="47.27594" lon="-1.48345">
        <ele>86</ele>
        <time>2021-02-27T11:19:58.000Z</time>
      </trkpt>
      <trkpt lat="47.27606" lon="-1.48343">
        <ele>86</ele>
        <time>2021-02-27T11:20:00.000Z</time>
      </trkpt>
      <trkpt lat="47.27617" lon="-1.48341">
        <ele>86</ele>
        <time>2021-02-27T11:20:02.000Z</time>
      </trkpt>
      <trkpt lat="47.27627" lon="-1.48338">
        <ele>86</ele>
        <time>2021-02-27T11:20:04.000Z</time>
      </trkpt>
      <trkpt lat="47.27639" lon="-1.48338">
        <ele>86</ele>
        <time>2021-02-27T11:20:06.000Z</time>
      </trkpt>
      <trkpt lat="47.27651" lon="-1.48336">
        <ele>86</ele>
        <time>2021-02-27T11:20:08.000Z</time>
      </trkpt>
      <trkpt lat="47.27663" lon="-1.48335">
        <ele>86</ele>
        <time>2021-02-27T11:20:10.000Z</time>
      </trkpt>
      <trkpt lat="47.27675" lon="-1.48335">
        <ele>85</ele>
        <time>2021-02-27T11:20:12.000Z</time>
      </trkpt>
      <trkpt lat="47.27688" lon="-1.48338">
        <ele>85</ele>
        <time>2021-02-27T11:20:14.000Z</time>
      </trkpt>
      <trkpt lat="47.27701" lon="-1.48343">
        <ele>85</ele>
        <time>2021-02-27T11:20:16.000Z</time>
      </trkpt>
      <trkpt lat="47.27713" lon="-1.4835">
        <ele>84</ele>
        <time>2021-02-27T11:20:18.000Z</time>
      </trkpt>
      <trkpt lat="47.27726" lon="-1.48358">
        <ele>84</ele>
        <time>2021-02-27T11:20:20.000Z</time>
      </trkpt>
      <trkpt lat="47.27738" lon="-1.48367">
        <ele>84</ele>
        <time>2021-02-27T11:20:22.000Z</time>
      </trkpt>
      <trkpt lat="47.27749" lon="-1.48377">
        <ele>83</ele>
        <time>2021-02-27T11:20:24.000Z</time>
      </trkpt>
      <trkpt lat="47.2776" lon="-1.48377">
        <ele>83</ele>
        <time>2021-02-27T11:20:27.000Z</time>
      </trkpt>
      <trkpt lat="47.27769" lon="-1.48393">
        <ele>82</ele>
        <time>2021-02-27T11:20:30.000Z</time>
      </trkpt>
      <trkpt lat="47.27776" lon="-1.48406">
        <ele>82</ele>
        <time>2021-02-27T11:20:32.000Z</time>
      </trkpt>
      <trkpt lat="47.27786" lon="-1.48414">
        <ele>81</ele>
        <time>2021-02-27T11:20:34.000Z</time>
      </trkpt>
      <trkpt lat="47.27797" lon="-1.48424">
        <ele>81</ele>
        <time>2021-02-27T11:20:36.000Z</time>
      </trkpt>
      <trkpt lat="47.27809" lon="-1.48432">
        <ele>80</ele>
        <time>2021-02-27T11:20:38.000Z</time>
      </trkpt>
      <trkpt lat="47.27821" lon="-1.48439">
        <ele>80</ele>
        <time>2021-02-27T11:20:40.000Z</time>
      </trkpt>
      <trkpt lat="47.27833" lon="-1.48447">
        <ele>78</ele>
        <time>2021-02-27T11:20:42.000Z</time>
      </trkpt>
      <trkpt lat="47.27846" lon="-1.48454">
        <ele>77</ele>
        <time>2021-02-27T11:20:44.000Z</time>
      </trkpt>
      <trkpt lat="47.27859" lon="-1.4846">
        <ele>77</ele>
        <time>2021-02-27T11:20:46.000Z</time>
      </trkpt>
      <trkpt lat="47.27871" lon="-1.48466">
        <ele>77</ele>
        <time>2021-02-27T11:20:48.000Z</time>
      </trkpt>
      <trkpt lat="47.27884" lon="-1.48472">
        <ele>76</ele>
        <time>2021-02-27T11:20:50.000Z</time>
      </trkpt>
      <trkpt lat="47.27897" lon="-1.48478">
        <ele>76</ele>
        <time>2021-02-27T11:20:52.000Z</time>
      </trkpt>
      <trkpt lat="47.2791" lon="-1.48483">
        <ele>75</ele>
        <time>2021-02-27T11:20:54.000Z</time>
      </trkpt>
      <trkpt lat="47.27923" lon="-1.48489">
        <ele>74</ele>
        <time>2021-02-27T11:20:56.000Z</time>
      </trkpt>
      <trkpt lat="47.27936" lon="-1.48495">
        <ele>74</ele>
        <time>2021-02-27T11:20:58.000Z</time>
      </trkpt>
      <trkpt lat="47.27949" lon="-1.48502">
        <ele>74</ele>
        <time>2021-02-27T11:21:00.000Z</time>
      </trkpt>
      <trkpt lat="47.27963" lon="-1.48507">
        <ele>73</ele>
        <time>2021-02-27T11:21:02.000Z</time>
      </trkpt>
      <trkpt lat="47.27975" lon="-1.48512">
        <ele>74</ele>
        <time>2021-02-27T11:21:04.000Z</time>
      </trkpt>
      <trkpt lat="47.27986" lon="-1.48512">
        <ele>73</ele>
        <time>2021-02-27T11:21:06.000Z</time>
      </trkpt>
      <trkpt lat="47.27996" lon="-1.48516">
        <ele>73</ele>
        <time>2021-02-27T11:21:08.000Z</time>
      </trkpt>
      <trkpt lat="47.28007" lon="-1.48524">
        <ele>71</ele>
        <time>2021-02-27T11:21:10.000Z</time>
      </trkpt>
      <trkpt lat="47.28022" lon="-1.48527">
        <ele>71</ele>
        <time>2021-02-27T11:21:12.000Z</time>
      </trkpt>
      <trkpt lat="47.28035" lon="-1.4853">
        <ele>71</ele>
        <time>2021-02-27T11:21:14.000Z</time>
      </trkpt>
      <trkpt lat="47.28049" lon="-1.48533">
        <ele>70</ele>
        <time>2021-02-27T11:21:16.000Z</time>
      </trkpt>
      <trkpt lat="47.28062" lon="-1.48537">
        <ele>70</ele>
        <time>2021-02-27T11:21:18.000Z</time>
      </trkpt>
      <trkpt lat="47.28075" lon="-1.48537">
        <ele>71</ele>
        <time>2021-02-27T11:21:20.000Z</time>
      </trkpt>
      <trkpt lat="47.28089" lon="-1.48535">
        <ele>71</ele>
        <time>2021-02-27T11:21:22.000Z</time>
      </trkpt>
      <trkpt lat="47.28102" lon="-1.48535">
        <ele>71</ele>
        <time>2021-02-27T11:21:24.000Z</time>
      </trkpt>
      <trkpt lat="47.28115" lon="-1.48535">
        <ele>71</ele>
        <time>2021-02-27T11:21:26.000Z</time>
      </trkpt>
      <trkpt lat="47.28129" lon="-1.48533">
        <ele>71</ele>
        <time>2021-02-27T11:21:28.000Z</time>
      </trkpt>
      <trkpt lat="47.28142" lon="-1.48533">
        <ele>70</ele>
        <time>2021-02-27T11:21:30.000Z</time>
      </trkpt>
      <trkpt lat="47.28156" lon="-1.48533">
        <ele>70</ele>
        <time>2021-02-27T11:21:32.000Z</time>
      </trkpt>
      <trkpt lat="47.28169" lon="-1.48532">
        <ele>69</ele>
        <time>2021-02-27T11:21:34.000Z</time>
      </trkpt>
      <trkpt lat="47.28181" lon="-1.48531">
        <ele>69</ele>
        <time>2021-02-27T11:21:36.000Z</time>
      </trkpt>
      <trkpt lat="47.28193" lon="-1.4853">
        <ele>69</ele>
        <time>2021-02-27T11:21:38.000Z</time>
      </trkpt>
      <trkpt lat="47.28204" lon="-1.48525">
        <ele>69</ele>
        <time>2021-02-27T11:21:40.000Z</time>
      </trkpt>
      <trkpt lat="47.28208" lon="-1.48509">
        <ele>69</ele>
        <time>2021-02-27T11:21:42.000Z</time>
      </trkpt>
      <trkpt lat="47.28213" lon="-1.48496">
        <ele>69</ele>
        <time>2021-02-27T11:21:44.000Z</time>
      </trkpt>
      <trkpt lat="47.28223" lon="-1.48496">
        <ele>69</ele>
        <time>2021-02-27T11:21:46.000Z</time>
      </trkpt>
      <trkpt lat="47.28232" lon="-1.48505">
        <ele>69</ele>
        <time>2021-02-27T11:21:48.000Z</time>
      </trkpt>
      <trkpt lat="47.28243" lon="-1.48517">
        <ele>69</ele>
        <time>2021-02-27T11:21:50.000Z</time>
      </trkpt>
      <trkpt lat="47.28254" lon="-1.48527">
        <ele>70</ele>
        <time>2021-02-27T11:21:52.000Z</time>
      </trkpt>
      <trkpt lat="47.28265" lon="-1.48536">
        <ele>70</ele>
        <time>2021-02-27T11:21:54.000Z</time>
      </trkpt>
      <trkpt lat="47.28276" lon="-1.48544">
        <ele>70</ele>
        <time>2021-02-27T11:21:56.000Z</time>
      </trkpt>
      <trkpt lat="47.28286" lon="-1.48553">
        <ele>70</ele>
        <time>2021-02-27T11:21:58.000Z</time>
      </trkpt>
      <trkpt lat="47.28294" lon="-1.48565">
        <ele>70</ele>
        <time>2021-02-27T11:22:00.000Z</time>
      </trkpt>
      <trkpt lat="47.28302" lon="-1.48583">
        <ele>70</ele>
        <time>2021-02-27T11:22:02.000Z</time>
      </trkpt>
      <trkpt lat="47.28312" lon="-1.486">
        <ele>69</ele>
        <time>2021-02-27T11:22:04.000Z</time>
      </trkpt>
      <trkpt lat="47.28323" lon="-1.4861">
        <ele>69</ele>
        <time>2021-02-27T11:22:06.000Z</time>
      </trkpt>
      <trkpt lat="47.28335" lon="-1.48612">
        <ele>70</ele>
        <time>2021-02-27T11:22:08.000Z</time>
      </trkpt>
      <trkpt lat="47.28346" lon="-1.48615">
        <ele>71</ele>
        <time>2021-02-27T11:22:10.000Z</time>
      </trkpt>
      <trkpt lat="47.28356" lon="-1.48621">
        <ele>71</ele>
        <time>2021-02-27T11:22:12.000Z</time>
      </trkpt>
      <trkpt lat="47.28365" lon="-1.4863">
        <ele>71</ele>
        <time>2021-02-27T11:22:14.000Z</time>
      </trkpt>
      <trkpt lat="47.28374" lon="-1.48638">
        <ele>72</ele>
        <time>2021-02-27T11:22:16.000Z</time>
      </trkpt>
      <trkpt lat="47.28384" lon="-1.48643">
        <ele>71</ele>
        <time>2021-02-27T11:22:18.000Z</time>
      </trkpt>
      <trkpt lat="47.28395" lon="-1.48642">
        <ele>72</ele>
        <time>2021-02-27T11:22:20.000Z</time>
      </trkpt>
      <trkpt lat="47.28405" lon="-1.48639">
        <ele>72</ele>
        <time>2021-02-27T11:22:22.000Z</time>
      </trkpt>
      <trkpt lat="47.28415" lon="-1.48635">
        <ele>71</ele>
        <time>2021-02-27T11:22:24.000Z</time>
      </trkpt>
      <trkpt lat="47.28425" lon="-1.48629">
        <ele>72</ele>
        <time>2021-02-27T11:22:26.000Z</time>
      </trkpt>
      <trkpt lat="47.28434" lon="-1.48622">
        <ele>72</ele>
        <time>2021-02-27T11:22:28.000Z</time>
      </trkpt>
      <trkpt lat="47.28443" lon="-1.48615">
        <ele>72</ele>
        <time>2021-02-27T11:22:30.000Z</time>
      </trkpt>
      <trkpt lat="47.28452" lon="-1.48606">
        <ele>73</ele>
        <time>2021-02-27T11:22:32.000Z</time>
      </trkpt>
      <trkpt lat="47.2846" lon="-1.48599">
        <ele>73</ele>
        <time>2021-02-27T11:22:34.000Z</time>
      </trkpt>
      <trkpt lat="47.28469" lon="-1.48591">
        <ele>73</ele>
        <time>2021-02-27T11:22:36.000Z</time>
      </trkpt>
      <trkpt lat="47.28478" lon="-1.48584">
        <ele>74</ele>
        <time>2021-02-27T11:22:38.000Z</time>
      </trkpt>
      <trkpt lat="47.28487" lon="-1.48577">
        <ele>74</ele>
        <time>2021-02-27T11:22:40.000Z</time>
      </trkpt>
      <trkpt lat="47.28497" lon="-1.4857">
        <ele>74</ele>
        <time>2021-02-27T11:22:42.000Z</time>
      </trkpt>
      <trkpt lat="47.28506" lon="-1.48563">
        <ele>73</ele>
        <time>2021-02-27T11:22:44.000Z</time>
      </trkpt>
      <trkpt lat="47.28515" lon="-1.48555">
        <ele>74</ele>
        <time>2021-02-27T11:22:46.000Z</time>
      </trkpt>
      <trkpt lat="47.28524" lon="-1.48547">
        <ele>74</ele>
        <time>2021-02-27T11:22:48.000Z</time>
      </trkpt>
      <trkpt lat="47.28533" lon="-1.4854">
        <ele>74</ele>
        <time>2021-02-27T11:22:50.000Z</time>
      </trkpt>
      <trkpt lat="47.28542" lon="-1.48532">
        <ele>74</ele>
        <time>2021-02-27T11:22:52.000Z</time>
      </trkpt>
      <trkpt lat="47.28551" lon="-1.48525">
        <ele>74</ele>
        <time>2021-02-27T11:22:54.000Z</time>
      </trkpt>
      <trkpt lat="47.2856" lon="-1.48517">
        <ele>74</ele>
        <time>2021-02-27T11:22:56.000Z</time>
      </trkpt>
      <trkpt lat="47.28569" lon="-1.4851">
        <ele>74</ele>
        <time>2021-02-27T11:22:58.000Z</time>
      </trkpt>
      <trkpt lat="47.28578" lon="-1.48502">
        <ele>74</ele>
        <time>2021-02-27T11:23:00.000Z</time>
      </trkpt>
      <trkpt lat="47.28587" lon="-1.48495">
        <ele>74</ele>
        <time>2021-02-27T11:23:02.000Z</time>
      </trkpt>
      <trkpt lat="47.28596" lon="-1.48487">
        <ele>74</ele>
        <time>2021-02-27T11:23:04.000Z</time>
      </trkpt>
      <trkpt lat="47.28604" lon="-1.48481">
        <ele>75</ele>
        <time>2021-02-27T11:23:06.000Z</time>
      </trkpt>
      <trkpt lat="47.28613" lon="-1.48473">
        <ele>75</ele>
        <time>2021-02-27T11:23:08.000Z</time>
      </trkpt>
      <trkpt lat="47.28621" lon="-1.48466">
        <ele>76</ele>
        <time>2021-02-27T11:23:10.000Z</time>
      </trkpt>
      <trkpt lat="47.28631" lon="-1.48459">
        <ele>76</ele>
        <time>2021-02-27T11:23:12.000Z</time>
      </trkpt>
      <trkpt lat="47.2864" lon="-1.48454">
        <ele>76</ele>
        <time>2021-02-27T11:23:14.000Z</time>
      </trkpt>
      <trkpt lat="47.2865" lon="-1.48448">
        <ele>76</ele>
        <time>2021-02-27T11:23:16.000Z</time>
      </trkpt>
      <trkpt lat="47.2866" lon="-1.48443">
        <ele>77</ele>
        <time>2021-02-27T11:23:18.000Z</time>
      </trkpt>
      <trkpt lat="47.2867" lon="-1.48438">
        <ele>76</ele>
        <time>2021-02-27T11:23:20.000Z</time>
      </trkpt>
      <trkpt lat="47.2868" lon="-1.48433">
        <ele>76</ele>
        <time>2021-02-27T11:23:22.000Z</time>
      </trkpt>
      <trkpt lat="47.2869" lon="-1.48429">
        <ele>76</ele>
        <time>2021-02-27T11:23:24.000Z</time>
      </trkpt>
      <trkpt lat="47.28699" lon="-1.48425">
        <ele>76</ele>
        <time>2021-02-27T11:23:26.000Z</time>
      </trkpt>
      <trkpt lat="47.28709" lon="-1.48421">
        <ele>76</ele>
        <time>2021-02-27T11:23:28.000Z</time>
      </trkpt>
      <trkpt lat="47.28719" lon="-1.48418">
        <ele>76</ele>
        <time>2021-02-27T11:23:30.000Z</time>
      </trkpt>
      <trkpt lat="47.28729" lon="-1.48414">
        <ele>76</ele>
        <time>2021-02-27T11:23:32.000Z</time>
      </trkpt>
      <trkpt lat="47.28739" lon="-1.48411">
        <ele>77</ele>
        <time>2021-02-27T11:23:34.000Z</time>
      </trkpt>
      <trkpt lat="47.28748" lon="-1.48407">
        <ele>77</ele>
        <time>2021-02-27T11:23:36.000Z</time>
      </trkpt>
      <trkpt lat="47.28757" lon="-1.48403">
        <ele>77</ele>
        <time>2021-02-27T11:23:38.000Z</time>
      </trkpt>
      <trkpt lat="47.28765" lon="-1.48395">
        <ele>77</ele>
        <time>2021-02-27T11:23:40.000Z</time>
      </trkpt>
      <trkpt lat="47.28771" lon="-1.48384">
        <ele>77</ele>
        <time>2021-02-27T11:23:42.000Z</time>
      </trkpt>
      <trkpt lat="47.28779" lon="-1.48377">
        <ele>77</ele>
        <time>2021-02-27T11:23:44.000Z</time>
      </trkpt>
      <trkpt lat="47.28789" lon="-1.48377">
        <ele>78</ele>
        <time>2021-02-27T11:23:46.000Z</time>
      </trkpt>
      <trkpt lat="47.28799" lon="-1.4838">
        <ele>78</ele>
        <time>2021-02-27T11:23:48.000Z</time>
      </trkpt>
      <trkpt lat="47.28808" lon="-1.48388">
        <ele>78</ele>
        <time>2021-02-27T11:23:50.000Z</time>
      </trkpt>
      <trkpt lat="47.28817" lon="-1.48397">
        <ele>78</ele>
        <time>2021-02-27T11:23:52.000Z</time>
      </trkpt>
      <trkpt lat="47.28828" lon="-1.48402">
        <ele>78</ele>
        <time>2021-02-27T11:23:54.000Z</time>
      </trkpt>
      <trkpt lat="47.28839" lon="-1.48407">
        <ele>77</ele>
        <time>2021-02-27T11:23:56.000Z</time>
      </trkpt>
      <trkpt lat="47.28851" lon="-1.48411">
        <ele>78</ele>
        <time>2021-02-27T11:23:58.000Z</time>
      </trkpt>
      <trkpt lat="47.28862" lon="-1.48414">
        <ele>78</ele>
        <time>2021-02-27T11:24:00.000Z</time>
      </trkpt>
      <trkpt lat="47.28873" lon="-1.48418">
        <ele>77</ele>
        <time>2021-02-27T11:24:02.000Z</time>
      </trkpt>
      <trkpt lat="47.28885" lon="-1.48424">
        <ele>77</ele>
        <time>2021-02-27T11:24:04.000Z</time>
      </trkpt>
      <trkpt lat="47.28896" lon="-1.48432">
        <ele>77</ele>
        <time>2021-02-27T11:24:06.000Z</time>
      </trkpt>
      <trkpt lat="47.28907" lon="-1.48437">
        <ele>77</ele>
        <time>2021-02-27T11:24:08.000Z</time>
      </trkpt>
      <trkpt lat="47.28918" lon="-1.48443">
        <ele>78</ele>
        <time>2021-02-27T11:24:10.000Z</time>
      </trkpt>
      <trkpt lat="47.28929" lon="-1.48451">
        <ele>78</ele>
        <time>2021-02-27T11:24:12.000Z</time>
      </trkpt>
      <trkpt lat="47.2894" lon="-1.48459">
        <ele>79</ele>
        <time>2021-02-27T11:24:14.000Z</time>
      </trkpt>
      <trkpt lat="47.28952" lon="-1.48466">
        <ele>79</ele>
        <time>2021-02-27T11:24:16.000Z</time>
      </trkpt>
      <trkpt lat="47.28962" lon="-1.48474">
        <ele>79</ele>
        <time>2021-02-27T11:24:18.000Z</time>
      </trkpt>
      <trkpt lat="47.28973" lon="-1.48483">
        <ele>80</ele>
        <time>2021-02-27T11:24:20.000Z</time>
      </trkpt>
      <trkpt lat="47.28984" lon="-1.4849">
        <ele>80</ele>
        <time>2021-02-27T11:24:22.000Z</time>
      </trkpt>
      <trkpt lat="47.28996" lon="-1.48499">
        <ele>80</ele>
        <time>2021-02-27T11:24:24.000Z</time>
      </trkpt>
      <trkpt lat="47.29009" lon="-1.48508">
        <ele>80</ele>
        <time>2021-02-27T11:24:26.000Z</time>
      </trkpt>
      <trkpt lat="47.29021" lon="-1.48517">
        <ele>79</ele>
        <time>2021-02-27T11:24:28.000Z</time>
      </trkpt>
      <trkpt lat="47.29032" lon="-1.48526">
        <ele>80</ele>
        <time>2021-02-27T11:24:30.000Z</time>
      </trkpt>
      <trkpt lat="47.29043" lon="-1.48533">
        <ele>80</ele>
        <time>2021-02-27T11:24:32.000Z</time>
      </trkpt>
      <trkpt lat="47.29056" lon="-1.4854">
        <ele>81</ele>
        <time>2021-02-27T11:24:34.000Z</time>
      </trkpt>
      <trkpt lat="47.29068" lon="-1.48548">
        <ele>81</ele>
        <time>2021-02-27T11:24:36.000Z</time>
      </trkpt>
      <trkpt lat="47.29079" lon="-1.48563">
        <ele>80</ele>
        <time>2021-02-27T11:24:38.000Z</time>
      </trkpt>
      <trkpt lat="47.29091" lon="-1.48573">
        <ele>79</ele>
        <time>2021-02-27T11:24:40.000Z</time>
      </trkpt>
      <trkpt lat="47.29102" lon="-1.48581">
        <ele>77</ele>
        <time>2021-02-27T11:24:42.000Z</time>
      </trkpt>
      <trkpt lat="47.29113" lon="-1.4859">
        <ele>77</ele>
        <time>2021-02-27T11:24:44.000Z</time>
      </trkpt>
      <trkpt lat="47.29125" lon="-1.48599">
        <ele>77</ele>
        <time>2021-02-27T11:24:46.000Z</time>
      </trkpt>
      <trkpt lat="47.29136" lon="-1.48607">
        <ele>77</ele>
        <time>2021-02-27T11:24:48.000Z</time>
      </trkpt>
      <trkpt lat="47.29148" lon="-1.48616">
        <ele>77</ele>
        <time>2021-02-27T11:24:50.000Z</time>
      </trkpt>
      <trkpt lat="47.29159" lon="-1.48624">
        <ele>77</ele>
        <time>2021-02-27T11:24:52.000Z</time>
      </trkpt>
      <trkpt lat="47.29171" lon="-1.48634">
        <ele>77</ele>
        <time>2021-02-27T11:24:54.000Z</time>
      </trkpt>
      <trkpt lat="47.29184" lon="-1.48643">
        <ele>76</ele>
        <time>2021-02-27T11:24:56.000Z</time>
      </trkpt>
      <trkpt lat="47.29196" lon="-1.48652">
        <ele>76</ele>
        <time>2021-02-27T11:24:58.000Z</time>
      </trkpt>
      <trkpt lat="47.29208" lon="-1.48661">
        <ele>75</ele>
        <time>2021-02-27T11:25:00.000Z</time>
      </trkpt>
      <trkpt lat="47.2922" lon="-1.48671">
        <ele>75</ele>
        <time>2021-02-27T11:25:02.000Z</time>
      </trkpt>
      <trkpt lat="47.29231" lon="-1.4868">
        <ele>74</ele>
        <time>2021-02-27T11:25:04.000Z</time>
      </trkpt>
      <trkpt lat="47.29242" lon="-1.48686">
        <ele>74</ele>
        <time>2021-02-27T11:25:06.000Z</time>
      </trkpt>
      <trkpt lat="47.29253" lon="-1.48681">
        <ele>74</ele>
        <time>2021-02-27T11:25:08.000Z</time>
      </trkpt>
      <trkpt lat="47.29263" lon="-1.48679">
        <ele>74</ele>
        <time>2021-02-27T11:25:10.000Z</time>
      </trkpt>
      <trkpt lat="47.29272" lon="-1.48684">
        <ele>76</ele>
        <time>2021-02-27T11:25:12.000Z</time>
      </trkpt>
      <trkpt lat="47.29277" lon="-1.48696">
        <ele>77</ele>
        <time>2021-02-27T11:25:14.000Z</time>
      </trkpt>
      <trkpt lat="47.29279" lon="-1.48714">
        <ele>77</ele>
        <time>2021-02-27T11:25:16.000Z</time>
      </trkpt>
      <trkpt lat="47.29286" lon="-1.48725">
        <ele>77</ele>
        <time>2021-02-27T11:25:18.000Z</time>
      </trkpt>
      <trkpt lat="47.29296" lon="-1.48731">
        <ele>76</ele>
        <time>2021-02-27T11:25:20.000Z</time>
      </trkpt>
      <trkpt lat="47.29306" lon="-1.48739">
        <ele>76</ele>
        <time>2021-02-27T11:25:22.000Z</time>
      </trkpt>
      <trkpt lat="47.29316" lon="-1.48748">
        <ele>75</ele>
        <time>2021-02-27T11:25:24.000Z</time>
      </trkpt>
      <trkpt lat="47.29327" lon="-1.48756">
        <ele>75</ele>
        <time>2021-02-27T11:25:26.000Z</time>
      </trkpt>
      <trkpt lat="47.29335" lon="-1.48764">
        <ele>74</ele>
        <time>2021-02-27T11:25:28.000Z</time>
      </trkpt>
      <trkpt lat="47.29345" lon="-1.48771">
        <ele>75</ele>
        <time>2021-02-27T11:25:30.000Z</time>
      </trkpt>
      <trkpt lat="47.29356" lon="-1.48779">
        <ele>75</ele>
        <time>2021-02-27T11:25:32.000Z</time>
      </trkpt>
      <trkpt lat="47.29367" lon="-1.48783">
        <ele>76</ele>
        <time>2021-02-27T11:25:34.000Z</time>
      </trkpt>
      <trkpt lat="47.29377" lon="-1.48786">
        <ele>76</ele>
        <time>2021-02-27T11:25:36.000Z</time>
      </trkpt>
      <trkpt lat="47.29387" lon="-1.48788">
        <ele>76</ele>
        <time>2021-02-27T11:25:38.000Z</time>
      </trkpt>
      <trkpt lat="47.29397" lon="-1.48786">
        <ele>76</ele>
        <time>2021-02-27T11:25:40.000Z</time>
      </trkpt>
      <trkpt lat="47.29409" lon="-1.48782">
        <ele>77</ele>
        <time>2021-02-27T11:25:42.000Z</time>
      </trkpt>
      <trkpt lat="47.29419" lon="-1.48774">
        <ele>77</ele>
        <time>2021-02-27T11:25:44.000Z</time>
      </trkpt>
      <trkpt lat="47.29429" lon="-1.48766">
        <ele>77</ele>
        <time>2021-02-27T11:25:46.000Z</time>
      </trkpt>
      <trkpt lat="47.29438" lon="-1.48758">
        <ele>78</ele>
        <time>2021-02-27T11:25:48.000Z</time>
      </trkpt>
      <trkpt lat="47.29447" lon="-1.48751">
        <ele>78</ele>
        <time>2021-02-27T11:25:50.000Z</time>
      </trkpt>
      <trkpt lat="47.29456" lon="-1.48744">
        <ele>78</ele>
        <time>2021-02-27T11:25:52.000Z</time>
      </trkpt>
      <trkpt lat="47.29466" lon="-1.48736">
        <ele>79</ele>
        <time>2021-02-27T11:25:54.000Z</time>
      </trkpt>
      <trkpt lat="47.29476" lon="-1.48729">
        <ele>79</ele>
        <time>2021-02-27T11:25:56.000Z</time>
      </trkpt>
      <trkpt lat="47.29485" lon="-1.4872">
        <ele>80</ele>
        <time>2021-02-27T11:25:58.000Z</time>
      </trkpt>
      <trkpt lat="47.29495" lon="-1.48711">
        <ele>80</ele>
        <time>2021-02-27T11:26:00.000Z</time>
      </trkpt>
      <trkpt lat="47.29505" lon="-1.48704">
        <ele>80</ele>
        <time>2021-02-27T11:26:02.000Z</time>
      </trkpt>
      <trkpt lat="47.29515" lon="-1.48696">
        <ele>80</ele>
        <time>2021-02-27T11:26:04.000Z</time>
      </trkpt>
      <trkpt lat="47.29524" lon="-1.48689">
        <ele>80</ele>
        <time>2021-02-27T11:26:06.000Z</time>
      </trkpt>
      <trkpt lat="47.29534" lon="-1.48682">
        <ele>79</ele>
        <time>2021-02-27T11:26:08.000Z</time>
      </trkpt>
      <trkpt lat="47.29544" lon="-1.48678">
        <ele>78</ele>
        <time>2021-02-27T11:26:10.000Z</time>
      </trkpt>
      <trkpt lat="47.29554" lon="-1.48673">
        <ele>79</ele>
        <time>2021-02-27T11:26:12.000Z</time>
      </trkpt>
      <trkpt lat="47.29565" lon="-1.48669">
        <ele>79</ele>
        <time>2021-02-27T11:26:14.000Z</time>
      </trkpt>
      <trkpt lat="47.29576" lon="-1.48664">
        <ele>78</ele>
        <time>2021-02-27T11:26:16.000Z</time>
      </trkpt>
      <trkpt lat="47.29587" lon="-1.4866">
        <ele>78</ele>
        <time>2021-02-27T11:26:18.000Z</time>
      </trkpt>
      <trkpt lat="47.29599" lon="-1.48655">
        <ele>77</ele>
        <time>2021-02-27T11:26:20.000Z</time>
      </trkpt>
      <trkpt lat="47.2961" lon="-1.4865">
        <ele>76</ele>
        <time>2021-02-27T11:26:22.000Z</time>
      </trkpt>
      <trkpt lat="47.29622" lon="-1.48646">
        <ele>77</ele>
        <time>2021-02-27T11:26:24.000Z</time>
      </trkpt>
      <trkpt lat="47.29632" lon="-1.48637">
        <ele>77</ele>
        <time>2021-02-27T11:26:26.000Z</time>
      </trkpt>
      <trkpt lat="47.29641" lon="-1.48626">
        <ele>76</ele>
        <time>2021-02-27T11:26:28.000Z</time>
      </trkpt>
      <trkpt lat="47.29652" lon="-1.48622">
        <ele>76</ele>
        <time>2021-02-27T11:26:30.000Z</time>
      </trkpt>
      <trkpt lat="47.29663" lon="-1.4863">
        <ele>76</ele>
        <time>2021-02-27T11:26:32.000Z</time>
      </trkpt>
      <trkpt lat="47.29675" lon="-1.48637">
        <ele>76</ele>
        <time>2021-02-27T11:26:34.000Z</time>
      </trkpt>
      <trkpt lat="47.29686" lon="-1.48647">
        <ele>76</ele>
        <time>2021-02-27T11:26:36.000Z</time>
      </trkpt>
      <trkpt lat="47.29696" lon="-1.48659">
        <ele>76</ele>
        <time>2021-02-27T11:26:38.000Z</time>
      </trkpt>
      <trkpt lat="47.29704" lon="-1.48674">
        <ele>76</ele>
        <time>2021-02-27T11:26:40.000Z</time>
      </trkpt>
      <trkpt lat="47.29712" lon="-1.48691">
        <ele>76</ele>
        <time>2021-02-27T11:26:42.000Z</time>
      </trkpt>
      <trkpt lat="47.29722" lon="-1.48703">
        <ele>76</ele>
        <time>2021-02-27T11:26:44.000Z</time>
      </trkpt>
      <trkpt lat="47.29733" lon="-1.48713">
        <ele>77</ele>
        <time>2021-02-27T11:26:46.000Z</time>
      </trkpt>
      <trkpt lat="47.29745" lon="-1.48723">
        <ele>77</ele>
        <time>2021-02-27T11:26:48.000Z</time>
      </trkpt>
      <trkpt lat="47.29757" lon="-1.48731">
        <ele>78</ele>
        <time>2021-02-27T11:26:50.000Z</time>
      </trkpt>
      <trkpt lat="47.29769" lon="-1.4874">
        <ele>78</ele>
        <time>2021-02-27T11:26:52.000Z</time>
      </trkpt>
      <trkpt lat="47.2978" lon="-1.48749">
        <ele>78</ele>
        <time>2021-02-27T11:26:54.000Z</time>
      </trkpt>
      <trkpt lat="47.29792" lon="-1.48758">
        <ele>79</ele>
        <time>2021-02-27T11:26:56.000Z</time>
      </trkpt>
      <trkpt lat="47.29802" lon="-1.48768">
        <ele>79</ele>
        <time>2021-02-27T11:26:58.000Z</time>
      </trkpt>
      <trkpt lat="47.29813" lon="-1.48778">
        <ele>81</ele>
        <time>2021-02-27T11:27:00.000Z</time>
      </trkpt>
      <trkpt lat="47.29824" lon="-1.48786">
        <ele>82</ele>
        <time>2021-02-27T11:27:02.000Z</time>
      </trkpt>
      <trkpt lat="47.29836" lon="-1.48793">
        <ele>81</ele>
        <time>2021-02-27T11:27:04.000Z</time>
      </trkpt>
      <trkpt lat="47.29847" lon="-1.488">
        <ele>80</ele>
        <time>2021-02-27T11:27:06.000Z</time>
      </trkpt>
      <trkpt lat="47.29858" lon="-1.48809">
        <ele>80</ele>
        <time>2021-02-27T11:27:08.000Z</time>
      </trkpt>
      <trkpt lat="47.29869" lon="-1.48817">
        <ele>80</ele>
        <time>2021-02-27T11:27:10.000Z</time>
      </trkpt>
      <trkpt lat="47.29879" lon="-1.48827">
        <ele>79</ele>
        <time>2021-02-27T11:27:12.000Z</time>
      </trkpt>
      <trkpt lat="47.29888" lon="-1.48837">
        <ele>79</ele>
        <time>2021-02-27T11:27:14.000Z</time>
      </trkpt>
      <trkpt lat="47.29898" lon="-1.48845">
        <ele>78</ele>
        <time>2021-02-27T11:27:16.000Z</time>
      </trkpt>
      <trkpt lat="47.29909" lon="-1.48852">
        <ele>78</ele>
        <time>2021-02-27T11:27:18.000Z</time>
      </trkpt>
      <trkpt lat="47.29919" lon="-1.48859">
        <ele>77</ele>
        <time>2021-02-27T11:27:20.000Z</time>
      </trkpt>
      <trkpt lat="47.2993" lon="-1.48867">
        <ele>76</ele>
        <time>2021-02-27T11:27:22.000Z</time>
      </trkpt>
      <trkpt lat="47.2994" lon="-1.48874">
        <ele>75</ele>
        <time>2021-02-27T11:27:24.000Z</time>
      </trkpt>
      <trkpt lat="47.2995" lon="-1.48881">
        <ele>74</ele>
        <time>2021-02-27T11:27:26.000Z</time>
      </trkpt>
      <trkpt lat="47.2996" lon="-1.48889">
        <ele>74</ele>
        <time>2021-02-27T11:27:28.000Z</time>
      </trkpt>
      <trkpt lat="47.29971" lon="-1.48897">
        <ele>73</ele>
        <time>2021-02-27T11:27:30.000Z</time>
      </trkpt>
      <trkpt lat="47.2998" lon="-1.48907">
        <ele>73</ele>
        <time>2021-02-27T11:27:32.000Z</time>
      </trkpt>
      <trkpt lat="47.29994" lon="-1.48913">
        <ele>73</ele>
        <time>2021-02-27T11:27:34.000Z</time>
      </trkpt>
      <trkpt lat="47.30007" lon="-1.4891">
        <ele>72</ele>
        <time>2021-02-27T11:27:36.000Z</time>
      </trkpt>
      <trkpt lat="47.30019" lon="-1.48897">
        <ele>72</ele>
        <time>2021-02-27T11:27:38.000Z</time>
      </trkpt>
      <trkpt lat="47.30031" lon="-1.48884">
        <ele>72</ele>
        <time>2021-02-27T11:27:40.000Z</time>
      </trkpt>
      <trkpt lat="47.30043" lon="-1.48872">
        <ele>71</ele>
        <time>2021-02-27T11:27:42.000Z</time>
      </trkpt>
      <trkpt lat="47.30055" lon="-1.48861">
        <ele>71</ele>
        <time>2021-02-27T11:27:44.000Z</time>
      </trkpt>
      <trkpt lat="47.30066" lon="-1.48849">
        <ele>70</ele>
        <time>2021-02-27T11:27:46.000Z</time>
      </trkpt>
      <trkpt lat="47.30077" lon="-1.48838">
        <ele>70</ele>
        <time>2021-02-27T11:27:48.000Z</time>
      </trkpt>
      <trkpt lat="47.30087" lon="-1.48828">
        <ele>69</ele>
        <time>2021-02-27T11:27:50.000Z</time>
      </trkpt>
      <trkpt lat="47.30098" lon="-1.48817">
        <ele>69</ele>
        <time>2021-02-27T11:27:52.000Z</time>
      </trkpt>
      <trkpt lat="47.30108" lon="-1.48805">
        <ele>69</ele>
        <time>2021-02-27T11:27:54.000Z</time>
      </trkpt>
      <trkpt lat="47.30118" lon="-1.48794">
        <ele>69</ele>
        <time>2021-02-27T11:27:56.000Z</time>
      </trkpt>
      <trkpt lat="47.30129" lon="-1.48782">
        <ele>69</ele>
        <time>2021-02-27T11:27:58.000Z</time>
      </trkpt>
      <trkpt lat="47.30139" lon="-1.48771">
        <ele>69</ele>
        <time>2021-02-27T11:28:00.000Z</time>
      </trkpt>
      <trkpt lat="47.30149" lon="-1.48761">
        <ele>69</ele>
        <time>2021-02-27T11:28:02.000Z</time>
      </trkpt>
      <trkpt lat="47.30159" lon="-1.4875">
        <ele>69</ele>
        <time>2021-02-27T11:28:04.000Z</time>
      </trkpt>
      <trkpt lat="47.30169" lon="-1.48739">
        <ele>69</ele>
        <time>2021-02-27T11:28:06.000Z</time>
      </trkpt>
      <trkpt lat="47.30179" lon="-1.48729">
        <ele>69</ele>
        <time>2021-02-27T11:28:08.000Z</time>
      </trkpt>
      <trkpt lat="47.30189" lon="-1.48717">
        <ele>68</ele>
        <time>2021-02-27T11:28:10.000Z</time>
      </trkpt>
      <trkpt lat="47.30199" lon="-1.48707">
        <ele>68</ele>
        <time>2021-02-27T11:28:12.000Z</time>
      </trkpt>
      <trkpt lat="47.30209" lon="-1.48697">
        <ele>68</ele>
        <time>2021-02-27T11:28:14.000Z</time>
      </trkpt>
      <trkpt lat="47.30219" lon="-1.48687">
        <ele>68</ele>
        <time>2021-02-27T11:28:16.000Z</time>
      </trkpt>
      <trkpt lat="47.3023" lon="-1.48677">
        <ele>69</ele>
        <time>2021-02-27T11:28:18.000Z</time>
      </trkpt>
      <trkpt lat="47.30239" lon="-1.48667">
        <ele>68</ele>
        <time>2021-02-27T11:28:20.000Z</time>
      </trkpt>
      <trkpt lat="47.30249" lon="-1.48656">
        <ele>68</ele>
        <time>2021-02-27T11:28:22.000Z</time>
      </trkpt>
      <trkpt lat="47.30259" lon="-1.48646">
        <ele>68</ele>
        <time>2021-02-27T11:28:24.000Z</time>
      </trkpt>
      <trkpt lat="47.30269" lon="-1.48636">
        <ele>68</ele>
        <time>2021-02-27T11:28:26.000Z</time>
      </trkpt>
      <trkpt lat="47.30279" lon="-1.48627">
        <ele>68</ele>
        <time>2021-02-27T11:28:28.000Z</time>
      </trkpt>
      <trkpt lat="47.30289" lon="-1.48618">
        <ele>67</ele>
        <time>2021-02-27T11:28:30.000Z</time>
      </trkpt>
      <trkpt lat="47.30299" lon="-1.4861">
        <ele>67</ele>
        <time>2021-02-27T11:28:32.000Z</time>
      </trkpt>
      <trkpt lat="47.30309" lon="-1.48601">
        <ele>67</ele>
        <time>2021-02-27T11:28:34.000Z</time>
      </trkpt>
      <trkpt lat="47.30319" lon="-1.48591">
        <ele>67</ele>
        <time>2021-02-27T11:28:36.000Z</time>
      </trkpt>
      <trkpt lat="47.30329" lon="-1.48582">
        <ele>66</ele>
        <time>2021-02-27T11:28:38.000Z</time>
      </trkpt>
      <trkpt lat="47.30339" lon="-1.48572">
        <ele>66</ele>
        <time>2021-02-27T11:28:40.000Z</time>
      </trkpt>
      <trkpt lat="47.3035" lon="-1.48563">
        <ele>66</ele>
        <time>2021-02-27T11:28:42.000Z</time>
      </trkpt>
      <trkpt lat="47.3036" lon="-1.48552">
        <ele>66</ele>
        <time>2021-02-27T11:28:44.000Z</time>
      </trkpt>
      <trkpt lat="47.30369" lon="-1.48541">
        <ele>66</ele>
        <time>2021-02-27T11:28:46.000Z</time>
      </trkpt>
      <trkpt lat="47.30378" lon="-1.48529">
        <ele>66</ele>
        <time>2021-02-27T11:28:48.000Z</time>
      </trkpt>
      <trkpt lat="47.30385" lon="-1.48516">
        <ele>66</ele>
        <time>2021-02-27T11:28:50.000Z</time>
      </trkpt>
      <trkpt lat="47.30395" lon="-1.48506">
        <ele>65</ele>
        <time>2021-02-27T11:28:52.000Z</time>
      </trkpt>
      <trkpt lat="47.30406" lon="-1.48502">
        <ele>65</ele>
        <time>2021-02-27T11:28:54.000Z</time>
      </trkpt>
      <trkpt lat="47.30417" lon="-1.48497">
        <ele>64</ele>
        <time>2021-02-27T11:28:56.000Z</time>
      </trkpt>
      <trkpt lat="47.30428" lon="-1.48488">
        <ele>64</ele>
        <time>2021-02-27T11:28:58.000Z</time>
      </trkpt>
      <trkpt lat="47.30438" lon="-1.48478">
        <ele>64</ele>
        <time>2021-02-27T11:29:00.000Z</time>
      </trkpt>
      <trkpt lat="47.30449" lon="-1.48468">
        <ele>63</ele>
        <time>2021-02-27T11:29:02.000Z</time>
      </trkpt>
      <trkpt lat="47.3046" lon="-1.48458">
        <ele>63</ele>
        <time>2021-02-27T11:29:04.000Z</time>
      </trkpt>
      <trkpt lat="47.30471" lon="-1.48448">
        <ele>63</ele>
        <time>2021-02-27T11:29:06.000Z</time>
      </trkpt>
      <trkpt lat="47.30482" lon="-1.48438">
        <ele>63</ele>
        <time>2021-02-27T11:29:08.000Z</time>
      </trkpt>
      <trkpt lat="47.30493" lon="-1.48428">
        <ele>63</ele>
        <time>2021-02-27T11:29:10.000Z</time>
      </trkpt>
      <trkpt lat="47.30505" lon="-1.48418">
        <ele>62</ele>
        <time>2021-02-27T11:29:12.000Z</time>
      </trkpt>
      <trkpt lat="47.30517" lon="-1.48408">
        <ele>61</ele>
        <time>2021-02-27T11:29:14.000Z</time>
      </trkpt>
      <trkpt lat="47.30528" lon="-1.48398">
        <ele>61</ele>
        <time>2021-02-27T11:29:16.000Z</time>
      </trkpt>
      <trkpt lat="47.30539" lon="-1.48388">
        <ele>61</ele>
        <time>2021-02-27T11:29:18.000Z</time>
      </trkpt>
      <trkpt lat="47.3055" lon="-1.48378">
        <ele>61</ele>
        <time>2021-02-27T11:29:20.000Z</time>
      </trkpt>
      <trkpt lat="47.3056" lon="-1.48369">
        <ele>61</ele>
        <time>2021-02-27T11:29:22.000Z</time>
      </trkpt>
      <trkpt lat="47.3057" lon="-1.48359">
        <ele>61</ele>
        <time>2021-02-27T11:29:24.000Z</time>
      </trkpt>
      <trkpt lat="47.30579" lon="-1.48351">
        <ele>61</ele>
        <time>2021-02-27T11:29:26.000Z</time>
      </trkpt>
      <trkpt lat="47.30587" lon="-1.48343">
        <ele>62</ele>
        <time>2021-02-27T11:29:28.000Z</time>
      </trkpt>
      <trkpt lat="47.30594" lon="-1.48335">
        <ele>62</ele>
        <time>2021-02-27T11:29:30.000Z</time>
      </trkpt>
      <trkpt lat="47.30602" lon="-1.48327">
        <ele>63</ele>
        <time>2021-02-27T11:29:32.000Z</time>
      </trkpt>
      <trkpt lat="47.3061" lon="-1.48319">
        <ele>64</ele>
        <time>2021-02-27T11:29:34.000Z</time>
      </trkpt>
      <trkpt lat="47.30616" lon="-1.4831">
        <ele>64</ele>
        <time>2021-02-27T11:29:36.000Z</time>
      </trkpt>
      <trkpt lat="47.30622" lon="-1.483">
        <ele>64</ele>
        <time>2021-02-27T11:29:38.000Z</time>
      </trkpt>
      <trkpt lat="47.30628" lon="-1.48289">
        <ele>65</ele>
        <time>2021-02-27T11:29:40.000Z</time>
      </trkpt>
      <trkpt lat="47.30634" lon="-1.48278">
        <ele>65</ele>
        <time>2021-02-27T11:29:42.000Z</time>
      </trkpt>
      <trkpt lat="47.30641" lon="-1.48269">
        <ele>66</ele>
        <time>2021-02-27T11:29:44.000Z</time>
      </trkpt>
      <trkpt lat="47.3065" lon="-1.48264">
        <ele>67</ele>
        <time>2021-02-27T11:29:46.000Z</time>
      </trkpt>
      <trkpt lat="47.30659" lon="-1.4826">
        <ele>66</ele>
        <time>2021-02-27T11:29:48.000Z</time>
      </trkpt>
      <trkpt lat="47.30668" lon="-1.48255">
        <ele>66</ele>
        <time>2021-02-27T11:29:50.000Z</time>
      </trkpt>
      <trkpt lat="47.30676" lon="-1.4825">
        <ele>67</ele>
        <time>2021-02-27T11:29:52.000Z</time>
      </trkpt>
      <trkpt lat="47.30685" lon="-1.48247">
        <ele>67</ele>
        <time>2021-02-27T11:29:54.000Z</time>
      </trkpt>
      <trkpt lat="47.30695" lon="-1.48245">
        <ele>67</ele>
        <time>2021-02-27T11:29:56.000Z</time>
      </trkpt>
      <trkpt lat="47.30708" lon="-1.48246">
        <ele>68</ele>
        <time>2021-02-27T11:29:59.000Z</time>
      </trkpt>
      <trkpt lat="47.30721" lon="-1.48249">
        <ele>69</ele>
        <time>2021-02-27T11:30:02.000Z</time>
      </trkpt>
      <trkpt lat="47.30733" lon="-1.48251">
        <ele>69</ele>
        <time>2021-02-27T11:30:05.000Z</time>
      </trkpt>
      <trkpt lat="47.30742" lon="-1.4825">
        <ele>70</ele>
        <time>2021-02-27T11:30:11.000Z</time>
      </trkpt>
      <trkpt lat="47.30753" lon="-1.48239">
        <ele>69</ele>
        <time>2021-02-27T11:30:15.000Z</time>
      </trkpt>
      <trkpt lat="47.30762" lon="-1.48225">
        <ele>69</ele>
        <time>2021-02-27T11:30:18.000Z</time>
      </trkpt>
      <trkpt lat="47.30767" lon="-1.48206">
        <ele>68</ele>
        <time>2021-02-27T11:30:21.000Z</time>
      </trkpt>
      <trkpt lat="47.30771" lon="-1.48194">
        <ele>67</ele>
        <time>2021-02-27T11:30:23.000Z</time>
      </trkpt>
      <trkpt lat="47.30774" lon="-1.48181">
        <ele>67</ele>
        <time>2021-02-27T11:30:25.000Z</time>
      </trkpt>
      <trkpt lat="47.30777" lon="-1.48167">
        <ele>67</ele>
        <time>2021-02-27T11:30:27.000Z</time>
      </trkpt>
      <trkpt lat="47.30781" lon="-1.48152">
        <ele>67</ele>
        <time>2021-02-27T11:30:29.000Z</time>
      </trkpt>
      <trkpt lat="47.30785" lon="-1.48138">
        <ele>67</ele>
        <time>2021-02-27T11:30:31.000Z</time>
      </trkpt>
      <trkpt lat="47.30789" lon="-1.48123">
        <ele>67</ele>
        <time>2021-02-27T11:30:33.000Z</time>
      </trkpt>
      <trkpt lat="47.30792" lon="-1.48107">
        <ele>66</ele>
        <time>2021-02-27T11:30:35.000Z</time>
      </trkpt>
      <trkpt lat="47.30796" lon="-1.48092">
        <ele>65</ele>
        <time>2021-02-27T11:30:37.000Z</time>
      </trkpt>
      <trkpt lat="47.30799" lon="-1.48076">
        <ele>65</ele>
        <time>2021-02-27T11:30:39.000Z</time>
      </trkpt>
      <trkpt lat="47.30801" lon="-1.4806">
        <ele>64</ele>
        <time>2021-02-27T11:30:41.000Z</time>
      </trkpt>
      <trkpt lat="47.30802" lon="-1.48043">
        <ele>64</ele>
        <time>2021-02-27T11:30:43.000Z</time>
      </trkpt>
      <trkpt lat="47.30801" lon="-1.48027">
        <ele>64</ele>
        <time>2021-02-27T11:30:45.000Z</time>
      </trkpt>
      <trkpt lat="47.30806" lon="-1.48013">
        <ele>64</ele>
        <time>2021-02-27T11:30:47.000Z</time>
      </trkpt>
      <trkpt lat="47.30817" lon="-1.48006">
        <ele>64</ele>
        <time>2021-02-27T11:30:49.000Z</time>
      </trkpt>
      <trkpt lat="47.30829" lon="-1.4801">
        <ele>64</ele>
        <time>2021-02-27T11:30:51.000Z</time>
      </trkpt>
      <trkpt lat="47.30836" lon="-1.48024">
        <ele>64</ele>
        <time>2021-02-27T11:30:53.000Z</time>
      </trkpt>
      <trkpt lat="47.3084" lon="-1.4804">
        <ele>64</ele>
        <time>2021-02-27T11:30:55.000Z</time>
      </trkpt>
      <trkpt lat="47.30847" lon="-1.48053">
        <ele>64</ele>
        <time>2021-02-27T11:30:57.000Z</time>
      </trkpt>
      <trkpt lat="47.30856" lon="-1.48064">
        <ele>64</ele>
        <time>2021-02-27T11:30:59.000Z</time>
      </trkpt>
      <trkpt lat="47.30866" lon="-1.48074">
        <ele>64</ele>
        <time>2021-02-27T11:31:01.000Z</time>
      </trkpt>
      <trkpt lat="47.30876" lon="-1.48083">
        <ele>63</ele>
        <time>2021-02-27T11:31:03.000Z</time>
      </trkpt>
      <trkpt lat="47.30886" lon="-1.48093">
        <ele>63</ele>
        <time>2021-02-27T11:31:05.000Z</time>
      </trkpt>
      <trkpt lat="47.30897" lon="-1.48101">
        <ele>63</ele>
        <time>2021-02-27T11:31:07.000Z</time>
      </trkpt>
      <trkpt lat="47.30909" lon="-1.48107">
        <ele>62</ele>
        <time>2021-02-27T11:31:09.000Z</time>
      </trkpt>
      <trkpt lat="47.30921" lon="-1.48114">
        <ele>61</ele>
        <time>2021-02-27T11:31:11.000Z</time>
      </trkpt>
      <trkpt lat="47.30933" lon="-1.48117">
        <ele>61</ele>
        <time>2021-02-27T11:31:13.000Z</time>
      </trkpt>
      <trkpt lat="47.30945" lon="-1.48119">
        <ele>61</ele>
        <time>2021-02-27T11:31:15.000Z</time>
      </trkpt>
      <trkpt lat="47.30957" lon="-1.48119">
        <ele>61</ele>
        <time>2021-02-27T11:31:17.000Z</time>
      </trkpt>
      <trkpt lat="47.30968" lon="-1.48123">
        <ele>60</ele>
        <time>2021-02-27T11:31:19.000Z</time>
      </trkpt>
      <trkpt lat="47.30979" lon="-1.48129">
        <ele>60</ele>
        <time>2021-02-27T11:31:21.000Z</time>
      </trkpt>
      <trkpt lat="47.30991" lon="-1.4813">
        <ele>61</ele>
        <time>2021-02-27T11:31:23.000Z</time>
      </trkpt>
      <trkpt lat="47.31003" lon="-1.48129">
        <ele>60</ele>
        <time>2021-02-27T11:31:25.000Z</time>
      </trkpt>
      <trkpt lat="47.31015" lon="-1.48127">
        <ele>60</ele>
        <time>2021-02-27T11:31:27.000Z</time>
      </trkpt>
      <trkpt lat="47.31026" lon="-1.48122">
        <ele>60</ele>
        <time>2021-02-27T11:31:29.000Z</time>
      </trkpt>
      <trkpt lat="47.31038" lon="-1.48117">
        <ele>59</ele>
        <time>2021-02-27T11:31:31.000Z</time>
      </trkpt>
      <trkpt lat="47.31049" lon="-1.48111">
        <ele>59</ele>
        <time>2021-02-27T11:31:33.000Z</time>
      </trkpt>
      <trkpt lat="47.31061" lon="-1.48106">
        <ele>60</ele>
        <time>2021-02-27T11:31:35.000Z</time>
      </trkpt>
      <trkpt lat="47.31072" lon="-1.481">
        <ele>60</ele>
        <time>2021-02-27T11:31:37.000Z</time>
      </trkpt>
      <trkpt lat="47.31082" lon="-1.48095">
        <ele>60</ele>
        <time>2021-02-27T11:31:39.000Z</time>
      </trkpt>
      <trkpt lat="47.31093" lon="-1.4809">
        <ele>60</ele>
        <time>2021-02-27T11:31:41.000Z</time>
      </trkpt>
      <trkpt lat="47.31103" lon="-1.48084">
        <ele>60</ele>
        <time>2021-02-27T11:31:43.000Z</time>
      </trkpt>
      <trkpt lat="47.31113" lon="-1.48079">
        <ele>60</ele>
        <time>2021-02-27T11:31:45.000Z</time>
      </trkpt>
      <trkpt lat="47.31124" lon="-1.48074">
        <ele>61</ele>
        <time>2021-02-27T11:31:47.000Z</time>
      </trkpt>
      <trkpt lat="47.31134" lon="-1.48069">
        <ele>61</ele>
        <time>2021-02-27T11:31:49.000Z</time>
      </trkpt>
      <trkpt lat="47.31143" lon="-1.48064">
        <ele>60</ele>
        <time>2021-02-27T11:31:51.000Z</time>
      </trkpt>
      <trkpt lat="47.31153" lon="-1.48058">
        <ele>60</ele>
        <time>2021-02-27T11:31:53.000Z</time>
      </trkpt>
      <trkpt lat="47.31163" lon="-1.48053">
        <ele>60</ele>
        <time>2021-02-27T11:31:55.000Z</time>
      </trkpt>
      <trkpt lat="47.31173" lon="-1.48047">
        <ele>61</ele>
        <time>2021-02-27T11:31:57.000Z</time>
      </trkpt>
      <trkpt lat="47.31183" lon="-1.48041">
        <ele>61</ele>
        <time>2021-02-27T11:31:59.000Z</time>
      </trkpt>
      <trkpt lat="47.31191" lon="-1.48034">
        <ele>61</ele>
        <time>2021-02-27T11:32:01.000Z</time>
      </trkpt>
      <trkpt lat="47.31201" lon="-1.48029">
        <ele>62</ele>
        <time>2021-02-27T11:32:03.000Z</time>
      </trkpt>
      <trkpt lat="47.3121" lon="-1.48025">
        <ele>62</ele>
        <time>2021-02-27T11:32:05.000Z</time>
      </trkpt>
      <trkpt lat="47.3122" lon="-1.4802">
        <ele>62</ele>
        <time>2021-02-27T11:32:07.000Z</time>
      </trkpt>
      <trkpt lat="47.3123" lon="-1.48015">
        <ele>62</ele>
        <time>2021-02-27T11:32:09.000Z</time>
      </trkpt>
      <trkpt lat="47.3124" lon="-1.48009">
        <ele>62</ele>
        <time>2021-02-27T11:32:11.000Z</time>
      </trkpt>
      <trkpt lat="47.3125" lon="-1.48003">
        <ele>62</ele>
        <time>2021-02-27T11:32:13.000Z</time>
      </trkpt>
      <trkpt lat="47.3126" lon="-1.47997">
        <ele>62</ele>
        <time>2021-02-27T11:32:15.000Z</time>
      </trkpt>
      <trkpt lat="47.3127" lon="-1.47992">
        <ele>62</ele>
        <time>2021-02-27T11:32:17.000Z</time>
      </trkpt>
      <trkpt lat="47.31281" lon="-1.47985">
        <ele>62</ele>
        <time>2021-02-27T11:32:19.000Z</time>
      </trkpt>
      <trkpt lat="47.31293" lon="-1.47979">
        <ele>62</ele>
        <time>2021-02-27T11:32:21.000Z</time>
      </trkpt>
      <trkpt lat="47.31304" lon="-1.47973">
        <ele>62</ele>
        <time>2021-02-27T11:32:23.000Z</time>
      </trkpt>
      <trkpt lat="47.31315" lon="-1.47966">
        <ele>62</ele>
        <time>2021-02-27T11:32:25.000Z</time>
      </trkpt>
      <trkpt lat="47.31327" lon="-1.47959">
        <ele>61</ele>
        <time>2021-02-27T11:32:27.000Z</time>
      </trkpt>
      <trkpt lat="47.31338" lon="-1.47953">
        <ele>61</ele>
        <time>2021-02-27T11:32:29.000Z</time>
      </trkpt>
      <trkpt lat="47.3135" lon="-1.47946">
        <ele>61</ele>
        <time>2021-02-27T11:32:31.000Z</time>
      </trkpt>
      <trkpt lat="47.31361" lon="-1.4794">
        <ele>60</ele>
        <time>2021-02-27T11:32:33.000Z</time>
      </trkpt>
      <trkpt lat="47.31372" lon="-1.47934">
        <ele>60</ele>
        <time>2021-02-27T11:32:35.000Z</time>
      </trkpt>
      <trkpt lat="47.31383" lon="-1.47927">
        <ele>60</ele>
        <time>2021-02-27T11:32:37.000Z</time>
      </trkpt>
      <trkpt lat="47.31393" lon="-1.4792">
        <ele>61</ele>
        <time>2021-02-27T11:32:39.000Z</time>
      </trkpt>
      <trkpt lat="47.31404" lon="-1.47914">
        <ele>61</ele>
        <time>2021-02-27T11:32:41.000Z</time>
      </trkpt>
      <trkpt lat="47.31413" lon="-1.47909">
        <ele>61</ele>
        <time>2021-02-27T11:32:43.000Z</time>
      </trkpt>
      <trkpt lat="47.31423" lon="-1.47903">
        <ele>61</ele>
        <time>2021-02-27T11:32:45.000Z</time>
      </trkpt>
      <trkpt lat="47.31432" lon="-1.47897">
        <ele>62</ele>
        <time>2021-02-27T11:32:47.000Z</time>
      </trkpt>
      <trkpt lat="47.31442" lon="-1.47892">
        <ele>63</ele>
        <time>2021-02-27T11:32:49.000Z</time>
      </trkpt>
      <trkpt lat="47.31451" lon="-1.47886">
        <ele>64</ele>
        <time>2021-02-27T11:32:51.000Z</time>
      </trkpt>
      <trkpt lat="47.31461" lon="-1.47881">
        <ele>64</ele>
        <time>2021-02-27T11:32:53.000Z</time>
      </trkpt>
      <trkpt lat="47.31471" lon="-1.47874">
        <ele>64</ele>
        <time>2021-02-27T11:32:55.000Z</time>
      </trkpt>
      <trkpt lat="47.31481" lon="-1.47869">
        <ele>64</ele>
        <time>2021-02-27T11:32:57.000Z</time>
      </trkpt>
      <trkpt lat="47.31491" lon="-1.47864">
        <ele>64</ele>
        <time>2021-02-27T11:32:59.000Z</time>
      </trkpt>
      <trkpt lat="47.31501" lon="-1.47859">
        <ele>64</ele>
        <time>2021-02-27T11:33:01.000Z</time>
      </trkpt>
      <trkpt lat="47.31511" lon="-1.47854">
        <ele>63</ele>
        <time>2021-02-27T11:33:03.000Z</time>
      </trkpt>
      <trkpt lat="47.31521" lon="-1.47851">
        <ele>63</ele>
        <time>2021-02-27T11:33:05.000Z</time>
      </trkpt>
      <trkpt lat="47.31532" lon="-1.47847">
        <ele>63</ele>
        <time>2021-02-27T11:33:07.000Z</time>
      </trkpt>
      <trkpt lat="47.31543" lon="-1.47843">
        <ele>62</ele>
        <time>2021-02-27T11:33:09.000Z</time>
      </trkpt>
      <trkpt lat="47.31554" lon="-1.4784">
        <ele>62</ele>
        <time>2021-02-27T11:33:11.000Z</time>
      </trkpt>
      <trkpt lat="47.31565" lon="-1.47838">
        <ele>61</ele>
        <time>2021-02-27T11:33:13.000Z</time>
      </trkpt>
      <trkpt lat="47.31577" lon="-1.47836">
        <ele>61</ele>
        <time>2021-02-27T11:33:15.000Z</time>
      </trkpt>
      <trkpt lat="47.31589" lon="-1.47834">
        <ele>60</ele>
        <time>2021-02-27T11:33:17.000Z</time>
      </trkpt>
      <trkpt lat="47.316" lon="-1.47833">
        <ele>60</ele>
        <time>2021-02-27T11:33:19.000Z</time>
      </trkpt>
      <trkpt lat="47.31612" lon="-1.47834">
        <ele>59</ele>
        <time>2021-02-27T11:33:21.000Z</time>
      </trkpt>
      <trkpt lat="47.31625" lon="-1.47833">
        <ele>58</ele>
        <time>2021-02-27T11:33:23.000Z</time>
      </trkpt>
      <trkpt lat="47.31637" lon="-1.47831">
        <ele>58</ele>
        <time>2021-02-27T11:33:25.000Z</time>
      </trkpt>
      <trkpt lat="47.31648" lon="-1.47827">
        <ele>58</ele>
        <time>2021-02-27T11:33:27.000Z</time>
      </trkpt>
      <trkpt lat="47.31659" lon="-1.47822">
        <ele>58</ele>
        <time>2021-02-27T11:33:29.000Z</time>
      </trkpt>
      <trkpt lat="47.3167" lon="-1.47821">
        <ele>57</ele>
        <time>2021-02-27T11:33:31.000Z</time>
      </trkpt>
      <trkpt lat="47.31677" lon="-1.47834">
        <ele>57</ele>
        <time>2021-02-27T11:33:33.000Z</time>
      </trkpt>
      <trkpt lat="47.31675" lon="-1.47851">
        <ele>57</ele>
        <time>2021-02-27T11:33:35.000Z</time>
      </trkpt>
      <trkpt lat="47.31668" lon="-1.47865">
        <ele>57</ele>
        <time>2021-02-27T11:33:37.000Z</time>
      </trkpt>
      <trkpt lat="47.31661" lon="-1.47877">
        <ele>57</ele>
        <time>2021-02-27T11:33:39.000Z</time>
      </trkpt>
      <trkpt lat="47.31654" lon="-1.4789">
        <ele>57</ele>
        <time>2021-02-27T11:33:41.000Z</time>
      </trkpt>
      <trkpt lat="47.31647" lon="-1.47903">
        <ele>57</ele>
        <time>2021-02-27T11:33:43.000Z</time>
      </trkpt>
      <trkpt lat="47.3164" lon="-1.47914">
        <ele>58</ele>
        <time>2021-02-27T11:33:45.000Z</time>
      </trkpt>
      <trkpt lat="47.31632" lon="-1.47926">
        <ele>59</ele>
        <time>2021-02-27T11:33:47.000Z</time>
      </trkpt>
      <trkpt lat="47.31624" lon="-1.47938">
        <ele>59</ele>
        <time>2021-02-27T11:33:49.000Z</time>
      </trkpt>
      <trkpt lat="47.31617" lon="-1.4795">
        <ele>60</ele>
        <time>2021-02-27T11:33:51.000Z</time>
      </trkpt>
      <trkpt lat="47.3161" lon="-1.47965">
        <ele>61</ele>
        <time>2021-02-27T11:33:53.000Z</time>
      </trkpt>
      <trkpt lat="47.31606" lon="-1.4798">
        <ele>61</ele>
        <time>2021-02-27T11:33:55.000Z</time>
      </trkpt>
      <trkpt lat="47.31605" lon="-1.47996">
        <ele>62</ele>
        <time>2021-02-27T11:33:57.000Z</time>
      </trkpt>
      <trkpt lat="47.31607" lon="-1.48012">
        <ele>63</ele>
        <time>2021-02-27T11:33:59.000Z</time>
      </trkpt>
      <trkpt lat="47.31609" lon="-1.48027">
        <ele>63</ele>
        <time>2021-02-27T11:34:01.000Z</time>
      </trkpt>
      <trkpt lat="47.31611" lon="-1.48042">
        <ele>64</ele>
        <time>2021-02-27T11:34:03.000Z</time>
      </trkpt>
      <trkpt lat="47.31613" lon="-1.48058">
        <ele>64</ele>
        <time>2021-02-27T11:34:05.000Z</time>
      </trkpt>
      <trkpt lat="47.31616" lon="-1.48073">
        <ele>64</ele>
        <time>2021-02-27T11:34:07.000Z</time>
      </trkpt>
      <trkpt lat="47.31621" lon="-1.48086">
        <ele>64</ele>
        <time>2021-02-27T11:34:09.000Z</time>
      </trkpt>
      <trkpt lat="47.31629" lon="-1.48096">
        <ele>64</ele>
        <time>2021-02-27T11:34:11.000Z</time>
      </trkpt>
      <trkpt lat="47.31638" lon="-1.48102">
        <ele>64</ele>
        <time>2021-02-27T11:34:13.000Z</time>
      </trkpt>
      <trkpt lat="47.31649" lon="-1.48104">
        <ele>64</ele>
        <time>2021-02-27T11:34:15.000Z</time>
      </trkpt>
      <trkpt lat="47.3166" lon="-1.48101">
        <ele>63</ele>
        <time>2021-02-27T11:34:17.000Z</time>
      </trkpt>
      <trkpt lat="47.3167" lon="-1.48094">
        <ele>63</ele>
        <time>2021-02-27T11:34:19.000Z</time>
      </trkpt>
      <trkpt lat="47.31679" lon="-1.48085">
        <ele>62</ele>
        <time>2021-02-27T11:34:21.000Z</time>
      </trkpt>
      <trkpt lat="47.31688" lon="-1.48076">
        <ele>62</ele>
        <time>2021-02-27T11:34:23.000Z</time>
      </trkpt>
      <trkpt lat="47.31697" lon="-1.48066">
        <ele>61</ele>
        <time>2021-02-27T11:34:25.000Z</time>
      </trkpt>
      <trkpt lat="47.31707" lon="-1.48057">
        <ele>60</ele>
        <time>2021-02-27T11:34:27.000Z</time>
      </trkpt>
      <trkpt lat="47.31717" lon="-1.48048">
        <ele>60</ele>
        <time>2021-02-27T11:34:29.000Z</time>
      </trkpt>
      <trkpt lat="47.31726" lon="-1.48039">
        <ele>60</ele>
        <time>2021-02-27T11:34:31.000Z</time>
      </trkpt>
      <trkpt lat="47.31737" lon="-1.48031">
        <ele>59</ele>
        <time>2021-02-27T11:34:33.000Z</time>
      </trkpt>
      <trkpt lat="47.31747" lon="-1.48023">
        <ele>59</ele>
        <time>2021-02-27T11:34:35.000Z</time>
      </trkpt>
      <trkpt lat="47.31757" lon="-1.48017">
        <ele>59</ele>
        <time>2021-02-27T11:34:37.000Z</time>
      </trkpt>
      <trkpt lat="47.31768" lon="-1.48011">
        <ele>59</ele>
        <time>2021-02-27T11:34:39.000Z</time>
      </trkpt>
      <trkpt lat="47.31779" lon="-1.48006">
        <ele>59</ele>
        <time>2021-02-27T11:34:41.000Z</time>
      </trkpt>
      <trkpt lat="47.31791" lon="-1.48001">
        <ele>58</ele>
        <time>2021-02-27T11:34:43.000Z</time>
      </trkpt>
      <trkpt lat="47.31802" lon="-1.47997">
        <ele>58</ele>
        <time>2021-02-27T11:34:45.000Z</time>
      </trkpt>
      <trkpt lat="47.31813" lon="-1.47994">
        <ele>58</ele>
        <time>2021-02-27T11:34:47.000Z</time>
      </trkpt>
      <trkpt lat="47.31824" lon="-1.4799">
        <ele>58</ele>
        <time>2021-02-27T11:34:49.000Z</time>
      </trkpt>
      <trkpt lat="47.31834" lon="-1.47987">
        <ele>58</ele>
        <time>2021-02-27T11:34:51.000Z</time>
      </trkpt>
      <trkpt lat="47.31845" lon="-1.47983">
        <ele>58</ele>
        <time>2021-02-27T11:34:53.000Z</time>
      </trkpt>
      <trkpt lat="47.31855" lon="-1.4798">
        <ele>58</ele>
        <time>2021-02-27T11:34:55.000Z</time>
      </trkpt>
      <trkpt lat="47.31866" lon="-1.47977">
        <ele>58</ele>
        <time>2021-02-27T11:34:57.000Z</time>
      </trkpt>
      <trkpt lat="47.31877" lon="-1.47973">
        <ele>58</ele>
        <time>2021-02-27T11:34:59.000Z</time>
      </trkpt>
      <trkpt lat="47.31887" lon="-1.4797">
        <ele>58</ele>
        <time>2021-02-27T11:35:01.000Z</time>
      </trkpt>
      <trkpt lat="47.31899" lon="-1.47967">
        <ele>57</ele>
        <time>2021-02-27T11:35:03.000Z</time>
      </trkpt>
      <trkpt lat="47.3191" lon="-1.47963">
        <ele>57</ele>
        <time>2021-02-27T11:35:05.000Z</time>
      </trkpt>
      <trkpt lat="47.31921" lon="-1.4796">
        <ele>57</ele>
        <time>2021-02-27T11:35:07.000Z</time>
      </trkpt>
      <trkpt lat="47.31932" lon="-1.47956">
        <ele>57</ele>
        <time>2021-02-27T11:35:09.000Z</time>
      </trkpt>
      <trkpt lat="47.31942" lon="-1.47953">
        <ele>58</ele>
        <time>2021-02-27T11:35:11.000Z</time>
      </trkpt>
      <trkpt lat="47.31953" lon="-1.4795">
        <ele>57</ele>
        <time>2021-02-27T11:35:13.000Z</time>
      </trkpt>
      <trkpt lat="47.31964" lon="-1.47947">
        <ele>58</ele>
        <time>2021-02-27T11:35:15.000Z</time>
      </trkpt>
      <trkpt lat="47.31975" lon="-1.47945">
        <ele>58</ele>
        <time>2021-02-27T11:35:17.000Z</time>
      </trkpt>
      <trkpt lat="47.31985" lon="-1.47943">
        <ele>57</ele>
        <time>2021-02-27T11:35:19.000Z</time>
      </trkpt>
      <trkpt lat="47.31996" lon="-1.4794">
        <ele>57</ele>
        <time>2021-02-27T11:35:21.000Z</time>
      </trkpt>
      <trkpt lat="47.32007" lon="-1.47937">
        <ele>57</ele>
        <time>2021-02-27T11:35:23.000Z</time>
      </trkpt>
      <trkpt lat="47.32018" lon="-1.47935">
        <ele>57</ele>
        <time>2021-02-27T11:35:25.000Z</time>
      </trkpt>
      <trkpt lat="47.32028" lon="-1.47932">
        <ele>57</ele>
        <time>2021-02-27T11:35:27.000Z</time>
      </trkpt>
      <trkpt lat="47.32039" lon="-1.47929">
        <ele>57</ele>
        <time>2021-02-27T11:35:29.000Z</time>
      </trkpt>
      <trkpt lat="47.3205" lon="-1.47927">
        <ele>57</ele>
        <time>2021-02-27T11:35:31.000Z</time>
      </trkpt>
      <trkpt lat="47.3206" lon="-1.47924">
        <ele>57</ele>
        <time>2021-02-27T11:35:33.000Z</time>
      </trkpt>
      <trkpt lat="47.32071" lon="-1.47922">
        <ele>57</ele>
        <time>2021-02-27T11:35:35.000Z</time>
      </trkpt>
      <trkpt lat="47.32082" lon="-1.47919">
        <ele>57</ele>
        <time>2021-02-27T11:35:37.000Z</time>
      </trkpt>
      <trkpt lat="47.32093" lon="-1.47917">
        <ele>57</ele>
        <time>2021-02-27T11:35:39.000Z</time>
      </trkpt>
      <trkpt lat="47.32104" lon="-1.47914">
        <ele>57</ele>
        <time>2021-02-27T11:35:41.000Z</time>
      </trkpt>
      <trkpt lat="47.32115" lon="-1.47911">
        <ele>57</ele>
        <time>2021-02-27T11:35:43.000Z</time>
      </trkpt>
      <trkpt lat="47.32126" lon="-1.47909">
        <ele>56</ele>
        <time>2021-02-27T11:35:45.000Z</time>
      </trkpt>
      <trkpt lat="47.32138" lon="-1.47906">
        <ele>57</ele>
        <time>2021-02-27T11:35:47.000Z</time>
      </trkpt>
      <trkpt lat="47.32149" lon="-1.47903">
        <ele>56</ele>
        <time>2021-02-27T11:35:49.000Z</time>
      </trkpt>
      <trkpt lat="47.32161" lon="-1.47901">
        <ele>56</ele>
        <time>2021-02-27T11:35:51.000Z</time>
      </trkpt>
      <trkpt lat="47.32172" lon="-1.47899">
        <ele>56</ele>
        <time>2021-02-27T11:35:53.000Z</time>
      </trkpt>
      <trkpt lat="47.32182" lon="-1.47896">
        <ele>56</ele>
        <time>2021-02-27T11:35:55.000Z</time>
      </trkpt>
      <trkpt lat="47.32193" lon="-1.47893">
        <ele>56</ele>
        <time>2021-02-27T11:35:57.000Z</time>
      </trkpt>
      <trkpt lat="47.32204" lon="-1.4789">
        <ele>55</ele>
        <time>2021-02-27T11:35:59.000Z</time>
      </trkpt>
      <trkpt lat="47.32215" lon="-1.47887">
        <ele>56</ele>
        <time>2021-02-27T11:36:01.000Z</time>
      </trkpt>
      <trkpt lat="47.32226" lon="-1.47885">
        <ele>57</ele>
        <time>2021-02-27T11:36:03.000Z</time>
      </trkpt>
      <trkpt lat="47.32237" lon="-1.47882">
        <ele>57</ele>
        <time>2021-02-27T11:36:05.000Z</time>
      </trkpt>
      <trkpt lat="47.32248" lon="-1.47879">
        <ele>57</ele>
        <time>2021-02-27T11:36:07.000Z</time>
      </trkpt>
      <trkpt lat="47.3226" lon="-1.47876">
        <ele>57</ele>
        <time>2021-02-27T11:36:09.000Z</time>
      </trkpt>
      <trkpt lat="47.3227" lon="-1.47873">
        <ele>57</ele>
        <time>2021-02-27T11:36:11.000Z</time>
      </trkpt>
      <trkpt lat="47.32281" lon="-1.4787">
        <ele>57</ele>
        <time>2021-02-27T11:36:13.000Z</time>
      </trkpt>
      <trkpt lat="47.32292" lon="-1.47868">
        <ele>57</ele>
        <time>2021-02-27T11:36:15.000Z</time>
      </trkpt>
      <trkpt lat="47.32303" lon="-1.47865">
        <ele>57</ele>
        <time>2021-02-27T11:36:17.000Z</time>
      </trkpt>
      <trkpt lat="47.32314" lon="-1.47862">
        <ele>57</ele>
        <time>2021-02-27T11:36:19.000Z</time>
      </trkpt>
      <trkpt lat="47.32326" lon="-1.4786">
        <ele>57</ele>
        <time>2021-02-27T11:36:21.000Z</time>
      </trkpt>
      <trkpt lat="47.32337" lon="-1.47857">
        <ele>57</ele>
        <time>2021-02-27T11:36:23.000Z</time>
      </trkpt>
      <trkpt lat="47.32348" lon="-1.47855">
        <ele>57</ele>
        <time>2021-02-27T11:36:25.000Z</time>
      </trkpt>
      <trkpt lat="47.32359" lon="-1.47852">
        <ele>57</ele>
        <time>2021-02-27T11:36:27.000Z</time>
      </trkpt>
      <trkpt lat="47.32369" lon="-1.47849">
        <ele>58</ele>
        <time>2021-02-27T11:36:29.000Z</time>
      </trkpt>
      <trkpt lat="47.3238" lon="-1.47846">
        <ele>58</ele>
        <time>2021-02-27T11:36:31.000Z</time>
      </trkpt>
      <trkpt lat="47.32391" lon="-1.47843">
        <ele>58</ele>
        <time>2021-02-27T11:36:33.000Z</time>
      </trkpt>
      <trkpt lat="47.32402" lon="-1.47841">
        <ele>58</ele>
        <time>2021-02-27T11:36:35.000Z</time>
      </trkpt>
      <trkpt lat="47.32413" lon="-1.47838">
        <ele>58</ele>
        <time>2021-02-27T11:36:37.000Z</time>
      </trkpt>
      <trkpt lat="47.32424" lon="-1.47836">
        <ele>58</ele>
        <time>2021-02-27T11:36:39.000Z</time>
      </trkpt>
      <trkpt lat="47.32435" lon="-1.47834">
        <ele>58</ele>
        <time>2021-02-27T11:36:41.000Z</time>
      </trkpt>
      <trkpt lat="47.32445" lon="-1.47831">
        <ele>58</ele>
        <time>2021-02-27T11:36:43.000Z</time>
      </trkpt>
      <trkpt lat="47.32456" lon="-1.47828">
        <ele>58</ele>
        <time>2021-02-27T11:36:45.000Z</time>
      </trkpt>
      <trkpt lat="47.32466" lon="-1.47826">
        <ele>58</ele>
        <time>2021-02-27T11:36:47.000Z</time>
      </trkpt>
      <trkpt lat="47.32477" lon="-1.47823">
        <ele>58</ele>
        <time>2021-02-27T11:36:49.000Z</time>
      </trkpt>
      <trkpt lat="47.32488" lon="-1.4782">
        <ele>58</ele>
        <time>2021-02-27T11:36:51.000Z</time>
      </trkpt>
      <trkpt lat="47.32499" lon="-1.47818">
        <ele>58</ele>
        <time>2021-02-27T11:36:53.000Z</time>
      </trkpt>
      <trkpt lat="47.3251" lon="-1.47816">
        <ele>58</ele>
        <time>2021-02-27T11:36:55.000Z</time>
      </trkpt>
      <trkpt lat="47.3252" lon="-1.47814">
        <ele>58</ele>
        <time>2021-02-27T11:36:57.000Z</time>
      </trkpt>
      <trkpt lat="47.3253" lon="-1.47811">
        <ele>57</ele>
        <time>2021-02-27T11:36:59.000Z</time>
      </trkpt>
      <trkpt lat="47.32541" lon="-1.47808">
        <ele>57</ele>
        <time>2021-02-27T11:37:01.000Z</time>
      </trkpt>
      <trkpt lat="47.32552" lon="-1.47806">
        <ele>57</ele>
        <time>2021-02-27T11:37:03.000Z</time>
      </trkpt>
      <trkpt lat="47.32563" lon="-1.47803">
        <ele>57</ele>
        <time>2021-02-27T11:37:05.000Z</time>
      </trkpt>
      <trkpt lat="47.32574" lon="-1.478">
        <ele>57</ele>
        <time>2021-02-27T11:37:07.000Z</time>
      </trkpt>
      <trkpt lat="47.32584" lon="-1.47797">
        <ele>57</ele>
        <time>2021-02-27T11:37:09.000Z</time>
      </trkpt>
      <trkpt lat="47.32595" lon="-1.47794">
        <ele>57</ele>
        <time>2021-02-27T11:37:11.000Z</time>
      </trkpt>
      <trkpt lat="47.32606" lon="-1.47792">
        <ele>57</ele>
        <time>2021-02-27T11:37:13.000Z</time>
      </trkpt>
      <trkpt lat="47.32617" lon="-1.4779">
        <ele>57</ele>
        <time>2021-02-27T11:37:15.000Z</time>
      </trkpt>
      <trkpt lat="47.32627" lon="-1.47788">
        <ele>57</ele>
        <time>2021-02-27T11:37:17.000Z</time>
      </trkpt>
      <trkpt lat="47.32637" lon="-1.47785">
        <ele>58</ele>
        <time>2021-02-27T11:37:19.000Z</time>
      </trkpt>
      <trkpt lat="47.32648" lon="-1.47782">
        <ele>58</ele>
        <time>2021-02-27T11:37:21.000Z</time>
      </trkpt>
      <trkpt lat="47.32658" lon="-1.47779">
        <ele>58</ele>
        <time>2021-02-27T11:37:23.000Z</time>
      </trkpt>
      <trkpt lat="47.32668" lon="-1.47776">
        <ele>58</ele>
        <time>2021-02-27T11:37:25.000Z</time>
      </trkpt>
      <trkpt lat="47.32678" lon="-1.47774">
        <ele>58</ele>
        <time>2021-02-27T11:37:27.000Z</time>
      </trkpt>
      <trkpt lat="47.32688" lon="-1.47771">
        <ele>58</ele>
        <time>2021-02-27T11:37:29.000Z</time>
      </trkpt>
      <trkpt lat="47.32698" lon="-1.47769">
        <ele>58</ele>
        <time>2021-02-27T11:37:31.000Z</time>
      </trkpt>
      <trkpt lat="47.32708" lon="-1.47767">
        <ele>58</ele>
        <time>2021-02-27T11:37:33.000Z</time>
      </trkpt>
      <trkpt lat="47.32718" lon="-1.47765">
        <ele>58</ele>
        <time>2021-02-27T11:37:35.000Z</time>
      </trkpt>
      <trkpt lat="47.32728" lon="-1.47762">
        <ele>58</ele>
        <time>2021-02-27T11:37:37.000Z</time>
      </trkpt>
      <trkpt lat="47.32737" lon="-1.4776">
        <ele>58</ele>
        <time>2021-02-27T11:37:39.000Z</time>
      </trkpt>
      <trkpt lat="47.32747" lon="-1.47757">
        <ele>58</ele>
        <time>2021-02-27T11:37:41.000Z</time>
      </trkpt>
      <trkpt lat="47.32756" lon="-1.47754">
        <ele>59</ele>
        <time>2021-02-27T11:37:43.000Z</time>
      </trkpt>
      <trkpt lat="47.32766" lon="-1.47751">
        <ele>59</ele>
        <time>2021-02-27T11:37:45.000Z</time>
      </trkpt>
      <trkpt lat="47.32776" lon="-1.47749">
        <ele>58</ele>
        <time>2021-02-27T11:37:47.000Z</time>
      </trkpt>
      <trkpt lat="47.32785" lon="-1.47747">
        <ele>59</ele>
        <time>2021-02-27T11:37:49.000Z</time>
      </trkpt>
      <trkpt lat="47.32794" lon="-1.47745">
        <ele>58</ele>
        <time>2021-02-27T11:37:51.000Z</time>
      </trkpt>
      <trkpt lat="47.32804" lon="-1.47744">
        <ele>58</ele>
        <time>2021-02-27T11:37:53.000Z</time>
      </trkpt>
      <trkpt lat="47.32814" lon="-1.47742">
        <ele>58</ele>
        <time>2021-02-27T11:37:55.000Z</time>
      </trkpt>
      <trkpt lat="47.32824" lon="-1.4774">
        <ele>58</ele>
        <time>2021-02-27T11:37:57.000Z</time>
      </trkpt>
      <trkpt lat="47.32834" lon="-1.47739">
        <ele>58</ele>
        <time>2021-02-27T11:37:59.000Z</time>
      </trkpt>
      <trkpt lat="47.32844" lon="-1.47737">
        <ele>59</ele>
        <time>2021-02-27T11:38:01.000Z</time>
      </trkpt>
      <trkpt lat="47.32854" lon="-1.47736">
        <ele>59</ele>
        <time>2021-02-27T11:38:03.000Z</time>
      </trkpt>
      <trkpt lat="47.32865" lon="-1.47735">
        <ele>59</ele>
        <time>2021-02-27T11:38:05.000Z</time>
      </trkpt>
      <trkpt lat="47.32875" lon="-1.47734">
        <ele>59</ele>
        <time>2021-02-27T11:38:07.000Z</time>
      </trkpt>
      <trkpt lat="47.32886" lon="-1.47734">
        <ele>59</ele>
        <time>2021-02-27T11:38:09.000Z</time>
      </trkpt>
      <trkpt lat="47.32896" lon="-1.47733">
        <ele>60</ele>
        <time>2021-02-27T11:38:11.000Z</time>
      </trkpt>
      <trkpt lat="47.32906" lon="-1.47732">
        <ele>60</ele>
        <time>2021-02-27T11:38:13.000Z</time>
      </trkpt>
      <trkpt lat="47.32916" lon="-1.47733">
        <ele>60</ele>
        <time>2021-02-27T11:38:15.000Z</time>
      </trkpt>
      <trkpt lat="47.32926" lon="-1.47734">
        <ele>60</ele>
        <time>2021-02-27T11:38:17.000Z</time>
      </trkpt>
      <trkpt lat="47.32937" lon="-1.47735">
        <ele>60</ele>
        <time>2021-02-27T11:38:19.000Z</time>
      </trkpt>
      <trkpt lat="47.32947" lon="-1.47736">
        <ele>59</ele>
        <time>2021-02-27T11:38:21.000Z</time>
      </trkpt>
      <trkpt lat="47.32957" lon="-1.47737">
        <ele>60</ele>
        <time>2021-02-27T11:38:23.000Z</time>
      </trkpt>
      <trkpt lat="47.32968" lon="-1.47739">
        <ele>60</ele>
        <time>2021-02-27T11:38:25.000Z</time>
      </trkpt>
      <trkpt lat="47.32978" lon="-1.47741">
        <ele>60</ele>
        <time>2021-02-27T11:38:27.000Z</time>
      </trkpt>
      <trkpt lat="47.32988" lon="-1.47743">
        <ele>60</ele>
        <time>2021-02-27T11:38:29.000Z</time>
      </trkpt>
      <trkpt lat="47.33015" lon="-1.47748">
        <ele>60</ele>
        <time>2021-02-27T11:38:34.000Z</time>
      </trkpt>
      <trkpt lat="47.33025" lon="-1.4775">
        <ele>60</ele>
        <time>2021-02-27T11:38:36.000Z</time>
      </trkpt>
      <trkpt lat="47.33035" lon="-1.47751">
        <ele>60</ele>
        <time>2021-02-27T11:38:38.000Z</time>
      </trkpt>
      <trkpt lat="47.33045" lon="-1.47754">
        <ele>61</ele>
        <time>2021-02-27T11:38:40.000Z</time>
      </trkpt>
      <trkpt lat="47.33055" lon="-1.47757">
        <ele>61</ele>
        <time>2021-02-27T11:38:42.000Z</time>
      </trkpt>
      <trkpt lat="47.33064" lon="-1.47764">
        <ele>61</ele>
        <time>2021-02-27T11:38:44.000Z</time>
      </trkpt>
      <trkpt lat="47.33072" lon="-1.47772">
        <ele>61</ele>
        <time>2021-02-27T11:38:46.000Z</time>
      </trkpt>
      <trkpt lat="47.33081" lon="-1.47779">
        <ele>60</ele>
        <time>2021-02-27T11:38:48.000Z</time>
      </trkpt>
      <trkpt lat="47.33091" lon="-1.47781">
        <ele>60</ele>
        <time>2021-02-27T11:38:50.000Z</time>
      </trkpt>
      <trkpt lat="47.331" lon="-1.4778">
        <ele>60</ele>
        <time>2021-02-27T11:38:53.000Z</time>
      </trkpt>
      <trkpt lat="47.33106" lon="-1.47797">
        <ele>60</ele>
        <time>2021-02-27T11:38:56.000Z</time>
      </trkpt>
      <trkpt lat="47.33107" lon="-1.47814">
        <ele>60</ele>
        <time>2021-02-27T11:38:58.000Z</time>
      </trkpt>
      <trkpt lat="47.33108" lon="-1.47833">
        <ele>61</ele>
        <time>2021-02-27T11:39:00.000Z</time>
      </trkpt>
      <trkpt lat="47.3311" lon="-1.47853">
        <ele>60</ele>
        <time>2021-02-27T11:39:02.000Z</time>
      </trkpt>
      <trkpt lat="47.33111" lon="-1.47871">
        <ele>59</ele>
        <time>2021-02-27T11:39:04.000Z</time>
      </trkpt>
      <trkpt lat="47.33111" lon="-1.47889">
        <ele>59</ele>
        <time>2021-02-27T11:39:06.000Z</time>
      </trkpt>
      <trkpt lat="47.33113" lon="-1.47907">
        <ele>59</ele>
        <time>2021-02-27T11:39:08.000Z</time>
      </trkpt>
      <trkpt lat="47.33116" lon="-1.47926">
        <ele>59</ele>
        <time>2021-02-27T11:39:10.000Z</time>
      </trkpt>
      <trkpt lat="47.33118" lon="-1.47944">
        <ele>59</ele>
        <time>2021-02-27T11:39:12.000Z</time>
      </trkpt>
      <trkpt lat="47.33121" lon="-1.47964">
        <ele>59</ele>
        <time>2021-02-27T11:39:14.000Z</time>
      </trkpt>
      <trkpt lat="47.33125" lon="-1.47984">
        <ele>59</ele>
        <time>2021-02-27T11:39:16.000Z</time>
      </trkpt>
      <trkpt lat="47.33129" lon="-1.48002">
        <ele>59</ele>
        <time>2021-02-27T11:39:18.000Z</time>
      </trkpt>
      <trkpt lat="47.33132" lon="-1.4802">
        <ele>59</ele>
        <time>2021-02-27T11:39:20.000Z</time>
      </trkpt>
      <trkpt lat="47.33136" lon="-1.4804">
        <ele>59</ele>
        <time>2021-02-27T11:39:22.000Z</time>
      </trkpt>
      <trkpt lat="47.3314" lon="-1.48058">
        <ele>59</ele>
        <time>2021-02-27T11:39:24.000Z</time>
      </trkpt>
      <trkpt lat="47.33144" lon="-1.48076">
        <ele>59</ele>
        <time>2021-02-27T11:39:26.000Z</time>
      </trkpt>
      <trkpt lat="47.3315" lon="-1.48093">
        <ele>59</ele>
        <time>2021-02-27T11:39:28.000Z</time>
      </trkpt>
      <trkpt lat="47.33155" lon="-1.4811">
        <ele>59</ele>
        <time>2021-02-27T11:39:30.000Z</time>
      </trkpt>
      <trkpt lat="47.33161" lon="-1.48126">
        <ele>59</ele>
        <time>2021-02-27T11:39:32.000Z</time>
      </trkpt>
      <trkpt lat="47.33168" lon="-1.48142">
        <ele>59</ele>
        <time>2021-02-27T11:39:34.000Z</time>
      </trkpt>
      <trkpt lat="47.33174" lon="-1.48158">
        <ele>58</ele>
        <time>2021-02-27T11:39:36.000Z</time>
      </trkpt>
      <trkpt lat="47.3318" lon="-1.48175">
        <ele>58</ele>
        <time>2021-02-27T11:39:38.000Z</time>
      </trkpt>
      <trkpt lat="47.33186" lon="-1.48191">
        <ele>58</ele>
        <time>2021-02-27T11:39:40.000Z</time>
      </trkpt>
      <trkpt lat="47.33192" lon="-1.48209">
        <ele>57</ele>
        <time>2021-02-27T11:39:42.000Z</time>
      </trkpt>
      <trkpt lat="47.33198" lon="-1.48226">
        <ele>57</ele>
        <time>2021-02-27T11:39:44.000Z</time>
      </trkpt>
      <trkpt lat="47.33204" lon="-1.48243">
        <ele>57</ele>
        <time>2021-02-27T11:39:46.000Z</time>
      </trkpt>
      <trkpt lat="47.33211" lon="-1.4826">
        <ele>57</ele>
        <time>2021-02-27T11:39:48.000Z</time>
      </trkpt>
      <trkpt lat="47.33217" lon="-1.48276">
        <ele>57</ele>
        <time>2021-02-27T11:39:50.000Z</time>
      </trkpt>
      <trkpt lat="47.33223" lon="-1.48293">
        <ele>57</ele>
        <time>2021-02-27T11:39:52.000Z</time>
      </trkpt>
      <trkpt lat="47.3323" lon="-1.48309">
        <ele>57</ele>
        <time>2021-02-27T11:39:54.000Z</time>
      </trkpt>
      <trkpt lat="47.33236" lon="-1.48326">
        <ele>57</ele>
        <time>2021-02-27T11:39:56.000Z</time>
      </trkpt>
      <trkpt lat="47.33242" lon="-1.48342">
        <ele>57</ele>
        <time>2021-02-27T11:39:58.000Z</time>
      </trkpt>
      <trkpt lat="47.33248" lon="-1.48359">
        <ele>57</ele>
        <time>2021-02-27T11:40:00.000Z</time>
      </trkpt>
      <trkpt lat="47.33253" lon="-1.48375">
        <ele>56</ele>
        <time>2021-02-27T11:40:02.000Z</time>
      </trkpt>
      <trkpt lat="47.33258" lon="-1.4839">
        <ele>57</ele>
        <time>2021-02-27T11:40:04.000Z</time>
      </trkpt>
      <trkpt lat="47.33264" lon="-1.48404">
        <ele>57</ele>
        <time>2021-02-27T11:40:06.000Z</time>
      </trkpt>
      <trkpt lat="47.33271" lon="-1.4842">
        <ele>56</ele>
        <time>2021-02-27T11:40:08.000Z</time>
      </trkpt>
      <trkpt lat="47.33278" lon="-1.48437">
        <ele>56</ele>
        <time>2021-02-27T11:40:10.000Z</time>
      </trkpt>
      <trkpt lat="47.33285" lon="-1.48454">
        <ele>56</ele>
        <time>2021-02-27T11:40:12.000Z</time>
      </trkpt>
      <trkpt lat="47.33292" lon="-1.4847">
        <ele>57</ele>
        <time>2021-02-27T11:40:14.000Z</time>
      </trkpt>
      <trkpt lat="47.33299" lon="-1.48487">
        <ele>56</ele>
        <time>2021-02-27T11:40:16.000Z</time>
      </trkpt>
      <trkpt lat="47.33305" lon="-1.48502">
        <ele>56</ele>
        <time>2021-02-27T11:40:18.000Z</time>
      </trkpt>
      <trkpt lat="47.33311" lon="-1.48516">
        <ele>57</ele>
        <time>2021-02-27T11:40:20.000Z</time>
      </trkpt>
      <trkpt lat="47.33317" lon="-1.48529">
        <ele>57</ele>
        <time>2021-02-27T11:40:22.000Z</time>
      </trkpt>
      <trkpt lat="47.33323" lon="-1.48544">
        <ele>57</ele>
        <time>2021-02-27T11:40:24.000Z</time>
      </trkpt>
      <trkpt lat="47.3333" lon="-1.48558">
        <ele>57</ele>
        <time>2021-02-27T11:40:26.000Z</time>
      </trkpt>
      <trkpt lat="47.33338" lon="-1.48571">
        <ele>57</ele>
        <time>2021-02-27T11:40:28.000Z</time>
      </trkpt>
      <trkpt lat="47.33346" lon="-1.48582">
        <ele>57</ele>
        <time>2021-02-27T11:40:30.000Z</time>
      </trkpt>
      <trkpt lat="47.33355" lon="-1.48594">
        <ele>57</ele>
        <time>2021-02-27T11:40:32.000Z</time>
      </trkpt>
      <trkpt lat="47.33363" lon="-1.48608">
        <ele>57</ele>
        <time>2021-02-27T11:40:34.000Z</time>
      </trkpt>
      <trkpt lat="47.3337" lon="-1.48625">
        <ele>57</ele>
        <time>2021-02-27T11:40:36.000Z</time>
      </trkpt>
      <trkpt lat="47.33377" lon="-1.48643">
        <ele>57</ele>
        <time>2021-02-27T11:40:38.000Z</time>
      </trkpt>
      <trkpt lat="47.33381" lon="-1.4866">
        <ele>56</ele>
        <time>2021-02-27T11:40:40.000Z</time>
      </trkpt>
      <trkpt lat="47.33384" lon="-1.48677">
        <ele>55</ele>
        <time>2021-02-27T11:40:42.000Z</time>
      </trkpt>
      <trkpt lat="47.33386" lon="-1.48694">
        <ele>56</ele>
        <time>2021-02-27T11:40:44.000Z</time>
      </trkpt>
      <trkpt lat="47.33387" lon="-1.48711">
        <ele>56</ele>
        <time>2021-02-27T11:40:46.000Z</time>
      </trkpt>
      <trkpt lat="47.33389" lon="-1.48729">
        <ele>56</ele>
        <time>2021-02-27T11:40:48.000Z</time>
      </trkpt>
      <trkpt lat="47.3339" lon="-1.48745">
        <ele>57</ele>
        <time>2021-02-27T11:40:50.000Z</time>
      </trkpt>
      <trkpt lat="47.33391" lon="-1.48762">
        <ele>57</ele>
        <time>2021-02-27T11:40:52.000Z</time>
      </trkpt>
      <trkpt lat="47.33393" lon="-1.48779">
        <ele>58</ele>
        <time>2021-02-27T11:40:54.000Z</time>
      </trkpt>
      <trkpt lat="47.33394" lon="-1.48796">
        <ele>58</ele>
        <time>2021-02-27T11:40:56.000Z</time>
      </trkpt>
      <trkpt lat="47.33396" lon="-1.48814">
        <ele>59</ele>
        <time>2021-02-27T11:40:58.000Z</time>
      </trkpt>
      <trkpt lat="47.33397" lon="-1.4883">
        <ele>59</ele>
        <time>2021-02-27T11:41:00.000Z</time>
      </trkpt>
      <trkpt lat="47.33398" lon="-1.48845">
        <ele>59</ele>
        <time>2021-02-27T11:41:02.000Z</time>
      </trkpt>
      <trkpt lat="47.334" lon="-1.48861">
        <ele>59</ele>
        <time>2021-02-27T11:41:04.000Z</time>
      </trkpt>
      <trkpt lat="47.33401" lon="-1.48877">
        <ele>58</ele>
        <time>2021-02-27T11:41:06.000Z</time>
      </trkpt>
      <trkpt lat="47.33403" lon="-1.48895">
        <ele>58</ele>
        <time>2021-02-27T11:41:08.000Z</time>
      </trkpt>
      <trkpt lat="47.33405" lon="-1.48913">
        <ele>58</ele>
        <time>2021-02-27T11:41:10.000Z</time>
      </trkpt>
      <trkpt lat="47.33405" lon="-1.48932">
        <ele>58</ele>
        <time>2021-02-27T11:41:12.000Z</time>
      </trkpt>
      <trkpt lat="47.33407" lon="-1.48951">
        <ele>58</ele>
        <time>2021-02-27T11:41:14.000Z</time>
      </trkpt>
      <trkpt lat="47.33408" lon="-1.48971">
        <ele>58</ele>
        <time>2021-02-27T11:41:16.000Z</time>
      </trkpt>
      <trkpt lat="47.3341" lon="-1.4899">
        <ele>58</ele>
        <time>2021-02-27T11:41:18.000Z</time>
      </trkpt>
      <trkpt lat="47.33412" lon="-1.49009">
        <ele>58</ele>
        <time>2021-02-27T11:41:20.000Z</time>
      </trkpt>
      <trkpt lat="47.33416" lon="-1.49027">
        <ele>58</ele>
        <time>2021-02-27T11:41:22.000Z</time>
      </trkpt>
      <trkpt lat="47.33421" lon="-1.49044">
        <ele>58</ele>
        <time>2021-02-27T11:41:24.000Z</time>
      </trkpt>
      <trkpt lat="47.33428" lon="-1.4906">
        <ele>58</ele>
        <time>2021-02-27T11:41:26.000Z</time>
      </trkpt>
      <trkpt lat="47.33435" lon="-1.49076">
        <ele>58</ele>
        <time>2021-02-27T11:41:28.000Z</time>
      </trkpt>
      <trkpt lat="47.33443" lon="-1.49091">
        <ele>58</ele>
        <time>2021-02-27T11:41:30.000Z</time>
      </trkpt>
      <trkpt lat="47.33451" lon="-1.49106">
        <ele>58</ele>
        <time>2021-02-27T11:41:32.000Z</time>
      </trkpt>
      <trkpt lat="47.33458" lon="-1.49121">
        <ele>58</ele>
        <time>2021-02-27T11:41:34.000Z</time>
      </trkpt>
      <trkpt lat="47.33466" lon="-1.49136">
        <ele>58</ele>
        <time>2021-02-27T11:41:36.000Z</time>
      </trkpt>
      <trkpt lat="47.33473" lon="-1.49152">
        <ele>58</ele>
        <time>2021-02-27T11:41:38.000Z</time>
      </trkpt>
      <trkpt lat="47.3348" lon="-1.49167">
        <ele>58</ele>
        <time>2021-02-27T11:41:40.000Z</time>
      </trkpt>
      <trkpt lat="47.33487" lon="-1.49183">
        <ele>58</ele>
        <time>2021-02-27T11:41:42.000Z</time>
      </trkpt>
      <trkpt lat="47.33495" lon="-1.49198">
        <ele>58</ele>
        <time>2021-02-27T11:41:44.000Z</time>
      </trkpt>
      <trkpt lat="47.33503" lon="-1.49213">
        <ele>58</ele>
        <time>2021-02-27T11:41:46.000Z</time>
      </trkpt>
      <trkpt lat="47.3351" lon="-1.49228">
        <ele>58</ele>
        <time>2021-02-27T11:41:48.000Z</time>
      </trkpt>
      <trkpt lat="47.33516" lon="-1.49243">
        <ele>58</ele>
        <time>2021-02-27T11:41:50.000Z</time>
      </trkpt>
      <trkpt lat="47.33523" lon="-1.49258">
        <ele>58</ele>
        <time>2021-02-27T11:41:52.000Z</time>
      </trkpt>
      <trkpt lat="47.3353" lon="-1.49272">
        <ele>57</ele>
        <time>2021-02-27T11:41:54.000Z</time>
      </trkpt>
      <trkpt lat="47.33537" lon="-1.49286">
        <ele>57</ele>
        <time>2021-02-27T11:41:56.000Z</time>
      </trkpt>
      <trkpt lat="47.33544" lon="-1.493">
        <ele>57</ele>
        <time>2021-02-27T11:41:58.000Z</time>
      </trkpt>
      <trkpt lat="47.3355" lon="-1.49314">
        <ele>57</ele>
        <time>2021-02-27T11:42:00.000Z</time>
      </trkpt>
      <trkpt lat="47.33558" lon="-1.49325">
        <ele>57</ele>
        <time>2021-02-27T11:42:02.000Z</time>
      </trkpt>
      <trkpt lat="47.3357" lon="-1.49321">
        <ele>57</ele>
        <time>2021-02-27T11:42:04.000Z</time>
      </trkpt>
      <trkpt lat="47.33578" lon="-1.4931">
        <ele>57</ele>
        <time>2021-02-27T11:42:06.000Z</time>
      </trkpt>
      <trkpt lat="47.33587" lon="-1.49299">
        <ele>56</ele>
        <time>2021-02-27T11:42:08.000Z</time>
      </trkpt>
      <trkpt lat="47.33595" lon="-1.49288">
        <ele>57</ele>
        <time>2021-02-27T11:42:10.000Z</time>
      </trkpt>
      <trkpt lat="47.33603" lon="-1.49276">
        <ele>57</ele>
        <time>2021-02-27T11:42:12.000Z</time>
      </trkpt>
      <trkpt lat="47.33612" lon="-1.49265">
        <ele>57</ele>
        <time>2021-02-27T11:42:14.000Z</time>
      </trkpt>
      <trkpt lat="47.3362" lon="-1.49254">
        <ele>57</ele>
        <time>2021-02-27T11:42:16.000Z</time>
      </trkpt>
      <trkpt lat="47.33628" lon="-1.49244">
        <ele>58</ele>
        <time>2021-02-27T11:42:18.000Z</time>
      </trkpt>
      <trkpt lat="47.33636" lon="-1.49234">
        <ele>58</ele>
        <time>2021-02-27T11:42:20.000Z</time>
      </trkpt>
      <trkpt lat="47.33644" lon="-1.49224">
        <ele>58</ele>
        <time>2021-02-27T11:42:22.000Z</time>
      </trkpt>
      <trkpt lat="47.33652" lon="-1.49215">
        <ele>58</ele>
        <time>2021-02-27T11:42:24.000Z</time>
      </trkpt>
      <trkpt lat="47.3366" lon="-1.49205">
        <ele>58</ele>
        <time>2021-02-27T11:42:26.000Z</time>
      </trkpt>
      <trkpt lat="47.33669" lon="-1.49196">
        <ele>59</ele>
        <time>2021-02-27T11:42:28.000Z</time>
      </trkpt>
      <trkpt lat="47.33676" lon="-1.49185">
        <ele>59</ele>
        <time>2021-02-27T11:42:30.000Z</time>
      </trkpt>
      <trkpt lat="47.33684" lon="-1.49175">
        <ele>59</ele>
        <time>2021-02-27T11:42:32.000Z</time>
      </trkpt>
      <trkpt lat="47.3369" lon="-1.49163">
        <ele>60</ele>
        <time>2021-02-27T11:42:34.000Z</time>
      </trkpt>
      <trkpt lat="47.33695" lon="-1.49149">
        <ele>59</ele>
        <time>2021-02-27T11:42:36.000Z</time>
      </trkpt>
      <trkpt lat="47.33698" lon="-1.49134">
        <ele>60</ele>
        <time>2021-02-27T11:42:38.000Z</time>
      </trkpt>
      <trkpt lat="47.33699" lon="-1.49119">
        <ele>60</ele>
        <time>2021-02-27T11:42:40.000Z</time>
      </trkpt>
      <trkpt lat="47.33701" lon="-1.49104">
        <ele>60</ele>
        <time>2021-02-27T11:42:42.000Z</time>
      </trkpt>
      <trkpt lat="47.33704" lon="-1.49091">
        <ele>60</ele>
        <time>2021-02-27T11:42:44.000Z</time>
      </trkpt>
      <trkpt lat="47.33709" lon="-1.49079">
        <ele>60</ele>
        <time>2021-02-27T11:42:46.000Z</time>
      </trkpt>
      <trkpt lat="47.33715" lon="-1.49069">
        <ele>61</ele>
        <time>2021-02-27T11:42:48.000Z</time>
      </trkpt>
      <trkpt lat="47.33724" lon="-1.49056">
        <ele>62</ele>
        <time>2021-02-27T11:42:51.000Z</time>
      </trkpt>
      <trkpt lat="47.33734" lon="-1.49043">
        <ele>63</ele>
        <time>2021-02-27T11:42:54.000Z</time>
      </trkpt>
      <trkpt lat="47.33742" lon="-1.49035">
        <ele>63</ele>
        <time>2021-02-27T11:42:56.000Z</time>
      </trkpt>
      <trkpt lat="47.3375" lon="-1.49027">
        <ele>63</ele>
        <time>2021-02-27T11:42:58.000Z</time>
      </trkpt>
      <trkpt lat="47.33757" lon="-1.49019">
        <ele>63</ele>
        <time>2021-02-27T11:43:00.000Z</time>
      </trkpt>
      <trkpt lat="47.33764" lon="-1.4901">
        <ele>64</ele>
        <time>2021-02-27T11:43:02.000Z</time>
      </trkpt>
      <trkpt lat="47.33771" lon="-1.49002">
        <ele>64</ele>
        <time>2021-02-27T11:43:04.000Z</time>
      </trkpt>
      <trkpt lat="47.33778" lon="-1.48994">
        <ele>64</ele>
        <time>2021-02-27T11:43:06.000Z</time>
      </trkpt>
      <trkpt lat="47.33785" lon="-1.48984">
        <ele>64</ele>
        <time>2021-02-27T11:43:08.000Z</time>
      </trkpt>
      <trkpt lat="47.33793" lon="-1.48976">
        <ele>64</ele>
        <time>2021-02-27T11:43:10.000Z</time>
      </trkpt>
      <trkpt lat="47.33803" lon="-1.48962">
        <ele>64</ele>
        <time>2021-02-27T11:43:13.000Z</time>
      </trkpt>
      <trkpt lat="47.3381" lon="-1.48952">
        <ele>64</ele>
        <time>2021-02-27T11:43:15.000Z</time>
      </trkpt>
      <trkpt lat="47.33817" lon="-1.48941">
        <ele>63</ele>
        <time>2021-02-27T11:43:17.000Z</time>
      </trkpt>
      <trkpt lat="47.33824" lon="-1.4893">
        <ele>63</ele>
        <time>2021-02-27T11:43:19.000Z</time>
      </trkpt>
      <trkpt lat="47.33831" lon="-1.4892">
        <ele>63</ele>
        <time>2021-02-27T11:43:21.000Z</time>
      </trkpt>
      <trkpt lat="47.33838" lon="-1.48908">
        <ele>62</ele>
        <time>2021-02-27T11:43:23.000Z</time>
      </trkpt>
      <trkpt lat="47.33845" lon="-1.48897">
        <ele>62</ele>
        <time>2021-02-27T11:43:25.000Z</time>
      </trkpt>
      <trkpt lat="47.33852" lon="-1.48887">
        <ele>62</ele>
        <time>2021-02-27T11:43:27.000Z</time>
      </trkpt>
      <trkpt lat="47.33859" lon="-1.48876">
        <ele>61</ele>
        <time>2021-02-27T11:43:29.000Z</time>
      </trkpt>
      <trkpt lat="47.33866" lon="-1.48865">
        <ele>61</ele>
        <time>2021-02-27T11:43:31.000Z</time>
      </trkpt>
      <trkpt lat="47.33873" lon="-1.48854">
        <ele>61</ele>
        <time>2021-02-27T11:43:33.000Z</time>
      </trkpt>
      <trkpt lat="47.3388" lon="-1.48843">
        <ele>60</ele>
        <time>2021-02-27T11:43:35.000Z</time>
      </trkpt>
      <trkpt lat="47.33887" lon="-1.48832">
        <ele>60</ele>
        <time>2021-02-27T11:43:37.000Z</time>
      </trkpt>
      <trkpt lat="47.33894" lon="-1.48819">
        <ele>60</ele>
        <time>2021-02-27T11:43:39.000Z</time>
      </trkpt>
      <trkpt lat="47.33901" lon="-1.48808">
        <ele>59</ele>
        <time>2021-02-27T11:43:41.000Z</time>
      </trkpt>
      <trkpt lat="47.33909" lon="-1.48795">
        <ele>59</ele>
        <time>2021-02-27T11:43:43.000Z</time>
      </trkpt>
      <trkpt lat="47.33918" lon="-1.48782">
        <ele>59</ele>
        <time>2021-02-27T11:43:45.000Z</time>
      </trkpt>
      <trkpt lat="47.33926" lon="-1.48769">
        <ele>58</ele>
        <time>2021-02-27T11:43:47.000Z</time>
      </trkpt>
      <trkpt lat="47.33934" lon="-1.48756">
        <ele>58</ele>
        <time>2021-02-27T11:43:49.000Z</time>
      </trkpt>
      <trkpt lat="47.33942" lon="-1.48743">
        <ele>58</ele>
        <time>2021-02-27T11:43:51.000Z</time>
      </trkpt>
      <trkpt lat="47.33951" lon="-1.4873">
        <ele>58</ele>
        <time>2021-02-27T11:43:53.000Z</time>
      </trkpt>
      <trkpt lat="47.33959" lon="-1.48716">
        <ele>57</ele>
        <time>2021-02-27T11:43:55.000Z</time>
      </trkpt>
      <trkpt lat="47.33968" lon="-1.48703">
        <ele>57</ele>
        <time>2021-02-27T11:43:57.000Z</time>
      </trkpt>
      <trkpt lat="47.33976" lon="-1.48689">
        <ele>56</ele>
        <time>2021-02-27T11:43:59.000Z</time>
      </trkpt>
      <trkpt lat="47.33984" lon="-1.48675">
        <ele>56</ele>
        <time>2021-02-27T11:44:01.000Z</time>
      </trkpt>
      <trkpt lat="47.33992" lon="-1.48662">
        <ele>56</ele>
        <time>2021-02-27T11:44:03.000Z</time>
      </trkpt>
      <trkpt lat="47.34" lon="-1.48649">
        <ele>56</ele>
        <time>2021-02-27T11:44:05.000Z</time>
      </trkpt>
      <trkpt lat="47.34008" lon="-1.48635">
        <ele>56</ele>
        <time>2021-02-27T11:44:07.000Z</time>
      </trkpt>
      <trkpt lat="47.34016" lon="-1.48622">
        <ele>55</ele>
        <time>2021-02-27T11:44:09.000Z</time>
      </trkpt>
      <trkpt lat="47.34024" lon="-1.48609">
        <ele>55</ele>
        <time>2021-02-27T11:44:11.000Z</time>
      </trkpt>
      <trkpt lat="47.34032" lon="-1.48595">
        <ele>55</ele>
        <time>2021-02-27T11:44:13.000Z</time>
      </trkpt>
      <trkpt lat="47.34039" lon="-1.48582">
        <ele>56</ele>
        <time>2021-02-27T11:44:15.000Z</time>
      </trkpt>
      <trkpt lat="47.34046" lon="-1.48568">
        <ele>56</ele>
        <time>2021-02-27T11:44:17.000Z</time>
      </trkpt>
      <trkpt lat="47.34052" lon="-1.48555">
        <ele>56</ele>
        <time>2021-02-27T11:44:19.000Z</time>
      </trkpt>
      <trkpt lat="47.34059" lon="-1.48541">
        <ele>56</ele>
        <time>2021-02-27T11:44:21.000Z</time>
      </trkpt>
      <trkpt lat="47.34065" lon="-1.48528">
        <ele>56</ele>
        <time>2021-02-27T11:44:23.000Z</time>
      </trkpt>
      <trkpt lat="47.3407" lon="-1.48516">
        <ele>56</ele>
        <time>2021-02-27T11:44:25.000Z</time>
      </trkpt>
      <trkpt lat="47.34076" lon="-1.48503">
        <ele>56</ele>
        <time>2021-02-27T11:44:27.000Z</time>
      </trkpt>
      <trkpt lat="47.34082" lon="-1.4849">
        <ele>56</ele>
        <time>2021-02-27T11:44:29.000Z</time>
      </trkpt>
      <trkpt lat="47.34088" lon="-1.48477">
        <ele>56</ele>
        <time>2021-02-27T11:44:31.000Z</time>
      </trkpt>
      <trkpt lat="47.34095" lon="-1.48464">
        <ele>56</ele>
        <time>2021-02-27T11:44:33.000Z</time>
      </trkpt>
      <trkpt lat="47.34102" lon="-1.48451">
        <ele>57</ele>
        <time>2021-02-27T11:44:35.000Z</time>
      </trkpt>
      <trkpt lat="47.34108" lon="-1.48438">
        <ele>57</ele>
        <time>2021-02-27T11:44:37.000Z</time>
      </trkpt>
      <trkpt lat="47.34115" lon="-1.48425">
        <ele>57</ele>
        <time>2021-02-27T11:44:39.000Z</time>
      </trkpt>
      <trkpt lat="47.34121" lon="-1.48412">
        <ele>56</ele>
        <time>2021-02-27T11:44:41.000Z</time>
      </trkpt>
      <trkpt lat="47.34128" lon="-1.48399">
        <ele>56</ele>
        <time>2021-02-27T11:44:43.000Z</time>
      </trkpt>
      <trkpt lat="47.34134" lon="-1.48386">
        <ele>57</ele>
        <time>2021-02-27T11:44:45.000Z</time>
      </trkpt>
      <trkpt lat="47.34139" lon="-1.48372">
        <ele>56</ele>
        <time>2021-02-27T11:44:47.000Z</time>
      </trkpt>
      <trkpt lat="47.34145" lon="-1.4836">
        <ele>56</ele>
        <time>2021-02-27T11:44:49.000Z</time>
      </trkpt>
      <trkpt lat="47.34151" lon="-1.48347">
        <ele>57</ele>
        <time>2021-02-27T11:44:51.000Z</time>
      </trkpt>
      <trkpt lat="47.34157" lon="-1.48334">
        <ele>57</ele>
        <time>2021-02-27T11:44:53.000Z</time>
      </trkpt>
      <trkpt lat="47.34163" lon="-1.48321">
        <ele>57</ele>
        <time>2021-02-27T11:44:55.000Z</time>
      </trkpt>
      <trkpt lat="47.34169" lon="-1.48309">
        <ele>57</ele>
        <time>2021-02-27T11:44:57.000Z</time>
      </trkpt>
      <trkpt lat="47.34175" lon="-1.48296">
        <ele>56</ele>
        <time>2021-02-27T11:44:59.000Z</time>
      </trkpt>
      <trkpt lat="47.34182" lon="-1.48283">
        <ele>56</ele>
        <time>2021-02-27T11:45:01.000Z</time>
      </trkpt>
      <trkpt lat="47.34188" lon="-1.4827">
        <ele>56</ele>
        <time>2021-02-27T11:45:03.000Z</time>
      </trkpt>
      <trkpt lat="47.34195" lon="-1.48258">
        <ele>55</ele>
        <time>2021-02-27T11:45:05.000Z</time>
      </trkpt>
      <trkpt lat="47.34202" lon="-1.48246">
        <ele>55</ele>
        <time>2021-02-27T11:45:07.000Z</time>
      </trkpt>
      <trkpt lat="47.34209" lon="-1.48234">
        <ele>55</ele>
        <time>2021-02-27T11:45:09.000Z</time>
      </trkpt>
      <trkpt lat="47.34216" lon="-1.48223">
        <ele>55</ele>
        <time>2021-02-27T11:45:11.000Z</time>
      </trkpt>
      <trkpt lat="47.34223" lon="-1.48212">
        <ele>54</ele>
        <time>2021-02-27T11:45:13.000Z</time>
      </trkpt>
      <trkpt lat="47.3423" lon="-1.48201">
        <ele>55</ele>
        <time>2021-02-27T11:45:15.000Z</time>
      </trkpt>
      <trkpt lat="47.34236" lon="-1.48189">
        <ele>54</ele>
        <time>2021-02-27T11:45:17.000Z</time>
      </trkpt>
      <trkpt lat="47.34243" lon="-1.48179">
        <ele>54</ele>
        <time>2021-02-27T11:45:19.000Z</time>
      </trkpt>
      <trkpt lat="47.3425" lon="-1.48167">
        <ele>54</ele>
        <time>2021-02-27T11:45:21.000Z</time>
      </trkpt>
      <trkpt lat="47.34256" lon="-1.48156">
        <ele>54</ele>
        <time>2021-02-27T11:45:23.000Z</time>
      </trkpt>
      <trkpt lat="47.34264" lon="-1.48144">
        <ele>54</ele>
        <time>2021-02-27T11:45:25.000Z</time>
      </trkpt>
      <trkpt lat="47.34271" lon="-1.48133">
        <ele>54</ele>
        <time>2021-02-27T11:45:27.000Z</time>
      </trkpt>
      <trkpt lat="47.34278" lon="-1.48121">
        <ele>55</ele>
        <time>2021-02-27T11:45:29.000Z</time>
      </trkpt>
      <trkpt lat="47.34285" lon="-1.48111">
        <ele>55</ele>
        <time>2021-02-27T11:45:31.000Z</time>
      </trkpt>
      <trkpt lat="47.34292" lon="-1.481">
        <ele>55</ele>
        <time>2021-02-27T11:45:33.000Z</time>
      </trkpt>
      <trkpt lat="47.34299" lon="-1.48089">
        <ele>55</ele>
        <time>2021-02-27T11:45:35.000Z</time>
      </trkpt>
      <trkpt lat="47.34306" lon="-1.48077">
        <ele>55</ele>
        <time>2021-02-27T11:45:37.000Z</time>
      </trkpt>
      <trkpt lat="47.34312" lon="-1.48066">
        <ele>55</ele>
        <time>2021-02-27T11:45:39.000Z</time>
      </trkpt>
      <trkpt lat="47.34319" lon="-1.48054">
        <ele>55</ele>
        <time>2021-02-27T11:45:41.000Z</time>
      </trkpt>
      <trkpt lat="47.34326" lon="-1.48042">
        <ele>56</ele>
        <time>2021-02-27T11:45:43.000Z</time>
      </trkpt>
      <trkpt lat="47.34334" lon="-1.48031">
        <ele>55</ele>
        <time>2021-02-27T11:45:45.000Z</time>
      </trkpt>
      <trkpt lat="47.34341" lon="-1.48019">
        <ele>55</ele>
        <time>2021-02-27T11:45:47.000Z</time>
      </trkpt>
      <trkpt lat="47.34349" lon="-1.48007">
        <ele>55</ele>
        <time>2021-02-27T11:45:49.000Z</time>
      </trkpt>
      <trkpt lat="47.34355" lon="-1.47996">
        <ele>55</ele>
        <time>2021-02-27T11:45:51.000Z</time>
      </trkpt>
      <trkpt lat="47.34363" lon="-1.47985">
        <ele>55</ele>
        <time>2021-02-27T11:45:53.000Z</time>
      </trkpt>
      <trkpt lat="47.34371" lon="-1.47974">
        <ele>55</ele>
        <time>2021-02-27T11:45:55.000Z</time>
      </trkpt>
      <trkpt lat="47.34378" lon="-1.47963">
        <ele>54</ele>
        <time>2021-02-27T11:45:57.000Z</time>
      </trkpt>
      <trkpt lat="47.34385" lon="-1.47952">
        <ele>54</ele>
        <time>2021-02-27T11:45:59.000Z</time>
      </trkpt>
      <trkpt lat="47.34393" lon="-1.47941">
        <ele>54</ele>
        <time>2021-02-27T11:46:01.000Z</time>
      </trkpt>
      <trkpt lat="47.344" lon="-1.47929">
        <ele>54</ele>
        <time>2021-02-27T11:46:03.000Z</time>
      </trkpt>
      <trkpt lat="47.34408" lon="-1.47918">
        <ele>54</ele>
        <time>2021-02-27T11:46:05.000Z</time>
      </trkpt>
      <trkpt lat="47.34416" lon="-1.47907">
        <ele>55</ele>
        <time>2021-02-27T11:46:07.000Z</time>
      </trkpt>
      <trkpt lat="47.34424" lon="-1.47896">
        <ele>55</ele>
        <time>2021-02-27T11:46:09.000Z</time>
      </trkpt>
      <trkpt lat="47.34431" lon="-1.47886">
        <ele>55</ele>
        <time>2021-02-27T11:46:11.000Z</time>
      </trkpt>
      <trkpt lat="47.3444" lon="-1.47876">
        <ele>55</ele>
        <time>2021-02-27T11:46:13.000Z</time>
      </trkpt>
      <trkpt lat="47.3445" lon="-1.47866">
        <ele>55</ele>
        <time>2021-02-27T11:46:15.000Z</time>
      </trkpt>
      <trkpt lat="47.34459" lon="-1.47856">
        <ele>55</ele>
        <time>2021-02-27T11:46:17.000Z</time>
      </trkpt>
      <trkpt lat="47.34468" lon="-1.47845">
        <ele>55</ele>
        <time>2021-02-27T11:46:19.000Z</time>
      </trkpt>
      <trkpt lat="47.34477" lon="-1.47835">
        <ele>55</ele>
        <time>2021-02-27T11:46:21.000Z</time>
      </trkpt>
      <trkpt lat="47.34485" lon="-1.47825">
        <ele>55</ele>
        <time>2021-02-27T11:46:23.000Z</time>
      </trkpt>
      <trkpt lat="47.34495" lon="-1.47816">
        <ele>55</ele>
        <time>2021-02-27T11:46:25.000Z</time>
      </trkpt>
      <trkpt lat="47.34503" lon="-1.47807">
        <ele>56</ele>
        <time>2021-02-27T11:46:27.000Z</time>
      </trkpt>
      <trkpt lat="47.34511" lon="-1.47798">
        <ele>56</ele>
        <time>2021-02-27T11:46:29.000Z</time>
      </trkpt>
      <trkpt lat="47.34519" lon="-1.47787">
        <ele>56</ele>
        <time>2021-02-27T11:46:31.000Z</time>
      </trkpt>
      <trkpt lat="47.34527" lon="-1.47777">
        <ele>56</ele>
        <time>2021-02-27T11:46:33.000Z</time>
      </trkpt>
      <trkpt lat="47.34536" lon="-1.47768">
        <ele>56</ele>
        <time>2021-02-27T11:46:35.000Z</time>
      </trkpt>
      <trkpt lat="47.34544" lon="-1.47758">
        <ele>56</ele>
        <time>2021-02-27T11:46:37.000Z</time>
      </trkpt>
      <trkpt lat="47.34553" lon="-1.47749">
        <ele>56</ele>
        <time>2021-02-27T11:46:39.000Z</time>
      </trkpt>
      <trkpt lat="47.34561" lon="-1.4774">
        <ele>57</ele>
        <time>2021-02-27T11:46:41.000Z</time>
      </trkpt>
      <trkpt lat="47.34569" lon="-1.47731">
        <ele>56</ele>
        <time>2021-02-27T11:46:43.000Z</time>
      </trkpt>
      <trkpt lat="47.34577" lon="-1.47721">
        <ele>56</ele>
        <time>2021-02-27T11:46:45.000Z</time>
      </trkpt>
      <trkpt lat="47.34586" lon="-1.47711">
        <ele>56</ele>
        <time>2021-02-27T11:46:47.000Z</time>
      </trkpt>
      <trkpt lat="47.34594" lon="-1.47702">
        <ele>56</ele>
        <time>2021-02-27T11:46:49.000Z</time>
      </trkpt>
      <trkpt lat="47.34602" lon="-1.47693">
        <ele>56</ele>
        <time>2021-02-27T11:46:51.000Z</time>
      </trkpt>
      <trkpt lat="47.34611" lon="-1.47683">
        <ele>56</ele>
        <time>2021-02-27T11:46:53.000Z</time>
      </trkpt>
      <trkpt lat="47.34619" lon="-1.47674">
        <ele>56</ele>
        <time>2021-02-27T11:46:55.000Z</time>
      </trkpt>
      <trkpt lat="47.34627" lon="-1.47665">
        <ele>57</ele>
        <time>2021-02-27T11:46:57.000Z</time>
      </trkpt>
      <trkpt lat="47.34635" lon="-1.47656">
        <ele>56</ele>
        <time>2021-02-27T11:46:59.000Z</time>
      </trkpt>
      <trkpt lat="47.34644" lon="-1.47646">
        <ele>57</ele>
        <time>2021-02-27T11:47:01.000Z</time>
      </trkpt>
      <trkpt lat="47.34653" lon="-1.47637">
        <ele>57</ele>
        <time>2021-02-27T11:47:03.000Z</time>
      </trkpt>
      <trkpt lat="47.34661" lon="-1.47628">
        <ele>57</ele>
        <time>2021-02-27T11:47:05.000Z</time>
      </trkpt>
      <trkpt lat="47.3467" lon="-1.47618">
        <ele>57</ele>
        <time>2021-02-27T11:47:07.000Z</time>
      </trkpt>
      <trkpt lat="47.34678" lon="-1.47609">
        <ele>57</ele>
        <time>2021-02-27T11:47:09.000Z</time>
      </trkpt>
      <trkpt lat="47.34686" lon="-1.476">
        <ele>57</ele>
        <time>2021-02-27T11:47:11.000Z</time>
      </trkpt>
      <trkpt lat="47.34694" lon="-1.47591">
        <ele>58</ele>
        <time>2021-02-27T11:47:13.000Z</time>
      </trkpt>
      <trkpt lat="47.34702" lon="-1.47581">
        <ele>57</ele>
        <time>2021-02-27T11:47:15.000Z</time>
      </trkpt>
      <trkpt lat="47.3471" lon="-1.47572">
        <ele>58</ele>
        <time>2021-02-27T11:47:17.000Z</time>
      </trkpt>
      <trkpt lat="47.34718" lon="-1.47563">
        <ele>58</ele>
        <time>2021-02-27T11:47:19.000Z</time>
      </trkpt>
      <trkpt lat="47.34727" lon="-1.47553">
        <ele>57</ele>
        <time>2021-02-27T11:47:21.000Z</time>
      </trkpt>
      <trkpt lat="47.34736" lon="-1.47544">
        <ele>57</ele>
        <time>2021-02-27T11:47:23.000Z</time>
      </trkpt>
      <trkpt lat="47.34744" lon="-1.47534">
        <ele>57</ele>
        <time>2021-02-27T11:47:25.000Z</time>
      </trkpt>
      <trkpt lat="47.34752" lon="-1.47524">
        <ele>57</ele>
        <time>2021-02-27T11:47:27.000Z</time>
      </trkpt>
      <trkpt lat="47.34759" lon="-1.47514">
        <ele>56</ele>
        <time>2021-02-27T11:47:29.000Z</time>
      </trkpt>
      <trkpt lat="47.34767" lon="-1.47503">
        <ele>56</ele>
        <time>2021-02-27T11:47:31.000Z</time>
      </trkpt>
      <trkpt lat="47.34774" lon="-1.47491">
        <ele>56</ele>
        <time>2021-02-27T11:47:33.000Z</time>
      </trkpt>
      <trkpt lat="47.3478" lon="-1.47479">
        <ele>56</ele>
        <time>2021-02-27T11:47:35.000Z</time>
      </trkpt>
      <trkpt lat="47.34786" lon="-1.47466">
        <ele>56</ele>
        <time>2021-02-27T11:47:37.000Z</time>
      </trkpt>
      <trkpt lat="47.34792" lon="-1.47452">
        <ele>56</ele>
        <time>2021-02-27T11:47:39.000Z</time>
      </trkpt>
      <trkpt lat="47.34797" lon="-1.47438">
        <ele>55</ele>
        <time>2021-02-27T11:47:41.000Z</time>
      </trkpt>
      <trkpt lat="47.34803" lon="-1.47425">
        <ele>55</ele>
        <time>2021-02-27T11:47:43.000Z</time>
      </trkpt>
      <trkpt lat="47.34808" lon="-1.4741">
        <ele>55</ele>
        <time>2021-02-27T11:47:45.000Z</time>
      </trkpt>
      <trkpt lat="47.34814" lon="-1.47397">
        <ele>55</ele>
        <time>2021-02-27T11:47:47.000Z</time>
      </trkpt>
      <trkpt lat="47.3482" lon="-1.47383">
        <ele>55</ele>
        <time>2021-02-27T11:47:49.000Z</time>
      </trkpt>
      <trkpt lat="47.34826" lon="-1.47371">
        <ele>55</ele>
        <time>2021-02-27T11:47:51.000Z</time>
      </trkpt>
      <trkpt lat="47.34833" lon="-1.47359">
        <ele>55</ele>
        <time>2021-02-27T11:47:53.000Z</time>
      </trkpt>
      <trkpt lat="47.34841" lon="-1.47347">
        <ele>55</ele>
        <time>2021-02-27T11:47:55.000Z</time>
      </trkpt>
      <trkpt lat="47.34849" lon="-1.47336">
        <ele>55</ele>
        <time>2021-02-27T11:47:57.000Z</time>
      </trkpt>
      <trkpt lat="47.34857" lon="-1.47327">
        <ele>55</ele>
        <time>2021-02-27T11:47:59.000Z</time>
      </trkpt>
      <trkpt lat="47.34865" lon="-1.4732">
        <ele>55</ele>
        <time>2021-02-27T11:48:01.000Z</time>
      </trkpt>
      <trkpt lat="47.34874" lon="-1.47313">
        <ele>55</ele>
        <time>2021-02-27T11:48:03.000Z</time>
      </trkpt>
      <trkpt lat="47.34883" lon="-1.47306">
        <ele>56</ele>
        <time>2021-02-27T11:48:05.000Z</time>
      </trkpt>
      <trkpt lat="47.34891" lon="-1.473">
        <ele>56</ele>
        <time>2021-02-27T11:48:07.000Z</time>
      </trkpt>
      <trkpt lat="47.349" lon="-1.47294">
        <ele>56</ele>
        <time>2021-02-27T11:48:09.000Z</time>
      </trkpt>
      <trkpt lat="47.34908" lon="-1.47287">
        <ele>56</ele>
        <time>2021-02-27T11:48:11.000Z</time>
      </trkpt>
      <trkpt lat="47.34921" lon="-1.47278">
        <ele>57</ele>
        <time>2021-02-27T11:48:14.000Z</time>
      </trkpt>
      <trkpt lat="47.34929" lon="-1.47272">
        <ele>57</ele>
        <time>2021-02-27T11:48:16.000Z</time>
      </trkpt>
      <trkpt lat="47.34937" lon="-1.47266">
        <ele>58</ele>
        <time>2021-02-27T11:48:18.000Z</time>
      </trkpt>
      <trkpt lat="47.34949" lon="-1.47258">
        <ele>58</ele>
        <time>2021-02-27T11:48:21.000Z</time>
      </trkpt>
      <trkpt lat="47.34958" lon="-1.47254">
        <ele>58</ele>
        <time>2021-02-27T11:48:23.000Z</time>
      </trkpt>
      <trkpt lat="47.34967" lon="-1.47252">
        <ele>59</ele>
        <time>2021-02-27T11:48:25.000Z</time>
      </trkpt>
      <trkpt lat="47.34976" lon="-1.47247">
        <ele>59</ele>
        <time>2021-02-27T11:48:27.000Z</time>
      </trkpt>
      <trkpt lat="47.34988" lon="-1.47241">
        <ele>60</ele>
        <time>2021-02-27T11:48:30.000Z</time>
      </trkpt>
      <trkpt lat="47.34995" lon="-1.47233">
        <ele>60</ele>
        <time>2021-02-27T11:48:32.000Z</time>
      </trkpt>
      <trkpt lat="47.35003" lon="-1.47224">
        <ele>60</ele>
        <time>2021-02-27T11:48:34.000Z</time>
      </trkpt>
      <trkpt lat="47.35011" lon="-1.47218">
        <ele>61</ele>
        <time>2021-02-27T11:48:36.000Z</time>
      </trkpt>
      <trkpt lat="47.35023" lon="-1.4721">
        <ele>61</ele>
        <time>2021-02-27T11:48:39.000Z</time>
      </trkpt>
      <trkpt lat="47.35035" lon="-1.47211">
        <ele>61</ele>
        <time>2021-02-27T11:48:42.000Z</time>
      </trkpt>
      <trkpt lat="47.35044" lon="-1.47215">
        <ele>61</ele>
        <time>2021-02-27T11:48:44.000Z</time>
      </trkpt>
      <trkpt lat="47.35054" lon="-1.4722">
        <ele>61</ele>
        <time>2021-02-27T11:48:46.000Z</time>
      </trkpt>
      <trkpt lat="47.35063" lon="-1.47223">
        <ele>61</ele>
        <time>2021-02-27T11:48:48.000Z</time>
      </trkpt>
      <trkpt lat="47.35072" lon="-1.47226">
        <ele>60</ele>
        <time>2021-02-27T11:48:50.000Z</time>
      </trkpt>
      <trkpt lat="47.35082" lon="-1.47229">
        <ele>60</ele>
        <time>2021-02-27T11:48:52.000Z</time>
      </trkpt>
      <trkpt lat="47.35091" lon="-1.47231">
        <ele>60</ele>
        <time>2021-02-27T11:48:54.000Z</time>
      </trkpt>
      <trkpt lat="47.35101" lon="-1.47232">
        <ele>60</ele>
        <time>2021-02-27T11:48:56.000Z</time>
      </trkpt>
      <trkpt lat="47.35112" lon="-1.47235">
        <ele>60</ele>
        <time>2021-02-27T11:48:58.000Z</time>
      </trkpt>
      <trkpt lat="47.35122" lon="-1.47237">
        <ele>59</ele>
        <time>2021-02-27T11:49:00.000Z</time>
      </trkpt>
      <trkpt lat="47.35132" lon="-1.47239">
        <ele>60</ele>
        <time>2021-02-27T11:49:02.000Z</time>
      </trkpt>
      <trkpt lat="47.35142" lon="-1.47241">
        <ele>60</ele>
        <time>2021-02-27T11:49:04.000Z</time>
      </trkpt>
      <trkpt lat="47.35152" lon="-1.47241">
        <ele>59</ele>
        <time>2021-02-27T11:49:06.000Z</time>
      </trkpt>
      <trkpt lat="47.35162" lon="-1.4724">
        <ele>59</ele>
        <time>2021-02-27T11:49:08.000Z</time>
      </trkpt>
      <trkpt lat="47.35172" lon="-1.47238">
        <ele>59</ele>
        <time>2021-02-27T11:49:10.000Z</time>
      </trkpt>
      <trkpt lat="47.35182" lon="-1.47235">
        <ele>59</ele>
        <time>2021-02-27T11:49:12.000Z</time>
      </trkpt>
      <trkpt lat="47.35192" lon="-1.47231">
        <ele>59</ele>
        <time>2021-02-27T11:49:14.000Z</time>
      </trkpt>
      <trkpt lat="47.35201" lon="-1.4723">
        <ele>59</ele>
        <time>2021-02-27T11:49:16.000Z</time>
      </trkpt>
      <trkpt lat="47.3521" lon="-1.47233">
        <ele>59</ele>
        <time>2021-02-27T11:49:18.000Z</time>
      </trkpt>
      <trkpt lat="47.35219" lon="-1.47241">
        <ele>60</ele>
        <time>2021-02-27T11:49:20.000Z</time>
      </trkpt>
      <trkpt lat="47.35227" lon="-1.47253">
        <ele>60</ele>
        <time>2021-02-27T11:49:22.000Z</time>
      </trkpt>
      <trkpt lat="47.35233" lon="-1.47265">
        <ele>60</ele>
        <time>2021-02-27T11:49:24.000Z</time>
      </trkpt>
      <trkpt lat="47.3524" lon="-1.47277">
        <ele>61</ele>
        <time>2021-02-27T11:49:26.000Z</time>
      </trkpt>
      <trkpt lat="47.35247" lon="-1.47289">
        <ele>61</ele>
        <time>2021-02-27T11:49:28.000Z</time>
      </trkpt>
      <trkpt lat="47.35255" lon="-1.473">
        <ele>60</ele>
        <time>2021-02-27T11:49:30.000Z</time>
      </trkpt>
      <trkpt lat="47.35266" lon="-1.47292">
        <ele>60</ele>
        <time>2021-02-27T11:49:33.000Z</time>
      </trkpt>
      <trkpt lat="47.35276" lon="-1.47283">
        <ele>60</ele>
        <time>2021-02-27T11:49:36.000Z</time>
      </trkpt>
      <trkpt lat="47.35288" lon="-1.47279">
        <ele>60</ele>
        <time>2021-02-27T11:49:39.000Z</time>
      </trkpt>
      <trkpt lat="47.35301" lon="-1.47278">
        <ele>60</ele>
        <time>2021-02-27T11:49:42.000Z</time>
      </trkpt>
      <trkpt lat="47.35313" lon="-1.47277">
        <ele>60</ele>
        <time>2021-02-27T11:49:45.000Z</time>
      </trkpt>
      <trkpt lat="47.35325" lon="-1.47277">
        <ele>60</ele>
        <time>2021-02-27T11:49:48.000Z</time>
      </trkpt>
      <trkpt lat="47.35337" lon="-1.47277">
        <ele>61</ele>
        <time>2021-02-27T11:49:51.000Z</time>
      </trkpt>
      <trkpt lat="47.35349" lon="-1.47276">
        <ele>62</ele>
        <time>2021-02-27T11:49:54.000Z</time>
      </trkpt>
      <trkpt lat="47.35358" lon="-1.47275">
        <ele>62</ele>
        <time>2021-02-27T11:49:56.000Z</time>
      </trkpt>
      <trkpt lat="47.35368" lon="-1.47272">
        <ele>62</ele>
        <time>2021-02-27T11:49:58.000Z</time>
      </trkpt>
      <trkpt lat="47.35378" lon="-1.47265">
        <ele>62</ele>
        <time>2021-02-27T11:50:01.000Z</time>
      </trkpt>
      <trkpt lat="47.35388" lon="-1.47256">
        <ele>63</ele>
        <time>2021-02-27T11:50:04.000Z</time>
      </trkpt>
      <trkpt lat="47.35398" lon="-1.47248">
        <ele>65</ele>
        <time>2021-02-27T11:50:07.000Z</time>
      </trkpt>
      <trkpt lat="47.35407" lon="-1.47239">
        <ele>66</ele>
        <time>2021-02-27T11:50:10.000Z</time>
      </trkpt>
      <trkpt lat="47.35417" lon="-1.47231">
        <ele>67</ele>
        <time>2021-02-27T11:50:13.000Z</time>
      </trkpt>
      <trkpt lat="47.35427" lon="-1.47222">
        <ele>67</ele>
        <time>2021-02-27T11:50:16.000Z</time>
      </trkpt>
      <trkpt lat="47.35437" lon="-1.47214">
        <ele>68</ele>
        <time>2021-02-27T11:50:19.000Z</time>
      </trkpt>
      <trkpt lat="47.35447" lon="-1.47206">
        <ele>68</ele>
        <time>2021-02-27T11:50:22.000Z</time>
      </trkpt>
      <trkpt lat="47.35457" lon="-1.47197">
        <ele>68</ele>
        <time>2021-02-27T11:50:25.000Z</time>
      </trkpt>
      <trkpt lat="47.35467" lon="-1.47189">
        <ele>69</ele>
        <time>2021-02-27T11:50:28.000Z</time>
      </trkpt>
      <trkpt lat="47.35476" lon="-1.47179">
        <ele>70</ele>
        <time>2021-02-27T11:50:31.000Z</time>
      </trkpt>
      <trkpt lat="47.35487" lon="-1.4717">
        <ele>70</ele>
        <time>2021-02-27T11:50:34.000Z</time>
      </trkpt>
      <trkpt lat="47.35497" lon="-1.4716">
        <ele>70</ele>
        <time>2021-02-27T11:50:37.000Z</time>
      </trkpt>
      <trkpt lat="47.35507" lon="-1.47152">
        <ele>70</ele>
        <time>2021-02-27T11:50:40.000Z</time>
      </trkpt>
      <trkpt lat="47.35519" lon="-1.47142">
        <ele>70</ele>
        <time>2021-02-27T11:50:43.000Z</time>
      </trkpt>
      <trkpt lat="47.35527" lon="-1.47135">
        <ele>70</ele>
        <time>2021-02-27T11:50:45.000Z</time>
      </trkpt>
      <trkpt lat="47.35535" lon="-1.47128">
        <ele>70</ele>
        <time>2021-02-27T11:50:47.000Z</time>
      </trkpt>
      <trkpt lat="47.35543" lon="-1.47121">
        <ele>70</ele>
        <time>2021-02-27T11:50:49.000Z</time>
      </trkpt>
      <trkpt lat="47.35551" lon="-1.47114">
        <ele>70</ele>
        <time>2021-02-27T11:50:51.000Z</time>
      </trkpt>
      <trkpt lat="47.35562" lon="-1.47104">
        <ele>70</ele>
        <time>2021-02-27T11:50:54.000Z</time>
      </trkpt>
      <trkpt lat="47.3557" lon="-1.47098">
        <ele>71</ele>
        <time>2021-02-27T11:50:56.000Z</time>
      </trkpt>
      <trkpt lat="47.35578" lon="-1.47091">
        <ele>71</ele>
        <time>2021-02-27T11:50:58.000Z</time>
      </trkpt>
      <trkpt lat="47.35586" lon="-1.47085">
        <ele>71</ele>
        <time>2021-02-27T11:51:00.000Z</time>
      </trkpt>
      <trkpt lat="47.35597" lon="-1.47075">
        <ele>71</ele>
        <time>2021-02-27T11:51:03.000Z</time>
      </trkpt>
      <trkpt lat="47.35605" lon="-1.47068">
        <ele>70</ele>
        <time>2021-02-27T11:51:05.000Z</time>
      </trkpt>
      <trkpt lat="47.35614" lon="-1.47059">
        <ele>69</ele>
        <time>2021-02-27T11:51:07.000Z</time>
      </trkpt>
      <trkpt lat="47.35625" lon="-1.4705">
        <ele>68</ele>
        <time>2021-02-27T11:51:09.000Z</time>
      </trkpt>
      <trkpt lat="47.35637" lon="-1.4704">
        <ele>67</ele>
        <time>2021-02-27T11:51:11.000Z</time>
      </trkpt>
      <trkpt lat="47.3565" lon="-1.47028">
        <ele>65</ele>
        <time>2021-02-27T11:51:13.000Z</time>
      </trkpt>
      <trkpt lat="47.35666" lon="-1.47016">
        <ele>63</ele>
        <time>2021-02-27T11:51:15.000Z</time>
      </trkpt>
      <trkpt lat="47.35674" lon="-1.47008">
        <ele>61</ele>
        <time>2021-02-27T11:51:16.000Z</time>
      </trkpt>
      <trkpt lat="47.35682" lon="-1.47001">
        <ele>60</ele>
        <time>2021-02-27T11:51:17.000Z</time>
      </trkpt>
      <trkpt lat="47.3569" lon="-1.46993">
        <ele>59</ele>
        <time>2021-02-27T11:51:18.000Z</time>
      </trkpt>
      <trkpt lat="47.35699" lon="-1.46986">
        <ele>58</ele>
        <time>2021-02-27T11:51:19.000Z</time>
      </trkpt>
      <trkpt lat="47.35708" lon="-1.46978">
        <ele>57</ele>
        <time>2021-02-27T11:51:20.000Z</time>
      </trkpt>
      <trkpt lat="47.35717" lon="-1.4697">
        <ele>56</ele>
        <time>2021-02-27T11:51:21.000Z</time>
      </trkpt>
      <trkpt lat="47.35731" lon="-1.46959">
        <ele>54</ele>
        <time>2021-02-27T11:51:23.000Z</time>
      </trkpt>
      <trkpt lat="47.35741" lon="-1.46948">
        <ele>54</ele>
        <time>2021-02-27T11:51:25.000Z</time>
      </trkpt>
      <trkpt lat="47.35745" lon="-1.46931">
        <ele>53</ele>
        <time>2021-02-27T11:51:27.000Z</time>
      </trkpt>
      <trkpt lat="47.35746" lon="-1.46914">
        <ele>53</ele>
        <time>2021-02-27T11:51:29.000Z</time>
      </trkpt>
      <trkpt lat="47.35744" lon="-1.46895">
        <ele>53</ele>
        <time>2021-02-27T11:51:31.000Z</time>
      </trkpt>
      <trkpt lat="47.35742" lon="-1.46878">
        <ele>53</ele>
        <time>2021-02-27T11:51:33.000Z</time>
      </trkpt>
      <trkpt lat="47.35739" lon="-1.46861">
        <ele>52</ele>
        <time>2021-02-27T11:51:35.000Z</time>
      </trkpt>
      <trkpt lat="47.35737" lon="-1.46843">
        <ele>52</ele>
        <time>2021-02-27T11:51:37.000Z</time>
      </trkpt>
      <trkpt lat="47.35736" lon="-1.46825">
        <ele>53</ele>
        <time>2021-02-27T11:51:39.000Z</time>
      </trkpt>
      <trkpt lat="47.35735" lon="-1.46808">
        <ele>52</ele>
        <time>2021-02-27T11:51:41.000Z</time>
      </trkpt>
      <trkpt lat="47.35736" lon="-1.46789">
        <ele>53</ele>
        <time>2021-02-27T11:51:43.000Z</time>
      </trkpt>
      <trkpt lat="47.35738" lon="-1.46771">
        <ele>53</ele>
        <time>2021-02-27T11:51:45.000Z</time>
      </trkpt>
      <trkpt lat="47.35742" lon="-1.46746">
        <ele>53</ele>
        <time>2021-02-27T11:51:48.000Z</time>
      </trkpt>
      <trkpt lat="47.35745" lon="-1.46728">
        <ele>53</ele>
        <time>2021-02-27T11:51:50.000Z</time>
      </trkpt>
      <trkpt lat="47.35747" lon="-1.4671">
        <ele>53</ele>
        <time>2021-02-27T11:51:52.000Z</time>
      </trkpt>
      <trkpt lat="47.3575" lon="-1.46692">
        <ele>53</ele>
        <time>2021-02-27T11:51:54.000Z</time>
      </trkpt>
      <trkpt lat="47.35753" lon="-1.46675">
        <ele>53</ele>
        <time>2021-02-27T11:51:56.000Z</time>
      </trkpt>
      <trkpt lat="47.35757" lon="-1.46659">
        <ele>53</ele>
        <time>2021-02-27T11:51:58.000Z</time>
      </trkpt>
      <trkpt lat="47.35764" lon="-1.46643">
        <ele>53</ele>
        <time>2021-02-27T11:52:00.000Z</time>
      </trkpt>
      <trkpt lat="47.35772" lon="-1.46632">
        <ele>53</ele>
        <time>2021-02-27T11:52:02.000Z</time>
      </trkpt>
      <trkpt lat="47.35782" lon="-1.46622">
        <ele>53</ele>
        <time>2021-02-27T11:52:04.000Z</time>
      </trkpt>
      <trkpt lat="47.35793" lon="-1.46613">
        <ele>53</ele>
        <time>2021-02-27T11:52:06.000Z</time>
      </trkpt>
      <trkpt lat="47.35804" lon="-1.46604">
        <ele>53</ele>
        <time>2021-02-27T11:52:08.000Z</time>
      </trkpt>
      <trkpt lat="47.35815" lon="-1.46595">
        <ele>53</ele>
        <time>2021-02-27T11:52:10.000Z</time>
      </trkpt>
      <trkpt lat="47.35825" lon="-1.46587">
        <ele>52</ele>
        <time>2021-02-27T11:52:12.000Z</time>
      </trkpt>
      <trkpt lat="47.35836" lon="-1.46579">
        <ele>52</ele>
        <time>2021-02-27T11:52:14.000Z</time>
      </trkpt>
      <trkpt lat="47.35846" lon="-1.46571">
        <ele>52</ele>
        <time>2021-02-27T11:52:16.000Z</time>
      </trkpt>
      <trkpt lat="47.35856" lon="-1.46562">
        <ele>53</ele>
        <time>2021-02-27T11:52:18.000Z</time>
      </trkpt>
      <trkpt lat="47.35866" lon="-1.46554">
        <ele>53</ele>
        <time>2021-02-27T11:52:20.000Z</time>
      </trkpt>
      <trkpt lat="47.3588" lon="-1.46539">
        <ele>53</ele>
        <time>2021-02-27T11:52:23.000Z</time>
      </trkpt>
      <trkpt lat="47.3589" lon="-1.46519">
        <ele>53</ele>
        <time>2021-02-27T11:52:26.000Z</time>
      </trkpt>
      <trkpt lat="47.35892" lon="-1.46504">
        <ele>53</ele>
        <time>2021-02-27T11:52:28.000Z</time>
      </trkpt>
      <trkpt lat="47.35897" lon="-1.46478">
        <ele>52</ele>
        <time>2021-02-27T11:52:31.000Z</time>
      </trkpt>
      <trkpt lat="47.35901" lon="-1.46453">
        <ele>53</ele>
        <time>2021-02-27T11:52:34.000Z</time>
      </trkpt>
      <trkpt lat="47.35905" lon="-1.46437">
        <ele>53</ele>
        <time>2021-02-27T11:52:36.000Z</time>
      </trkpt>
      <trkpt lat="47.35908" lon="-1.4642">
        <ele>53</ele>
        <time>2021-02-27T11:52:38.000Z</time>
      </trkpt>
      <trkpt lat="47.3591" lon="-1.46403">
        <ele>53</ele>
        <time>2021-02-27T11:52:40.000Z</time>
      </trkpt>
      <trkpt lat="47.35911" lon="-1.46386">
        <ele>52</ele>
        <time>2021-02-27T11:52:42.000Z</time>
      </trkpt>
      <trkpt lat="47.35904" lon="-1.46364">
        <ele>51</ele>
        <time>2021-02-27T11:52:45.000Z</time>
      </trkpt>
      <trkpt lat="47.35894" lon="-1.46352">
        <ele>53</ele>
        <time>2021-02-27T11:52:47.000Z</time>
      </trkpt>
      <trkpt lat="47.35881" lon="-1.46332">
        <ele>53</ele>
        <time>2021-02-27T11:52:50.000Z</time>
      </trkpt>
      <trkpt lat="47.35871" lon="-1.4632">
        <ele>53</ele>
        <time>2021-02-27T11:52:52.000Z</time>
      </trkpt>
      <trkpt lat="47.35861" lon="-1.46308">
        <ele>53</ele>
        <time>2021-02-27T11:52:54.000Z</time>
      </trkpt>
      <trkpt lat="47.35853" lon="-1.46295">
        <ele>54</ele>
        <time>2021-02-27T11:52:56.000Z</time>
      </trkpt>
      <trkpt lat="47.35846" lon="-1.46281">
        <ele>55</ele>
        <time>2021-02-27T11:52:58.000Z</time>
      </trkpt>
      <trkpt lat="47.35841" lon="-1.46265">
        <ele>55</ele>
        <time>2021-02-27T11:53:00.000Z</time>
      </trkpt>
      <trkpt lat="47.35837" lon="-1.46248">
        <ele>55</ele>
        <time>2021-02-27T11:53:02.000Z</time>
      </trkpt>
      <trkpt lat="47.35836" lon="-1.46231">
        <ele>55</ele>
        <time>2021-02-27T11:53:04.000Z</time>
      </trkpt>
      <trkpt lat="47.35839" lon="-1.46215">
        <ele>56</ele>
        <time>2021-02-27T11:53:06.000Z</time>
      </trkpt>
      <trkpt lat="47.35844" lon="-1.462">
        <ele>55</ele>
        <time>2021-02-27T11:53:08.000Z</time>
      </trkpt>
      <trkpt lat="47.35847" lon="-1.46184">
        <ele>55</ele>
        <time>2021-02-27T11:53:10.000Z</time>
      </trkpt>
      <trkpt lat="47.35845" lon="-1.46167">
        <ele>55</ele>
        <time>2021-02-27T11:53:12.000Z</time>
      </trkpt>
      <trkpt lat="47.35842" lon="-1.46149">
        <ele>55</ele>
        <time>2021-02-27T11:53:14.000Z</time>
      </trkpt>
      <trkpt lat="47.35838" lon="-1.46133">
        <ele>55</ele>
        <time>2021-02-27T11:53:16.000Z</time>
      </trkpt>
      <trkpt lat="47.35834" lon="-1.46116">
        <ele>55</ele>
        <time>2021-02-27T11:53:18.000Z</time>
      </trkpt>
      <trkpt lat="47.3583" lon="-1.46099">
        <ele>55</ele>
        <time>2021-02-27T11:53:20.000Z</time>
      </trkpt>
      <trkpt lat="47.35826" lon="-1.46083">
        <ele>55</ele>
        <time>2021-02-27T11:53:22.000Z</time>
      </trkpt>
      <trkpt lat="47.35821" lon="-1.46067">
        <ele>55</ele>
        <time>2021-02-27T11:53:24.000Z</time>
      </trkpt>
      <trkpt lat="47.35817" lon="-1.46053">
        <ele>55</ele>
        <time>2021-02-27T11:53:26.000Z</time>
      </trkpt>
      <trkpt lat="47.35811" lon="-1.46031">
        <ele>56</ele>
        <time>2021-02-27T11:53:29.000Z</time>
      </trkpt>
      <trkpt lat="47.35807" lon="-1.46017">
        <ele>56</ele>
        <time>2021-02-27T11:53:31.000Z</time>
      </trkpt>
      <trkpt lat="47.35804" lon="-1.46003">
        <ele>57</ele>
        <time>2021-02-27T11:53:33.000Z</time>
      </trkpt>
      <trkpt lat="47.35802" lon="-1.45989">
        <ele>58</ele>
        <time>2021-02-27T11:53:35.000Z</time>
      </trkpt>
      <trkpt lat="47.35802" lon="-1.45973">
        <ele>59</ele>
        <time>2021-02-27T11:53:37.000Z</time>
      </trkpt>
      <trkpt lat="47.35802" lon="-1.45959">
        <ele>59</ele>
        <time>2021-02-27T11:53:39.000Z</time>
      </trkpt>
      <trkpt lat="47.35801" lon="-1.45944">
        <ele>60</ele>
        <time>2021-02-27T11:53:41.000Z</time>
      </trkpt>
      <trkpt lat="47.35801" lon="-1.45929">
        <ele>60</ele>
        <time>2021-02-27T11:53:43.000Z</time>
      </trkpt>
      <trkpt lat="47.35801" lon="-1.45914">
        <ele>60</ele>
        <time>2021-02-27T11:53:45.000Z</time>
      </trkpt>
      <trkpt lat="47.35801" lon="-1.45898">
        <ele>61</ele>
        <time>2021-02-27T11:53:47.000Z</time>
      </trkpt>
      <trkpt lat="47.358" lon="-1.45883">
        <ele>61</ele>
        <time>2021-02-27T11:53:49.000Z</time>
      </trkpt>
      <trkpt lat="47.358" lon="-1.45868">
        <ele>61</ele>
        <time>2021-02-27T11:53:51.000Z</time>
      </trkpt>
      <trkpt lat="47.35799" lon="-1.45853">
        <ele>61</ele>
        <time>2021-02-27T11:53:53.000Z</time>
      </trkpt>
      <trkpt lat="47.35799" lon="-1.45837">
        <ele>61</ele>
        <time>2021-02-27T11:53:55.000Z</time>
      </trkpt>
      <trkpt lat="47.35798" lon="-1.45822">
        <ele>61</ele>
        <time>2021-02-27T11:53:57.000Z</time>
      </trkpt>
      <trkpt lat="47.35798" lon="-1.45807">
        <ele>61</ele>
        <time>2021-02-27T11:53:59.000Z</time>
      </trkpt>
      <trkpt lat="47.35798" lon="-1.45792">
        <ele>61</ele>
        <time>2021-02-27T11:54:01.000Z</time>
      </trkpt>
      <trkpt lat="47.35798" lon="-1.45776">
        <ele>61</ele>
        <time>2021-02-27T11:54:03.000Z</time>
      </trkpt>
      <trkpt lat="47.35797" lon="-1.45761">
        <ele>61</ele>
        <time>2021-02-27T11:54:05.000Z</time>
      </trkpt>
      <trkpt lat="47.35797" lon="-1.45746">
        <ele>61</ele>
        <time>2021-02-27T11:54:07.000Z</time>
      </trkpt>
      <trkpt lat="47.35794" lon="-1.45733">
        <ele>62</ele>
        <time>2021-02-27T11:54:10.000Z</time>
      </trkpt>
      <trkpt lat="47.35788" lon="-1.4572">
        <ele>62</ele>
        <time>2021-02-27T11:54:16.000Z</time>
      </trkpt>
      <trkpt lat="47.35786" lon="-1.45707">
        <ele>61</ele>
        <time>2021-02-27T11:54:18.000Z</time>
      </trkpt>
      <trkpt lat="47.35785" lon="-1.45692">
        <ele>61</ele>
        <time>2021-02-27T11:54:20.000Z</time>
      </trkpt>
      <trkpt lat="47.35781" lon="-1.45678">
        <ele>61</ele>
        <time>2021-02-27T11:54:22.000Z</time>
      </trkpt>
      <trkpt lat="47.35778" lon="-1.45663">
        <ele>61</ele>
        <time>2021-02-27T11:54:24.000Z</time>
      </trkpt>
      <trkpt lat="47.35775" lon="-1.45649">
        <ele>61</ele>
        <time>2021-02-27T11:54:26.000Z</time>
      </trkpt>
      <trkpt lat="47.35772" lon="-1.45635">
        <ele>60</ele>
        <time>2021-02-27T11:54:28.000Z</time>
      </trkpt>
      <trkpt lat="47.35769" lon="-1.45621">
        <ele>60</ele>
        <time>2021-02-27T11:54:30.000Z</time>
      </trkpt>
      <trkpt lat="47.35767" lon="-1.45605">
        <ele>61</ele>
        <time>2021-02-27T11:54:32.000Z</time>
      </trkpt>
      <trkpt lat="47.35766" lon="-1.4559">
        <ele>61</ele>
        <time>2021-02-27T11:54:34.000Z</time>
      </trkpt>
      <trkpt lat="47.35765" lon="-1.45574">
        <ele>61</ele>
        <time>2021-02-27T11:54:36.000Z</time>
      </trkpt>
      <trkpt lat="47.35766" lon="-1.45559">
        <ele>61</ele>
        <time>2021-02-27T11:54:38.000Z</time>
      </trkpt>
      <trkpt lat="47.35769" lon="-1.45546">
        <ele>61</ele>
        <time>2021-02-27T11:54:40.000Z</time>
      </trkpt>
      <trkpt lat="47.35771" lon="-1.45531">
        <ele>62</ele>
        <time>2021-02-27T11:54:42.000Z</time>
      </trkpt>
      <trkpt lat="47.35775" lon="-1.45518">
        <ele>62</ele>
        <time>2021-02-27T11:54:44.000Z</time>
      </trkpt>
      <trkpt lat="47.35779" lon="-1.45504">
        <ele>62</ele>
        <time>2021-02-27T11:54:46.000Z</time>
      </trkpt>
      <trkpt lat="47.35784" lon="-1.45492">
        <ele>63</ele>
        <time>2021-02-27T11:54:48.000Z</time>
      </trkpt>
      <trkpt lat="47.35788" lon="-1.45479">
        <ele>62</ele>
        <time>2021-02-27T11:54:50.000Z</time>
      </trkpt>
      <trkpt lat="47.35792" lon="-1.45465">
        <ele>62</ele>
        <time>2021-02-27T11:54:52.000Z</time>
      </trkpt>
      <trkpt lat="47.35795" lon="-1.45452">
        <ele>62</ele>
        <time>2021-02-27T11:54:54.000Z</time>
      </trkpt>
      <trkpt lat="47.35798" lon="-1.45438">
        <ele>63</ele>
        <time>2021-02-27T11:54:56.000Z</time>
      </trkpt>
      <trkpt lat="47.35801" lon="-1.45422">
        <ele>63</ele>
        <time>2021-02-27T11:54:58.000Z</time>
      </trkpt>
      <trkpt lat="47.35801" lon="-1.45407">
        <ele>63</ele>
        <time>2021-02-27T11:55:00.000Z</time>
      </trkpt>
      <trkpt lat="47.35801" lon="-1.45392">
        <ele>63</ele>
        <time>2021-02-27T11:55:02.000Z</time>
      </trkpt>
      <trkpt lat="47.35801" lon="-1.45376">
        <ele>63</ele>
        <time>2021-02-27T11:55:04.000Z</time>
      </trkpt>
      <trkpt lat="47.35799" lon="-1.45361">
        <ele>63</ele>
        <time>2021-02-27T11:55:06.000Z</time>
      </trkpt>
      <trkpt lat="47.35797" lon="-1.45346">
        <ele>64</ele>
        <time>2021-02-27T11:55:08.000Z</time>
      </trkpt>
      <trkpt lat="47.35794" lon="-1.45332">
        <ele>64</ele>
        <time>2021-02-27T11:55:10.000Z</time>
      </trkpt>
      <trkpt lat="47.35792" lon="-1.45318">
        <ele>64</ele>
        <time>2021-02-27T11:55:12.000Z</time>
      </trkpt>
      <trkpt lat="47.35789" lon="-1.45304">
        <ele>64</ele>
        <time>2021-02-27T11:55:14.000Z</time>
      </trkpt>
      <trkpt lat="47.35787" lon="-1.4529">
        <ele>64</ele>
        <time>2021-02-27T11:55:16.000Z</time>
      </trkpt>
      <trkpt lat="47.35784" lon="-1.45277">
        <ele>64</ele>
        <time>2021-02-27T11:55:18.000Z</time>
      </trkpt>
      <trkpt lat="47.35782" lon="-1.45264">
        <ele>65</ele>
        <time>2021-02-27T11:55:20.000Z</time>
      </trkpt>
      <trkpt lat="47.3578" lon="-1.45251">
        <ele>65</ele>
        <time>2021-02-27T11:55:22.000Z</time>
      </trkpt>
      <trkpt lat="47.35777" lon="-1.45237">
        <ele>65</ele>
        <time>2021-02-27T11:55:24.000Z</time>
      </trkpt>
      <trkpt lat="47.35775" lon="-1.45223">
        <ele>65</ele>
        <time>2021-02-27T11:55:26.000Z</time>
      </trkpt>
      <trkpt lat="47.35773" lon="-1.45209">
        <ele>66</ele>
        <time>2021-02-27T11:55:28.000Z</time>
      </trkpt>
      <trkpt lat="47.35771" lon="-1.45194">
        <ele>66</ele>
        <time>2021-02-27T11:55:30.000Z</time>
      </trkpt>
      <trkpt lat="47.35768" lon="-1.4518">
        <ele>66</ele>
        <time>2021-02-27T11:55:32.000Z</time>
      </trkpt>
      <trkpt lat="47.35767" lon="-1.45166">
        <ele>66</ele>
        <time>2021-02-27T11:55:34.000Z</time>
      </trkpt>
      <trkpt lat="47.35766" lon="-1.45151">
        <ele>67</ele>
        <time>2021-02-27T11:55:36.000Z</time>
      </trkpt>
      <trkpt lat="47.35766" lon="-1.45138">
        <ele>67</ele>
        <time>2021-02-27T11:55:38.000Z</time>
      </trkpt>
      <trkpt lat="47.35766" lon="-1.45124">
        <ele>67</ele>
        <time>2021-02-27T11:55:40.000Z</time>
      </trkpt>
      <trkpt lat="47.35767" lon="-1.45111">
        <ele>68</ele>
        <time>2021-02-27T11:55:42.000Z</time>
      </trkpt>
      <trkpt lat="47.35769" lon="-1.45097">
        <ele>68</ele>
        <time>2021-02-27T11:55:44.000Z</time>
      </trkpt>
      <trkpt lat="47.35771" lon="-1.45084">
        <ele>68</ele>
        <time>2021-02-27T11:55:46.000Z</time>
      </trkpt>
      <trkpt lat="47.35773" lon="-1.45071">
        <ele>68</ele>
        <time>2021-02-27T11:55:48.000Z</time>
      </trkpt>
      <trkpt lat="47.35775" lon="-1.45057">
        <ele>68</ele>
        <time>2021-02-27T11:55:50.000Z</time>
      </trkpt>
      <trkpt lat="47.35777" lon="-1.45044">
        <ele>68</ele>
        <time>2021-02-27T11:55:52.000Z</time>
      </trkpt>
      <trkpt lat="47.35778" lon="-1.45031">
        <ele>68</ele>
        <time>2021-02-27T11:55:54.000Z</time>
      </trkpt>
      <trkpt lat="47.3578" lon="-1.45017">
        <ele>68</ele>
        <time>2021-02-27T11:55:56.000Z</time>
      </trkpt>
      <trkpt lat="47.35781" lon="-1.45004">
        <ele>68</ele>
        <time>2021-02-27T11:55:58.000Z</time>
      </trkpt>
      <trkpt lat="47.35782" lon="-1.4499">
        <ele>69</ele>
        <time>2021-02-27T11:56:00.000Z</time>
      </trkpt>
      <trkpt lat="47.35782" lon="-1.44976">
        <ele>69</ele>
        <time>2021-02-27T11:56:02.000Z</time>
      </trkpt>
      <trkpt lat="47.35782" lon="-1.44963">
        <ele>69</ele>
        <time>2021-02-27T11:56:04.000Z</time>
      </trkpt>
      <trkpt lat="47.35783" lon="-1.44949">
        <ele>69</ele>
        <time>2021-02-27T11:56:06.000Z</time>
      </trkpt>
      <trkpt lat="47.35783" lon="-1.44935">
        <ele>69</ele>
        <time>2021-02-27T11:56:08.000Z</time>
      </trkpt>
      <trkpt lat="47.35783" lon="-1.44921">
        <ele>69</ele>
        <time>2021-02-27T11:56:10.000Z</time>
      </trkpt>
      <trkpt lat="47.35784" lon="-1.44908">
        <ele>70</ele>
        <time>2021-02-27T11:56:12.000Z</time>
      </trkpt>
      <trkpt lat="47.35784" lon="-1.44894">
        <ele>70</ele>
        <time>2021-02-27T11:56:14.000Z</time>
      </trkpt>
      <trkpt lat="47.35784" lon="-1.4488">
        <ele>70</ele>
        <time>2021-02-27T11:56:16.000Z</time>
      </trkpt>
      <trkpt lat="47.35784" lon="-1.44865">
        <ele>71</ele>
        <time>2021-02-27T11:56:18.000Z</time>
      </trkpt>
      <trkpt lat="47.35785" lon="-1.44852">
        <ele>71</ele>
        <time>2021-02-27T11:56:20.000Z</time>
      </trkpt>
      <trkpt lat="47.35785" lon="-1.44838">
        <ele>71</ele>
        <time>2021-02-27T11:56:22.000Z</time>
      </trkpt>
      <trkpt lat="47.35785" lon="-1.44818">
        <ele>72</ele>
        <time>2021-02-27T11:56:25.000Z</time>
      </trkpt>
      <trkpt lat="47.35785" lon="-1.44805">
        <ele>73</ele>
        <time>2021-02-27T11:56:27.000Z</time>
      </trkpt>
      <trkpt lat="47.35786" lon="-1.44785">
        <ele>74</ele>
        <time>2021-02-27T11:56:30.000Z</time>
      </trkpt>
      <trkpt lat="47.35786" lon="-1.44765">
        <ele>75</ele>
        <time>2021-02-27T11:56:33.000Z</time>
      </trkpt>
      <trkpt lat="47.35787" lon="-1.44752">
        <ele>75</ele>
        <time>2021-02-27T11:56:35.000Z</time>
      </trkpt>
      <trkpt lat="47.35787" lon="-1.44732">
        <ele>76</ele>
        <time>2021-02-27T11:56:38.000Z</time>
      </trkpt>
      <trkpt lat="47.35788" lon="-1.44719">
        <ele>76</ele>
        <time>2021-02-27T11:56:40.000Z</time>
      </trkpt>
      <trkpt lat="47.35789" lon="-1.44705">
        <ele>76</ele>
        <time>2021-02-27T11:56:42.000Z</time>
      </trkpt>
      <trkpt lat="47.35789" lon="-1.44691">
        <ele>77</ele>
        <time>2021-02-27T11:56:44.000Z</time>
      </trkpt>
      <trkpt lat="47.35789" lon="-1.44671">
        <ele>77</ele>
        <time>2021-02-27T11:56:47.000Z</time>
      </trkpt>
      <trkpt lat="47.35789" lon="-1.44658">
        <ele>77</ele>
        <time>2021-02-27T11:56:49.000Z</time>
      </trkpt>
      <trkpt lat="47.3579" lon="-1.44643">
        <ele>78</ele>
        <time>2021-02-27T11:56:51.000Z</time>
      </trkpt>
      <trkpt lat="47.35791" lon="-1.4463">
        <ele>78</ele>
        <time>2021-02-27T11:56:53.000Z</time>
      </trkpt>
      <trkpt lat="47.35791" lon="-1.44616">
        <ele>79</ele>
        <time>2021-02-27T11:56:55.000Z</time>
      </trkpt>
      <trkpt lat="47.35793" lon="-1.44597">
        <ele>79</ele>
        <time>2021-02-27T11:56:58.000Z</time>
      </trkpt>
      <trkpt lat="47.35795" lon="-1.44577">
        <ele>80</ele>
        <time>2021-02-27T11:57:01.000Z</time>
      </trkpt>
      <trkpt lat="47.35796" lon="-1.44557">
        <ele>80</ele>
        <time>2021-02-27T11:57:04.000Z</time>
      </trkpt>
      <trkpt lat="47.35798" lon="-1.44537">
        <ele>81</ele>
        <time>2021-02-27T11:57:07.000Z</time>
      </trkpt>
      <trkpt lat="47.358" lon="-1.44519">
        <ele>81</ele>
        <time>2021-02-27T11:57:10.000Z</time>
      </trkpt>
      <trkpt lat="47.35802" lon="-1.44499">
        <ele>81</ele>
        <time>2021-02-27T11:57:13.000Z</time>
      </trkpt>
      <trkpt lat="47.35803" lon="-1.44486">
        <ele>82</ele>
        <time>2021-02-27T11:57:15.000Z</time>
      </trkpt>
      <trkpt lat="47.35805" lon="-1.44466">
        <ele>82</ele>
        <time>2021-02-27T11:57:18.000Z</time>
      </trkpt>
      <trkpt lat="47.35805" lon="-1.44453">
        <ele>82</ele>
        <time>2021-02-27T11:57:20.000Z</time>
      </trkpt>
      <trkpt lat="47.35806" lon="-1.44439">
        <ele>82</ele>
        <time>2021-02-27T11:57:22.000Z</time>
      </trkpt>
      <trkpt lat="47.35806" lon="-1.44425">
        <ele>82</ele>
        <time>2021-02-27T11:57:24.000Z</time>
      </trkpt>
      <trkpt lat="47.35807" lon="-1.44411">
        <ele>82</ele>
        <time>2021-02-27T11:57:26.000Z</time>
      </trkpt>
      <trkpt lat="47.35807" lon="-1.44397">
        <ele>82</ele>
        <time>2021-02-27T11:57:28.000Z</time>
      </trkpt>
      <trkpt lat="47.35807" lon="-1.44383">
        <ele>82</ele>
        <time>2021-02-27T11:57:30.000Z</time>
      </trkpt>
      <trkpt lat="47.35808" lon="-1.44368">
        <ele>82</ele>
        <time>2021-02-27T11:57:32.000Z</time>
      </trkpt>
      <trkpt lat="47.35808" lon="-1.44353">
        <ele>82</ele>
        <time>2021-02-27T11:57:34.000Z</time>
      </trkpt>
      <trkpt lat="47.35808" lon="-1.44339">
        <ele>82</ele>
        <time>2021-02-27T11:57:36.000Z</time>
      </trkpt>
      <trkpt lat="47.35809" lon="-1.44323">
        <ele>82</ele>
        <time>2021-02-27T11:57:38.000Z</time>
      </trkpt>
      <trkpt lat="47.35809" lon="-1.44309">
        <ele>82</ele>
        <time>2021-02-27T11:57:40.000Z</time>
      </trkpt>
      <trkpt lat="47.35811" lon="-1.44294">
        <ele>82</ele>
        <time>2021-02-27T11:57:42.000Z</time>
      </trkpt>
      <trkpt lat="47.35814" lon="-1.4428">
        <ele>82</ele>
        <time>2021-02-27T11:57:44.000Z</time>
      </trkpt>
      <trkpt lat="47.35819" lon="-1.44267">
        <ele>82</ele>
        <time>2021-02-27T11:57:46.000Z</time>
      </trkpt>
      <trkpt lat="47.35824" lon="-1.44255">
        <ele>82</ele>
        <time>2021-02-27T11:57:48.000Z</time>
      </trkpt>
      <trkpt lat="47.35831" lon="-1.44243">
        <ele>82</ele>
        <time>2021-02-27T11:57:50.000Z</time>
      </trkpt>
      <trkpt lat="47.35838" lon="-1.44232">
        <ele>82</ele>
        <time>2021-02-27T11:57:52.000Z</time>
      </trkpt>
      <trkpt lat="47.35845" lon="-1.44222">
        <ele>82</ele>
        <time>2021-02-27T11:57:54.000Z</time>
      </trkpt>
      <trkpt lat="47.35853" lon="-1.44211">
        <ele>81</ele>
        <time>2021-02-27T11:57:56.000Z</time>
      </trkpt>
      <trkpt lat="47.3586" lon="-1.44201">
        <ele>82</ele>
        <time>2021-02-27T11:57:58.000Z</time>
      </trkpt>
      <trkpt lat="47.35868" lon="-1.4419">
        <ele>82</ele>
        <time>2021-02-27T11:58:00.000Z</time>
      </trkpt>
      <trkpt lat="47.35875" lon="-1.4418">
        <ele>82</ele>
        <time>2021-02-27T11:58:02.000Z</time>
      </trkpt>
      <trkpt lat="47.35883" lon="-1.4417">
        <ele>82</ele>
        <time>2021-02-27T11:58:04.000Z</time>
      </trkpt>
      <trkpt lat="47.3589" lon="-1.4416">
        <ele>83</ele>
        <time>2021-02-27T11:58:06.000Z</time>
      </trkpt>
      <trkpt lat="47.35897" lon="-1.44149">
        <ele>83</ele>
        <time>2021-02-27T11:58:08.000Z</time>
      </trkpt>
      <trkpt lat="47.35905" lon="-1.44138">
        <ele>82</ele>
        <time>2021-02-27T11:58:10.000Z</time>
      </trkpt>
      <trkpt lat="47.35912" lon="-1.44128">
        <ele>82</ele>
        <time>2021-02-27T11:58:12.000Z</time>
      </trkpt>
      <trkpt lat="47.3592" lon="-1.44117">
        <ele>82</ele>
        <time>2021-02-27T11:58:14.000Z</time>
      </trkpt>
      <trkpt lat="47.35927" lon="-1.44108">
        <ele>82</ele>
        <time>2021-02-27T11:58:16.000Z</time>
      </trkpt>
      <trkpt lat="47.35935" lon="-1.44097">
        <ele>82</ele>
        <time>2021-02-27T11:58:18.000Z</time>
      </trkpt>
      <trkpt lat="47.35942" lon="-1.44087">
        <ele>82</ele>
        <time>2021-02-27T11:58:20.000Z</time>
      </trkpt>
      <trkpt lat="47.3595" lon="-1.44077">
        <ele>83</ele>
        <time>2021-02-27T11:58:22.000Z</time>
      </trkpt>
      <trkpt lat="47.35958" lon="-1.44067">
        <ele>83</ele>
        <time>2021-02-27T11:58:24.000Z</time>
      </trkpt>
      <trkpt lat="47.35965" lon="-1.44057">
        <ele>83</ele>
        <time>2021-02-27T11:58:26.000Z</time>
      </trkpt>
      <trkpt lat="47.35973" lon="-1.44047">
        <ele>84</ele>
        <time>2021-02-27T11:58:28.000Z</time>
      </trkpt>
      <trkpt lat="47.35981" lon="-1.44037">
        <ele>84</ele>
        <time>2021-02-27T11:58:30.000Z</time>
      </trkpt>
      <trkpt lat="47.3599" lon="-1.44027">
        <ele>84</ele>
        <time>2021-02-27T11:58:32.000Z</time>
      </trkpt>
      <trkpt lat="47.35998" lon="-1.44018">
        <ele>84</ele>
        <time>2021-02-27T11:58:34.000Z</time>
      </trkpt>
      <trkpt lat="47.36006" lon="-1.44008">
        <ele>83</ele>
        <time>2021-02-27T11:58:36.000Z</time>
      </trkpt>
      <trkpt lat="47.36014" lon="-1.43998">
        <ele>83</ele>
        <time>2021-02-27T11:58:38.000Z</time>
      </trkpt>
      <trkpt lat="47.36022" lon="-1.43988">
        <ele>83</ele>
        <time>2021-02-27T11:58:40.000Z</time>
      </trkpt>
      <trkpt lat="47.36029" lon="-1.43976">
        <ele>83</ele>
        <time>2021-02-27T11:58:42.000Z</time>
      </trkpt>
      <trkpt lat="47.36037" lon="-1.43964">
        <ele>83</ele>
        <time>2021-02-27T11:58:44.000Z</time>
      </trkpt>
      <trkpt lat="47.36043" lon="-1.4395">
        <ele>82</ele>
        <time>2021-02-27T11:58:46.000Z</time>
      </trkpt>
      <trkpt lat="47.36049" lon="-1.43937">
        <ele>82</ele>
        <time>2021-02-27T11:58:48.000Z</time>
      </trkpt>
      <trkpt lat="47.36054" lon="-1.43922">
        <ele>82</ele>
        <time>2021-02-27T11:58:50.000Z</time>
      </trkpt>
      <trkpt lat="47.36057" lon="-1.43906">
        <ele>82</ele>
        <time>2021-02-27T11:58:52.000Z</time>
      </trkpt>
      <trkpt lat="47.36061" lon="-1.43891">
        <ele>81</ele>
        <time>2021-02-27T11:58:54.000Z</time>
      </trkpt>
      <trkpt lat="47.36064" lon="-1.43875">
        <ele>80</ele>
        <time>2021-02-27T11:58:56.000Z</time>
      </trkpt>
      <trkpt lat="47.36066" lon="-1.43859">
        <ele>80</ele>
        <time>2021-02-27T11:58:58.000Z</time>
      </trkpt>
      <trkpt lat="47.36068" lon="-1.43842">
        <ele>80</ele>
        <time>2021-02-27T11:59:00.000Z</time>
      </trkpt>
      <trkpt lat="47.3607" lon="-1.43822">
        <ele>79</ele>
        <time>2021-02-27T11:59:02.000Z</time>
      </trkpt>
      <trkpt lat="47.36073" lon="-1.43802">
        <ele>78</ele>
        <time>2021-02-27T11:59:04.000Z</time>
      </trkpt>
      <trkpt lat="47.36076" lon="-1.43782">
        <ele>77</ele>
        <time>2021-02-27T11:59:06.000Z</time>
      </trkpt>
      <trkpt lat="47.3608" lon="-1.43763">
        <ele>77</ele>
        <time>2021-02-27T11:59:08.000Z</time>
      </trkpt>
      <trkpt lat="47.36085" lon="-1.43744">
        <ele>77</ele>
        <time>2021-02-27T11:59:10.000Z</time>
      </trkpt>
      <trkpt lat="47.36091" lon="-1.43726">
        <ele>76</ele>
        <time>2021-02-27T11:59:12.000Z</time>
      </trkpt>
      <trkpt lat="47.36099" lon="-1.43708">
        <ele>75</ele>
        <time>2021-02-27T11:59:14.000Z</time>
      </trkpt>
      <trkpt lat="47.36108" lon="-1.43692">
        <ele>74</ele>
        <time>2021-02-27T11:59:16.000Z</time>
      </trkpt>
      <trkpt lat="47.36117" lon="-1.43676">
        <ele>74</ele>
        <time>2021-02-27T11:59:18.000Z</time>
      </trkpt>
      <trkpt lat="47.36126" lon="-1.43661">
        <ele>74</ele>
        <time>2021-02-27T11:59:20.000Z</time>
      </trkpt>
      <trkpt lat="47.36134" lon="-1.43646">
        <ele>74</ele>
        <time>2021-02-27T11:59:22.000Z</time>
      </trkpt>
      <trkpt lat="47.36141" lon="-1.43633">
        <ele>74</ele>
        <time>2021-02-27T11:59:24.000Z</time>
      </trkpt>
      <trkpt lat="47.36148" lon="-1.43618">
        <ele>74</ele>
        <time>2021-02-27T11:59:26.000Z</time>
      </trkpt>
      <trkpt lat="47.36155" lon="-1.43604">
        <ele>74</ele>
        <time>2021-02-27T11:59:28.000Z</time>
      </trkpt>
      <trkpt lat="47.36161" lon="-1.4359">
        <ele>75</ele>
        <time>2021-02-27T11:59:30.000Z</time>
      </trkpt>
      <trkpt lat="47.36167" lon="-1.43577">
        <ele>75</ele>
        <time>2021-02-27T11:59:32.000Z</time>
      </trkpt>
      <trkpt lat="47.36174" lon="-1.43564">
        <ele>75</ele>
        <time>2021-02-27T11:59:34.000Z</time>
      </trkpt>
      <trkpt lat="47.36179" lon="-1.43551">
        <ele>75</ele>
        <time>2021-02-27T11:59:36.000Z</time>
      </trkpt>
      <trkpt lat="47.36186" lon="-1.43538">
        <ele>75</ele>
        <time>2021-02-27T11:59:38.000Z</time>
      </trkpt>
      <trkpt lat="47.36192" lon="-1.43527">
        <ele>75</ele>
        <time>2021-02-27T11:59:40.000Z</time>
      </trkpt>
      <trkpt lat="47.36199" lon="-1.43516">
        <ele>76</ele>
        <time>2021-02-27T11:59:42.000Z</time>
      </trkpt>
      <trkpt lat="47.36205" lon="-1.43506">
        <ele>76</ele>
        <time>2021-02-27T11:59:44.000Z</time>
      </trkpt>
      <trkpt lat="47.36212" lon="-1.43497">
        <ele>76</ele>
        <time>2021-02-27T11:59:46.000Z</time>
      </trkpt>
      <trkpt lat="47.36222" lon="-1.43485">
        <ele>77</ele>
        <time>2021-02-27T11:59:49.000Z</time>
      </trkpt>
      <trkpt lat="47.36231" lon="-1.43474">
        <ele>77</ele>
        <time>2021-02-27T11:59:52.000Z</time>
      </trkpt>
      <trkpt lat="47.36241" lon="-1.43463">
        <ele>77</ele>
        <time>2021-02-27T11:59:55.000Z</time>
      </trkpt>
      <trkpt lat="47.36251" lon="-1.43452">
        <ele>78</ele>
        <time>2021-02-27T11:59:58.000Z</time>
      </trkpt>
      <trkpt lat="47.36261" lon="-1.43442">
        <ele>79</ele>
        <time>2021-02-27T12:00:01.000Z</time>
      </trkpt>
      <trkpt lat="47.36271" lon="-1.43431">
        <ele>80</ele>
        <time>2021-02-27T12:00:04.000Z</time>
      </trkpt>
      <trkpt lat="47.36281" lon="-1.43421">
        <ele>80</ele>
        <time>2021-02-27T12:00:07.000Z</time>
      </trkpt>
      <trkpt lat="47.36291" lon="-1.43411">
        <ele>81</ele>
        <time>2021-02-27T12:00:10.000Z</time>
      </trkpt>
      <trkpt lat="47.363" lon="-1.43402">
        <ele>82</ele>
        <time>2021-02-27T12:00:13.000Z</time>
      </trkpt>
      <trkpt lat="47.36309" lon="-1.43393">
        <ele>82</ele>
        <time>2021-02-27T12:00:16.000Z</time>
      </trkpt>
      <trkpt lat="47.36317" lon="-1.43384">
        <ele>83</ele>
        <time>2021-02-27T12:00:19.000Z</time>
      </trkpt>
      <trkpt lat="47.36326" lon="-1.43376">
        <ele>83</ele>
        <time>2021-02-27T12:00:22.000Z</time>
      </trkpt>
      <trkpt lat="47.36334" lon="-1.43367">
        <ele>84</ele>
        <time>2021-02-27T12:00:25.000Z</time>
      </trkpt>
      <trkpt lat="47.36342" lon="-1.43359">
        <ele>85</ele>
        <time>2021-02-27T12:00:28.000Z</time>
      </trkpt>
      <trkpt lat="47.36351" lon="-1.43351">
        <ele>85</ele>
        <time>2021-02-27T12:00:31.000Z</time>
      </trkpt>
      <trkpt lat="47.36359" lon="-1.43342">
        <ele>86</ele>
        <time>2021-02-27T12:00:34.000Z</time>
      </trkpt>
      <trkpt lat="47.36367" lon="-1.43334">
        <ele>87</ele>
        <time>2021-02-27T12:00:37.000Z</time>
      </trkpt>
      <trkpt lat="47.36377" lon="-1.43324">
        <ele>88</ele>
        <time>2021-02-27T12:00:41.000Z</time>
      </trkpt>
      <trkpt lat="47.36386" lon="-1.43314">
        <ele>89</ele>
        <time>2021-02-27T12:00:45.000Z</time>
      </trkpt>
      <trkpt lat="47.36394" lon="-1.43307">
        <ele>89</ele>
        <time>2021-02-27T12:00:48.000Z</time>
      </trkpt>
      <trkpt lat="47.36403" lon="-1.43297">
        <ele>90</ele>
        <time>2021-02-27T12:00:52.000Z</time>
      </trkpt>
      <trkpt lat="47.36413" lon="-1.43287">
        <ele>91</ele>
        <time>2021-02-27T12:00:56.000Z</time>
      </trkpt>
      <trkpt lat="47.3642" lon="-1.43279">
        <ele>91</ele>
        <time>2021-02-27T12:00:59.000Z</time>
      </trkpt>
      <trkpt lat="47.36427" lon="-1.4327">
        <ele>92</ele>
        <time>2021-02-27T12:01:02.000Z</time>
      </trkpt>
      <trkpt lat="47.36434" lon="-1.4326">
        <ele>92</ele>
        <time>2021-02-27T12:01:05.000Z</time>
      </trkpt>
      <trkpt lat="47.3644" lon="-1.4325">
        <ele>93</ele>
        <time>2021-02-27T12:01:08.000Z</time>
      </trkpt>
      <trkpt lat="47.36448" lon="-1.43237">
        <ele>94</ele>
        <time>2021-02-27T12:01:12.000Z</time>
      </trkpt>
      <trkpt lat="47.36454" lon="-1.43226">
        <ele>94</ele>
        <time>2021-02-27T12:01:15.000Z</time>
      </trkpt>
      <trkpt lat="47.36459" lon="-1.43215">
        <ele>95</ele>
        <time>2021-02-27T12:01:18.000Z</time>
      </trkpt>
      <trkpt lat="47.36466" lon="-1.432">
        <ele>95</ele>
        <time>2021-02-27T12:01:22.000Z</time>
      </trkpt>
      <trkpt lat="47.36471" lon="-1.43189">
        <ele>95</ele>
        <time>2021-02-27T12:01:25.000Z</time>
      </trkpt>
      <trkpt lat="47.36476" lon="-1.43177">
        <ele>96</ele>
        <time>2021-02-27T12:01:28.000Z</time>
      </trkpt>
      <trkpt lat="47.36482" lon="-1.43163">
        <ele>96</ele>
        <time>2021-02-27T12:01:31.000Z</time>
      </trkpt>
      <trkpt lat="47.36489" lon="-1.43149">
        <ele>96</ele>
        <time>2021-02-27T12:01:34.000Z</time>
      </trkpt>
      <trkpt lat="47.36496" lon="-1.43135">
        <ele>96</ele>
        <time>2021-02-27T12:01:37.000Z</time>
      </trkpt>
      <trkpt lat="47.36501" lon="-1.4312">
        <ele>97</ele>
        <time>2021-02-27T12:01:40.000Z</time>
      </trkpt>
      <trkpt lat="47.36507" lon="-1.43104">
        <ele>96</ele>
        <time>2021-02-27T12:01:43.000Z</time>
      </trkpt>
      <trkpt lat="47.36512" lon="-1.43087">
        <ele>97</ele>
        <time>2021-02-27T12:01:46.000Z</time>
      </trkpt>
      <trkpt lat="47.36515" lon="-1.43069">
        <ele>97</ele>
        <time>2021-02-27T12:01:49.000Z</time>
      </trkpt>
      <trkpt lat="47.36517" lon="-1.43052">
        <ele>97</ele>
        <time>2021-02-27T12:01:52.000Z</time>
      </trkpt>
      <trkpt lat="47.36519" lon="-1.43034">
        <ele>97</ele>
        <time>2021-02-27T12:01:55.000Z</time>
      </trkpt>
      <trkpt lat="47.36521" lon="-1.43016">
        <ele>97</ele>
        <time>2021-02-27T12:01:58.000Z</time>
      </trkpt>
      <trkpt lat="47.36525" lon="-1.42999">
        <ele>98</ele>
        <time>2021-02-27T12:02:01.000Z</time>
      </trkpt>
      <trkpt lat="47.36533" lon="-1.42985">
        <ele>98</ele>
        <time>2021-02-27T12:02:04.000Z</time>
      </trkpt>
      <trkpt lat="47.36544" lon="-1.4298">
        <ele>98</ele>
        <time>2021-02-27T12:02:07.000Z</time>
      </trkpt>
      <trkpt lat="47.36557" lon="-1.4298">
        <ele>98</ele>
        <time>2021-02-27T12:02:10.000Z</time>
      </trkpt>
      <trkpt lat="47.36566" lon="-1.42979">
        <ele>98</ele>
        <time>2021-02-27T12:02:12.000Z</time>
      </trkpt>
      <trkpt lat="47.36576" lon="-1.42978">
        <ele>98</ele>
        <time>2021-02-27T12:02:14.000Z</time>
      </trkpt>
      <trkpt lat="47.36585" lon="-1.42977">
        <ele>98</ele>
        <time>2021-02-27T12:02:16.000Z</time>
      </trkpt>
      <trkpt lat="47.36595" lon="-1.42976">
        <ele>99</ele>
        <time>2021-02-27T12:02:18.000Z</time>
      </trkpt>
      <trkpt lat="47.36605" lon="-1.42975">
        <ele>98</ele>
        <time>2021-02-27T12:02:20.000Z</time>
      </trkpt>
      <trkpt lat="47.36615" lon="-1.42975">
        <ele>98</ele>
        <time>2021-02-27T12:02:22.000Z</time>
      </trkpt>
      <trkpt lat="47.36626" lon="-1.42975">
        <ele>98</ele>
        <time>2021-02-27T12:02:24.000Z</time>
      </trkpt>
      <trkpt lat="47.36636" lon="-1.42974">
        <ele>98</ele>
        <time>2021-02-27T12:02:26.000Z</time>
      </trkpt>
      <trkpt lat="47.36646" lon="-1.42973">
        <ele>98</ele>
        <time>2021-02-27T12:02:28.000Z</time>
      </trkpt>
      <trkpt lat="47.36656" lon="-1.42973">
        <ele>99</ele>
        <time>2021-02-27T12:02:30.000Z</time>
      </trkpt>
      <trkpt lat="47.36666" lon="-1.42973">
        <ele>99</ele>
        <time>2021-02-27T12:02:32.000Z</time>
      </trkpt>
      <trkpt lat="47.36676" lon="-1.42973">
        <ele>99</ele>
        <time>2021-02-27T12:02:34.000Z</time>
      </trkpt>
      <trkpt lat="47.36689" lon="-1.4297">
        <ele>99</ele>
        <time>2021-02-27T12:02:37.000Z</time>
      </trkpt>
      <trkpt lat="47.36695" lon="-1.42952">
        <ele>100</ele>
        <time>2021-02-27T12:02:40.000Z</time>
      </trkpt>
      <trkpt lat="47.36698" lon="-1.42938">
        <ele>100</ele>
        <time>2021-02-27T12:02:42.000Z</time>
      </trkpt>
      <trkpt lat="47.36701" lon="-1.42924">
        <ele>100</ele>
        <time>2021-02-27T12:02:44.000Z</time>
      </trkpt>
      <trkpt lat="47.36706" lon="-1.4291">
        <ele>99</ele>
        <time>2021-02-27T12:02:46.000Z</time>
      </trkpt>
      <trkpt lat="47.3671" lon="-1.42896">
        <ele>100</ele>
        <time>2021-02-27T12:02:48.000Z</time>
      </trkpt>
      <trkpt lat="47.36714" lon="-1.42883">
        <ele>100</ele>
        <time>2021-02-27T12:02:50.000Z</time>
      </trkpt>
      <trkpt lat="47.36718" lon="-1.42869">
        <ele>100</ele>
        <time>2021-02-27T12:02:52.000Z</time>
      </trkpt>
      <trkpt lat="47.36721" lon="-1.42855">
        <ele>100</ele>
        <time>2021-02-27T12:02:54.000Z</time>
      </trkpt>
      <trkpt lat="47.36725" lon="-1.42841">
        <ele>100</ele>
        <time>2021-02-27T12:02:56.000Z</time>
      </trkpt>
      <trkpt lat="47.36729" lon="-1.42826">
        <ele>100</ele>
        <time>2021-02-27T12:02:58.000Z</time>
      </trkpt>
      <trkpt lat="47.36731" lon="-1.42812">
        <ele>100</ele>
        <time>2021-02-27T12:03:00.000Z</time>
      </trkpt>
      <trkpt lat="47.36733" lon="-1.42797">
        <ele>100</ele>
        <time>2021-02-27T12:03:02.000Z</time>
      </trkpt>
      <trkpt lat="47.36735" lon="-1.42783">
        <ele>101</ele>
        <time>2021-02-27T12:03:04.000Z</time>
      </trkpt>
      <trkpt lat="47.36737" lon="-1.42768">
        <ele>101</ele>
        <time>2021-02-27T12:03:06.000Z</time>
      </trkpt>
      <trkpt lat="47.36738" lon="-1.42753">
        <ele>101</ele>
        <time>2021-02-27T12:03:08.000Z</time>
      </trkpt>
      <trkpt lat="47.36739" lon="-1.42739">
        <ele>101</ele>
        <time>2021-02-27T12:03:10.000Z</time>
      </trkpt>
      <trkpt lat="47.36739" lon="-1.42724">
        <ele>100</ele>
        <time>2021-02-27T12:03:12.000Z</time>
      </trkpt>
      <trkpt lat="47.36739" lon="-1.42708">
        <ele>101</ele>
        <time>2021-02-27T12:03:14.000Z</time>
      </trkpt>
      <trkpt lat="47.36739" lon="-1.42693">
        <ele>100</ele>
        <time>2021-02-27T12:03:16.000Z</time>
      </trkpt>
      <trkpt lat="47.36738" lon="-1.42679">
        <ele>100</ele>
        <time>2021-02-27T12:03:18.000Z</time>
      </trkpt>
      <trkpt lat="47.36737" lon="-1.42664">
        <ele>100</ele>
        <time>2021-02-27T12:03:20.000Z</time>
      </trkpt>
      <trkpt lat="47.36735" lon="-1.4265">
        <ele>100</ele>
        <time>2021-02-27T12:03:22.000Z</time>
      </trkpt>
      <trkpt lat="47.36734" lon="-1.42635">
        <ele>100</ele>
        <time>2021-02-27T12:03:24.000Z</time>
      </trkpt>
      <trkpt lat="47.36731" lon="-1.42621">
        <ele>100</ele>
        <time>2021-02-27T12:03:26.000Z</time>
      </trkpt>
      <trkpt lat="47.36729" lon="-1.42607">
        <ele>101</ele>
        <time>2021-02-27T12:03:28.000Z</time>
      </trkpt>
      <trkpt lat="47.36726" lon="-1.42592">
        <ele>101</ele>
        <time>2021-02-27T12:03:30.000Z</time>
      </trkpt>
      <trkpt lat="47.36724" lon="-1.42578">
        <ele>100</ele>
        <time>2021-02-27T12:03:32.000Z</time>
      </trkpt>
      <trkpt lat="47.36722" lon="-1.42564">
        <ele>100</ele>
        <time>2021-02-27T12:03:34.000Z</time>
      </trkpt>
      <trkpt lat="47.3672" lon="-1.42549">
        <ele>101</ele>
        <time>2021-02-27T12:03:36.000Z</time>
      </trkpt>
      <trkpt lat="47.36717" lon="-1.42535">
        <ele>101</ele>
        <time>2021-02-27T12:03:38.000Z</time>
      </trkpt>
      <trkpt lat="47.36715" lon="-1.4252">
        <ele>101</ele>
        <time>2021-02-27T12:03:40.000Z</time>
      </trkpt>
      <trkpt lat="47.36713" lon="-1.42507">
        <ele>101</ele>
        <time>2021-02-27T12:03:42.000Z</time>
      </trkpt>
      <trkpt lat="47.36711" lon="-1.42493">
        <ele>101</ele>
        <time>2021-02-27T12:03:44.000Z</time>
      </trkpt>
      <trkpt lat="47.36709" lon="-1.42478">
        <ele>101</ele>
        <time>2021-02-27T12:03:46.000Z</time>
      </trkpt>
      <trkpt lat="47.36706" lon="-1.42464">
        <ele>101</ele>
        <time>2021-02-27T12:03:48.000Z</time>
      </trkpt>
      <trkpt lat="47.36704" lon="-1.42449">
        <ele>102</ele>
        <time>2021-02-27T12:03:50.000Z</time>
      </trkpt>
      <trkpt lat="47.36702" lon="-1.42435">
        <ele>101</ele>
        <time>2021-02-27T12:03:52.000Z</time>
      </trkpt>
      <trkpt lat="47.36699" lon="-1.42421">
        <ele>101</ele>
        <time>2021-02-27T12:03:54.000Z</time>
      </trkpt>
      <trkpt lat="47.36697" lon="-1.42406">
        <ele>101</ele>
        <time>2021-02-27T12:03:56.000Z</time>
      </trkpt>
      <trkpt lat="47.36695" lon="-1.42391">
        <ele>101</ele>
        <time>2021-02-27T12:03:58.000Z</time>
      </trkpt>
      <trkpt lat="47.36692" lon="-1.42377">
        <ele>101</ele>
        <time>2021-02-27T12:04:00.000Z</time>
      </trkpt>
      <trkpt lat="47.3669" lon="-1.42362">
        <ele>102</ele>
        <time>2021-02-27T12:04:02.000Z</time>
      </trkpt>
      <trkpt lat="47.36688" lon="-1.42349">
        <ele>102</ele>
        <time>2021-02-27T12:04:04.000Z</time>
      </trkpt>
      <trkpt lat="47.36685" lon="-1.42335">
        <ele>102</ele>
        <time>2021-02-27T12:04:06.000Z</time>
      </trkpt>
      <trkpt lat="47.36684" lon="-1.4232">
        <ele>102</ele>
        <time>2021-02-27T12:04:08.000Z</time>
      </trkpt>
      <trkpt lat="47.36682" lon="-1.42306">
        <ele>102</ele>
        <time>2021-02-27T12:04:10.000Z</time>
      </trkpt>
      <trkpt lat="47.3668" lon="-1.42286">
        <ele>103</ele>
        <time>2021-02-27T12:04:13.000Z</time>
      </trkpt>
      <trkpt lat="47.36678" lon="-1.42273">
        <ele>103</ele>
        <time>2021-02-27T12:04:15.000Z</time>
      </trkpt>
      <trkpt lat="47.36677" lon="-1.42259">
        <ele>103</ele>
        <time>2021-02-27T12:04:17.000Z</time>
      </trkpt>
      <trkpt lat="47.36675" lon="-1.42245">
        <ele>103</ele>
        <time>2021-02-27T12:04:19.000Z</time>
      </trkpt>
      <trkpt lat="47.36674" lon="-1.4223">
        <ele>103</ele>
        <time>2021-02-27T12:04:21.000Z</time>
      </trkpt>
      <trkpt lat="47.36673" lon="-1.42215">
        <ele>103</ele>
        <time>2021-02-27T12:04:23.000Z</time>
      </trkpt>
      <trkpt lat="47.36671" lon="-1.42201">
        <ele>103</ele>
        <time>2021-02-27T12:04:25.000Z</time>
      </trkpt>
      <trkpt lat="47.3667" lon="-1.42188">
        <ele>103</ele>
        <time>2021-02-27T12:04:27.000Z</time>
      </trkpt>
      <trkpt lat="47.36669" lon="-1.42174">
        <ele>103</ele>
        <time>2021-02-27T12:04:29.000Z</time>
      </trkpt>
      <trkpt lat="47.36667" lon="-1.4216">
        <ele>103</ele>
        <time>2021-02-27T12:04:31.000Z</time>
      </trkpt>
      <trkpt lat="47.36666" lon="-1.42146">
        <ele>104</ele>
        <time>2021-02-27T12:04:33.000Z</time>
      </trkpt>
      <trkpt lat="47.36665" lon="-1.42132">
        <ele>104</ele>
        <time>2021-02-27T12:04:35.000Z</time>
      </trkpt>
      <trkpt lat="47.36664" lon="-1.42118">
        <ele>104</ele>
        <time>2021-02-27T12:04:37.000Z</time>
      </trkpt>
      <trkpt lat="47.36662" lon="-1.42104">
        <ele>105</ele>
        <time>2021-02-27T12:04:39.000Z</time>
      </trkpt>
      <trkpt lat="47.36661" lon="-1.4209">
        <ele>105</ele>
        <time>2021-02-27T12:04:41.000Z</time>
      </trkpt>
      <trkpt lat="47.3666" lon="-1.42076">
        <ele>105</ele>
        <time>2021-02-27T12:04:43.000Z</time>
      </trkpt>
      <trkpt lat="47.36659" lon="-1.42062">
        <ele>105</ele>
        <time>2021-02-27T12:04:45.000Z</time>
      </trkpt>
      <trkpt lat="47.36658" lon="-1.42048">
        <ele>106</ele>
        <time>2021-02-27T12:04:47.000Z</time>
      </trkpt>
      <trkpt lat="47.36657" lon="-1.42034">
        <ele>106</ele>
        <time>2021-02-27T12:04:49.000Z</time>
      </trkpt>
      <trkpt lat="47.36656" lon="-1.42021">
        <ele>106</ele>
        <time>2021-02-27T12:04:51.000Z</time>
      </trkpt>
      <trkpt lat="47.36654" lon="-1.42007">
        <ele>107</ele>
        <time>2021-02-27T12:04:53.000Z</time>
      </trkpt>
      <trkpt lat="47.36653" lon="-1.41993">
        <ele>107</ele>
        <time>2021-02-27T12:04:55.000Z</time>
      </trkpt>
      <trkpt lat="47.36652" lon="-1.41979">
        <ele>107</ele>
        <time>2021-02-27T12:04:57.000Z</time>
      </trkpt>
      <trkpt lat="47.36651" lon="-1.41965">
        <ele>107</ele>
        <time>2021-02-27T12:04:59.000Z</time>
      </trkpt>
      <trkpt lat="47.3665" lon="-1.41951">
        <ele>107</ele>
        <time>2021-02-27T12:05:01.000Z</time>
      </trkpt>
      <trkpt lat="47.36649" lon="-1.41938">
        <ele>108</ele>
        <time>2021-02-27T12:05:03.000Z</time>
      </trkpt>
      <trkpt lat="47.36648" lon="-1.41924">
        <ele>108</ele>
        <time>2021-02-27T12:05:05.000Z</time>
      </trkpt>
      <trkpt lat="47.36647" lon="-1.4191">
        <ele>108</ele>
        <time>2021-02-27T12:05:07.000Z</time>
      </trkpt>
      <trkpt lat="47.36645" lon="-1.41897">
        <ele>108</ele>
        <time>2021-02-27T12:05:09.000Z</time>
      </trkpt>
      <trkpt lat="47.36644" lon="-1.41883">
        <ele>108</ele>
        <time>2021-02-27T12:05:11.000Z</time>
      </trkpt>
      <trkpt lat="47.36642" lon="-1.41869">
        <ele>108</ele>
        <time>2021-02-27T12:05:13.000Z</time>
      </trkpt>
      <trkpt lat="47.36641" lon="-1.41855">
        <ele>108</ele>
        <time>2021-02-27T12:05:15.000Z</time>
      </trkpt>
      <trkpt lat="47.3664" lon="-1.41841">
        <ele>108</ele>
        <time>2021-02-27T12:05:17.000Z</time>
      </trkpt>
      <trkpt lat="47.36638" lon="-1.41822">
        <ele>109</ele>
        <time>2021-02-27T12:05:20.000Z</time>
      </trkpt>
      <trkpt lat="47.36637" lon="-1.41808">
        <ele>109</ele>
        <time>2021-02-27T12:05:22.000Z</time>
      </trkpt>
      <trkpt lat="47.36635" lon="-1.41794">
        <ele>110</ele>
        <time>2021-02-27T12:05:24.000Z</time>
      </trkpt>
      <trkpt lat="47.36634" lon="-1.41781">
        <ele>110</ele>
        <time>2021-02-27T12:05:26.000Z</time>
      </trkpt>
      <trkpt lat="47.36633" lon="-1.41767">
        <ele>110</ele>
        <time>2021-02-27T12:05:28.000Z</time>
      </trkpt>
      <trkpt lat="47.36632" lon="-1.41753">
        <ele>110</ele>
        <time>2021-02-27T12:05:30.000Z</time>
      </trkpt>
      <trkpt lat="47.36631" lon="-1.4174">
        <ele>111</ele>
        <time>2021-02-27T12:05:32.000Z</time>
      </trkpt>
      <trkpt lat="47.3663" lon="-1.41726">
        <ele>111</ele>
        <time>2021-02-27T12:05:34.000Z</time>
      </trkpt>
      <trkpt lat="47.36628" lon="-1.41713">
        <ele>111</ele>
        <time>2021-02-27T12:05:36.000Z</time>
      </trkpt>
      <trkpt lat="47.36628" lon="-1.41699">
        <ele>111</ele>
        <time>2021-02-27T12:05:38.000Z</time>
      </trkpt>
      <trkpt lat="47.36627" lon="-1.41685">
        <ele>112</ele>
        <time>2021-02-27T12:05:40.000Z</time>
      </trkpt>
      <trkpt lat="47.36626" lon="-1.41672">
        <ele>112</ele>
        <time>2021-02-27T12:05:42.000Z</time>
      </trkpt>
      <trkpt lat="47.36626" lon="-1.41658">
        <ele>112</ele>
        <time>2021-02-27T12:05:44.000Z</time>
      </trkpt>
      <trkpt lat="47.36626" lon="-1.41643">
        <ele>113</ele>
        <time>2021-02-27T12:05:46.000Z</time>
      </trkpt>
      <trkpt lat="47.36626" lon="-1.4163">
        <ele>112</ele>
        <time>2021-02-27T12:05:48.000Z</time>
      </trkpt>
      <trkpt lat="47.36627" lon="-1.4161">
        <ele>113</ele>
        <time>2021-02-27T12:05:51.000Z</time>
      </trkpt>
      <trkpt lat="47.36627" lon="-1.41596">
        <ele>113</ele>
        <time>2021-02-27T12:05:53.000Z</time>
      </trkpt>
      <trkpt lat="47.36629" lon="-1.41577">
        <ele>113</ele>
        <time>2021-02-27T12:05:56.000Z</time>
      </trkpt>
      <trkpt lat="47.3663" lon="-1.41563">
        <ele>113</ele>
        <time>2021-02-27T12:05:58.000Z</time>
      </trkpt>
      <trkpt lat="47.36631" lon="-1.4155">
        <ele>113</ele>
        <time>2021-02-27T12:06:00.000Z</time>
      </trkpt>
      <trkpt lat="47.36633" lon="-1.41536">
        <ele>113</ele>
        <time>2021-02-27T12:06:02.000Z</time>
      </trkpt>
      <trkpt lat="47.36638" lon="-1.41518">
        <ele>114</ele>
        <time>2021-02-27T12:06:05.000Z</time>
      </trkpt>
      <trkpt lat="47.36641" lon="-1.41505">
        <ele>114</ele>
        <time>2021-02-27T12:06:07.000Z</time>
      </trkpt>
      <trkpt lat="47.36644" lon="-1.41491">
        <ele>114</ele>
        <time>2021-02-27T12:06:09.000Z</time>
      </trkpt>
      <trkpt lat="47.36647" lon="-1.41478">
        <ele>113</ele>
        <time>2021-02-27T12:06:11.000Z</time>
      </trkpt>
      <trkpt lat="47.36651" lon="-1.41466">
        <ele>113</ele>
        <time>2021-02-27T12:06:13.000Z</time>
      </trkpt>
      <trkpt lat="47.36654" lon="-1.41453">
        <ele>113</ele>
        <time>2021-02-27T12:06:15.000Z</time>
      </trkpt>
      <trkpt lat="47.36658" lon="-1.41439">
        <ele>113</ele>
        <time>2021-02-27T12:06:17.000Z</time>
      </trkpt>
      <trkpt lat="47.36662" lon="-1.41426">
        <ele>113</ele>
        <time>2021-02-27T12:06:19.000Z</time>
      </trkpt>
      <trkpt lat="47.36667" lon="-1.41413">
        <ele>113</ele>
        <time>2021-02-27T12:06:21.000Z</time>
      </trkpt>
      <trkpt lat="47.36671" lon="-1.41399">
        <ele>112</ele>
        <time>2021-02-27T12:06:23.000Z</time>
      </trkpt>
      <trkpt lat="47.36676" lon="-1.41387">
        <ele>112</ele>
        <time>2021-02-27T12:06:25.000Z</time>
      </trkpt>
      <trkpt lat="47.3668" lon="-1.41374">
        <ele>111</ele>
        <time>2021-02-27T12:06:27.000Z</time>
      </trkpt>
      <trkpt lat="47.36685" lon="-1.41361">
        <ele>111</ele>
        <time>2021-02-27T12:06:29.000Z</time>
      </trkpt>
      <trkpt lat="47.3669" lon="-1.41348">
        <ele>110</ele>
        <time>2021-02-27T12:06:31.000Z</time>
      </trkpt>
      <trkpt lat="47.36695" lon="-1.41335">
        <ele>110</ele>
        <time>2021-02-27T12:06:33.000Z</time>
      </trkpt>
      <trkpt lat="47.367" lon="-1.41321">
        <ele>110</ele>
        <time>2021-02-27T12:06:35.000Z</time>
      </trkpt>
      <trkpt lat="47.36705" lon="-1.41308">
        <ele>110</ele>
        <time>2021-02-27T12:06:37.000Z</time>
      </trkpt>
      <trkpt lat="47.36711" lon="-1.41295">
        <ele>110</ele>
        <time>2021-02-27T12:06:39.000Z</time>
      </trkpt>
      <trkpt lat="47.36716" lon="-1.41282">
        <ele>110</ele>
        <time>2021-02-27T12:06:41.000Z</time>
      </trkpt>
      <trkpt lat="47.3672" lon="-1.41268">
        <ele>110</ele>
        <time>2021-02-27T12:06:43.000Z</time>
      </trkpt>
      <trkpt lat="47.36725" lon="-1.41254">
        <ele>110</ele>
        <time>2021-02-27T12:06:45.000Z</time>
      </trkpt>
      <trkpt lat="47.36731" lon="-1.41239">
        <ele>109</ele>
        <time>2021-02-27T12:06:47.000Z</time>
      </trkpt>
      <trkpt lat="47.36736" lon="-1.41225">
        <ele>109</ele>
        <time>2021-02-27T12:06:49.000Z</time>
      </trkpt>
      <trkpt lat="47.3674" lon="-1.41209">
        <ele>108</ele>
        <time>2021-02-27T12:06:51.000Z</time>
      </trkpt>
      <trkpt lat="47.36742" lon="-1.41193">
        <ele>108</ele>
        <time>2021-02-27T12:06:53.000Z</time>
      </trkpt>
      <trkpt lat="47.36742" lon="-1.41175">
        <ele>108</ele>
        <time>2021-02-27T12:06:55.000Z</time>
      </trkpt>
      <trkpt lat="47.36741" lon="-1.41158">
        <ele>108</ele>
        <time>2021-02-27T12:06:57.000Z</time>
      </trkpt>
      <trkpt lat="47.36739" lon="-1.41142">
        <ele>108</ele>
        <time>2021-02-27T12:06:59.000Z</time>
      </trkpt>
      <trkpt lat="47.36736" lon="-1.41127">
        <ele>108</ele>
        <time>2021-02-27T12:07:01.000Z</time>
      </trkpt>
      <trkpt lat="47.36732" lon="-1.41111">
        <ele>107</ele>
        <time>2021-02-27T12:07:03.000Z</time>
      </trkpt>
      <trkpt lat="47.36728" lon="-1.41095">
        <ele>107</ele>
        <time>2021-02-27T12:07:05.000Z</time>
      </trkpt>
      <trkpt lat="47.36724" lon="-1.4108">
        <ele>107</ele>
        <time>2021-02-27T12:07:07.000Z</time>
      </trkpt>
      <trkpt lat="47.3672" lon="-1.41065">
        <ele>107</ele>
        <time>2021-02-27T12:07:09.000Z</time>
      </trkpt>
      <trkpt lat="47.36715" lon="-1.41049">
        <ele>107</ele>
        <time>2021-02-27T12:07:11.000Z</time>
      </trkpt>
      <trkpt lat="47.36711" lon="-1.41032">
        <ele>106</ele>
        <time>2021-02-27T12:07:13.000Z</time>
      </trkpt>
      <trkpt lat="47.36707" lon="-1.41016">
        <ele>107</ele>
        <time>2021-02-27T12:07:15.000Z</time>
      </trkpt>
      <trkpt lat="47.36703" lon="-1.41001">
        <ele>107</ele>
        <time>2021-02-27T12:07:17.000Z</time>
      </trkpt>
      <trkpt lat="47.36699" lon="-1.40986">
        <ele>107</ele>
        <time>2021-02-27T12:07:19.000Z</time>
      </trkpt>
      <trkpt lat="47.36696" lon="-1.40972">
        <ele>107</ele>
        <time>2021-02-27T12:07:21.000Z</time>
      </trkpt>
      <trkpt lat="47.36694" lon="-1.40957">
        <ele>107</ele>
        <time>2021-02-27T12:07:23.000Z</time>
      </trkpt>
      <trkpt lat="47.36692" lon="-1.40943">
        <ele>108</ele>
        <time>2021-02-27T12:07:25.000Z</time>
      </trkpt>
      <trkpt lat="47.36691" lon="-1.40929">
        <ele>108</ele>
        <time>2021-02-27T12:07:27.000Z</time>
      </trkpt>
      <trkpt lat="47.3669" lon="-1.40916">
        <ele>109</ele>
        <time>2021-02-27T12:07:29.000Z</time>
      </trkpt>
      <trkpt lat="47.3669" lon="-1.40902">
        <ele>109</ele>
        <time>2021-02-27T12:07:31.000Z</time>
      </trkpt>
      <trkpt lat="47.3669" lon="-1.40888">
        <ele>109</ele>
        <time>2021-02-27T12:07:33.000Z</time>
      </trkpt>
      <trkpt lat="47.36691" lon="-1.40873">
        <ele>109</ele>
        <time>2021-02-27T12:07:35.000Z</time>
      </trkpt>
      <trkpt lat="47.36691" lon="-1.40859">
        <ele>109</ele>
        <time>2021-02-27T12:07:37.000Z</time>
      </trkpt>
      <trkpt lat="47.36691" lon="-1.40845">
        <ele>110</ele>
        <time>2021-02-27T12:07:39.000Z</time>
      </trkpt>
      <trkpt lat="47.36692" lon="-1.40832">
        <ele>110</ele>
        <time>2021-02-27T12:07:41.000Z</time>
      </trkpt>
      <trkpt lat="47.36693" lon="-1.40817">
        <ele>110</ele>
        <time>2021-02-27T12:07:43.000Z</time>
      </trkpt>
      <trkpt lat="47.36692" lon="-1.40803">
        <ele>110</ele>
        <time>2021-02-27T12:07:45.000Z</time>
      </trkpt>
      <trkpt lat="47.36692" lon="-1.40789">
        <ele>110</ele>
        <time>2021-02-27T12:07:47.000Z</time>
      </trkpt>
      <trkpt lat="47.36694" lon="-1.40769">
        <ele>109</ele>
        <time>2021-02-27T12:07:50.000Z</time>
      </trkpt>
      <trkpt lat="47.36694" lon="-1.40754">
        <ele>109</ele>
        <time>2021-02-27T12:07:52.000Z</time>
      </trkpt>
      <trkpt lat="47.36694" lon="-1.40741">
        <ele>110</ele>
        <time>2021-02-27T12:07:54.000Z</time>
      </trkpt>
      <trkpt lat="47.36694" lon="-1.40726">
        <ele>109</ele>
        <time>2021-02-27T12:07:56.000Z</time>
      </trkpt>
      <trkpt lat="47.36694" lon="-1.40711">
        <ele>110</ele>
        <time>2021-02-27T12:07:58.000Z</time>
      </trkpt>
      <trkpt lat="47.36694" lon="-1.40696">
        <ele>110</ele>
        <time>2021-02-27T12:08:00.000Z</time>
      </trkpt>
      <trkpt lat="47.36695" lon="-1.40682">
        <ele>109</ele>
        <time>2021-02-27T12:08:02.000Z</time>
      </trkpt>
      <trkpt lat="47.36696" lon="-1.40666">
        <ele>108</ele>
        <time>2021-02-27T12:08:04.000Z</time>
      </trkpt>
      <trkpt lat="47.36696" lon="-1.4065">
        <ele>108</ele>
        <time>2021-02-27T12:08:06.000Z</time>
      </trkpt>
      <trkpt lat="47.36697" lon="-1.40634">
        <ele>108</ele>
        <time>2021-02-27T12:08:08.000Z</time>
      </trkpt>
      <trkpt lat="47.36697" lon="-1.40619">
        <ele>108</ele>
        <time>2021-02-27T12:08:10.000Z</time>
      </trkpt>
      <trkpt lat="47.36697" lon="-1.40604">
        <ele>107</ele>
        <time>2021-02-27T12:08:12.000Z</time>
      </trkpt>
      <trkpt lat="47.36697" lon="-1.40587">
        <ele>107</ele>
        <time>2021-02-27T12:08:14.000Z</time>
      </trkpt>
      <trkpt lat="47.36698" lon="-1.4057">
        <ele>106</ele>
        <time>2021-02-27T12:08:16.000Z</time>
      </trkpt>
      <trkpt lat="47.36698" lon="-1.40554">
        <ele>106</ele>
        <time>2021-02-27T12:08:18.000Z</time>
      </trkpt>
      <trkpt lat="47.36697" lon="-1.40539">
        <ele>106</ele>
        <time>2021-02-27T12:08:20.000Z</time>
      </trkpt>
      <trkpt lat="47.36697" lon="-1.40524">
        <ele>106</ele>
        <time>2021-02-27T12:08:23.000Z</time>
      </trkpt>
      <trkpt lat="47.36708" lon="-1.40513">
        <ele>106</ele>
        <time>2021-02-27T12:08:26.000Z</time>
      </trkpt>
      <trkpt lat="47.3672" lon="-1.40509">
        <ele>105</ele>
        <time>2021-02-27T12:08:28.000Z</time>
      </trkpt>
      <trkpt lat="47.36726" lon="-1.40497">
        <ele>105</ele>
        <time>2021-02-27T12:08:30.000Z</time>
      </trkpt>
      <trkpt lat="47.36727" lon="-1.4048">
        <ele>105</ele>
        <time>2021-02-27T12:08:32.000Z</time>
      </trkpt>
      <trkpt lat="47.36729" lon="-1.40464">
        <ele>104</ele>
        <time>2021-02-27T12:08:34.000Z</time>
      </trkpt>
      <trkpt lat="47.36729" lon="-1.40448">
        <ele>104</ele>
        <time>2021-02-27T12:08:36.000Z</time>
      </trkpt>
      <trkpt lat="47.3673" lon="-1.40431">
        <ele>103</ele>
        <time>2021-02-27T12:08:38.000Z</time>
      </trkpt>
      <trkpt lat="47.36733" lon="-1.40415">
        <ele>104</ele>
        <time>2021-02-27T12:08:40.000Z</time>
      </trkpt>
      <trkpt lat="47.36735" lon="-1.40398">
        <ele>103</ele>
        <time>2021-02-27T12:08:42.000Z</time>
      </trkpt>
      <trkpt lat="47.36738" lon="-1.40381">
        <ele>103</ele>
        <time>2021-02-27T12:08:44.000Z</time>
      </trkpt>
      <trkpt lat="47.36741" lon="-1.40364">
        <ele>102</ele>
        <time>2021-02-27T12:08:46.000Z</time>
      </trkpt>
      <trkpt lat="47.36744" lon="-1.40347">
        <ele>103</ele>
        <time>2021-02-27T12:08:48.000Z</time>
      </trkpt>
      <trkpt lat="47.36747" lon="-1.40331">
        <ele>102</ele>
        <time>2021-02-27T12:08:50.000Z</time>
      </trkpt>
      <trkpt lat="47.36749" lon="-1.40315">
        <ele>102</ele>
        <time>2021-02-27T12:08:52.000Z</time>
      </trkpt>
      <trkpt lat="47.36752" lon="-1.40298">
        <ele>102</ele>
        <time>2021-02-27T12:08:54.000Z</time>
      </trkpt>
      <trkpt lat="47.36754" lon="-1.40281">
        <ele>101</ele>
        <time>2021-02-27T12:08:56.000Z</time>
      </trkpt>
      <trkpt lat="47.36757" lon="-1.40264">
        <ele>101</ele>
        <time>2021-02-27T12:08:58.000Z</time>
      </trkpt>
      <trkpt lat="47.36759" lon="-1.40246">
        <ele>101</ele>
        <time>2021-02-27T12:09:00.000Z</time>
      </trkpt>
      <trkpt lat="47.3676" lon="-1.40229">
        <ele>101</ele>
        <time>2021-02-27T12:09:02.000Z</time>
      </trkpt>
      <trkpt lat="47.36761" lon="-1.40211">
        <ele>101</ele>
        <time>2021-02-27T12:09:04.000Z</time>
      </trkpt>
      <trkpt lat="47.36762" lon="-1.40193">
        <ele>101</ele>
        <time>2021-02-27T12:09:06.000Z</time>
      </trkpt>
      <trkpt lat="47.36763" lon="-1.40176">
        <ele>101</ele>
        <time>2021-02-27T12:09:08.000Z</time>
      </trkpt>
      <trkpt lat="47.36762" lon="-1.40158">
        <ele>101</ele>
        <time>2021-02-27T12:09:10.000Z</time>
      </trkpt>
      <trkpt lat="47.36762" lon="-1.4014">
        <ele>101</ele>
        <time>2021-02-27T12:09:12.000Z</time>
      </trkpt>
      <trkpt lat="47.36762" lon="-1.40122">
        <ele>101</ele>
        <time>2021-02-27T12:09:14.000Z</time>
      </trkpt>
      <trkpt lat="47.36763" lon="-1.40106">
        <ele>100</ele>
        <time>2021-02-27T12:09:16.000Z</time>
      </trkpt>
      <trkpt lat="47.36763" lon="-1.40089">
        <ele>100</ele>
        <time>2021-02-27T12:09:18.000Z</time>
      </trkpt>
      <trkpt lat="47.36764" lon="-1.40074">
        <ele>100</ele>
        <time>2021-02-27T12:09:20.000Z</time>
      </trkpt>
      <trkpt lat="47.36764" lon="-1.4006">
        <ele>100</ele>
        <time>2021-02-27T12:09:22.000Z</time>
      </trkpt>
      <trkpt lat="47.36763" lon="-1.40046">
        <ele>101</ele>
        <time>2021-02-27T12:09:24.000Z</time>
      </trkpt>
      <trkpt lat="47.36763" lon="-1.40033">
        <ele>101</ele>
        <time>2021-02-27T12:09:26.000Z</time>
      </trkpt>
      <trkpt lat="47.36763" lon="-1.40018">
        <ele>101</ele>
        <time>2021-02-27T12:09:28.000Z</time>
      </trkpt>
      <trkpt lat="47.36763" lon="-1.40003">
        <ele>102</ele>
        <time>2021-02-27T12:09:30.000Z</time>
      </trkpt>
      <trkpt lat="47.36763" lon="-1.39988">
        <ele>102</ele>
        <time>2021-02-27T12:09:32.000Z</time>
      </trkpt>
      <trkpt lat="47.36764" lon="-1.39974">
        <ele>103</ele>
        <time>2021-02-27T12:09:34.000Z</time>
      </trkpt>
      <trkpt lat="47.36765" lon="-1.3996">
        <ele>103</ele>
        <time>2021-02-27T12:09:36.000Z</time>
      </trkpt>
      <trkpt lat="47.36765" lon="-1.39947">
        <ele>103</ele>
        <time>2021-02-27T12:09:38.000Z</time>
      </trkpt>
      <trkpt lat="47.36764" lon="-1.39928">
        <ele>105</ele>
        <time>2021-02-27T12:09:41.000Z</time>
      </trkpt>
      <trkpt lat="47.36763" lon="-1.39909">
        <ele>105</ele>
        <time>2021-02-27T12:09:44.000Z</time>
      </trkpt>
      <trkpt lat="47.36763" lon="-1.39896">
        <ele>106</ele>
        <time>2021-02-27T12:09:46.000Z</time>
      </trkpt>
      <trkpt lat="47.36764" lon="-1.39876">
        <ele>106</ele>
        <time>2021-02-27T12:09:49.000Z</time>
      </trkpt>
      <trkpt lat="47.36764" lon="-1.39857">
        <ele>107</ele>
        <time>2021-02-27T12:09:52.000Z</time>
      </trkpt>
      <trkpt lat="47.36764" lon="-1.39837">
        <ele>107</ele>
        <time>2021-02-27T12:09:55.000Z</time>
      </trkpt>
      <trkpt lat="47.36764" lon="-1.39824">
        <ele>107</ele>
        <time>2021-02-27T12:09:57.000Z</time>
      </trkpt>
      <trkpt lat="47.36765" lon="-1.39804">
        <ele>108</ele>
        <time>2021-02-27T12:10:00.000Z</time>
      </trkpt>
      <trkpt lat="47.36765" lon="-1.3979">
        <ele>108</ele>
        <time>2021-02-27T12:10:02.000Z</time>
      </trkpt>
      <trkpt lat="47.36765" lon="-1.39776">
        <ele>109</ele>
        <time>2021-02-27T12:10:04.000Z</time>
      </trkpt>
      <trkpt lat="47.36765" lon="-1.39763">
        <ele>109</ele>
        <time>2021-02-27T12:10:06.000Z</time>
      </trkpt>
      <trkpt lat="47.36765" lon="-1.3975">
        <ele>109</ele>
        <time>2021-02-27T12:10:08.000Z</time>
      </trkpt>
      <trkpt lat="47.36764" lon="-1.39736">
        <ele>110</ele>
        <time>2021-02-27T12:10:10.000Z</time>
      </trkpt>
      <trkpt lat="47.36765" lon="-1.39723">
        <ele>110</ele>
        <time>2021-02-27T12:10:12.000Z</time>
      </trkpt>
      <trkpt lat="47.36765" lon="-1.39709">
        <ele>110</ele>
        <time>2021-02-27T12:10:14.000Z</time>
      </trkpt>
      <trkpt lat="47.36766" lon="-1.39695">
        <ele>110</ele>
        <time>2021-02-27T12:10:16.000Z</time>
      </trkpt>
      <trkpt lat="47.36766" lon="-1.39682">
        <ele>111</ele>
        <time>2021-02-27T12:10:18.000Z</time>
      </trkpt>
      <trkpt lat="47.36766" lon="-1.39668">
        <ele>111</ele>
        <time>2021-02-27T12:10:20.000Z</time>
      </trkpt>
      <trkpt lat="47.36766" lon="-1.39648">
        <ele>111</ele>
        <time>2021-02-27T12:10:23.000Z</time>
      </trkpt>
      <trkpt lat="47.36766" lon="-1.39635">
        <ele>111</ele>
        <time>2021-02-27T12:10:25.000Z</time>
      </trkpt>
      <trkpt lat="47.36766" lon="-1.39621">
        <ele>111</ele>
        <time>2021-02-27T12:10:27.000Z</time>
      </trkpt>
      <trkpt lat="47.36765" lon="-1.39608">
        <ele>111</ele>
        <time>2021-02-27T12:10:29.000Z</time>
      </trkpt>
      <trkpt lat="47.36766" lon="-1.39594">
        <ele>112</ele>
        <time>2021-02-27T12:10:31.000Z</time>
      </trkpt>
      <trkpt lat="47.36766" lon="-1.3958">
        <ele>112</ele>
        <time>2021-02-27T12:10:33.000Z</time>
      </trkpt>
      <trkpt lat="47.36765" lon="-1.39567">
        <ele>111</ele>
        <time>2021-02-27T12:10:35.000Z</time>
      </trkpt>
      <trkpt lat="47.36766" lon="-1.39553">
        <ele>112</ele>
        <time>2021-02-27T12:10:37.000Z</time>
      </trkpt>
      <trkpt lat="47.36766" lon="-1.39538">
        <ele>112</ele>
        <time>2021-02-27T12:10:39.000Z</time>
      </trkpt>
      <trkpt lat="47.36766" lon="-1.39524">
        <ele>112</ele>
        <time>2021-02-27T12:10:41.000Z</time>
      </trkpt>
      <trkpt lat="47.36766" lon="-1.3951">
        <ele>112</ele>
        <time>2021-02-27T12:10:43.000Z</time>
      </trkpt>
      <trkpt lat="47.36766" lon="-1.39496">
        <ele>112</ele>
        <time>2021-02-27T12:10:45.000Z</time>
      </trkpt>
      <trkpt lat="47.36766" lon="-1.39481">
        <ele>113</ele>
        <time>2021-02-27T12:10:47.000Z</time>
      </trkpt>
      <trkpt lat="47.36767" lon="-1.39467">
        <ele>112</ele>
        <time>2021-02-27T12:10:49.000Z</time>
      </trkpt>
      <trkpt lat="47.36767" lon="-1.39452">
        <ele>112</ele>
        <time>2021-02-27T12:10:51.000Z</time>
      </trkpt>
      <trkpt lat="47.36767" lon="-1.39438">
        <ele>112</ele>
        <time>2021-02-27T12:10:53.000Z</time>
      </trkpt>
      <trkpt lat="47.36767" lon="-1.39423">
        <ele>113</ele>
        <time>2021-02-27T12:10:55.000Z</time>
      </trkpt>
      <trkpt lat="47.36767" lon="-1.39409">
        <ele>113</ele>
        <time>2021-02-27T12:10:57.000Z</time>
      </trkpt>
      <trkpt lat="47.36767" lon="-1.39395">
        <ele>113</ele>
        <time>2021-02-27T12:10:59.000Z</time>
      </trkpt>
      <trkpt lat="47.36767" lon="-1.39381">
        <ele>113</ele>
        <time>2021-02-27T12:11:01.000Z</time>
      </trkpt>
      <trkpt lat="47.36766" lon="-1.39361">
        <ele>113</ele>
        <time>2021-02-27T12:11:04.000Z</time>
      </trkpt>
      <trkpt lat="47.36766" lon="-1.39347">
        <ele>113</ele>
        <time>2021-02-27T12:11:06.000Z</time>
      </trkpt>
      <trkpt lat="47.36764" lon="-1.39333">
        <ele>112</ele>
        <time>2021-02-27T12:11:08.000Z</time>
      </trkpt>
      <trkpt lat="47.36762" lon="-1.39319">
        <ele>113</ele>
        <time>2021-02-27T12:11:10.000Z</time>
      </trkpt>
      <trkpt lat="47.3676" lon="-1.39305">
        <ele>113</ele>
        <time>2021-02-27T12:11:12.000Z</time>
      </trkpt>
      <trkpt lat="47.36757" lon="-1.39291">
        <ele>113</ele>
        <time>2021-02-27T12:11:14.000Z</time>
      </trkpt>
      <trkpt lat="47.36753" lon="-1.39278">
        <ele>113</ele>
        <time>2021-02-27T12:11:16.000Z</time>
      </trkpt>
      <trkpt lat="47.36749" lon="-1.39264">
        <ele>113</ele>
        <time>2021-02-27T12:11:18.000Z</time>
      </trkpt>
      <trkpt lat="47.36743" lon="-1.39251">
        <ele>113</ele>
        <time>2021-02-27T12:11:20.000Z</time>
      </trkpt>
      <trkpt lat="47.36738" lon="-1.39239">
        <ele>114</ele>
        <time>2021-02-27T12:11:22.000Z</time>
      </trkpt>
      <trkpt lat="47.36732" lon="-1.39227">
        <ele>114</ele>
        <time>2021-02-27T12:11:24.000Z</time>
      </trkpt>
      <trkpt lat="47.36726" lon="-1.39215">
        <ele>114</ele>
        <time>2021-02-27T12:11:26.000Z</time>
      </trkpt>
      <trkpt lat="47.3672" lon="-1.39203">
        <ele>114</ele>
        <time>2021-02-27T12:11:28.000Z</time>
      </trkpt>
      <trkpt lat="47.36714" lon="-1.39191">
        <ele>114</ele>
        <time>2021-02-27T12:11:30.000Z</time>
      </trkpt>
      <trkpt lat="47.36709" lon="-1.39179">
        <ele>114</ele>
        <time>2021-02-27T12:11:32.000Z</time>
      </trkpt>
      <trkpt lat="47.36703" lon="-1.39167">
        <ele>114</ele>
        <time>2021-02-27T12:11:34.000Z</time>
      </trkpt>
      <trkpt lat="47.36697" lon="-1.39155">
        <ele>114</ele>
        <time>2021-02-27T12:11:36.000Z</time>
      </trkpt>
      <trkpt lat="47.36691" lon="-1.39141">
        <ele>114</ele>
        <time>2021-02-27T12:11:38.000Z</time>
      </trkpt>
      <trkpt lat="47.36685" lon="-1.39128">
        <ele>114</ele>
        <time>2021-02-27T12:11:40.000Z</time>
      </trkpt>
      <trkpt lat="47.36679" lon="-1.39116">
        <ele>114</ele>
        <time>2021-02-27T12:11:42.000Z</time>
      </trkpt>
      <trkpt lat="47.36673" lon="-1.39104">
        <ele>114</ele>
        <time>2021-02-27T12:11:44.000Z</time>
      </trkpt>
      <trkpt lat="47.36667" lon="-1.39092">
        <ele>114</ele>
        <time>2021-02-27T12:11:46.000Z</time>
      </trkpt>
      <trkpt lat="47.36662" lon="-1.39079">
        <ele>114</ele>
        <time>2021-02-27T12:11:48.000Z</time>
      </trkpt>
      <trkpt lat="47.36656" lon="-1.39066">
        <ele>115</ele>
        <time>2021-02-27T12:11:50.000Z</time>
      </trkpt>
      <trkpt lat="47.3665" lon="-1.39054">
        <ele>115</ele>
        <time>2021-02-27T12:11:52.000Z</time>
      </trkpt>
      <trkpt lat="47.36644" lon="-1.39042">
        <ele>115</ele>
        <time>2021-02-27T12:11:54.000Z</time>
      </trkpt>
      <trkpt lat="47.36638" lon="-1.39029">
        <ele>115</ele>
        <time>2021-02-27T12:11:56.000Z</time>
      </trkpt>
      <trkpt lat="47.36632" lon="-1.39017">
        <ele>115</ele>
        <time>2021-02-27T12:11:58.000Z</time>
      </trkpt>
      <trkpt lat="47.36626" lon="-1.39004">
        <ele>115</ele>
        <time>2021-02-27T12:12:00.000Z</time>
      </trkpt>
      <trkpt lat="47.3662" lon="-1.38992">
        <ele>115</ele>
        <time>2021-02-27T12:12:02.000Z</time>
      </trkpt>
      <trkpt lat="47.36613" lon="-1.38979">
        <ele>115</ele>
        <time>2021-02-27T12:12:04.000Z</time>
      </trkpt>
      <trkpt lat="47.36607" lon="-1.38967">
        <ele>115</ele>
        <time>2021-02-27T12:12:06.000Z</time>
      </trkpt>
      <trkpt lat="47.36601" lon="-1.38954">
        <ele>115</ele>
        <time>2021-02-27T12:12:08.000Z</time>
      </trkpt>
      <trkpt lat="47.36595" lon="-1.38942">
        <ele>115</ele>
        <time>2021-02-27T12:12:10.000Z</time>
      </trkpt>
      <trkpt lat="47.36589" lon="-1.38929">
        <ele>116</ele>
        <time>2021-02-27T12:12:12.000Z</time>
      </trkpt>
      <trkpt lat="47.36583" lon="-1.38916">
        <ele>115</ele>
        <time>2021-02-27T12:12:14.000Z</time>
      </trkpt>
      <trkpt lat="47.36577" lon="-1.38903">
        <ele>115</ele>
        <time>2021-02-27T12:12:16.000Z</time>
      </trkpt>
      <trkpt lat="47.36571" lon="-1.3889">
        <ele>115</ele>
        <time>2021-02-27T12:12:18.000Z</time>
      </trkpt>
      <trkpt lat="47.36565" lon="-1.38878">
        <ele>116</ele>
        <time>2021-02-27T12:12:20.000Z</time>
      </trkpt>
      <trkpt lat="47.36559" lon="-1.38866">
        <ele>117</ele>
        <time>2021-02-27T12:12:22.000Z</time>
      </trkpt>
      <trkpt lat="47.36553" lon="-1.38853">
        <ele>117</ele>
        <time>2021-02-27T12:12:24.000Z</time>
      </trkpt>
      <trkpt lat="47.36547" lon="-1.38839">
        <ele>117</ele>
        <time>2021-02-27T12:12:26.000Z</time>
      </trkpt>
      <trkpt lat="47.3654" lon="-1.38827">
        <ele>117</ele>
        <time>2021-02-27T12:12:28.000Z</time>
      </trkpt>
      <trkpt lat="47.36534" lon="-1.38813">
        <ele>117</ele>
        <time>2021-02-27T12:12:30.000Z</time>
      </trkpt>
      <trkpt lat="47.36527" lon="-1.388">
        <ele>117</ele>
        <time>2021-02-27T12:12:32.000Z</time>
      </trkpt>
      <trkpt lat="47.36521" lon="-1.38786">
        <ele>117</ele>
        <time>2021-02-27T12:12:34.000Z</time>
      </trkpt>
      <trkpt lat="47.36515" lon="-1.38773">
        <ele>117</ele>
        <time>2021-02-27T12:12:36.000Z</time>
      </trkpt>
      <trkpt lat="47.36508" lon="-1.38759">
        <ele>118</ele>
        <time>2021-02-27T12:12:38.000Z</time>
      </trkpt>
      <trkpt lat="47.36501" lon="-1.38744">
        <ele>118</ele>
        <time>2021-02-27T12:12:40.000Z</time>
      </trkpt>
      <trkpt lat="47.36495" lon="-1.38731">
        <ele>118</ele>
        <time>2021-02-27T12:12:42.000Z</time>
      </trkpt>
      <trkpt lat="47.36488" lon="-1.38717">
        <ele>118</ele>
        <time>2021-02-27T12:12:44.000Z</time>
      </trkpt>
      <trkpt lat="47.36482" lon="-1.38703">
        <ele>118</ele>
        <time>2021-02-27T12:12:46.000Z</time>
      </trkpt>
      <trkpt lat="47.36476" lon="-1.3869">
        <ele>118</ele>
        <time>2021-02-27T12:12:48.000Z</time>
      </trkpt>
      <trkpt lat="47.36469" lon="-1.38677">
        <ele>118</ele>
        <time>2021-02-27T12:12:50.000Z</time>
      </trkpt>
      <trkpt lat="47.36463" lon="-1.38663">
        <ele>119</ele>
        <time>2021-02-27T12:12:52.000Z</time>
      </trkpt>
      <trkpt lat="47.36456" lon="-1.3865">
        <ele>119</ele>
        <time>2021-02-27T12:12:54.000Z</time>
      </trkpt>
      <trkpt lat="47.3645" lon="-1.38636">
        <ele>119</ele>
        <time>2021-02-27T12:12:56.000Z</time>
      </trkpt>
      <trkpt lat="47.36444" lon="-1.38623">
        <ele>119</ele>
        <time>2021-02-27T12:12:58.000Z</time>
      </trkpt>
      <trkpt lat="47.36437" lon="-1.3861">
        <ele>118</ele>
        <time>2021-02-27T12:13:00.000Z</time>
      </trkpt>
      <trkpt lat="47.36431" lon="-1.38597">
        <ele>118</ele>
        <time>2021-02-27T12:13:02.000Z</time>
      </trkpt>
      <trkpt lat="47.36424" lon="-1.38584">
        <ele>118</ele>
        <time>2021-02-27T12:13:04.000Z</time>
      </trkpt>
      <trkpt lat="47.36418" lon="-1.38571">
        <ele>119</ele>
        <time>2021-02-27T12:13:06.000Z</time>
      </trkpt>
      <trkpt lat="47.36411" lon="-1.38558">
        <ele>119</ele>
        <time>2021-02-27T12:13:08.000Z</time>
      </trkpt>
      <trkpt lat="47.36403" lon="-1.38545">
        <ele>119</ele>
        <time>2021-02-27T12:13:10.000Z</time>
      </trkpt>
      <trkpt lat="47.36395" lon="-1.38534">
        <ele>119</ele>
        <time>2021-02-27T12:13:12.000Z</time>
      </trkpt>
      <trkpt lat="47.36387" lon="-1.38522">
        <ele>119</ele>
        <time>2021-02-27T12:13:14.000Z</time>
      </trkpt>
      <trkpt lat="47.36379" lon="-1.38511">
        <ele>119</ele>
        <time>2021-02-27T12:13:16.000Z</time>
      </trkpt>
      <trkpt lat="47.36371" lon="-1.38498">
        <ele>119</ele>
        <time>2021-02-27T12:13:18.000Z</time>
      </trkpt>
      <trkpt lat="47.36363" lon="-1.38486">
        <ele>119</ele>
        <time>2021-02-27T12:13:20.000Z</time>
      </trkpt>
      <trkpt lat="47.36355" lon="-1.38474">
        <ele>119</ele>
        <time>2021-02-27T12:13:22.000Z</time>
      </trkpt>
      <trkpt lat="47.36347" lon="-1.38461">
        <ele>119</ele>
        <time>2021-02-27T12:13:24.000Z</time>
      </trkpt>
      <trkpt lat="47.36339" lon="-1.3845">
        <ele>119</ele>
        <time>2021-02-27T12:13:26.000Z</time>
      </trkpt>
      <trkpt lat="47.36331" lon="-1.38437">
        <ele>119</ele>
        <time>2021-02-27T12:13:28.000Z</time>
      </trkpt>
      <trkpt lat="47.36322" lon="-1.38425">
        <ele>118</ele>
        <time>2021-02-27T12:13:30.000Z</time>
      </trkpt>
      <trkpt lat="47.36315" lon="-1.38413">
        <ele>118</ele>
        <time>2021-02-27T12:13:32.000Z</time>
      </trkpt>
      <trkpt lat="47.36307" lon="-1.38401">
        <ele>118</ele>
        <time>2021-02-27T12:13:34.000Z</time>
      </trkpt>
      <trkpt lat="47.36299" lon="-1.38389">
        <ele>118</ele>
        <time>2021-02-27T12:13:36.000Z</time>
      </trkpt>
      <trkpt lat="47.36291" lon="-1.38377">
        <ele>118</ele>
        <time>2021-02-27T12:13:38.000Z</time>
      </trkpt>
      <trkpt lat="47.36283" lon="-1.38365">
        <ele>118</ele>
        <time>2021-02-27T12:13:40.000Z</time>
      </trkpt>
      <trkpt lat="47.36275" lon="-1.38352">
        <ele>117</ele>
        <time>2021-02-27T12:13:42.000Z</time>
      </trkpt>
      <trkpt lat="47.36266" lon="-1.3834">
        <ele>117</ele>
        <time>2021-02-27T12:13:44.000Z</time>
      </trkpt>
      <trkpt lat="47.36258" lon="-1.38327">
        <ele>117</ele>
        <time>2021-02-27T12:13:46.000Z</time>
      </trkpt>
      <trkpt lat="47.3625" lon="-1.38315">
        <ele>117</ele>
        <time>2021-02-27T12:13:48.000Z</time>
      </trkpt>
      <trkpt lat="47.36242" lon="-1.38302">
        <ele>117</ele>
        <time>2021-02-27T12:13:50.000Z</time>
      </trkpt>
      <trkpt lat="47.36233" lon="-1.3829">
        <ele>117</ele>
        <time>2021-02-27T12:13:52.000Z</time>
      </trkpt>
      <trkpt lat="47.36225" lon="-1.38278">
        <ele>117</ele>
        <time>2021-02-27T12:13:54.000Z</time>
      </trkpt>
      <trkpt lat="47.36217" lon="-1.38266">
        <ele>117</ele>
        <time>2021-02-27T12:13:56.000Z</time>
      </trkpt>
      <trkpt lat="47.36208" lon="-1.38254">
        <ele>117</ele>
        <time>2021-02-27T12:13:58.000Z</time>
      </trkpt>
      <trkpt lat="47.362" lon="-1.38241">
        <ele>117</ele>
        <time>2021-02-27T12:14:00.000Z</time>
      </trkpt>
      <trkpt lat="47.36192" lon="-1.38229">
        <ele>117</ele>
        <time>2021-02-27T12:14:02.000Z</time>
      </trkpt>
      <trkpt lat="47.36184" lon="-1.38217">
        <ele>117</ele>
        <time>2021-02-27T12:14:04.000Z</time>
      </trkpt>
      <trkpt lat="47.36176" lon="-1.38204">
        <ele>118</ele>
        <time>2021-02-27T12:14:06.000Z</time>
      </trkpt>
      <trkpt lat="47.36169" lon="-1.38192">
        <ele>118</ele>
        <time>2021-02-27T12:14:08.000Z</time>
      </trkpt>
      <trkpt lat="47.36161" lon="-1.38181">
        <ele>118</ele>
        <time>2021-02-27T12:14:10.000Z</time>
      </trkpt>
      <trkpt lat="47.36153" lon="-1.38169">
        <ele>118</ele>
        <time>2021-02-27T12:14:12.000Z</time>
      </trkpt>
      <trkpt lat="47.36145" lon="-1.38158">
        <ele>118</ele>
        <time>2021-02-27T12:14:14.000Z</time>
      </trkpt>
      <trkpt lat="47.36138" lon="-1.38146">
        <ele>117</ele>
        <time>2021-02-27T12:14:16.000Z</time>
      </trkpt>
      <trkpt lat="47.3613" lon="-1.38134">
        <ele>118</ele>
        <time>2021-02-27T12:14:18.000Z</time>
      </trkpt>
      <trkpt lat="47.36123" lon="-1.38124">
        <ele>118</ele>
        <time>2021-02-27T12:14:20.000Z</time>
      </trkpt>
      <trkpt lat="47.36113" lon="-1.38123">
        <ele>118</ele>
        <time>2021-02-27T12:14:22.000Z</time>
      </trkpt>
      <trkpt lat="47.36103" lon="-1.38133">
        <ele>118</ele>
        <time>2021-02-27T12:14:24.000Z</time>
      </trkpt>
      <trkpt lat="47.36093" lon="-1.38141">
        <ele>118</ele>
        <time>2021-02-27T12:14:26.000Z</time>
      </trkpt>
      <trkpt lat="47.36081" lon="-1.38147">
        <ele>118</ele>
        <time>2021-02-27T12:14:28.000Z</time>
      </trkpt>
      <trkpt lat="47.3607" lon="-1.38152">
        <ele>118</ele>
        <time>2021-02-27T12:14:30.000Z</time>
      </trkpt>
      <trkpt lat="47.3606" lon="-1.38161">
        <ele>119</ele>
        <time>2021-02-27T12:14:32.000Z</time>
      </trkpt>
      <trkpt lat="47.3605" lon="-1.38171">
        <ele>118</ele>
        <time>2021-02-27T12:14:34.000Z</time>
      </trkpt>
      <trkpt lat="47.3604" lon="-1.38181">
        <ele>119</ele>
        <time>2021-02-27T12:14:36.000Z</time>
      </trkpt>
      <trkpt lat="47.3603" lon="-1.3819">
        <ele>119</ele>
        <time>2021-02-27T12:14:38.000Z</time>
      </trkpt>
      <trkpt lat="47.36021" lon="-1.38199">
        <ele>119</ele>
        <time>2021-02-27T12:14:40.000Z</time>
      </trkpt>
      <trkpt lat="47.36013" lon="-1.38207">
        <ele>119</ele>
        <time>2021-02-27T12:14:42.000Z</time>
      </trkpt>
      <trkpt lat="47.36005" lon="-1.38216">
        <ele>118</ele>
        <time>2021-02-27T12:14:44.000Z</time>
      </trkpt>
      <trkpt lat="47.35995" lon="-1.38225">
        <ele>118</ele>
        <time>2021-02-27T12:14:46.000Z</time>
      </trkpt>
      <trkpt lat="47.35986" lon="-1.38235">
        <ele>118</ele>
        <time>2021-02-27T12:14:48.000Z</time>
      </trkpt>
      <trkpt lat="47.35976" lon="-1.38245">
        <ele>118</ele>
        <time>2021-02-27T12:14:50.000Z</time>
      </trkpt>
      <trkpt lat="47.35967" lon="-1.38254">
        <ele>118</ele>
        <time>2021-02-27T12:14:52.000Z</time>
      </trkpt>
      <trkpt lat="47.35957" lon="-1.38264">
        <ele>118</ele>
        <time>2021-02-27T12:14:54.000Z</time>
      </trkpt>
      <trkpt lat="47.35948" lon="-1.38273">
        <ele>118</ele>
        <time>2021-02-27T12:14:56.000Z</time>
      </trkpt>
      <trkpt lat="47.35939" lon="-1.38281">
        <ele>118</ele>
        <time>2021-02-27T12:14:58.000Z</time>
      </trkpt>
      <trkpt lat="47.35929" lon="-1.38289">
        <ele>119</ele>
        <time>2021-02-27T12:15:00.000Z</time>
      </trkpt>
      <trkpt lat="47.35921" lon="-1.38298">
        <ele>119</ele>
        <time>2021-02-27T12:15:02.000Z</time>
      </trkpt>
      <trkpt lat="47.35912" lon="-1.38307">
        <ele>119</ele>
        <time>2021-02-27T12:15:04.000Z</time>
      </trkpt>
      <trkpt lat="47.35903" lon="-1.38316">
        <ele>119</ele>
        <time>2021-02-27T12:15:06.000Z</time>
      </trkpt>
      <trkpt lat="47.35895" lon="-1.38324">
        <ele>120</ele>
        <time>2021-02-27T12:15:08.000Z</time>
      </trkpt>
      <trkpt lat="47.35886" lon="-1.38333">
        <ele>120</ele>
        <time>2021-02-27T12:15:10.000Z</time>
      </trkpt>
      <trkpt lat="47.35877" lon="-1.38341">
        <ele>120</ele>
        <time>2021-02-27T12:15:12.000Z</time>
      </trkpt>
      <trkpt lat="47.35869" lon="-1.3835">
        <ele>119</ele>
        <time>2021-02-27T12:15:14.000Z</time>
      </trkpt>
      <trkpt lat="47.3586" lon="-1.38358">
        <ele>119</ele>
        <time>2021-02-27T12:15:16.000Z</time>
      </trkpt>
      <trkpt lat="47.35851" lon="-1.38367">
        <ele>119</ele>
        <time>2021-02-27T12:15:18.000Z</time>
      </trkpt>
      <trkpt lat="47.35843" lon="-1.38375">
        <ele>119</ele>
        <time>2021-02-27T12:15:20.000Z</time>
      </trkpt>
      <trkpt lat="47.35834" lon="-1.38384">
        <ele>119</ele>
        <time>2021-02-27T12:15:22.000Z</time>
      </trkpt>
      <trkpt lat="47.35826" lon="-1.38393">
        <ele>119</ele>
        <time>2021-02-27T12:15:25.000Z</time>
      </trkpt>
      <trkpt lat="47.35817" lon="-1.38403">
        <ele>120</ele>
        <time>2021-02-27T12:16:06.000Z</time>
      </trkpt>
      <trkpt lat="47.35809" lon="-1.38411">
        <ele>121</ele>
        <time>2021-02-27T12:16:09.000Z</time>
      </trkpt>
      <trkpt lat="47.358" lon="-1.38421">
        <ele>122</ele>
        <time>2021-02-27T12:16:12.000Z</time>
      </trkpt>
      <trkpt lat="47.35791" lon="-1.38431">
        <ele>122</ele>
        <time>2021-02-27T12:16:14.000Z</time>
      </trkpt>
      <trkpt lat="47.35782" lon="-1.3844">
        <ele>123</ele>
        <time>2021-02-27T12:16:16.000Z</time>
      </trkpt>
      <trkpt lat="47.35773" lon="-1.38449">
        <ele>124</ele>
        <time>2021-02-27T12:16:18.000Z</time>
      </trkpt>
      <trkpt lat="47.35764" lon="-1.38459">
        <ele>124</ele>
        <time>2021-02-27T12:16:20.000Z</time>
      </trkpt>
      <trkpt lat="47.35755" lon="-1.38469">
        <ele>125</ele>
        <time>2021-02-27T12:16:22.000Z</time>
      </trkpt>
      <trkpt lat="47.35746" lon="-1.38479">
        <ele>125</ele>
        <time>2021-02-27T12:16:24.000Z</time>
      </trkpt>
      <trkpt lat="47.35736" lon="-1.38489">
        <ele>126</ele>
        <time>2021-02-27T12:16:26.000Z</time>
      </trkpt>
      <trkpt lat="47.35727" lon="-1.38499">
        <ele>127</ele>
        <time>2021-02-27T12:16:28.000Z</time>
      </trkpt>
      <trkpt lat="47.35718" lon="-1.38508">
        <ele>127</ele>
        <time>2021-02-27T12:16:30.000Z</time>
      </trkpt>
      <trkpt lat="47.35709" lon="-1.38518">
        <ele>128</ele>
        <time>2021-02-27T12:16:32.000Z</time>
      </trkpt>
      <trkpt lat="47.35701" lon="-1.38527">
        <ele>128</ele>
        <time>2021-02-27T12:16:34.000Z</time>
      </trkpt>
      <trkpt lat="47.35692" lon="-1.38536">
        <ele>128</ele>
        <time>2021-02-27T12:16:36.000Z</time>
      </trkpt>
      <trkpt lat="47.35682" lon="-1.38544">
        <ele>129</ele>
        <time>2021-02-27T12:16:38.000Z</time>
      </trkpt>
      <trkpt lat="47.35672" lon="-1.38552">
        <ele>129</ele>
        <time>2021-02-27T12:16:40.000Z</time>
      </trkpt>
      <trkpt lat="47.35662" lon="-1.38561">
        <ele>129</ele>
        <time>2021-02-27T12:16:42.000Z</time>
      </trkpt>
      <trkpt lat="47.35652" lon="-1.38571">
        <ele>130</ele>
        <time>2021-02-27T12:16:44.000Z</time>
      </trkpt>
      <trkpt lat="47.35643" lon="-1.38581">
        <ele>131</ele>
        <time>2021-02-27T12:16:46.000Z</time>
      </trkpt>
      <trkpt lat="47.35632" lon="-1.38591">
        <ele>131</ele>
        <time>2021-02-27T12:16:48.000Z</time>
      </trkpt>
      <trkpt lat="47.35622" lon="-1.386">
        <ele>131</ele>
        <time>2021-02-27T12:16:50.000Z</time>
      </trkpt>
      <trkpt lat="47.35613" lon="-1.38608">
        <ele>131</ele>
        <time>2021-02-27T12:16:52.000Z</time>
      </trkpt>
      <trkpt lat="47.35604" lon="-1.38617">
        <ele>132</ele>
        <time>2021-02-27T12:16:54.000Z</time>
      </trkpt>
      <trkpt lat="47.35595" lon="-1.38626">
        <ele>132</ele>
        <time>2021-02-27T12:16:56.000Z</time>
      </trkpt>
      <trkpt lat="47.35586" lon="-1.38636">
        <ele>133</ele>
        <time>2021-02-27T12:16:58.000Z</time>
      </trkpt>
      <trkpt lat="47.35577" lon="-1.38645">
        <ele>133</ele>
        <time>2021-02-27T12:17:00.000Z</time>
      </trkpt>
      <trkpt lat="47.35567" lon="-1.38655">
        <ele>133</ele>
        <time>2021-02-27T12:17:02.000Z</time>
      </trkpt>
      <trkpt lat="47.35558" lon="-1.38665">
        <ele>134</ele>
        <time>2021-02-27T12:17:04.000Z</time>
      </trkpt>
      <trkpt lat="47.35546" lon="-1.38674">
        <ele>134</ele>
        <time>2021-02-27T12:17:06.000Z</time>
      </trkpt>
      <trkpt lat="47.35536" lon="-1.38684">
        <ele>134</ele>
        <time>2021-02-27T12:17:08.000Z</time>
      </trkpt>
      <trkpt lat="47.35526" lon="-1.38694">
        <ele>135</ele>
        <time>2021-02-27T12:17:10.000Z</time>
      </trkpt>
      <trkpt lat="47.35515" lon="-1.38705">
        <ele>134</ele>
        <time>2021-02-27T12:17:12.000Z</time>
      </trkpt>
      <trkpt lat="47.35505" lon="-1.38715">
        <ele>134</ele>
        <time>2021-02-27T12:17:14.000Z</time>
      </trkpt>
      <trkpt lat="47.35495" lon="-1.38727">
        <ele>134</ele>
        <time>2021-02-27T12:17:16.000Z</time>
      </trkpt>
      <trkpt lat="47.35486" lon="-1.38737">
        <ele>134</ele>
        <time>2021-02-27T12:17:18.000Z</time>
      </trkpt>
      <trkpt lat="47.35476" lon="-1.38747">
        <ele>135</ele>
        <time>2021-02-27T12:17:20.000Z</time>
      </trkpt>
      <trkpt lat="47.35466" lon="-1.38757">
        <ele>135</ele>
        <time>2021-02-27T12:17:22.000Z</time>
      </trkpt>
      <trkpt lat="47.35458" lon="-1.38766">
        <ele>135</ele>
        <time>2021-02-27T12:17:24.000Z</time>
      </trkpt>
      <trkpt lat="47.35449" lon="-1.38775">
        <ele>135</ele>
        <time>2021-02-27T12:17:26.000Z</time>
      </trkpt>
      <trkpt lat="47.35439" lon="-1.38787">
        <ele>135</ele>
        <time>2021-02-27T12:17:28.000Z</time>
      </trkpt>
      <trkpt lat="47.3543" lon="-1.38796">
        <ele>135</ele>
        <time>2021-02-27T12:17:30.000Z</time>
      </trkpt>
      <trkpt lat="47.3542" lon="-1.38804">
        <ele>135</ele>
        <time>2021-02-27T12:17:32.000Z</time>
      </trkpt>
      <trkpt lat="47.3541" lon="-1.38814">
        <ele>135</ele>
        <time>2021-02-27T12:17:34.000Z</time>
      </trkpt>
      <trkpt lat="47.35399" lon="-1.38825">
        <ele>135</ele>
        <time>2021-02-27T12:17:36.000Z</time>
      </trkpt>
      <trkpt lat="47.35389" lon="-1.38836">
        <ele>135</ele>
        <time>2021-02-27T12:17:38.000Z</time>
      </trkpt>
      <trkpt lat="47.35378" lon="-1.38846">
        <ele>136</ele>
        <time>2021-02-27T12:17:40.000Z</time>
      </trkpt>
      <trkpt lat="47.35367" lon="-1.38857">
        <ele>135</ele>
        <time>2021-02-27T12:17:42.000Z</time>
      </trkpt>
      <trkpt lat="47.35358" lon="-1.38867">
        <ele>136</ele>
        <time>2021-02-27T12:17:44.000Z</time>
      </trkpt>
      <trkpt lat="47.35348" lon="-1.38878">
        <ele>135</ele>
        <time>2021-02-27T12:17:46.000Z</time>
      </trkpt>
      <trkpt lat="47.35336" lon="-1.38888">
        <ele>135</ele>
        <time>2021-02-27T12:17:48.000Z</time>
      </trkpt>
      <trkpt lat="47.35324" lon="-1.389">
        <ele>134</ele>
        <time>2021-02-27T12:17:50.000Z</time>
      </trkpt>
      <trkpt lat="47.35312" lon="-1.38911">
        <ele>133</ele>
        <time>2021-02-27T12:17:52.000Z</time>
      </trkpt>
      <trkpt lat="47.353" lon="-1.3892">
        <ele>130</ele>
        <time>2021-02-27T12:17:54.000Z</time>
      </trkpt>
      <trkpt lat="47.35287" lon="-1.38932">
        <ele>129</ele>
        <time>2021-02-27T12:17:56.000Z</time>
      </trkpt>
      <trkpt lat="47.35273" lon="-1.38944">
        <ele>127</ele>
        <time>2021-02-27T12:17:58.000Z</time>
      </trkpt>
      <trkpt lat="47.3526" lon="-1.38956">
        <ele>126</ele>
        <time>2021-02-27T12:18:00.000Z</time>
      </trkpt>
      <trkpt lat="47.35248" lon="-1.38968">
        <ele>124</ele>
        <time>2021-02-27T12:18:02.000Z</time>
      </trkpt>
      <trkpt lat="47.35236" lon="-1.3898">
        <ele>123</ele>
        <time>2021-02-27T12:18:04.000Z</time>
      </trkpt>
      <trkpt lat="47.35225" lon="-1.3899">
        <ele>122</ele>
        <time>2021-02-27T12:18:06.000Z</time>
      </trkpt>
      <trkpt lat="47.35214" lon="-1.39001">
        <ele>122</ele>
        <time>2021-02-27T12:18:08.000Z</time>
      </trkpt>
      <trkpt lat="47.35203" lon="-1.39011">
        <ele>121</ele>
        <time>2021-02-27T12:18:10.000Z</time>
      </trkpt>
      <trkpt lat="47.35192" lon="-1.39022">
        <ele>121</ele>
        <time>2021-02-27T12:18:12.000Z</time>
      </trkpt>
      <trkpt lat="47.35181" lon="-1.39033">
        <ele>121</ele>
        <time>2021-02-27T12:18:14.000Z</time>
      </trkpt>
      <trkpt lat="47.35171" lon="-1.39043">
        <ele>121</ele>
        <time>2021-02-27T12:18:16.000Z</time>
      </trkpt>
      <trkpt lat="47.3516" lon="-1.39053">
        <ele>121</ele>
        <time>2021-02-27T12:18:18.000Z</time>
      </trkpt>
      <trkpt lat="47.3515" lon="-1.39064">
        <ele>121</ele>
        <time>2021-02-27T12:18:20.000Z</time>
      </trkpt>
      <trkpt lat="47.3514" lon="-1.39074">
        <ele>121</ele>
        <time>2021-02-27T12:18:22.000Z</time>
      </trkpt>
      <trkpt lat="47.3513" lon="-1.39085">
        <ele>122</ele>
        <time>2021-02-27T12:18:24.000Z</time>
      </trkpt>
      <trkpt lat="47.35119" lon="-1.39095">
        <ele>122</ele>
        <time>2021-02-27T12:18:26.000Z</time>
      </trkpt>
      <trkpt lat="47.35109" lon="-1.39105">
        <ele>122</ele>
        <time>2021-02-27T12:18:28.000Z</time>
      </trkpt>
      <trkpt lat="47.35099" lon="-1.39115">
        <ele>122</ele>
        <time>2021-02-27T12:18:30.000Z</time>
      </trkpt>
      <trkpt lat="47.35088" lon="-1.39126">
        <ele>122</ele>
        <time>2021-02-27T12:18:32.000Z</time>
      </trkpt>
      <trkpt lat="47.35078" lon="-1.39136">
        <ele>123</ele>
        <time>2021-02-27T12:18:34.000Z</time>
      </trkpt>
      <trkpt lat="47.35067" lon="-1.39147">
        <ele>123</ele>
        <time>2021-02-27T12:18:36.000Z</time>
      </trkpt>
      <trkpt lat="47.35057" lon="-1.39157">
        <ele>123</ele>
        <time>2021-02-27T12:18:38.000Z</time>
      </trkpt>
      <trkpt lat="47.35047" lon="-1.39167">
        <ele>123</ele>
        <time>2021-02-27T12:18:40.000Z</time>
      </trkpt>
      <trkpt lat="47.35036" lon="-1.39178">
        <ele>123</ele>
        <time>2021-02-27T12:18:42.000Z</time>
      </trkpt>
      <trkpt lat="47.35026" lon="-1.39189">
        <ele>123</ele>
        <time>2021-02-27T12:18:44.000Z</time>
      </trkpt>
      <trkpt lat="47.35016" lon="-1.39199">
        <ele>123</ele>
        <time>2021-02-27T12:18:46.000Z</time>
      </trkpt>
      <trkpt lat="47.35006" lon="-1.39209">
        <ele>124</ele>
        <time>2021-02-27T12:18:48.000Z</time>
      </trkpt>
      <trkpt lat="47.34996" lon="-1.39219">
        <ele>124</ele>
        <time>2021-02-27T12:18:50.000Z</time>
      </trkpt>
      <trkpt lat="47.34985" lon="-1.39229">
        <ele>124</ele>
        <time>2021-02-27T12:18:52.000Z</time>
      </trkpt>
      <trkpt lat="47.34975" lon="-1.39239">
        <ele>124</ele>
        <time>2021-02-27T12:18:54.000Z</time>
      </trkpt>
      <trkpt lat="47.34965" lon="-1.3925">
        <ele>124</ele>
        <time>2021-02-27T12:18:56.000Z</time>
      </trkpt>
      <trkpt lat="47.34954" lon="-1.3926">
        <ele>124</ele>
        <time>2021-02-27T12:18:58.000Z</time>
      </trkpt>
      <trkpt lat="47.34944" lon="-1.3927">
        <ele>125</ele>
        <time>2021-02-27T12:19:00.000Z</time>
      </trkpt>
      <trkpt lat="47.34934" lon="-1.3928">
        <ele>125</ele>
        <time>2021-02-27T12:19:02.000Z</time>
      </trkpt>
      <trkpt lat="47.34923" lon="-1.39291">
        <ele>125</ele>
        <time>2021-02-27T12:19:04.000Z</time>
      </trkpt>
      <trkpt lat="47.34913" lon="-1.39301">
        <ele>125</ele>
        <time>2021-02-27T12:19:06.000Z</time>
      </trkpt>
      <trkpt lat="47.34902" lon="-1.39311">
        <ele>125</ele>
        <time>2021-02-27T12:19:08.000Z</time>
      </trkpt>
      <trkpt lat="47.34892" lon="-1.39322">
        <ele>125</ele>
        <time>2021-02-27T12:19:10.000Z</time>
      </trkpt>
      <trkpt lat="47.34882" lon="-1.39332">
        <ele>125</ele>
        <time>2021-02-27T12:19:12.000Z</time>
      </trkpt>
      <trkpt lat="47.34871" lon="-1.39343">
        <ele>125</ele>
        <time>2021-02-27T12:19:14.000Z</time>
      </trkpt>
      <trkpt lat="47.3486" lon="-1.39354">
        <ele>125</ele>
        <time>2021-02-27T12:19:16.000Z</time>
      </trkpt>
      <trkpt lat="47.3485" lon="-1.39364">
        <ele>125</ele>
        <time>2021-02-27T12:19:18.000Z</time>
      </trkpt>
      <trkpt lat="47.34839" lon="-1.39374">
        <ele>125</ele>
        <time>2021-02-27T12:19:20.000Z</time>
      </trkpt>
      <trkpt lat="47.34829" lon="-1.39385">
        <ele>125</ele>
        <time>2021-02-27T12:19:22.000Z</time>
      </trkpt>
      <trkpt lat="47.34818" lon="-1.39396">
        <ele>125</ele>
        <time>2021-02-27T12:19:24.000Z</time>
      </trkpt>
      <trkpt lat="47.34807" lon="-1.39406">
        <ele>125</ele>
        <time>2021-02-27T12:19:26.000Z</time>
      </trkpt>
      <trkpt lat="47.34797" lon="-1.39416">
        <ele>125</ele>
        <time>2021-02-27T12:19:28.000Z</time>
      </trkpt>
      <trkpt lat="47.34786" lon="-1.39427">
        <ele>124</ele>
        <time>2021-02-27T12:19:30.000Z</time>
      </trkpt>
      <trkpt lat="47.34775" lon="-1.39438">
        <ele>124</ele>
        <time>2021-02-27T12:19:32.000Z</time>
      </trkpt>
      <trkpt lat="47.34764" lon="-1.3945">
        <ele>124</ele>
        <time>2021-02-27T12:19:34.000Z</time>
      </trkpt>
      <trkpt lat="47.34752" lon="-1.39462">
        <ele>124</ele>
        <time>2021-02-27T12:19:36.000Z</time>
      </trkpt>
      <trkpt lat="47.34739" lon="-1.39475">
        <ele>123</ele>
        <time>2021-02-27T12:19:38.000Z</time>
      </trkpt>
      <trkpt lat="47.34727" lon="-1.39486">
        <ele>123</ele>
        <time>2021-02-27T12:19:40.000Z</time>
      </trkpt>
      <trkpt lat="47.34714" lon="-1.39499">
        <ele>123</ele>
        <time>2021-02-27T12:19:42.000Z</time>
      </trkpt>
      <trkpt lat="47.34702" lon="-1.39511">
        <ele>123</ele>
        <time>2021-02-27T12:19:44.000Z</time>
      </trkpt>
      <trkpt lat="47.3469" lon="-1.39523">
        <ele>123</ele>
        <time>2021-02-27T12:19:46.000Z</time>
      </trkpt>
      <trkpt lat="47.34678" lon="-1.39535">
        <ele>123</ele>
        <time>2021-02-27T12:19:48.000Z</time>
      </trkpt>
      <trkpt lat="47.34666" lon="-1.39547">
        <ele>123</ele>
        <time>2021-02-27T12:19:50.000Z</time>
      </trkpt>
      <trkpt lat="47.34654" lon="-1.39559">
        <ele>123</ele>
        <time>2021-02-27T12:19:52.000Z</time>
      </trkpt>
      <trkpt lat="47.34642" lon="-1.3957">
        <ele>123</ele>
        <time>2021-02-27T12:19:54.000Z</time>
      </trkpt>
      <trkpt lat="47.3463" lon="-1.39583">
        <ele>123</ele>
        <time>2021-02-27T12:19:56.000Z</time>
      </trkpt>
      <trkpt lat="47.34618" lon="-1.39595">
        <ele>123</ele>
        <time>2021-02-27T12:19:58.000Z</time>
      </trkpt>
      <trkpt lat="47.34606" lon="-1.39606">
        <ele>123</ele>
        <time>2021-02-27T12:20:00.000Z</time>
      </trkpt>
      <trkpt lat="47.34594" lon="-1.39618">
        <ele>123</ele>
        <time>2021-02-27T12:20:02.000Z</time>
      </trkpt>
      <trkpt lat="47.34582" lon="-1.3963">
        <ele>123</ele>
        <time>2021-02-27T12:20:04.000Z</time>
      </trkpt>
      <trkpt lat="47.34569" lon="-1.39643">
        <ele>123</ele>
        <time>2021-02-27T12:20:06.000Z</time>
      </trkpt>
      <trkpt lat="47.34556" lon="-1.39656">
        <ele>123</ele>
        <time>2021-02-27T12:20:08.000Z</time>
      </trkpt>
      <trkpt lat="47.34543" lon="-1.39669">
        <ele>123</ele>
        <time>2021-02-27T12:20:10.000Z</time>
      </trkpt>
      <trkpt lat="47.3453" lon="-1.39682">
        <ele>122</ele>
        <time>2021-02-27T12:20:12.000Z</time>
      </trkpt>
      <trkpt lat="47.34517" lon="-1.39695">
        <ele>122</ele>
        <time>2021-02-27T12:20:14.000Z</time>
      </trkpt>
      <trkpt lat="47.34505" lon="-1.39708">
        <ele>122</ele>
        <time>2021-02-27T12:20:16.000Z</time>
      </trkpt>
      <trkpt lat="47.34492" lon="-1.39721">
        <ele>122</ele>
        <time>2021-02-27T12:20:18.000Z</time>
      </trkpt>
      <trkpt lat="47.34478" lon="-1.39734">
        <ele>121</ele>
        <time>2021-02-27T12:20:20.000Z</time>
      </trkpt>
      <trkpt lat="47.34465" lon="-1.39747">
        <ele>121</ele>
        <time>2021-02-27T12:20:22.000Z</time>
      </trkpt>
      <trkpt lat="47.34452" lon="-1.3976">
        <ele>121</ele>
        <time>2021-02-27T12:20:24.000Z</time>
      </trkpt>
      <trkpt lat="47.34439" lon="-1.39773">
        <ele>121</ele>
        <time>2021-02-27T12:20:26.000Z</time>
      </trkpt>
      <trkpt lat="47.34426" lon="-1.39786">
        <ele>122</ele>
        <time>2021-02-27T12:20:28.000Z</time>
      </trkpt>
      <trkpt lat="47.34413" lon="-1.39799">
        <ele>122</ele>
        <time>2021-02-27T12:20:30.000Z</time>
      </trkpt>
      <trkpt lat="47.34401" lon="-1.39811">
        <ele>122</ele>
        <time>2021-02-27T12:20:32.000Z</time>
      </trkpt>
      <trkpt lat="47.34389" lon="-1.39823">
        <ele>122</ele>
        <time>2021-02-27T12:20:34.000Z</time>
      </trkpt>
      <trkpt lat="47.34377" lon="-1.39835">
        <ele>123</ele>
        <time>2021-02-27T12:20:36.000Z</time>
      </trkpt>
      <trkpt lat="47.34365" lon="-1.39847">
        <ele>123</ele>
        <time>2021-02-27T12:20:38.000Z</time>
      </trkpt>
      <trkpt lat="47.34352" lon="-1.39859">
        <ele>123</ele>
        <time>2021-02-27T12:20:40.000Z</time>
      </trkpt>
      <trkpt lat="47.3434" lon="-1.39872">
        <ele>123</ele>
        <time>2021-02-27T12:20:42.000Z</time>
      </trkpt>
      <trkpt lat="47.34328" lon="-1.39884">
        <ele>123</ele>
        <time>2021-02-27T12:20:44.000Z</time>
      </trkpt>
      <trkpt lat="47.34315" lon="-1.39897">
        <ele>123</ele>
        <time>2021-02-27T12:20:46.000Z</time>
      </trkpt>
      <trkpt lat="47.34303" lon="-1.39909">
        <ele>123</ele>
        <time>2021-02-27T12:20:48.000Z</time>
      </trkpt>
      <trkpt lat="47.3429" lon="-1.39921">
        <ele>123</ele>
        <time>2021-02-27T12:20:50.000Z</time>
      </trkpt>
      <trkpt lat="47.34278" lon="-1.39933">
        <ele>123</ele>
        <time>2021-02-27T12:20:52.000Z</time>
      </trkpt>
      <trkpt lat="47.34266" lon="-1.39945">
        <ele>123</ele>
        <time>2021-02-27T12:20:54.000Z</time>
      </trkpt>
      <trkpt lat="47.34254" lon="-1.39958">
        <ele>123</ele>
        <time>2021-02-27T12:20:56.000Z</time>
      </trkpt>
      <trkpt lat="47.34241" lon="-1.3997">
        <ele>123</ele>
        <time>2021-02-27T12:20:58.000Z</time>
      </trkpt>
      <trkpt lat="47.3423" lon="-1.39982">
        <ele>123</ele>
        <time>2021-02-27T12:21:00.000Z</time>
      </trkpt>
      <trkpt lat="47.34217" lon="-1.39994">
        <ele>123</ele>
        <time>2021-02-27T12:21:02.000Z</time>
      </trkpt>
      <trkpt lat="47.34205" lon="-1.40006">
        <ele>123</ele>
        <time>2021-02-27T12:21:04.000Z</time>
      </trkpt>
      <trkpt lat="47.34193" lon="-1.40018">
        <ele>123</ele>
        <time>2021-02-27T12:21:06.000Z</time>
      </trkpt>
      <trkpt lat="47.34181" lon="-1.40029">
        <ele>123</ele>
        <time>2021-02-27T12:21:08.000Z</time>
      </trkpt>
      <trkpt lat="47.3417" lon="-1.40041">
        <ele>123</ele>
        <time>2021-02-27T12:21:10.000Z</time>
      </trkpt>
      <trkpt lat="47.34158" lon="-1.40053">
        <ele>123</ele>
        <time>2021-02-27T12:21:12.000Z</time>
      </trkpt>
      <trkpt lat="47.34146" lon="-1.40065">
        <ele>123</ele>
        <time>2021-02-27T12:21:14.000Z</time>
      </trkpt>
      <trkpt lat="47.34134" lon="-1.40076">
        <ele>123</ele>
        <time>2021-02-27T12:21:16.000Z</time>
      </trkpt>
      <trkpt lat="47.34122" lon="-1.40088">
        <ele>123</ele>
        <time>2021-02-27T12:21:18.000Z</time>
      </trkpt>
      <trkpt lat="47.34111" lon="-1.401">
        <ele>123</ele>
        <time>2021-02-27T12:21:20.000Z</time>
      </trkpt>
      <trkpt lat="47.34099" lon="-1.40111">
        <ele>123</ele>
        <time>2021-02-27T12:21:22.000Z</time>
      </trkpt>
      <trkpt lat="47.34087" lon="-1.40123">
        <ele>123</ele>
        <time>2021-02-27T12:21:24.000Z</time>
      </trkpt>
      <trkpt lat="47.34075" lon="-1.40135">
        <ele>123</ele>
        <time>2021-02-27T12:21:26.000Z</time>
      </trkpt>
      <trkpt lat="47.34063" lon="-1.40147">
        <ele>123</ele>
        <time>2021-02-27T12:21:28.000Z</time>
      </trkpt>
      <trkpt lat="47.34051" lon="-1.40159">
        <ele>123</ele>
        <time>2021-02-27T12:21:30.000Z</time>
      </trkpt>
      <trkpt lat="47.34039" lon="-1.40171">
        <ele>123</ele>
        <time>2021-02-27T12:21:32.000Z</time>
      </trkpt>
      <trkpt lat="47.34028" lon="-1.40182">
        <ele>123</ele>
        <time>2021-02-27T12:21:34.000Z</time>
      </trkpt>
      <trkpt lat="47.34016" lon="-1.40194">
        <ele>123</ele>
        <time>2021-02-27T12:21:36.000Z</time>
      </trkpt>
      <trkpt lat="47.34004" lon="-1.40205">
        <ele>123</ele>
        <time>2021-02-27T12:21:38.000Z</time>
      </trkpt>
      <trkpt lat="47.33993" lon="-1.40217">
        <ele>123</ele>
        <time>2021-02-27T12:21:40.000Z</time>
      </trkpt>
      <trkpt lat="47.33982" lon="-1.40228">
        <ele>123</ele>
        <time>2021-02-27T12:21:42.000Z</time>
      </trkpt>
      <trkpt lat="47.33971" lon="-1.40238">
        <ele>123</ele>
        <time>2021-02-27T12:21:44.000Z</time>
      </trkpt>
      <trkpt lat="47.33962" lon="-1.40249">
        <ele>123</ele>
        <time>2021-02-27T12:21:46.000Z</time>
      </trkpt>
      <trkpt lat="47.33954" lon="-1.40257">
        <ele>123</ele>
        <time>2021-02-27T12:21:48.000Z</time>
      </trkpt>
      <trkpt lat="47.33942" lon="-1.40256">
        <ele>124</ele>
        <time>2021-02-27T12:21:51.000Z</time>
      </trkpt>
      <trkpt lat="47.33932" lon="-1.40247">
        <ele>124</ele>
        <time>2021-02-27T12:21:53.000Z</time>
      </trkpt>
      <trkpt lat="47.33922" lon="-1.40237">
        <ele>123</ele>
        <time>2021-02-27T12:21:55.000Z</time>
      </trkpt>
      <trkpt lat="47.33912" lon="-1.40226">
        <ele>123</ele>
        <time>2021-02-27T12:21:57.000Z</time>
      </trkpt>
      <trkpt lat="47.33903" lon="-1.40216">
        <ele>123</ele>
        <time>2021-02-27T12:21:59.000Z</time>
      </trkpt>
      <trkpt lat="47.33893" lon="-1.40204">
        <ele>123</ele>
        <time>2021-02-27T12:22:01.000Z</time>
      </trkpt>
      <trkpt lat="47.33884" lon="-1.40192">
        <ele>123</ele>
        <time>2021-02-27T12:22:03.000Z</time>
      </trkpt>
      <trkpt lat="47.33875" lon="-1.40181">
        <ele>123</ele>
        <time>2021-02-27T12:22:05.000Z</time>
      </trkpt>
      <trkpt lat="47.33865" lon="-1.4017">
        <ele>124</ele>
        <time>2021-02-27T12:22:07.000Z</time>
      </trkpt>
      <trkpt lat="47.33856" lon="-1.40158">
        <ele>124</ele>
        <time>2021-02-27T12:22:09.000Z</time>
      </trkpt>
      <trkpt lat="47.33843" lon="-1.40143">
        <ele>123</ele>
        <time>2021-02-27T12:22:13.000Z</time>
      </trkpt>
      <trkpt lat="47.3383" lon="-1.40125">
        <ele>124</ele>
        <time>2021-02-27T12:22:15.000Z</time>
      </trkpt>
      <trkpt lat="47.33818" lon="-1.4011">
        <ele>123</ele>
        <time>2021-02-27T12:22:17.000Z</time>
      </trkpt>
      <trkpt lat="47.33806" lon="-1.40097">
        <ele>124</ele>
        <time>2021-02-27T12:22:19.000Z</time>
      </trkpt>
      <trkpt lat="47.33794" lon="-1.40083">
        <ele>124</ele>
        <time>2021-02-27T12:22:21.000Z</time>
      </trkpt>
      <trkpt lat="47.33783" lon="-1.40071">
        <ele>124</ele>
        <time>2021-02-27T12:22:23.000Z</time>
      </trkpt>
      <trkpt lat="47.33773" lon="-1.40058">
        <ele>124</ele>
        <time>2021-02-27T12:22:25.000Z</time>
      </trkpt>
      <trkpt lat="47.33762" lon="-1.40045">
        <ele>123</ele>
        <time>2021-02-27T12:22:27.000Z</time>
      </trkpt>
      <trkpt lat="47.33752" lon="-1.40032">
        <ele>123</ele>
        <time>2021-02-27T12:22:29.000Z</time>
      </trkpt>
      <trkpt lat="47.33742" lon="-1.40019">
        <ele>123</ele>
        <time>2021-02-27T12:22:31.000Z</time>
      </trkpt>
      <trkpt lat="47.33732" lon="-1.40005">
        <ele>123</ele>
        <time>2021-02-27T12:22:33.000Z</time>
      </trkpt>
      <trkpt lat="47.33722" lon="-1.39991">
        <ele>123</ele>
        <time>2021-02-27T12:22:35.000Z</time>
      </trkpt>
      <trkpt lat="47.33712" lon="-1.39976">
        <ele>122</ele>
        <time>2021-02-27T12:22:37.000Z</time>
      </trkpt>
      <trkpt lat="47.33703" lon="-1.39962">
        <ele>122</ele>
        <time>2021-02-27T12:22:39.000Z</time>
      </trkpt>
      <trkpt lat="47.33693" lon="-1.39948">
        <ele>121</ele>
        <time>2021-02-27T12:22:41.000Z</time>
      </trkpt>
      <trkpt lat="47.33683" lon="-1.39934">
        <ele>121</ele>
        <time>2021-02-27T12:22:43.000Z</time>
      </trkpt>
      <trkpt lat="47.33673" lon="-1.3992">
        <ele>120</ele>
        <time>2021-02-27T12:22:45.000Z</time>
      </trkpt>
      <trkpt lat="47.33664" lon="-1.39907">
        <ele>120</ele>
        <time>2021-02-27T12:22:47.000Z</time>
      </trkpt>
      <trkpt lat="47.33655" lon="-1.39893">
        <ele>120</ele>
        <time>2021-02-27T12:22:49.000Z</time>
      </trkpt>
      <trkpt lat="47.33645" lon="-1.39879">
        <ele>120</ele>
        <time>2021-02-27T12:22:51.000Z</time>
      </trkpt>
      <trkpt lat="47.33635" lon="-1.39865">
        <ele>120</ele>
        <time>2021-02-27T12:22:53.000Z</time>
      </trkpt>
      <trkpt lat="47.33626" lon="-1.39852">
        <ele>120</ele>
        <time>2021-02-27T12:22:55.000Z</time>
      </trkpt>
      <trkpt lat="47.33616" lon="-1.39838">
        <ele>120</ele>
        <time>2021-02-27T12:22:57.000Z</time>
      </trkpt>
      <trkpt lat="47.33606" lon="-1.39825">
        <ele>120</ele>
        <time>2021-02-27T12:22:59.000Z</time>
      </trkpt>
      <trkpt lat="47.33596" lon="-1.3981">
        <ele>119</ele>
        <time>2021-02-27T12:23:01.000Z</time>
      </trkpt>
      <trkpt lat="47.33586" lon="-1.39795">
        <ele>119</ele>
        <time>2021-02-27T12:23:03.000Z</time>
      </trkpt>
      <trkpt lat="47.33576" lon="-1.3978">
        <ele>119</ele>
        <time>2021-02-27T12:23:05.000Z</time>
      </trkpt>
      <trkpt lat="47.33566" lon="-1.39767">
        <ele>119</ele>
        <time>2021-02-27T12:23:07.000Z</time>
      </trkpt>
      <trkpt lat="47.33556" lon="-1.39753">
        <ele>118</ele>
        <time>2021-02-27T12:23:09.000Z</time>
      </trkpt>
      <trkpt lat="47.33546" lon="-1.39739">
        <ele>118</ele>
        <time>2021-02-27T12:23:11.000Z</time>
      </trkpt>
      <trkpt lat="47.33538" lon="-1.39726">
        <ele>118</ele>
        <time>2021-02-27T12:23:13.000Z</time>
      </trkpt>
      <trkpt lat="47.33529" lon="-1.39715">
        <ele>119</ele>
        <time>2021-02-27T12:23:15.000Z</time>
      </trkpt>
      <trkpt lat="47.33522" lon="-1.39703">
        <ele>119</ele>
        <time>2021-02-27T12:23:17.000Z</time>
      </trkpt>
      <trkpt lat="47.33515" lon="-1.39693">
        <ele>120</ele>
        <time>2021-02-27T12:23:19.000Z</time>
      </trkpt>
      <trkpt lat="47.33508" lon="-1.39681">
        <ele>120</ele>
        <time>2021-02-27T12:23:21.000Z</time>
      </trkpt>
      <trkpt lat="47.335" lon="-1.39672">
        <ele>120</ele>
        <time>2021-02-27T12:23:23.000Z</time>
      </trkpt>
      <trkpt lat="47.33493" lon="-1.39663">
        <ele>121</ele>
        <time>2021-02-27T12:23:25.000Z</time>
      </trkpt>
      <trkpt lat="47.33486" lon="-1.39654">
        <ele>121</ele>
        <time>2021-02-27T12:23:27.000Z</time>
      </trkpt>
      <trkpt lat="47.33479" lon="-1.39644">
        <ele>121</ele>
        <time>2021-02-27T12:23:29.000Z</time>
      </trkpt>
      <trkpt lat="47.33471" lon="-1.39635">
        <ele>121</ele>
        <time>2021-02-27T12:23:31.000Z</time>
      </trkpt>
      <trkpt lat="47.33464" lon="-1.39626">
        <ele>122</ele>
        <time>2021-02-27T12:23:33.000Z</time>
      </trkpt>
      <trkpt lat="47.33456" lon="-1.39618">
        <ele>123</ele>
        <time>2021-02-27T12:23:35.000Z</time>
      </trkpt>
      <trkpt lat="47.33448" lon="-1.3961">
        <ele>124</ele>
        <time>2021-02-27T12:23:37.000Z</time>
      </trkpt>
      <trkpt lat="47.33439" lon="-1.39602">
        <ele>124</ele>
        <time>2021-02-27T12:23:39.000Z</time>
      </trkpt>
      <trkpt lat="47.33431" lon="-1.39595">
        <ele>125</ele>
        <time>2021-02-27T12:23:41.000Z</time>
      </trkpt>
      <trkpt lat="47.33422" lon="-1.39587">
        <ele>125</ele>
        <time>2021-02-27T12:23:43.000Z</time>
      </trkpt>
      <trkpt lat="47.33412" lon="-1.3958">
        <ele>125</ele>
        <time>2021-02-27T12:23:45.000Z</time>
      </trkpt>
      <trkpt lat="47.33403" lon="-1.39573">
        <ele>126</ele>
        <time>2021-02-27T12:23:47.000Z</time>
      </trkpt>
      <trkpt lat="47.33394" lon="-1.39567">
        <ele>126</ele>
        <time>2021-02-27T12:23:49.000Z</time>
      </trkpt>
      <trkpt lat="47.33386" lon="-1.39561">
        <ele>126</ele>
        <time>2021-02-27T12:23:51.000Z</time>
      </trkpt>
      <trkpt lat="47.33377" lon="-1.39555">
        <ele>126</ele>
        <time>2021-02-27T12:23:53.000Z</time>
      </trkpt>
      <trkpt lat="47.33368" lon="-1.39549">
        <ele>126</ele>
        <time>2021-02-27T12:23:55.000Z</time>
      </trkpt>
      <trkpt lat="47.33359" lon="-1.39543">
        <ele>126</ele>
        <time>2021-02-27T12:23:57.000Z</time>
      </trkpt>
      <trkpt lat="47.3335" lon="-1.39537">
        <ele>126</ele>
        <time>2021-02-27T12:23:59.000Z</time>
      </trkpt>
      <trkpt lat="47.3334" lon="-1.39531">
        <ele>125</ele>
        <time>2021-02-27T12:24:01.000Z</time>
      </trkpt>
      <trkpt lat="47.33329" lon="-1.39525">
        <ele>125</ele>
        <time>2021-02-27T12:24:03.000Z</time>
      </trkpt>
      <trkpt lat="47.33319" lon="-1.39518">
        <ele>125</ele>
        <time>2021-02-27T12:24:05.000Z</time>
      </trkpt>
      <trkpt lat="47.33308" lon="-1.39512">
        <ele>124</ele>
        <time>2021-02-27T12:24:07.000Z</time>
      </trkpt>
      <trkpt lat="47.33296" lon="-1.39506">
        <ele>124</ele>
        <time>2021-02-27T12:24:09.000Z</time>
      </trkpt>
      <trkpt lat="47.33284" lon="-1.39501">
        <ele>123</ele>
        <time>2021-02-27T12:24:11.000Z</time>
      </trkpt>
      <trkpt lat="47.33271" lon="-1.39496">
        <ele>123</ele>
        <time>2021-02-27T12:24:13.000Z</time>
      </trkpt>
      <trkpt lat="47.33257" lon="-1.39492">
        <ele>122</ele>
        <time>2021-02-27T12:24:15.000Z</time>
      </trkpt>
      <trkpt lat="47.33243" lon="-1.39489">
        <ele>121</ele>
        <time>2021-02-27T12:24:17.000Z</time>
      </trkpt>
      <trkpt lat="47.33227" lon="-1.39486">
        <ele>121</ele>
        <time>2021-02-27T12:24:19.000Z</time>
      </trkpt>
      <trkpt lat="47.33212" lon="-1.39484">
        <ele>120</ele>
        <time>2021-02-27T12:24:21.000Z</time>
      </trkpt>
      <trkpt lat="47.33195" lon="-1.39482">
        <ele>119</ele>
        <time>2021-02-27T12:24:23.000Z</time>
      </trkpt>
      <trkpt lat="47.33177" lon="-1.39479">
        <ele>118</ele>
        <time>2021-02-27T12:24:25.000Z</time>
      </trkpt>
      <trkpt lat="47.33168" lon="-1.39477">
        <ele>117</ele>
        <time>2021-02-27T12:24:26.000Z</time>
      </trkpt>
      <trkpt lat="47.33159" lon="-1.39476">
        <ele>117</ele>
        <time>2021-02-27T12:24:27.000Z</time>
      </trkpt>
      <trkpt lat="47.33149" lon="-1.39473">
        <ele>116</ele>
        <time>2021-02-27T12:24:28.000Z</time>
      </trkpt>
      <trkpt lat="47.33141" lon="-1.39471">
        <ele>115</ele>
        <time>2021-02-27T12:24:29.000Z</time>
      </trkpt>
      <trkpt lat="47.33131" lon="-1.39468">
        <ele>115</ele>
        <time>2021-02-27T12:24:30.000Z</time>
      </trkpt>
      <trkpt lat="47.33122" lon="-1.39465">
        <ele>115</ele>
        <time>2021-02-27T12:24:31.000Z</time>
      </trkpt>
      <trkpt lat="47.33105" lon="-1.39458">
        <ele>114</ele>
        <time>2021-02-27T12:24:33.000Z</time>
      </trkpt>
      <trkpt lat="47.3309" lon="-1.3945">
        <ele>115</ele>
        <time>2021-02-27T12:24:35.000Z</time>
      </trkpt>
      <trkpt lat="47.33075" lon="-1.39444">
        <ele>115</ele>
        <time>2021-02-27T12:24:37.000Z</time>
      </trkpt>
      <trkpt lat="47.33061" lon="-1.3944">
        <ele>115</ele>
        <time>2021-02-27T12:24:39.000Z</time>
      </trkpt>
      <trkpt lat="47.33045" lon="-1.39436">
        <ele>115</ele>
        <time>2021-02-27T12:24:41.000Z</time>
      </trkpt>
      <trkpt lat="47.33031" lon="-1.39433">
        <ele>115</ele>
        <time>2021-02-27T12:24:43.000Z</time>
      </trkpt>
      <trkpt lat="47.33018" lon="-1.39431">
        <ele>116</ele>
        <time>2021-02-27T12:24:45.000Z</time>
      </trkpt>
      <trkpt lat="47.33005" lon="-1.39429">
        <ele>116</ele>
        <time>2021-02-27T12:24:47.000Z</time>
      </trkpt>
      <trkpt lat="47.32991" lon="-1.39428">
        <ele>116</ele>
        <time>2021-02-27T12:24:49.000Z</time>
      </trkpt>
      <trkpt lat="47.32977" lon="-1.39425">
        <ele>117</ele>
        <time>2021-02-27T12:24:51.000Z</time>
      </trkpt>
      <trkpt lat="47.32965" lon="-1.39423">
        <ele>117</ele>
        <time>2021-02-27T12:24:53.000Z</time>
      </trkpt>
      <trkpt lat="47.32953" lon="-1.3942">
        <ele>117</ele>
        <time>2021-02-27T12:24:55.000Z</time>
      </trkpt>
      <trkpt lat="47.32943" lon="-1.39418">
        <ele>118</ele>
        <time>2021-02-27T12:24:57.000Z</time>
      </trkpt>
      <trkpt lat="47.32934" lon="-1.39416">
        <ele>117</ele>
        <time>2021-02-27T12:24:59.000Z</time>
      </trkpt>
      <trkpt lat="47.32921" lon="-1.39414">
        <ele>118</ele>
        <time>2021-02-27T12:25:02.000Z</time>
      </trkpt>
      <trkpt lat="47.32911" lon="-1.39413">
        <ele>118</ele>
        <time>2021-02-27T12:25:04.000Z</time>
      </trkpt>
      <trkpt lat="47.32899" lon="-1.39411">
        <ele>118</ele>
        <time>2021-02-27T12:25:06.000Z</time>
      </trkpt>
      <trkpt lat="47.32887" lon="-1.39409">
        <ele>118</ele>
        <time>2021-02-27T12:25:08.000Z</time>
      </trkpt>
      <trkpt lat="47.32874" lon="-1.39407">
        <ele>119</ele>
        <time>2021-02-27T12:25:10.000Z</time>
      </trkpt>
      <trkpt lat="47.32861" lon="-1.39405">
        <ele>119</ele>
        <time>2021-02-27T12:25:12.000Z</time>
      </trkpt>
      <trkpt lat="47.32848" lon="-1.39402">
        <ele>120</ele>
        <time>2021-02-27T12:25:14.000Z</time>
      </trkpt>
      <trkpt lat="47.32834" lon="-1.394">
        <ele>119</ele>
        <time>2021-02-27T12:25:16.000Z</time>
      </trkpt>
      <trkpt lat="47.32821" lon="-1.39398">
        <ele>119</ele>
        <time>2021-02-27T12:25:18.000Z</time>
      </trkpt>
      <trkpt lat="47.32808" lon="-1.39396">
        <ele>120</ele>
        <time>2021-02-27T12:25:20.000Z</time>
      </trkpt>
      <trkpt lat="47.32794" lon="-1.39394">
        <ele>121</ele>
        <time>2021-02-27T12:25:22.000Z</time>
      </trkpt>
      <trkpt lat="47.3278" lon="-1.39391">
        <ele>121</ele>
        <time>2021-02-27T12:25:24.000Z</time>
      </trkpt>
      <trkpt lat="47.32766" lon="-1.39389">
        <ele>121</ele>
        <time>2021-02-27T12:25:26.000Z</time>
      </trkpt>
      <trkpt lat="47.32753" lon="-1.39386">
        <ele>121</ele>
        <time>2021-02-27T12:25:28.000Z</time>
      </trkpt>
      <trkpt lat="47.32739" lon="-1.39383">
        <ele>121</ele>
        <time>2021-02-27T12:25:30.000Z</time>
      </trkpt>
      <trkpt lat="47.32726" lon="-1.39381">
        <ele>121</ele>
        <time>2021-02-27T12:25:32.000Z</time>
      </trkpt>
      <trkpt lat="47.32712" lon="-1.39379">
        <ele>120</ele>
        <time>2021-02-27T12:25:34.000Z</time>
      </trkpt>
      <trkpt lat="47.32698" lon="-1.39376">
        <ele>120</ele>
        <time>2021-02-27T12:25:36.000Z</time>
      </trkpt>
      <trkpt lat="47.32684" lon="-1.39372">
        <ele>119</ele>
        <time>2021-02-27T12:25:38.000Z</time>
      </trkpt>
      <trkpt lat="47.3267" lon="-1.39368">
        <ele>120</ele>
        <time>2021-02-27T12:25:40.000Z</time>
      </trkpt>
      <trkpt lat="47.32656" lon="-1.39364">
        <ele>119</ele>
        <time>2021-02-27T12:25:42.000Z</time>
      </trkpt>
      <trkpt lat="47.32643" lon="-1.3936">
        <ele>119</ele>
        <time>2021-02-27T12:25:44.000Z</time>
      </trkpt>
      <trkpt lat="47.3263" lon="-1.39355">
        <ele>118</ele>
        <time>2021-02-27T12:25:46.000Z</time>
      </trkpt>
      <trkpt lat="47.32615" lon="-1.3935">
        <ele>118</ele>
        <time>2021-02-27T12:25:48.000Z</time>
      </trkpt>
      <trkpt lat="47.32601" lon="-1.39345">
        <ele>118</ele>
        <time>2021-02-27T12:25:50.000Z</time>
      </trkpt>
      <trkpt lat="47.32586" lon="-1.3934">
        <ele>117</ele>
        <time>2021-02-27T12:25:52.000Z</time>
      </trkpt>
      <trkpt lat="47.32571" lon="-1.39336">
        <ele>116</ele>
        <time>2021-02-27T12:25:54.000Z</time>
      </trkpt>
      <trkpt lat="47.32555" lon="-1.39333">
        <ele>116</ele>
        <time>2021-02-27T12:25:56.000Z</time>
      </trkpt>
      <trkpt lat="47.3254" lon="-1.39333">
        <ele>116</ele>
        <time>2021-02-27T12:25:58.000Z</time>
      </trkpt>
      <trkpt lat="47.32525" lon="-1.39337">
        <ele>115</ele>
        <time>2021-02-27T12:26:00.000Z</time>
      </trkpt>
      <trkpt lat="47.32511" lon="-1.39345">
        <ele>115</ele>
        <time>2021-02-27T12:26:02.000Z</time>
      </trkpt>
      <trkpt lat="47.32497" lon="-1.39355">
        <ele>114</ele>
        <time>2021-02-27T12:26:04.000Z</time>
      </trkpt>
      <trkpt lat="47.32482" lon="-1.39364">
        <ele>113</ele>
        <time>2021-02-27T12:26:06.000Z</time>
      </trkpt>
      <trkpt lat="47.32468" lon="-1.39372">
        <ele>113</ele>
        <time>2021-02-27T12:26:08.000Z</time>
      </trkpt>
      <trkpt lat="47.32452" lon="-1.39377">
        <ele>114</ele>
        <time>2021-02-27T12:26:10.000Z</time>
      </trkpt>
      <trkpt lat="47.32437" lon="-1.39377">
        <ele>114</ele>
        <time>2021-02-27T12:26:12.000Z</time>
      </trkpt>
      <trkpt lat="47.32422" lon="-1.39372">
        <ele>114</ele>
        <time>2021-02-27T12:26:14.000Z</time>
      </trkpt>
      <trkpt lat="47.32409" lon="-1.39364">
        <ele>115</ele>
        <time>2021-02-27T12:26:16.000Z</time>
      </trkpt>
      <trkpt lat="47.32397" lon="-1.39357">
        <ele>115</ele>
        <time>2021-02-27T12:26:18.000Z</time>
      </trkpt>
      <trkpt lat="47.32384" lon="-1.39349">
        <ele>115</ele>
        <time>2021-02-27T12:26:20.000Z</time>
      </trkpt>
      <trkpt lat="47.32372" lon="-1.39345">
        <ele>116</ele>
        <time>2021-02-27T12:26:22.000Z</time>
      </trkpt>
      <trkpt lat="47.32359" lon="-1.39342">
        <ele>115</ele>
        <time>2021-02-27T12:26:24.000Z</time>
      </trkpt>
      <trkpt lat="47.32345" lon="-1.3934">
        <ele>115</ele>
        <time>2021-02-27T12:26:26.000Z</time>
      </trkpt>
      <trkpt lat="47.32332" lon="-1.39335">
        <ele>116</ele>
        <time>2021-02-27T12:26:28.000Z</time>
      </trkpt>
      <trkpt lat="47.32319" lon="-1.39327">
        <ele>116</ele>
        <time>2021-02-27T12:26:30.000Z</time>
      </trkpt>
      <trkpt lat="47.32306" lon="-1.39319">
        <ele>116</ele>
        <time>2021-02-27T12:26:32.000Z</time>
      </trkpt>
      <trkpt lat="47.32293" lon="-1.39312">
        <ele>116</ele>
        <time>2021-02-27T12:26:34.000Z</time>
      </trkpt>
      <trkpt lat="47.32281" lon="-1.39304">
        <ele>116</ele>
        <time>2021-02-27T12:26:36.000Z</time>
      </trkpt>
      <trkpt lat="47.32268" lon="-1.39295">
        <ele>117</ele>
        <time>2021-02-27T12:26:38.000Z</time>
      </trkpt>
      <trkpt lat="47.32257" lon="-1.39284">
        <ele>117</ele>
        <time>2021-02-27T12:26:40.000Z</time>
      </trkpt>
      <trkpt lat="47.32247" lon="-1.39271">
        <ele>116</ele>
        <time>2021-02-27T12:26:42.000Z</time>
      </trkpt>
      <trkpt lat="47.32237" lon="-1.39259">
        <ele>117</ele>
        <time>2021-02-27T12:26:44.000Z</time>
      </trkpt>
      <trkpt lat="47.32228" lon="-1.39246">
        <ele>117</ele>
        <time>2021-02-27T12:26:46.000Z</time>
      </trkpt>
      <trkpt lat="47.32219" lon="-1.39235">
        <ele>118</ele>
        <time>2021-02-27T12:26:48.000Z</time>
      </trkpt>
      <trkpt lat="47.3221" lon="-1.39224">
        <ele>118</ele>
        <time>2021-02-27T12:26:50.000Z</time>
      </trkpt>
      <trkpt lat="47.32201" lon="-1.39213">
        <ele>119</ele>
        <time>2021-02-27T12:26:52.000Z</time>
      </trkpt>
      <trkpt lat="47.32192" lon="-1.39202">
        <ele>119</ele>
        <time>2021-02-27T12:26:54.000Z</time>
      </trkpt>
      <trkpt lat="47.32182" lon="-1.39192">
        <ele>119</ele>
        <time>2021-02-27T12:26:56.000Z</time>
      </trkpt>
      <trkpt lat="47.32173" lon="-1.39182">
        <ele>119</ele>
        <time>2021-02-27T12:26:58.000Z</time>
      </trkpt>
      <trkpt lat="47.32163" lon="-1.39173">
        <ele>119</ele>
        <time>2021-02-27T12:27:00.000Z</time>
      </trkpt>
      <trkpt lat="47.32154" lon="-1.39164">
        <ele>119</ele>
        <time>2021-02-27T12:27:02.000Z</time>
      </trkpt>
      <trkpt lat="47.32144" lon="-1.39156">
        <ele>119</ele>
        <time>2021-02-27T12:27:04.000Z</time>
      </trkpt>
      <trkpt lat="47.32133" lon="-1.39147">
        <ele>119</ele>
        <time>2021-02-27T12:27:06.000Z</time>
      </trkpt>
      <trkpt lat="47.32122" lon="-1.39139">
        <ele>119</ele>
        <time>2021-02-27T12:27:08.000Z</time>
      </trkpt>
      <trkpt lat="47.32111" lon="-1.39133">
        <ele>119</ele>
        <time>2021-02-27T12:27:10.000Z</time>
      </trkpt>
      <trkpt lat="47.32101" lon="-1.39127">
        <ele>119</ele>
        <time>2021-02-27T12:27:12.000Z</time>
      </trkpt>
      <trkpt lat="47.32089" lon="-1.39121">
        <ele>120</ele>
        <time>2021-02-27T12:27:14.000Z</time>
      </trkpt>
      <trkpt lat="47.32078" lon="-1.39116">
        <ele>120</ele>
        <time>2021-02-27T12:27:16.000Z</time>
      </trkpt>
      <trkpt lat="47.32066" lon="-1.39111">
        <ele>120</ele>
        <time>2021-02-27T12:27:18.000Z</time>
      </trkpt>
      <trkpt lat="47.32055" lon="-1.39106">
        <ele>121</ele>
        <time>2021-02-27T12:27:20.000Z</time>
      </trkpt>
      <trkpt lat="47.32043" lon="-1.39102">
        <ele>121</ele>
        <time>2021-02-27T12:27:22.000Z</time>
      </trkpt>
      <trkpt lat="47.32032" lon="-1.39097">
        <ele>121</ele>
        <time>2021-02-27T12:27:24.000Z</time>
      </trkpt>
      <trkpt lat="47.3202" lon="-1.39091">
        <ele>122</ele>
        <time>2021-02-27T12:27:26.000Z</time>
      </trkpt>
      <trkpt lat="47.32009" lon="-1.39087">
        <ele>122</ele>
        <time>2021-02-27T12:27:28.000Z</time>
      </trkpt>
      <trkpt lat="47.31997" lon="-1.39082">
        <ele>122</ele>
        <time>2021-02-27T12:27:30.000Z</time>
      </trkpt>
      <trkpt lat="47.31986" lon="-1.39076">
        <ele>122</ele>
        <time>2021-02-27T12:27:32.000Z</time>
      </trkpt>
      <trkpt lat="47.31975" lon="-1.39071">
        <ele>123</ele>
        <time>2021-02-27T12:27:34.000Z</time>
      </trkpt>
      <trkpt lat="47.31964" lon="-1.39066">
        <ele>123</ele>
        <time>2021-02-27T12:27:36.000Z</time>
      </trkpt>
      <trkpt lat="47.31953" lon="-1.39061">
        <ele>123</ele>
        <time>2021-02-27T12:27:38.000Z</time>
      </trkpt>
      <trkpt lat="47.31942" lon="-1.39056">
        <ele>123</ele>
        <time>2021-02-27T12:27:40.000Z</time>
      </trkpt>
      <trkpt lat="47.31931" lon="-1.39051">
        <ele>123</ele>
        <time>2021-02-27T12:27:42.000Z</time>
      </trkpt>
      <trkpt lat="47.3192" lon="-1.39044">
        <ele>123</ele>
        <time>2021-02-27T12:27:44.000Z</time>
      </trkpt>
      <trkpt lat="47.31909" lon="-1.39038">
        <ele>124</ele>
        <time>2021-02-27T12:27:46.000Z</time>
      </trkpt>
      <trkpt lat="47.31897" lon="-1.39033">
        <ele>123</ele>
        <time>2021-02-27T12:27:48.000Z</time>
      </trkpt>
      <trkpt lat="47.31886" lon="-1.39028">
        <ele>123</ele>
        <time>2021-02-27T12:27:50.000Z</time>
      </trkpt>
      <trkpt lat="47.31875" lon="-1.39023">
        <ele>124</ele>
        <time>2021-02-27T12:27:52.000Z</time>
      </trkpt>
      <trkpt lat="47.31864" lon="-1.39016">
        <ele>124</ele>
        <time>2021-02-27T12:27:54.000Z</time>
      </trkpt>
      <trkpt lat="47.31853" lon="-1.39009">
        <ele>123</ele>
        <time>2021-02-27T12:27:56.000Z</time>
      </trkpt>
      <trkpt lat="47.31841" lon="-1.39001">
        <ele>123</ele>
        <time>2021-02-27T12:27:58.000Z</time>
      </trkpt>
      <trkpt lat="47.3183" lon="-1.38994">
        <ele>123</ele>
        <time>2021-02-27T12:28:00.000Z</time>
      </trkpt>
      <trkpt lat="47.31818" lon="-1.38987">
        <ele>123</ele>
        <time>2021-02-27T12:28:02.000Z</time>
      </trkpt>
      <trkpt lat="47.31806" lon="-1.38977">
        <ele>123</ele>
        <time>2021-02-27T12:28:04.000Z</time>
      </trkpt>
      <trkpt lat="47.31795" lon="-1.38969">
        <ele>123</ele>
        <time>2021-02-27T12:28:06.000Z</time>
      </trkpt>
      <trkpt lat="47.31785" lon="-1.3896">
        <ele>123</ele>
        <time>2021-02-27T12:28:08.000Z</time>
      </trkpt>
      <trkpt lat="47.31775" lon="-1.38951">
        <ele>123</ele>
        <time>2021-02-27T12:28:10.000Z</time>
      </trkpt>
      <trkpt lat="47.31765" lon="-1.3894">
        <ele>122</ele>
        <time>2021-02-27T12:28:12.000Z</time>
      </trkpt>
      <trkpt lat="47.31754" lon="-1.3893">
        <ele>122</ele>
        <time>2021-02-27T12:28:14.000Z</time>
      </trkpt>
      <trkpt lat="47.31743" lon="-1.3892">
        <ele>122</ele>
        <time>2021-02-27T12:28:16.000Z</time>
      </trkpt>
      <trkpt lat="47.31731" lon="-1.38912">
        <ele>122</ele>
        <time>2021-02-27T12:28:18.000Z</time>
      </trkpt>
      <trkpt lat="47.31719" lon="-1.38903">
        <ele>121</ele>
        <time>2021-02-27T12:28:20.000Z</time>
      </trkpt>
      <trkpt lat="47.31707" lon="-1.38894">
        <ele>121</ele>
        <time>2021-02-27T12:28:22.000Z</time>
      </trkpt>
      <trkpt lat="47.31694" lon="-1.38885">
        <ele>121</ele>
        <time>2021-02-27T12:28:24.000Z</time>
      </trkpt>
      <trkpt lat="47.31682" lon="-1.38877">
        <ele>121</ele>
        <time>2021-02-27T12:28:26.000Z</time>
      </trkpt>
      <trkpt lat="47.3167" lon="-1.38869">
        <ele>121</ele>
        <time>2021-02-27T12:28:28.000Z</time>
      </trkpt>
      <trkpt lat="47.31659" lon="-1.3886">
        <ele>121</ele>
        <time>2021-02-27T12:28:30.000Z</time>
      </trkpt>
      <trkpt lat="47.31646" lon="-1.38852">
        <ele>121</ele>
        <time>2021-02-27T12:28:32.000Z</time>
      </trkpt>
      <trkpt lat="47.31634" lon="-1.38841">
        <ele>121</ele>
        <time>2021-02-27T12:28:34.000Z</time>
      </trkpt>
      <trkpt lat="47.31623" lon="-1.3883">
        <ele>121</ele>
        <time>2021-02-27T12:28:36.000Z</time>
      </trkpt>
      <trkpt lat="47.31612" lon="-1.38821">
        <ele>121</ele>
        <time>2021-02-27T12:28:38.000Z</time>
      </trkpt>
      <trkpt lat="47.316" lon="-1.38811">
        <ele>120</ele>
        <time>2021-02-27T12:28:40.000Z</time>
      </trkpt>
      <trkpt lat="47.31589" lon="-1.38803">
        <ele>120</ele>
        <time>2021-02-27T12:28:42.000Z</time>
      </trkpt>
      <trkpt lat="47.31577" lon="-1.38795">
        <ele>120</ele>
        <time>2021-02-27T12:28:44.000Z</time>
      </trkpt>
      <trkpt lat="47.31566" lon="-1.38786">
        <ele>121</ele>
        <time>2021-02-27T12:28:46.000Z</time>
      </trkpt>
      <trkpt lat="47.31555" lon="-1.38778">
        <ele>121</ele>
        <time>2021-02-27T12:28:48.000Z</time>
      </trkpt>
      <trkpt lat="47.31543" lon="-1.38772">
        <ele>121</ele>
        <time>2021-02-27T12:28:50.000Z</time>
      </trkpt>
      <trkpt lat="47.31531" lon="-1.38764">
        <ele>121</ele>
        <time>2021-02-27T12:28:52.000Z</time>
      </trkpt>
      <trkpt lat="47.3152" lon="-1.38759">
        <ele>122</ele>
        <time>2021-02-27T12:28:54.000Z</time>
      </trkpt>
      <trkpt lat="47.31508" lon="-1.38753">
        <ele>122</ele>
        <time>2021-02-27T12:28:56.000Z</time>
      </trkpt>
      <trkpt lat="47.31496" lon="-1.38748">
        <ele>122</ele>
        <time>2021-02-27T12:28:58.000Z</time>
      </trkpt>
      <trkpt lat="47.31484" lon="-1.38743">
        <ele>122</ele>
        <time>2021-02-27T12:29:00.000Z</time>
      </trkpt>
      <trkpt lat="47.31473" lon="-1.38738">
        <ele>123</ele>
        <time>2021-02-27T12:29:02.000Z</time>
      </trkpt>
      <trkpt lat="47.31462" lon="-1.38733">
        <ele>123</ele>
        <time>2021-02-27T12:29:04.000Z</time>
      </trkpt>
      <trkpt lat="47.31451" lon="-1.38727">
        <ele>123</ele>
        <time>2021-02-27T12:29:06.000Z</time>
      </trkpt>
      <trkpt lat="47.3144" lon="-1.38722">
        <ele>124</ele>
        <time>2021-02-27T12:29:08.000Z</time>
      </trkpt>
      <trkpt lat="47.31428" lon="-1.38717">
        <ele>124</ele>
        <time>2021-02-27T12:29:10.000Z</time>
      </trkpt>
      <trkpt lat="47.31418" lon="-1.38712">
        <ele>124</ele>
        <time>2021-02-27T12:29:12.000Z</time>
      </trkpt>
      <trkpt lat="47.31407" lon="-1.38706">
        <ele>124</ele>
        <time>2021-02-27T12:29:14.000Z</time>
      </trkpt>
      <trkpt lat="47.31397" lon="-1.38701">
        <ele>124</ele>
        <time>2021-02-27T12:29:16.000Z</time>
      </trkpt>
      <trkpt lat="47.31387" lon="-1.38697">
        <ele>125</ele>
        <time>2021-02-27T12:29:18.000Z</time>
      </trkpt>
      <trkpt lat="47.31376" lon="-1.38692">
        <ele>125</ele>
        <time>2021-02-27T12:29:20.000Z</time>
      </trkpt>
      <trkpt lat="47.31366" lon="-1.38687">
        <ele>125</ele>
        <time>2021-02-27T12:29:22.000Z</time>
      </trkpt>
      <trkpt lat="47.31356" lon="-1.38683">
        <ele>125</ele>
        <time>2021-02-27T12:29:24.000Z</time>
      </trkpt>
      <trkpt lat="47.31345" lon="-1.38677">
        <ele>125</ele>
        <time>2021-02-27T12:29:26.000Z</time>
      </trkpt>
      <trkpt lat="47.31335" lon="-1.38671">
        <ele>125</ele>
        <time>2021-02-27T12:29:28.000Z</time>
      </trkpt>
      <trkpt lat="47.31325" lon="-1.38666">
        <ele>126</ele>
        <time>2021-02-27T12:29:30.000Z</time>
      </trkpt>
      <trkpt lat="47.3131" lon="-1.3866">
        <ele>127</ele>
        <time>2021-02-27T12:29:33.000Z</time>
      </trkpt>
      <trkpt lat="47.31301" lon="-1.38656">
        <ele>127</ele>
        <time>2021-02-27T12:29:35.000Z</time>
      </trkpt>
      <trkpt lat="47.3129" lon="-1.38651">
        <ele>128</ele>
        <time>2021-02-27T12:29:38.000Z</time>
      </trkpt>
      <trkpt lat="47.3128" lon="-1.38647">
        <ele>128</ele>
        <time>2021-02-27T12:29:45.000Z</time>
      </trkpt>
      <trkpt lat="47.31264" lon="-1.38643">
        <ele>128</ele>
        <time>2021-02-27T12:29:56.000Z</time>
      </trkpt>
      <trkpt lat="47.31256" lon="-1.38633">
        <ele>128</ele>
        <time>2021-02-27T12:29:58.000Z</time>
      </trkpt>
      <trkpt lat="47.31246" lon="-1.38625">
        <ele>127</ele>
        <time>2021-02-27T12:30:00.000Z</time>
      </trkpt>
      <trkpt lat="47.31236" lon="-1.38615">
        <ele>128</ele>
        <time>2021-02-27T12:30:02.000Z</time>
      </trkpt>
      <trkpt lat="47.31226" lon="-1.38607">
        <ele>128</ele>
        <time>2021-02-27T12:30:04.000Z</time>
      </trkpt>
      <trkpt lat="47.31216" lon="-1.38598">
        <ele>127</ele>
        <time>2021-02-27T12:30:06.000Z</time>
      </trkpt>
      <trkpt lat="47.31206" lon="-1.38588">
        <ele>128</ele>
        <time>2021-02-27T12:30:08.000Z</time>
      </trkpt>
      <trkpt lat="47.31197" lon="-1.3858">
        <ele>129</ele>
        <time>2021-02-27T12:30:10.000Z</time>
      </trkpt>
      <trkpt lat="47.31183" lon="-1.38567">
        <ele>129</ele>
        <time>2021-02-27T12:30:13.000Z</time>
      </trkpt>
      <trkpt lat="47.31172" lon="-1.38558">
        <ele>129</ele>
        <time>2021-02-27T12:30:15.000Z</time>
      </trkpt>
      <trkpt lat="47.31163" lon="-1.38549">
        <ele>130</ele>
        <time>2021-02-27T12:30:17.000Z</time>
      </trkpt>
      <trkpt lat="47.31153" lon="-1.3854">
        <ele>130</ele>
        <time>2021-02-27T12:30:19.000Z</time>
      </trkpt>
      <trkpt lat="47.31144" lon="-1.38532">
        <ele>130</ele>
        <time>2021-02-27T12:30:21.000Z</time>
      </trkpt>
      <trkpt lat="47.31134" lon="-1.38524">
        <ele>131</ele>
        <time>2021-02-27T12:30:23.000Z</time>
      </trkpt>
      <trkpt lat="47.31124" lon="-1.38516">
        <ele>131</ele>
        <time>2021-02-27T12:30:25.000Z</time>
      </trkpt>
      <trkpt lat="47.31114" lon="-1.38506">
        <ele>130</ele>
        <time>2021-02-27T12:30:27.000Z</time>
      </trkpt>
      <trkpt lat="47.31104" lon="-1.38497">
        <ele>130</ele>
        <time>2021-02-27T12:30:29.000Z</time>
      </trkpt>
      <trkpt lat="47.31093" lon="-1.38488">
        <ele>129</ele>
        <time>2021-02-27T12:30:31.000Z</time>
      </trkpt>
      <trkpt lat="47.31083" lon="-1.38478">
        <ele>129</ele>
        <time>2021-02-27T12:30:33.000Z</time>
      </trkpt>
      <trkpt lat="47.31074" lon="-1.3847">
        <ele>130</ele>
        <time>2021-02-27T12:30:35.000Z</time>
      </trkpt>
      <trkpt lat="47.31065" lon="-1.38461">
        <ele>130</ele>
        <time>2021-02-27T12:30:37.000Z</time>
      </trkpt>
      <trkpt lat="47.31055" lon="-1.38453">
        <ele>130</ele>
        <time>2021-02-27T12:30:39.000Z</time>
      </trkpt>
      <trkpt lat="47.31045" lon="-1.38444">
        <ele>131</ele>
        <time>2021-02-27T12:30:41.000Z</time>
      </trkpt>
      <trkpt lat="47.31035" lon="-1.38435">
        <ele>131</ele>
        <time>2021-02-27T12:30:43.000Z</time>
      </trkpt>
      <trkpt lat="47.31026" lon="-1.38427">
        <ele>130</ele>
        <time>2021-02-27T12:30:45.000Z</time>
      </trkpt>
      <trkpt lat="47.31016" lon="-1.38416">
        <ele>130</ele>
        <time>2021-02-27T12:30:47.000Z</time>
      </trkpt>
      <trkpt lat="47.31006" lon="-1.38406">
        <ele>130</ele>
        <time>2021-02-27T12:30:49.000Z</time>
      </trkpt>
      <trkpt lat="47.30997" lon="-1.38395">
        <ele>130</ele>
        <time>2021-02-27T12:30:51.000Z</time>
      </trkpt>
      <trkpt lat="47.30987" lon="-1.38384">
        <ele>130</ele>
        <time>2021-02-27T12:30:53.000Z</time>
      </trkpt>
      <trkpt lat="47.30978" lon="-1.38374">
        <ele>129</ele>
        <time>2021-02-27T12:30:55.000Z</time>
      </trkpt>
      <trkpt lat="47.30969" lon="-1.38363">
        <ele>129</ele>
        <time>2021-02-27T12:30:57.000Z</time>
      </trkpt>
      <trkpt lat="47.30959" lon="-1.38351">
        <ele>129</ele>
        <time>2021-02-27T12:30:59.000Z</time>
      </trkpt>
      <trkpt lat="47.3095" lon="-1.3834">
        <ele>129</ele>
        <time>2021-02-27T12:31:01.000Z</time>
      </trkpt>
      <trkpt lat="47.3094" lon="-1.38329">
        <ele>129</ele>
        <time>2021-02-27T12:31:03.000Z</time>
      </trkpt>
      <trkpt lat="47.30931" lon="-1.38319">
        <ele>128</ele>
        <time>2021-02-27T12:31:05.000Z</time>
      </trkpt>
      <trkpt lat="47.30921" lon="-1.38308">
        <ele>128</ele>
        <time>2021-02-27T12:31:07.000Z</time>
      </trkpt>
      <trkpt lat="47.30912" lon="-1.38298">
        <ele>128</ele>
        <time>2021-02-27T12:31:09.000Z</time>
      </trkpt>
      <trkpt lat="47.30903" lon="-1.38287">
        <ele>127</ele>
        <time>2021-02-27T12:31:11.000Z</time>
      </trkpt>
      <trkpt lat="47.30894" lon="-1.38277">
        <ele>127</ele>
        <time>2021-02-27T12:31:13.000Z</time>
      </trkpt>
      <trkpt lat="47.30883" lon="-1.38271">
        <ele>127</ele>
        <time>2021-02-27T12:31:15.000Z</time>
      </trkpt>
      <trkpt lat="47.30872" lon="-1.38274">
        <ele>127</ele>
        <time>2021-02-27T12:31:17.000Z</time>
      </trkpt>
      <trkpt lat="47.30861" lon="-1.38283">
        <ele>126</ele>
        <time>2021-02-27T12:31:19.000Z</time>
      </trkpt>
      <trkpt lat="47.3085" lon="-1.38294">
        <ele>126</ele>
        <time>2021-02-27T12:31:21.000Z</time>
      </trkpt>
      <trkpt lat="47.30841" lon="-1.38308">
        <ele>126</ele>
        <time>2021-02-27T12:31:23.000Z</time>
      </trkpt>
      <trkpt lat="47.30832" lon="-1.38323">
        <ele>126</ele>
        <time>2021-02-27T12:31:25.000Z</time>
      </trkpt>
      <trkpt lat="47.30821" lon="-1.38339">
        <ele>126</ele>
        <time>2021-02-27T12:31:27.000Z</time>
      </trkpt>
      <trkpt lat="47.3081" lon="-1.38355">
        <ele>126</ele>
        <time>2021-02-27T12:31:29.000Z</time>
      </trkpt>
      <trkpt lat="47.30799" lon="-1.38372">
        <ele>126</ele>
        <time>2021-02-27T12:31:31.000Z</time>
      </trkpt>
      <trkpt lat="47.30788" lon="-1.38387">
        <ele>126</ele>
        <time>2021-02-27T12:31:33.000Z</time>
      </trkpt>
      <trkpt lat="47.30776" lon="-1.38402">
        <ele>125</ele>
        <time>2021-02-27T12:31:35.000Z</time>
      </trkpt>
      <trkpt lat="47.30765" lon="-1.38417">
        <ele>125</ele>
        <time>2021-02-27T12:31:37.000Z</time>
      </trkpt>
      <trkpt lat="47.30753" lon="-1.38432">
        <ele>124</ele>
        <time>2021-02-27T12:31:39.000Z</time>
      </trkpt>
      <trkpt lat="47.30742" lon="-1.38447">
        <ele>125</ele>
        <time>2021-02-27T12:31:41.000Z</time>
      </trkpt>
      <trkpt lat="47.30729" lon="-1.3846">
        <ele>124</ele>
        <time>2021-02-27T12:31:43.000Z</time>
      </trkpt>
      <trkpt lat="47.30715" lon="-1.38474">
        <ele>123</ele>
        <time>2021-02-27T12:31:45.000Z</time>
      </trkpt>
      <trkpt lat="47.30701" lon="-1.38485">
        <ele>123</ele>
        <time>2021-02-27T12:31:47.000Z</time>
      </trkpt>
      <trkpt lat="47.30688" lon="-1.38497">
        <ele>123</ele>
        <time>2021-02-27T12:31:49.000Z</time>
      </trkpt>
      <trkpt lat="47.30674" lon="-1.38508">
        <ele>123</ele>
        <time>2021-02-27T12:31:51.000Z</time>
      </trkpt>
      <trkpt lat="47.30661" lon="-1.38518">
        <ele>123</ele>
        <time>2021-02-27T12:31:53.000Z</time>
      </trkpt>
      <trkpt lat="47.30647" lon="-1.38527">
        <ele>122</ele>
        <time>2021-02-27T12:31:55.000Z</time>
      </trkpt>
      <trkpt lat="47.30627" lon="-1.3854">
        <ele>122</ele>
        <time>2021-02-27T12:31:58.000Z</time>
      </trkpt>
      <trkpt lat="47.30613" lon="-1.38548">
        <ele>122</ele>
        <time>2021-02-27T12:32:00.000Z</time>
      </trkpt>
      <trkpt lat="47.30601" lon="-1.38556">
        <ele>122</ele>
        <time>2021-02-27T12:32:02.000Z</time>
      </trkpt>
      <trkpt lat="47.30588" lon="-1.38565">
        <ele>122</ele>
        <time>2021-02-27T12:32:04.000Z</time>
      </trkpt>
      <trkpt lat="47.30575" lon="-1.38574">
        <ele>122</ele>
        <time>2021-02-27T12:32:06.000Z</time>
      </trkpt>
      <trkpt lat="47.30563" lon="-1.38582">
        <ele>122</ele>
        <time>2021-02-27T12:32:08.000Z</time>
      </trkpt>
      <trkpt lat="47.3055" lon="-1.3859">
        <ele>123</ele>
        <time>2021-02-27T12:32:10.000Z</time>
      </trkpt>
      <trkpt lat="47.30537" lon="-1.38599">
        <ele>122</ele>
        <time>2021-02-27T12:32:12.000Z</time>
      </trkpt>
      <trkpt lat="47.30524" lon="-1.38606">
        <ele>122</ele>
        <time>2021-02-27T12:32:14.000Z</time>
      </trkpt>
      <trkpt lat="47.30511" lon="-1.38614">
        <ele>122</ele>
        <time>2021-02-27T12:32:16.000Z</time>
      </trkpt>
      <trkpt lat="47.30498" lon="-1.38621">
        <ele>121</ele>
        <time>2021-02-27T12:32:18.000Z</time>
      </trkpt>
      <trkpt lat="47.30484" lon="-1.38625">
        <ele>121</ele>
        <time>2021-02-27T12:32:20.000Z</time>
      </trkpt>
      <trkpt lat="47.30469" lon="-1.38627">
        <ele>122</ele>
        <time>2021-02-27T12:32:22.000Z</time>
      </trkpt>
      <trkpt lat="47.30456" lon="-1.38626">
        <ele>122</ele>
        <time>2021-02-27T12:32:24.000Z</time>
      </trkpt>
      <trkpt lat="47.30443" lon="-1.38626">
        <ele>121</ele>
        <time>2021-02-27T12:32:26.000Z</time>
      </trkpt>
      <trkpt lat="47.3043" lon="-1.38626">
        <ele>122</ele>
        <time>2021-02-27T12:32:28.000Z</time>
      </trkpt>
      <trkpt lat="47.30416" lon="-1.38622">
        <ele>122</ele>
        <time>2021-02-27T12:32:30.000Z</time>
      </trkpt>
      <trkpt lat="47.30401" lon="-1.38618">
        <ele>122</ele>
        <time>2021-02-27T12:32:32.000Z</time>
      </trkpt>
      <trkpt lat="47.30388" lon="-1.38612">
        <ele>122</ele>
        <time>2021-02-27T12:32:34.000Z</time>
      </trkpt>
      <trkpt lat="47.30376" lon="-1.38604">
        <ele>122</ele>
        <time>2021-02-27T12:32:36.000Z</time>
      </trkpt>
      <trkpt lat="47.30363" lon="-1.38595">
        <ele>121</ele>
        <time>2021-02-27T12:32:38.000Z</time>
      </trkpt>
      <trkpt lat="47.30348" lon="-1.38588">
        <ele>120</ele>
        <time>2021-02-27T12:32:40.000Z</time>
      </trkpt>
      <trkpt lat="47.30332" lon="-1.38585">
        <ele>121</ele>
        <time>2021-02-27T12:32:42.000Z</time>
      </trkpt>
      <trkpt lat="47.30317" lon="-1.38586">
        <ele>121</ele>
        <time>2021-02-27T12:32:44.000Z</time>
      </trkpt>
      <trkpt lat="47.30302" lon="-1.38588">
        <ele>122</ele>
        <time>2021-02-27T12:32:46.000Z</time>
      </trkpt>
      <trkpt lat="47.30288" lon="-1.38591">
        <ele>122</ele>
        <time>2021-02-27T12:32:48.000Z</time>
      </trkpt>
      <trkpt lat="47.30274" lon="-1.38593">
        <ele>121</ele>
        <time>2021-02-27T12:32:50.000Z</time>
      </trkpt>
      <trkpt lat="47.3026" lon="-1.38596">
        <ele>121</ele>
        <time>2021-02-27T12:32:52.000Z</time>
      </trkpt>
      <trkpt lat="47.30245" lon="-1.38599">
        <ele>121</ele>
        <time>2021-02-27T12:32:54.000Z</time>
      </trkpt>
      <trkpt lat="47.3023" lon="-1.38601">
        <ele>121</ele>
        <time>2021-02-27T12:32:56.000Z</time>
      </trkpt>
      <trkpt lat="47.30215" lon="-1.38604">
        <ele>120</ele>
        <time>2021-02-27T12:32:58.000Z</time>
      </trkpt>
      <trkpt lat="47.30201" lon="-1.38607">
        <ele>120</ele>
        <time>2021-02-27T12:33:00.000Z</time>
      </trkpt>
      <trkpt lat="47.30188" lon="-1.38617">
        <ele>119</ele>
        <time>2021-02-27T12:33:02.000Z</time>
      </trkpt>
      <trkpt lat="47.30175" lon="-1.38628">
        <ele>119</ele>
        <time>2021-02-27T12:33:04.000Z</time>
      </trkpt>
      <trkpt lat="47.3016" lon="-1.38638">
        <ele>119</ele>
        <time>2021-02-27T12:33:06.000Z</time>
      </trkpt>
      <trkpt lat="47.30146" lon="-1.38648">
        <ele>119</ele>
        <time>2021-02-27T12:33:08.000Z</time>
      </trkpt>
      <trkpt lat="47.3013" lon="-1.38658">
        <ele>119</ele>
        <time>2021-02-27T12:33:10.000Z</time>
      </trkpt>
      <trkpt lat="47.30116" lon="-1.38668">
        <ele>118</ele>
        <time>2021-02-27T12:33:12.000Z</time>
      </trkpt>
      <trkpt lat="47.301" lon="-1.38678">
        <ele>118</ele>
        <time>2021-02-27T12:33:14.000Z</time>
      </trkpt>
      <trkpt lat="47.30085" lon="-1.38688">
        <ele>117</ele>
        <time>2021-02-27T12:33:16.000Z</time>
      </trkpt>
      <trkpt lat="47.3007" lon="-1.38699">
        <ele>117</ele>
        <time>2021-02-27T12:33:18.000Z</time>
      </trkpt>
      <trkpt lat="47.30054" lon="-1.3871">
        <ele>116</ele>
        <time>2021-02-27T12:33:20.000Z</time>
      </trkpt>
      <trkpt lat="47.30038" lon="-1.38721">
        <ele>116</ele>
        <time>2021-02-27T12:33:22.000Z</time>
      </trkpt>
      <trkpt lat="47.30029" lon="-1.38727">
        <ele>115</ele>
        <time>2021-02-27T12:33:23.000Z</time>
      </trkpt>
      <trkpt lat="47.30021" lon="-1.38733">
        <ele>115</ele>
        <time>2021-02-27T12:33:24.000Z</time>
      </trkpt>
      <trkpt lat="47.30013" lon="-1.38739">
        <ele>114</ele>
        <time>2021-02-27T12:33:25.000Z</time>
      </trkpt>
      <trkpt lat="47.30004" lon="-1.38746">
        <ele>114</ele>
        <time>2021-02-27T12:33:26.000Z</time>
      </trkpt>
      <trkpt lat="47.29996" lon="-1.38753">
        <ele>113</ele>
        <time>2021-02-27T12:33:27.000Z</time>
      </trkpt>
      <trkpt lat="47.29988" lon="-1.3876">
        <ele>112</ele>
        <time>2021-02-27T12:33:28.000Z</time>
      </trkpt>
      <trkpt lat="47.2998" lon="-1.38768">
        <ele>112</ele>
        <time>2021-02-27T12:33:29.000Z</time>
      </trkpt>
      <trkpt lat="47.29971" lon="-1.38775">
        <ele>112</ele>
        <time>2021-02-27T12:33:30.000Z</time>
      </trkpt>
      <trkpt lat="47.29963" lon="-1.38783">
        <ele>112</ele>
        <time>2021-02-27T12:33:31.000Z</time>
      </trkpt>
      <trkpt lat="47.29954" lon="-1.38791">
        <ele>111</ele>
        <time>2021-02-27T12:33:32.000Z</time>
      </trkpt>
      <trkpt lat="47.29946" lon="-1.38799">
        <ele>110</ele>
        <time>2021-02-27T12:33:33.000Z</time>
      </trkpt>
      <trkpt lat="47.29937" lon="-1.38806">
        <ele>110</ele>
        <time>2021-02-27T12:33:34.000Z</time>
      </trkpt>
      <trkpt lat="47.29928" lon="-1.38814">
        <ele>109</ele>
        <time>2021-02-27T12:33:35.000Z</time>
      </trkpt>
      <trkpt lat="47.2992" lon="-1.38822">
        <ele>109</ele>
        <time>2021-02-27T12:33:36.000Z</time>
      </trkpt>
      <trkpt lat="47.29905" lon="-1.38836">
        <ele>108</ele>
        <time>2021-02-27T12:33:38.000Z</time>
      </trkpt>
      <trkpt lat="47.29896" lon="-1.38839">
        <ele>108</ele>
        <time>2021-02-27T12:33:39.000Z</time>
      </trkpt>
      <trkpt lat="47.29886" lon="-1.38838">
        <ele>107</ele>
        <time>2021-02-27T12:33:40.000Z</time>
      </trkpt>
      <trkpt lat="47.29868" lon="-1.38838">
        <ele>105</ele>
        <time>2021-02-27T12:33:42.000Z</time>
      </trkpt>
      <trkpt lat="47.29858" lon="-1.38839">
        <ele>104</ele>
        <time>2021-02-27T12:33:43.000Z</time>
      </trkpt>
      <trkpt lat="47.29847" lon="-1.38839">
        <ele>104</ele>
        <time>2021-02-27T12:33:44.000Z</time>
      </trkpt>
      <trkpt lat="47.29835" lon="-1.38839">
        <ele>103</ele>
        <time>2021-02-27T12:33:45.000Z</time>
      </trkpt>
      <trkpt lat="47.29824" lon="-1.38839">
        <ele>102</ele>
        <time>2021-02-27T12:33:46.000Z</time>
      </trkpt>
      <trkpt lat="47.29812" lon="-1.38842">
        <ele>101</ele>
        <time>2021-02-27T12:33:47.000Z</time>
      </trkpt>
      <trkpt lat="47.298" lon="-1.38845">
        <ele>100</ele>
        <time>2021-02-27T12:33:48.000Z</time>
      </trkpt>
      <trkpt lat="47.29789" lon="-1.38852">
        <ele>98</ele>
        <time>2021-02-27T12:33:49.000Z</time>
      </trkpt>
      <trkpt lat="47.29777" lon="-1.38861">
        <ele>97</ele>
        <time>2021-02-27T12:33:50.000Z</time>
      </trkpt>
      <trkpt lat="47.29764" lon="-1.38871">
        <ele>95</ele>
        <time>2021-02-27T12:33:51.000Z</time>
      </trkpt>
      <trkpt lat="47.29752" lon="-1.38881">
        <ele>93</ele>
        <time>2021-02-27T12:33:52.000Z</time>
      </trkpt>
      <trkpt lat="47.29739" lon="-1.38891">
        <ele>91</ele>
        <time>2021-02-27T12:33:53.000Z</time>
      </trkpt>
      <trkpt lat="47.29726" lon="-1.389">
        <ele>89</ele>
        <time>2021-02-27T12:33:54.000Z</time>
      </trkpt>
      <trkpt lat="47.29712" lon="-1.38909">
        <ele>87</ele>
        <time>2021-02-27T12:33:55.000Z</time>
      </trkpt>
      <trkpt lat="47.29697" lon="-1.38915">
        <ele>84</ele>
        <time>2021-02-27T12:33:56.000Z</time>
      </trkpt>
      <trkpt lat="47.29683" lon="-1.3892">
        <ele>81</ele>
        <time>2021-02-27T12:33:57.000Z</time>
      </trkpt>
      <trkpt lat="47.29668" lon="-1.38924">
        <ele>79</ele>
        <time>2021-02-27T12:33:58.000Z</time>
      </trkpt>
      <trkpt lat="47.29653" lon="-1.38926">
        <ele>77</ele>
        <time>2021-02-27T12:33:59.000Z</time>
      </trkpt>
      <trkpt lat="47.29638" lon="-1.38926">
        <ele>75</ele>
        <time>2021-02-27T12:34:00.000Z</time>
      </trkpt>
      <trkpt lat="47.29622" lon="-1.38923">
        <ele>72</ele>
        <time>2021-02-27T12:34:01.000Z</time>
      </trkpt>
      <trkpt lat="47.29606" lon="-1.38919">
        <ele>69</ele>
        <time>2021-02-27T12:34:02.000Z</time>
      </trkpt>
      <trkpt lat="47.2959" lon="-1.38913">
        <ele>67</ele>
        <time>2021-02-27T12:34:03.000Z</time>
      </trkpt>
      <trkpt lat="47.29575" lon="-1.38907">
        <ele>65</ele>
        <time>2021-02-27T12:34:04.000Z</time>
      </trkpt>
      <trkpt lat="47.2956" lon="-1.389">
        <ele>62</ele>
        <time>2021-02-27T12:34:05.000Z</time>
      </trkpt>
      <trkpt lat="47.29544" lon="-1.38893">
        <ele>60</ele>
        <time>2021-02-27T12:34:06.000Z</time>
      </trkpt>
      <trkpt lat="47.2953" lon="-1.38885">
        <ele>59</ele>
        <time>2021-02-27T12:34:07.000Z</time>
      </trkpt>
      <trkpt lat="47.29515" lon="-1.38879">
        <ele>58</ele>
        <time>2021-02-27T12:34:08.000Z</time>
      </trkpt>
      <trkpt lat="47.29501" lon="-1.38874">
        <ele>57</ele>
        <time>2021-02-27T12:34:09.000Z</time>
      </trkpt>
      <trkpt lat="47.29488" lon="-1.3887">
        <ele>57</ele>
        <time>2021-02-27T12:34:10.000Z</time>
      </trkpt>
      <trkpt lat="47.29476" lon="-1.38867">
        <ele>56</ele>
        <time>2021-02-27T12:34:11.000Z</time>
      </trkpt>
      <trkpt lat="47.29467" lon="-1.38865">
        <ele>56</ele>
        <time>2021-02-27T12:34:12.000Z</time>
      </trkpt>
      <trkpt lat="47.29453" lon="-1.38862">
        <ele>55</ele>
        <time>2021-02-27T12:34:14.000Z</time>
      </trkpt>
      <trkpt lat="47.29441" lon="-1.38861">
        <ele>55</ele>
        <time>2021-02-27T12:34:17.000Z</time>
      </trkpt>
      <trkpt lat="47.29436" lon="-1.38844">
        <ele>55</ele>
        <time>2021-02-27T12:34:20.000Z</time>
      </trkpt>
      <trkpt lat="47.29433" lon="-1.3883">
        <ele>55</ele>
        <time>2021-02-27T12:34:22.000Z</time>
      </trkpt>
      <trkpt lat="47.29426" lon="-1.3882">
        <ele>55</ele>
        <time>2021-02-27T12:34:24.000Z</time>
      </trkpt>
      <trkpt lat="47.29416" lon="-1.3881">
        <ele>56</ele>
        <time>2021-02-27T12:34:26.000Z</time>
      </trkpt>
      <trkpt lat="47.29407" lon="-1.38798">
        <ele>56</ele>
        <time>2021-02-27T12:34:28.000Z</time>
      </trkpt>
      <trkpt lat="47.29398" lon="-1.38786">
        <ele>56</ele>
        <time>2021-02-27T12:34:30.000Z</time>
      </trkpt>
      <trkpt lat="47.29389" lon="-1.38773">
        <ele>55</ele>
        <time>2021-02-27T12:34:32.000Z</time>
      </trkpt>
      <trkpt lat="47.2938" lon="-1.38762">
        <ele>55</ele>
        <time>2021-02-27T12:34:34.000Z</time>
      </trkpt>
      <trkpt lat="47.29372" lon="-1.38752">
        <ele>55</ele>
        <time>2021-02-27T12:34:36.000Z</time>
      </trkpt>
      <trkpt lat="47.29366" lon="-1.38743">
        <ele>54</ele>
        <time>2021-02-27T12:34:38.000Z</time>
      </trkpt>
      <trkpt lat="47.29357" lon="-1.38736">
        <ele>55</ele>
        <time>2021-02-27T12:34:40.000Z</time>
      </trkpt>
      <trkpt lat="47.29348" lon="-1.38731">
        <ele>54</ele>
        <time>2021-02-27T12:34:42.000Z</time>
      </trkpt>
      <trkpt lat="47.29332" lon="-1.38719">
        <ele>55</ele>
        <time>2021-02-27T12:34:46.000Z</time>
      </trkpt>
      <trkpt lat="47.29325" lon="-1.38731">
        <ele>54</ele>
        <time>2021-02-27T12:34:50.000Z</time>
      </trkpt>
      <trkpt lat="47.29322" lon="-1.38751">
        <ele>54</ele>
        <time>2021-02-27T12:34:53.000Z</time>
      </trkpt>
      <trkpt lat="47.29317" lon="-1.38765">
        <ele>53</ele>
        <time>2021-02-27T12:34:55.000Z</time>
      </trkpt>
      <trkpt lat="47.29313" lon="-1.3878">
        <ele>53</ele>
        <time>2021-02-27T12:34:57.000Z</time>
      </trkpt>
      <trkpt lat="47.29309" lon="-1.38796">
        <ele>53</ele>
        <time>2021-02-27T12:34:59.000Z</time>
      </trkpt>
      <trkpt lat="47.29305" lon="-1.38814">
        <ele>53</ele>
        <time>2021-02-27T12:35:01.000Z</time>
      </trkpt>
      <trkpt lat="47.293" lon="-1.38832">
        <ele>52</ele>
        <time>2021-02-27T12:35:03.000Z</time>
      </trkpt>
      <trkpt lat="47.29295" lon="-1.3885">
        <ele>52</ele>
        <time>2021-02-27T12:35:05.000Z</time>
      </trkpt>
      <trkpt lat="47.29291" lon="-1.38869">
        <ele>52</ele>
        <time>2021-02-27T12:35:07.000Z</time>
      </trkpt>
      <trkpt lat="47.29286" lon="-1.38887">
        <ele>53</ele>
        <time>2021-02-27T12:35:09.000Z</time>
      </trkpt>
      <trkpt lat="47.29281" lon="-1.38906">
        <ele>53</ele>
        <time>2021-02-27T12:35:11.000Z</time>
      </trkpt>
      <trkpt lat="47.29276" lon="-1.38924">
        <ele>53</ele>
        <time>2021-02-27T12:35:13.000Z</time>
      </trkpt>
      <trkpt lat="47.2927" lon="-1.38943">
        <ele>53</ele>
        <time>2021-02-27T12:35:15.000Z</time>
      </trkpt>
      <trkpt lat="47.29266" lon="-1.38962">
        <ele>53</ele>
        <time>2021-02-27T12:35:17.000Z</time>
      </trkpt>
      <trkpt lat="47.2926" lon="-1.38981">
        <ele>52</ele>
        <time>2021-02-27T12:35:19.000Z</time>
      </trkpt>
      <trkpt lat="47.29256" lon="-1.39">
        <ele>53</ele>
        <time>2021-02-27T12:35:21.000Z</time>
      </trkpt>
      <trkpt lat="47.29251" lon="-1.39019">
        <ele>53</ele>
        <time>2021-02-27T12:35:23.000Z</time>
      </trkpt>
      <trkpt lat="47.29246" lon="-1.39037">
        <ele>53</ele>
        <time>2021-02-27T12:35:25.000Z</time>
      </trkpt>
      <trkpt lat="47.2924" lon="-1.39054">
        <ele>53</ele>
        <time>2021-02-27T12:35:27.000Z</time>
      </trkpt>
      <trkpt lat="47.29235" lon="-1.39072">
        <ele>53</ele>
        <time>2021-02-27T12:35:29.000Z</time>
      </trkpt>
      <trkpt lat="47.29229" lon="-1.3909">
        <ele>54</ele>
        <time>2021-02-27T12:35:31.000Z</time>
      </trkpt>
      <trkpt lat="47.29221" lon="-1.39106">
        <ele>54</ele>
        <time>2021-02-27T12:35:33.000Z</time>
      </trkpt>
      <trkpt lat="47.29212" lon="-1.39121">
        <ele>53</ele>
        <time>2021-02-27T12:35:35.000Z</time>
      </trkpt>
      <trkpt lat="47.29202" lon="-1.39134">
        <ele>53</ele>
        <time>2021-02-27T12:35:37.000Z</time>
      </trkpt>
      <trkpt lat="47.2919" lon="-1.39148">
        <ele>53</ele>
        <time>2021-02-27T12:35:39.000Z</time>
      </trkpt>
      <trkpt lat="47.29179" lon="-1.39161">
        <ele>53</ele>
        <time>2021-02-27T12:35:41.000Z</time>
      </trkpt>
      <trkpt lat="47.29169" lon="-1.39173">
        <ele>53</ele>
        <time>2021-02-27T12:35:43.000Z</time>
      </trkpt>
      <trkpt lat="47.29158" lon="-1.39187">
        <ele>53</ele>
        <time>2021-02-27T12:35:45.000Z</time>
      </trkpt>
      <trkpt lat="47.29147" lon="-1.392">
        <ele>53</ele>
        <time>2021-02-27T12:35:47.000Z</time>
      </trkpt>
      <trkpt lat="47.29136" lon="-1.39213">
        <ele>53</ele>
        <time>2021-02-27T12:35:49.000Z</time>
      </trkpt>
      <trkpt lat="47.29125" lon="-1.39225">
        <ele>53</ele>
        <time>2021-02-27T12:35:51.000Z</time>
      </trkpt>
      <trkpt lat="47.29114" lon="-1.39238">
        <ele>53</ele>
        <time>2021-02-27T12:35:53.000Z</time>
      </trkpt>
      <trkpt lat="47.29104" lon="-1.39253">
        <ele>53</ele>
        <time>2021-02-27T12:35:55.000Z</time>
      </trkpt>
      <trkpt lat="47.29096" lon="-1.39268">
        <ele>53</ele>
        <time>2021-02-27T12:35:57.000Z</time>
      </trkpt>
      <trkpt lat="47.29087" lon="-1.39283">
        <ele>53</ele>
        <time>2021-02-27T12:35:59.000Z</time>
      </trkpt>
      <trkpt lat="47.29078" lon="-1.39296">
        <ele>53</ele>
        <time>2021-02-27T12:36:01.000Z</time>
      </trkpt>
      <trkpt lat="47.29067" lon="-1.39308">
        <ele>54</ele>
        <time>2021-02-27T12:36:03.000Z</time>
      </trkpt>
      <trkpt lat="47.29056" lon="-1.39318">
        <ele>54</ele>
        <time>2021-02-27T12:36:05.000Z</time>
      </trkpt>
      <trkpt lat="47.29046" lon="-1.39331">
        <ele>54</ele>
        <time>2021-02-27T12:36:07.000Z</time>
      </trkpt>
      <trkpt lat="47.29036" lon="-1.39344">
        <ele>54</ele>
        <time>2021-02-27T12:36:09.000Z</time>
      </trkpt>
      <trkpt lat="47.29025" lon="-1.39356">
        <ele>54</ele>
        <time>2021-02-27T12:36:11.000Z</time>
      </trkpt>
      <trkpt lat="47.29015" lon="-1.39369">
        <ele>54</ele>
        <time>2021-02-27T12:36:13.000Z</time>
      </trkpt>
      <trkpt lat="47.29007" lon="-1.39383">
        <ele>55</ele>
        <time>2021-02-27T12:36:15.000Z</time>
      </trkpt>
      <trkpt lat="47.28997" lon="-1.39397">
        <ele>55</ele>
        <time>2021-02-27T12:36:17.000Z</time>
      </trkpt>
      <trkpt lat="47.28987" lon="-1.3941">
        <ele>55</ele>
        <time>2021-02-27T12:36:19.000Z</time>
      </trkpt>
      <trkpt lat="47.28977" lon="-1.39422">
        <ele>55</ele>
        <time>2021-02-27T12:36:21.000Z</time>
      </trkpt>
      <trkpt lat="47.28967" lon="-1.39435">
        <ele>55</ele>
        <time>2021-02-27T12:36:23.000Z</time>
      </trkpt>
      <trkpt lat="47.28956" lon="-1.39448">
        <ele>56</ele>
        <time>2021-02-27T12:36:25.000Z</time>
      </trkpt>
      <trkpt lat="47.28946" lon="-1.3946">
        <ele>56</ele>
        <time>2021-02-27T12:36:27.000Z</time>
      </trkpt>
      <trkpt lat="47.28934" lon="-1.39473">
        <ele>55</ele>
        <time>2021-02-27T12:36:29.000Z</time>
      </trkpt>
      <trkpt lat="47.28923" lon="-1.39487">
        <ele>55</ele>
        <time>2021-02-27T12:36:31.000Z</time>
      </trkpt>
      <trkpt lat="47.28913" lon="-1.395">
        <ele>55</ele>
        <time>2021-02-27T12:36:33.000Z</time>
      </trkpt>
      <trkpt lat="47.28902" lon="-1.39512">
        <ele>54</ele>
        <time>2021-02-27T12:36:35.000Z</time>
      </trkpt>
      <trkpt lat="47.28891" lon="-1.39525">
        <ele>54</ele>
        <time>2021-02-27T12:36:37.000Z</time>
      </trkpt>
      <trkpt lat="47.28881" lon="-1.39537">
        <ele>54</ele>
        <time>2021-02-27T12:36:39.000Z</time>
      </trkpt>
      <trkpt lat="47.28871" lon="-1.3955">
        <ele>54</ele>
        <time>2021-02-27T12:36:41.000Z</time>
      </trkpt>
      <trkpt lat="47.2886" lon="-1.39562">
        <ele>54</ele>
        <time>2021-02-27T12:36:43.000Z</time>
      </trkpt>
      <trkpt lat="47.2885" lon="-1.39575">
        <ele>54</ele>
        <time>2021-02-27T12:36:45.000Z</time>
      </trkpt>
      <trkpt lat="47.2884" lon="-1.39588">
        <ele>54</ele>
        <time>2021-02-27T12:36:47.000Z</time>
      </trkpt>
      <trkpt lat="47.28829" lon="-1.39601">
        <ele>54</ele>
        <time>2021-02-27T12:36:49.000Z</time>
      </trkpt>
      <trkpt lat="47.28819" lon="-1.39613">
        <ele>54</ele>
        <time>2021-02-27T12:36:51.000Z</time>
      </trkpt>
      <trkpt lat="47.28808" lon="-1.39626">
        <ele>53</ele>
        <time>2021-02-27T12:36:53.000Z</time>
      </trkpt>
      <trkpt lat="47.28797" lon="-1.39639">
        <ele>54</ele>
        <time>2021-02-27T12:36:55.000Z</time>
      </trkpt>
      <trkpt lat="47.28787" lon="-1.39651">
        <ele>54</ele>
        <time>2021-02-27T12:36:57.000Z</time>
      </trkpt>
      <trkpt lat="47.28776" lon="-1.39664">
        <ele>54</ele>
        <time>2021-02-27T12:36:59.000Z</time>
      </trkpt>
      <trkpt lat="47.28766" lon="-1.39676">
        <ele>54</ele>
        <time>2021-02-27T12:37:01.000Z</time>
      </trkpt>
      <trkpt lat="47.28756" lon="-1.39688">
        <ele>54</ele>
        <time>2021-02-27T12:37:03.000Z</time>
      </trkpt>
      <trkpt lat="47.28746" lon="-1.39701">
        <ele>54</ele>
        <time>2021-02-27T12:37:05.000Z</time>
      </trkpt>
      <trkpt lat="47.28735" lon="-1.39713">
        <ele>54</ele>
        <time>2021-02-27T12:37:07.000Z</time>
      </trkpt>
      <trkpt lat="47.28725" lon="-1.39724">
        <ele>55</ele>
        <time>2021-02-27T12:37:09.000Z</time>
      </trkpt>
      <trkpt lat="47.28716" lon="-1.39737">
        <ele>55</ele>
        <time>2021-02-27T12:37:11.000Z</time>
      </trkpt>
      <trkpt lat="47.28706" lon="-1.39749">
        <ele>55</ele>
        <time>2021-02-27T12:37:13.000Z</time>
      </trkpt>
      <trkpt lat="47.28696" lon="-1.3976">
        <ele>55</ele>
        <time>2021-02-27T12:37:15.000Z</time>
      </trkpt>
      <trkpt lat="47.28685" lon="-1.39773">
        <ele>55</ele>
        <time>2021-02-27T12:37:17.000Z</time>
      </trkpt>
      <trkpt lat="47.28674" lon="-1.39786">
        <ele>55</ele>
        <time>2021-02-27T12:37:19.000Z</time>
      </trkpt>
      <trkpt lat="47.28665" lon="-1.398">
        <ele>55</ele>
        <time>2021-02-27T12:37:21.000Z</time>
      </trkpt>
      <trkpt lat="47.28655" lon="-1.39815">
        <ele>55</ele>
        <time>2021-02-27T12:37:23.000Z</time>
      </trkpt>
      <trkpt lat="47.28646" lon="-1.3983">
        <ele>55</ele>
        <time>2021-02-27T12:37:25.000Z</time>
      </trkpt>
      <trkpt lat="47.28636" lon="-1.39844">
        <ele>54</ele>
        <time>2021-02-27T12:37:27.000Z</time>
      </trkpt>
      <trkpt lat="47.28627" lon="-1.3986">
        <ele>55</ele>
        <time>2021-02-27T12:37:29.000Z</time>
      </trkpt>
      <trkpt lat="47.28617" lon="-1.39874">
        <ele>55</ele>
        <time>2021-02-27T12:37:31.000Z</time>
      </trkpt>
      <trkpt lat="47.28608" lon="-1.39889">
        <ele>55</ele>
        <time>2021-02-27T12:37:33.000Z</time>
      </trkpt>
      <trkpt lat="47.28598" lon="-1.39904">
        <ele>55</ele>
        <time>2021-02-27T12:37:35.000Z</time>
      </trkpt>
      <trkpt lat="47.28589" lon="-1.39918">
        <ele>55</ele>
        <time>2021-02-27T12:37:37.000Z</time>
      </trkpt>
      <trkpt lat="47.2858" lon="-1.39932">
        <ele>55</ele>
        <time>2021-02-27T12:37:39.000Z</time>
      </trkpt>
      <trkpt lat="47.2857" lon="-1.39946">
        <ele>55</ele>
        <time>2021-02-27T12:37:41.000Z</time>
      </trkpt>
      <trkpt lat="47.2856" lon="-1.39961">
        <ele>55</ele>
        <time>2021-02-27T12:37:43.000Z</time>
      </trkpt>
      <trkpt lat="47.28551" lon="-1.39975">
        <ele>55</ele>
        <time>2021-02-27T12:37:45.000Z</time>
      </trkpt>
      <trkpt lat="47.2854" lon="-1.39989">
        <ele>54</ele>
        <time>2021-02-27T12:37:47.000Z</time>
      </trkpt>
      <trkpt lat="47.2853" lon="-1.40002">
        <ele>54</ele>
        <time>2021-02-27T12:37:49.000Z</time>
      </trkpt>
      <trkpt lat="47.28521" lon="-1.40016">
        <ele>54</ele>
        <time>2021-02-27T12:37:51.000Z</time>
      </trkpt>
      <trkpt lat="47.28512" lon="-1.40031">
        <ele>54</ele>
        <time>2021-02-27T12:37:53.000Z</time>
      </trkpt>
      <trkpt lat="47.28504" lon="-1.40046">
        <ele>54</ele>
        <time>2021-02-27T12:37:55.000Z</time>
      </trkpt>
      <trkpt lat="47.28496" lon="-1.40063">
        <ele>55</ele>
        <time>2021-02-27T12:37:57.000Z</time>
      </trkpt>
      <trkpt lat="47.28488" lon="-1.4008">
        <ele>54</ele>
        <time>2021-02-27T12:37:59.000Z</time>
      </trkpt>
      <trkpt lat="47.28482" lon="-1.40096">
        <ele>54</ele>
        <time>2021-02-27T12:38:01.000Z</time>
      </trkpt>
      <trkpt lat="47.28475" lon="-1.40112">
        <ele>55</ele>
        <time>2021-02-27T12:38:03.000Z</time>
      </trkpt>
      <trkpt lat="47.28468" lon="-1.4013">
        <ele>54</ele>
        <time>2021-02-27T12:38:05.000Z</time>
      </trkpt>
      <trkpt lat="47.28461" lon="-1.40149">
        <ele>54</ele>
        <time>2021-02-27T12:38:07.000Z</time>
      </trkpt>
      <trkpt lat="47.28453" lon="-1.40166">
        <ele>54</ele>
        <time>2021-02-27T12:38:09.000Z</time>
      </trkpt>
      <trkpt lat="47.28446" lon="-1.40183">
        <ele>55</ele>
        <time>2021-02-27T12:38:11.000Z</time>
      </trkpt>
      <trkpt lat="47.28439" lon="-1.40201">
        <ele>55</ele>
        <time>2021-02-27T12:38:13.000Z</time>
      </trkpt>
      <trkpt lat="47.28432" lon="-1.40219">
        <ele>55</ele>
        <time>2021-02-27T12:38:15.000Z</time>
      </trkpt>
      <trkpt lat="47.28425" lon="-1.40236">
        <ele>55</ele>
        <time>2021-02-27T12:38:17.000Z</time>
      </trkpt>
      <trkpt lat="47.28418" lon="-1.40253">
        <ele>54</ele>
        <time>2021-02-27T12:38:19.000Z</time>
      </trkpt>
      <trkpt lat="47.2841" lon="-1.40271">
        <ele>54</ele>
        <time>2021-02-27T12:38:21.000Z</time>
      </trkpt>
      <trkpt lat="47.28402" lon="-1.40288">
        <ele>53</ele>
        <time>2021-02-27T12:38:23.000Z</time>
      </trkpt>
      <trkpt lat="47.28393" lon="-1.40305">
        <ele>53</ele>
        <time>2021-02-27T12:38:25.000Z</time>
      </trkpt>
      <trkpt lat="47.28384" lon="-1.4032">
        <ele>53</ele>
        <time>2021-02-27T12:38:27.000Z</time>
      </trkpt>
      <trkpt lat="47.28374" lon="-1.40336">
        <ele>53</ele>
        <time>2021-02-27T12:38:29.000Z</time>
      </trkpt>
      <trkpt lat="47.28364" lon="-1.4035">
        <ele>53</ele>
        <time>2021-02-27T12:38:31.000Z</time>
      </trkpt>
      <trkpt lat="47.28354" lon="-1.40364">
        <ele>53</ele>
        <time>2021-02-27T12:38:33.000Z</time>
      </trkpt>
      <trkpt lat="47.28343" lon="-1.40378">
        <ele>53</ele>
        <time>2021-02-27T12:38:35.000Z</time>
      </trkpt>
      <trkpt lat="47.28332" lon="-1.40393">
        <ele>53</ele>
        <time>2021-02-27T12:38:37.000Z</time>
      </trkpt>
      <trkpt lat="47.28322" lon="-1.40406">
        <ele>54</ele>
        <time>2021-02-27T12:38:39.000Z</time>
      </trkpt>
      <trkpt lat="47.2831" lon="-1.40419">
        <ele>54</ele>
        <time>2021-02-27T12:38:41.000Z</time>
      </trkpt>
      <trkpt lat="47.28299" lon="-1.40431">
        <ele>54</ele>
        <time>2021-02-27T12:38:43.000Z</time>
      </trkpt>
      <trkpt lat="47.28287" lon="-1.40443">
        <ele>54</ele>
        <time>2021-02-27T12:38:45.000Z</time>
      </trkpt>
      <trkpt lat="47.28275" lon="-1.40454">
        <ele>54</ele>
        <time>2021-02-27T12:38:47.000Z</time>
      </trkpt>
      <trkpt lat="47.28263" lon="-1.40466">
        <ele>54</ele>
        <time>2021-02-27T12:38:49.000Z</time>
      </trkpt>
      <trkpt lat="47.28252" lon="-1.40477">
        <ele>54</ele>
        <time>2021-02-27T12:38:51.000Z</time>
      </trkpt>
      <trkpt lat="47.28241" lon="-1.40487">
        <ele>53</ele>
        <time>2021-02-27T12:38:53.000Z</time>
      </trkpt>
      <trkpt lat="47.28229" lon="-1.40498">
        <ele>54</ele>
        <time>2021-02-27T12:38:55.000Z</time>
      </trkpt>
      <trkpt lat="47.28219" lon="-1.40509">
        <ele>54</ele>
        <time>2021-02-27T12:38:57.000Z</time>
      </trkpt>
      <trkpt lat="47.28208" lon="-1.40519">
        <ele>53</ele>
        <time>2021-02-27T12:38:59.000Z</time>
      </trkpt>
      <trkpt lat="47.28198" lon="-1.4053">
        <ele>53</ele>
        <time>2021-02-27T12:39:01.000Z</time>
      </trkpt>
      <trkpt lat="47.28187" lon="-1.40541">
        <ele>53</ele>
        <time>2021-02-27T12:39:03.000Z</time>
      </trkpt>
      <trkpt lat="47.28175" lon="-1.40551">
        <ele>53</ele>
        <time>2021-02-27T12:39:05.000Z</time>
      </trkpt>
      <trkpt lat="47.28164" lon="-1.40562">
        <ele>53</ele>
        <time>2021-02-27T12:39:07.000Z</time>
      </trkpt>
      <trkpt lat="47.28152" lon="-1.40574">
        <ele>53</ele>
        <time>2021-02-27T12:39:09.000Z</time>
      </trkpt>
      <trkpt lat="47.2814" lon="-1.40585">
        <ele>53</ele>
        <time>2021-02-27T12:39:11.000Z</time>
      </trkpt>
      <trkpt lat="47.28129" lon="-1.40595">
        <ele>53</ele>
        <time>2021-02-27T12:39:13.000Z</time>
      </trkpt>
      <trkpt lat="47.28117" lon="-1.40606">
        <ele>53</ele>
        <time>2021-02-27T12:39:15.000Z</time>
      </trkpt>
      <trkpt lat="47.28106" lon="-1.40618">
        <ele>53</ele>
        <time>2021-02-27T12:39:17.000Z</time>
      </trkpt>
      <trkpt lat="47.28094" lon="-1.40629">
        <ele>54</ele>
        <time>2021-02-27T12:39:19.000Z</time>
      </trkpt>
      <trkpt lat="47.28083" lon="-1.4064">
        <ele>54</ele>
        <time>2021-02-27T12:39:21.000Z</time>
      </trkpt>
      <trkpt lat="47.28072" lon="-1.4065">
        <ele>53</ele>
        <time>2021-02-27T12:39:23.000Z</time>
      </trkpt>
      <trkpt lat="47.28061" lon="-1.40661">
        <ele>53</ele>
        <time>2021-02-27T12:39:25.000Z</time>
      </trkpt>
      <trkpt lat="47.28049" lon="-1.40672">
        <ele>52</ele>
        <time>2021-02-27T12:39:27.000Z</time>
      </trkpt>
      <trkpt lat="47.28038" lon="-1.40684">
        <ele>53</ele>
        <time>2021-02-27T12:39:29.000Z</time>
      </trkpt>
      <trkpt lat="47.28027" lon="-1.40696">
        <ele>53</ele>
        <time>2021-02-27T12:39:31.000Z</time>
      </trkpt>
      <trkpt lat="47.28016" lon="-1.40707">
        <ele>53</ele>
        <time>2021-02-27T12:39:33.000Z</time>
      </trkpt>
      <trkpt lat="47.28005" lon="-1.40718">
        <ele>53</ele>
        <time>2021-02-27T12:39:35.000Z</time>
      </trkpt>
      <trkpt lat="47.27994" lon="-1.40729">
        <ele>53</ele>
        <time>2021-02-27T12:39:37.000Z</time>
      </trkpt>
      <trkpt lat="47.27982" lon="-1.4074">
        <ele>53</ele>
        <time>2021-02-27T12:39:39.000Z</time>
      </trkpt>
      <trkpt lat="47.2797" lon="-1.4075">
        <ele>53</ele>
        <time>2021-02-27T12:39:41.000Z</time>
      </trkpt>
      <trkpt lat="47.27959" lon="-1.40761">
        <ele>52</ele>
        <time>2021-02-27T12:39:43.000Z</time>
      </trkpt>
      <trkpt lat="47.27947" lon="-1.40771">
        <ele>53</ele>
        <time>2021-02-27T12:39:45.000Z</time>
      </trkpt>
      <trkpt lat="47.27936" lon="-1.40782">
        <ele>52</ele>
        <time>2021-02-27T12:39:47.000Z</time>
      </trkpt>
      <trkpt lat="47.27924" lon="-1.40792">
        <ele>52</ele>
        <time>2021-02-27T12:39:49.000Z</time>
      </trkpt>
      <trkpt lat="47.27913" lon="-1.40804">
        <ele>53</ele>
        <time>2021-02-27T12:39:51.000Z</time>
      </trkpt>
      <trkpt lat="47.27901" lon="-1.40816">
        <ele>53</ele>
        <time>2021-02-27T12:39:53.000Z</time>
      </trkpt>
      <trkpt lat="47.27891" lon="-1.40828">
        <ele>53</ele>
        <time>2021-02-27T12:39:55.000Z</time>
      </trkpt>
      <trkpt lat="47.27881" lon="-1.40842">
        <ele>53</ele>
        <time>2021-02-27T12:39:57.000Z</time>
      </trkpt>
      <trkpt lat="47.27873" lon="-1.40859">
        <ele>53</ele>
        <time>2021-02-27T12:39:59.000Z</time>
      </trkpt>
      <trkpt lat="47.27865" lon="-1.40875">
        <ele>54</ele>
        <time>2021-02-27T12:40:01.000Z</time>
      </trkpt>
      <trkpt lat="47.27858" lon="-1.40892">
        <ele>54</ele>
        <time>2021-02-27T12:40:03.000Z</time>
      </trkpt>
      <trkpt lat="47.2785" lon="-1.40908">
        <ele>54</ele>
        <time>2021-02-27T12:40:05.000Z</time>
      </trkpt>
      <trkpt lat="47.27843" lon="-1.40925">
        <ele>54</ele>
        <time>2021-02-27T12:40:07.000Z</time>
      </trkpt>
      <trkpt lat="47.27835" lon="-1.40941">
        <ele>54</ele>
        <time>2021-02-27T12:40:09.000Z</time>
      </trkpt>
      <trkpt lat="47.27826" lon="-1.40957">
        <ele>55</ele>
        <time>2021-02-27T12:40:11.000Z</time>
      </trkpt>
      <trkpt lat="47.27818" lon="-1.40972">
        <ele>54</ele>
        <time>2021-02-27T12:40:13.000Z</time>
      </trkpt>
      <trkpt lat="47.27809" lon="-1.40987">
        <ele>54</ele>
        <time>2021-02-27T12:40:15.000Z</time>
      </trkpt>
      <trkpt lat="47.27799" lon="-1.41002">
        <ele>55</ele>
        <time>2021-02-27T12:40:17.000Z</time>
      </trkpt>
      <trkpt lat="47.27789" lon="-1.41016">
        <ele>54</ele>
        <time>2021-02-27T12:40:19.000Z</time>
      </trkpt>
      <trkpt lat="47.27781" lon="-1.41031">
        <ele>54</ele>
        <time>2021-02-27T12:40:21.000Z</time>
      </trkpt>
      <trkpt lat="47.27775" lon="-1.41049">
        <ele>54</ele>
        <time>2021-02-27T12:40:23.000Z</time>
      </trkpt>
      <trkpt lat="47.27767" lon="-1.41066">
        <ele>54</ele>
        <time>2021-02-27T12:40:25.000Z</time>
      </trkpt>
      <trkpt lat="47.27757" lon="-1.41079">
        <ele>54</ele>
        <time>2021-02-27T12:40:27.000Z</time>
      </trkpt>
      <trkpt lat="47.27745" lon="-1.41091">
        <ele>54</ele>
        <time>2021-02-27T12:40:29.000Z</time>
      </trkpt>
      <trkpt lat="47.27733" lon="-1.41103">
        <ele>54</ele>
        <time>2021-02-27T12:40:31.000Z</time>
      </trkpt>
      <trkpt lat="47.27722" lon="-1.41114">
        <ele>54</ele>
        <time>2021-02-27T12:40:33.000Z</time>
      </trkpt>
      <trkpt lat="47.2771" lon="-1.41126">
        <ele>54</ele>
        <time>2021-02-27T12:40:35.000Z</time>
      </trkpt>
      <trkpt lat="47.27699" lon="-1.41138">
        <ele>54</ele>
        <time>2021-02-27T12:40:37.000Z</time>
      </trkpt>
      <trkpt lat="47.27688" lon="-1.41151">
        <ele>54</ele>
        <time>2021-02-27T12:40:39.000Z</time>
      </trkpt>
      <trkpt lat="47.27677" lon="-1.41164">
        <ele>54</ele>
        <time>2021-02-27T12:40:41.000Z</time>
      </trkpt>
      <trkpt lat="47.27666" lon="-1.41176">
        <ele>54</ele>
        <time>2021-02-27T12:40:43.000Z</time>
      </trkpt>
      <trkpt lat="47.27654" lon="-1.41188">
        <ele>54</ele>
        <time>2021-02-27T12:40:45.000Z</time>
      </trkpt>
      <trkpt lat="47.27643" lon="-1.412">
        <ele>54</ele>
        <time>2021-02-27T12:40:47.000Z</time>
      </trkpt>
      <trkpt lat="47.27631" lon="-1.41211">
        <ele>54</ele>
        <time>2021-02-27T12:40:49.000Z</time>
      </trkpt>
      <trkpt lat="47.2762" lon="-1.41222">
        <ele>54</ele>
        <time>2021-02-27T12:40:51.000Z</time>
      </trkpt>
      <trkpt lat="47.27609" lon="-1.41234">
        <ele>54</ele>
        <time>2021-02-27T12:40:53.000Z</time>
      </trkpt>
      <trkpt lat="47.27598" lon="-1.41245">
        <ele>54</ele>
        <time>2021-02-27T12:40:55.000Z</time>
      </trkpt>
      <trkpt lat="47.27587" lon="-1.41258">
        <ele>54</ele>
        <time>2021-02-27T12:40:57.000Z</time>
      </trkpt>
      <trkpt lat="47.27576" lon="-1.4127">
        <ele>54</ele>
        <time>2021-02-27T12:40:59.000Z</time>
      </trkpt>
      <trkpt lat="47.27566" lon="-1.41283">
        <ele>54</ele>
        <time>2021-02-27T12:41:01.000Z</time>
      </trkpt>
      <trkpt lat="47.27556" lon="-1.41296">
        <ele>54</ele>
        <time>2021-02-27T12:41:03.000Z</time>
      </trkpt>
      <trkpt lat="47.27545" lon="-1.41309">
        <ele>54</ele>
        <time>2021-02-27T12:41:05.000Z</time>
      </trkpt>
      <trkpt lat="47.27535" lon="-1.41323">
        <ele>54</ele>
        <time>2021-02-27T12:41:07.000Z</time>
      </trkpt>
      <trkpt lat="47.27525" lon="-1.41337">
        <ele>54</ele>
        <time>2021-02-27T12:41:09.000Z</time>
      </trkpt>
      <trkpt lat="47.27515" lon="-1.4135">
        <ele>54</ele>
        <time>2021-02-27T12:41:11.000Z</time>
      </trkpt>
      <trkpt lat="47.27505" lon="-1.41365">
        <ele>53</ele>
        <time>2021-02-27T12:41:13.000Z</time>
      </trkpt>
      <trkpt lat="47.27495" lon="-1.4138">
        <ele>53</ele>
        <time>2021-02-27T12:41:15.000Z</time>
      </trkpt>
      <trkpt lat="47.27486" lon="-1.41395">
        <ele>53</ele>
        <time>2021-02-27T12:41:17.000Z</time>
      </trkpt>
      <trkpt lat="47.27478" lon="-1.41411">
        <ele>53</ele>
        <time>2021-02-27T12:41:19.000Z</time>
      </trkpt>
      <trkpt lat="47.27469" lon="-1.41426">
        <ele>53</ele>
        <time>2021-02-27T12:41:21.000Z</time>
      </trkpt>
      <trkpt lat="47.2746" lon="-1.41441">
        <ele>53</ele>
        <time>2021-02-27T12:41:23.000Z</time>
      </trkpt>
      <trkpt lat="47.27452" lon="-1.41457">
        <ele>53</ele>
        <time>2021-02-27T12:41:25.000Z</time>
      </trkpt>
      <trkpt lat="47.27443" lon="-1.41472">
        <ele>53</ele>
        <time>2021-02-27T12:41:27.000Z</time>
      </trkpt>
      <trkpt lat="47.27435" lon="-1.41487">
        <ele>53</ele>
        <time>2021-02-27T12:41:29.000Z</time>
      </trkpt>
      <trkpt lat="47.27426" lon="-1.41503">
        <ele>53</ele>
        <time>2021-02-27T12:41:31.000Z</time>
      </trkpt>
      <trkpt lat="47.27417" lon="-1.41518">
        <ele>52</ele>
        <time>2021-02-27T12:41:33.000Z</time>
      </trkpt>
      <trkpt lat="47.27408" lon="-1.41532">
        <ele>52</ele>
        <time>2021-02-27T12:41:35.000Z</time>
      </trkpt>
      <trkpt lat="47.27399" lon="-1.41546">
        <ele>52</ele>
        <time>2021-02-27T12:41:37.000Z</time>
      </trkpt>
      <trkpt lat="47.2739" lon="-1.4156">
        <ele>52</ele>
        <time>2021-02-27T12:41:39.000Z</time>
      </trkpt>
      <trkpt lat="47.27381" lon="-1.41574">
        <ele>52</ele>
        <time>2021-02-27T12:41:41.000Z</time>
      </trkpt>
      <trkpt lat="47.27372" lon="-1.41588">
        <ele>53</ele>
        <time>2021-02-27T12:41:43.000Z</time>
      </trkpt>
      <trkpt lat="47.27363" lon="-1.41603">
        <ele>52</ele>
        <time>2021-02-27T12:41:45.000Z</time>
      </trkpt>
      <trkpt lat="47.27353" lon="-1.41617">
        <ele>52</ele>
        <time>2021-02-27T12:41:47.000Z</time>
      </trkpt>
      <trkpt lat="47.27343" lon="-1.41631">
        <ele>52</ele>
        <time>2021-02-27T12:41:49.000Z</time>
      </trkpt>
      <trkpt lat="47.27334" lon="-1.41645">
        <ele>52</ele>
        <time>2021-02-27T12:41:51.000Z</time>
      </trkpt>
      <trkpt lat="47.27326" lon="-1.41659">
        <ele>51</ele>
        <time>2021-02-27T12:41:53.000Z</time>
      </trkpt>
      <trkpt lat="47.27317" lon="-1.41674">
        <ele>51</ele>
        <time>2021-02-27T12:41:55.000Z</time>
      </trkpt>
      <trkpt lat="47.27309" lon="-1.4169">
        <ele>51</ele>
        <time>2021-02-27T12:41:57.000Z</time>
      </trkpt>
      <trkpt lat="47.27301" lon="-1.41705">
        <ele>51</ele>
        <time>2021-02-27T12:41:59.000Z</time>
      </trkpt>
      <trkpt lat="47.27294" lon="-1.4172">
        <ele>51</ele>
        <time>2021-02-27T12:42:01.000Z</time>
      </trkpt>
      <trkpt lat="47.27286" lon="-1.41735">
        <ele>51</ele>
        <time>2021-02-27T12:42:03.000Z</time>
      </trkpt>
      <trkpt lat="47.27278" lon="-1.4175">
        <ele>51</ele>
        <time>2021-02-27T12:42:05.000Z</time>
      </trkpt>
      <trkpt lat="47.27271" lon="-1.41765">
        <ele>52</ele>
        <time>2021-02-27T12:42:07.000Z</time>
      </trkpt>
      <trkpt lat="47.27262" lon="-1.4178">
        <ele>51</ele>
        <time>2021-02-27T12:42:09.000Z</time>
      </trkpt>
      <trkpt lat="47.27254" lon="-1.41795">
        <ele>51</ele>
        <time>2021-02-27T12:42:11.000Z</time>
      </trkpt>
      <trkpt lat="47.27246" lon="-1.41811">
        <ele>51</ele>
        <time>2021-02-27T12:42:13.000Z</time>
      </trkpt>
      <trkpt lat="47.27237" lon="-1.41827">
        <ele>51</ele>
        <time>2021-02-27T12:42:15.000Z</time>
      </trkpt>
      <trkpt lat="47.27228" lon="-1.41842">
        <ele>52</ele>
        <time>2021-02-27T12:42:17.000Z</time>
      </trkpt>
      <trkpt lat="47.2722" lon="-1.41857">
        <ele>52</ele>
        <time>2021-02-27T12:42:19.000Z</time>
      </trkpt>
      <trkpt lat="47.27211" lon="-1.41872">
        <ele>52</ele>
        <time>2021-02-27T12:42:21.000Z</time>
      </trkpt>
      <trkpt lat="47.27203" lon="-1.41886">
        <ele>52</ele>
        <time>2021-02-27T12:42:23.000Z</time>
      </trkpt>
      <trkpt lat="47.27194" lon="-1.41901">
        <ele>52</ele>
        <time>2021-02-27T12:42:25.000Z</time>
      </trkpt>
      <trkpt lat="47.27186" lon="-1.41916">
        <ele>51</ele>
        <time>2021-02-27T12:42:27.000Z</time>
      </trkpt>
      <trkpt lat="47.27177" lon="-1.41931">
        <ele>51</ele>
        <time>2021-02-27T12:42:29.000Z</time>
      </trkpt>
      <trkpt lat="47.27169" lon="-1.41946">
        <ele>51</ele>
        <time>2021-02-27T12:42:31.000Z</time>
      </trkpt>
      <trkpt lat="47.2716" lon="-1.41962">
        <ele>51</ele>
        <time>2021-02-27T12:42:33.000Z</time>
      </trkpt>
      <trkpt lat="47.27152" lon="-1.41977">
        <ele>51</ele>
        <time>2021-02-27T12:42:35.000Z</time>
      </trkpt>
      <trkpt lat="47.27144" lon="-1.41993">
        <ele>52</ele>
        <time>2021-02-27T12:42:37.000Z</time>
      </trkpt>
      <trkpt lat="47.27135" lon="-1.42008">
        <ele>52</ele>
        <time>2021-02-27T12:42:39.000Z</time>
      </trkpt>
      <trkpt lat="47.27127" lon="-1.42022">
        <ele>52</ele>
        <time>2021-02-27T12:42:41.000Z</time>
      </trkpt>
      <trkpt lat="47.27117" lon="-1.42035">
        <ele>51</ele>
        <time>2021-02-27T12:42:43.000Z</time>
      </trkpt>
      <trkpt lat="47.27108" lon="-1.42049">
        <ele>51</ele>
        <time>2021-02-27T12:42:45.000Z</time>
      </trkpt>
      <trkpt lat="47.271" lon="-1.42062">
        <ele>51</ele>
        <time>2021-02-27T12:42:47.000Z</time>
      </trkpt>
      <trkpt lat="47.27091" lon="-1.42076">
        <ele>51</ele>
        <time>2021-02-27T12:42:49.000Z</time>
      </trkpt>
      <trkpt lat="47.27082" lon="-1.42091">
        <ele>52</ele>
        <time>2021-02-27T12:42:51.000Z</time>
      </trkpt>
      <trkpt lat="47.27074" lon="-1.42105">
        <ele>52</ele>
        <time>2021-02-27T12:42:53.000Z</time>
      </trkpt>
      <trkpt lat="47.27066" lon="-1.4212">
        <ele>52</ele>
        <time>2021-02-27T12:42:55.000Z</time>
      </trkpt>
      <trkpt lat="47.27058" lon="-1.42135">
        <ele>52</ele>
        <time>2021-02-27T12:42:57.000Z</time>
      </trkpt>
      <trkpt lat="47.2705" lon="-1.42149">
        <ele>52</ele>
        <time>2021-02-27T12:42:59.000Z</time>
      </trkpt>
      <trkpt lat="47.27042" lon="-1.42165">
        <ele>52</ele>
        <time>2021-02-27T12:43:01.000Z</time>
      </trkpt>
      <trkpt lat="47.27034" lon="-1.4218">
        <ele>52</ele>
        <time>2021-02-27T12:43:03.000Z</time>
      </trkpt>
      <trkpt lat="47.27026" lon="-1.42194">
        <ele>53</ele>
        <time>2021-02-27T12:43:05.000Z</time>
      </trkpt>
      <trkpt lat="47.27017" lon="-1.42209">
        <ele>52</ele>
        <time>2021-02-27T12:43:07.000Z</time>
      </trkpt>
      <trkpt lat="47.27008" lon="-1.42223">
        <ele>52</ele>
        <time>2021-02-27T12:43:09.000Z</time>
      </trkpt>
      <trkpt lat="47.27" lon="-1.42238">
        <ele>52</ele>
        <time>2021-02-27T12:43:11.000Z</time>
      </trkpt>
      <trkpt lat="47.26991" lon="-1.42253">
        <ele>52</ele>
        <time>2021-02-27T12:43:13.000Z</time>
      </trkpt>
      <trkpt lat="47.26983" lon="-1.42267">
        <ele>52</ele>
        <time>2021-02-27T12:43:15.000Z</time>
      </trkpt>
      <trkpt lat="47.26975" lon="-1.42282">
        <ele>52</ele>
        <time>2021-02-27T12:43:17.000Z</time>
      </trkpt>
      <trkpt lat="47.26968" lon="-1.42296">
        <ele>52</ele>
        <time>2021-02-27T12:43:19.000Z</time>
      </trkpt>
      <trkpt lat="47.2696" lon="-1.42311">
        <ele>52</ele>
        <time>2021-02-27T12:43:21.000Z</time>
      </trkpt>
      <trkpt lat="47.26952" lon="-1.42327">
        <ele>52</ele>
        <time>2021-02-27T12:43:23.000Z</time>
      </trkpt>
      <trkpt lat="47.26945" lon="-1.42343">
        <ele>52</ele>
        <time>2021-02-27T12:43:25.000Z</time>
      </trkpt>
      <trkpt lat="47.26938" lon="-1.42359">
        <ele>52</ele>
        <time>2021-02-27T12:43:27.000Z</time>
      </trkpt>
      <trkpt lat="47.2693" lon="-1.42374">
        <ele>52</ele>
        <time>2021-02-27T12:43:29.000Z</time>
      </trkpt>
      <trkpt lat="47.26922" lon="-1.4239">
        <ele>53</ele>
        <time>2021-02-27T12:43:31.000Z</time>
      </trkpt>
      <trkpt lat="47.26915" lon="-1.42405">
        <ele>53</ele>
        <time>2021-02-27T12:43:33.000Z</time>
      </trkpt>
      <trkpt lat="47.26907" lon="-1.4242">
        <ele>53</ele>
        <time>2021-02-27T12:43:35.000Z</time>
      </trkpt>
      <trkpt lat="47.26899" lon="-1.42434">
        <ele>53</ele>
        <time>2021-02-27T12:43:37.000Z</time>
      </trkpt>
      <trkpt lat="47.2689" lon="-1.42448">
        <ele>53</ele>
        <time>2021-02-27T12:43:39.000Z</time>
      </trkpt>
      <trkpt lat="47.26882" lon="-1.42463">
        <ele>52</ele>
        <time>2021-02-27T12:43:41.000Z</time>
      </trkpt>
      <trkpt lat="47.26874" lon="-1.42479">
        <ele>52</ele>
        <time>2021-02-27T12:43:43.000Z</time>
      </trkpt>
      <trkpt lat="47.26866" lon="-1.42494">
        <ele>52</ele>
        <time>2021-02-27T12:43:45.000Z</time>
      </trkpt>
      <trkpt lat="47.26857" lon="-1.42509">
        <ele>52</ele>
        <time>2021-02-27T12:43:47.000Z</time>
      </trkpt>
      <trkpt lat="47.26849" lon="-1.42526">
        <ele>52</ele>
        <time>2021-02-27T12:43:49.000Z</time>
      </trkpt>
      <trkpt lat="47.2684" lon="-1.42542">
        <ele>52</ele>
        <time>2021-02-27T12:43:51.000Z</time>
      </trkpt>
      <trkpt lat="47.26832" lon="-1.42558">
        <ele>52</ele>
        <time>2021-02-27T12:43:53.000Z</time>
      </trkpt>
      <trkpt lat="47.26824" lon="-1.42575">
        <ele>52</ele>
        <time>2021-02-27T12:43:55.000Z</time>
      </trkpt>
      <trkpt lat="47.26817" lon="-1.42591">
        <ele>52</ele>
        <time>2021-02-27T12:43:57.000Z</time>
      </trkpt>
      <trkpt lat="47.26809" lon="-1.42609">
        <ele>53</ele>
        <time>2021-02-27T12:43:59.000Z</time>
      </trkpt>
      <trkpt lat="47.26802" lon="-1.42626">
        <ele>52</ele>
        <time>2021-02-27T12:44:01.000Z</time>
      </trkpt>
      <trkpt lat="47.26795" lon="-1.42644">
        <ele>52</ele>
        <time>2021-02-27T12:44:03.000Z</time>
      </trkpt>
      <trkpt lat="47.26789" lon="-1.42663">
        <ele>52</ele>
        <time>2021-02-27T12:44:05.000Z</time>
      </trkpt>
      <trkpt lat="47.26782" lon="-1.4268">
        <ele>52</ele>
        <time>2021-02-27T12:44:07.000Z</time>
      </trkpt>
      <trkpt lat="47.26775" lon="-1.42699">
        <ele>53</ele>
        <time>2021-02-27T12:44:09.000Z</time>
      </trkpt>
      <trkpt lat="47.26767" lon="-1.42718">
        <ele>53</ele>
        <time>2021-02-27T12:44:11.000Z</time>
      </trkpt>
      <trkpt lat="47.26759" lon="-1.42735">
        <ele>54</ele>
        <time>2021-02-27T12:44:13.000Z</time>
      </trkpt>
      <trkpt lat="47.2675" lon="-1.42751">
        <ele>53</ele>
        <time>2021-02-27T12:44:15.000Z</time>
      </trkpt>
      <trkpt lat="47.26741" lon="-1.42769">
        <ele>52</ele>
        <time>2021-02-27T12:44:17.000Z</time>
      </trkpt>
      <trkpt lat="47.26735" lon="-1.4279">
        <ele>53</ele>
        <time>2021-02-27T12:44:19.000Z</time>
      </trkpt>
      <trkpt lat="47.26729" lon="-1.4281">
        <ele>53</ele>
        <time>2021-02-27T12:44:21.000Z</time>
      </trkpt>
      <trkpt lat="47.26722" lon="-1.4283">
        <ele>53</ele>
        <time>2021-02-27T12:44:23.000Z</time>
      </trkpt>
      <trkpt lat="47.26714" lon="-1.4285">
        <ele>53</ele>
        <time>2021-02-27T12:44:25.000Z</time>
      </trkpt>
      <trkpt lat="47.26706" lon="-1.4287">
        <ele>52</ele>
        <time>2021-02-27T12:44:27.000Z</time>
      </trkpt>
      <trkpt lat="47.26697" lon="-1.42888">
        <ele>52</ele>
        <time>2021-02-27T12:44:29.000Z</time>
      </trkpt>
      <trkpt lat="47.26687" lon="-1.42907">
        <ele>52</ele>
        <time>2021-02-27T12:44:31.000Z</time>
      </trkpt>
      <trkpt lat="47.26678" lon="-1.42925">
        <ele>51</ele>
        <time>2021-02-27T12:44:33.000Z</time>
      </trkpt>
      <trkpt lat="47.26669" lon="-1.42943">
        <ele>51</ele>
        <time>2021-02-27T12:44:35.000Z</time>
      </trkpt>
      <trkpt lat="47.26661" lon="-1.4296">
        <ele>51</ele>
        <time>2021-02-27T12:44:37.000Z</time>
      </trkpt>
      <trkpt lat="47.26652" lon="-1.42977">
        <ele>51</ele>
        <time>2021-02-27T12:44:39.000Z</time>
      </trkpt>
      <trkpt lat="47.26644" lon="-1.42995">
        <ele>51</ele>
        <time>2021-02-27T12:44:41.000Z</time>
      </trkpt>
      <trkpt lat="47.26636" lon="-1.43012">
        <ele>51</ele>
        <time>2021-02-27T12:44:43.000Z</time>
      </trkpt>
      <trkpt lat="47.26628" lon="-1.4303">
        <ele>51</ele>
        <time>2021-02-27T12:44:45.000Z</time>
      </trkpt>
      <trkpt lat="47.26619" lon="-1.43047">
        <ele>51</ele>
        <time>2021-02-27T12:44:47.000Z</time>
      </trkpt>
      <trkpt lat="47.2661" lon="-1.43064">
        <ele>51</ele>
        <time>2021-02-27T12:44:49.000Z</time>
      </trkpt>
      <trkpt lat="47.26602" lon="-1.43081">
        <ele>51</ele>
        <time>2021-02-27T12:44:51.000Z</time>
      </trkpt>
      <trkpt lat="47.26592" lon="-1.43097">
        <ele>51</ele>
        <time>2021-02-27T12:44:53.000Z</time>
      </trkpt>
      <trkpt lat="47.26583" lon="-1.43112">
        <ele>51</ele>
        <time>2021-02-27T12:44:55.000Z</time>
      </trkpt>
      <trkpt lat="47.26574" lon="-1.43128">
        <ele>51</ele>
        <time>2021-02-27T12:44:57.000Z</time>
      </trkpt>
      <trkpt lat="47.26564" lon="-1.43143">
        <ele>51</ele>
        <time>2021-02-27T12:44:59.000Z</time>
      </trkpt>
      <trkpt lat="47.26554" lon="-1.43158">
        <ele>51</ele>
        <time>2021-02-27T12:45:01.000Z</time>
      </trkpt>
      <trkpt lat="47.26544" lon="-1.43173">
        <ele>51</ele>
        <time>2021-02-27T12:45:03.000Z</time>
      </trkpt>
      <trkpt lat="47.26535" lon="-1.43188">
        <ele>50</ele>
        <time>2021-02-27T12:45:05.000Z</time>
      </trkpt>
      <trkpt lat="47.26525" lon="-1.43203">
        <ele>50</ele>
        <time>2021-02-27T12:45:07.000Z</time>
      </trkpt>
      <trkpt lat="47.26515" lon="-1.43217">
        <ele>50</ele>
        <time>2021-02-27T12:45:09.000Z</time>
      </trkpt>
      <trkpt lat="47.26505" lon="-1.43231">
        <ele>50</ele>
        <time>2021-02-27T12:45:11.000Z</time>
      </trkpt>
      <trkpt lat="47.26495" lon="-1.43244">
        <ele>49</ele>
        <time>2021-02-27T12:45:13.000Z</time>
      </trkpt>
      <trkpt lat="47.26486" lon="-1.43258">
        <ele>50</ele>
        <time>2021-02-27T12:45:15.000Z</time>
      </trkpt>
      <trkpt lat="47.26476" lon="-1.43272">
        <ele>50</ele>
        <time>2021-02-27T12:45:17.000Z</time>
      </trkpt>
      <trkpt lat="47.26467" lon="-1.43286">
        <ele>50</ele>
        <time>2021-02-27T12:45:19.000Z</time>
      </trkpt>
      <trkpt lat="47.26457" lon="-1.43301">
        <ele>51</ele>
        <time>2021-02-27T12:45:21.000Z</time>
      </trkpt>
      <trkpt lat="47.26448" lon="-1.43316">
        <ele>51</ele>
        <time>2021-02-27T12:45:23.000Z</time>
      </trkpt>
      <trkpt lat="47.26436" lon="-1.4333">
        <ele>50</ele>
        <time>2021-02-27T12:45:25.000Z</time>
      </trkpt>
      <trkpt lat="47.26426" lon="-1.43345">
        <ele>50</ele>
        <time>2021-02-27T12:45:27.000Z</time>
      </trkpt>
      <trkpt lat="47.26414" lon="-1.43358">
        <ele>51</ele>
        <time>2021-02-27T12:45:29.000Z</time>
      </trkpt>
      <trkpt lat="47.26403" lon="-1.43371">
        <ele>51</ele>
        <time>2021-02-27T12:45:31.000Z</time>
      </trkpt>
      <trkpt lat="47.26392" lon="-1.43383">
        <ele>51</ele>
        <time>2021-02-27T12:45:33.000Z</time>
      </trkpt>
      <trkpt lat="47.26382" lon="-1.43395">
        <ele>51</ele>
        <time>2021-02-27T12:45:35.000Z</time>
      </trkpt>
      <trkpt lat="47.2637" lon="-1.43406">
        <ele>51</ele>
        <time>2021-02-27T12:45:37.000Z</time>
      </trkpt>
      <trkpt lat="47.26359" lon="-1.43418">
        <ele>51</ele>
        <time>2021-02-27T12:45:39.000Z</time>
      </trkpt>
      <trkpt lat="47.26349" lon="-1.4343">
        <ele>52</ele>
        <time>2021-02-27T12:45:41.000Z</time>
      </trkpt>
      <trkpt lat="47.26338" lon="-1.43442">
        <ele>52</ele>
        <time>2021-02-27T12:45:43.000Z</time>
      </trkpt>
      <trkpt lat="47.26327" lon="-1.43453">
        <ele>52</ele>
        <time>2021-02-27T12:45:45.000Z</time>
      </trkpt>
      <trkpt lat="47.26315" lon="-1.43464">
        <ele>52</ele>
        <time>2021-02-27T12:45:47.000Z</time>
      </trkpt>
      <trkpt lat="47.26304" lon="-1.43476">
        <ele>52</ele>
        <time>2021-02-27T12:45:49.000Z</time>
      </trkpt>
      <trkpt lat="47.26294" lon="-1.43488">
        <ele>52</ele>
        <time>2021-02-27T12:45:51.000Z</time>
      </trkpt>
      <trkpt lat="47.26284" lon="-1.43499">
        <ele>53</ele>
        <time>2021-02-27T12:45:53.000Z</time>
      </trkpt>
      <trkpt lat="47.26275" lon="-1.43511">
        <ele>53</ele>
        <time>2021-02-27T12:45:55.000Z</time>
      </trkpt>
      <trkpt lat="47.26266" lon="-1.43521">
        <ele>54</ele>
        <time>2021-02-27T12:45:57.000Z</time>
      </trkpt>
      <trkpt lat="47.26259" lon="-1.43532">
        <ele>54</ele>
        <time>2021-02-27T12:45:59.000Z</time>
      </trkpt>
      <trkpt lat="47.26252" lon="-1.43541">
        <ele>55</ele>
        <time>2021-02-27T12:46:01.000Z</time>
      </trkpt>
      <trkpt lat="47.26243" lon="-1.43552">
        <ele>56</ele>
        <time>2021-02-27T12:46:04.000Z</time>
      </trkpt>
      <trkpt lat="47.26234" lon="-1.43565">
        <ele>56</ele>
        <time>2021-02-27T12:46:07.000Z</time>
      </trkpt>
      <trkpt lat="47.26225" lon="-1.43578">
        <ele>55</ele>
        <time>2021-02-27T12:46:09.000Z</time>
      </trkpt>
      <trkpt lat="47.26215" lon="-1.43591">
        <ele>54</ele>
        <time>2021-02-27T12:46:11.000Z</time>
      </trkpt>
      <trkpt lat="47.26204" lon="-1.43605">
        <ele>53</ele>
        <time>2021-02-27T12:46:13.000Z</time>
      </trkpt>
      <trkpt lat="47.26193" lon="-1.43621">
        <ele>52</ele>
        <time>2021-02-27T12:46:15.000Z</time>
      </trkpt>
      <trkpt lat="47.26182" lon="-1.43635">
        <ele>53</ele>
        <time>2021-02-27T12:46:17.000Z</time>
      </trkpt>
      <trkpt lat="47.26172" lon="-1.4365">
        <ele>53</ele>
        <time>2021-02-27T12:46:19.000Z</time>
      </trkpt>
      <trkpt lat="47.26162" lon="-1.43667">
        <ele>53</ele>
        <time>2021-02-27T12:46:21.000Z</time>
      </trkpt>
      <trkpt lat="47.26152" lon="-1.43682">
        <ele>53</ele>
        <time>2021-02-27T12:46:23.000Z</time>
      </trkpt>
      <trkpt lat="47.26142" lon="-1.43699">
        <ele>53</ele>
        <time>2021-02-27T12:46:25.000Z</time>
      </trkpt>
      <trkpt lat="47.26132" lon="-1.43714">
        <ele>53</ele>
        <time>2021-02-27T12:46:27.000Z</time>
      </trkpt>
      <trkpt lat="47.26122" lon="-1.43728">
        <ele>53</ele>
        <time>2021-02-27T12:46:29.000Z</time>
      </trkpt>
      <trkpt lat="47.26112" lon="-1.43742">
        <ele>52</ele>
        <time>2021-02-27T12:46:31.000Z</time>
      </trkpt>
      <trkpt lat="47.26101" lon="-1.43755">
        <ele>53</ele>
        <time>2021-02-27T12:46:33.000Z</time>
      </trkpt>
      <trkpt lat="47.2609" lon="-1.43768">
        <ele>52</ele>
        <time>2021-02-27T12:46:35.000Z</time>
      </trkpt>
      <trkpt lat="47.2608" lon="-1.43781">
        <ele>52</ele>
        <time>2021-02-27T12:46:37.000Z</time>
      </trkpt>
      <trkpt lat="47.2607" lon="-1.43794">
        <ele>52</ele>
        <time>2021-02-27T12:46:39.000Z</time>
      </trkpt>
      <trkpt lat="47.2606" lon="-1.43809">
        <ele>52</ele>
        <time>2021-02-27T12:46:41.000Z</time>
      </trkpt>
      <trkpt lat="47.26053" lon="-1.43827">
        <ele>52</ele>
        <time>2021-02-27T12:46:43.000Z</time>
      </trkpt>
      <trkpt lat="47.26048" lon="-1.43845">
        <ele>53</ele>
        <time>2021-02-27T12:46:45.000Z</time>
      </trkpt>
      <trkpt lat="47.2604" lon="-1.4386">
        <ele>53</ele>
        <time>2021-02-27T12:46:47.000Z</time>
      </trkpt>
      <trkpt lat="47.26027" lon="-1.43871">
        <ele>54</ele>
        <time>2021-02-27T12:46:49.000Z</time>
      </trkpt>
      <trkpt lat="47.26015" lon="-1.43882">
        <ele>54</ele>
        <time>2021-02-27T12:46:51.000Z</time>
      </trkpt>
      <trkpt lat="47.26002" lon="-1.43895">
        <ele>54</ele>
        <time>2021-02-27T12:46:53.000Z</time>
      </trkpt>
      <trkpt lat="47.25991" lon="-1.43908">
        <ele>54</ele>
        <time>2021-02-27T12:46:55.000Z</time>
      </trkpt>
      <trkpt lat="47.25979" lon="-1.43922">
        <ele>53</ele>
        <time>2021-02-27T12:46:57.000Z</time>
      </trkpt>
      <trkpt lat="47.25968" lon="-1.43936">
        <ele>52</ele>
        <time>2021-02-27T12:46:59.000Z</time>
      </trkpt>
      <trkpt lat="47.25956" lon="-1.4395">
        <ele>52</ele>
        <time>2021-02-27T12:47:01.000Z</time>
      </trkpt>
      <trkpt lat="47.25946" lon="-1.43962">
        <ele>52</ele>
        <time>2021-02-27T12:47:03.000Z</time>
      </trkpt>
      <trkpt lat="47.25934" lon="-1.43975">
        <ele>52</ele>
        <time>2021-02-27T12:47:05.000Z</time>
      </trkpt>
      <trkpt lat="47.25924" lon="-1.43986">
        <ele>51</ele>
        <time>2021-02-27T12:47:07.000Z</time>
      </trkpt>
      <trkpt lat="47.25913" lon="-1.43998">
        <ele>51</ele>
        <time>2021-02-27T12:47:09.000Z</time>
      </trkpt>
      <trkpt lat="47.25902" lon="-1.44011">
        <ele>51</ele>
        <time>2021-02-27T12:47:11.000Z</time>
      </trkpt>
      <trkpt lat="47.25892" lon="-1.44024">
        <ele>51</ele>
        <time>2021-02-27T12:47:13.000Z</time>
      </trkpt>
      <trkpt lat="47.25882" lon="-1.44038">
        <ele>52</ele>
        <time>2021-02-27T12:47:15.000Z</time>
      </trkpt>
      <trkpt lat="47.25875" lon="-1.44056">
        <ele>52</ele>
        <time>2021-02-27T12:47:17.000Z</time>
      </trkpt>
      <trkpt lat="47.25869" lon="-1.44074">
        <ele>52</ele>
        <time>2021-02-27T12:47:19.000Z</time>
      </trkpt>
      <trkpt lat="47.25861" lon="-1.44089">
        <ele>52</ele>
        <time>2021-02-27T12:47:21.000Z</time>
      </trkpt>
      <trkpt lat="47.25849" lon="-1.44101">
        <ele>52</ele>
        <time>2021-02-27T12:47:23.000Z</time>
      </trkpt>
      <trkpt lat="47.25838" lon="-1.44114">
        <ele>52</ele>
        <time>2021-02-27T12:47:25.000Z</time>
      </trkpt>
      <trkpt lat="47.25827" lon="-1.44127">
        <ele>52</ele>
        <time>2021-02-27T12:47:27.000Z</time>
      </trkpt>
      <trkpt lat="47.25815" lon="-1.4414">
        <ele>52</ele>
        <time>2021-02-27T12:47:29.000Z</time>
      </trkpt>
      <trkpt lat="47.25804" lon="-1.44153">
        <ele>52</ele>
        <time>2021-02-27T12:47:31.000Z</time>
      </trkpt>
      <trkpt lat="47.25793" lon="-1.44166">
        <ele>52</ele>
        <time>2021-02-27T12:47:33.000Z</time>
      </trkpt>
      <trkpt lat="47.25782" lon="-1.44179">
        <ele>52</ele>
        <time>2021-02-27T12:47:35.000Z</time>
      </trkpt>
      <trkpt lat="47.2577" lon="-1.44193">
        <ele>52</ele>
        <time>2021-02-27T12:47:37.000Z</time>
      </trkpt>
      <trkpt lat="47.2576" lon="-1.44206">
        <ele>53</ele>
        <time>2021-02-27T12:47:39.000Z</time>
      </trkpt>
      <trkpt lat="47.25749" lon="-1.4422">
        <ele>53</ele>
        <time>2021-02-27T12:47:41.000Z</time>
      </trkpt>
      <trkpt lat="47.25738" lon="-1.44235">
        <ele>53</ele>
        <time>2021-02-27T12:47:43.000Z</time>
      </trkpt>
      <trkpt lat="47.25726" lon="-1.44248">
        <ele>53</ele>
        <time>2021-02-27T12:47:45.000Z</time>
      </trkpt>
      <trkpt lat="47.25715" lon="-1.44262">
        <ele>53</ele>
        <time>2021-02-27T12:47:47.000Z</time>
      </trkpt>
      <trkpt lat="47.25704" lon="-1.44276">
        <ele>52</ele>
        <time>2021-02-27T12:47:49.000Z</time>
      </trkpt>
      <trkpt lat="47.25692" lon="-1.44289">
        <ele>52</ele>
        <time>2021-02-27T12:47:51.000Z</time>
      </trkpt>
      <trkpt lat="47.25682" lon="-1.44302">
        <ele>53</ele>
        <time>2021-02-27T12:47:53.000Z</time>
      </trkpt>
      <trkpt lat="47.25671" lon="-1.44316">
        <ele>53</ele>
        <time>2021-02-27T12:47:55.000Z</time>
      </trkpt>
      <trkpt lat="47.2566" lon="-1.44328">
        <ele>53</ele>
        <time>2021-02-27T12:47:57.000Z</time>
      </trkpt>
      <trkpt lat="47.25649" lon="-1.4434">
        <ele>53</ele>
        <time>2021-02-27T12:47:59.000Z</time>
      </trkpt>
      <trkpt lat="47.25637" lon="-1.44352">
        <ele>54</ele>
        <time>2021-02-27T12:48:01.000Z</time>
      </trkpt>
      <trkpt lat="47.25625" lon="-1.44365">
        <ele>54</ele>
        <time>2021-02-27T12:48:03.000Z</time>
      </trkpt>
      <trkpt lat="47.25614" lon="-1.44379">
        <ele>54</ele>
        <time>2021-02-27T12:48:05.000Z</time>
      </trkpt>
      <trkpt lat="47.25602" lon="-1.44394">
        <ele>54</ele>
        <time>2021-02-27T12:48:07.000Z</time>
      </trkpt>
      <trkpt lat="47.2559" lon="-1.44409">
        <ele>54</ele>
        <time>2021-02-27T12:48:09.000Z</time>
      </trkpt>
      <trkpt lat="47.25578" lon="-1.44423">
        <ele>53</ele>
        <time>2021-02-27T12:48:11.000Z</time>
      </trkpt>
      <trkpt lat="47.25567" lon="-1.44436">
        <ele>53</ele>
        <time>2021-02-27T12:48:13.000Z</time>
      </trkpt>
      <trkpt lat="47.25556" lon="-1.44452">
        <ele>53</ele>
        <time>2021-02-27T12:48:15.000Z</time>
      </trkpt>
      <trkpt lat="47.25544" lon="-1.44468">
        <ele>53</ele>
        <time>2021-02-27T12:48:17.000Z</time>
      </trkpt>
      <trkpt lat="47.25533" lon="-1.44485">
        <ele>53</ele>
        <time>2021-02-27T12:48:19.000Z</time>
      </trkpt>
      <trkpt lat="47.25524" lon="-1.44503">
        <ele>53</ele>
        <time>2021-02-27T12:48:21.000Z</time>
      </trkpt>
      <trkpt lat="47.25512" lon="-1.44519">
        <ele>53</ele>
        <time>2021-02-27T12:48:23.000Z</time>
      </trkpt>
      <trkpt lat="47.255" lon="-1.44535">
        <ele>53</ele>
        <time>2021-02-27T12:48:25.000Z</time>
      </trkpt>
      <trkpt lat="47.25488" lon="-1.44553">
        <ele>52</ele>
        <time>2021-02-27T12:48:27.000Z</time>
      </trkpt>
      <trkpt lat="47.25476" lon="-1.4457">
        <ele>52</ele>
        <time>2021-02-27T12:48:29.000Z</time>
      </trkpt>
      <trkpt lat="47.25465" lon="-1.44588">
        <ele>52</ele>
        <time>2021-02-27T12:48:31.000Z</time>
      </trkpt>
      <trkpt lat="47.25454" lon="-1.44605">
        <ele>52</ele>
        <time>2021-02-27T12:48:33.000Z</time>
      </trkpt>
      <trkpt lat="47.25443" lon="-1.44621">
        <ele>52</ele>
        <time>2021-02-27T12:48:35.000Z</time>
      </trkpt>
      <trkpt lat="47.25432" lon="-1.44636">
        <ele>52</ele>
        <time>2021-02-27T12:48:37.000Z</time>
      </trkpt>
      <trkpt lat="47.25422" lon="-1.4465">
        <ele>51</ele>
        <time>2021-02-27T12:48:39.000Z</time>
      </trkpt>
      <trkpt lat="47.25411" lon="-1.44665">
        <ele>51</ele>
        <time>2021-02-27T12:48:41.000Z</time>
      </trkpt>
      <trkpt lat="47.254" lon="-1.44679">
        <ele>51</ele>
        <time>2021-02-27T12:48:43.000Z</time>
      </trkpt>
      <trkpt lat="47.25388" lon="-1.44694">
        <ele>50</ele>
        <time>2021-02-27T12:48:45.000Z</time>
      </trkpt>
      <trkpt lat="47.25375" lon="-1.44709">
        <ele>51</ele>
        <time>2021-02-27T12:48:47.000Z</time>
      </trkpt>
      <trkpt lat="47.25363" lon="-1.44722">
        <ele>51</ele>
        <time>2021-02-27T12:48:49.000Z</time>
      </trkpt>
      <trkpt lat="47.25351" lon="-1.44736">
        <ele>51</ele>
        <time>2021-02-27T12:48:51.000Z</time>
      </trkpt>
      <trkpt lat="47.25338" lon="-1.44748">
        <ele>51</ele>
        <time>2021-02-27T12:48:53.000Z</time>
      </trkpt>
      <trkpt lat="47.25327" lon="-1.4476">
        <ele>52</ele>
        <time>2021-02-27T12:48:55.000Z</time>
      </trkpt>
      <trkpt lat="47.25316" lon="-1.44772">
        <ele>52</ele>
        <time>2021-02-27T12:48:57.000Z</time>
      </trkpt>
      <trkpt lat="47.25304" lon="-1.44784">
        <ele>52</ele>
        <time>2021-02-27T12:48:59.000Z</time>
      </trkpt>
      <trkpt lat="47.25294" lon="-1.44797">
        <ele>52</ele>
        <time>2021-02-27T12:49:01.000Z</time>
      </trkpt>
      <trkpt lat="47.25282" lon="-1.4481">
        <ele>53</ele>
        <time>2021-02-27T12:49:03.000Z</time>
      </trkpt>
      <trkpt lat="47.2527" lon="-1.44824">
        <ele>53</ele>
        <time>2021-02-27T12:49:05.000Z</time>
      </trkpt>
      <trkpt lat="47.25259" lon="-1.44838">
        <ele>52</ele>
        <time>2021-02-27T12:49:07.000Z</time>
      </trkpt>
      <trkpt lat="47.25247" lon="-1.44851">
        <ele>51</ele>
        <time>2021-02-27T12:49:09.000Z</time>
      </trkpt>
      <trkpt lat="47.25236" lon="-1.44863">
        <ele>51</ele>
        <time>2021-02-27T12:49:11.000Z</time>
      </trkpt>
      <trkpt lat="47.25223" lon="-1.44875">
        <ele>50</ele>
        <time>2021-02-27T12:49:13.000Z</time>
      </trkpt>
      <trkpt lat="47.25209" lon="-1.44885">
        <ele>50</ele>
        <time>2021-02-27T12:49:15.000Z</time>
      </trkpt>
      <trkpt lat="47.25197" lon="-1.44897">
        <ele>50</ele>
        <time>2021-02-27T12:49:17.000Z</time>
      </trkpt>
      <trkpt lat="47.25184" lon="-1.44907">
        <ele>51</ele>
        <time>2021-02-27T12:49:19.000Z</time>
      </trkpt>
      <trkpt lat="47.25171" lon="-1.44917">
        <ele>52</ele>
        <time>2021-02-27T12:49:21.000Z</time>
      </trkpt>
      <trkpt lat="47.25158" lon="-1.44927">
        <ele>52</ele>
        <time>2021-02-27T12:49:23.000Z</time>
      </trkpt>
      <trkpt lat="47.25145" lon="-1.44938">
        <ele>52</ele>
        <time>2021-02-27T12:49:25.000Z</time>
      </trkpt>
      <trkpt lat="47.25134" lon="-1.44951">
        <ele>52</ele>
        <time>2021-02-27T12:49:27.000Z</time>
      </trkpt>
      <trkpt lat="47.25122" lon="-1.44963">
        <ele>53</ele>
        <time>2021-02-27T12:49:29.000Z</time>
      </trkpt>
      <trkpt lat="47.2511" lon="-1.44974">
        <ele>53</ele>
        <time>2021-02-27T12:49:31.000Z</time>
      </trkpt>
      <trkpt lat="47.25097" lon="-1.44984">
        <ele>53</ele>
        <time>2021-02-27T12:49:33.000Z</time>
      </trkpt>
      <trkpt lat="47.25085" lon="-1.44994">
        <ele>53</ele>
        <time>2021-02-27T12:49:35.000Z</time>
      </trkpt>
      <trkpt lat="47.25073" lon="-1.45004">
        <ele>53</ele>
        <time>2021-02-27T12:49:37.000Z</time>
      </trkpt>
      <trkpt lat="47.25061" lon="-1.45014">
        <ele>53</ele>
        <time>2021-02-27T12:49:39.000Z</time>
      </trkpt>
      <trkpt lat="47.25049" lon="-1.45023">
        <ele>53</ele>
        <time>2021-02-27T12:49:41.000Z</time>
      </trkpt>
      <trkpt lat="47.25035" lon="-1.45033">
        <ele>53</ele>
        <time>2021-02-27T12:49:43.000Z</time>
      </trkpt>
      <trkpt lat="47.25023" lon="-1.45044">
        <ele>53</ele>
        <time>2021-02-27T12:49:45.000Z</time>
      </trkpt>
      <trkpt lat="47.2501" lon="-1.45055">
        <ele>53</ele>
        <time>2021-02-27T12:49:47.000Z</time>
      </trkpt>
      <trkpt lat="47.24998" lon="-1.45068">
        <ele>53</ele>
        <time>2021-02-27T12:49:49.000Z</time>
      </trkpt>
      <trkpt lat="47.24987" lon="-1.45083">
        <ele>53</ele>
        <time>2021-02-27T12:49:51.000Z</time>
      </trkpt>
      <trkpt lat="47.24975" lon="-1.45096">
        <ele>53</ele>
        <time>2021-02-27T12:49:53.000Z</time>
      </trkpt>
      <trkpt lat="47.24963" lon="-1.45109">
        <ele>53</ele>
        <time>2021-02-27T12:49:55.000Z</time>
      </trkpt>
      <trkpt lat="47.24951" lon="-1.45121">
        <ele>52</ele>
        <time>2021-02-27T12:49:57.000Z</time>
      </trkpt>
      <trkpt lat="47.24939" lon="-1.45133">
        <ele>52</ele>
        <time>2021-02-27T12:49:59.000Z</time>
      </trkpt>
      <trkpt lat="47.24927" lon="-1.45146">
        <ele>52</ele>
        <time>2021-02-27T12:50:01.000Z</time>
      </trkpt>
      <trkpt lat="47.24915" lon="-1.45157">
        <ele>51</ele>
        <time>2021-02-27T12:50:03.000Z</time>
      </trkpt>
      <trkpt lat="47.24905" lon="-1.4517">
        <ele>52</ele>
        <time>2021-02-27T12:50:05.000Z</time>
      </trkpt>
      <trkpt lat="47.24896" lon="-1.45184">
        <ele>53</ele>
        <time>2021-02-27T12:50:07.000Z</time>
      </trkpt>
      <trkpt lat="47.24887" lon="-1.45196">
        <ele>53</ele>
        <time>2021-02-27T12:50:09.000Z</time>
      </trkpt>
      <trkpt lat="47.24877" lon="-1.4521">
        <ele>53</ele>
        <time>2021-02-27T12:50:11.000Z</time>
      </trkpt>
      <trkpt lat="47.24868" lon="-1.45223">
        <ele>52</ele>
        <time>2021-02-27T12:50:13.000Z</time>
      </trkpt>
      <trkpt lat="47.24859" lon="-1.45238">
        <ele>52</ele>
        <time>2021-02-27T12:50:15.000Z</time>
      </trkpt>
      <trkpt lat="47.24851" lon="-1.45251">
        <ele>52</ele>
        <time>2021-02-27T12:50:17.000Z</time>
      </trkpt>
      <trkpt lat="47.24843" lon="-1.45264">
        <ele>52</ele>
        <time>2021-02-27T12:50:19.000Z</time>
      </trkpt>
      <trkpt lat="47.24835" lon="-1.45278">
        <ele>52</ele>
        <time>2021-02-27T12:50:21.000Z</time>
      </trkpt>
      <trkpt lat="47.24828" lon="-1.45291">
        <ele>52</ele>
        <time>2021-02-27T12:50:23.000Z</time>
      </trkpt>
      <trkpt lat="47.24821" lon="-1.45305">
        <ele>52</ele>
        <time>2021-02-27T12:50:25.000Z</time>
      </trkpt>
      <trkpt lat="47.24813" lon="-1.45319">
        <ele>52</ele>
        <time>2021-02-27T12:50:27.000Z</time>
      </trkpt>
      <trkpt lat="47.24806" lon="-1.45333">
        <ele>52</ele>
        <time>2021-02-27T12:50:29.000Z</time>
      </trkpt>
      <trkpt lat="47.24799" lon="-1.45348">
        <ele>53</ele>
        <time>2021-02-27T12:50:31.000Z</time>
      </trkpt>
      <trkpt lat="47.24792" lon="-1.45363">
        <ele>52</ele>
        <time>2021-02-27T12:50:33.000Z</time>
      </trkpt>
      <trkpt lat="47.24786" lon="-1.45379">
        <ele>52</ele>
        <time>2021-02-27T12:50:35.000Z</time>
      </trkpt>
      <trkpt lat="47.24779" lon="-1.45396">
        <ele>52</ele>
        <time>2021-02-27T12:50:37.000Z</time>
      </trkpt>
      <trkpt lat="47.24772" lon="-1.45413">
        <ele>52</ele>
        <time>2021-02-27T12:50:39.000Z</time>
      </trkpt>
      <trkpt lat="47.24766" lon="-1.4543">
        <ele>52</ele>
        <time>2021-02-27T12:50:41.000Z</time>
      </trkpt>
      <trkpt lat="47.24759" lon="-1.45446">
        <ele>52</ele>
        <time>2021-02-27T12:50:43.000Z</time>
      </trkpt>
      <trkpt lat="47.24754" lon="-1.45462">
        <ele>52</ele>
        <time>2021-02-27T12:50:45.000Z</time>
      </trkpt>
      <trkpt lat="47.24747" lon="-1.45479">
        <ele>52</ele>
        <time>2021-02-27T12:50:47.000Z</time>
      </trkpt>
      <trkpt lat="47.2474" lon="-1.45494">
        <ele>52</ele>
        <time>2021-02-27T12:50:49.000Z</time>
      </trkpt>
      <trkpt lat="47.24733" lon="-1.4551">
        <ele>52</ele>
        <time>2021-02-27T12:50:51.000Z</time>
      </trkpt>
      <trkpt lat="47.24726" lon="-1.45527">
        <ele>52</ele>
        <time>2021-02-27T12:50:53.000Z</time>
      </trkpt>
      <trkpt lat="47.2472" lon="-1.45544">
        <ele>52</ele>
        <time>2021-02-27T12:50:55.000Z</time>
      </trkpt>
      <trkpt lat="47.24714" lon="-1.45561">
        <ele>52</ele>
        <time>2021-02-27T12:50:57.000Z</time>
      </trkpt>
      <trkpt lat="47.24709" lon="-1.45577">
        <ele>52</ele>
        <time>2021-02-27T12:50:59.000Z</time>
      </trkpt>
      <trkpt lat="47.24704" lon="-1.45593">
        <ele>52</ele>
        <time>2021-02-27T12:51:01.000Z</time>
      </trkpt>
      <trkpt lat="47.24699" lon="-1.4561">
        <ele>52</ele>
        <time>2021-02-27T12:51:03.000Z</time>
      </trkpt>
      <trkpt lat="47.24694" lon="-1.45627">
        <ele>52</ele>
        <time>2021-02-27T12:51:05.000Z</time>
      </trkpt>
      <trkpt lat="47.24688" lon="-1.45644">
        <ele>52</ele>
        <time>2021-02-27T12:51:07.000Z</time>
      </trkpt>
      <trkpt lat="47.24682" lon="-1.4566">
        <ele>52</ele>
        <time>2021-02-27T12:51:09.000Z</time>
      </trkpt>
      <trkpt lat="47.24677" lon="-1.45676">
        <ele>53</ele>
        <time>2021-02-27T12:51:11.000Z</time>
      </trkpt>
      <trkpt lat="47.24673" lon="-1.45693">
        <ele>53</ele>
        <time>2021-02-27T12:51:13.000Z</time>
      </trkpt>
      <trkpt lat="47.24669" lon="-1.45711">
        <ele>53</ele>
        <time>2021-02-27T12:51:15.000Z</time>
      </trkpt>
      <trkpt lat="47.24664" lon="-1.45729">
        <ele>54</ele>
        <time>2021-02-27T12:51:17.000Z</time>
      </trkpt>
      <trkpt lat="47.24661" lon="-1.45749">
        <ele>54</ele>
        <time>2021-02-27T12:51:19.000Z</time>
      </trkpt>
      <trkpt lat="47.24657" lon="-1.45769">
        <ele>54</ele>
        <time>2021-02-27T12:51:21.000Z</time>
      </trkpt>
      <trkpt lat="47.24652" lon="-1.45787">
        <ele>54</ele>
        <time>2021-02-27T12:51:23.000Z</time>
      </trkpt>
      <trkpt lat="47.24647" lon="-1.45805">
        <ele>54</ele>
        <time>2021-02-27T12:51:25.000Z</time>
      </trkpt>
      <trkpt lat="47.24642" lon="-1.45823">
        <ele>54</ele>
        <time>2021-02-27T12:51:27.000Z</time>
      </trkpt>
      <trkpt lat="47.24636" lon="-1.45843">
        <ele>53</ele>
        <time>2021-02-27T12:51:29.000Z</time>
      </trkpt>
      <trkpt lat="47.24631" lon="-1.45864">
        <ele>52</ele>
        <time>2021-02-27T12:51:31.000Z</time>
      </trkpt>
      <trkpt lat="47.24626" lon="-1.45883">
        <ele>52</ele>
        <time>2021-02-27T12:51:33.000Z</time>
      </trkpt>
      <trkpt lat="47.24621" lon="-1.45902">
        <ele>52</ele>
        <time>2021-02-27T12:51:35.000Z</time>
      </trkpt>
      <trkpt lat="47.24615" lon="-1.45921">
        <ele>52</ele>
        <time>2021-02-27T12:51:37.000Z</time>
      </trkpt>
      <trkpt lat="47.24609" lon="-1.45938">
        <ele>52</ele>
        <time>2021-02-27T12:51:39.000Z</time>
      </trkpt>
      <trkpt lat="47.246" lon="-1.45953">
        <ele>52</ele>
        <time>2021-02-27T12:51:41.000Z</time>
      </trkpt>
      <trkpt lat="47.24591" lon="-1.45971">
        <ele>52</ele>
        <time>2021-02-27T12:51:43.000Z</time>
      </trkpt>
      <trkpt lat="47.24581" lon="-1.45989">
        <ele>53</ele>
        <time>2021-02-27T12:51:45.000Z</time>
      </trkpt>
      <trkpt lat="47.24573" lon="-1.4601">
        <ele>52</ele>
        <time>2021-02-27T12:51:47.000Z</time>
      </trkpt>
      <trkpt lat="47.24564" lon="-1.46029">
        <ele>53</ele>
        <time>2021-02-27T12:51:49.000Z</time>
      </trkpt>
      <trkpt lat="47.24553" lon="-1.46047">
        <ele>53</ele>
        <time>2021-02-27T12:51:51.000Z</time>
      </trkpt>
      <trkpt lat="47.24543" lon="-1.46065">
        <ele>53</ele>
        <time>2021-02-27T12:51:53.000Z</time>
      </trkpt>
      <trkpt lat="47.24534" lon="-1.46083">
        <ele>52</ele>
        <time>2021-02-27T12:51:55.000Z</time>
      </trkpt>
      <trkpt lat="47.24524" lon="-1.461">
        <ele>52</ele>
        <time>2021-02-27T12:51:57.000Z</time>
      </trkpt>
      <trkpt lat="47.24513" lon="-1.46115">
        <ele>52</ele>
        <time>2021-02-27T12:51:59.000Z</time>
      </trkpt>
      <trkpt lat="47.24502" lon="-1.46129">
        <ele>52</ele>
        <time>2021-02-27T12:52:01.000Z</time>
      </trkpt>
      <trkpt lat="47.24491" lon="-1.46144">
        <ele>51</ele>
        <time>2021-02-27T12:52:03.000Z</time>
      </trkpt>
      <trkpt lat="47.24479" lon="-1.46158">
        <ele>51</ele>
        <time>2021-02-27T12:52:05.000Z</time>
      </trkpt>
      <trkpt lat="47.24467" lon="-1.46171">
        <ele>51</ele>
        <time>2021-02-27T12:52:07.000Z</time>
      </trkpt>
      <trkpt lat="47.24456" lon="-1.46185">
        <ele>52</ele>
        <time>2021-02-27T12:52:09.000Z</time>
      </trkpt>
      <trkpt lat="47.24445" lon="-1.46198">
        <ele>52</ele>
        <time>2021-02-27T12:52:11.000Z</time>
      </trkpt>
      <trkpt lat="47.24434" lon="-1.46212">
        <ele>52</ele>
        <time>2021-02-27T12:52:13.000Z</time>
      </trkpt>
      <trkpt lat="47.24424" lon="-1.46226">
        <ele>52</ele>
        <time>2021-02-27T12:52:15.000Z</time>
      </trkpt>
      <trkpt lat="47.24414" lon="-1.4624">
        <ele>52</ele>
        <time>2021-02-27T12:52:17.000Z</time>
      </trkpt>
      <trkpt lat="47.24404" lon="-1.46254">
        <ele>52</ele>
        <time>2021-02-27T12:52:19.000Z</time>
      </trkpt>
      <trkpt lat="47.24394" lon="-1.46269">
        <ele>52</ele>
        <time>2021-02-27T12:52:21.000Z</time>
      </trkpt>
      <trkpt lat="47.24384" lon="-1.46284">
        <ele>52</ele>
        <time>2021-02-27T12:52:23.000Z</time>
      </trkpt>
      <trkpt lat="47.24374" lon="-1.46299">
        <ele>52</ele>
        <time>2021-02-27T12:52:25.000Z</time>
      </trkpt>
      <trkpt lat="47.24364" lon="-1.46313">
        <ele>52</ele>
        <time>2021-02-27T12:52:27.000Z</time>
      </trkpt>
      <trkpt lat="47.24355" lon="-1.46328">
        <ele>52</ele>
        <time>2021-02-27T12:52:29.000Z</time>
      </trkpt>
      <trkpt lat="47.24346" lon="-1.46343">
        <ele>51</ele>
        <time>2021-02-27T12:52:31.000Z</time>
      </trkpt>
      <trkpt lat="47.24336" lon="-1.4636">
        <ele>51</ele>
        <time>2021-02-27T12:52:33.000Z</time>
      </trkpt>
      <trkpt lat="47.24327" lon="-1.46374">
        <ele>52</ele>
        <time>2021-02-27T12:52:35.000Z</time>
      </trkpt>
      <trkpt lat="47.24318" lon="-1.46389">
        <ele>52</ele>
        <time>2021-02-27T12:52:37.000Z</time>
      </trkpt>
      <trkpt lat="47.24309" lon="-1.46405">
        <ele>52</ele>
        <time>2021-02-27T12:52:39.000Z</time>
      </trkpt>
      <trkpt lat="47.243" lon="-1.46422">
        <ele>51</ele>
        <time>2021-02-27T12:52:41.000Z</time>
      </trkpt>
      <trkpt lat="47.2429" lon="-1.46437">
        <ele>51</ele>
        <time>2021-02-27T12:52:43.000Z</time>
      </trkpt>
      <trkpt lat="47.2428" lon="-1.46452">
        <ele>52</ele>
        <time>2021-02-27T12:52:45.000Z</time>
      </trkpt>
      <trkpt lat="47.2427" lon="-1.46467">
        <ele>51</ele>
        <time>2021-02-27T12:52:47.000Z</time>
      </trkpt>
      <trkpt lat="47.24259" lon="-1.4648">
        <ele>52</ele>
        <time>2021-02-27T12:52:49.000Z</time>
      </trkpt>
      <trkpt lat="47.24248" lon="-1.46494">
        <ele>52</ele>
        <time>2021-02-27T12:52:51.000Z</time>
      </trkpt>
      <trkpt lat="47.24237" lon="-1.46507">
        <ele>51</ele>
        <time>2021-02-27T12:52:53.000Z</time>
      </trkpt>
      <trkpt lat="47.24226" lon="-1.4652">
        <ele>51</ele>
        <time>2021-02-27T12:52:55.000Z</time>
      </trkpt>
      <trkpt lat="47.24216" lon="-1.46533">
        <ele>51</ele>
        <time>2021-02-27T12:52:57.000Z</time>
      </trkpt>
      <trkpt lat="47.24206" lon="-1.46545">
        <ele>52</ele>
        <time>2021-02-27T12:52:59.000Z</time>
      </trkpt>
      <trkpt lat="47.24196" lon="-1.46559">
        <ele>52</ele>
        <time>2021-02-27T12:53:01.000Z</time>
      </trkpt>
      <trkpt lat="47.24186" lon="-1.46572">
        <ele>52</ele>
        <time>2021-02-27T12:53:03.000Z</time>
      </trkpt>
      <trkpt lat="47.24175" lon="-1.46584">
        <ele>52</ele>
        <time>2021-02-27T12:53:05.000Z</time>
      </trkpt>
      <trkpt lat="47.24165" lon="-1.46597">
        <ele>52</ele>
        <time>2021-02-27T12:53:07.000Z</time>
      </trkpt>
      <trkpt lat="47.24155" lon="-1.4661">
        <ele>52</ele>
        <time>2021-02-27T12:53:09.000Z</time>
      </trkpt>
      <trkpt lat="47.24145" lon="-1.46624">
        <ele>53</ele>
        <time>2021-02-27T12:53:11.000Z</time>
      </trkpt>
      <trkpt lat="47.24135" lon="-1.46637">
        <ele>52</ele>
        <time>2021-02-27T12:53:13.000Z</time>
      </trkpt>
      <trkpt lat="47.24125" lon="-1.46651">
        <ele>52</ele>
        <time>2021-02-27T12:53:15.000Z</time>
      </trkpt>
      <trkpt lat="47.24116" lon="-1.46666">
        <ele>52</ele>
        <time>2021-02-27T12:53:17.000Z</time>
      </trkpt>
      <trkpt lat="47.24106" lon="-1.46679">
        <ele>52</ele>
        <time>2021-02-27T12:53:19.000Z</time>
      </trkpt>
      <trkpt lat="47.24096" lon="-1.46693">
        <ele>52</ele>
        <time>2021-02-27T12:53:21.000Z</time>
      </trkpt>
      <trkpt lat="47.24088" lon="-1.46707">
        <ele>52</ele>
        <time>2021-02-27T12:53:23.000Z</time>
      </trkpt>
      <trkpt lat="47.24081" lon="-1.46724">
        <ele>52</ele>
        <time>2021-02-27T12:53:25.000Z</time>
      </trkpt>
      <trkpt lat="47.24072" lon="-1.46738">
        <ele>52</ele>
        <time>2021-02-27T12:53:27.000Z</time>
      </trkpt>
      <trkpt lat="47.24059" lon="-1.46746">
        <ele>52</ele>
        <time>2021-02-27T12:53:29.000Z</time>
      </trkpt>
      <trkpt lat="47.24047" lon="-1.46757">
        <ele>53</ele>
        <time>2021-02-27T12:53:31.000Z</time>
      </trkpt>
      <trkpt lat="47.24036" lon="-1.4677">
        <ele>53</ele>
        <time>2021-02-27T12:53:33.000Z</time>
      </trkpt>
      <trkpt lat="47.24026" lon="-1.46782">
        <ele>53</ele>
        <time>2021-02-27T12:53:35.000Z</time>
      </trkpt>
      <trkpt lat="47.24015" lon="-1.46794">
        <ele>53</ele>
        <time>2021-02-27T12:53:37.000Z</time>
      </trkpt>
      <trkpt lat="47.24005" lon="-1.46806">
        <ele>53</ele>
        <time>2021-02-27T12:53:39.000Z</time>
      </trkpt>
      <trkpt lat="47.23994" lon="-1.46818">
        <ele>53</ele>
        <time>2021-02-27T12:53:41.000Z</time>
      </trkpt>
      <trkpt lat="47.23983" lon="-1.46829">
        <ele>53</ele>
        <time>2021-02-27T12:53:43.000Z</time>
      </trkpt>
      <trkpt lat="47.23972" lon="-1.46841">
        <ele>53</ele>
        <time>2021-02-27T12:53:45.000Z</time>
      </trkpt>
      <trkpt lat="47.2396" lon="-1.46852">
        <ele>53</ele>
        <time>2021-02-27T12:53:47.000Z</time>
      </trkpt>
      <trkpt lat="47.23949" lon="-1.46863">
        <ele>53</ele>
        <time>2021-02-27T12:53:49.000Z</time>
      </trkpt>
      <trkpt lat="47.23937" lon="-1.46872">
        <ele>53</ele>
        <time>2021-02-27T12:53:51.000Z</time>
      </trkpt>
      <trkpt lat="47.23926" lon="-1.46883">
        <ele>53</ele>
        <time>2021-02-27T12:53:53.000Z</time>
      </trkpt>
      <trkpt lat="47.23915" lon="-1.46896">
        <ele>53</ele>
        <time>2021-02-27T12:53:55.000Z</time>
      </trkpt>
      <trkpt lat="47.23904" lon="-1.46909">
        <ele>52</ele>
        <time>2021-02-27T12:53:57.000Z</time>
      </trkpt>
      <trkpt lat="47.23894" lon="-1.46922">
        <ele>52</ele>
        <time>2021-02-27T12:53:59.000Z</time>
      </trkpt>
      <trkpt lat="47.23884" lon="-1.46935">
        <ele>52</ele>
        <time>2021-02-27T12:54:01.000Z</time>
      </trkpt>
      <trkpt lat="47.23873" lon="-1.46949">
        <ele>52</ele>
        <time>2021-02-27T12:54:03.000Z</time>
      </trkpt>
      <trkpt lat="47.23863" lon="-1.46962">
        <ele>51</ele>
        <time>2021-02-27T12:54:05.000Z</time>
      </trkpt>
      <trkpt lat="47.23853" lon="-1.46975">
        <ele>51</ele>
        <time>2021-02-27T12:54:07.000Z</time>
      </trkpt>
      <trkpt lat="47.23843" lon="-1.4699">
        <ele>51</ele>
        <time>2021-02-27T12:54:09.000Z</time>
      </trkpt>
      <trkpt lat="47.23833" lon="-1.47004">
        <ele>51</ele>
        <time>2021-02-27T12:54:11.000Z</time>
      </trkpt>
      <trkpt lat="47.23823" lon="-1.4702">
        <ele>51</ele>
        <time>2021-02-27T12:54:13.000Z</time>
      </trkpt>
      <trkpt lat="47.23814" lon="-1.47034">
        <ele>52</ele>
        <time>2021-02-27T12:54:15.000Z</time>
      </trkpt>
      <trkpt lat="47.23804" lon="-1.47048">
        <ele>51</ele>
        <time>2021-02-27T12:54:17.000Z</time>
      </trkpt>
      <trkpt lat="47.23794" lon="-1.47062">
        <ele>51</ele>
        <time>2021-02-27T12:54:19.000Z</time>
      </trkpt>
      <trkpt lat="47.23784" lon="-1.47076">
        <ele>51</ele>
        <time>2021-02-27T12:54:21.000Z</time>
      </trkpt>
      <trkpt lat="47.23773" lon="-1.4709">
        <ele>51</ele>
        <time>2021-02-27T12:54:23.000Z</time>
      </trkpt>
      <trkpt lat="47.23764" lon="-1.47104">
        <ele>52</ele>
        <time>2021-02-27T12:54:25.000Z</time>
      </trkpt>
      <trkpt lat="47.23754" lon="-1.47118">
        <ele>51</ele>
        <time>2021-02-27T12:54:27.000Z</time>
      </trkpt>
      <trkpt lat="47.23743" lon="-1.47131">
        <ele>51</ele>
        <time>2021-02-27T12:54:29.000Z</time>
      </trkpt>
      <trkpt lat="47.2373" lon="-1.47143">
        <ele>51</ele>
        <time>2021-02-27T12:54:31.000Z</time>
      </trkpt>
      <trkpt lat="47.23719" lon="-1.47157">
        <ele>51</ele>
        <time>2021-02-27T12:54:33.000Z</time>
      </trkpt>
      <trkpt lat="47.23709" lon="-1.47173">
        <ele>51</ele>
        <time>2021-02-27T12:54:35.000Z</time>
      </trkpt>
      <trkpt lat="47.23698" lon="-1.47187">
        <ele>50</ele>
        <time>2021-02-27T12:54:37.000Z</time>
      </trkpt>
      <trkpt lat="47.23689" lon="-1.47203">
        <ele>51</ele>
        <time>2021-02-27T12:54:39.000Z</time>
      </trkpt>
      <trkpt lat="47.2368" lon="-1.47218">
        <ele>51</ele>
        <time>2021-02-27T12:54:41.000Z</time>
      </trkpt>
      <trkpt lat="47.23668" lon="-1.47232">
        <ele>51</ele>
        <time>2021-02-27T12:54:43.000Z</time>
      </trkpt>
      <trkpt lat="47.23657" lon="-1.47245">
        <ele>51</ele>
        <time>2021-02-27T12:54:45.000Z</time>
      </trkpt>
      <trkpt lat="47.23646" lon="-1.47258">
        <ele>50</ele>
        <time>2021-02-27T12:54:47.000Z</time>
      </trkpt>
      <trkpt lat="47.23635" lon="-1.47271">
        <ele>51</ele>
        <time>2021-02-27T12:54:49.000Z</time>
      </trkpt>
      <trkpt lat="47.23623" lon="-1.47284">
        <ele>51</ele>
        <time>2021-02-27T12:54:51.000Z</time>
      </trkpt>
      <trkpt lat="47.23612" lon="-1.47296">
        <ele>51</ele>
        <time>2021-02-27T12:54:53.000Z</time>
      </trkpt>
      <trkpt lat="47.236" lon="-1.47308">
        <ele>51</ele>
        <time>2021-02-27T12:54:55.000Z</time>
      </trkpt>
      <trkpt lat="47.23588" lon="-1.4732">
        <ele>51</ele>
        <time>2021-02-27T12:54:57.000Z</time>
      </trkpt>
      <trkpt lat="47.23576" lon="-1.4733">
        <ele>51</ele>
        <time>2021-02-27T12:54:59.000Z</time>
      </trkpt>
      <trkpt lat="47.23564" lon="-1.47341">
        <ele>51</ele>
        <time>2021-02-27T12:55:01.000Z</time>
      </trkpt>
      <trkpt lat="47.23552" lon="-1.47351">
        <ele>50</ele>
        <time>2021-02-27T12:55:03.000Z</time>
      </trkpt>
      <trkpt lat="47.23539" lon="-1.47362">
        <ele>51</ele>
        <time>2021-02-27T12:55:05.000Z</time>
      </trkpt>
      <trkpt lat="47.23526" lon="-1.47372">
        <ele>51</ele>
        <time>2021-02-27T12:55:07.000Z</time>
      </trkpt>
      <trkpt lat="47.23514" lon="-1.47382">
        <ele>51</ele>
        <time>2021-02-27T12:55:09.000Z</time>
      </trkpt>
      <trkpt lat="47.23502" lon="-1.47392">
        <ele>51</ele>
        <time>2021-02-27T12:55:11.000Z</time>
      </trkpt>
      <trkpt lat="47.2349" lon="-1.47401">
        <ele>52</ele>
        <time>2021-02-27T12:55:13.000Z</time>
      </trkpt>
      <trkpt lat="47.23477" lon="-1.47408">
        <ele>52</ele>
        <time>2021-02-27T12:55:15.000Z</time>
      </trkpt>
      <trkpt lat="47.23464" lon="-1.47413">
        <ele>52</ele>
        <time>2021-02-27T12:55:17.000Z</time>
      </trkpt>
      <trkpt lat="47.23451" lon="-1.47419">
        <ele>52</ele>
        <time>2021-02-27T12:55:19.000Z</time>
      </trkpt>
      <trkpt lat="47.23438" lon="-1.47425">
        <ele>52</ele>
        <time>2021-02-27T12:55:21.000Z</time>
      </trkpt>
      <trkpt lat="47.23426" lon="-1.47428">
        <ele>53</ele>
        <time>2021-02-27T12:55:23.000Z</time>
      </trkpt>
      <trkpt lat="47.23415" lon="-1.47436">
        <ele>53</ele>
        <time>2021-02-27T12:55:25.000Z</time>
      </trkpt>
      <trkpt lat="47.23403" lon="-1.47445">
        <ele>52</ele>
        <time>2021-02-27T12:55:27.000Z</time>
      </trkpt>
      <trkpt lat="47.23391" lon="-1.47454">
        <ele>53</ele>
        <time>2021-02-27T12:55:29.000Z</time>
      </trkpt>
      <trkpt lat="47.23377" lon="-1.47461">
        <ele>53</ele>
        <time>2021-02-27T12:55:31.000Z</time>
      </trkpt>
      <trkpt lat="47.23363" lon="-1.47467">
        <ele>53</ele>
        <time>2021-02-27T12:55:33.000Z</time>
      </trkpt>
      <trkpt lat="47.23349" lon="-1.47473">
        <ele>52</ele>
        <time>2021-02-27T12:55:35.000Z</time>
      </trkpt>
      <trkpt lat="47.23337" lon="-1.47481">
        <ele>52</ele>
        <time>2021-02-27T12:55:37.000Z</time>
      </trkpt>
      <trkpt lat="47.23324" lon="-1.47492">
        <ele>52</ele>
        <time>2021-02-27T12:55:39.000Z</time>
      </trkpt>
      <trkpt lat="47.23312" lon="-1.47501">
        <ele>52</ele>
        <time>2021-02-27T12:55:41.000Z</time>
      </trkpt>
      <trkpt lat="47.23299" lon="-1.47508">
        <ele>52</ele>
        <time>2021-02-27T12:55:43.000Z</time>
      </trkpt>
      <trkpt lat="47.23285" lon="-1.47515">
        <ele>51</ele>
        <time>2021-02-27T12:55:45.000Z</time>
      </trkpt>
      <trkpt lat="47.23273" lon="-1.47524">
        <ele>51</ele>
        <time>2021-02-27T12:55:47.000Z</time>
      </trkpt>
      <trkpt lat="47.23263" lon="-1.47537">
        <ele>52</ele>
        <time>2021-02-27T12:55:49.000Z</time>
      </trkpt>
      <trkpt lat="47.23253" lon="-1.47552">
        <ele>52</ele>
        <time>2021-02-27T12:55:51.000Z</time>
      </trkpt>
      <trkpt lat="47.23245" lon="-1.47568">
        <ele>52</ele>
        <time>2021-02-27T12:55:53.000Z</time>
      </trkpt>
      <trkpt lat="47.23236" lon="-1.47583">
        <ele>52</ele>
        <time>2021-02-27T12:55:55.000Z</time>
      </trkpt>
      <trkpt lat="47.23226" lon="-1.476">
        <ele>52</ele>
        <time>2021-02-27T12:55:57.000Z</time>
      </trkpt>
      <trkpt lat="47.23219" lon="-1.47617">
        <ele>52</ele>
        <time>2021-02-27T12:55:59.000Z</time>
      </trkpt>
      <trkpt lat="47.23212" lon="-1.47634">
        <ele>52</ele>
        <time>2021-02-27T12:56:01.000Z</time>
      </trkpt>
      <trkpt lat="47.23205" lon="-1.47651">
        <ele>52</ele>
        <time>2021-02-27T12:56:03.000Z</time>
      </trkpt>
      <trkpt lat="47.23198" lon="-1.47668">
        <ele>51</ele>
        <time>2021-02-27T12:56:05.000Z</time>
      </trkpt>
      <trkpt lat="47.2319" lon="-1.47685">
        <ele>51</ele>
        <time>2021-02-27T12:56:07.000Z</time>
      </trkpt>
      <trkpt lat="47.23182" lon="-1.47703">
        <ele>51</ele>
        <time>2021-02-27T12:56:09.000Z</time>
      </trkpt>
      <trkpt lat="47.23174" lon="-1.47721">
        <ele>51</ele>
        <time>2021-02-27T12:56:11.000Z</time>
      </trkpt>
      <trkpt lat="47.23167" lon="-1.47739">
        <ele>51</ele>
        <time>2021-02-27T12:56:13.000Z</time>
      </trkpt>
      <trkpt lat="47.2316" lon="-1.47756">
        <ele>51</ele>
        <time>2021-02-27T12:56:15.000Z</time>
      </trkpt>
      <trkpt lat="47.23153" lon="-1.47774">
        <ele>51</ele>
        <time>2021-02-27T12:56:17.000Z</time>
      </trkpt>
      <trkpt lat="47.23148" lon="-1.4779">
        <ele>51</ele>
        <time>2021-02-27T12:56:19.000Z</time>
      </trkpt>
      <trkpt lat="47.23142" lon="-1.47807">
        <ele>51</ele>
        <time>2021-02-27T12:56:21.000Z</time>
      </trkpt>
      <trkpt lat="47.23135" lon="-1.47824">
        <ele>51</ele>
        <time>2021-02-27T12:56:23.000Z</time>
      </trkpt>
      <trkpt lat="47.23128" lon="-1.47841">
        <ele>51</ele>
        <time>2021-02-27T12:56:25.000Z</time>
      </trkpt>
      <trkpt lat="47.2312" lon="-1.47857">
        <ele>51</ele>
        <time>2021-02-27T12:56:27.000Z</time>
      </trkpt>
      <trkpt lat="47.23111" lon="-1.47872">
        <ele>51</ele>
        <time>2021-02-27T12:56:29.000Z</time>
      </trkpt>
      <trkpt lat="47.23101" lon="-1.47886">
        <ele>51</ele>
        <time>2021-02-27T12:56:31.000Z</time>
      </trkpt>
      <trkpt lat="47.23091" lon="-1.47899">
        <ele>51</ele>
        <time>2021-02-27T12:56:33.000Z</time>
      </trkpt>
      <trkpt lat="47.23081" lon="-1.47912">
        <ele>51</ele>
        <time>2021-02-27T12:56:35.000Z</time>
      </trkpt>
      <trkpt lat="47.23071" lon="-1.47925">
        <ele>51</ele>
        <time>2021-02-27T12:56:37.000Z</time>
      </trkpt>
      <trkpt lat="47.23061" lon="-1.47938">
        <ele>51</ele>
        <time>2021-02-27T12:56:39.000Z</time>
      </trkpt>
      <trkpt lat="47.23051" lon="-1.47951">
        <ele>51</ele>
        <time>2021-02-27T12:56:41.000Z</time>
      </trkpt>
      <trkpt lat="47.23041" lon="-1.47965">
        <ele>51</ele>
        <time>2021-02-27T12:56:43.000Z</time>
      </trkpt>
      <trkpt lat="47.23031" lon="-1.47979">
        <ele>51</ele>
        <time>2021-02-27T12:56:45.000Z</time>
      </trkpt>
      <trkpt lat="47.23021" lon="-1.47993">
        <ele>51</ele>
        <time>2021-02-27T12:56:47.000Z</time>
      </trkpt>
      <trkpt lat="47.23012" lon="-1.48007">
        <ele>51</ele>
        <time>2021-02-27T12:56:49.000Z</time>
      </trkpt>
      <trkpt lat="47.23002" lon="-1.48023">
        <ele>51</ele>
        <time>2021-02-27T12:56:51.000Z</time>
      </trkpt>
      <trkpt lat="47.22994" lon="-1.48038">
        <ele>51</ele>
        <time>2021-02-27T12:56:53.000Z</time>
      </trkpt>
      <trkpt lat="47.22985" lon="-1.48054">
        <ele>51</ele>
        <time>2021-02-27T12:56:55.000Z</time>
      </trkpt>
      <trkpt lat="47.22976" lon="-1.48069">
        <ele>51</ele>
        <time>2021-02-27T12:56:57.000Z</time>
      </trkpt>
      <trkpt lat="47.22966" lon="-1.48082">
        <ele>51</ele>
        <time>2021-02-27T12:56:59.000Z</time>
      </trkpt>
      <trkpt lat="47.22957" lon="-1.48097">
        <ele>50</ele>
        <time>2021-02-27T12:57:01.000Z</time>
      </trkpt>
      <trkpt lat="47.22945" lon="-1.48107">
        <ele>50</ele>
        <time>2021-02-27T12:57:03.000Z</time>
      </trkpt>
      <trkpt lat="47.2293" lon="-1.4811">
        <ele>50</ele>
        <time>2021-02-27T12:57:05.000Z</time>
      </trkpt>
      <trkpt lat="47.22917" lon="-1.48115">
        <ele>50</ele>
        <time>2021-02-27T12:57:07.000Z</time>
      </trkpt>
      <trkpt lat="47.22905" lon="-1.48125">
        <ele>50</ele>
        <time>2021-02-27T12:57:09.000Z</time>
      </trkpt>
      <trkpt lat="47.22895" lon="-1.48138">
        <ele>50</ele>
        <time>2021-02-27T12:57:11.000Z</time>
      </trkpt>
      <trkpt lat="47.22885" lon="-1.48152">
        <ele>50</ele>
        <time>2021-02-27T12:57:13.000Z</time>
      </trkpt>
      <trkpt lat="47.22876" lon="-1.48166">
        <ele>50</ele>
        <time>2021-02-27T12:57:15.000Z</time>
      </trkpt>
      <trkpt lat="47.22867" lon="-1.4818">
        <ele>50</ele>
        <time>2021-02-27T12:57:17.000Z</time>
      </trkpt>
      <trkpt lat="47.22858" lon="-1.48196">
        <ele>50</ele>
        <time>2021-02-27T12:57:19.000Z</time>
      </trkpt>
      <trkpt lat="47.22848" lon="-1.4821">
        <ele>51</ele>
        <time>2021-02-27T12:57:21.000Z</time>
      </trkpt>
      <trkpt lat="47.2284" lon="-1.48225">
        <ele>51</ele>
        <time>2021-02-27T12:57:23.000Z</time>
      </trkpt>
      <trkpt lat="47.2283" lon="-1.48239">
        <ele>51</ele>
        <time>2021-02-27T12:57:25.000Z</time>
      </trkpt>
      <trkpt lat="47.22822" lon="-1.48251">
        <ele>51</ele>
        <time>2021-02-27T12:57:27.000Z</time>
      </trkpt>
      <trkpt lat="47.22813" lon="-1.48266">
        <ele>51</ele>
        <time>2021-02-27T12:57:29.000Z</time>
      </trkpt>
      <trkpt lat="47.22803" lon="-1.4828">
        <ele>51</ele>
        <time>2021-02-27T12:57:31.000Z</time>
      </trkpt>
      <trkpt lat="47.22795" lon="-1.48295">
        <ele>52</ele>
        <time>2021-02-27T12:57:33.000Z</time>
      </trkpt>
      <trkpt lat="47.22785" lon="-1.4831">
        <ele>52</ele>
        <time>2021-02-27T12:57:35.000Z</time>
      </trkpt>
      <trkpt lat="47.22776" lon="-1.48325">
        <ele>52</ele>
        <time>2021-02-27T12:57:37.000Z</time>
      </trkpt>
      <trkpt lat="47.22766" lon="-1.48339">
        <ele>52</ele>
        <time>2021-02-27T12:57:39.000Z</time>
      </trkpt>
      <trkpt lat="47.22756" lon="-1.48352">
        <ele>51</ele>
        <time>2021-02-27T12:57:41.000Z</time>
      </trkpt>
      <trkpt lat="47.22746" lon="-1.48365">
        <ele>51</ele>
        <time>2021-02-27T12:57:43.000Z</time>
      </trkpt>
      <trkpt lat="47.22736" lon="-1.4838">
        <ele>51</ele>
        <time>2021-02-27T12:57:45.000Z</time>
      </trkpt>
      <trkpt lat="47.22725" lon="-1.48392">
        <ele>51</ele>
        <time>2021-02-27T12:57:47.000Z</time>
      </trkpt>
      <trkpt lat="47.22715" lon="-1.48406">
        <ele>51</ele>
        <time>2021-02-27T12:57:49.000Z</time>
      </trkpt>
      <trkpt lat="47.22707" lon="-1.48422">
        <ele>51</ele>
        <time>2021-02-27T12:57:51.000Z</time>
      </trkpt>
      <trkpt lat="47.22701" lon="-1.4844">
        <ele>52</ele>
        <time>2021-02-27T12:57:53.000Z</time>
      </trkpt>
      <trkpt lat="47.22695" lon="-1.48458">
        <ele>51</ele>
        <time>2021-02-27T12:57:55.000Z</time>
      </trkpt>
      <trkpt lat="47.22688" lon="-1.48475">
        <ele>51</ele>
        <time>2021-02-27T12:57:57.000Z</time>
      </trkpt>
      <trkpt lat="47.2268" lon="-1.48491">
        <ele>51</ele>
        <time>2021-02-27T12:57:59.000Z</time>
      </trkpt>
      <trkpt lat="47.22673" lon="-1.48507">
        <ele>51</ele>
        <time>2021-02-27T12:58:01.000Z</time>
      </trkpt>
      <trkpt lat="47.22668" lon="-1.48525">
        <ele>51</ele>
        <time>2021-02-27T12:58:03.000Z</time>
      </trkpt>
      <trkpt lat="47.22662" lon="-1.48543">
        <ele>51</ele>
        <time>2021-02-27T12:58:05.000Z</time>
      </trkpt>
      <trkpt lat="47.22656" lon="-1.48562">
        <ele>52</ele>
        <time>2021-02-27T12:58:07.000Z</time>
      </trkpt>
      <trkpt lat="47.22649" lon="-1.48579">
        <ele>52</ele>
        <time>2021-02-27T12:58:09.000Z</time>
      </trkpt>
      <trkpt lat="47.22643" lon="-1.48596">
        <ele>52</ele>
        <time>2021-02-27T12:58:11.000Z</time>
      </trkpt>
      <trkpt lat="47.22637" lon="-1.48613">
        <ele>52</ele>
        <time>2021-02-27T12:58:13.000Z</time>
      </trkpt>
      <trkpt lat="47.22631" lon="-1.4863">
        <ele>53</ele>
        <time>2021-02-27T12:58:15.000Z</time>
      </trkpt>
      <trkpt lat="47.22625" lon="-1.48648">
        <ele>53</ele>
        <time>2021-02-27T12:58:17.000Z</time>
      </trkpt>
      <trkpt lat="47.22619" lon="-1.48665">
        <ele>52</ele>
        <time>2021-02-27T12:58:19.000Z</time>
      </trkpt>
      <trkpt lat="47.22613" lon="-1.48684">
        <ele>52</ele>
        <time>2021-02-27T12:58:21.000Z</time>
      </trkpt>
      <trkpt lat="47.22607" lon="-1.48703">
        <ele>52</ele>
        <time>2021-02-27T12:58:23.000Z</time>
      </trkpt>
      <trkpt lat="47.22601" lon="-1.48722">
        <ele>52</ele>
        <time>2021-02-27T12:58:25.000Z</time>
      </trkpt>
      <trkpt lat="47.22596" lon="-1.48741">
        <ele>52</ele>
        <time>2021-02-27T12:58:27.000Z</time>
      </trkpt>
      <trkpt lat="47.2259" lon="-1.4876">
        <ele>52</ele>
        <time>2021-02-27T12:58:29.000Z</time>
      </trkpt>
      <trkpt lat="47.22585" lon="-1.48779">
        <ele>53</ele>
        <time>2021-02-27T12:58:31.000Z</time>
      </trkpt>
      <trkpt lat="47.22579" lon="-1.48798">
        <ele>53</ele>
        <time>2021-02-27T12:58:33.000Z</time>
      </trkpt>
      <trkpt lat="47.22572" lon="-1.48815">
        <ele>52</ele>
        <time>2021-02-27T12:58:35.000Z</time>
      </trkpt>
      <trkpt lat="47.22567" lon="-1.48832">
        <ele>52</ele>
        <time>2021-02-27T12:58:37.000Z</time>
      </trkpt>
      <trkpt lat="47.22562" lon="-1.4885">
        <ele>52</ele>
        <time>2021-02-27T12:58:39.000Z</time>
      </trkpt>
      <trkpt lat="47.22557" lon="-1.48867">
        <ele>52</ele>
        <time>2021-02-27T12:58:41.000Z</time>
      </trkpt>
      <trkpt lat="47.22552" lon="-1.48885">
        <ele>52</ele>
        <time>2021-02-27T12:58:43.000Z</time>
      </trkpt>
      <trkpt lat="47.22547" lon="-1.48902">
        <ele>52</ele>
        <time>2021-02-27T12:58:45.000Z</time>
      </trkpt>
      <trkpt lat="47.22542" lon="-1.4892">
        <ele>52</ele>
        <time>2021-02-27T12:58:47.000Z</time>
      </trkpt>
      <trkpt lat="47.22536" lon="-1.48939">
        <ele>52</ele>
        <time>2021-02-27T12:58:49.000Z</time>
      </trkpt>
      <trkpt lat="47.2253" lon="-1.48957">
        <ele>53</ele>
        <time>2021-02-27T12:58:51.000Z</time>
      </trkpt>
      <trkpt lat="47.22523" lon="-1.48974">
        <ele>53</ele>
        <time>2021-02-27T12:58:53.000Z</time>
      </trkpt>
      <trkpt lat="47.22517" lon="-1.48993">
        <ele>52</ele>
        <time>2021-02-27T12:58:55.000Z</time>
      </trkpt>
      <trkpt lat="47.22512" lon="-1.49012">
        <ele>52</ele>
        <time>2021-02-27T12:58:57.000Z</time>
      </trkpt>
      <trkpt lat="47.22509" lon="-1.49029">
        <ele>52</ele>
        <time>2021-02-27T12:58:59.000Z</time>
      </trkpt>
      <trkpt lat="47.22504" lon="-1.49048">
        <ele>53</ele>
        <time>2021-02-27T12:59:01.000Z</time>
      </trkpt>
      <trkpt lat="47.22498" lon="-1.49067">
        <ele>53</ele>
        <time>2021-02-27T12:59:03.000Z</time>
      </trkpt>
      <trkpt lat="47.22493" lon="-1.49085">
        <ele>52</ele>
        <time>2021-02-27T12:59:05.000Z</time>
      </trkpt>
      <trkpt lat="47.22487" lon="-1.49104">
        <ele>52</ele>
        <time>2021-02-27T12:59:07.000Z</time>
      </trkpt>
      <trkpt lat="47.2248" lon="-1.49123">
        <ele>52</ele>
        <time>2021-02-27T12:59:09.000Z</time>
      </trkpt>
      <trkpt lat="47.22474" lon="-1.49144">
        <ele>52</ele>
        <time>2021-02-27T12:59:11.000Z</time>
      </trkpt>
      <trkpt lat="47.22467" lon="-1.49162">
        <ele>53</ele>
        <time>2021-02-27T12:59:13.000Z</time>
      </trkpt>
      <trkpt lat="47.2246" lon="-1.4918">
        <ele>52</ele>
        <time>2021-02-27T12:59:15.000Z</time>
      </trkpt>
      <trkpt lat="47.22452" lon="-1.49198">
        <ele>51</ele>
        <time>2021-02-27T12:59:17.000Z</time>
      </trkpt>
      <trkpt lat="47.22445" lon="-1.49217">
        <ele>51</ele>
        <time>2021-02-27T12:59:19.000Z</time>
      </trkpt>
      <trkpt lat="47.22439" lon="-1.49236">
        <ele>51</ele>
        <time>2021-02-27T12:59:21.000Z</time>
      </trkpt>
      <trkpt lat="47.22432" lon="-1.49253">
        <ele>51</ele>
        <time>2021-02-27T12:59:23.000Z</time>
      </trkpt>
      <trkpt lat="47.22425" lon="-1.49271">
        <ele>51</ele>
        <time>2021-02-27T12:59:25.000Z</time>
      </trkpt>
      <trkpt lat="47.22417" lon="-1.49288">
        <ele>52</ele>
        <time>2021-02-27T12:59:27.000Z</time>
      </trkpt>
      <trkpt lat="47.22411" lon="-1.49305">
        <ele>51</ele>
        <time>2021-02-27T12:59:29.000Z</time>
      </trkpt>
      <trkpt lat="47.22405" lon="-1.49323">
        <ele>52</ele>
        <time>2021-02-27T12:59:31.000Z</time>
      </trkpt>
      <trkpt lat="47.22399" lon="-1.49341">
        <ele>52</ele>
        <time>2021-02-27T12:59:33.000Z</time>
      </trkpt>
      <trkpt lat="47.22391" lon="-1.49357">
        <ele>52</ele>
        <time>2021-02-27T12:59:35.000Z</time>
      </trkpt>
      <trkpt lat="47.22385" lon="-1.49373">
        <ele>52</ele>
        <time>2021-02-27T12:59:37.000Z</time>
      </trkpt>
      <trkpt lat="47.22377" lon="-1.49389">
        <ele>52</ele>
        <time>2021-02-27T12:59:39.000Z</time>
      </trkpt>
      <trkpt lat="47.2237" lon="-1.49406">
        <ele>52</ele>
        <time>2021-02-27T12:59:41.000Z</time>
      </trkpt>
      <trkpt lat="47.22362" lon="-1.49422">
        <ele>51</ele>
        <time>2021-02-27T12:59:43.000Z</time>
      </trkpt>
      <trkpt lat="47.22356" lon="-1.49439">
        <ele>51</ele>
        <time>2021-02-27T12:59:45.000Z</time>
      </trkpt>
      <trkpt lat="47.22349" lon="-1.49456">
        <ele>52</ele>
        <time>2021-02-27T12:59:47.000Z</time>
      </trkpt>
      <trkpt lat="47.22344" lon="-1.49475">
        <ele>52</ele>
        <time>2021-02-27T12:59:49.000Z</time>
      </trkpt>
      <trkpt lat="47.22339" lon="-1.49493">
        <ele>52</ele>
        <time>2021-02-27T12:59:51.000Z</time>
      </trkpt>
      <trkpt lat="47.22333" lon="-1.49512">
        <ele>52</ele>
        <time>2021-02-27T12:59:53.000Z</time>
      </trkpt>
      <trkpt lat="47.22328" lon="-1.49531">
        <ele>52</ele>
        <time>2021-02-27T12:59:55.000Z</time>
      </trkpt>
      <trkpt lat="47.22321" lon="-1.49549">
        <ele>53</ele>
        <time>2021-02-27T12:59:57.000Z</time>
      </trkpt>
      <trkpt lat="47.22315" lon="-1.49566">
        <ele>53</ele>
        <time>2021-02-27T12:59:59.000Z</time>
      </trkpt>
      <trkpt lat="47.22309" lon="-1.49584">
        <ele>53</ele>
        <time>2021-02-27T13:00:01.000Z</time>
      </trkpt>
      <trkpt lat="47.22303" lon="-1.49602">
        <ele>52</ele>
        <time>2021-02-27T13:00:03.000Z</time>
      </trkpt>
      <trkpt lat="47.22297" lon="-1.4962">
        <ele>51</ele>
        <time>2021-02-27T13:00:05.000Z</time>
      </trkpt>
      <trkpt lat="47.22293" lon="-1.49639">
        <ele>51</ele>
        <time>2021-02-27T13:00:07.000Z</time>
      </trkpt>
      <trkpt lat="47.22288" lon="-1.49656">
        <ele>51</ele>
        <time>2021-02-27T13:00:09.000Z</time>
      </trkpt>
      <trkpt lat="47.22283" lon="-1.49674">
        <ele>51</ele>
        <time>2021-02-27T13:00:11.000Z</time>
      </trkpt>
      <trkpt lat="47.22276" lon="-1.49692">
        <ele>51</ele>
        <time>2021-02-27T13:00:13.000Z</time>
      </trkpt>
      <trkpt lat="47.2227" lon="-1.49709">
        <ele>51</ele>
        <time>2021-02-27T13:00:15.000Z</time>
      </trkpt>
      <trkpt lat="47.22264" lon="-1.49726">
        <ele>52</ele>
        <time>2021-02-27T13:00:17.000Z</time>
      </trkpt>
      <trkpt lat="47.22261" lon="-1.49744">
        <ele>52</ele>
        <time>2021-02-27T13:00:19.000Z</time>
      </trkpt>
      <trkpt lat="47.22258" lon="-1.49762">
        <ele>52</ele>
        <time>2021-02-27T13:00:21.000Z</time>
      </trkpt>
      <trkpt lat="47.22257" lon="-1.49782">
        <ele>51</ele>
        <time>2021-02-27T13:00:23.000Z</time>
      </trkpt>
      <trkpt lat="47.22254" lon="-1.49801">
        <ele>52</ele>
        <time>2021-02-27T13:00:25.000Z</time>
      </trkpt>
      <trkpt lat="47.22251" lon="-1.49819">
        <ele>52</ele>
        <time>2021-02-27T13:00:27.000Z</time>
      </trkpt>
      <trkpt lat="47.22247" lon="-1.49837">
        <ele>52</ele>
        <time>2021-02-27T13:00:29.000Z</time>
      </trkpt>
      <trkpt lat="47.22243" lon="-1.49856">
        <ele>52</ele>
        <time>2021-02-27T13:00:31.000Z</time>
      </trkpt>
      <trkpt lat="47.22239" lon="-1.49874">
        <ele>52</ele>
        <time>2021-02-27T13:00:33.000Z</time>
      </trkpt>
      <trkpt lat="47.22234" lon="-1.49894">
        <ele>51</ele>
        <time>2021-02-27T13:00:35.000Z</time>
      </trkpt>
      <trkpt lat="47.2223" lon="-1.49912">
        <ele>51</ele>
        <time>2021-02-27T13:00:37.000Z</time>
      </trkpt>
      <trkpt lat="47.22225" lon="-1.4993">
        <ele>50</ele>
        <time>2021-02-27T13:00:39.000Z</time>
      </trkpt>
      <trkpt lat="47.22222" lon="-1.49948">
        <ele>51</ele>
        <time>2021-02-27T13:00:41.000Z</time>
      </trkpt>
      <trkpt lat="47.22217" lon="-1.49967">
        <ele>50</ele>
        <time>2021-02-27T13:00:43.000Z</time>
      </trkpt>
      <trkpt lat="47.22213" lon="-1.49984">
        <ele>51</ele>
        <time>2021-02-27T13:00:45.000Z</time>
      </trkpt>
      <trkpt lat="47.22206" lon="-1.50001">
        <ele>50</ele>
        <time>2021-02-27T13:00:47.000Z</time>
      </trkpt>
      <trkpt lat="47.222" lon="-1.5002">
        <ele>50</ele>
        <time>2021-02-27T13:00:49.000Z</time>
      </trkpt>
      <trkpt lat="47.22195" lon="-1.50039">
        <ele>50</ele>
        <time>2021-02-27T13:00:51.000Z</time>
      </trkpt>
      <trkpt lat="47.22191" lon="-1.50059">
        <ele>51</ele>
        <time>2021-02-27T13:00:53.000Z</time>
      </trkpt>
      <trkpt lat="47.22187" lon="-1.50079">
        <ele>52</ele>
        <time>2021-02-27T13:00:55.000Z</time>
      </trkpt>
      <trkpt lat="47.22182" lon="-1.50098">
        <ele>52</ele>
        <time>2021-02-27T13:00:57.000Z</time>
      </trkpt>
      <trkpt lat="47.22176" lon="-1.50118">
        <ele>53</ele>
        <time>2021-02-27T13:00:59.000Z</time>
      </trkpt>
      <trkpt lat="47.22169" lon="-1.50136">
        <ele>53</ele>
        <time>2021-02-27T13:01:01.000Z</time>
      </trkpt>
      <trkpt lat="47.22162" lon="-1.50154">
        <ele>53</ele>
        <time>2021-02-27T13:01:03.000Z</time>
      </trkpt>
      <trkpt lat="47.22156" lon="-1.50172">
        <ele>53</ele>
        <time>2021-02-27T13:01:05.000Z</time>
      </trkpt>
      <trkpt lat="47.22152" lon="-1.50191">
        <ele>53</ele>
        <time>2021-02-27T13:01:07.000Z</time>
      </trkpt>
      <trkpt lat="47.22149" lon="-1.50209">
        <ele>52</ele>
        <time>2021-02-27T13:01:09.000Z</time>
      </trkpt>
      <trkpt lat="47.22145" lon="-1.50225">
        <ele>52</ele>
        <time>2021-02-27T13:01:11.000Z</time>
      </trkpt>
      <trkpt lat="47.22141" lon="-1.50241">
        <ele>52</ele>
        <time>2021-02-27T13:01:13.000Z</time>
      </trkpt>
      <trkpt lat="47.22137" lon="-1.50258">
        <ele>52</ele>
        <time>2021-02-27T13:01:15.000Z</time>
      </trkpt>
      <trkpt lat="47.22131" lon="-1.50275">
        <ele>51</ele>
        <time>2021-02-27T13:01:17.000Z</time>
      </trkpt>
      <trkpt lat="47.22123" lon="-1.50293">
        <ele>51</ele>
        <time>2021-02-27T13:01:19.000Z</time>
      </trkpt>
      <trkpt lat="47.22115" lon="-1.50307">
        <ele>52</ele>
        <time>2021-02-27T13:01:21.000Z</time>
      </trkpt>
      <trkpt lat="47.22106" lon="-1.50322">
        <ele>52</ele>
        <time>2021-02-27T13:01:23.000Z</time>
      </trkpt>
      <trkpt lat="47.22098" lon="-1.50339">
        <ele>52</ele>
        <time>2021-02-27T13:01:25.000Z</time>
      </trkpt>
      <trkpt lat="47.22092" lon="-1.50358">
        <ele>52</ele>
        <time>2021-02-27T13:01:27.000Z</time>
      </trkpt>
      <trkpt lat="47.22087" lon="-1.50377">
        <ele>52</ele>
        <time>2021-02-27T13:01:29.000Z</time>
      </trkpt>
      <trkpt lat="47.22083" lon="-1.50396">
        <ele>52</ele>
        <time>2021-02-27T13:01:31.000Z</time>
      </trkpt>
      <trkpt lat="47.22078" lon="-1.50414">
        <ele>51</ele>
        <time>2021-02-27T13:01:33.000Z</time>
      </trkpt>
      <trkpt lat="47.22075" lon="-1.50433">
        <ele>52</ele>
        <time>2021-02-27T13:01:35.000Z</time>
      </trkpt>
      <trkpt lat="47.22072" lon="-1.50453">
        <ele>52</ele>
        <time>2021-02-27T13:01:37.000Z</time>
      </trkpt>
      <trkpt lat="47.22069" lon="-1.50472">
        <ele>53</ele>
        <time>2021-02-27T13:01:39.000Z</time>
      </trkpt>
      <trkpt lat="47.22066" lon="-1.50491">
        <ele>52</ele>
        <time>2021-02-27T13:01:41.000Z</time>
      </trkpt>
      <trkpt lat="47.22066" lon="-1.50511">
        <ele>52</ele>
        <time>2021-02-27T13:01:43.000Z</time>
      </trkpt>
      <trkpt lat="47.22064" lon="-1.5053">
        <ele>52</ele>
        <time>2021-02-27T13:01:45.000Z</time>
      </trkpt>
      <trkpt lat="47.22063" lon="-1.50551">
        <ele>52</ele>
        <time>2021-02-27T13:01:47.000Z</time>
      </trkpt>
      <trkpt lat="47.22062" lon="-1.50571">
        <ele>52</ele>
        <time>2021-02-27T13:01:49.000Z</time>
      </trkpt>
      <trkpt lat="47.22062" lon="-1.50589">
        <ele>52</ele>
        <time>2021-02-27T13:01:51.000Z</time>
      </trkpt>
      <trkpt lat="47.2206" lon="-1.50609">
        <ele>51</ele>
        <time>2021-02-27T13:01:53.000Z</time>
      </trkpt>
      <trkpt lat="47.22059" lon="-1.50629">
        <ele>51</ele>
        <time>2021-02-27T13:01:55.000Z</time>
      </trkpt>
      <trkpt lat="47.22058" lon="-1.50648">
        <ele>52</ele>
        <time>2021-02-27T13:01:57.000Z</time>
      </trkpt>
      <trkpt lat="47.22055" lon="-1.50669">
        <ele>53</ele>
        <time>2021-02-27T13:01:59.000Z</time>
      </trkpt>
      <trkpt lat="47.22053" lon="-1.50686">
        <ele>53</ele>
        <time>2021-02-27T13:02:01.000Z</time>
      </trkpt>
      <trkpt lat="47.22052" lon="-1.50704">
        <ele>53</ele>
        <time>2021-02-27T13:02:03.000Z</time>
      </trkpt>
      <trkpt lat="47.2205" lon="-1.50722">
        <ele>53</ele>
        <time>2021-02-27T13:02:05.000Z</time>
      </trkpt>
      <trkpt lat="47.22049" lon="-1.50739">
        <ele>53</ele>
        <time>2021-02-27T13:02:07.000Z</time>
      </trkpt>
      <trkpt lat="47.22046" lon="-1.50757">
        <ele>52</ele>
        <time>2021-02-27T13:02:09.000Z</time>
      </trkpt>
      <trkpt lat="47.22044" lon="-1.50775">
        <ele>52</ele>
        <time>2021-02-27T13:02:11.000Z</time>
      </trkpt>
      <trkpt lat="47.22039" lon="-1.50792">
        <ele>52</ele>
        <time>2021-02-27T13:02:13.000Z</time>
      </trkpt>
      <trkpt lat="47.22034" lon="-1.50807">
        <ele>51</ele>
        <time>2021-02-27T13:02:15.000Z</time>
      </trkpt>
      <trkpt lat="47.22028" lon="-1.50823">
        <ele>52</ele>
        <time>2021-02-27T13:02:17.000Z</time>
      </trkpt>
      <trkpt lat="47.22022" lon="-1.50841">
        <ele>52</ele>
        <time>2021-02-27T13:02:19.000Z</time>
      </trkpt>
      <trkpt lat="47.22014" lon="-1.5086">
        <ele>52</ele>
        <time>2021-02-27T13:02:21.000Z</time>
      </trkpt>
      <trkpt lat="47.22005" lon="-1.5088">
        <ele>52</ele>
        <time>2021-02-27T13:02:23.000Z</time>
      </trkpt>
      <trkpt lat="47.21997" lon="-1.509">
        <ele>50</ele>
        <time>2021-02-27T13:02:25.000Z</time>
      </trkpt>
      <trkpt lat="47.21991" lon="-1.50919">
        <ele>50</ele>
        <time>2021-02-27T13:02:27.000Z</time>
      </trkpt>
      <trkpt lat="47.21986" lon="-1.50937">
        <ele>51</ele>
        <time>2021-02-27T13:02:29.000Z</time>
      </trkpt>
      <trkpt lat="47.21982" lon="-1.50955">
        <ele>51</ele>
        <time>2021-02-27T13:02:31.000Z</time>
      </trkpt>
      <trkpt lat="47.21977" lon="-1.50973">
        <ele>51</ele>
        <time>2021-02-27T13:02:33.000Z</time>
      </trkpt>
      <trkpt lat="47.21971" lon="-1.5099">
        <ele>51</ele>
        <time>2021-02-27T13:02:35.000Z</time>
      </trkpt>
      <trkpt lat="47.21965" lon="-1.51007">
        <ele>51</ele>
        <time>2021-02-27T13:02:37.000Z</time>
      </trkpt>
      <trkpt lat="47.2196" lon="-1.51024">
        <ele>51</ele>
        <time>2021-02-27T13:02:39.000Z</time>
      </trkpt>
      <trkpt lat="47.21956" lon="-1.5104">
        <ele>51</ele>
        <time>2021-02-27T13:02:41.000Z</time>
      </trkpt>
      <trkpt lat="47.21952" lon="-1.51053">
        <ele>52</ele>
        <time>2021-02-27T13:02:43.000Z</time>
      </trkpt>
      <trkpt lat="47.21944" lon="-1.51062">
        <ele>52</ele>
        <time>2021-02-27T13:02:45.000Z</time>
      </trkpt>
      <trkpt lat="47.21936" lon="-1.51075">
        <ele>52</ele>
        <time>2021-02-27T13:02:47.000Z</time>
      </trkpt>
      <trkpt lat="47.21931" lon="-1.51095">
        <ele>52</ele>
        <time>2021-02-27T13:02:49.000Z</time>
      </trkpt>
      <trkpt lat="47.21924" lon="-1.51115">
        <ele>52</ele>
        <time>2021-02-27T13:02:51.000Z</time>
      </trkpt>
      <trkpt lat="47.21918" lon="-1.51134">
        <ele>52</ele>
        <time>2021-02-27T13:02:53.000Z</time>
      </trkpt>
      <trkpt lat="47.21912" lon="-1.51153">
        <ele>53</ele>
        <time>2021-02-27T13:02:55.000Z</time>
      </trkpt>
      <trkpt lat="47.21905" lon="-1.51171">
        <ele>53</ele>
        <time>2021-02-27T13:02:57.000Z</time>
      </trkpt>
      <trkpt lat="47.21899" lon="-1.51189">
        <ele>53</ele>
        <time>2021-02-27T13:02:59.000Z</time>
      </trkpt>
      <trkpt lat="47.21893" lon="-1.51207">
        <ele>53</ele>
        <time>2021-02-27T13:03:01.000Z</time>
      </trkpt>
      <trkpt lat="47.21887" lon="-1.51225">
        <ele>53</ele>
        <time>2021-02-27T13:03:03.000Z</time>
      </trkpt>
      <trkpt lat="47.21881" lon="-1.51244">
        <ele>53</ele>
        <time>2021-02-27T13:03:05.000Z</time>
      </trkpt>
      <trkpt lat="47.21876" lon="-1.51262">
        <ele>53</ele>
        <time>2021-02-27T13:03:07.000Z</time>
      </trkpt>
      <trkpt lat="47.21871" lon="-1.5128">
        <ele>53</ele>
        <time>2021-02-27T13:03:09.000Z</time>
      </trkpt>
      <trkpt lat="47.21865" lon="-1.51299">
        <ele>52</ele>
        <time>2021-02-27T13:03:11.000Z</time>
      </trkpt>
      <trkpt lat="47.21859" lon="-1.51319">
        <ele>52</ele>
        <time>2021-02-27T13:03:13.000Z</time>
      </trkpt>
      <trkpt lat="47.21852" lon="-1.5134">
        <ele>52</ele>
        <time>2021-02-27T13:03:15.000Z</time>
      </trkpt>
      <trkpt lat="47.21846" lon="-1.51361">
        <ele>51</ele>
        <time>2021-02-27T13:03:17.000Z</time>
      </trkpt>
      <trkpt lat="47.2184" lon="-1.51383">
        <ele>51</ele>
        <time>2021-02-27T13:03:19.000Z</time>
      </trkpt>
      <trkpt lat="47.21837" lon="-1.51405">
        <ele>52</ele>
        <time>2021-02-27T13:03:21.000Z</time>
      </trkpt>
      <trkpt lat="47.21832" lon="-1.51426">
        <ele>52</ele>
        <time>2021-02-27T13:03:23.000Z</time>
      </trkpt>
      <trkpt lat="47.21827" lon="-1.51446">
        <ele>52</ele>
        <time>2021-02-27T13:03:25.000Z</time>
      </trkpt>
      <trkpt lat="47.21823" lon="-1.51468">
        <ele>52</ele>
        <time>2021-02-27T13:03:27.000Z</time>
      </trkpt>
      <trkpt lat="47.21818" lon="-1.51488">
        <ele>52</ele>
        <time>2021-02-27T13:03:29.000Z</time>
      </trkpt>
      <trkpt lat="47.2181" lon="-1.51507">
        <ele>52</ele>
        <time>2021-02-27T13:03:31.000Z</time>
      </trkpt>
      <trkpt lat="47.21801" lon="-1.51526">
        <ele>52</ele>
        <time>2021-02-27T13:03:33.000Z</time>
      </trkpt>
      <trkpt lat="47.21793" lon="-1.51545">
        <ele>53</ele>
        <time>2021-02-27T13:03:35.000Z</time>
      </trkpt>
      <trkpt lat="47.21785" lon="-1.51563">
        <ele>53</ele>
        <time>2021-02-27T13:03:37.000Z</time>
      </trkpt>
      <trkpt lat="47.21777" lon="-1.5158">
        <ele>53</ele>
        <time>2021-02-27T13:03:39.000Z</time>
      </trkpt>
      <trkpt lat="47.21766" lon="-1.51595">
        <ele>53</ele>
        <time>2021-02-27T13:03:41.000Z</time>
      </trkpt>
      <trkpt lat="47.21755" lon="-1.51612">
        <ele>53</ele>
        <time>2021-02-27T13:03:43.000Z</time>
      </trkpt>
      <trkpt lat="47.21746" lon="-1.51628">
        <ele>52</ele>
        <time>2021-02-27T13:03:45.000Z</time>
      </trkpt>
      <trkpt lat="47.21737" lon="-1.51646">
        <ele>52</ele>
        <time>2021-02-27T13:03:47.000Z</time>
      </trkpt>
      <trkpt lat="47.2173" lon="-1.51665">
        <ele>52</ele>
        <time>2021-02-27T13:03:49.000Z</time>
      </trkpt>
      <trkpt lat="47.21722" lon="-1.51683">
        <ele>52</ele>
        <time>2021-02-27T13:03:51.000Z</time>
      </trkpt>
      <trkpt lat="47.21715" lon="-1.517">
        <ele>52</ele>
        <time>2021-02-27T13:03:53.000Z</time>
      </trkpt>
      <trkpt lat="47.21707" lon="-1.51717">
        <ele>52</ele>
        <time>2021-02-27T13:03:55.000Z</time>
      </trkpt>
      <trkpt lat="47.21699" lon="-1.51735">
        <ele>52</ele>
        <time>2021-02-27T13:03:57.000Z</time>
      </trkpt>
      <trkpt lat="47.21691" lon="-1.51752">
        <ele>51</ele>
        <time>2021-02-27T13:03:59.000Z</time>
      </trkpt>
      <trkpt lat="47.21683" lon="-1.5177">
        <ele>52</ele>
        <time>2021-02-27T13:04:01.000Z</time>
      </trkpt>
      <trkpt lat="47.21675" lon="-1.51787">
        <ele>52</ele>
        <time>2021-02-27T13:04:03.000Z</time>
      </trkpt>
      <trkpt lat="47.21667" lon="-1.51804">
        <ele>52</ele>
        <time>2021-02-27T13:04:05.000Z</time>
      </trkpt>
      <trkpt lat="47.21661" lon="-1.51821">
        <ele>53</ele>
        <time>2021-02-27T13:04:07.000Z</time>
      </trkpt>
      <trkpt lat="47.21654" lon="-1.51839">
        <ele>53</ele>
        <time>2021-02-27T13:04:09.000Z</time>
      </trkpt>
      <trkpt lat="47.21649" lon="-1.51858">
        <ele>54</ele>
        <time>2021-02-27T13:04:11.000Z</time>
      </trkpt>
      <trkpt lat="47.21647" lon="-1.51877">
        <ele>53</ele>
        <time>2021-02-27T13:04:13.000Z</time>
      </trkpt>
      <trkpt lat="47.2164" lon="-1.51894">
        <ele>53</ele>
        <time>2021-02-27T13:04:15.000Z</time>
      </trkpt>
      <trkpt lat="47.21632" lon="-1.51911">
        <ele>53</ele>
        <time>2021-02-27T13:04:17.000Z</time>
      </trkpt>
      <trkpt lat="47.21625" lon="-1.51928">
        <ele>52</ele>
        <time>2021-02-27T13:04:19.000Z</time>
      </trkpt>
      <trkpt lat="47.21622" lon="-1.51948">
        <ele>53</ele>
        <time>2021-02-27T13:04:21.000Z</time>
      </trkpt>
      <trkpt lat="47.2162" lon="-1.51967">
        <ele>53</ele>
        <time>2021-02-27T13:04:23.000Z</time>
      </trkpt>
      <trkpt lat="47.21609" lon="-1.51983">
        <ele>53</ele>
        <time>2021-02-27T13:04:25.000Z</time>
      </trkpt>
      <trkpt lat="47.21602" lon="-1.52001">
        <ele>52</ele>
        <time>2021-02-27T13:04:27.000Z</time>
      </trkpt>
      <trkpt lat="47.21595" lon="-1.5202">
        <ele>52</ele>
        <time>2021-02-27T13:04:29.000Z</time>
      </trkpt>
      <trkpt lat="47.2159" lon="-1.52039">
        <ele>52</ele>
        <time>2021-02-27T13:04:31.000Z</time>
      </trkpt>
      <trkpt lat="47.21584" lon="-1.52058">
        <ele>52</ele>
        <time>2021-02-27T13:04:33.000Z</time>
      </trkpt>
      <trkpt lat="47.21578" lon="-1.52077">
        <ele>53</ele>
        <time>2021-02-27T13:04:35.000Z</time>
      </trkpt>
      <trkpt lat="47.21571" lon="-1.52096">
        <ele>53</ele>
        <time>2021-02-27T13:04:37.000Z</time>
      </trkpt>
      <trkpt lat="47.21566" lon="-1.52115">
        <ele>53</ele>
        <time>2021-02-27T13:04:39.000Z</time>
      </trkpt>
      <trkpt lat="47.21559" lon="-1.52135">
        <ele>53</ele>
        <time>2021-02-27T13:04:41.000Z</time>
      </trkpt>
      <trkpt lat="47.21553" lon="-1.52154">
        <ele>53</ele>
        <time>2021-02-27T13:04:43.000Z</time>
      </trkpt>
      <trkpt lat="47.21547" lon="-1.52173">
        <ele>53</ele>
        <time>2021-02-27T13:04:45.000Z</time>
      </trkpt>
      <trkpt lat="47.21541" lon="-1.52192">
        <ele>53</ele>
        <time>2021-02-27T13:04:47.000Z</time>
      </trkpt>
      <trkpt lat="47.21535" lon="-1.52211">
        <ele>54</ele>
        <time>2021-02-27T13:04:49.000Z</time>
      </trkpt>
      <trkpt lat="47.21529" lon="-1.5223">
        <ele>54</ele>
        <time>2021-02-27T13:04:51.000Z</time>
      </trkpt>
      <trkpt lat="47.21523" lon="-1.52249">
        <ele>54</ele>
        <time>2021-02-27T13:04:53.000Z</time>
      </trkpt>
      <trkpt lat="47.21517" lon="-1.52268">
        <ele>53</ele>
        <time>2021-02-27T13:04:55.000Z</time>
      </trkpt>
      <trkpt lat="47.2151" lon="-1.52288">
        <ele>53</ele>
        <time>2021-02-27T13:04:57.000Z</time>
      </trkpt>
      <trkpt lat="47.21504" lon="-1.52307">
        <ele>54</ele>
        <time>2021-02-27T13:04:59.000Z</time>
      </trkpt>
      <trkpt lat="47.21498" lon="-1.52327">
        <ele>53</ele>
        <time>2021-02-27T13:05:01.000Z</time>
      </trkpt>
      <trkpt lat="47.21492" lon="-1.52346">
        <ele>54</ele>
        <time>2021-02-27T13:05:03.000Z</time>
      </trkpt>
      <trkpt lat="47.21486" lon="-1.52365">
        <ele>54</ele>
        <time>2021-02-27T13:05:05.000Z</time>
      </trkpt>
      <trkpt lat="47.2148" lon="-1.52385">
        <ele>54</ele>
        <time>2021-02-27T13:05:07.000Z</time>
      </trkpt>
      <trkpt lat="47.21474" lon="-1.52404">
        <ele>53</ele>
        <time>2021-02-27T13:05:09.000Z</time>
      </trkpt>
      <trkpt lat="47.21468" lon="-1.52421">
        <ele>53</ele>
        <time>2021-02-27T13:05:11.000Z</time>
      </trkpt>
      <trkpt lat="47.21462" lon="-1.5244">
        <ele>54</ele>
        <time>2021-02-27T13:05:13.000Z</time>
      </trkpt>
      <trkpt lat="47.21456" lon="-1.52459">
        <ele>54</ele>
        <time>2021-02-27T13:05:15.000Z</time>
      </trkpt>
      <trkpt lat="47.2145" lon="-1.52477">
        <ele>54</ele>
        <time>2021-02-27T13:05:17.000Z</time>
      </trkpt>
      <trkpt lat="47.21444" lon="-1.52494">
        <ele>54</ele>
        <time>2021-02-27T13:05:19.000Z</time>
      </trkpt>
      <trkpt lat="47.21438" lon="-1.52513">
        <ele>54</ele>
        <time>2021-02-27T13:05:21.000Z</time>
      </trkpt>
      <trkpt lat="47.21433" lon="-1.52531">
        <ele>53</ele>
        <time>2021-02-27T13:05:23.000Z</time>
      </trkpt>
      <trkpt lat="47.21427" lon="-1.52549">
        <ele>53</ele>
        <time>2021-02-27T13:05:25.000Z</time>
      </trkpt>
      <trkpt lat="47.21422" lon="-1.52567">
        <ele>54</ele>
        <time>2021-02-27T13:05:27.000Z</time>
      </trkpt>
      <trkpt lat="47.21415" lon="-1.52586">
        <ele>54</ele>
        <time>2021-02-27T13:05:29.000Z</time>
      </trkpt>
      <trkpt lat="47.21409" lon="-1.52606">
        <ele>54</ele>
        <time>2021-02-27T13:05:31.000Z</time>
      </trkpt>
      <trkpt lat="47.21403" lon="-1.52624">
        <ele>54</ele>
        <time>2021-02-27T13:05:33.000Z</time>
      </trkpt>
      <trkpt lat="47.21398" lon="-1.52643">
        <ele>55</ele>
        <time>2021-02-27T13:05:35.000Z</time>
      </trkpt>
      <trkpt lat="47.21393" lon="-1.52661">
        <ele>55</ele>
        <time>2021-02-27T13:05:37.000Z</time>
      </trkpt>
      <trkpt lat="47.21387" lon="-1.52681">
        <ele>54</ele>
        <time>2021-02-27T13:05:39.000Z</time>
      </trkpt>
      <trkpt lat="47.21382" lon="-1.527">
        <ele>55</ele>
        <time>2021-02-27T13:05:41.000Z</time>
      </trkpt>
      <trkpt lat="47.21377" lon="-1.52721">
        <ele>55</ele>
        <time>2021-02-27T13:05:43.000Z</time>
      </trkpt>
      <trkpt lat="47.21374" lon="-1.52742">
        <ele>55</ele>
        <time>2021-02-27T13:05:45.000Z</time>
      </trkpt>
      <trkpt lat="47.21371" lon="-1.52761">
        <ele>55</ele>
        <time>2021-02-27T13:05:47.000Z</time>
      </trkpt>
      <trkpt lat="47.21367" lon="-1.52781">
        <ele>55</ele>
        <time>2021-02-27T13:05:49.000Z</time>
      </trkpt>
      <trkpt lat="47.21365" lon="-1.528">
        <ele>56</ele>
        <time>2021-02-27T13:05:51.000Z</time>
      </trkpt>
      <trkpt lat="47.21363" lon="-1.52817">
        <ele>55</ele>
        <time>2021-02-27T13:05:53.000Z</time>
      </trkpt>
      <trkpt lat="47.21358" lon="-1.52836">
        <ele>55</ele>
        <time>2021-02-27T13:05:55.000Z</time>
      </trkpt>
      <trkpt lat="47.21354" lon="-1.52855">
        <ele>55</ele>
        <time>2021-02-27T13:05:57.000Z</time>
      </trkpt>
      <trkpt lat="47.2135" lon="-1.52877">
        <ele>55</ele>
        <time>2021-02-27T13:05:59.000Z</time>
      </trkpt>
      <trkpt lat="47.21347" lon="-1.52896">
        <ele>54</ele>
        <time>2021-02-27T13:06:01.000Z</time>
      </trkpt>
      <trkpt lat="47.21343" lon="-1.52917">
        <ele>54</ele>
        <time>2021-02-27T13:06:03.000Z</time>
      </trkpt>
      <trkpt lat="47.2134" lon="-1.52937">
        <ele>54</ele>
        <time>2021-02-27T13:06:05.000Z</time>
      </trkpt>
      <trkpt lat="47.21338" lon="-1.52957">
        <ele>54</ele>
        <time>2021-02-27T13:06:07.000Z</time>
      </trkpt>
      <trkpt lat="47.21337" lon="-1.52977">
        <ele>54</ele>
        <time>2021-02-27T13:06:09.000Z</time>
      </trkpt>
      <trkpt lat="47.21334" lon="-1.52997">
        <ele>54</ele>
        <time>2021-02-27T13:06:11.000Z</time>
      </trkpt>
      <trkpt lat="47.21332" lon="-1.53028">
        <ele>53</ele>
        <time>2021-02-27T13:06:14.000Z</time>
      </trkpt>
      <trkpt lat="47.21329" lon="-1.53058">
        <ele>53</ele>
        <time>2021-02-27T13:06:17.000Z</time>
      </trkpt>
      <trkpt lat="47.21328" lon="-1.53077">
        <ele>54</ele>
        <time>2021-02-27T13:06:19.000Z</time>
      </trkpt>
      <trkpt lat="47.21327" lon="-1.53095">
        <ele>54</ele>
        <time>2021-02-27T13:06:21.000Z</time>
      </trkpt>
      <trkpt lat="47.21326" lon="-1.53114">
        <ele>54</ele>
        <time>2021-02-27T13:06:23.000Z</time>
      </trkpt>
      <trkpt lat="47.21323" lon="-1.53133">
        <ele>54</ele>
        <time>2021-02-27T13:06:25.000Z</time>
      </trkpt>
      <trkpt lat="47.21321" lon="-1.53155">
        <ele>54</ele>
        <time>2021-02-27T13:06:27.000Z</time>
      </trkpt>
      <trkpt lat="47.21315" lon="-1.53192">
        <ele>54</ele>
        <time>2021-02-27T13:06:30.000Z</time>
      </trkpt>
      <trkpt lat="47.21311" lon="-1.53217">
        <ele>54</ele>
        <time>2021-02-27T13:06:32.000Z</time>
      </trkpt>
      <trkpt lat="47.2131" lon="-1.53242">
        <ele>54</ele>
        <time>2021-02-27T13:06:34.000Z</time>
      </trkpt>
      <trkpt lat="47.2131" lon="-1.53266">
        <ele>54</ele>
        <time>2021-02-27T13:06:36.000Z</time>
      </trkpt>
      <trkpt lat="47.21309" lon="-1.533">
        <ele>54</ele>
        <time>2021-02-27T13:06:39.000Z</time>
      </trkpt>
      <trkpt lat="47.21307" lon="-1.5332">
        <ele>54</ele>
        <time>2021-02-27T13:06:41.000Z</time>
      </trkpt>
      <trkpt lat="47.21304" lon="-1.53341">
        <ele>54</ele>
        <time>2021-02-27T13:06:43.000Z</time>
      </trkpt>
      <trkpt lat="47.213" lon="-1.53362">
        <ele>54</ele>
        <time>2021-02-27T13:06:45.000Z</time>
      </trkpt>
      <trkpt lat="47.21296" lon="-1.53382">
        <ele>54</ele>
        <time>2021-02-27T13:06:47.000Z</time>
      </trkpt>
      <trkpt lat="47.21295" lon="-1.53403">
        <ele>54</ele>
        <time>2021-02-27T13:06:49.000Z</time>
      </trkpt>
      <trkpt lat="47.21293" lon="-1.53424">
        <ele>54</ele>
        <time>2021-02-27T13:06:51.000Z</time>
      </trkpt>
      <trkpt lat="47.21293" lon="-1.53453">
        <ele>54</ele>
        <time>2021-02-27T13:06:54.000Z</time>
      </trkpt>
      <trkpt lat="47.21298" lon="-1.53471">
        <ele>54</ele>
        <time>2021-02-27T13:06:56.000Z</time>
      </trkpt>
      <trkpt lat="47.21302" lon="-1.5349">
        <ele>54</ele>
        <time>2021-02-27T13:06:58.000Z</time>
      </trkpt>
      <trkpt lat="47.21303" lon="-1.53511">
        <ele>54</ele>
        <time>2021-02-27T13:07:00.000Z</time>
      </trkpt>
      <trkpt lat="47.21304" lon="-1.5353">
        <ele>55</ele>
        <time>2021-02-27T13:07:02.000Z</time>
      </trkpt>
      <trkpt lat="47.21304" lon="-1.5355">
        <ele>55</ele>
        <time>2021-02-27T13:07:04.000Z</time>
      </trkpt>
      <trkpt lat="47.21305" lon="-1.53569">
        <ele>56</ele>
        <time>2021-02-27T13:07:06.000Z</time>
      </trkpt>
      <trkpt lat="47.21306" lon="-1.53587">
        <ele>56</ele>
        <time>2021-02-27T13:07:08.000Z</time>
      </trkpt>
      <trkpt lat="47.21306" lon="-1.53605">
        <ele>56</ele>
        <time>2021-02-27T13:07:10.000Z</time>
      </trkpt>
      <trkpt lat="47.21306" lon="-1.53621">
        <ele>56</ele>
        <time>2021-02-27T13:07:12.000Z</time>
      </trkpt>
      <trkpt lat="47.21297" lon="-1.53632">
        <ele>56</ele>
        <time>2021-02-27T13:07:15.000Z</time>
      </trkpt>
      <trkpt lat="47.21297" lon="-1.5365">
        <ele>56</ele>
        <time>2021-02-27T13:07:20.000Z</time>
      </trkpt>
      <trkpt lat="47.21294" lon="-1.53664">
        <ele>56</ele>
        <time>2021-02-27T13:07:22.000Z</time>
      </trkpt>
      <trkpt lat="47.213" lon="-1.53677">
        <ele>56</ele>
        <time>2021-02-27T13:07:24.000Z</time>
      </trkpt>
      <trkpt lat="47.21307" lon="-1.53693">
        <ele>56</ele>
        <time>2021-02-27T13:07:26.000Z</time>
      </trkpt>
      <trkpt lat="47.21312" lon="-1.53711">
        <ele>56</ele>
        <time>2021-02-27T13:07:28.000Z</time>
      </trkpt>
      <trkpt lat="47.21315" lon="-1.5373">
        <ele>56</ele>
        <time>2021-02-27T13:07:30.000Z</time>
      </trkpt>
      <trkpt lat="47.21317" lon="-1.5375">
        <ele>56</ele>
        <time>2021-02-27T13:07:32.000Z</time>
      </trkpt>
      <trkpt lat="47.21322" lon="-1.53767">
        <ele>57</ele>
        <time>2021-02-27T13:07:34.000Z</time>
      </trkpt>
      <trkpt lat="47.21324" lon="-1.53785">
        <ele>57</ele>
        <time>2021-02-27T13:07:36.000Z</time>
      </trkpt>
      <trkpt lat="47.21326" lon="-1.53804">
        <ele>57</ele>
        <time>2021-02-27T13:07:38.000Z</time>
      </trkpt>
      <trkpt lat="47.2133" lon="-1.5383">
        <ele>57</ele>
        <time>2021-02-27T13:07:41.000Z</time>
      </trkpt>
      <trkpt lat="47.21333" lon="-1.53848">
        <ele>56</ele>
        <time>2021-02-27T13:07:43.000Z</time>
      </trkpt>
      <trkpt lat="47.21336" lon="-1.53865">
        <ele>57</ele>
        <time>2021-02-27T13:07:45.000Z</time>
      </trkpt>
      <trkpt lat="47.21338" lon="-1.53884">
        <ele>56</ele>
        <time>2021-02-27T13:07:47.000Z</time>
      </trkpt>
      <trkpt lat="47.21343" lon="-1.53904">
        <ele>56</ele>
        <time>2021-02-27T13:07:49.000Z</time>
      </trkpt>
      <trkpt lat="47.21352" lon="-1.53918">
        <ele>57</ele>
        <time>2021-02-27T13:07:51.000Z</time>
      </trkpt>
      <trkpt lat="47.21363" lon="-1.53929">
        <ele>57</ele>
        <time>2021-02-27T13:07:53.000Z</time>
      </trkpt>
      <trkpt lat="47.21376" lon="-1.53931">
        <ele>56</ele>
        <time>2021-02-27T13:07:55.000Z</time>
      </trkpt>
      <trkpt lat="47.21387" lon="-1.53941">
        <ele>56</ele>
        <time>2021-02-27T13:07:57.000Z</time>
      </trkpt>
      <trkpt lat="47.21393" lon="-1.53957">
        <ele>57</ele>
        <time>2021-02-27T13:07:59.000Z</time>
      </trkpt>
      <trkpt lat="47.21392" lon="-1.53975">
        <ele>56</ele>
        <time>2021-02-27T13:08:01.000Z</time>
      </trkpt>
      <trkpt lat="47.21388" lon="-1.53994">
        <ele>55</ele>
        <time>2021-02-27T13:08:03.000Z</time>
      </trkpt>
      <trkpt lat="47.21396" lon="-1.54011">
        <ele>56</ele>
        <time>2021-02-27T13:08:05.000Z</time>
      </trkpt>
      <trkpt lat="47.21407" lon="-1.54026">
        <ele>56</ele>
        <time>2021-02-27T13:08:07.000Z</time>
      </trkpt>
      <trkpt lat="47.21417" lon="-1.54041">
        <ele>56</ele>
        <time>2021-02-27T13:08:09.000Z</time>
      </trkpt>
      <trkpt lat="47.21426" lon="-1.54058">
        <ele>56</ele>
        <time>2021-02-27T13:08:11.000Z</time>
      </trkpt>
      <trkpt lat="47.21437" lon="-1.54074">
        <ele>55</ele>
        <time>2021-02-27T13:08:13.000Z</time>
      </trkpt>
      <trkpt lat="47.21447" lon="-1.54089">
        <ele>55</ele>
        <time>2021-02-27T13:08:15.000Z</time>
      </trkpt>
      <trkpt lat="47.21457" lon="-1.54104">
        <ele>55</ele>
        <time>2021-02-27T13:08:17.000Z</time>
      </trkpt>
      <trkpt lat="47.21468" lon="-1.5412">
        <ele>54</ele>
        <time>2021-02-27T13:08:19.000Z</time>
      </trkpt>
      <trkpt lat="47.21477" lon="-1.54134">
        <ele>54</ele>
        <time>2021-02-27T13:08:21.000Z</time>
      </trkpt>
      <trkpt lat="47.21488" lon="-1.5415">
        <ele>54</ele>
        <time>2021-02-27T13:08:23.000Z</time>
      </trkpt>
      <trkpt lat="47.21499" lon="-1.54163">
        <ele>54</ele>
        <time>2021-02-27T13:08:25.000Z</time>
      </trkpt>
      <trkpt lat="47.21507" lon="-1.54178">
        <ele>54</ele>
        <time>2021-02-27T13:08:27.000Z</time>
      </trkpt>
      <trkpt lat="47.21514" lon="-1.54194">
        <ele>55</ele>
        <time>2021-02-27T13:08:29.000Z</time>
      </trkpt>
      <trkpt lat="47.21524" lon="-1.54208">
        <ele>55</ele>
        <time>2021-02-27T13:08:31.000Z</time>
      </trkpt>
      <trkpt lat="47.21535" lon="-1.54224">
        <ele>54</ele>
        <time>2021-02-27T13:08:33.000Z</time>
      </trkpt>
      <trkpt lat="47.21545" lon="-1.54238">
        <ele>54</ele>
        <time>2021-02-27T13:08:35.000Z</time>
      </trkpt>
      <trkpt lat="47.21556" lon="-1.54245">
        <ele>53</ele>
        <time>2021-02-27T13:08:37.000Z</time>
      </trkpt>
      <trkpt lat="47.21569" lon="-1.54245">
        <ele>54</ele>
        <time>2021-02-27T13:08:39.000Z</time>
      </trkpt>
      <trkpt lat="47.21576" lon="-1.54254">
        <ele>55</ele>
        <time>2021-02-27T13:08:41.000Z</time>
      </trkpt>
      <trkpt lat="47.21578" lon="-1.54269">
        <ele>55</ele>
        <time>2021-02-27T13:08:43.000Z</time>
      </trkpt>
      <trkpt lat="47.21578" lon="-1.54286">
        <ele>55</ele>
        <time>2021-02-27T13:08:45.000Z</time>
      </trkpt>
      <trkpt lat="47.21584" lon="-1.54298">
        <ele>55</ele>
        <time>2021-02-27T13:08:47.000Z</time>
      </trkpt>
      <trkpt lat="47.21591" lon="-1.54309">
        <ele>55</ele>
        <time>2021-02-27T13:08:49.000Z</time>
      </trkpt>
      <trkpt lat="47.21602" lon="-1.5432">
        <ele>55</ele>
        <time>2021-02-27T13:08:52.000Z</time>
      </trkpt>
      <trkpt lat="47.21609" lon="-1.54328">
        <ele>55</ele>
        <time>2021-02-27T13:08:54.000Z</time>
      </trkpt>
      <trkpt lat="47.21618" lon="-1.54338">
        <ele>54</ele>
        <time>2021-02-27T13:08:56.000Z</time>
      </trkpt>
      <trkpt lat="47.21626" lon="-1.54348">
        <ele>54</ele>
        <time>2021-02-27T13:08:58.000Z</time>
      </trkpt>
      <trkpt lat="47.2163" lon="-1.54364">
        <ele>54</ele>
        <time>2021-02-27T13:09:00.000Z</time>
      </trkpt>
      <trkpt lat="47.21629" lon="-1.54384">
        <ele>55</ele>
        <time>2021-02-27T13:09:02.000Z</time>
      </trkpt>
      <trkpt lat="47.21626" lon="-1.54401">
        <ele>56</ele>
        <time>2021-02-27T13:09:04.000Z</time>
      </trkpt>
      <trkpt lat="47.21622" lon="-1.54413">
        <ele>56</ele>
        <time>2021-02-27T13:09:06.000Z</time>
      </trkpt>
      <trkpt lat="47.21616" lon="-1.54429">
        <ele>57</ele>
        <time>2021-02-27T13:09:09.000Z</time>
      </trkpt>
      <trkpt lat="47.21616" lon="-1.54444">
        <ele>57</ele>
        <time>2021-02-27T13:09:11.000Z</time>
      </trkpt>
      <trkpt lat="47.21614" lon="-1.54459">
        <ele>57</ele>
        <time>2021-02-27T13:09:13.000Z</time>
      </trkpt>
      <trkpt lat="47.21612" lon="-1.54475">
        <ele>58</ele>
        <time>2021-02-27T13:09:15.000Z</time>
      </trkpt>
      <trkpt lat="47.21608" lon="-1.54492">
        <ele>58</ele>
        <time>2021-02-27T13:09:17.000Z</time>
      </trkpt>
      <trkpt lat="47.21604" lon="-1.54507">
        <ele>59</ele>
        <time>2021-02-27T13:09:19.000Z</time>
      </trkpt>
      <trkpt lat="47.21599" lon="-1.54523">
        <ele>59</ele>
        <time>2021-02-27T13:09:21.000Z</time>
      </trkpt>
      <trkpt lat="47.21593" lon="-1.5454">
        <ele>59</ele>
        <time>2021-02-27T13:09:23.000Z</time>
      </trkpt>
      <trkpt lat="47.21587" lon="-1.54558">
        <ele>58</ele>
        <time>2021-02-27T13:09:25.000Z</time>
      </trkpt>
      <trkpt lat="47.2158" lon="-1.54578">
        <ele>57</ele>
        <time>2021-02-27T13:09:27.000Z</time>
      </trkpt>
      <trkpt lat="47.21572" lon="-1.54601">
        <ele>56</ele>
        <time>2021-02-27T13:09:29.000Z</time>
      </trkpt>
      <trkpt lat="47.21568" lon="-1.54613">
        <ele>56</ele>
        <time>2021-02-27T13:09:30.000Z</time>
      </trkpt>
      <trkpt lat="47.21563" lon="-1.54626">
        <ele>56</ele>
        <time>2021-02-27T13:09:31.000Z</time>
      </trkpt>
      <trkpt lat="47.21559" lon="-1.54639">
        <ele>55</ele>
        <time>2021-02-27T13:09:32.000Z</time>
      </trkpt>
      <trkpt lat="47.21554" lon="-1.54652">
        <ele>55</ele>
        <time>2021-02-27T13:09:33.000Z</time>
      </trkpt>
      <trkpt lat="47.21548" lon="-1.54664">
        <ele>55</ele>
        <time>2021-02-27T13:09:34.000Z</time>
      </trkpt>
      <trkpt lat="47.21543" lon="-1.54675">
        <ele>54</ele>
        <time>2021-02-27T13:09:35.000Z</time>
      </trkpt>
      <trkpt lat="47.21536" lon="-1.54684">
        <ele>54</ele>
        <time>2021-02-27T13:09:36.000Z</time>
      </trkpt>
      <trkpt lat="47.21531" lon="-1.54696">
        <ele>54</ele>
        <time>2021-02-27T13:09:37.000Z</time>
      </trkpt>
      <trkpt lat="47.21525" lon="-1.54708">
        <ele>54</ele>
        <time>2021-02-27T13:09:38.000Z</time>
      </trkpt>
      <trkpt lat="47.21519" lon="-1.54719">
        <ele>54</ele>
        <time>2021-02-27T13:09:39.000Z</time>
      </trkpt>
      <trkpt lat="47.21512" lon="-1.5473">
        <ele>54</ele>
        <time>2021-02-27T13:09:40.000Z</time>
      </trkpt>
      <trkpt lat="47.21506" lon="-1.54741">
        <ele>53</ele>
        <time>2021-02-27T13:09:41.000Z</time>
      </trkpt>
      <trkpt lat="47.21499" lon="-1.54752">
        <ele>53</ele>
        <time>2021-02-27T13:09:42.000Z</time>
      </trkpt>
      <trkpt lat="47.21489" lon="-1.54771">
        <ele>52</ele>
        <time>2021-02-27T13:09:44.000Z</time>
      </trkpt>
      <trkpt lat="47.2148" lon="-1.54789">
        <ele>52</ele>
        <time>2021-02-27T13:09:46.000Z</time>
      </trkpt>
      <trkpt lat="47.21472" lon="-1.54806">
        <ele>52</ele>
        <time>2021-02-27T13:09:48.000Z</time>
      </trkpt>
      <trkpt lat="47.21462" lon="-1.54823">
        <ele>53</ele>
        <time>2021-02-27T13:09:50.000Z</time>
      </trkpt>
      <trkpt lat="47.21453" lon="-1.54844">
        <ele>53</ele>
        <time>2021-02-27T13:09:52.000Z</time>
      </trkpt>
      <trkpt lat="47.21443" lon="-1.54864">
        <ele>53</ele>
        <time>2021-02-27T13:09:54.000Z</time>
      </trkpt>
      <trkpt lat="47.21433" lon="-1.54883">
        <ele>52</ele>
        <time>2021-02-27T13:09:56.000Z</time>
      </trkpt>
      <trkpt lat="47.21423" lon="-1.54902">
        <ele>53</ele>
        <time>2021-02-27T13:09:58.000Z</time>
      </trkpt>
      <trkpt lat="47.21414" lon="-1.54922">
        <ele>53</ele>
        <time>2021-02-27T13:10:00.000Z</time>
      </trkpt>
      <trkpt lat="47.21403" lon="-1.54942">
        <ele>53</ele>
        <time>2021-02-27T13:10:02.000Z</time>
      </trkpt>
      <trkpt lat="47.21397" lon="-1.54953">
        <ele>53</ele>
        <time>2021-02-27T13:10:03.000Z</time>
      </trkpt>
      <trkpt lat="47.21392" lon="-1.54964">
        <ele>53</ele>
        <time>2021-02-27T13:10:04.000Z</time>
      </trkpt>
      <trkpt lat="47.21386" lon="-1.54975">
        <ele>53</ele>
        <time>2021-02-27T13:10:05.000Z</time>
      </trkpt>
      <trkpt lat="47.2138" lon="-1.54985">
        <ele>53</ele>
        <time>2021-02-27T13:10:06.000Z</time>
      </trkpt>
      <trkpt lat="47.21375" lon="-1.54996">
        <ele>53</ele>
        <time>2021-02-27T13:10:07.000Z</time>
      </trkpt>
      <trkpt lat="47.21369" lon="-1.55006">
        <ele>53</ele>
        <time>2021-02-27T13:10:08.000Z</time>
      </trkpt>
      <trkpt lat="47.21364" lon="-1.55018">
        <ele>53</ele>
        <time>2021-02-27T13:10:09.000Z</time>
      </trkpt>
      <trkpt lat="47.21359" lon="-1.55029">
        <ele>53</ele>
        <time>2021-02-27T13:10:10.000Z</time>
      </trkpt>
      <trkpt lat="47.21353" lon="-1.55041">
        <ele>53</ele>
        <time>2021-02-27T13:10:11.000Z</time>
      </trkpt>
      <trkpt lat="47.21348" lon="-1.55054">
        <ele>53</ele>
        <time>2021-02-27T13:10:12.000Z</time>
      </trkpt>
      <trkpt lat="47.21342" lon="-1.55067">
        <ele>52</ele>
        <time>2021-02-27T13:10:13.000Z</time>
      </trkpt>
      <trkpt lat="47.21337" lon="-1.55081">
        <ele>52</ele>
        <time>2021-02-27T13:10:14.000Z</time>
      </trkpt>
      <trkpt lat="47.21332" lon="-1.55094">
        <ele>52</ele>
        <time>2021-02-27T13:10:15.000Z</time>
      </trkpt>
      <trkpt lat="47.21327" lon="-1.55106">
        <ele>53</ele>
        <time>2021-02-27T13:10:16.000Z</time>
      </trkpt>
      <trkpt lat="47.21322" lon="-1.55118">
        <ele>53</ele>
        <time>2021-02-27T13:10:17.000Z</time>
      </trkpt>
      <trkpt lat="47.21316" lon="-1.55129">
        <ele>53</ele>
        <time>2021-02-27T13:10:18.000Z</time>
      </trkpt>
      <trkpt lat="47.21311" lon="-1.5514">
        <ele>54</ele>
        <time>2021-02-27T13:10:19.000Z</time>
      </trkpt>
      <trkpt lat="47.21301" lon="-1.55162">
        <ele>54</ele>
        <time>2021-02-27T13:10:21.000Z</time>
      </trkpt>
      <trkpt lat="47.21293" lon="-1.55186">
        <ele>54</ele>
        <time>2021-02-27T13:10:23.000Z</time>
      </trkpt>
      <trkpt lat="47.21289" lon="-1.55198">
        <ele>53</ele>
        <time>2021-02-27T13:10:24.000Z</time>
      </trkpt>
      <trkpt lat="47.21285" lon="-1.5521">
        <ele>54</ele>
        <time>2021-02-27T13:10:25.000Z</time>
      </trkpt>
      <trkpt lat="47.2128" lon="-1.55221">
        <ele>54</ele>
        <time>2021-02-27T13:10:26.000Z</time>
      </trkpt>
      <trkpt lat="47.21275" lon="-1.55233">
        <ele>54</ele>
        <time>2021-02-27T13:10:27.000Z</time>
      </trkpt>
      <trkpt lat="47.21273" lon="-1.55246">
        <ele>55</ele>
        <time>2021-02-27T13:10:28.000Z</time>
      </trkpt>
      <trkpt lat="47.2127" lon="-1.55259">
        <ele>55</ele>
        <time>2021-02-27T13:10:29.000Z</time>
      </trkpt>
      <trkpt lat="47.21267" lon="-1.55272">
        <ele>55</ele>
        <time>2021-02-27T13:10:30.000Z</time>
      </trkpt>
      <trkpt lat="47.21264" lon="-1.55285">
        <ele>55</ele>
        <time>2021-02-27T13:10:31.000Z</time>
      </trkpt>
      <trkpt lat="47.21258" lon="-1.55309">
        <ele>56</ele>
        <time>2021-02-27T13:10:33.000Z</time>
      </trkpt>
      <trkpt lat="47.21262" lon="-1.5533">
        <ele>56</ele>
        <time>2021-02-27T13:10:35.000Z</time>
      </trkpt>
      <trkpt lat="47.21268" lon="-1.55344">
        <ele>57</ele>
        <time>2021-02-27T13:10:37.000Z</time>
      </trkpt>
      <trkpt lat="47.21277" lon="-1.55351">
        <ele>57</ele>
        <time>2021-02-27T13:10:39.000Z</time>
      </trkpt>
      <trkpt lat="47.21285" lon="-1.55363">
        <ele>58</ele>
        <time>2021-02-27T13:10:41.000Z</time>
      </trkpt>
      <trkpt lat="47.21281" lon="-1.55384">
        <ele>58</ele>
        <time>2021-02-27T13:10:43.000Z</time>
      </trkpt>
      <trkpt lat="47.21272" lon="-1.554">
        <ele>58</ele>
        <time>2021-02-27T13:10:45.000Z</time>
      </trkpt>
      <trkpt lat="47.21263" lon="-1.55416">
        <ele>58</ele>
        <time>2021-02-27T13:10:47.000Z</time>
      </trkpt>
      <trkpt lat="47.21253" lon="-1.55432">
        <ele>57</ele>
        <time>2021-02-27T13:10:49.000Z</time>
      </trkpt>
      <trkpt lat="47.21243" lon="-1.55447">
        <ele>56</ele>
        <time>2021-02-27T13:10:51.000Z</time>
      </trkpt>
      <trkpt lat="47.21233" lon="-1.55463">
        <ele>56</ele>
        <time>2021-02-27T13:10:53.000Z</time>
      </trkpt>
      <trkpt lat="47.21225" lon="-1.5548">
        <ele>57</ele>
        <time>2021-02-27T13:10:55.000Z</time>
      </trkpt>
      <trkpt lat="47.21218" lon="-1.55499">
        <ele>57</ele>
        <time>2021-02-27T13:10:57.000Z</time>
      </trkpt>
      <trkpt lat="47.21212" lon="-1.55519">
        <ele>56</ele>
        <time>2021-02-27T13:10:59.000Z</time>
      </trkpt>
      <trkpt lat="47.21207" lon="-1.55538">
        <ele>56</ele>
        <time>2021-02-27T13:11:01.000Z</time>
      </trkpt>
      <trkpt lat="47.21201" lon="-1.55557">
        <ele>56</ele>
        <time>2021-02-27T13:11:03.000Z</time>
      </trkpt>
      <trkpt lat="47.21195" lon="-1.55575">
        <ele>56</ele>
        <time>2021-02-27T13:11:05.000Z</time>
      </trkpt>
      <trkpt lat="47.21188" lon="-1.55595">
        <ele>56</ele>
        <time>2021-02-27T13:11:07.000Z</time>
      </trkpt>
      <trkpt lat="47.21181" lon="-1.55614">
        <ele>56</ele>
        <time>2021-02-27T13:11:09.000Z</time>
      </trkpt>
      <trkpt lat="47.21175" lon="-1.55632">
        <ele>56</ele>
        <time>2021-02-27T13:11:11.000Z</time>
      </trkpt>
      <trkpt lat="47.21171" lon="-1.55646">
        <ele>56</ele>
        <time>2021-02-27T13:11:13.000Z</time>
      </trkpt>
      <trkpt lat="47.21167" lon="-1.55664">
        <ele>56</ele>
        <time>2021-02-27T13:11:16.000Z</time>
      </trkpt>
      <trkpt lat="47.21157" lon="-1.55671">
        <ele>56</ele>
        <time>2021-02-27T13:11:18.000Z</time>
      </trkpt>
      <trkpt lat="47.21144" lon="-1.55663">
        <ele>56</ele>
        <time>2021-02-27T13:11:20.000Z</time>
      </trkpt>
      <trkpt lat="47.2113" lon="-1.55652">
        <ele>57</ele>
        <time>2021-02-27T13:11:22.000Z</time>
      </trkpt>
      <trkpt lat="47.21118" lon="-1.55642">
        <ele>57</ele>
        <time>2021-02-27T13:11:24.000Z</time>
      </trkpt>
      <trkpt lat="47.21106" lon="-1.5563">
        <ele>58</ele>
        <time>2021-02-27T13:11:26.000Z</time>
      </trkpt>
      <trkpt lat="47.21093" lon="-1.5562">
        <ele>59</ele>
        <time>2021-02-27T13:11:28.000Z</time>
      </trkpt>
      <trkpt lat="47.21081" lon="-1.55611">
        <ele>60</ele>
        <time>2021-02-27T13:11:30.000Z</time>
      </trkpt>
      <trkpt lat="47.21066" lon="-1.55602">
        <ele>60</ele>
        <time>2021-02-27T13:11:32.000Z</time>
      </trkpt>
      <trkpt lat="47.21057" lon="-1.55596">
        <ele>60</ele>
        <time>2021-02-27T13:11:33.000Z</time>
      </trkpt>
      <trkpt lat="47.21045" lon="-1.55586">
        <ele>63</ele>
        <time>2021-02-27T13:11:35.000Z</time>
      </trkpt>
      <trkpt lat="47.21035" lon="-1.55582">
        <ele>62</ele>
        <time>2021-02-27T13:11:37.000Z</time>
      </trkpt>
      <trkpt lat="47.21021" lon="-1.55578">
        <ele>62</ele>
        <time>2021-02-27T13:11:39.000Z</time>
      </trkpt>
      <trkpt lat="47.21009" lon="-1.55574">
        <ele>62</ele>
        <time>2021-02-27T13:11:41.000Z</time>
      </trkpt>
      <trkpt lat="47.20997" lon="-1.55573">
        <ele>61</ele>
        <time>2021-02-27T13:11:43.000Z</time>
      </trkpt>
      <trkpt lat="47.20987" lon="-1.55572">
        <ele>60</ele>
        <time>2021-02-27T13:11:45.000Z</time>
      </trkpt>
      <trkpt lat="47.20978" lon="-1.5557">
        <ele>61</ele>
        <time>2021-02-27T13:11:47.000Z</time>
      </trkpt>
      <trkpt lat="47.20968" lon="-1.55568">
        <ele>60</ele>
        <time>2021-02-27T13:11:50.000Z</time>
      </trkpt>
      <trkpt lat="47.20958" lon="-1.55568">
        <ele>60</ele>
        <time>2021-02-27T13:11:56.000Z</time>
      </trkpt>
      <trkpt lat="47.20948" lon="-1.55571">
        <ele>57</ele>
        <time>2021-02-27T13:12:10.000Z</time>
      </trkpt>
      <trkpt lat="47.20937" lon="-1.55564">
        <ele>57</ele>
        <time>2021-02-27T13:12:12.000Z</time>
      </trkpt>
      <trkpt lat="47.20925" lon="-1.55559">
        <ele>56</ele>
        <time>2021-02-27T13:12:14.000Z</time>
      </trkpt>
      <trkpt lat="47.2091" lon="-1.55555">
        <ele>56</ele>
        <time>2021-02-27T13:12:16.000Z</time>
      </trkpt>
      <trkpt lat="47.20897" lon="-1.55552">
        <ele>56</ele>
        <time>2021-02-27T13:12:18.000Z</time>
      </trkpt>
      <trkpt lat="47.20884" lon="-1.5555">
        <ele>56</ele>
        <time>2021-02-27T13:12:20.000Z</time>
      </trkpt>
      <trkpt lat="47.20872" lon="-1.55547">
        <ele>57</ele>
        <time>2021-02-27T13:12:22.000Z</time>
      </trkpt>
      <trkpt lat="47.2086" lon="-1.55543">
        <ele>58</ele>
        <time>2021-02-27T13:12:24.000Z</time>
      </trkpt>
      <trkpt lat="47.20848" lon="-1.5554">
        <ele>59</ele>
        <time>2021-02-27T13:12:26.000Z</time>
      </trkpt>
      <trkpt lat="47.20836" lon="-1.55538">
        <ele>59</ele>
        <time>2021-02-27T13:12:28.000Z</time>
      </trkpt>
      <trkpt lat="47.20824" lon="-1.55535">
        <ele>59</ele>
        <time>2021-02-27T13:12:30.000Z</time>
      </trkpt>
      <trkpt lat="47.20811" lon="-1.55532">
        <ele>59</ele>
        <time>2021-02-27T13:12:32.000Z</time>
      </trkpt>
      <trkpt lat="47.20798" lon="-1.55529">
        <ele>58</ele>
        <time>2021-02-27T13:12:34.000Z</time>
      </trkpt>
      <trkpt lat="47.20785" lon="-1.55526">
        <ele>58</ele>
        <time>2021-02-27T13:12:36.000Z</time>
      </trkpt>
      <trkpt lat="47.20771" lon="-1.55523">
        <ele>57</ele>
        <time>2021-02-27T13:12:38.000Z</time>
      </trkpt>
      <trkpt lat="47.20757" lon="-1.5552">
        <ele>56</ele>
        <time>2021-02-27T13:12:40.000Z</time>
      </trkpt>
      <trkpt lat="47.20742" lon="-1.55516">
        <ele>55</ele>
        <time>2021-02-27T13:12:42.000Z</time>
      </trkpt>
      <trkpt lat="47.20726" lon="-1.55509">
        <ele>55</ele>
        <time>2021-02-27T13:12:44.000Z</time>
      </trkpt>
      <trkpt lat="47.20711" lon="-1.55505">
        <ele>55</ele>
        <time>2021-02-27T13:12:46.000Z</time>
      </trkpt>
      <trkpt lat="47.20696" lon="-1.55503">
        <ele>55</ele>
        <time>2021-02-27T13:12:48.000Z</time>
      </trkpt>
      <trkpt lat="47.20683" lon="-1.55502">
        <ele>55</ele>
        <time>2021-02-27T13:12:50.000Z</time>
      </trkpt>
      <trkpt lat="47.20673" lon="-1.555">
        <ele>55</ele>
        <time>2021-02-27T13:12:52.000Z</time>
      </trkpt>
      <trkpt lat="47.20663" lon="-1.55496">
        <ele>55</ele>
        <time>2021-02-27T13:12:54.000Z</time>
      </trkpt>
      <trkpt lat="47.20649" lon="-1.55494">
        <ele>54</ele>
        <time>2021-02-27T13:12:56.000Z</time>
      </trkpt>
      <trkpt lat="47.20636" lon="-1.55491">
        <ele>56</ele>
        <time>2021-02-27T13:12:58.000Z</time>
      </trkpt>
      <trkpt lat="47.20622" lon="-1.55489">
        <ele>56</ele>
        <time>2021-02-27T13:13:00.000Z</time>
      </trkpt>
      <trkpt lat="47.20606" lon="-1.55486">
        <ele>57</ele>
        <time>2021-02-27T13:13:02.000Z</time>
      </trkpt>
      <trkpt lat="47.20592" lon="-1.5548">
        <ele>58</ele>
        <time>2021-02-27T13:13:04.000Z</time>
      </trkpt>
      <trkpt lat="47.20578" lon="-1.55476">
        <ele>57</ele>
        <time>2021-02-27T13:13:06.000Z</time>
      </trkpt>
      <trkpt lat="47.20564" lon="-1.55477">
        <ele>57</ele>
        <time>2021-02-27T13:13:08.000Z</time>
      </trkpt>
      <trkpt lat="47.20553" lon="-1.55487">
        <ele>57</ele>
        <time>2021-02-27T13:13:10.000Z</time>
      </trkpt>
      <trkpt lat="47.20543" lon="-1.55498">
        <ele>58</ele>
        <time>2021-02-27T13:13:12.000Z</time>
      </trkpt>
      <trkpt lat="47.2053" lon="-1.555">
        <ele>58</ele>
        <time>2021-02-27T13:13:14.000Z</time>
      </trkpt>
      <trkpt lat="47.20517" lon="-1.55492">
        <ele>57</ele>
        <time>2021-02-27T13:13:16.000Z</time>
      </trkpt>
      <trkpt lat="47.20506" lon="-1.55476">
        <ele>58</ele>
        <time>2021-02-27T13:13:18.000Z</time>
      </trkpt>
      <trkpt lat="47.20502" lon="-1.55458">
        <ele>58</ele>
        <time>2021-02-27T13:13:20.000Z</time>
      </trkpt>
      <trkpt lat="47.20506" lon="-1.55438">
        <ele>58</ele>
        <time>2021-02-27T13:13:22.000Z</time>
      </trkpt>
      <trkpt lat="47.20506" lon="-1.55421">
        <ele>57</ele>
        <time>2021-02-27T13:13:24.000Z</time>
      </trkpt>
      <trkpt lat="47.20502" lon="-1.55406">
        <ele>57</ele>
        <time>2021-02-27T13:13:26.000Z</time>
      </trkpt>
      <trkpt lat="47.20498" lon="-1.55392">
        <ele>58</ele>
        <time>2021-02-27T13:13:28.000Z</time>
      </trkpt>
      <trkpt lat="47.20492" lon="-1.55381">
        <ele>57</ele>
        <time>2021-02-27T13:13:30.000Z</time>
      </trkpt>
      <trkpt lat="47.20483" lon="-1.55368">
        <ele>56</ele>
        <time>2021-02-27T13:13:33.000Z</time>
      </trkpt>
      <trkpt lat="47.20472" lon="-1.55356">
        <ele>55</ele>
        <time>2021-02-27T13:13:36.000Z</time>
      </trkpt>
      <trkpt lat="47.20465" lon="-1.5534">
        <ele>55</ele>
        <time>2021-02-27T13:13:38.000Z</time>
      </trkpt>
      <trkpt lat="47.20456" lon="-1.55325">
        <ele>56</ele>
        <time>2021-02-27T13:13:40.000Z</time>
      </trkpt>
      <trkpt lat="47.20449" lon="-1.55308">
        <ele>56</ele>
        <time>2021-02-27T13:13:42.000Z</time>
      </trkpt>
      <trkpt lat="47.20443" lon="-1.55293">
        <ele>57</ele>
        <time>2021-02-27T13:13:44.000Z</time>
      </trkpt>
      <trkpt lat="47.20436" lon="-1.55277">
        <ele>57</ele>
        <time>2021-02-27T13:13:46.000Z</time>
      </trkpt>
      <trkpt lat="47.20428" lon="-1.55262">
        <ele>56</ele>
        <time>2021-02-27T13:13:48.000Z</time>
      </trkpt>
      <trkpt lat="47.20424" lon="-1.55247">
        <ele>56</ele>
        <time>2021-02-27T13:13:50.000Z</time>
      </trkpt>
      <trkpt lat="47.20419" lon="-1.55232">
        <ele>57</ele>
        <time>2021-02-27T13:13:52.000Z</time>
      </trkpt>
      <trkpt lat="47.20414" lon="-1.55218">
        <ele>57</ele>
        <time>2021-02-27T13:13:54.000Z</time>
      </trkpt>
      <trkpt lat="47.20407" lon="-1.55206">
        <ele>57</ele>
        <time>2021-02-27T13:13:56.000Z</time>
      </trkpt>
      <trkpt lat="47.20399" lon="-1.55193">
        <ele>59</ele>
        <time>2021-02-27T13:13:58.000Z</time>
      </trkpt>
      <trkpt lat="47.2039" lon="-1.55186">
        <ele>59</ele>
        <time>2021-02-27T13:14:00.000Z</time>
      </trkpt>
      <trkpt lat="47.2038" lon="-1.55182">
        <ele>59</ele>
        <time>2021-02-27T13:14:02.000Z</time>
      </trkpt>
      <trkpt lat="47.2037" lon="-1.55192">
        <ele>59</ele>
        <time>2021-02-27T13:14:04.000Z</time>
      </trkpt>
      <trkpt lat="47.2036" lon="-1.55207">
        <ele>58</ele>
        <time>2021-02-27T13:14:06.000Z</time>
      </trkpt>
      <trkpt lat="47.2035" lon="-1.55219">
        <ele>58</ele>
        <time>2021-02-27T13:14:08.000Z</time>
      </trkpt>
      <trkpt lat="47.20338" lon="-1.55234">
        <ele>58</ele>
        <time>2021-02-27T13:14:10.000Z</time>
      </trkpt>
      <trkpt lat="47.20326" lon="-1.55249">
        <ele>58</ele>
        <time>2021-02-27T13:14:12.000Z</time>
      </trkpt>
      <trkpt lat="47.20317" lon="-1.55262">
        <ele>59</ele>
        <time>2021-02-27T13:14:14.000Z</time>
      </trkpt>
      <trkpt lat="47.20307" lon="-1.55276">
        <ele>60</ele>
        <time>2021-02-27T13:14:16.000Z</time>
      </trkpt>
      <trkpt lat="47.20296" lon="-1.55289">
        <ele>61</ele>
        <time>2021-02-27T13:14:18.000Z</time>
      </trkpt>
      <trkpt lat="47.20285" lon="-1.55303">
        <ele>61</ele>
        <time>2021-02-27T13:14:20.000Z</time>
      </trkpt>
      <trkpt lat="47.20274" lon="-1.55316">
        <ele>60</ele>
        <time>2021-02-27T13:14:22.000Z</time>
      </trkpt>
      <trkpt lat="47.20263" lon="-1.5533">
        <ele>59</ele>
        <time>2021-02-27T13:14:24.000Z</time>
      </trkpt>
      <trkpt lat="47.20252" lon="-1.55345">
        <ele>58</ele>
        <time>2021-02-27T13:14:26.000Z</time>
      </trkpt>
      <trkpt lat="47.20241" lon="-1.5536">
        <ele>57</ele>
        <time>2021-02-27T13:14:28.000Z</time>
      </trkpt>
      <trkpt lat="47.2023" lon="-1.55374">
        <ele>57</ele>
        <time>2021-02-27T13:14:30.000Z</time>
      </trkpt>
      <trkpt lat="47.20218" lon="-1.55388">
        <ele>56</ele>
        <time>2021-02-27T13:14:32.000Z</time>
      </trkpt>
      <trkpt lat="47.20207" lon="-1.55402">
        <ele>56</ele>
        <time>2021-02-27T13:14:34.000Z</time>
      </trkpt>
      <trkpt lat="47.20198" lon="-1.55415">
        <ele>56</ele>
        <time>2021-02-27T13:14:36.000Z</time>
      </trkpt>
      <trkpt lat="47.20187" lon="-1.55428">
        <ele>56</ele>
        <time>2021-02-27T13:14:38.000Z</time>
      </trkpt>
      <trkpt lat="47.2018" lon="-1.55438">
        <ele>56</ele>
        <time>2021-02-27T13:14:40.000Z</time>
      </trkpt>
      <trkpt lat="47.20171" lon="-1.55451">
        <ele>55</ele>
        <time>2021-02-27T13:14:43.000Z</time>
      </trkpt>
      <trkpt lat="47.20162" lon="-1.55459">
        <ele>55</ele>
        <time>2021-02-27T13:14:45.000Z</time>
      </trkpt>
      <trkpt lat="47.20152" lon="-1.55472">
        <ele>55</ele>
        <time>2021-02-27T13:14:47.000Z</time>
      </trkpt>
      <trkpt lat="47.20138" lon="-1.55482">
        <ele>55</ele>
        <time>2021-02-27T13:14:49.000Z</time>
      </trkpt>
      <trkpt lat="47.20125" lon="-1.55495">
        <ele>55</ele>
        <time>2021-02-27T13:14:51.000Z</time>
      </trkpt>
      <trkpt lat="47.20112" lon="-1.55511">
        <ele>55</ele>
        <time>2021-02-27T13:14:53.000Z</time>
      </trkpt>
      <trkpt lat="47.201" lon="-1.55527">
        <ele>55</ele>
        <time>2021-02-27T13:14:55.000Z</time>
      </trkpt>
      <trkpt lat="47.20089" lon="-1.55543">
        <ele>55</ele>
        <time>2021-02-27T13:14:57.000Z</time>
      </trkpt>
      <trkpt lat="47.20077" lon="-1.55558">
        <ele>55</ele>
        <time>2021-02-27T13:14:59.000Z</time>
      </trkpt>
      <trkpt lat="47.20066" lon="-1.55572">
        <ele>55</ele>
        <time>2021-02-27T13:15:01.000Z</time>
      </trkpt>
      <trkpt lat="47.20055" lon="-1.55588">
        <ele>55</ele>
        <time>2021-02-27T13:15:03.000Z</time>
      </trkpt>
      <trkpt lat="47.20045" lon="-1.55603">
        <ele>56</ele>
        <time>2021-02-27T13:15:05.000Z</time>
      </trkpt>
      <trkpt lat="47.20034" lon="-1.55618">
        <ele>56</ele>
        <time>2021-02-27T13:15:07.000Z</time>
      </trkpt>
      <trkpt lat="47.20022" lon="-1.55631">
        <ele>56</ele>
        <time>2021-02-27T13:15:09.000Z</time>
      </trkpt>
      <trkpt lat="47.20007" lon="-1.55633">
        <ele>56</ele>
        <time>2021-02-27T13:15:11.000Z</time>
      </trkpt>
      <trkpt lat="47.19993" lon="-1.55639">
        <ele>56</ele>
        <time>2021-02-27T13:15:13.000Z</time>
      </trkpt>
      <trkpt lat="47.1998" lon="-1.55646">
        <ele>56</ele>
        <time>2021-02-27T13:15:15.000Z</time>
      </trkpt>
      <trkpt lat="47.19967" lon="-1.55654">
        <ele>55</ele>
        <time>2021-02-27T13:15:17.000Z</time>
      </trkpt>
      <trkpt lat="47.19956" lon="-1.55665">
        <ele>55</ele>
        <time>2021-02-27T13:15:19.000Z</time>
      </trkpt>
      <trkpt lat="47.19946" lon="-1.55679">
        <ele>55</ele>
        <time>2021-02-27T13:15:21.000Z</time>
      </trkpt>
      <trkpt lat="47.19938" lon="-1.55696">
        <ele>55</ele>
        <time>2021-02-27T13:15:23.000Z</time>
      </trkpt>
      <trkpt lat="47.19934" lon="-1.55715">
        <ele>55</ele>
        <time>2021-02-27T13:15:25.000Z</time>
      </trkpt>
      <trkpt lat="47.19932" lon="-1.55736">
        <ele>55</ele>
        <time>2021-02-27T13:15:27.000Z</time>
      </trkpt>
      <trkpt lat="47.19932" lon="-1.55757">
        <ele>56</ele>
        <time>2021-02-27T13:15:29.000Z</time>
      </trkpt>
      <trkpt lat="47.19932" lon="-1.55777">
        <ele>56</ele>
        <time>2021-02-27T13:15:31.000Z</time>
      </trkpt>
      <trkpt lat="47.19932" lon="-1.55797">
        <ele>56</ele>
        <time>2021-02-27T13:15:33.000Z</time>
      </trkpt>
      <trkpt lat="47.19932" lon="-1.55818">
        <ele>55</ele>
        <time>2021-02-27T13:15:35.000Z</time>
      </trkpt>
      <trkpt lat="47.19932" lon="-1.55839">
        <ele>55</ele>
        <time>2021-02-27T13:15:37.000Z</time>
      </trkpt>
      <trkpt lat="47.19932" lon="-1.55861">
        <ele>55</ele>
        <time>2021-02-27T13:15:39.000Z</time>
      </trkpt>
      <trkpt lat="47.19931" lon="-1.55881">
        <ele>55</ele>
        <time>2021-02-27T13:15:41.000Z</time>
      </trkpt>
      <trkpt lat="47.19932" lon="-1.55902">
        <ele>55</ele>
        <time>2021-02-27T13:15:43.000Z</time>
      </trkpt>
      <trkpt lat="47.19932" lon="-1.55922">
        <ele>55</ele>
        <time>2021-02-27T13:15:45.000Z</time>
      </trkpt>
      <trkpt lat="47.19933" lon="-1.55943">
        <ele>55</ele>
        <time>2021-02-27T13:15:47.000Z</time>
      </trkpt>
      <trkpt lat="47.19933" lon="-1.55964">
        <ele>55</ele>
        <time>2021-02-27T13:15:49.000Z</time>
      </trkpt>
      <trkpt lat="47.19934" lon="-1.55985">
        <ele>55</ele>
        <time>2021-02-27T13:15:51.000Z</time>
      </trkpt>
      <trkpt lat="47.19933" lon="-1.56006">
        <ele>56</ele>
        <time>2021-02-27T13:15:53.000Z</time>
      </trkpt>
      <trkpt lat="47.19933" lon="-1.56026">
        <ele>55</ele>
        <time>2021-02-27T13:15:55.000Z</time>
      </trkpt>
      <trkpt lat="47.19934" lon="-1.56046">
        <ele>55</ele>
        <time>2021-02-27T13:15:57.000Z</time>
      </trkpt>
      <trkpt lat="47.19935" lon="-1.56065">
        <ele>55</ele>
        <time>2021-02-27T13:15:59.000Z</time>
      </trkpt>
      <trkpt lat="47.1994" lon="-1.56083">
        <ele>55</ele>
        <time>2021-02-27T13:16:01.000Z</time>
      </trkpt>
      <trkpt lat="47.19948" lon="-1.56099">
        <ele>55</ele>
        <time>2021-02-27T13:16:03.000Z</time>
      </trkpt>
      <trkpt lat="47.19955" lon="-1.56114">
        <ele>55</ele>
        <time>2021-02-27T13:16:05.000Z</time>
      </trkpt>
      <trkpt lat="47.19958" lon="-1.5613">
        <ele>56</ele>
        <time>2021-02-27T13:16:07.000Z</time>
      </trkpt>
      <trkpt lat="47.19967" lon="-1.56143">
        <ele>56</ele>
        <time>2021-02-27T13:16:10.000Z</time>
      </trkpt>
      <trkpt lat="47.19968" lon="-1.56158">
        <ele>56</ele>
        <time>2021-02-27T13:16:12.000Z</time>
      </trkpt>
      <trkpt lat="47.19957" lon="-1.56168">
        <ele>56</ele>
        <time>2021-02-27T13:16:15.000Z</time>
      </trkpt>
      <trkpt lat="47.19945" lon="-1.56171">
        <ele>57</ele>
        <time>2021-02-27T13:16:17.000Z</time>
      </trkpt>
      <trkpt lat="47.19931" lon="-1.56173">
        <ele>58</ele>
        <time>2021-02-27T13:16:19.000Z</time>
      </trkpt>
      <trkpt lat="47.19918" lon="-1.56174">
        <ele>59</ele>
        <time>2021-02-27T13:16:21.000Z</time>
      </trkpt>
      <trkpt lat="47.19905" lon="-1.56177">
        <ele>59</ele>
        <time>2021-02-27T13:16:23.000Z</time>
      </trkpt>
      <trkpt lat="47.19892" lon="-1.56179">
        <ele>60</ele>
        <time>2021-02-27T13:16:25.000Z</time>
      </trkpt>
      <trkpt lat="47.19879" lon="-1.56181">
        <ele>60</ele>
        <time>2021-02-27T13:16:27.000Z</time>
      </trkpt>
      <trkpt lat="47.19866" lon="-1.56184">
        <ele>60</ele>
        <time>2021-02-27T13:16:29.000Z</time>
      </trkpt>
      <trkpt lat="47.19854" lon="-1.56187">
        <ele>60</ele>
        <time>2021-02-27T13:16:31.000Z</time>
      </trkpt>
      <trkpt lat="47.19841" lon="-1.56188">
        <ele>60</ele>
        <time>2021-02-27T13:16:33.000Z</time>
      </trkpt>
      <trkpt lat="47.19829" lon="-1.56191">
        <ele>61</ele>
        <time>2021-02-27T13:16:35.000Z</time>
      </trkpt>
      <trkpt lat="47.19817" lon="-1.56193">
        <ele>60</ele>
        <time>2021-02-27T13:16:37.000Z</time>
      </trkpt>
      <trkpt lat="47.19805" lon="-1.56195">
        <ele>60</ele>
        <time>2021-02-27T13:16:39.000Z</time>
      </trkpt>
      <trkpt lat="47.19793" lon="-1.56197">
        <ele>60</ele>
        <time>2021-02-27T13:16:41.000Z</time>
      </trkpt>
      <trkpt lat="47.19781" lon="-1.562">
        <ele>60</ele>
        <time>2021-02-27T13:16:43.000Z</time>
      </trkpt>
      <trkpt lat="47.19767" lon="-1.56202">
        <ele>59</ele>
        <time>2021-02-27T13:16:45.000Z</time>
      </trkpt>
      <trkpt lat="47.19754" lon="-1.56205">
        <ele>59</ele>
        <time>2021-02-27T13:16:47.000Z</time>
      </trkpt>
      <trkpt lat="47.1974" lon="-1.56207">
        <ele>59</ele>
        <time>2021-02-27T13:16:49.000Z</time>
      </trkpt>
      <trkpt lat="47.19725" lon="-1.56209">
        <ele>58</ele>
        <time>2021-02-27T13:16:51.000Z</time>
      </trkpt>
      <trkpt lat="47.1971" lon="-1.56212">
        <ele>57</ele>
        <time>2021-02-27T13:16:53.000Z</time>
      </trkpt>
      <trkpt lat="47.19694" lon="-1.56216">
        <ele>56</ele>
        <time>2021-02-27T13:16:55.000Z</time>
      </trkpt>
      <trkpt lat="47.19677" lon="-1.5622">
        <ele>55</ele>
        <time>2021-02-27T13:16:57.000Z</time>
      </trkpt>
      <trkpt lat="47.19668" lon="-1.56223">
        <ele>54</ele>
        <time>2021-02-27T13:16:58.000Z</time>
      </trkpt>
      <trkpt lat="47.19659" lon="-1.56226">
        <ele>54</ele>
        <time>2021-02-27T13:16:59.000Z</time>
      </trkpt>
      <trkpt lat="47.19649" lon="-1.56228">
        <ele>53</ele>
        <time>2021-02-27T13:17:00.000Z</time>
      </trkpt>
      <trkpt lat="47.19637" lon="-1.56245">
        <ele>53</ele>
        <time>2021-02-27T13:17:02.000Z</time>
      </trkpt>
      <trkpt lat="47.19637" lon="-1.5627">
        <ele>53</ele>
        <time>2021-02-27T13:17:04.000Z</time>
      </trkpt>
      <trkpt lat="47.19636" lon="-1.56293">
        <ele>53</ele>
        <time>2021-02-27T13:17:06.000Z</time>
      </trkpt>
      <trkpt lat="47.19634" lon="-1.56317">
        <ele>54</ele>
        <time>2021-02-27T13:17:08.000Z</time>
      </trkpt>
      <trkpt lat="47.19633" lon="-1.5634">
        <ele>54</ele>
        <time>2021-02-27T13:17:10.000Z</time>
      </trkpt>
      <trkpt lat="47.19632" lon="-1.56364">
        <ele>54</ele>
        <time>2021-02-27T13:17:12.000Z</time>
      </trkpt>
      <trkpt lat="47.19632" lon="-1.56387">
        <ele>53</ele>
        <time>2021-02-27T13:17:14.000Z</time>
      </trkpt>
      <trkpt lat="47.19632" lon="-1.5641">
        <ele>53</ele>
        <time>2021-02-27T13:17:16.000Z</time>
      </trkpt>
      <trkpt lat="47.19633" lon="-1.56432">
        <ele>53</ele>
        <time>2021-02-27T13:17:18.000Z</time>
      </trkpt>
      <trkpt lat="47.19634" lon="-1.56454">
        <ele>53</ele>
        <time>2021-02-27T13:17:20.000Z</time>
      </trkpt>
      <trkpt lat="47.19636" lon="-1.56476">
        <ele>54</ele>
        <time>2021-02-27T13:17:22.000Z</time>
      </trkpt>
      <trkpt lat="47.19636" lon="-1.56499">
        <ele>54</ele>
        <time>2021-02-27T13:17:24.000Z</time>
      </trkpt>
      <trkpt lat="47.19635" lon="-1.56522">
        <ele>54</ele>
        <time>2021-02-27T13:17:26.000Z</time>
      </trkpt>
      <trkpt lat="47.19636" lon="-1.56545">
        <ele>54</ele>
        <time>2021-02-27T13:17:28.000Z</time>
      </trkpt>
      <trkpt lat="47.19636" lon="-1.56567">
        <ele>54</ele>
        <time>2021-02-27T13:17:30.000Z</time>
      </trkpt>
      <trkpt lat="47.19636" lon="-1.5659">
        <ele>54</ele>
        <time>2021-02-27T13:17:32.000Z</time>
      </trkpt>
      <trkpt lat="47.19636" lon="-1.56613">
        <ele>54</ele>
        <time>2021-02-27T13:17:34.000Z</time>
      </trkpt>
      <trkpt lat="47.19636" lon="-1.56635">
        <ele>54</ele>
        <time>2021-02-27T13:17:36.000Z</time>
      </trkpt>
      <trkpt lat="47.19634" lon="-1.56659">
        <ele>53</ele>
        <time>2021-02-27T13:17:38.000Z</time>
      </trkpt>
      <trkpt lat="47.19633" lon="-1.56682">
        <ele>53</ele>
        <time>2021-02-27T13:17:40.000Z</time>
      </trkpt>
      <trkpt lat="47.19631" lon="-1.56704">
        <ele>53</ele>
        <time>2021-02-27T13:17:42.000Z</time>
      </trkpt>
      <trkpt lat="47.19629" lon="-1.56726">
        <ele>53</ele>
        <time>2021-02-27T13:17:44.000Z</time>
      </trkpt>
      <trkpt lat="47.19627" lon="-1.5675">
        <ele>53</ele>
        <time>2021-02-27T13:17:46.000Z</time>
      </trkpt>
      <trkpt lat="47.19625" lon="-1.56772">
        <ele>53</ele>
        <time>2021-02-27T13:17:48.000Z</time>
      </trkpt>
      <trkpt lat="47.19624" lon="-1.56794">
        <ele>53</ele>
        <time>2021-02-27T13:17:50.000Z</time>
      </trkpt>
      <trkpt lat="47.19623" lon="-1.56816">
        <ele>53</ele>
        <time>2021-02-27T13:17:52.000Z</time>
      </trkpt>
      <trkpt lat="47.19623" lon="-1.56838">
        <ele>53</ele>
        <time>2021-02-27T13:17:54.000Z</time>
      </trkpt>
      <trkpt lat="47.19622" lon="-1.5686">
        <ele>53</ele>
        <time>2021-02-27T13:17:56.000Z</time>
      </trkpt>
      <trkpt lat="47.1962" lon="-1.56882">
        <ele>54</ele>
        <time>2021-02-27T13:17:58.000Z</time>
      </trkpt>
      <trkpt lat="47.19618" lon="-1.56904">
        <ele>54</ele>
        <time>2021-02-27T13:18:00.000Z</time>
      </trkpt>
      <trkpt lat="47.19616" lon="-1.56926">
        <ele>54</ele>
        <time>2021-02-27T13:18:02.000Z</time>
      </trkpt>
      <trkpt lat="47.19616" lon="-1.56948">
        <ele>54</ele>
        <time>2021-02-27T13:18:04.000Z</time>
      </trkpt>
      <trkpt lat="47.19613" lon="-1.5697">
        <ele>54</ele>
        <time>2021-02-27T13:18:06.000Z</time>
      </trkpt>
      <trkpt lat="47.19611" lon="-1.56992">
        <ele>53</ele>
        <time>2021-02-27T13:18:08.000Z</time>
      </trkpt>
      <trkpt lat="47.19609" lon="-1.57014">
        <ele>54</ele>
        <time>2021-02-27T13:18:10.000Z</time>
      </trkpt>
      <trkpt lat="47.19608" lon="-1.57035">
        <ele>54</ele>
        <time>2021-02-27T13:18:12.000Z</time>
      </trkpt>
      <trkpt lat="47.19606" lon="-1.57057">
        <ele>55</ele>
        <time>2021-02-27T13:18:14.000Z</time>
      </trkpt>
      <trkpt lat="47.19605" lon="-1.57077">
        <ele>55</ele>
        <time>2021-02-27T13:18:16.000Z</time>
      </trkpt>
      <trkpt lat="47.19603" lon="-1.57096">
        <ele>54</ele>
        <time>2021-02-27T13:18:18.000Z</time>
      </trkpt>
      <trkpt lat="47.19601" lon="-1.57113">
        <ele>55</ele>
        <time>2021-02-27T13:18:20.000Z</time>
      </trkpt>
      <trkpt lat="47.19594" lon="-1.57125">
        <ele>54</ele>
        <time>2021-02-27T13:18:22.000Z</time>
      </trkpt>
      <trkpt lat="47.19578" lon="-1.57123">
        <ele>53</ele>
        <time>2021-02-27T13:18:24.000Z</time>
      </trkpt>
      <trkpt lat="47.19563" lon="-1.57122">
        <ele>54</ele>
        <time>2021-02-27T13:18:26.000Z</time>
      </trkpt>
      <trkpt lat="47.19548" lon="-1.57122">
        <ele>55</ele>
        <time>2021-02-27T13:18:28.000Z</time>
      </trkpt>
      <trkpt lat="47.19534" lon="-1.5712">
        <ele>56</ele>
        <time>2021-02-27T13:18:30.000Z</time>
      </trkpt>
      <trkpt lat="47.19522" lon="-1.57116">
        <ele>57</ele>
        <time>2021-02-27T13:18:32.000Z</time>
      </trkpt>
      <trkpt lat="47.1951" lon="-1.57111">
        <ele>57</ele>
        <time>2021-02-27T13:18:34.000Z</time>
      </trkpt>
      <trkpt lat="47.19498" lon="-1.57106">
        <ele>56</ele>
        <time>2021-02-27T13:18:36.000Z</time>
      </trkpt>
      <trkpt lat="47.19487" lon="-1.57103">
        <ele>56</ele>
        <time>2021-02-27T13:18:38.000Z</time>
      </trkpt>
      <trkpt lat="47.19476" lon="-1.57103">
        <ele>56</ele>
        <time>2021-02-27T13:18:40.000Z</time>
      </trkpt>
      <trkpt lat="47.19465" lon="-1.57107">
        <ele>55</ele>
        <time>2021-02-27T13:18:42.000Z</time>
      </trkpt>
      <trkpt lat="47.19452" lon="-1.57105">
        <ele>55</ele>
        <time>2021-02-27T13:18:44.000Z</time>
      </trkpt>
      <trkpt lat="47.19441" lon="-1.57095">
        <ele>55</ele>
        <time>2021-02-27T13:18:46.000Z</time>
      </trkpt>
      <trkpt lat="47.19429" lon="-1.57089">
        <ele>55</ele>
        <time>2021-02-27T13:18:48.000Z</time>
      </trkpt>
      <trkpt lat="47.19416" lon="-1.57087">
        <ele>55</ele>
        <time>2021-02-27T13:18:50.000Z</time>
      </trkpt>
      <trkpt lat="47.19402" lon="-1.57085">
        <ele>55</ele>
        <time>2021-02-27T13:18:52.000Z</time>
      </trkpt>
      <trkpt lat="47.19389" lon="-1.57082">
        <ele>55</ele>
        <time>2021-02-27T13:18:54.000Z</time>
      </trkpt>
      <trkpt lat="47.19375" lon="-1.57078">
        <ele>55</ele>
        <time>2021-02-27T13:18:56.000Z</time>
      </trkpt>
      <trkpt lat="47.19361" lon="-1.57076">
        <ele>54</ele>
        <time>2021-02-27T13:18:58.000Z</time>
      </trkpt>
      <trkpt lat="47.1935" lon="-1.57075">
        <ele>55</ele>
        <time>2021-02-27T13:19:00.000Z</time>
      </trkpt>
      <trkpt lat="47.19341" lon="-1.57078">
        <ele>55</ele>
        <time>2021-02-27T13:19:02.000Z</time>
      </trkpt>
      <trkpt lat="47.19331" lon="-1.57083">
        <ele>56</ele>
        <time>2021-02-27T13:19:04.000Z</time>
      </trkpt>
      <trkpt lat="47.19318" lon="-1.57078">
        <ele>56</ele>
        <time>2021-02-27T13:19:06.000Z</time>
      </trkpt>
      <trkpt lat="47.19307" lon="-1.57067">
        <ele>56</ele>
        <time>2021-02-27T13:19:08.000Z</time>
      </trkpt>
      <trkpt lat="47.19294" lon="-1.57061">
        <ele>55</ele>
        <time>2021-02-27T13:19:10.000Z</time>
      </trkpt>
      <trkpt lat="47.19278" lon="-1.57059">
        <ele>55</ele>
        <time>2021-02-27T13:19:12.000Z</time>
      </trkpt>
      <trkpt lat="47.19266" lon="-1.57062">
        <ele>55</ele>
        <time>2021-02-27T13:19:14.000Z</time>
      </trkpt>
      <trkpt lat="47.19251" lon="-1.57055">
        <ele>53</ele>
        <time>2021-02-27T13:19:16.000Z</time>
      </trkpt>
      <trkpt lat="47.19238" lon="-1.57046">
        <ele>52</ele>
        <time>2021-02-27T13:19:18.000Z</time>
      </trkpt>
      <trkpt lat="47.19224" lon="-1.57042">
        <ele>53</ele>
        <time>2021-02-27T13:19:20.000Z</time>
      </trkpt>
      <trkpt lat="47.1921" lon="-1.57039">
        <ele>53</ele>
        <time>2021-02-27T13:19:22.000Z</time>
      </trkpt>
      <trkpt lat="47.19196" lon="-1.57035">
        <ele>54</ele>
        <time>2021-02-27T13:19:24.000Z</time>
      </trkpt>
      <trkpt lat="47.19183" lon="-1.57031">
        <ele>55</ele>
        <time>2021-02-27T13:19:26.000Z</time>
      </trkpt>
      <trkpt lat="47.19171" lon="-1.57027">
        <ele>56</ele>
        <time>2021-02-27T13:19:28.000Z</time>
      </trkpt>
      <trkpt lat="47.1916" lon="-1.57025">
        <ele>57</ele>
        <time>2021-02-27T13:19:30.000Z</time>
      </trkpt>
      <trkpt lat="47.19146" lon="-1.57023">
        <ele>58</ele>
        <time>2021-02-27T13:19:32.000Z</time>
      </trkpt>
      <trkpt lat="47.19135" lon="-1.57022">
        <ele>58</ele>
        <time>2021-02-27T13:19:34.000Z</time>
      </trkpt>
      <trkpt lat="47.19126" lon="-1.5704">
        <ele>56</ele>
        <time>2021-02-27T13:19:37.000Z</time>
      </trkpt>
      <trkpt lat="47.19121" lon="-1.57058">
        <ele>57</ele>
        <time>2021-02-27T13:19:39.000Z</time>
      </trkpt>
      <trkpt lat="47.19116" lon="-1.57077">
        <ele>57</ele>
        <time>2021-02-27T13:19:41.000Z</time>
      </trkpt>
      <trkpt lat="47.1911" lon="-1.57096">
        <ele>57</ele>
        <time>2021-02-27T13:19:43.000Z</time>
      </trkpt>
      <trkpt lat="47.19103" lon="-1.57115">
        <ele>56</ele>
        <time>2021-02-27T13:19:45.000Z</time>
      </trkpt>
      <trkpt lat="47.19092" lon="-1.57131">
        <ele>55</ele>
        <time>2021-02-27T13:19:47.000Z</time>
      </trkpt>
      <trkpt lat="47.19085" lon="-1.57149">
        <ele>55</ele>
        <time>2021-02-27T13:19:49.000Z</time>
      </trkpt>
      <trkpt lat="47.19079" lon="-1.57167">
        <ele>55</ele>
        <time>2021-02-27T13:19:51.000Z</time>
      </trkpt>
      <trkpt lat="47.19072" lon="-1.57186">
        <ele>55</ele>
        <time>2021-02-27T13:19:53.000Z</time>
      </trkpt>
      <trkpt lat="47.19064" lon="-1.57202">
        <ele>55</ele>
        <time>2021-02-27T13:19:55.000Z</time>
      </trkpt>
      <trkpt lat="47.19056" lon="-1.57216">
        <ele>55</ele>
        <time>2021-02-27T13:19:57.000Z</time>
      </trkpt>
      <trkpt lat="47.19046" lon="-1.57225">
        <ele>55</ele>
        <time>2021-02-27T13:19:59.000Z</time>
      </trkpt>
      <trkpt lat="47.19033" lon="-1.57232">
        <ele>56</ele>
        <time>2021-02-27T13:20:01.000Z</time>
      </trkpt>
      <trkpt lat="47.19022" lon="-1.57241">
        <ele>56</ele>
        <time>2021-02-27T13:20:03.000Z</time>
      </trkpt>
      <trkpt lat="47.1901" lon="-1.5725">
        <ele>57</ele>
        <time>2021-02-27T13:20:05.000Z</time>
      </trkpt>
      <trkpt lat="47.18997" lon="-1.57257">
        <ele>57</ele>
        <time>2021-02-27T13:20:07.000Z</time>
      </trkpt>
      <trkpt lat="47.18985" lon="-1.57263">
        <ele>58</ele>
        <time>2021-02-27T13:20:09.000Z</time>
      </trkpt>
      <trkpt lat="47.18971" lon="-1.57265">
        <ele>58</ele>
        <time>2021-02-27T13:20:11.000Z</time>
      </trkpt>
      <trkpt lat="47.18959" lon="-1.57266">
        <ele>58</ele>
        <time>2021-02-27T13:20:13.000Z</time>
      </trkpt>
      <trkpt lat="47.18947" lon="-1.57267">
        <ele>58</ele>
        <time>2021-02-27T13:20:15.000Z</time>
      </trkpt>
      <trkpt lat="47.18934" lon="-1.57268">
        <ele>58</ele>
        <time>2021-02-27T13:20:17.000Z</time>
      </trkpt>
      <trkpt lat="47.18922" lon="-1.5727">
        <ele>58</ele>
        <time>2021-02-27T13:20:19.000Z</time>
      </trkpt>
      <trkpt lat="47.1891" lon="-1.57271">
        <ele>57</ele>
        <time>2021-02-27T13:20:21.000Z</time>
      </trkpt>
      <trkpt lat="47.18898" lon="-1.57273">
        <ele>57</ele>
        <time>2021-02-27T13:20:23.000Z</time>
      </trkpt>
      <trkpt lat="47.18885" lon="-1.57275">
        <ele>57</ele>
        <time>2021-02-27T13:20:25.000Z</time>
      </trkpt>
      <trkpt lat="47.18872" lon="-1.57278">
        <ele>58</ele>
        <time>2021-02-27T13:20:27.000Z</time>
      </trkpt>
      <trkpt lat="47.18862" lon="-1.57282">
        <ele>58</ele>
        <time>2021-02-27T13:20:29.000Z</time>
      </trkpt>
      <trkpt lat="47.18852" lon="-1.5729">
        <ele>58</ele>
        <time>2021-02-27T13:20:31.000Z</time>
      </trkpt>
      <trkpt lat="47.18842" lon="-1.57304">
        <ele>59</ele>
        <time>2021-02-27T13:20:33.000Z</time>
      </trkpt>
      <trkpt lat="47.18835" lon="-1.57322">
        <ele>59</ele>
        <time>2021-02-27T13:20:35.000Z</time>
      </trkpt>
      <trkpt lat="47.18829" lon="-1.57342">
        <ele>59</ele>
        <time>2021-02-27T13:20:37.000Z</time>
      </trkpt>
      <trkpt lat="47.18823" lon="-1.57362">
        <ele>59</ele>
        <time>2021-02-27T13:20:39.000Z</time>
      </trkpt>
      <trkpt lat="47.18816" lon="-1.57381">
        <ele>58</ele>
        <time>2021-02-27T13:20:41.000Z</time>
      </trkpt>
      <trkpt lat="47.18807" lon="-1.57397">
        <ele>58</ele>
        <time>2021-02-27T13:20:43.000Z</time>
      </trkpt>
      <trkpt lat="47.18793" lon="-1.57409">
        <ele>57</ele>
        <time>2021-02-27T13:20:45.000Z</time>
      </trkpt>
      <trkpt lat="47.18777" lon="-1.57417">
        <ele>57</ele>
        <time>2021-02-27T13:20:47.000Z</time>
      </trkpt>
      <trkpt lat="47.18762" lon="-1.57426">
        <ele>56</ele>
        <time>2021-02-27T13:20:49.000Z</time>
      </trkpt>
      <trkpt lat="47.18746" lon="-1.57434">
        <ele>56</ele>
        <time>2021-02-27T13:20:51.000Z</time>
      </trkpt>
      <trkpt lat="47.1873" lon="-1.57442">
        <ele>56</ele>
        <time>2021-02-27T13:20:53.000Z</time>
      </trkpt>
      <trkpt lat="47.18717" lon="-1.57448">
        <ele>57</ele>
        <time>2021-02-27T13:20:55.000Z</time>
      </trkpt>
      <trkpt lat="47.18703" lon="-1.57455">
        <ele>57</ele>
        <time>2021-02-27T13:20:57.000Z</time>
      </trkpt>
      <trkpt lat="47.1869" lon="-1.57462">
        <ele>57</ele>
        <time>2021-02-27T13:20:59.000Z</time>
      </trkpt>
      <trkpt lat="47.18678" lon="-1.57471">
        <ele>58</ele>
        <time>2021-02-27T13:21:01.000Z</time>
      </trkpt>
      <trkpt lat="47.18667" lon="-1.57481">
        <ele>58</ele>
        <time>2021-02-27T13:21:03.000Z</time>
      </trkpt>
      <trkpt lat="47.18657" lon="-1.57493">
        <ele>58</ele>
        <time>2021-02-27T13:21:05.000Z</time>
      </trkpt>
      <trkpt lat="47.18649" lon="-1.57508">
        <ele>59</ele>
        <time>2021-02-27T13:21:07.000Z</time>
      </trkpt>
      <trkpt lat="47.18642" lon="-1.57524">
        <ele>60</ele>
        <time>2021-02-27T13:21:09.000Z</time>
      </trkpt>
      <trkpt lat="47.18636" lon="-1.57541">
        <ele>60</ele>
        <time>2021-02-27T13:21:11.000Z</time>
      </trkpt>
      <trkpt lat="47.18632" lon="-1.57558">
        <ele>60</ele>
        <time>2021-02-27T13:21:13.000Z</time>
      </trkpt>
      <trkpt lat="47.18628" lon="-1.57576">
        <ele>60</ele>
        <time>2021-02-27T13:21:15.000Z</time>
      </trkpt>
      <trkpt lat="47.18625" lon="-1.57595">
        <ele>60</ele>
        <time>2021-02-27T13:21:17.000Z</time>
      </trkpt>
      <trkpt lat="47.18624" lon="-1.57615">
        <ele>61</ele>
        <time>2021-02-27T13:21:19.000Z</time>
      </trkpt>
      <trkpt lat="47.18626" lon="-1.57635">
        <ele>61</ele>
        <time>2021-02-27T13:21:21.000Z</time>
      </trkpt>
      <trkpt lat="47.18628" lon="-1.57655">
        <ele>61</ele>
        <time>2021-02-27T13:21:23.000Z</time>
      </trkpt>
      <trkpt lat="47.1863" lon="-1.57674">
        <ele>61</ele>
        <time>2021-02-27T13:21:25.000Z</time>
      </trkpt>
      <trkpt lat="47.18631" lon="-1.57693">
        <ele>62</ele>
        <time>2021-02-27T13:21:27.000Z</time>
      </trkpt>
      <trkpt lat="47.18634" lon="-1.57712">
        <ele>62</ele>
        <time>2021-02-27T13:21:29.000Z</time>
      </trkpt>
      <trkpt lat="47.18635" lon="-1.5773">
        <ele>63</ele>
        <time>2021-02-27T13:21:31.000Z</time>
      </trkpt>
      <trkpt lat="47.18636" lon="-1.57749">
        <ele>63</ele>
        <time>2021-02-27T13:21:33.000Z</time>
      </trkpt>
      <trkpt lat="47.18638" lon="-1.57769">
        <ele>64</ele>
        <time>2021-02-27T13:21:35.000Z</time>
      </trkpt>
      <trkpt lat="47.18639" lon="-1.57788">
        <ele>64</ele>
        <time>2021-02-27T13:21:37.000Z</time>
      </trkpt>
      <trkpt lat="47.1864" lon="-1.57808">
        <ele>64</ele>
        <time>2021-02-27T13:21:39.000Z</time>
      </trkpt>
      <trkpt lat="47.18641" lon="-1.57827">
        <ele>65</ele>
        <time>2021-02-27T13:21:41.000Z</time>
      </trkpt>
      <trkpt lat="47.18642" lon="-1.57846">
        <ele>65</ele>
        <time>2021-02-27T13:21:43.000Z</time>
      </trkpt>
      <trkpt lat="47.18642" lon="-1.57865">
        <ele>65</ele>
        <time>2021-02-27T13:21:45.000Z</time>
      </trkpt>
      <trkpt lat="47.18639" lon="-1.57884">
        <ele>65</ele>
        <time>2021-02-27T13:21:47.000Z</time>
      </trkpt>
      <trkpt lat="47.18637" lon="-1.57904">
        <ele>65</ele>
        <time>2021-02-27T13:21:49.000Z</time>
      </trkpt>
      <trkpt lat="47.18634" lon="-1.57923">
        <ele>65</ele>
        <time>2021-02-27T13:21:51.000Z</time>
      </trkpt>
      <trkpt lat="47.18631" lon="-1.57941">
        <ele>66</ele>
        <time>2021-02-27T13:21:53.000Z</time>
      </trkpt>
      <trkpt lat="47.18628" lon="-1.5796">
        <ele>66</ele>
        <time>2021-02-27T13:21:55.000Z</time>
      </trkpt>
      <trkpt lat="47.18625" lon="-1.57978">
        <ele>66</ele>
        <time>2021-02-27T13:21:57.000Z</time>
      </trkpt>
      <trkpt lat="47.18621" lon="-1.57996">
        <ele>67</ele>
        <time>2021-02-27T13:21:59.000Z</time>
      </trkpt>
      <trkpt lat="47.18618" lon="-1.58014">
        <ele>67</ele>
        <time>2021-02-27T13:22:01.000Z</time>
      </trkpt>
      <trkpt lat="47.18615" lon="-1.58031">
        <ele>66</ele>
        <time>2021-02-27T13:22:03.000Z</time>
      </trkpt>
      <trkpt lat="47.18612" lon="-1.58049">
        <ele>66</ele>
        <time>2021-02-27T13:22:05.000Z</time>
      </trkpt>
      <trkpt lat="47.1861" lon="-1.58065">
        <ele>66</ele>
        <time>2021-02-27T13:22:07.000Z</time>
      </trkpt>
      <trkpt lat="47.18607" lon="-1.58082">
        <ele>65</ele>
        <time>2021-02-27T13:22:09.000Z</time>
      </trkpt>
      <trkpt lat="47.18596" lon="-1.58083">
        <ele>65</ele>
        <time>2021-02-27T13:22:11.000Z</time>
      </trkpt>
      <trkpt lat="47.18585" lon="-1.58075">
        <ele>64</ele>
        <time>2021-02-27T13:22:13.000Z</time>
      </trkpt>
      <trkpt lat="47.1857" lon="-1.58071">
        <ele>64</ele>
        <time>2021-02-27T13:22:15.000Z</time>
      </trkpt>
      <trkpt lat="47.18557" lon="-1.58066">
        <ele>63</ele>
        <time>2021-02-27T13:22:17.000Z</time>
      </trkpt>
      <trkpt lat="47.18543" lon="-1.58061">
        <ele>63</ele>
        <time>2021-02-27T13:22:19.000Z</time>
      </trkpt>
      <trkpt lat="47.18529" lon="-1.58057">
        <ele>63</ele>
        <time>2021-02-27T13:22:21.000Z</time>
      </trkpt>
      <trkpt lat="47.18515" lon="-1.58052">
        <ele>63</ele>
        <time>2021-02-27T13:22:23.000Z</time>
      </trkpt>
      <trkpt lat="47.18501" lon="-1.58047">
        <ele>63</ele>
        <time>2021-02-27T13:22:25.000Z</time>
      </trkpt>
      <trkpt lat="47.18487" lon="-1.58043">
        <ele>62</ele>
        <time>2021-02-27T13:22:27.000Z</time>
      </trkpt>
      <trkpt lat="47.18474" lon="-1.58039">
        <ele>62</ele>
        <time>2021-02-27T13:22:29.000Z</time>
      </trkpt>
      <trkpt lat="47.18461" lon="-1.58035">
        <ele>63</ele>
        <time>2021-02-27T13:22:31.000Z</time>
      </trkpt>
      <trkpt lat="47.18448" lon="-1.58031">
        <ele>63</ele>
        <time>2021-02-27T13:22:33.000Z</time>
      </trkpt>
      <trkpt lat="47.18435" lon="-1.58026">
        <ele>63</ele>
        <time>2021-02-27T13:22:35.000Z</time>
      </trkpt>
      <trkpt lat="47.18422" lon="-1.58021">
        <ele>64</ele>
        <time>2021-02-27T13:22:37.000Z</time>
      </trkpt>
      <trkpt lat="47.1841" lon="-1.58016">
        <ele>64</ele>
        <time>2021-02-27T13:22:39.000Z</time>
      </trkpt>
      <trkpt lat="47.18398" lon="-1.58011">
        <ele>64</ele>
        <time>2021-02-27T13:22:41.000Z</time>
      </trkpt>
      <trkpt lat="47.18386" lon="-1.58007">
        <ele>65</ele>
        <time>2021-02-27T13:22:43.000Z</time>
      </trkpt>
      <trkpt lat="47.18374" lon="-1.58004">
        <ele>65</ele>
        <time>2021-02-27T13:22:45.000Z</time>
      </trkpt>
      <trkpt lat="47.1836" lon="-1.58001">
        <ele>65</ele>
        <time>2021-02-27T13:22:47.000Z</time>
      </trkpt>
      <trkpt lat="47.18348" lon="-1.57999">
        <ele>65</ele>
        <time>2021-02-27T13:22:49.000Z</time>
      </trkpt>
      <trkpt lat="47.18336" lon="-1.57998">
        <ele>65</ele>
        <time>2021-02-27T13:22:51.000Z</time>
      </trkpt>
      <trkpt lat="47.18323" lon="-1.57997">
        <ele>66</ele>
        <time>2021-02-27T13:22:53.000Z</time>
      </trkpt>
      <trkpt lat="47.18309" lon="-1.57995">
        <ele>67</ele>
        <time>2021-02-27T13:22:55.000Z</time>
      </trkpt>
      <trkpt lat="47.18296" lon="-1.57995">
        <ele>67</ele>
        <time>2021-02-27T13:22:57.000Z</time>
      </trkpt>
      <trkpt lat="47.18284" lon="-1.57994">
        <ele>68</ele>
        <time>2021-02-27T13:22:59.000Z</time>
      </trkpt>
      <trkpt lat="47.18271" lon="-1.57991">
        <ele>69</ele>
        <time>2021-02-27T13:23:01.000Z</time>
      </trkpt>
      <trkpt lat="47.18259" lon="-1.57989">
        <ele>68</ele>
        <time>2021-02-27T13:23:03.000Z</time>
      </trkpt>
      <trkpt lat="47.18247" lon="-1.57987">
        <ele>68</ele>
        <time>2021-02-27T13:23:05.000Z</time>
      </trkpt>
      <trkpt lat="47.18236" lon="-1.57986">
        <ele>68</ele>
        <time>2021-02-27T13:23:07.000Z</time>
      </trkpt>
      <trkpt lat="47.18225" lon="-1.57988">
        <ele>68</ele>
        <time>2021-02-27T13:23:09.000Z</time>
      </trkpt>
      <trkpt lat="47.18219" lon="-1.58002">
        <ele>68</ele>
        <time>2021-02-27T13:23:11.000Z</time>
      </trkpt>
      <trkpt lat="47.18219" lon="-1.58021">
        <ele>68</ele>
        <time>2021-02-27T13:23:13.000Z</time>
      </trkpt>
      <trkpt lat="47.18221" lon="-1.5804">
        <ele>68</ele>
        <time>2021-02-27T13:23:15.000Z</time>
      </trkpt>
      <trkpt lat="47.18223" lon="-1.58059">
        <ele>68</ele>
        <time>2021-02-27T13:23:17.000Z</time>
      </trkpt>
      <trkpt lat="47.18224" lon="-1.58078">
        <ele>68</ele>
        <time>2021-02-27T13:23:19.000Z</time>
      </trkpt>
      <trkpt lat="47.18226" lon="-1.58099">
        <ele>67</ele>
        <time>2021-02-27T13:23:21.000Z</time>
      </trkpt>
      <trkpt lat="47.18227" lon="-1.5812">
        <ele>67</ele>
        <time>2021-02-27T13:23:23.000Z</time>
      </trkpt>
      <trkpt lat="47.18227" lon="-1.58142">
        <ele>66</ele>
        <time>2021-02-27T13:23:25.000Z</time>
      </trkpt>
      <trkpt lat="47.18229" lon="-1.58164">
        <ele>66</ele>
        <time>2021-02-27T13:23:27.000Z</time>
      </trkpt>
      <trkpt lat="47.18227" lon="-1.58185">
        <ele>65</ele>
        <time>2021-02-27T13:23:29.000Z</time>
      </trkpt>
      <trkpt lat="47.18222" lon="-1.58206">
        <ele>65</ele>
        <time>2021-02-27T13:23:31.000Z</time>
      </trkpt>
      <trkpt lat="47.18215" lon="-1.58225">
        <ele>65</ele>
        <time>2021-02-27T13:23:33.000Z</time>
      </trkpt>
      <trkpt lat="47.18208" lon="-1.58242">
        <ele>65</ele>
        <time>2021-02-27T13:23:35.000Z</time>
      </trkpt>
      <trkpt lat="47.182" lon="-1.5826">
        <ele>66</ele>
        <time>2021-02-27T13:23:37.000Z</time>
      </trkpt>
      <trkpt lat="47.18192" lon="-1.58276">
        <ele>66</ele>
        <time>2021-02-27T13:23:39.000Z</time>
      </trkpt>
      <trkpt lat="47.18184" lon="-1.58293">
        <ele>67</ele>
        <time>2021-02-27T13:23:41.000Z</time>
      </trkpt>
      <trkpt lat="47.18176" lon="-1.58309">
        <ele>68</ele>
        <time>2021-02-27T13:23:43.000Z</time>
      </trkpt>
      <trkpt lat="47.18169" lon="-1.58326">
        <ele>68</ele>
        <time>2021-02-27T13:23:45.000Z</time>
      </trkpt>
      <trkpt lat="47.18162" lon="-1.58343">
        <ele>68</ele>
        <time>2021-02-27T13:23:47.000Z</time>
      </trkpt>
      <trkpt lat="47.18156" lon="-1.58361">
        <ele>68</ele>
        <time>2021-02-27T13:23:49.000Z</time>
      </trkpt>
      <trkpt lat="47.1815" lon="-1.58378">
        <ele>68</ele>
        <time>2021-02-27T13:23:51.000Z</time>
      </trkpt>
      <trkpt lat="47.18144" lon="-1.58395">
        <ele>68</ele>
        <time>2021-02-27T13:23:53.000Z</time>
      </trkpt>
      <trkpt lat="47.18138" lon="-1.58413">
        <ele>68</ele>
        <time>2021-02-27T13:23:55.000Z</time>
      </trkpt>
      <trkpt lat="47.18133" lon="-1.5843">
        <ele>68</ele>
        <time>2021-02-27T13:23:57.000Z</time>
      </trkpt>
      <trkpt lat="47.18124" lon="-1.58444">
        <ele>69</ele>
        <time>2021-02-27T13:23:59.000Z</time>
      </trkpt>
      <trkpt lat="47.18118" lon="-1.5846">
        <ele>69</ele>
        <time>2021-02-27T13:24:01.000Z</time>
      </trkpt>
      <trkpt lat="47.18116" lon="-1.5848">
        <ele>68</ele>
        <time>2021-02-27T13:24:03.000Z</time>
      </trkpt>
      <trkpt lat="47.18115" lon="-1.585">
        <ele>68</ele>
        <time>2021-02-27T13:24:05.000Z</time>
      </trkpt>
      <trkpt lat="47.18114" lon="-1.58519">
        <ele>68</ele>
        <time>2021-02-27T13:24:07.000Z</time>
      </trkpt>
      <trkpt lat="47.18114" lon="-1.58537">
        <ele>68</ele>
        <time>2021-02-27T13:24:09.000Z</time>
      </trkpt>
      <trkpt lat="47.18122" lon="-1.58552">
        <ele>69</ele>
        <time>2021-02-27T13:24:11.000Z</time>
      </trkpt>
      <trkpt lat="47.18134" lon="-1.58559">
        <ele>69</ele>
        <time>2021-02-27T13:24:13.000Z</time>
      </trkpt>
      <trkpt lat="47.18147" lon="-1.58565">
        <ele>70</ele>
        <time>2021-02-27T13:24:15.000Z</time>
      </trkpt>
      <trkpt lat="47.18159" lon="-1.58571">
        <ele>69</ele>
        <time>2021-02-27T13:24:17.000Z</time>
      </trkpt>
      <trkpt lat="47.18171" lon="-1.58577">
        <ele>70</ele>
        <time>2021-02-27T13:24:19.000Z</time>
      </trkpt>
      <trkpt lat="47.18184" lon="-1.58583">
        <ele>70</ele>
        <time>2021-02-27T13:24:21.000Z</time>
      </trkpt>
      <trkpt lat="47.18196" lon="-1.58588">
        <ele>70</ele>
        <time>2021-02-27T13:24:23.000Z</time>
      </trkpt>
      <trkpt lat="47.18208" lon="-1.58593">
        <ele>70</ele>
        <time>2021-02-27T13:24:25.000Z</time>
      </trkpt>
      <trkpt lat="47.18219" lon="-1.58598">
        <ele>70</ele>
        <time>2021-02-27T13:24:27.000Z</time>
      </trkpt>
      <trkpt lat="47.1823" lon="-1.58605">
        <ele>70</ele>
        <time>2021-02-27T13:24:29.000Z</time>
      </trkpt>
      <trkpt lat="47.18241" lon="-1.5861">
        <ele>71</ele>
        <time>2021-02-27T13:24:31.000Z</time>
      </trkpt>
      <trkpt lat="47.1825" lon="-1.5862">
        <ele>71</ele>
        <time>2021-02-27T13:24:33.000Z</time>
      </trkpt>
      <trkpt lat="47.1825" lon="-1.58638">
        <ele>70</ele>
        <time>2021-02-27T13:24:35.000Z</time>
      </trkpt>
      <trkpt lat="47.18248" lon="-1.58657">
        <ele>70</ele>
        <time>2021-02-27T13:24:37.000Z</time>
      </trkpt>
      <trkpt lat="47.18246" lon="-1.58678">
        <ele>70</ele>
        <time>2021-02-27T13:24:39.000Z</time>
      </trkpt>
      <trkpt lat="47.18246" lon="-1.587">
        <ele>68</ele>
        <time>2021-02-27T13:24:41.000Z</time>
      </trkpt>
      <trkpt lat="47.18247" lon="-1.58719">
        <ele>68</ele>
        <time>2021-02-27T13:24:43.000Z</time>
      </trkpt>
      <trkpt lat="47.18247" lon="-1.58739">
        <ele>68</ele>
        <time>2021-02-27T13:24:45.000Z</time>
      </trkpt>
      <trkpt lat="47.18246" lon="-1.58758">
        <ele>68</ele>
        <time>2021-02-27T13:24:47.000Z</time>
      </trkpt>
      <trkpt lat="47.18248" lon="-1.58778">
        <ele>69</ele>
        <time>2021-02-27T13:24:49.000Z</time>
      </trkpt>
      <trkpt lat="47.18252" lon="-1.58795">
        <ele>68</ele>
        <time>2021-02-27T13:24:51.000Z</time>
      </trkpt>
      <trkpt lat="47.18259" lon="-1.58812">
        <ele>69</ele>
        <time>2021-02-27T13:24:53.000Z</time>
      </trkpt>
      <trkpt lat="47.18266" lon="-1.58827">
        <ele>68</ele>
        <time>2021-02-27T13:24:55.000Z</time>
      </trkpt>
      <trkpt lat="47.18272" lon="-1.58842">
        <ele>68</ele>
        <time>2021-02-27T13:24:57.000Z</time>
      </trkpt>
      <trkpt lat="47.18276" lon="-1.58858">
        <ele>68</ele>
        <time>2021-02-27T13:24:59.000Z</time>
      </trkpt>
      <trkpt lat="47.18279" lon="-1.58872">
        <ele>69</ele>
        <time>2021-02-27T13:25:01.000Z</time>
      </trkpt>
      <trkpt lat="47.18284" lon="-1.58884">
        <ele>69</ele>
        <time>2021-02-27T13:25:03.000Z</time>
      </trkpt>
      <trkpt lat="47.18295" lon="-1.58886">
        <ele>69</ele>
        <time>2021-02-27T13:25:05.000Z</time>
      </trkpt>
      <trkpt lat="47.18304" lon="-1.58884">
        <ele>69</ele>
        <time>2021-02-27T13:25:07.000Z</time>
      </trkpt>
      <trkpt lat="47.18315" lon="-1.58884">
        <ele>70</ele>
        <time>2021-02-27T13:25:10.000Z</time>
      </trkpt>
      <trkpt lat="47.18313" lon="-1.58897">
        <ele>70</ele>
        <time>2021-02-27T13:26:11.000Z</time>
      </trkpt>
      <trkpt lat="47.18322" lon="-1.58902">
        <ele>70</ele>
        <time>2021-02-27T13:42:59.000Z</time>
      </trkpt>
      <trkpt lat="47.18313" lon="-1.58902">
        <ele>67</ele>
        <time>2021-02-27T14:05:36.000Z</time>
      </trkpt>
      <trkpt lat="47.18318" lon="-1.5889">
        <ele>69</ele>
        <time>2021-02-27T14:21:22.000Z</time>
      </trkpt>
      <trkpt lat="47.18321" lon="-1.58905">
        <ele>69</ele>
        <time>2021-02-27T14:21:27.000Z</time>
      </trkpt>
      <trkpt lat="47.18322" lon="-1.58922">
        <ele>69</ele>
        <time>2021-02-27T14:21:30.000Z</time>
      </trkpt>
      <trkpt lat="47.18325" lon="-1.58938">
        <ele>70</ele>
        <time>2021-02-27T14:21:33.000Z</time>
      </trkpt>
      <trkpt lat="47.18331" lon="-1.58949">
        <ele>69</ele>
        <time>2021-02-27T14:21:35.000Z</time>
      </trkpt>
      <trkpt lat="47.18339" lon="-1.5896">
        <ele>69</ele>
        <time>2021-02-27T14:21:37.000Z</time>
      </trkpt>
      <trkpt lat="47.18347" lon="-1.5897">
        <ele>69</ele>
        <time>2021-02-27T14:21:39.000Z</time>
      </trkpt>
      <trkpt lat="47.18356" lon="-1.58982">
        <ele>68</ele>
        <time>2021-02-27T14:21:42.000Z</time>
      </trkpt>
      <trkpt lat="47.18355" lon="-1.59">
        <ele>68</ele>
        <time>2021-02-27T14:21:45.000Z</time>
      </trkpt>
      <trkpt lat="47.18346" lon="-1.59013">
        <ele>68</ele>
        <time>2021-02-27T14:21:47.000Z</time>
      </trkpt>
      <trkpt lat="47.18336" lon="-1.59027">
        <ele>68</ele>
        <time>2021-02-27T14:21:49.000Z</time>
      </trkpt>
      <trkpt lat="47.18329" lon="-1.59045">
        <ele>68</ele>
        <time>2021-02-27T14:21:51.000Z</time>
      </trkpt>
      <trkpt lat="47.18322" lon="-1.59066">
        <ele>68</ele>
        <time>2021-02-27T14:21:53.000Z</time>
      </trkpt>
      <trkpt lat="47.18315" lon="-1.59086">
        <ele>68</ele>
        <time>2021-02-27T14:21:55.000Z</time>
      </trkpt>
      <trkpt lat="47.18307" lon="-1.59106">
        <ele>68</ele>
        <time>2021-02-27T14:21:57.000Z</time>
      </trkpt>
      <trkpt lat="47.183" lon="-1.59126">
        <ele>68</ele>
        <time>2021-02-27T14:21:59.000Z</time>
      </trkpt>
      <trkpt lat="47.18294" lon="-1.59146">
        <ele>68</ele>
        <time>2021-02-27T14:22:01.000Z</time>
      </trkpt>
      <trkpt lat="47.18288" lon="-1.59166">
        <ele>68</ele>
        <time>2021-02-27T14:22:03.000Z</time>
      </trkpt>
      <trkpt lat="47.18281" lon="-1.59183">
        <ele>69</ele>
        <time>2021-02-27T14:22:05.000Z</time>
      </trkpt>
      <trkpt lat="47.18277" lon="-1.59201">
        <ele>69</ele>
        <time>2021-02-27T14:22:07.000Z</time>
      </trkpt>
      <trkpt lat="47.18269" lon="-1.59216">
        <ele>69</ele>
        <time>2021-02-27T14:22:09.000Z</time>
      </trkpt>
      <trkpt lat="47.18256" lon="-1.59226">
        <ele>69</ele>
        <time>2021-02-27T14:22:11.000Z</time>
      </trkpt>
      <trkpt lat="47.18244" lon="-1.59239">
        <ele>70</ele>
        <time>2021-02-27T14:22:13.000Z</time>
      </trkpt>
      <trkpt lat="47.18232" lon="-1.59253">
        <ele>70</ele>
        <time>2021-02-27T14:22:15.000Z</time>
      </trkpt>
      <trkpt lat="47.18219" lon="-1.59265">
        <ele>70</ele>
        <time>2021-02-27T14:22:17.000Z</time>
      </trkpt>
      <trkpt lat="47.18208" lon="-1.59277">
        <ele>70</ele>
        <time>2021-02-27T14:22:19.000Z</time>
      </trkpt>
      <trkpt lat="47.18195" lon="-1.59289">
        <ele>70</ele>
        <time>2021-02-27T14:22:21.000Z</time>
      </trkpt>
      <trkpt lat="47.18183" lon="-1.59303">
        <ele>71</ele>
        <time>2021-02-27T14:22:23.000Z</time>
      </trkpt>
      <trkpt lat="47.18171" lon="-1.59315">
        <ele>71</ele>
        <time>2021-02-27T14:22:25.000Z</time>
      </trkpt>
      <trkpt lat="47.18158" lon="-1.59327">
        <ele>71</ele>
        <time>2021-02-27T14:22:27.000Z</time>
      </trkpt>
      <trkpt lat="47.18146" lon="-1.5934">
        <ele>72</ele>
        <time>2021-02-27T14:22:29.000Z</time>
      </trkpt>
      <trkpt lat="47.18134" lon="-1.59352">
        <ele>71</ele>
        <time>2021-02-27T14:22:31.000Z</time>
      </trkpt>
      <trkpt lat="47.18122" lon="-1.59364">
        <ele>72</ele>
        <time>2021-02-27T14:22:33.000Z</time>
      </trkpt>
      <trkpt lat="47.1811" lon="-1.59375">
        <ele>72</ele>
        <time>2021-02-27T14:22:35.000Z</time>
      </trkpt>
      <trkpt lat="47.18098" lon="-1.59387">
        <ele>71</ele>
        <time>2021-02-27T14:22:37.000Z</time>
      </trkpt>
      <trkpt lat="47.18086" lon="-1.59398">
        <ele>71</ele>
        <time>2021-02-27T14:22:39.000Z</time>
      </trkpt>
      <trkpt lat="47.18075" lon="-1.5941">
        <ele>71</ele>
        <time>2021-02-27T14:22:41.000Z</time>
      </trkpt>
      <trkpt lat="47.18065" lon="-1.59423">
        <ele>71</ele>
        <time>2021-02-27T14:22:43.000Z</time>
      </trkpt>
      <trkpt lat="47.18054" lon="-1.59437">
        <ele>70</ele>
        <time>2021-02-27T14:22:45.000Z</time>
      </trkpt>
      <trkpt lat="47.18044" lon="-1.59452">
        <ele>70</ele>
        <time>2021-02-27T14:22:47.000Z</time>
      </trkpt>
      <trkpt lat="47.18038" lon="-1.5947">
        <ele>70</ele>
        <time>2021-02-27T14:22:49.000Z</time>
      </trkpt>
      <trkpt lat="47.18032" lon="-1.5949">
        <ele>71</ele>
        <time>2021-02-27T14:22:51.000Z</time>
      </trkpt>
      <trkpt lat="47.18027" lon="-1.5951">
        <ele>71</ele>
        <time>2021-02-27T14:22:53.000Z</time>
      </trkpt>
      <trkpt lat="47.18023" lon="-1.5953">
        <ele>71</ele>
        <time>2021-02-27T14:22:55.000Z</time>
      </trkpt>
      <trkpt lat="47.18018" lon="-1.5955">
        <ele>70</ele>
        <time>2021-02-27T14:22:57.000Z</time>
      </trkpt>
      <trkpt lat="47.18013" lon="-1.59569">
        <ele>70</ele>
        <time>2021-02-27T14:22:59.000Z</time>
      </trkpt>
      <trkpt lat="47.18007" lon="-1.59588">
        <ele>70</ele>
        <time>2021-02-27T14:23:01.000Z</time>
      </trkpt>
      <trkpt lat="47.18003" lon="-1.59608">
        <ele>69</ele>
        <time>2021-02-27T14:23:03.000Z</time>
      </trkpt>
      <trkpt lat="47.17998" lon="-1.59628">
        <ele>69</ele>
        <time>2021-02-27T14:23:05.000Z</time>
      </trkpt>
      <trkpt lat="47.17992" lon="-1.59647">
        <ele>69</ele>
        <time>2021-02-27T14:23:07.000Z</time>
      </trkpt>
      <trkpt lat="47.17987" lon="-1.59668">
        <ele>69</ele>
        <time>2021-02-27T14:23:09.000Z</time>
      </trkpt>
      <trkpt lat="47.17983" lon="-1.59691">
        <ele>68</ele>
        <time>2021-02-27T14:23:11.000Z</time>
      </trkpt>
      <trkpt lat="47.17977" lon="-1.59713">
        <ele>67</ele>
        <time>2021-02-27T14:23:13.000Z</time>
      </trkpt>
      <trkpt lat="47.17969" lon="-1.59736">
        <ele>67</ele>
        <time>2021-02-27T14:23:15.000Z</time>
      </trkpt>
      <trkpt lat="47.17962" lon="-1.59759">
        <ele>66</ele>
        <time>2021-02-27T14:23:17.000Z</time>
      </trkpt>
      <trkpt lat="47.17957" lon="-1.59783">
        <ele>64</ele>
        <time>2021-02-27T14:23:19.000Z</time>
      </trkpt>
      <trkpt lat="47.17954" lon="-1.59797">
        <ele>64</ele>
        <time>2021-02-27T14:23:20.000Z</time>
      </trkpt>
      <trkpt lat="47.17951" lon="-1.5981">
        <ele>63</ele>
        <time>2021-02-27T14:23:21.000Z</time>
      </trkpt>
      <trkpt lat="47.1795" lon="-1.59824">
        <ele>63</ele>
        <time>2021-02-27T14:23:22.000Z</time>
      </trkpt>
      <trkpt lat="47.17947" lon="-1.59838">
        <ele>62</ele>
        <time>2021-02-27T14:23:23.000Z</time>
      </trkpt>
      <trkpt lat="47.17944" lon="-1.59852">
        <ele>62</ele>
        <time>2021-02-27T14:23:24.000Z</time>
      </trkpt>
      <trkpt lat="47.17941" lon="-1.59866">
        <ele>61</ele>
        <time>2021-02-27T14:23:25.000Z</time>
      </trkpt>
      <trkpt lat="47.17938" lon="-1.59881">
        <ele>61</ele>
        <time>2021-02-27T14:23:26.000Z</time>
      </trkpt>
      <trkpt lat="47.17934" lon="-1.59896">
        <ele>60</ele>
        <time>2021-02-27T14:23:27.000Z</time>
      </trkpt>
      <trkpt lat="47.17931" lon="-1.59911">
        <ele>59</ele>
        <time>2021-02-27T14:23:28.000Z</time>
      </trkpt>
      <trkpt lat="47.17928" lon="-1.59926">
        <ele>59</ele>
        <time>2021-02-27T14:23:29.000Z</time>
      </trkpt>
      <trkpt lat="47.17921" lon="-1.59938">
        <ele>58</ele>
        <time>2021-02-27T14:23:30.000Z</time>
      </trkpt>
      <trkpt lat="47.17912" lon="-1.59943">
        <ele>58</ele>
        <time>2021-02-27T14:23:31.000Z</time>
      </trkpt>
      <trkpt lat="47.17902" lon="-1.59944">
        <ele>58</ele>
        <time>2021-02-27T14:23:32.000Z</time>
      </trkpt>
      <trkpt lat="47.17893" lon="-1.59947">
        <ele>58</ele>
        <time>2021-02-27T14:23:33.000Z</time>
      </trkpt>
      <trkpt lat="47.17879" lon="-1.59962">
        <ele>57</ele>
        <time>2021-02-27T14:23:35.000Z</time>
      </trkpt>
      <trkpt lat="47.17873" lon="-1.59973">
        <ele>58</ele>
        <time>2021-02-27T14:23:36.000Z</time>
      </trkpt>
      <trkpt lat="47.17867" lon="-1.59984">
        <ele>58</ele>
        <time>2021-02-27T14:23:37.000Z</time>
      </trkpt>
      <trkpt lat="47.17856" lon="-1.60003">
        <ele>58</ele>
        <time>2021-02-27T14:23:39.000Z</time>
      </trkpt>
      <trkpt lat="47.17844" lon="-1.60022">
        <ele>58</ele>
        <time>2021-02-27T14:23:41.000Z</time>
      </trkpt>
      <trkpt lat="47.17834" lon="-1.6004">
        <ele>59</ele>
        <time>2021-02-27T14:23:43.000Z</time>
      </trkpt>
      <trkpt lat="47.17824" lon="-1.60057">
        <ele>59</ele>
        <time>2021-02-27T14:23:45.000Z</time>
      </trkpt>
      <trkpt lat="47.17814" lon="-1.60075">
        <ele>60</ele>
        <time>2021-02-27T14:23:47.000Z</time>
      </trkpt>
      <trkpt lat="47.17805" lon="-1.60092">
        <ele>61</ele>
        <time>2021-02-27T14:23:49.000Z</time>
      </trkpt>
      <trkpt lat="47.17795" lon="-1.60109">
        <ele>62</ele>
        <time>2021-02-27T14:23:51.000Z</time>
      </trkpt>
      <trkpt lat="47.17785" lon="-1.60124">
        <ele>62</ele>
        <time>2021-02-27T14:23:53.000Z</time>
      </trkpt>
      <trkpt lat="47.17776" lon="-1.60141">
        <ele>63</ele>
        <time>2021-02-27T14:23:55.000Z</time>
      </trkpt>
      <trkpt lat="47.17767" lon="-1.60157">
        <ele>63</ele>
        <time>2021-02-27T14:23:57.000Z</time>
      </trkpt>
      <trkpt lat="47.17759" lon="-1.60175">
        <ele>64</ele>
        <time>2021-02-27T14:23:59.000Z</time>
      </trkpt>
      <trkpt lat="47.17753" lon="-1.60193">
        <ele>65</ele>
        <time>2021-02-27T14:24:01.000Z</time>
      </trkpt>
      <trkpt lat="47.17748" lon="-1.60212">
        <ele>66</ele>
        <time>2021-02-27T14:24:03.000Z</time>
      </trkpt>
      <trkpt lat="47.17743" lon="-1.60232">
        <ele>66</ele>
        <time>2021-02-27T14:24:05.000Z</time>
      </trkpt>
      <trkpt lat="47.17739" lon="-1.60253">
        <ele>67</ele>
        <time>2021-02-27T14:24:07.000Z</time>
      </trkpt>
      <trkpt lat="47.17732" lon="-1.6027">
        <ele>67</ele>
        <time>2021-02-27T14:24:09.000Z</time>
      </trkpt>
      <trkpt lat="47.17722" lon="-1.60285">
        <ele>67</ele>
        <time>2021-02-27T14:24:11.000Z</time>
      </trkpt>
      <trkpt lat="47.17712" lon="-1.60299">
        <ele>68</ele>
        <time>2021-02-27T14:24:13.000Z</time>
      </trkpt>
      <trkpt lat="47.17702" lon="-1.60313">
        <ele>68</ele>
        <time>2021-02-27T14:24:15.000Z</time>
      </trkpt>
      <trkpt lat="47.17693" lon="-1.60327">
        <ele>68</ele>
        <time>2021-02-27T14:24:17.000Z</time>
      </trkpt>
      <trkpt lat="47.17683" lon="-1.60341">
        <ele>68</ele>
        <time>2021-02-27T14:24:19.000Z</time>
      </trkpt>
      <trkpt lat="47.17672" lon="-1.60355">
        <ele>68</ele>
        <time>2021-02-27T14:24:21.000Z</time>
      </trkpt>
      <trkpt lat="47.17662" lon="-1.60369">
        <ele>68</ele>
        <time>2021-02-27T14:24:23.000Z</time>
      </trkpt>
      <trkpt lat="47.17652" lon="-1.60384">
        <ele>68</ele>
        <time>2021-02-27T14:24:25.000Z</time>
      </trkpt>
      <trkpt lat="47.17643" lon="-1.604">
        <ele>67</ele>
        <time>2021-02-27T14:24:27.000Z</time>
      </trkpt>
      <trkpt lat="47.17633" lon="-1.60416">
        <ele>67</ele>
        <time>2021-02-27T14:24:29.000Z</time>
      </trkpt>
      <trkpt lat="47.17622" lon="-1.60433">
        <ele>67</ele>
        <time>2021-02-27T14:24:31.000Z</time>
      </trkpt>
      <trkpt lat="47.17611" lon="-1.60451">
        <ele>67</ele>
        <time>2021-02-27T14:24:33.000Z</time>
      </trkpt>
      <trkpt lat="47.176" lon="-1.60468">
        <ele>66</ele>
        <time>2021-02-27T14:24:35.000Z</time>
      </trkpt>
      <trkpt lat="47.17589" lon="-1.60486">
        <ele>66</ele>
        <time>2021-02-27T14:24:37.000Z</time>
      </trkpt>
      <trkpt lat="47.17578" lon="-1.60503">
        <ele>66</ele>
        <time>2021-02-27T14:24:39.000Z</time>
      </trkpt>
      <trkpt lat="47.17568" lon="-1.60521">
        <ele>66</ele>
        <time>2021-02-27T14:24:41.000Z</time>
      </trkpt>
      <trkpt lat="47.17557" lon="-1.60539">
        <ele>66</ele>
        <time>2021-02-27T14:24:43.000Z</time>
      </trkpt>
      <trkpt lat="47.17546" lon="-1.60556">
        <ele>65</ele>
        <time>2021-02-27T14:24:45.000Z</time>
      </trkpt>
      <trkpt lat="47.17535" lon="-1.60573">
        <ele>65</ele>
        <time>2021-02-27T14:24:47.000Z</time>
      </trkpt>
      <trkpt lat="47.17525" lon="-1.60591">
        <ele>64</ele>
        <time>2021-02-27T14:24:49.000Z</time>
      </trkpt>
      <trkpt lat="47.17514" lon="-1.60607">
        <ele>64</ele>
        <time>2021-02-27T14:24:51.000Z</time>
      </trkpt>
      <trkpt lat="47.17504" lon="-1.60624">
        <ele>63</ele>
        <time>2021-02-27T14:24:53.000Z</time>
      </trkpt>
      <trkpt lat="47.17493" lon="-1.60641">
        <ele>63</ele>
        <time>2021-02-27T14:24:55.000Z</time>
      </trkpt>
      <trkpt lat="47.17482" lon="-1.60658">
        <ele>63</ele>
        <time>2021-02-27T14:24:57.000Z</time>
      </trkpt>
      <trkpt lat="47.17472" lon="-1.60677">
        <ele>63</ele>
        <time>2021-02-27T14:24:59.000Z</time>
      </trkpt>
      <trkpt lat="47.17461" lon="-1.60695">
        <ele>62</ele>
        <time>2021-02-27T14:25:01.000Z</time>
      </trkpt>
      <trkpt lat="47.17449" lon="-1.60714">
        <ele>62</ele>
        <time>2021-02-27T14:25:03.000Z</time>
      </trkpt>
      <trkpt lat="47.17437" lon="-1.60734">
        <ele>61</ele>
        <time>2021-02-27T14:25:05.000Z</time>
      </trkpt>
      <trkpt lat="47.17432" lon="-1.60745">
        <ele>61</ele>
        <time>2021-02-27T14:25:06.000Z</time>
      </trkpt>
      <trkpt lat="47.17426" lon="-1.60756">
        <ele>61</ele>
        <time>2021-02-27T14:25:07.000Z</time>
      </trkpt>
      <trkpt lat="47.17422" lon="-1.60768">
        <ele>61</ele>
        <time>2021-02-27T14:25:08.000Z</time>
      </trkpt>
      <trkpt lat="47.17417" lon="-1.60781">
        <ele>60</ele>
        <time>2021-02-27T14:25:09.000Z</time>
      </trkpt>
      <trkpt lat="47.17413" lon="-1.60794">
        <ele>59</ele>
        <time>2021-02-27T14:25:10.000Z</time>
      </trkpt>
      <trkpt lat="47.17409" lon="-1.60807">
        <ele>59</ele>
        <time>2021-02-27T14:25:11.000Z</time>
      </trkpt>
      <trkpt lat="47.17405" lon="-1.60821">
        <ele>59</ele>
        <time>2021-02-27T14:25:12.000Z</time>
      </trkpt>
      <trkpt lat="47.17402" lon="-1.60835">
        <ele>59</ele>
        <time>2021-02-27T14:25:13.000Z</time>
      </trkpt>
      <trkpt lat="47.174" lon="-1.60849">
        <ele>59</ele>
        <time>2021-02-27T14:25:14.000Z</time>
      </trkpt>
      <trkpt lat="47.17399" lon="-1.60864">
        <ele>58</ele>
        <time>2021-02-27T14:25:15.000Z</time>
      </trkpt>
      <trkpt lat="47.17398" lon="-1.60878">
        <ele>58</ele>
        <time>2021-02-27T14:25:16.000Z</time>
      </trkpt>
      <trkpt lat="47.17397" lon="-1.60892">
        <ele>58</ele>
        <time>2021-02-27T14:25:17.000Z</time>
      </trkpt>
      <trkpt lat="47.17397" lon="-1.60907">
        <ele>57</ele>
        <time>2021-02-27T14:25:18.000Z</time>
      </trkpt>
      <trkpt lat="47.17397" lon="-1.60922">
        <ele>57</ele>
        <time>2021-02-27T14:25:19.000Z</time>
      </trkpt>
      <trkpt lat="47.17399" lon="-1.60936">
        <ele>57</ele>
        <time>2021-02-27T14:25:20.000Z</time>
      </trkpt>
      <trkpt lat="47.17402" lon="-1.60951">
        <ele>57</ele>
        <time>2021-02-27T14:25:21.000Z</time>
      </trkpt>
      <trkpt lat="47.17405" lon="-1.60965">
        <ele>56</ele>
        <time>2021-02-27T14:25:22.000Z</time>
      </trkpt>
      <trkpt lat="47.17409" lon="-1.60977">
        <ele>56</ele>
        <time>2021-02-27T14:25:23.000Z</time>
      </trkpt>
      <trkpt lat="47.17417" lon="-1.60999">
        <ele>56</ele>
        <time>2021-02-27T14:25:25.000Z</time>
      </trkpt>
      <trkpt lat="47.17418" lon="-1.61012">
        <ele>55</ele>
        <time>2021-02-27T14:25:26.000Z</time>
      </trkpt>
      <trkpt lat="47.17419" lon="-1.61026">
        <ele>55</ele>
        <time>2021-02-27T14:25:27.000Z</time>
      </trkpt>
      <trkpt lat="47.17421" lon="-1.61039">
        <ele>56</ele>
        <time>2021-02-27T14:25:28.000Z</time>
      </trkpt>
      <trkpt lat="47.1743" lon="-1.61062">
        <ele>56</ele>
        <time>2021-02-27T14:25:30.000Z</time>
      </trkpt>
      <trkpt lat="47.1744" lon="-1.61084">
        <ele>56</ele>
        <time>2021-02-27T14:25:32.000Z</time>
      </trkpt>
      <trkpt lat="47.17445" lon="-1.61097">
        <ele>56</ele>
        <time>2021-02-27T14:25:33.000Z</time>
      </trkpt>
      <trkpt lat="47.1745" lon="-1.61109">
        <ele>57</ele>
        <time>2021-02-27T14:25:34.000Z</time>
      </trkpt>
      <trkpt lat="47.17454" lon="-1.6112">
        <ele>57</ele>
        <time>2021-02-27T14:25:35.000Z</time>
      </trkpt>
      <trkpt lat="47.17464" lon="-1.61141">
        <ele>58</ele>
        <time>2021-02-27T14:25:37.000Z</time>
      </trkpt>
      <trkpt lat="47.17472" lon="-1.61163">
        <ele>58</ele>
        <time>2021-02-27T14:25:39.000Z</time>
      </trkpt>
      <trkpt lat="47.17481" lon="-1.61184">
        <ele>58</ele>
        <time>2021-02-27T14:25:41.000Z</time>
      </trkpt>
      <trkpt lat="47.17488" lon="-1.61205">
        <ele>59</ele>
        <time>2021-02-27T14:25:43.000Z</time>
      </trkpt>
      <trkpt lat="47.17497" lon="-1.61225">
        <ele>60</ele>
        <time>2021-02-27T14:25:45.000Z</time>
      </trkpt>
      <trkpt lat="47.17505" lon="-1.61243">
        <ele>59</ele>
        <time>2021-02-27T14:25:47.000Z</time>
      </trkpt>
      <trkpt lat="47.17514" lon="-1.61259">
        <ele>60</ele>
        <time>2021-02-27T14:25:49.000Z</time>
      </trkpt>
      <trkpt lat="47.17524" lon="-1.61275">
        <ele>59</ele>
        <time>2021-02-27T14:25:51.000Z</time>
      </trkpt>
      <trkpt lat="47.17536" lon="-1.61288">
        <ele>59</ele>
        <time>2021-02-27T14:25:53.000Z</time>
      </trkpt>
      <trkpt lat="47.1755" lon="-1.61296">
        <ele>59</ele>
        <time>2021-02-27T14:25:55.000Z</time>
      </trkpt>
      <trkpt lat="47.17561" lon="-1.61313">
        <ele>58</ele>
        <time>2021-02-27T14:25:57.000Z</time>
      </trkpt>
      <trkpt lat="47.1756" lon="-1.61335">
        <ele>58</ele>
        <time>2021-02-27T14:25:59.000Z</time>
      </trkpt>
      <trkpt lat="47.17551" lon="-1.61353">
        <ele>59</ele>
        <time>2021-02-27T14:26:01.000Z</time>
      </trkpt>
      <trkpt lat="47.17537" lon="-1.61366">
        <ele>59</ele>
        <time>2021-02-27T14:26:03.000Z</time>
      </trkpt>
      <trkpt lat="47.17529" lon="-1.61386">
        <ele>59</ele>
        <time>2021-02-27T14:26:05.000Z</time>
      </trkpt>
      <trkpt lat="47.17524" lon="-1.61408">
        <ele>60</ele>
        <time>2021-02-27T14:26:07.000Z</time>
      </trkpt>
      <trkpt lat="47.1752" lon="-1.61429">
        <ele>62</ele>
        <time>2021-02-27T14:26:09.000Z</time>
      </trkpt>
      <trkpt lat="47.17516" lon="-1.61447">
        <ele>63</ele>
        <time>2021-02-27T14:26:11.000Z</time>
      </trkpt>
      <trkpt lat="47.17507" lon="-1.6146">
        <ele>63</ele>
        <time>2021-02-27T14:26:13.000Z</time>
      </trkpt>
      <trkpt lat="47.17495" lon="-1.61467">
        <ele>64</ele>
        <time>2021-02-27T14:26:15.000Z</time>
      </trkpt>
      <trkpt lat="47.17483" lon="-1.61472">
        <ele>64</ele>
        <time>2021-02-27T14:26:17.000Z</time>
      </trkpt>
      <trkpt lat="47.1747" lon="-1.61477">
        <ele>64</ele>
        <time>2021-02-27T14:26:19.000Z</time>
      </trkpt>
      <trkpt lat="47.17457" lon="-1.61484">
        <ele>65</ele>
        <time>2021-02-27T14:26:21.000Z</time>
      </trkpt>
      <trkpt lat="47.17445" lon="-1.6149">
        <ele>66</ele>
        <time>2021-02-27T14:26:23.000Z</time>
      </trkpt>
      <trkpt lat="47.17432" lon="-1.61497">
        <ele>66</ele>
        <time>2021-02-27T14:26:25.000Z</time>
      </trkpt>
      <trkpt lat="47.1742" lon="-1.61504">
        <ele>67</ele>
        <time>2021-02-27T14:26:27.000Z</time>
      </trkpt>
      <trkpt lat="47.17409" lon="-1.61512">
        <ele>68</ele>
        <time>2021-02-27T14:26:29.000Z</time>
      </trkpt>
      <trkpt lat="47.17399" lon="-1.6152">
        <ele>68</ele>
        <time>2021-02-27T14:26:31.000Z</time>
      </trkpt>
      <trkpt lat="47.17388" lon="-1.6153">
        <ele>68</ele>
        <time>2021-02-27T14:26:33.000Z</time>
      </trkpt>
      <trkpt lat="47.17378" lon="-1.61539">
        <ele>68</ele>
        <time>2021-02-27T14:26:35.000Z</time>
      </trkpt>
      <trkpt lat="47.17368" lon="-1.61548">
        <ele>68</ele>
        <time>2021-02-27T14:26:37.000Z</time>
      </trkpt>
      <trkpt lat="47.17358" lon="-1.61559">
        <ele>69</ele>
        <time>2021-02-27T14:26:39.000Z</time>
      </trkpt>
      <trkpt lat="47.17348" lon="-1.6157">
        <ele>69</ele>
        <time>2021-02-27T14:26:41.000Z</time>
      </trkpt>
      <trkpt lat="47.17339" lon="-1.61582">
        <ele>70</ele>
        <time>2021-02-27T14:26:43.000Z</time>
      </trkpt>
      <trkpt lat="47.1733" lon="-1.61593">
        <ele>69</ele>
        <time>2021-02-27T14:26:45.000Z</time>
      </trkpt>
      <trkpt lat="47.17321" lon="-1.61606">
        <ele>69</ele>
        <time>2021-02-27T14:26:47.000Z</time>
      </trkpt>
      <trkpt lat="47.17312" lon="-1.61619">
        <ele>69</ele>
        <time>2021-02-27T14:26:49.000Z</time>
      </trkpt>
      <trkpt lat="47.17304" lon="-1.61633">
        <ele>69</ele>
        <time>2021-02-27T14:26:51.000Z</time>
      </trkpt>
      <trkpt lat="47.17296" lon="-1.61647">
        <ele>69</ele>
        <time>2021-02-27T14:26:53.000Z</time>
      </trkpt>
      <trkpt lat="47.17287" lon="-1.61662">
        <ele>69</ele>
        <time>2021-02-27T14:26:55.000Z</time>
      </trkpt>
      <trkpt lat="47.1728" lon="-1.61676">
        <ele>69</ele>
        <time>2021-02-27T14:26:57.000Z</time>
      </trkpt>
      <trkpt lat="47.17272" lon="-1.61691">
        <ele>69</ele>
        <time>2021-02-27T14:26:59.000Z</time>
      </trkpt>
      <trkpt lat="47.17265" lon="-1.61707">
        <ele>68</ele>
        <time>2021-02-27T14:27:01.000Z</time>
      </trkpt>
      <trkpt lat="47.17257" lon="-1.61722">
        <ele>68</ele>
        <time>2021-02-27T14:27:03.000Z</time>
      </trkpt>
      <trkpt lat="47.17251" lon="-1.61739">
        <ele>68</ele>
        <time>2021-02-27T14:27:05.000Z</time>
      </trkpt>
      <trkpt lat="47.17246" lon="-1.61757">
        <ele>68</ele>
        <time>2021-02-27T14:27:07.000Z</time>
      </trkpt>
      <trkpt lat="47.17242" lon="-1.61776">
        <ele>68</ele>
        <time>2021-02-27T14:27:09.000Z</time>
      </trkpt>
      <trkpt lat="47.17231" lon="-1.61788">
        <ele>67</ele>
        <time>2021-02-27T14:27:11.000Z</time>
      </trkpt>
      <trkpt lat="47.17219" lon="-1.61798">
        <ele>68</ele>
        <time>2021-02-27T14:27:13.000Z</time>
      </trkpt>
      <trkpt lat="47.17207" lon="-1.61809">
        <ele>68</ele>
        <time>2021-02-27T14:27:15.000Z</time>
      </trkpt>
      <trkpt lat="47.17195" lon="-1.6182">
        <ele>68</ele>
        <time>2021-02-27T14:27:17.000Z</time>
      </trkpt>
      <trkpt lat="47.17184" lon="-1.6183">
        <ele>68</ele>
        <time>2021-02-27T14:27:19.000Z</time>
      </trkpt>
      <trkpt lat="47.17173" lon="-1.6184">
        <ele>69</ele>
        <time>2021-02-27T14:27:21.000Z</time>
      </trkpt>
      <trkpt lat="47.17162" lon="-1.61851">
        <ele>69</ele>
        <time>2021-02-27T14:27:23.000Z</time>
      </trkpt>
      <trkpt lat="47.17151" lon="-1.61862">
        <ele>69</ele>
        <time>2021-02-27T14:27:25.000Z</time>
      </trkpt>
      <trkpt lat="47.17139" lon="-1.61872">
        <ele>69</ele>
        <time>2021-02-27T14:27:27.000Z</time>
      </trkpt>
      <trkpt lat="47.17128" lon="-1.61883">
        <ele>69</ele>
        <time>2021-02-27T14:27:29.000Z</time>
      </trkpt>
      <trkpt lat="47.17117" lon="-1.61894">
        <ele>69</ele>
        <time>2021-02-27T14:27:31.000Z</time>
      </trkpt>
      <trkpt lat="47.17105" lon="-1.61905">
        <ele>69</ele>
        <time>2021-02-27T14:27:33.000Z</time>
      </trkpt>
      <trkpt lat="47.17094" lon="-1.61915">
        <ele>69</ele>
        <time>2021-02-27T14:27:35.000Z</time>
      </trkpt>
      <trkpt lat="47.17083" lon="-1.61926">
        <ele>69</ele>
        <time>2021-02-27T14:27:37.000Z</time>
      </trkpt>
      <trkpt lat="47.17073" lon="-1.61938">
        <ele>69</ele>
        <time>2021-02-27T14:27:39.000Z</time>
      </trkpt>
      <trkpt lat="47.17062" lon="-1.6195">
        <ele>69</ele>
        <time>2021-02-27T14:27:41.000Z</time>
      </trkpt>
      <trkpt lat="47.17051" lon="-1.61964">
        <ele>69</ele>
        <time>2021-02-27T14:27:43.000Z</time>
      </trkpt>
      <trkpt lat="47.17041" lon="-1.61978">
        <ele>69</ele>
        <time>2021-02-27T14:27:45.000Z</time>
      </trkpt>
      <trkpt lat="47.17031" lon="-1.61993">
        <ele>69</ele>
        <time>2021-02-27T14:27:47.000Z</time>
      </trkpt>
      <trkpt lat="47.17021" lon="-1.62007">
        <ele>68</ele>
        <time>2021-02-27T14:27:49.000Z</time>
      </trkpt>
      <trkpt lat="47.17011" lon="-1.62022">
        <ele>68</ele>
        <time>2021-02-27T14:27:51.000Z</time>
      </trkpt>
      <trkpt lat="47.17002" lon="-1.62038">
        <ele>69</ele>
        <time>2021-02-27T14:27:53.000Z</time>
      </trkpt>
      <trkpt lat="47.16993" lon="-1.62054">
        <ele>69</ele>
        <time>2021-02-27T14:27:55.000Z</time>
      </trkpt>
      <trkpt lat="47.16984" lon="-1.62071">
        <ele>69</ele>
        <time>2021-02-27T14:27:57.000Z</time>
      </trkpt>
      <trkpt lat="47.16975" lon="-1.62086">
        <ele>69</ele>
        <time>2021-02-27T14:27:59.000Z</time>
      </trkpt>
      <trkpt lat="47.16966" lon="-1.62102">
        <ele>69</ele>
        <time>2021-02-27T14:28:01.000Z</time>
      </trkpt>
      <trkpt lat="47.16957" lon="-1.62119">
        <ele>69</ele>
        <time>2021-02-27T14:28:03.000Z</time>
      </trkpt>
      <trkpt lat="47.16949" lon="-1.62135">
        <ele>69</ele>
        <time>2021-02-27T14:28:05.000Z</time>
      </trkpt>
      <trkpt lat="47.1694" lon="-1.62152">
        <ele>69</ele>
        <time>2021-02-27T14:28:07.000Z</time>
      </trkpt>
      <trkpt lat="47.16932" lon="-1.62169">
        <ele>69</ele>
        <time>2021-02-27T14:28:09.000Z</time>
      </trkpt>
      <trkpt lat="47.16924" lon="-1.62186">
        <ele>69</ele>
        <time>2021-02-27T14:28:11.000Z</time>
      </trkpt>
      <trkpt lat="47.16915" lon="-1.62202">
        <ele>69</ele>
        <time>2021-02-27T14:28:13.000Z</time>
      </trkpt>
      <trkpt lat="47.16906" lon="-1.62217">
        <ele>69</ele>
        <time>2021-02-27T14:28:15.000Z</time>
      </trkpt>
      <trkpt lat="47.16895" lon="-1.6223">
        <ele>69</ele>
        <time>2021-02-27T14:28:17.000Z</time>
      </trkpt>
      <trkpt lat="47.16884" lon="-1.62243">
        <ele>70</ele>
        <time>2021-02-27T14:28:19.000Z</time>
      </trkpt>
      <trkpt lat="47.16874" lon="-1.62257">
        <ele>69</ele>
        <time>2021-02-27T14:28:21.000Z</time>
      </trkpt>
      <trkpt lat="47.16863" lon="-1.6227">
        <ele>70</ele>
        <time>2021-02-27T14:28:23.000Z</time>
      </trkpt>
      <trkpt lat="47.16853" lon="-1.62284">
        <ele>70</ele>
        <time>2021-02-27T14:28:25.000Z</time>
      </trkpt>
      <trkpt lat="47.16842" lon="-1.62297">
        <ele>70</ele>
        <time>2021-02-27T14:28:27.000Z</time>
      </trkpt>
      <trkpt lat="47.1683" lon="-1.62309">
        <ele>70</ele>
        <time>2021-02-27T14:28:29.000Z</time>
      </trkpt>
      <trkpt lat="47.16819" lon="-1.62318">
        <ele>70</ele>
        <time>2021-02-27T14:28:31.000Z</time>
      </trkpt>
      <trkpt lat="47.16805" lon="-1.62326">
        <ele>70</ele>
        <time>2021-02-27T14:28:33.000Z</time>
      </trkpt>
      <trkpt lat="47.16792" lon="-1.62334">
        <ele>70</ele>
        <time>2021-02-27T14:28:35.000Z</time>
      </trkpt>
      <trkpt lat="47.16778" lon="-1.62341">
        <ele>70</ele>
        <time>2021-02-27T14:28:37.000Z</time>
      </trkpt>
      <trkpt lat="47.16765" lon="-1.6235">
        <ele>70</ele>
        <time>2021-02-27T14:28:39.000Z</time>
      </trkpt>
      <trkpt lat="47.16751" lon="-1.6236">
        <ele>70</ele>
        <time>2021-02-27T14:28:41.000Z</time>
      </trkpt>
      <trkpt lat="47.1674" lon="-1.62375">
        <ele>69</ele>
        <time>2021-02-27T14:28:43.000Z</time>
      </trkpt>
      <trkpt lat="47.16733" lon="-1.62394">
        <ele>69</ele>
        <time>2021-02-27T14:28:45.000Z</time>
      </trkpt>
      <trkpt lat="47.16729" lon="-1.62413">
        <ele>69</ele>
        <time>2021-02-27T14:28:47.000Z</time>
      </trkpt>
      <trkpt lat="47.16727" lon="-1.62432">
        <ele>68</ele>
        <time>2021-02-27T14:28:49.000Z</time>
      </trkpt>
      <trkpt lat="47.16723" lon="-1.6245">
        <ele>67</ele>
        <time>2021-02-27T14:28:51.000Z</time>
      </trkpt>
      <trkpt lat="47.16718" lon="-1.62469">
        <ele>67</ele>
        <time>2021-02-27T14:28:53.000Z</time>
      </trkpt>
      <trkpt lat="47.16716" lon="-1.62487">
        <ele>67</ele>
        <time>2021-02-27T14:28:55.000Z</time>
      </trkpt>
      <trkpt lat="47.16727" lon="-1.62498">
        <ele>67</ele>
        <time>2021-02-27T14:28:57.000Z</time>
      </trkpt>
      <trkpt lat="47.1674" lon="-1.62502">
        <ele>67</ele>
        <time>2021-02-27T14:28:59.000Z</time>
      </trkpt>
      <trkpt lat="47.16753" lon="-1.62508">
        <ele>68</ele>
        <time>2021-02-27T14:29:01.000Z</time>
      </trkpt>
      <trkpt lat="47.16764" lon="-1.62514">
        <ele>68</ele>
        <time>2021-02-27T14:29:03.000Z</time>
      </trkpt>
      <trkpt lat="47.16776" lon="-1.62522">
        <ele>68</ele>
        <time>2021-02-27T14:29:05.000Z</time>
      </trkpt>
      <trkpt lat="47.16787" lon="-1.62529">
        <ele>69</ele>
        <time>2021-02-27T14:29:07.000Z</time>
      </trkpt>
      <trkpt lat="47.16797" lon="-1.62536">
        <ele>69</ele>
        <time>2021-02-27T14:29:09.000Z</time>
      </trkpt>
      <trkpt lat="47.16807" lon="-1.62543">
        <ele>68</ele>
        <time>2021-02-27T14:29:11.000Z</time>
      </trkpt>
      <trkpt lat="47.16817" lon="-1.62551">
        <ele>68</ele>
        <time>2021-02-27T14:29:13.000Z</time>
      </trkpt>
      <trkpt lat="47.16826" lon="-1.62561">
        <ele>68</ele>
        <time>2021-02-27T14:29:15.000Z</time>
      </trkpt>
      <trkpt lat="47.16833" lon="-1.62576">
        <ele>68</ele>
        <time>2021-02-27T14:29:17.000Z</time>
      </trkpt>
      <trkpt lat="47.1683" lon="-1.62593">
        <ele>68</ele>
        <time>2021-02-27T14:29:19.000Z</time>
      </trkpt>
      <trkpt lat="47.16823" lon="-1.62605">
        <ele>68</ele>
        <time>2021-02-27T14:29:21.000Z</time>
      </trkpt>
      <trkpt lat="47.16814" lon="-1.62617">
        <ele>68</ele>
        <time>2021-02-27T14:29:23.000Z</time>
      </trkpt>
      <trkpt lat="47.16806" lon="-1.6263">
        <ele>68</ele>
        <time>2021-02-27T14:29:25.000Z</time>
      </trkpt>
      <trkpt lat="47.16798" lon="-1.62642">
        <ele>68</ele>
        <time>2021-02-27T14:29:27.000Z</time>
      </trkpt>
      <trkpt lat="47.16792" lon="-1.62654">
        <ele>69</ele>
        <time>2021-02-27T14:29:29.000Z</time>
      </trkpt>
      <trkpt lat="47.16784" lon="-1.62661">
        <ele>69</ele>
        <time>2021-02-27T14:29:31.000Z</time>
      </trkpt>
      <trkpt lat="47.16777" lon="-1.62652">
        <ele>69</ele>
        <time>2021-02-27T14:29:34.000Z</time>
      </trkpt>
    </trkseg>
  </trk>
</gpx>